<?xml version="1.0" encoding="UTF-8" standalone="no" ?>
<gpx xmlns="http://www.topografix.com/GPX/1/1" xmlns:xsi="http://www.w3.org/2001/XMLSchema-instance" xsi:schemaLocation="http://www.topografix.com/GPX/1/1 http://www.topografix.com/GPX/1/1/gpx.xsd" version="1.1" creator="VisuGPX - https://www.visugpx.com">
  <metadata>
    <name>2010 Trail du Gerbier</name>
    <desc><![CDATA[2010 Trail du Gerbier Le Gua prelenfray]]></desc>
  </metadata>
  <trk>
    <name><![CDATA[2010 Trail du Gerbier_1]]></name>
    <trkseg>
      <trkpt lat="45.01496" lon="5.61086">
        <ele>962</ele>
        <time>2010-06-20T07:04:09Z</time>
      </trkpt>
      <trkpt lat="45.01521" lon="5.61102">
        <ele>963</ele>
        <time>2010-06-20T07:04:20Z</time>
      </trkpt>
      <trkpt lat="45.01524" lon="5.61104">
        <ele>963</ele>
        <time>2010-06-20T07:04:21Z</time>
      </trkpt>
      <trkpt lat="45.01528" lon="5.61106">
        <ele>963</ele>
        <time>2010-06-20T07:04:22Z</time>
      </trkpt>
      <trkpt lat="45.0153" lon="5.61109">
        <ele>963</ele>
        <time>2010-06-20T07:04:23Z</time>
      </trkpt>
      <trkpt lat="45.01532" lon="5.61111">
        <ele>962</ele>
        <time>2010-06-20T07:04:24Z</time>
      </trkpt>
      <trkpt lat="45.01535" lon="5.61114">
        <ele>962</ele>
        <time>2010-06-20T07:04:25Z</time>
      </trkpt>
      <trkpt lat="45.01537" lon="5.61115">
        <ele>962</ele>
        <time>2010-06-20T07:04:26Z</time>
      </trkpt>
      <trkpt lat="45.0154" lon="5.61114">
        <ele>962</ele>
        <time>2010-06-20T07:04:27Z</time>
      </trkpt>
      <trkpt lat="45.01543" lon="5.61111">
        <ele>962</ele>
        <time>2010-06-20T07:04:28Z</time>
      </trkpt>
      <trkpt lat="45.01546" lon="5.61108">
        <ele>962</ele>
        <time>2010-06-20T07:04:29Z</time>
      </trkpt>
      <trkpt lat="45.01548" lon="5.61105">
        <ele>962</ele>
        <time>2010-06-20T07:04:30Z</time>
      </trkpt>
      <trkpt lat="45.01551" lon="5.61101">
        <ele>962</ele>
        <time>2010-06-20T07:04:31Z</time>
      </trkpt>
      <trkpt lat="45.01554" lon="5.61098">
        <ele>962</ele>
        <time>2010-06-20T07:04:32Z</time>
      </trkpt>
      <trkpt lat="45.01557" lon="5.61094">
        <ele>962</ele>
        <time>2010-06-20T07:04:33Z</time>
      </trkpt>
      <trkpt lat="45.0156" lon="5.61091">
        <ele>962</ele>
        <time>2010-06-20T07:04:34Z</time>
      </trkpt>
      <trkpt lat="45.01562" lon="5.61089">
        <ele>962</ele>
        <time>2010-06-20T07:04:35Z</time>
      </trkpt>
      <trkpt lat="45.01565" lon="5.61086">
        <ele>962</ele>
        <time>2010-06-20T07:04:36Z</time>
      </trkpt>
      <trkpt lat="45.01567" lon="5.61083">
        <ele>962</ele>
        <time>2010-06-20T07:04:37Z</time>
      </trkpt>
      <trkpt lat="45.01569" lon="5.61082">
        <ele>962</ele>
        <time>2010-06-20T07:04:38Z</time>
      </trkpt>
      <trkpt lat="45.01572" lon="5.6108">
        <ele>962</ele>
        <time>2010-06-20T07:04:39Z</time>
      </trkpt>
      <trkpt lat="45.01575" lon="5.61077">
        <ele>962</ele>
        <time>2010-06-20T07:04:40Z</time>
      </trkpt>
      <trkpt lat="45.01578" lon="5.61075">
        <ele>962</ele>
        <time>2010-06-20T07:04:41Z</time>
      </trkpt>
      <trkpt lat="45.0158" lon="5.61072">
        <ele>962</ele>
        <time>2010-06-20T07:04:42Z</time>
      </trkpt>
      <trkpt lat="45.01583" lon="5.61069">
        <ele>962</ele>
        <time>2010-06-20T07:04:43Z</time>
      </trkpt>
      <trkpt lat="45.01585" lon="5.61066">
        <ele>962</ele>
        <time>2010-06-20T07:04:44Z</time>
      </trkpt>
      <trkpt lat="45.01588" lon="5.61063">
        <ele>962</ele>
        <time>2010-06-20T07:04:45Z</time>
      </trkpt>
      <trkpt lat="45.0159" lon="5.61061">
        <ele>963</ele>
        <time>2010-06-20T07:04:46Z</time>
      </trkpt>
      <trkpt lat="45.01593" lon="5.6106">
        <ele>963</ele>
        <time>2010-06-20T07:04:47Z</time>
      </trkpt>
      <trkpt lat="45.01595" lon="5.61059">
        <ele>963</ele>
        <time>2010-06-20T07:04:48Z</time>
      </trkpt>
      <trkpt lat="45.01597" lon="5.61056">
        <ele>964</ele>
        <time>2010-06-20T07:04:49Z</time>
      </trkpt>
      <trkpt lat="45.01599" lon="5.61053">
        <ele>964</ele>
        <time>2010-06-20T07:04:50Z</time>
      </trkpt>
      <trkpt lat="45.01601" lon="5.6105">
        <ele>965</ele>
        <time>2010-06-20T07:04:51Z</time>
      </trkpt>
      <trkpt lat="45.01603" lon="5.61048">
        <ele>965</ele>
        <time>2010-06-20T07:04:52Z</time>
      </trkpt>
      <trkpt lat="45.01605" lon="5.61046">
        <ele>965</ele>
        <time>2010-06-20T07:04:53Z</time>
      </trkpt>
      <trkpt lat="45.01607" lon="5.61043">
        <ele>966</ele>
        <time>2010-06-20T07:04:54Z</time>
      </trkpt>
      <trkpt lat="45.01609" lon="5.61041">
        <ele>966</ele>
        <time>2010-06-20T07:04:55Z</time>
      </trkpt>
      <trkpt lat="45.01611" lon="5.61039">
        <ele>967</ele>
        <time>2010-06-20T07:04:56Z</time>
      </trkpt>
      <trkpt lat="45.01613" lon="5.61037">
        <ele>967</ele>
        <time>2010-06-20T07:04:57Z</time>
      </trkpt>
      <trkpt lat="45.01615" lon="5.61034">
        <ele>968</ele>
        <time>2010-06-20T07:04:58Z</time>
      </trkpt>
      <trkpt lat="45.01617" lon="5.61031">
        <ele>968</ele>
        <time>2010-06-20T07:04:59Z</time>
      </trkpt>
      <trkpt lat="45.01619" lon="5.61029">
        <ele>968</ele>
        <time>2010-06-20T07:05:00Z</time>
      </trkpt>
      <trkpt lat="45.01621" lon="5.61026">
        <ele>969</ele>
        <time>2010-06-20T07:05:01Z</time>
      </trkpt>
      <trkpt lat="45.01622" lon="5.61023">
        <ele>969</ele>
        <time>2010-06-20T07:05:02Z</time>
      </trkpt>
      <trkpt lat="45.01623" lon="5.61019">
        <ele>970</ele>
        <time>2010-06-20T07:05:03Z</time>
      </trkpt>
      <trkpt lat="45.01624" lon="5.61015">
        <ele>971</ele>
        <time>2010-06-20T07:05:04Z</time>
      </trkpt>
      <trkpt lat="45.01625" lon="5.6101">
        <ele>971</ele>
        <time>2010-06-20T07:05:05Z</time>
      </trkpt>
      <trkpt lat="45.01626" lon="5.61008">
        <ele>972</ele>
        <time>2010-06-20T07:05:06Z</time>
      </trkpt>
      <trkpt lat="45.01628" lon="5.61005">
        <ele>972</ele>
        <time>2010-06-20T07:05:07Z</time>
      </trkpt>
      <trkpt lat="45.01629" lon="5.61002">
        <ele>973</ele>
        <time>2010-06-20T07:05:08Z</time>
      </trkpt>
      <trkpt lat="45.0163" lon="5.60998">
        <ele>974</ele>
        <time>2010-06-20T07:05:09Z</time>
      </trkpt>
      <trkpt lat="45.01631" lon="5.60994">
        <ele>974</ele>
        <time>2010-06-20T07:05:10Z</time>
      </trkpt>
      <trkpt lat="45.01632" lon="5.60989">
        <ele>975</ele>
        <time>2010-06-20T07:05:11Z</time>
      </trkpt>
      <trkpt lat="45.01632" lon="5.60982">
        <ele>976</ele>
        <time>2010-06-20T07:05:12Z</time>
      </trkpt>
      <trkpt lat="45.01632" lon="5.60978">
        <ele>976</ele>
        <time>2010-06-20T07:05:13Z</time>
      </trkpt>
      <trkpt lat="45.01633" lon="5.60974">
        <ele>977</ele>
        <time>2010-06-20T07:05:14Z</time>
      </trkpt>
      <trkpt lat="45.01633" lon="5.6097">
        <ele>978</ele>
        <time>2010-06-20T07:05:15Z</time>
      </trkpt>
      <trkpt lat="45.01634" lon="5.60967">
        <ele>979</ele>
        <time>2010-06-20T07:05:16Z</time>
      </trkpt>
      <trkpt lat="45.01635" lon="5.60963">
        <ele>979</ele>
        <time>2010-06-20T07:05:17Z</time>
      </trkpt>
      <trkpt lat="45.01635" lon="5.6096">
        <ele>980</ele>
        <time>2010-06-20T07:05:18Z</time>
      </trkpt>
      <trkpt lat="45.01636" lon="5.60958">
        <ele>981</ele>
        <time>2010-06-20T07:05:19Z</time>
      </trkpt>
      <trkpt lat="45.01637" lon="5.60956">
        <ele>982</ele>
        <time>2010-06-20T07:05:20Z</time>
      </trkpt>
      <trkpt lat="45.01638" lon="5.60954">
        <ele>983</ele>
        <time>2010-06-20T07:05:22Z</time>
      </trkpt>
      <trkpt lat="45.01639" lon="5.60951">
        <ele>983</ele>
        <time>2010-06-20T07:05:23Z</time>
      </trkpt>
      <trkpt lat="45.01639" lon="5.60948">
        <ele>984</ele>
        <time>2010-06-20T07:05:24Z</time>
      </trkpt>
      <trkpt lat="45.0164" lon="5.60946">
        <ele>984</ele>
        <time>2010-06-20T07:05:25Z</time>
      </trkpt>
      <trkpt lat="45.0164" lon="5.60944">
        <ele>984</ele>
        <time>2010-06-20T07:05:26Z</time>
      </trkpt>
      <trkpt lat="45.01641" lon="5.60941">
        <ele>985</ele>
        <time>2010-06-20T07:05:27Z</time>
      </trkpt>
      <trkpt lat="45.01642" lon="5.60938">
        <ele>986</ele>
        <time>2010-06-20T07:05:28Z</time>
      </trkpt>
      <trkpt lat="45.01642" lon="5.60935">
        <ele>986</ele>
        <time>2010-06-20T07:05:29Z</time>
      </trkpt>
      <trkpt lat="45.01643" lon="5.60933">
        <ele>987</ele>
        <time>2010-06-20T07:05:30Z</time>
      </trkpt>
      <trkpt lat="45.01644" lon="5.60931">
        <ele>987</ele>
        <time>2010-06-20T07:05:31Z</time>
      </trkpt>
      <trkpt lat="45.01644" lon="5.6093">
        <ele>988</ele>
        <time>2010-06-20T07:05:32Z</time>
      </trkpt>
      <trkpt lat="45.01645" lon="5.60927">
        <ele>988</ele>
        <time>2010-06-20T07:05:34Z</time>
      </trkpt>
      <trkpt lat="45.01646" lon="5.60925">
        <ele>988</ele>
        <time>2010-06-20T07:05:35Z</time>
      </trkpt>
      <trkpt lat="45.01646" lon="5.60924">
        <ele>989</ele>
        <time>2010-06-20T07:05:36Z</time>
      </trkpt>
      <trkpt lat="45.01647" lon="5.60922">
        <ele>989</ele>
        <time>2010-06-20T07:05:37Z</time>
      </trkpt>
      <trkpt lat="45.01648" lon="5.6092">
        <ele>989</ele>
        <time>2010-06-20T07:05:38Z</time>
      </trkpt>
      <trkpt lat="45.01649" lon="5.60918">
        <ele>989</ele>
        <time>2010-06-20T07:05:39Z</time>
      </trkpt>
      <trkpt lat="45.01649" lon="5.60916">
        <ele>989</ele>
        <time>2010-06-20T07:05:40Z</time>
      </trkpt>
      <trkpt lat="45.01649" lon="5.60914">
        <ele>989</ele>
        <time>2010-06-20T07:05:41Z</time>
      </trkpt>
      <trkpt lat="45.0165" lon="5.60911">
        <ele>989</ele>
        <time>2010-06-20T07:05:42Z</time>
      </trkpt>
      <trkpt lat="45.0165" lon="5.60908">
        <ele>989</ele>
        <time>2010-06-20T07:05:43Z</time>
      </trkpt>
      <trkpt lat="45.01651" lon="5.60906">
        <ele>989</ele>
        <time>2010-06-20T07:05:44Z</time>
      </trkpt>
      <trkpt lat="45.01651" lon="5.60904">
        <ele>989</ele>
        <time>2010-06-20T07:05:45Z</time>
      </trkpt>
      <trkpt lat="45.01651" lon="5.60902">
        <ele>989</ele>
        <time>2010-06-20T07:05:46Z</time>
      </trkpt>
      <trkpt lat="45.01651" lon="5.609">
        <ele>989</ele>
        <time>2010-06-20T07:05:47Z</time>
      </trkpt>
      <trkpt lat="45.01652" lon="5.60899">
        <ele>990</ele>
        <time>2010-06-20T07:05:48Z</time>
      </trkpt>
      <trkpt lat="45.01652" lon="5.60897">
        <ele>990</ele>
        <time>2010-06-20T07:05:49Z</time>
      </trkpt>
      <trkpt lat="45.01652" lon="5.60896">
        <ele>990</ele>
        <time>2010-06-20T07:05:50Z</time>
      </trkpt>
      <trkpt lat="45.01652" lon="5.60894">
        <ele>992</ele>
        <time>2010-06-20T07:05:52Z</time>
      </trkpt>
      <trkpt lat="45.01654" lon="5.60892">
        <ele>993</ele>
        <time>2010-06-20T07:05:54Z</time>
      </trkpt>
      <trkpt lat="45.01655" lon="5.6089">
        <ele>993</ele>
        <time>2010-06-20T07:05:56Z</time>
      </trkpt>
      <trkpt lat="45.01655" lon="5.60889">
        <ele>993</ele>
        <time>2010-06-20T07:05:57Z</time>
      </trkpt>
      <trkpt lat="45.01656" lon="5.60886">
        <ele>994</ele>
        <time>2010-06-20T07:05:58Z</time>
      </trkpt>
      <trkpt lat="45.01656" lon="5.60885">
        <ele>995</ele>
        <time>2010-06-20T07:05:59Z</time>
      </trkpt>
      <trkpt lat="45.01656" lon="5.60882">
        <ele>996</ele>
        <time>2010-06-20T07:06:00Z</time>
      </trkpt>
      <trkpt lat="45.01656" lon="5.60879">
        <ele>997</ele>
        <time>2010-06-20T07:06:01Z</time>
      </trkpt>
      <trkpt lat="45.01655" lon="5.60876">
        <ele>998</ele>
        <time>2010-06-20T07:06:02Z</time>
      </trkpt>
      <trkpt lat="45.01656" lon="5.60874">
        <ele>999</ele>
        <time>2010-06-20T07:06:03Z</time>
      </trkpt>
      <trkpt lat="45.01655" lon="5.60872">
        <ele>1000</ele>
        <time>2010-06-20T07:06:04Z</time>
      </trkpt>
      <trkpt lat="45.01655" lon="5.6087">
        <ele>1000</ele>
        <time>2010-06-20T07:06:05Z</time>
      </trkpt>
      <trkpt lat="45.01655" lon="5.60869">
        <ele>1000</ele>
        <time>2010-06-20T07:06:06Z</time>
      </trkpt>
      <trkpt lat="45.01655" lon="5.60866">
        <ele>1000</ele>
        <time>2010-06-20T07:06:07Z</time>
      </trkpt>
      <trkpt lat="45.01655" lon="5.60864">
        <ele>1000</ele>
        <time>2010-06-20T07:06:08Z</time>
      </trkpt>
      <trkpt lat="45.01654" lon="5.60861">
        <ele>1001</ele>
        <time>2010-06-20T07:06:09Z</time>
      </trkpt>
      <trkpt lat="45.01653" lon="5.60859">
        <ele>1002</ele>
        <time>2010-06-20T07:06:10Z</time>
      </trkpt>
      <trkpt lat="45.01652" lon="5.60856">
        <ele>1003</ele>
        <time>2010-06-20T07:06:11Z</time>
      </trkpt>
      <trkpt lat="45.01652" lon="5.60854">
        <ele>1004</ele>
        <time>2010-06-20T07:06:12Z</time>
      </trkpt>
      <trkpt lat="45.01651" lon="5.60852">
        <ele>1005</ele>
        <time>2010-06-20T07:06:13Z</time>
      </trkpt>
      <trkpt lat="45.0165" lon="5.60851">
        <ele>1005</ele>
        <time>2010-06-20T07:06:14Z</time>
      </trkpt>
      <trkpt lat="45.01649" lon="5.60849">
        <ele>1006</ele>
        <time>2010-06-20T07:06:15Z</time>
      </trkpt>
      <trkpt lat="45.01647" lon="5.60846">
        <ele>1007</ele>
        <time>2010-06-20T07:06:17Z</time>
      </trkpt>
      <trkpt lat="45.01647" lon="5.60844">
        <ele>1007</ele>
        <time>2010-06-20T07:06:18Z</time>
      </trkpt>
      <trkpt lat="45.01646" lon="5.60841">
        <ele>1007</ele>
        <time>2010-06-20T07:06:19Z</time>
      </trkpt>
      <trkpt lat="45.01645" lon="5.60839">
        <ele>1007</ele>
        <time>2010-06-20T07:06:20Z</time>
      </trkpt>
      <trkpt lat="45.01644" lon="5.60836">
        <ele>1007</ele>
        <time>2010-06-20T07:06:21Z</time>
      </trkpt>
      <trkpt lat="45.01643" lon="5.60834">
        <ele>1007</ele>
        <time>2010-06-20T07:06:22Z</time>
      </trkpt>
      <trkpt lat="45.01643" lon="5.60831">
        <ele>1007</ele>
        <time>2010-06-20T07:06:23Z</time>
      </trkpt>
      <trkpt lat="45.01643" lon="5.60828">
        <ele>1007</ele>
        <time>2010-06-20T07:06:24Z</time>
      </trkpt>
      <trkpt lat="45.01643" lon="5.60826">
        <ele>1007</ele>
        <time>2010-06-20T07:06:25Z</time>
      </trkpt>
      <trkpt lat="45.01642" lon="5.60823">
        <ele>1007</ele>
        <time>2010-06-20T07:06:26Z</time>
      </trkpt>
      <trkpt lat="45.01641" lon="5.60819">
        <ele>1007</ele>
        <time>2010-06-20T07:06:27Z</time>
      </trkpt>
      <trkpt lat="45.0164" lon="5.60816">
        <ele>1007</ele>
        <time>2010-06-20T07:06:28Z</time>
      </trkpt>
      <trkpt lat="45.01639" lon="5.60813">
        <ele>1007</ele>
        <time>2010-06-20T07:06:29Z</time>
      </trkpt>
      <trkpt lat="45.01639" lon="5.60811">
        <ele>1007</ele>
        <time>2010-06-20T07:06:30Z</time>
      </trkpt>
      <trkpt lat="45.01638" lon="5.60809">
        <ele>1007</ele>
        <time>2010-06-20T07:06:31Z</time>
      </trkpt>
      <trkpt lat="45.01637" lon="5.60807">
        <ele>1008</ele>
        <time>2010-06-20T07:06:32Z</time>
      </trkpt>
      <trkpt lat="45.01636" lon="5.60804">
        <ele>1008</ele>
        <time>2010-06-20T07:06:33Z</time>
      </trkpt>
      <trkpt lat="45.01636" lon="5.60801">
        <ele>1008</ele>
        <time>2010-06-20T07:06:34Z</time>
      </trkpt>
      <trkpt lat="45.01636" lon="5.60797">
        <ele>1008</ele>
        <time>2010-06-20T07:06:35Z</time>
      </trkpt>
      <trkpt lat="45.01635" lon="5.60795">
        <ele>1008</ele>
        <time>2010-06-20T07:06:36Z</time>
      </trkpt>
      <trkpt lat="45.01634" lon="5.60792">
        <ele>1008</ele>
        <time>2010-06-20T07:06:37Z</time>
      </trkpt>
      <trkpt lat="45.01633" lon="5.60788">
        <ele>1008</ele>
        <time>2010-06-20T07:06:38Z</time>
      </trkpt>
      <trkpt lat="45.01633" lon="5.60786">
        <ele>1008</ele>
        <time>2010-06-20T07:06:39Z</time>
      </trkpt>
      <trkpt lat="45.01632" lon="5.60783">
        <ele>1008</ele>
        <time>2010-06-20T07:06:40Z</time>
      </trkpt>
      <trkpt lat="45.01632" lon="5.6078">
        <ele>1008</ele>
        <time>2010-06-20T07:06:42Z</time>
      </trkpt>
      <trkpt lat="45.01632" lon="5.60778">
        <ele>1008</ele>
        <time>2010-06-20T07:06:43Z</time>
      </trkpt>
      <trkpt lat="45.01632" lon="5.60776">
        <ele>1008</ele>
        <time>2010-06-20T07:06:44Z</time>
      </trkpt>
      <trkpt lat="45.0163" lon="5.60772">
        <ele>1008</ele>
        <time>2010-06-20T07:06:45Z</time>
      </trkpt>
      <trkpt lat="45.01629" lon="5.60769">
        <ele>1008</ele>
        <time>2010-06-20T07:06:46Z</time>
      </trkpt>
      <trkpt lat="45.01629" lon="5.60768">
        <ele>1008</ele>
        <time>2010-06-20T07:06:47Z</time>
      </trkpt>
      <trkpt lat="45.01627" lon="5.60765">
        <ele>1008</ele>
        <time>2010-06-20T07:06:48Z</time>
      </trkpt>
      <trkpt lat="45.01626" lon="5.60762">
        <ele>1008</ele>
        <time>2010-06-20T07:06:49Z</time>
      </trkpt>
      <trkpt lat="45.01625" lon="5.60759">
        <ele>1008</ele>
        <time>2010-06-20T07:06:50Z</time>
      </trkpt>
      <trkpt lat="45.01624" lon="5.60757">
        <ele>1009</ele>
        <time>2010-06-20T07:06:51Z</time>
      </trkpt>
      <trkpt lat="45.01622" lon="5.60753">
        <ele>1010</ele>
        <time>2010-06-20T07:06:52Z</time>
      </trkpt>
      <trkpt lat="45.01621" lon="5.6075">
        <ele>1011</ele>
        <time>2010-06-20T07:06:53Z</time>
      </trkpt>
      <trkpt lat="45.0162" lon="5.60747">
        <ele>1011</ele>
        <time>2010-06-20T07:06:54Z</time>
      </trkpt>
      <trkpt lat="45.01619" lon="5.60745">
        <ele>1012</ele>
        <time>2010-06-20T07:06:55Z</time>
      </trkpt>
      <trkpt lat="45.01617" lon="5.60743">
        <ele>1013</ele>
        <time>2010-06-20T07:06:56Z</time>
      </trkpt>
      <trkpt lat="45.01614" lon="5.6074">
        <ele>1013</ele>
        <time>2010-06-20T07:06:57Z</time>
      </trkpt>
      <trkpt lat="45.01612" lon="5.60737">
        <ele>1013</ele>
        <time>2010-06-20T07:06:58Z</time>
      </trkpt>
      <trkpt lat="45.0161" lon="5.60734">
        <ele>1013</ele>
        <time>2010-06-20T07:06:59Z</time>
      </trkpt>
      <trkpt lat="45.01608" lon="5.60731">
        <ele>1013</ele>
        <time>2010-06-20T07:07:00Z</time>
      </trkpt>
      <trkpt lat="45.01606" lon="5.60729">
        <ele>1013</ele>
        <time>2010-06-20T07:07:01Z</time>
      </trkpt>
      <trkpt lat="45.01604" lon="5.60725">
        <ele>1014</ele>
        <time>2010-06-20T07:07:02Z</time>
      </trkpt>
      <trkpt lat="45.01603" lon="5.60723">
        <ele>1014</ele>
        <time>2010-06-20T07:07:03Z</time>
      </trkpt>
      <trkpt lat="45.01601" lon="5.6072">
        <ele>1014</ele>
        <time>2010-06-20T07:07:04Z</time>
      </trkpt>
      <trkpt lat="45.016" lon="5.60717">
        <ele>1014</ele>
        <time>2010-06-20T07:07:05Z</time>
      </trkpt>
      <trkpt lat="45.01598" lon="5.60714">
        <ele>1014</ele>
        <time>2010-06-20T07:07:06Z</time>
      </trkpt>
      <trkpt lat="45.01597" lon="5.60712">
        <ele>1014</ele>
        <time>2010-06-20T07:07:07Z</time>
      </trkpt>
      <trkpt lat="45.01595" lon="5.60709">
        <ele>1014</ele>
        <time>2010-06-20T07:07:08Z</time>
      </trkpt>
      <trkpt lat="45.01594" lon="5.60706">
        <ele>1014</ele>
        <time>2010-06-20T07:07:09Z</time>
      </trkpt>
      <trkpt lat="45.01593" lon="5.60703">
        <ele>1014</ele>
        <time>2010-06-20T07:07:10Z</time>
      </trkpt>
      <trkpt lat="45.01592" lon="5.607">
        <ele>1014</ele>
        <time>2010-06-20T07:07:11Z</time>
      </trkpt>
      <trkpt lat="45.0159" lon="5.60698">
        <ele>1015</ele>
        <time>2010-06-20T07:07:12Z</time>
      </trkpt>
      <trkpt lat="45.01589" lon="5.60695">
        <ele>1015</ele>
        <time>2010-06-20T07:07:13Z</time>
      </trkpt>
      <trkpt lat="45.01587" lon="5.60693">
        <ele>1015</ele>
        <time>2010-06-20T07:07:14Z</time>
      </trkpt>
      <trkpt lat="45.01585" lon="5.6069">
        <ele>1016</ele>
        <time>2010-06-20T07:07:15Z</time>
      </trkpt>
      <trkpt lat="45.01583" lon="5.60688">
        <ele>1017</ele>
        <time>2010-06-20T07:07:16Z</time>
      </trkpt>
      <trkpt lat="45.01581" lon="5.60685">
        <ele>1017</ele>
        <time>2010-06-20T07:07:17Z</time>
      </trkpt>
      <trkpt lat="45.0158" lon="5.60683">
        <ele>1017</ele>
        <time>2010-06-20T07:07:18Z</time>
      </trkpt>
      <trkpt lat="45.01577" lon="5.60681">
        <ele>1018</ele>
        <time>2010-06-20T07:07:19Z</time>
      </trkpt>
      <trkpt lat="45.01575" lon="5.60678">
        <ele>1018</ele>
        <time>2010-06-20T07:07:20Z</time>
      </trkpt>
      <trkpt lat="45.01573" lon="5.60676">
        <ele>1018</ele>
        <time>2010-06-20T07:07:21Z</time>
      </trkpt>
      <trkpt lat="45.01572" lon="5.60674">
        <ele>1018</ele>
        <time>2010-06-20T07:07:22Z</time>
      </trkpt>
      <trkpt lat="45.0157" lon="5.60671">
        <ele>1018</ele>
        <time>2010-06-20T07:07:23Z</time>
      </trkpt>
      <trkpt lat="45.01568" lon="5.60668">
        <ele>1018</ele>
        <time>2010-06-20T07:07:24Z</time>
      </trkpt>
      <trkpt lat="45.01566" lon="5.60666">
        <ele>1019</ele>
        <time>2010-06-20T07:07:25Z</time>
      </trkpt>
      <trkpt lat="45.01565" lon="5.60663">
        <ele>1019</ele>
        <time>2010-06-20T07:07:26Z</time>
      </trkpt>
      <trkpt lat="45.01563" lon="5.6066">
        <ele>1019</ele>
        <time>2010-06-20T07:07:27Z</time>
      </trkpt>
      <trkpt lat="45.01561" lon="5.60657">
        <ele>1020</ele>
        <time>2010-06-20T07:07:28Z</time>
      </trkpt>
      <trkpt lat="45.01559" lon="5.60655">
        <ele>1020</ele>
        <time>2010-06-20T07:07:29Z</time>
      </trkpt>
      <trkpt lat="45.01557" lon="5.60652">
        <ele>1020</ele>
        <time>2010-06-20T07:07:30Z</time>
      </trkpt>
      <trkpt lat="45.01555" lon="5.60649">
        <ele>1020</ele>
        <time>2010-06-20T07:07:31Z</time>
      </trkpt>
      <trkpt lat="45.01554" lon="5.60646">
        <ele>1020</ele>
        <time>2010-06-20T07:07:32Z</time>
      </trkpt>
      <trkpt lat="45.01552" lon="5.60644">
        <ele>1020</ele>
        <time>2010-06-20T07:07:33Z</time>
      </trkpt>
      <trkpt lat="45.01551" lon="5.60641">
        <ele>1020</ele>
        <time>2010-06-20T07:07:34Z</time>
      </trkpt>
      <trkpt lat="45.01549" lon="5.60638">
        <ele>1020</ele>
        <time>2010-06-20T07:07:35Z</time>
      </trkpt>
      <trkpt lat="45.01547" lon="5.60635">
        <ele>1020</ele>
        <time>2010-06-20T07:07:36Z</time>
      </trkpt>
      <trkpt lat="45.01546" lon="5.60633">
        <ele>1020</ele>
        <time>2010-06-20T07:07:37Z</time>
      </trkpt>
      <trkpt lat="45.01544" lon="5.6063">
        <ele>1020</ele>
        <time>2010-06-20T07:07:38Z</time>
      </trkpt>
      <trkpt lat="45.01543" lon="5.60628">
        <ele>1020</ele>
        <time>2010-06-20T07:07:39Z</time>
      </trkpt>
      <trkpt lat="45.01541" lon="5.60625">
        <ele>1020</ele>
        <time>2010-06-20T07:07:40Z</time>
      </trkpt>
      <trkpt lat="45.0154" lon="5.60623">
        <ele>1020</ele>
        <time>2010-06-20T07:07:41Z</time>
      </trkpt>
      <trkpt lat="45.01538" lon="5.6062">
        <ele>1020</ele>
        <time>2010-06-20T07:07:42Z</time>
      </trkpt>
      <trkpt lat="45.01536" lon="5.60618">
        <ele>1021</ele>
        <time>2010-06-20T07:07:43Z</time>
      </trkpt>
      <trkpt lat="45.01535" lon="5.60615">
        <ele>1021</ele>
        <time>2010-06-20T07:07:44Z</time>
      </trkpt>
      <trkpt lat="45.01533" lon="5.60613">
        <ele>1021</ele>
        <time>2010-06-20T07:07:45Z</time>
      </trkpt>
      <trkpt lat="45.01531" lon="5.60611">
        <ele>1021</ele>
        <time>2010-06-20T07:07:46Z</time>
      </trkpt>
      <trkpt lat="45.0153" lon="5.60609">
        <ele>1021</ele>
        <time>2010-06-20T07:07:47Z</time>
      </trkpt>
      <trkpt lat="45.01528" lon="5.60607">
        <ele>1021</ele>
        <time>2010-06-20T07:07:48Z</time>
      </trkpt>
      <trkpt lat="45.01526" lon="5.60605">
        <ele>1021</ele>
        <time>2010-06-20T07:07:49Z</time>
      </trkpt>
      <trkpt lat="45.01524" lon="5.60602">
        <ele>1021</ele>
        <time>2010-06-20T07:07:50Z</time>
      </trkpt>
      <trkpt lat="45.01523" lon="5.606">
        <ele>1021</ele>
        <time>2010-06-20T07:07:51Z</time>
      </trkpt>
      <trkpt lat="45.01521" lon="5.60598">
        <ele>1021</ele>
        <time>2010-06-20T07:07:52Z</time>
      </trkpt>
      <trkpt lat="45.01519" lon="5.60596">
        <ele>1021</ele>
        <time>2010-06-20T07:07:53Z</time>
      </trkpt>
      <trkpt lat="45.01518" lon="5.60594">
        <ele>1021</ele>
        <time>2010-06-20T07:07:54Z</time>
      </trkpt>
      <trkpt lat="45.01517" lon="5.60592">
        <ele>1021</ele>
        <time>2010-06-20T07:07:55Z</time>
      </trkpt>
      <trkpt lat="45.01515" lon="5.60591">
        <ele>1021</ele>
        <time>2010-06-20T07:07:56Z</time>
      </trkpt>
      <trkpt lat="45.01514" lon="5.60589">
        <ele>1021</ele>
        <time>2010-06-20T07:07:57Z</time>
      </trkpt>
      <trkpt lat="45.01512" lon="5.60588">
        <ele>1021</ele>
        <time>2010-06-20T07:07:58Z</time>
      </trkpt>
      <trkpt lat="45.0151" lon="5.60587">
        <ele>1021</ele>
        <time>2010-06-20T07:07:59Z</time>
      </trkpt>
      <trkpt lat="45.01509" lon="5.60585">
        <ele>1021</ele>
        <time>2010-06-20T07:08:00Z</time>
      </trkpt>
      <trkpt lat="45.01507" lon="5.60583">
        <ele>1021</ele>
        <time>2010-06-20T07:08:01Z</time>
      </trkpt>
      <trkpt lat="45.01506" lon="5.60581">
        <ele>1022</ele>
        <time>2010-06-20T07:08:02Z</time>
      </trkpt>
      <trkpt lat="45.01504" lon="5.6058">
        <ele>1023</ele>
        <time>2010-06-20T07:08:03Z</time>
      </trkpt>
      <trkpt lat="45.01502" lon="5.60578">
        <ele>1024</ele>
        <time>2010-06-20T07:08:04Z</time>
      </trkpt>
      <trkpt lat="45.015" lon="5.60576">
        <ele>1025</ele>
        <time>2010-06-20T07:08:05Z</time>
      </trkpt>
      <trkpt lat="45.01498" lon="5.60574">
        <ele>1026</ele>
        <time>2010-06-20T07:08:06Z</time>
      </trkpt>
      <trkpt lat="45.01496" lon="5.60571">
        <ele>1026</ele>
        <time>2010-06-20T07:08:07Z</time>
      </trkpt>
      <trkpt lat="45.01494" lon="5.60569">
        <ele>1027</ele>
        <time>2010-06-20T07:08:08Z</time>
      </trkpt>
      <trkpt lat="45.01492" lon="5.60568">
        <ele>1028</ele>
        <time>2010-06-20T07:08:09Z</time>
      </trkpt>
      <trkpt lat="45.0149" lon="5.60567">
        <ele>1029</ele>
        <time>2010-06-20T07:08:10Z</time>
      </trkpt>
      <trkpt lat="45.01488" lon="5.60566">
        <ele>1030</ele>
        <time>2010-06-20T07:08:11Z</time>
      </trkpt>
      <trkpt lat="45.01486" lon="5.60564">
        <ele>1031</ele>
        <time>2010-06-20T07:08:12Z</time>
      </trkpt>
      <trkpt lat="45.01484" lon="5.60563">
        <ele>1032</ele>
        <time>2010-06-20T07:08:13Z</time>
      </trkpt>
      <trkpt lat="45.01482" lon="5.60561">
        <ele>1033</ele>
        <time>2010-06-20T07:08:14Z</time>
      </trkpt>
      <trkpt lat="45.01479" lon="5.60559">
        <ele>1034</ele>
        <time>2010-06-20T07:08:15Z</time>
      </trkpt>
      <trkpt lat="45.01477" lon="5.60557">
        <ele>1034</ele>
        <time>2010-06-20T07:08:16Z</time>
      </trkpt>
      <trkpt lat="45.01474" lon="5.60556">
        <ele>1035</ele>
        <time>2010-06-20T07:08:17Z</time>
      </trkpt>
      <trkpt lat="45.01472" lon="5.60555">
        <ele>1035</ele>
        <time>2010-06-20T07:08:18Z</time>
      </trkpt>
      <trkpt lat="45.0147" lon="5.60552">
        <ele>1035</ele>
        <time>2010-06-20T07:08:19Z</time>
      </trkpt>
      <trkpt lat="45.01468" lon="5.6055">
        <ele>1036</ele>
        <time>2010-06-20T07:08:20Z</time>
      </trkpt>
      <trkpt lat="45.01466" lon="5.60548">
        <ele>1036</ele>
        <time>2010-06-20T07:08:21Z</time>
      </trkpt>
      <trkpt lat="45.01463" lon="5.60546">
        <ele>1036</ele>
        <time>2010-06-20T07:08:22Z</time>
      </trkpt>
      <trkpt lat="45.01461" lon="5.60544">
        <ele>1036</ele>
        <time>2010-06-20T07:08:23Z</time>
      </trkpt>
      <trkpt lat="45.01459" lon="5.60544">
        <ele>1037</ele>
        <time>2010-06-20T07:08:24Z</time>
      </trkpt>
      <trkpt lat="45.01457" lon="5.60543">
        <ele>1037</ele>
        <time>2010-06-20T07:08:25Z</time>
      </trkpt>
      <trkpt lat="45.01455" lon="5.60542">
        <ele>1038</ele>
        <time>2010-06-20T07:08:26Z</time>
      </trkpt>
      <trkpt lat="45.01453" lon="5.60541">
        <ele>1039</ele>
        <time>2010-06-20T07:08:27Z</time>
      </trkpt>
      <trkpt lat="45.01451" lon="5.60539">
        <ele>1040</ele>
        <time>2010-06-20T07:08:28Z</time>
      </trkpt>
      <trkpt lat="45.01448" lon="5.60537">
        <ele>1041</ele>
        <time>2010-06-20T07:08:29Z</time>
      </trkpt>
      <trkpt lat="45.01445" lon="5.60535">
        <ele>1042</ele>
        <time>2010-06-20T07:08:30Z</time>
      </trkpt>
      <trkpt lat="45.01443" lon="5.60533">
        <ele>1043</ele>
        <time>2010-06-20T07:08:31Z</time>
      </trkpt>
      <trkpt lat="45.01441" lon="5.60532">
        <ele>1044</ele>
        <time>2010-06-20T07:08:32Z</time>
      </trkpt>
      <trkpt lat="45.01439" lon="5.60531">
        <ele>1044</ele>
        <time>2010-06-20T07:08:33Z</time>
      </trkpt>
      <trkpt lat="45.01436" lon="5.6053">
        <ele>1044</ele>
        <time>2010-06-20T07:08:34Z</time>
      </trkpt>
      <trkpt lat="45.01434" lon="5.60529">
        <ele>1044</ele>
        <time>2010-06-20T07:08:35Z</time>
      </trkpt>
      <trkpt lat="45.01431" lon="5.60528">
        <ele>1044</ele>
        <time>2010-06-20T07:08:36Z</time>
      </trkpt>
      <trkpt lat="45.01428" lon="5.60527">
        <ele>1044</ele>
        <time>2010-06-20T07:08:37Z</time>
      </trkpt>
      <trkpt lat="45.01425" lon="5.60526">
        <ele>1045</ele>
        <time>2010-06-20T07:08:38Z</time>
      </trkpt>
      <trkpt lat="45.01422" lon="5.60525">
        <ele>1045</ele>
        <time>2010-06-20T07:08:39Z</time>
      </trkpt>
      <trkpt lat="45.01419" lon="5.60524">
        <ele>1045</ele>
        <time>2010-06-20T07:08:40Z</time>
      </trkpt>
      <trkpt lat="45.01416" lon="5.60523">
        <ele>1046</ele>
        <time>2010-06-20T07:08:41Z</time>
      </trkpt>
      <trkpt lat="45.01413" lon="5.60523">
        <ele>1046</ele>
        <time>2010-06-20T07:08:42Z</time>
      </trkpt>
      <trkpt lat="45.01411" lon="5.60521">
        <ele>1046</ele>
        <time>2010-06-20T07:08:43Z</time>
      </trkpt>
      <trkpt lat="45.01408" lon="5.6052">
        <ele>1047</ele>
        <time>2010-06-20T07:08:44Z</time>
      </trkpt>
      <trkpt lat="45.01406" lon="5.60519">
        <ele>1048</ele>
        <time>2010-06-20T07:08:45Z</time>
      </trkpt>
      <trkpt lat="45.01403" lon="5.60519">
        <ele>1049</ele>
        <time>2010-06-20T07:08:46Z</time>
      </trkpt>
      <trkpt lat="45.014" lon="5.60518">
        <ele>1049</ele>
        <time>2010-06-20T07:08:47Z</time>
      </trkpt>
      <trkpt lat="45.01398" lon="5.60518">
        <ele>1050</ele>
        <time>2010-06-20T07:08:48Z</time>
      </trkpt>
      <trkpt lat="45.01396" lon="5.60517">
        <ele>1051</ele>
        <time>2010-06-20T07:08:49Z</time>
      </trkpt>
      <trkpt lat="45.01394" lon="5.60517">
        <ele>1052</ele>
        <time>2010-06-20T07:08:50Z</time>
      </trkpt>
      <trkpt lat="45.01392" lon="5.60515">
        <ele>1052</ele>
        <time>2010-06-20T07:08:51Z</time>
      </trkpt>
      <trkpt lat="45.0139" lon="5.60513">
        <ele>1052</ele>
        <time>2010-06-20T07:08:52Z</time>
      </trkpt>
      <trkpt lat="45.01388" lon="5.60512">
        <ele>1052</ele>
        <time>2010-06-20T07:08:53Z</time>
      </trkpt>
      <trkpt lat="45.01387" lon="5.6051">
        <ele>1052</ele>
        <time>2010-06-20T07:08:54Z</time>
      </trkpt>
      <trkpt lat="45.01385" lon="5.60509">
        <ele>1052</ele>
        <time>2010-06-20T07:08:55Z</time>
      </trkpt>
      <trkpt lat="45.01382" lon="5.60507">
        <ele>1052</ele>
        <time>2010-06-20T07:08:56Z</time>
      </trkpt>
      <trkpt lat="45.01379" lon="5.60504">
        <ele>1052</ele>
        <time>2010-06-20T07:08:57Z</time>
      </trkpt>
      <trkpt lat="45.01377" lon="5.60503">
        <ele>1052</ele>
        <time>2010-06-20T07:08:58Z</time>
      </trkpt>
      <trkpt lat="45.01374" lon="5.60502">
        <ele>1052</ele>
        <time>2010-06-20T07:08:59Z</time>
      </trkpt>
      <trkpt lat="45.01371" lon="5.60502">
        <ele>1052</ele>
        <time>2010-06-20T07:09:00Z</time>
      </trkpt>
      <trkpt lat="45.01368" lon="5.60503">
        <ele>1052</ele>
        <time>2010-06-20T07:09:01Z</time>
      </trkpt>
      <trkpt lat="45.01366" lon="5.60503">
        <ele>1052</ele>
        <time>2010-06-20T07:09:02Z</time>
      </trkpt>
      <trkpt lat="45.01364" lon="5.60504">
        <ele>1052</ele>
        <time>2010-06-20T07:09:03Z</time>
      </trkpt>
      <trkpt lat="45.01361" lon="5.60505">
        <ele>1052</ele>
        <time>2010-06-20T07:09:04Z</time>
      </trkpt>
      <trkpt lat="45.01358" lon="5.60506">
        <ele>1052</ele>
        <time>2010-06-20T07:09:05Z</time>
      </trkpt>
      <trkpt lat="45.01354" lon="5.60507">
        <ele>1052</ele>
        <time>2010-06-20T07:09:06Z</time>
      </trkpt>
      <trkpt lat="45.01351" lon="5.60507">
        <ele>1052</ele>
        <time>2010-06-20T07:09:07Z</time>
      </trkpt>
      <trkpt lat="45.01348" lon="5.60508">
        <ele>1052</ele>
        <time>2010-06-20T07:09:08Z</time>
      </trkpt>
      <trkpt lat="45.01346" lon="5.60508">
        <ele>1052</ele>
        <time>2010-06-20T07:09:09Z</time>
      </trkpt>
      <trkpt lat="45.01343" lon="5.60508">
        <ele>1052</ele>
        <time>2010-06-20T07:09:10Z</time>
      </trkpt>
      <trkpt lat="45.0134" lon="5.60509">
        <ele>1053</ele>
        <time>2010-06-20T07:09:11Z</time>
      </trkpt>
      <trkpt lat="45.01337" lon="5.60509">
        <ele>1054</ele>
        <time>2010-06-20T07:09:12Z</time>
      </trkpt>
      <trkpt lat="45.01334" lon="5.60509">
        <ele>1054</ele>
        <time>2010-06-20T07:09:13Z</time>
      </trkpt>
      <trkpt lat="45.0133" lon="5.6051">
        <ele>1054</ele>
        <time>2010-06-20T07:09:14Z</time>
      </trkpt>
      <trkpt lat="45.01327" lon="5.60511">
        <ele>1054</ele>
        <time>2010-06-20T07:09:15Z</time>
      </trkpt>
      <trkpt lat="45.01324" lon="5.60511">
        <ele>1054</ele>
        <time>2010-06-20T07:09:16Z</time>
      </trkpt>
      <trkpt lat="45.01321" lon="5.60512">
        <ele>1054</ele>
        <time>2010-06-20T07:09:17Z</time>
      </trkpt>
      <trkpt lat="45.01319" lon="5.60512">
        <ele>1054</ele>
        <time>2010-06-20T07:09:18Z</time>
      </trkpt>
      <trkpt lat="45.01316" lon="5.60512">
        <ele>1055</ele>
        <time>2010-06-20T07:09:19Z</time>
      </trkpt>
      <trkpt lat="45.01314" lon="5.60512">
        <ele>1055</ele>
        <time>2010-06-20T07:09:20Z</time>
      </trkpt>
      <trkpt lat="45.01311" lon="5.60513">
        <ele>1055</ele>
        <time>2010-06-20T07:09:21Z</time>
      </trkpt>
      <trkpt lat="45.01309" lon="5.60513">
        <ele>1055</ele>
        <time>2010-06-20T07:09:22Z</time>
      </trkpt>
      <trkpt lat="45.01306" lon="5.60514">
        <ele>1055</ele>
        <time>2010-06-20T07:09:23Z</time>
      </trkpt>
      <trkpt lat="45.01303" lon="5.60516">
        <ele>1055</ele>
        <time>2010-06-20T07:09:24Z</time>
      </trkpt>
      <trkpt lat="45.013" lon="5.60518">
        <ele>1055</ele>
        <time>2010-06-20T07:09:25Z</time>
      </trkpt>
      <trkpt lat="45.01297" lon="5.6052">
        <ele>1055</ele>
        <time>2010-06-20T07:09:26Z</time>
      </trkpt>
      <trkpt lat="45.01294" lon="5.60522">
        <ele>1055</ele>
        <time>2010-06-20T07:09:27Z</time>
      </trkpt>
      <trkpt lat="45.01291" lon="5.60525">
        <ele>1055</ele>
        <time>2010-06-20T07:09:28Z</time>
      </trkpt>
      <trkpt lat="45.01288" lon="5.60528">
        <ele>1055</ele>
        <time>2010-06-20T07:09:29Z</time>
      </trkpt>
      <trkpt lat="45.01285" lon="5.60529">
        <ele>1055</ele>
        <time>2010-06-20T07:09:30Z</time>
      </trkpt>
      <trkpt lat="45.01282" lon="5.60529">
        <ele>1055</ele>
        <time>2010-06-20T07:09:31Z</time>
      </trkpt>
      <trkpt lat="45.01279" lon="5.6053">
        <ele>1054</ele>
        <time>2010-06-20T07:09:32Z</time>
      </trkpt>
      <trkpt lat="45.01276" lon="5.60531">
        <ele>1053</ele>
        <time>2010-06-20T07:09:33Z</time>
      </trkpt>
      <trkpt lat="45.01273" lon="5.6053">
        <ele>1052</ele>
        <time>2010-06-20T07:09:34Z</time>
      </trkpt>
      <trkpt lat="45.0127" lon="5.6053">
        <ele>1052</ele>
        <time>2010-06-20T07:09:35Z</time>
      </trkpt>
      <trkpt lat="45.01268" lon="5.6053">
        <ele>1052</ele>
        <time>2010-06-20T07:09:36Z</time>
      </trkpt>
      <trkpt lat="45.01266" lon="5.6053">
        <ele>1051</ele>
        <time>2010-06-20T07:09:37Z</time>
      </trkpt>
      <trkpt lat="45.01264" lon="5.60531">
        <ele>1051</ele>
        <time>2010-06-20T07:09:38Z</time>
      </trkpt>
      <trkpt lat="45.01261" lon="5.60533">
        <ele>1050</ele>
        <time>2010-06-20T07:09:39Z</time>
      </trkpt>
      <trkpt lat="45.01258" lon="5.60535">
        <ele>1050</ele>
        <time>2010-06-20T07:09:40Z</time>
      </trkpt>
      <trkpt lat="45.01255" lon="5.60537">
        <ele>1049</ele>
        <time>2010-06-20T07:09:41Z</time>
      </trkpt>
      <trkpt lat="45.01251" lon="5.60539">
        <ele>1048</ele>
        <time>2010-06-20T07:09:42Z</time>
      </trkpt>
      <trkpt lat="45.01249" lon="5.60542">
        <ele>1048</ele>
        <time>2010-06-20T07:09:43Z</time>
      </trkpt>
      <trkpt lat="45.01246" lon="5.60546">
        <ele>1048</ele>
        <time>2010-06-20T07:09:44Z</time>
      </trkpt>
      <trkpt lat="45.01243" lon="5.60551">
        <ele>1047</ele>
        <time>2010-06-20T07:09:45Z</time>
      </trkpt>
      <trkpt lat="45.0124" lon="5.60554">
        <ele>1047</ele>
        <time>2010-06-20T07:09:46Z</time>
      </trkpt>
      <trkpt lat="45.01237" lon="5.60558">
        <ele>1047</ele>
        <time>2010-06-20T07:09:47Z</time>
      </trkpt>
      <trkpt lat="45.01233" lon="5.60561">
        <ele>1047</ele>
        <time>2010-06-20T07:09:48Z</time>
      </trkpt>
      <trkpt lat="45.01229" lon="5.60564">
        <ele>1047</ele>
        <time>2010-06-20T07:09:49Z</time>
      </trkpt>
      <trkpt lat="45.01225" lon="5.60567">
        <ele>1047</ele>
        <time>2010-06-20T07:09:50Z</time>
      </trkpt>
      <trkpt lat="45.01222" lon="5.60569">
        <ele>1047</ele>
        <time>2010-06-20T07:09:51Z</time>
      </trkpt>
      <trkpt lat="45.01218" lon="5.60571">
        <ele>1047</ele>
        <time>2010-06-20T07:09:52Z</time>
      </trkpt>
      <trkpt lat="45.01215" lon="5.60572">
        <ele>1047</ele>
        <time>2010-06-20T07:09:53Z</time>
      </trkpt>
      <trkpt lat="45.01213" lon="5.60572">
        <ele>1048</ele>
        <time>2010-06-20T07:09:54Z</time>
      </trkpt>
      <trkpt lat="45.01211" lon="5.6057">
        <ele>1048</ele>
        <time>2010-06-20T07:09:55Z</time>
      </trkpt>
      <trkpt lat="45.01208" lon="5.60571">
        <ele>1048</ele>
        <time>2010-06-20T07:09:56Z</time>
      </trkpt>
      <trkpt lat="45.01205" lon="5.60572">
        <ele>1048</ele>
        <time>2010-06-20T07:09:57Z</time>
      </trkpt>
      <trkpt lat="45.01203" lon="5.60573">
        <ele>1048</ele>
        <time>2010-06-20T07:09:58Z</time>
      </trkpt>
      <trkpt lat="45.012" lon="5.60573">
        <ele>1048</ele>
        <time>2010-06-20T07:09:59Z</time>
      </trkpt>
      <trkpt lat="45.01198" lon="5.60574">
        <ele>1048</ele>
        <time>2010-06-20T07:10:00Z</time>
      </trkpt>
      <trkpt lat="45.01195" lon="5.60575">
        <ele>1048</ele>
        <time>2010-06-20T07:10:01Z</time>
      </trkpt>
      <trkpt lat="45.01193" lon="5.60576">
        <ele>1047</ele>
        <time>2010-06-20T07:10:02Z</time>
      </trkpt>
      <trkpt lat="45.01192" lon="5.60579">
        <ele>1047</ele>
        <time>2010-06-20T07:10:03Z</time>
      </trkpt>
      <trkpt lat="45.01192" lon="5.60582">
        <ele>1046</ele>
        <time>2010-06-20T07:10:04Z</time>
      </trkpt>
      <trkpt lat="45.01193" lon="5.60586">
        <ele>1045</ele>
        <time>2010-06-20T07:10:05Z</time>
      </trkpt>
      <trkpt lat="45.01195" lon="5.60589">
        <ele>1044</ele>
        <time>2010-06-20T07:10:06Z</time>
      </trkpt>
      <trkpt lat="45.01197" lon="5.60592">
        <ele>1043</ele>
        <time>2010-06-20T07:10:07Z</time>
      </trkpt>
      <trkpt lat="45.01199" lon="5.60595">
        <ele>1042</ele>
        <time>2010-06-20T07:10:08Z</time>
      </trkpt>
      <trkpt lat="45.012" lon="5.60599">
        <ele>1041</ele>
        <time>2010-06-20T07:10:09Z</time>
      </trkpt>
      <trkpt lat="45.01202" lon="5.60602">
        <ele>1040</ele>
        <time>2010-06-20T07:10:10Z</time>
      </trkpt>
      <trkpt lat="45.01204" lon="5.60606">
        <ele>1039</ele>
        <time>2010-06-20T07:10:11Z</time>
      </trkpt>
      <trkpt lat="45.01207" lon="5.6061">
        <ele>1038</ele>
        <time>2010-06-20T07:10:12Z</time>
      </trkpt>
      <trkpt lat="45.01209" lon="5.60614">
        <ele>1037</ele>
        <time>2010-06-20T07:10:13Z</time>
      </trkpt>
      <trkpt lat="45.0121" lon="5.60618">
        <ele>1036</ele>
        <time>2010-06-20T07:10:14Z</time>
      </trkpt>
      <trkpt lat="45.01212" lon="5.60622">
        <ele>1035</ele>
        <time>2010-06-20T07:10:15Z</time>
      </trkpt>
      <trkpt lat="45.01215" lon="5.60626">
        <ele>1034</ele>
        <time>2010-06-20T07:10:16Z</time>
      </trkpt>
      <trkpt lat="45.01217" lon="5.6063">
        <ele>1034</ele>
        <time>2010-06-20T07:10:17Z</time>
      </trkpt>
      <trkpt lat="45.01218" lon="5.60634">
        <ele>1033</ele>
        <time>2010-06-20T07:10:18Z</time>
      </trkpt>
      <trkpt lat="45.01219" lon="5.60639">
        <ele>1033</ele>
        <time>2010-06-20T07:10:19Z</time>
      </trkpt>
      <trkpt lat="45.0122" lon="5.60643">
        <ele>1033</ele>
        <time>2010-06-20T07:10:20Z</time>
      </trkpt>
      <trkpt lat="45.0122" lon="5.60648">
        <ele>1033</ele>
        <time>2010-06-20T07:10:21Z</time>
      </trkpt>
      <trkpt lat="45.01218" lon="5.60652">
        <ele>1033</ele>
        <time>2010-06-20T07:10:22Z</time>
      </trkpt>
      <trkpt lat="45.01216" lon="5.60655">
        <ele>1033</ele>
        <time>2010-06-20T07:10:23Z</time>
      </trkpt>
      <trkpt lat="45.01213" lon="5.60658">
        <ele>1033</ele>
        <time>2010-06-20T07:10:24Z</time>
      </trkpt>
      <trkpt lat="45.0121" lon="5.6066">
        <ele>1033</ele>
        <time>2010-06-20T07:10:25Z</time>
      </trkpt>
      <trkpt lat="45.01206" lon="5.60662">
        <ele>1032</ele>
        <time>2010-06-20T07:10:26Z</time>
      </trkpt>
      <trkpt lat="45.01202" lon="5.60664">
        <ele>1031</ele>
        <time>2010-06-20T07:10:27Z</time>
      </trkpt>
      <trkpt lat="45.01197" lon="5.60668">
        <ele>1030</ele>
        <time>2010-06-20T07:10:28Z</time>
      </trkpt>
      <trkpt lat="45.01193" lon="5.60671">
        <ele>1029</ele>
        <time>2010-06-20T07:10:29Z</time>
      </trkpt>
      <trkpt lat="45.01189" lon="5.60673">
        <ele>1028</ele>
        <time>2010-06-20T07:10:30Z</time>
      </trkpt>
      <trkpt lat="45.01186" lon="5.60674">
        <ele>1027</ele>
        <time>2010-06-20T07:10:31Z</time>
      </trkpt>
      <trkpt lat="45.01182" lon="5.60676">
        <ele>1026</ele>
        <time>2010-06-20T07:10:32Z</time>
      </trkpt>
      <trkpt lat="45.01179" lon="5.60677">
        <ele>1025</ele>
        <time>2010-06-20T07:10:33Z</time>
      </trkpt>
      <trkpt lat="45.01175" lon="5.60679">
        <ele>1024</ele>
        <time>2010-06-20T07:10:34Z</time>
      </trkpt>
      <trkpt lat="45.01171" lon="5.60682">
        <ele>1024</ele>
        <time>2010-06-20T07:10:35Z</time>
      </trkpt>
      <trkpt lat="45.01168" lon="5.60683">
        <ele>1024</ele>
        <time>2010-06-20T07:10:36Z</time>
      </trkpt>
      <trkpt lat="45.01165" lon="5.60687">
        <ele>1024</ele>
        <time>2010-06-20T07:10:37Z</time>
      </trkpt>
      <trkpt lat="45.01162" lon="5.60691">
        <ele>1024</ele>
        <time>2010-06-20T07:10:38Z</time>
      </trkpt>
      <trkpt lat="45.0116" lon="5.60695">
        <ele>1024</ele>
        <time>2010-06-20T07:10:39Z</time>
      </trkpt>
      <trkpt lat="45.01159" lon="5.60699">
        <ele>1024</ele>
        <time>2010-06-20T07:10:40Z</time>
      </trkpt>
      <trkpt lat="45.01158" lon="5.60701">
        <ele>1025</ele>
        <time>2010-06-20T07:10:41Z</time>
      </trkpt>
      <trkpt lat="45.01159" lon="5.60704">
        <ele>1025</ele>
        <time>2010-06-20T07:10:42Z</time>
      </trkpt>
      <trkpt lat="45.01159" lon="5.60708">
        <ele>1025</ele>
        <time>2010-06-20T07:10:43Z</time>
      </trkpt>
      <trkpt lat="45.01159" lon="5.60711">
        <ele>1025</ele>
        <time>2010-06-20T07:10:44Z</time>
      </trkpt>
      <trkpt lat="45.01161" lon="5.60715">
        <ele>1025</ele>
        <time>2010-06-20T07:10:45Z</time>
      </trkpt>
      <trkpt lat="45.01161" lon="5.6072">
        <ele>1025</ele>
        <time>2010-06-20T07:10:46Z</time>
      </trkpt>
      <trkpt lat="45.0116" lon="5.60727">
        <ele>1025</ele>
        <time>2010-06-20T07:10:47Z</time>
      </trkpt>
      <trkpt lat="45.0116" lon="5.60733">
        <ele>1025</ele>
        <time>2010-06-20T07:10:48Z</time>
      </trkpt>
      <trkpt lat="45.01158" lon="5.60738">
        <ele>1025</ele>
        <time>2010-06-20T07:10:49Z</time>
      </trkpt>
      <trkpt lat="45.01155" lon="5.60743">
        <ele>1025</ele>
        <time>2010-06-20T07:10:50Z</time>
      </trkpt>
      <trkpt lat="45.01153" lon="5.60747">
        <ele>1025</ele>
        <time>2010-06-20T07:10:51Z</time>
      </trkpt>
      <trkpt lat="45.01151" lon="5.60751">
        <ele>1024</ele>
        <time>2010-06-20T07:10:52Z</time>
      </trkpt>
      <trkpt lat="45.01149" lon="5.60755">
        <ele>1023</ele>
        <time>2010-06-20T07:10:53Z</time>
      </trkpt>
      <trkpt lat="45.01148" lon="5.60759">
        <ele>1022</ele>
        <time>2010-06-20T07:10:54Z</time>
      </trkpt>
      <trkpt lat="45.01147" lon="5.60763">
        <ele>1021</ele>
        <time>2010-06-20T07:10:55Z</time>
      </trkpt>
      <trkpt lat="45.01145" lon="5.60768">
        <ele>1020</ele>
        <time>2010-06-20T07:10:56Z</time>
      </trkpt>
      <trkpt lat="45.01142" lon="5.60772">
        <ele>1019</ele>
        <time>2010-06-20T07:10:57Z</time>
      </trkpt>
      <trkpt lat="45.01139" lon="5.60776">
        <ele>1018</ele>
        <time>2010-06-20T07:10:58Z</time>
      </trkpt>
      <trkpt lat="45.01138" lon="5.6078">
        <ele>1017</ele>
        <time>2010-06-20T07:10:59Z</time>
      </trkpt>
      <trkpt lat="45.01136" lon="5.60784">
        <ele>1016</ele>
        <time>2010-06-20T07:11:00Z</time>
      </trkpt>
      <trkpt lat="45.01136" lon="5.60788">
        <ele>1015</ele>
        <time>2010-06-20T07:11:01Z</time>
      </trkpt>
      <trkpt lat="45.01136" lon="5.60792">
        <ele>1014</ele>
        <time>2010-06-20T07:11:02Z</time>
      </trkpt>
      <trkpt lat="45.01138" lon="5.60797">
        <ele>1014</ele>
        <time>2010-06-20T07:11:03Z</time>
      </trkpt>
      <trkpt lat="45.01138" lon="5.60801">
        <ele>1014</ele>
        <time>2010-06-20T07:11:04Z</time>
      </trkpt>
      <trkpt lat="45.01138" lon="5.60806">
        <ele>1014</ele>
        <time>2010-06-20T07:11:05Z</time>
      </trkpt>
      <trkpt lat="45.0114" lon="5.60811">
        <ele>1013</ele>
        <time>2010-06-20T07:11:06Z</time>
      </trkpt>
      <trkpt lat="45.01141" lon="5.60817">
        <ele>1013</ele>
        <time>2010-06-20T07:11:07Z</time>
      </trkpt>
      <trkpt lat="45.01143" lon="5.60822">
        <ele>1013</ele>
        <time>2010-06-20T07:11:08Z</time>
      </trkpt>
      <trkpt lat="45.01145" lon="5.60826">
        <ele>1012</ele>
        <time>2010-06-20T07:11:09Z</time>
      </trkpt>
      <trkpt lat="45.01146" lon="5.60831">
        <ele>1011</ele>
        <time>2010-06-20T07:11:10Z</time>
      </trkpt>
      <trkpt lat="45.01147" lon="5.60837">
        <ele>1010</ele>
        <time>2010-06-20T07:11:11Z</time>
      </trkpt>
      <trkpt lat="45.01149" lon="5.60841">
        <ele>1010</ele>
        <time>2010-06-20T07:11:12Z</time>
      </trkpt>
      <trkpt lat="45.01151" lon="5.60846">
        <ele>1009</ele>
        <time>2010-06-20T07:11:13Z</time>
      </trkpt>
      <trkpt lat="45.01154" lon="5.6085">
        <ele>1008</ele>
        <time>2010-06-20T07:11:14Z</time>
      </trkpt>
      <trkpt lat="45.01157" lon="5.60854">
        <ele>1007</ele>
        <time>2010-06-20T07:11:15Z</time>
      </trkpt>
      <trkpt lat="45.0116" lon="5.60858">
        <ele>1006</ele>
        <time>2010-06-20T07:11:16Z</time>
      </trkpt>
      <trkpt lat="45.01163" lon="5.60862">
        <ele>1005</ele>
        <time>2010-06-20T07:11:17Z</time>
      </trkpt>
      <trkpt lat="45.01166" lon="5.60866">
        <ele>1005</ele>
        <time>2010-06-20T07:11:18Z</time>
      </trkpt>
      <trkpt lat="45.01168" lon="5.6087">
        <ele>1004</ele>
        <time>2010-06-20T07:11:19Z</time>
      </trkpt>
      <trkpt lat="45.0117" lon="5.60875">
        <ele>1004</ele>
        <time>2010-06-20T07:11:20Z</time>
      </trkpt>
      <trkpt lat="45.01171" lon="5.60879">
        <ele>1004</ele>
        <time>2010-06-20T07:11:21Z</time>
      </trkpt>
      <trkpt lat="45.01173" lon="5.60883">
        <ele>1004</ele>
        <time>2010-06-20T07:11:22Z</time>
      </trkpt>
      <trkpt lat="45.01174" lon="5.60888">
        <ele>1003</ele>
        <time>2010-06-20T07:11:23Z</time>
      </trkpt>
      <trkpt lat="45.01176" lon="5.60892">
        <ele>1003</ele>
        <time>2010-06-20T07:11:24Z</time>
      </trkpt>
      <trkpt lat="45.01176" lon="5.60897">
        <ele>1002</ele>
        <time>2010-06-20T07:11:25Z</time>
      </trkpt>
      <trkpt lat="45.01177" lon="5.60901">
        <ele>1001</ele>
        <time>2010-06-20T07:11:26Z</time>
      </trkpt>
      <trkpt lat="45.01178" lon="5.60906">
        <ele>1000</ele>
        <time>2010-06-20T07:11:27Z</time>
      </trkpt>
      <trkpt lat="45.0118" lon="5.60911">
        <ele>999</ele>
        <time>2010-06-20T07:11:28Z</time>
      </trkpt>
      <trkpt lat="45.01183" lon="5.60915">
        <ele>998</ele>
        <time>2010-06-20T07:11:29Z</time>
      </trkpt>
      <trkpt lat="45.01185" lon="5.60918">
        <ele>998</ele>
        <time>2010-06-20T07:11:30Z</time>
      </trkpt>
      <trkpt lat="45.01187" lon="5.60921">
        <ele>998</ele>
        <time>2010-06-20T07:11:31Z</time>
      </trkpt>
      <trkpt lat="45.01188" lon="5.60924">
        <ele>998</ele>
        <time>2010-06-20T07:11:32Z</time>
      </trkpt>
      <trkpt lat="45.0119" lon="5.60927">
        <ele>998</ele>
        <time>2010-06-20T07:11:33Z</time>
      </trkpt>
      <trkpt lat="45.01191" lon="5.60932">
        <ele>998</ele>
        <time>2010-06-20T07:11:34Z</time>
      </trkpt>
      <trkpt lat="45.01191" lon="5.60935">
        <ele>997</ele>
        <time>2010-06-20T07:11:34Z</time>
      </trkpt>
      <trkpt lat="45.01191" lon="5.6094">
        <ele>996</ele>
        <time>2010-06-20T07:11:36Z</time>
      </trkpt>
      <trkpt lat="45.0119" lon="5.60944">
        <ele>995</ele>
        <time>2010-06-20T07:11:37Z</time>
      </trkpt>
      <trkpt lat="45.0119" lon="5.60949">
        <ele>994</ele>
        <time>2010-06-20T07:11:38Z</time>
      </trkpt>
      <trkpt lat="45.0119" lon="5.60952">
        <ele>993</ele>
        <time>2010-06-20T07:11:39Z</time>
      </trkpt>
      <trkpt lat="45.01189" lon="5.60956">
        <ele>992</ele>
        <time>2010-06-20T07:11:40Z</time>
      </trkpt>
      <trkpt lat="45.01187" lon="5.60961">
        <ele>991</ele>
        <time>2010-06-20T07:11:41Z</time>
      </trkpt>
      <trkpt lat="45.01186" lon="5.60964">
        <ele>990</ele>
        <time>2010-06-20T07:11:42Z</time>
      </trkpt>
      <trkpt lat="45.01186" lon="5.60968">
        <ele>989</ele>
        <time>2010-06-20T07:11:43Z</time>
      </trkpt>
      <trkpt lat="45.01186" lon="5.60973">
        <ele>988</ele>
        <time>2010-06-20T07:11:44Z</time>
      </trkpt>
      <trkpt lat="45.01186" lon="5.60977">
        <ele>987</ele>
        <time>2010-06-20T07:11:45Z</time>
      </trkpt>
      <trkpt lat="45.01186" lon="5.60983">
        <ele>986</ele>
        <time>2010-06-20T07:11:46Z</time>
      </trkpt>
      <trkpt lat="45.01186" lon="5.60989">
        <ele>986</ele>
        <time>2010-06-20T07:11:47Z</time>
      </trkpt>
      <trkpt lat="45.01186" lon="5.60994">
        <ele>986</ele>
        <time>2010-06-20T07:11:48Z</time>
      </trkpt>
      <trkpt lat="45.01185" lon="5.60999">
        <ele>986</ele>
        <time>2010-06-20T07:11:49Z</time>
      </trkpt>
      <trkpt lat="45.01183" lon="5.61004">
        <ele>986</ele>
        <time>2010-06-20T07:11:50Z</time>
      </trkpt>
      <trkpt lat="45.01181" lon="5.61009">
        <ele>986</ele>
        <time>2010-06-20T07:11:51Z</time>
      </trkpt>
      <trkpt lat="45.0118" lon="5.61013">
        <ele>986</ele>
        <time>2010-06-20T07:11:52Z</time>
      </trkpt>
      <trkpt lat="45.01177" lon="5.6102">
        <ele>986</ele>
        <time>2010-06-20T07:11:53Z</time>
      </trkpt>
      <trkpt lat="45.01175" lon="5.61027">
        <ele>986</ele>
        <time>2010-06-20T07:11:54Z</time>
      </trkpt>
      <trkpt lat="45.01174" lon="5.61032">
        <ele>986</ele>
        <time>2010-06-20T07:11:54Z</time>
      </trkpt>
      <trkpt lat="45.01174" lon="5.61037">
        <ele>986</ele>
        <time>2010-06-20T07:11:56Z</time>
      </trkpt>
      <trkpt lat="45.01175" lon="5.61041">
        <ele>986</ele>
        <time>2010-06-20T07:11:57Z</time>
      </trkpt>
      <trkpt lat="45.01177" lon="5.61044">
        <ele>986</ele>
        <time>2010-06-20T07:11:58Z</time>
      </trkpt>
      <trkpt lat="45.01178" lon="5.61048">
        <ele>986</ele>
        <time>2010-06-20T07:11:59Z</time>
      </trkpt>
      <trkpt lat="45.01179" lon="5.61053">
        <ele>986</ele>
        <time>2010-06-20T07:12:00Z</time>
      </trkpt>
      <trkpt lat="45.0118" lon="5.61057">
        <ele>986</ele>
        <time>2010-06-20T07:12:01Z</time>
      </trkpt>
      <trkpt lat="45.01181" lon="5.61062">
        <ele>986</ele>
        <time>2010-06-20T07:12:02Z</time>
      </trkpt>
      <trkpt lat="45.01182" lon="5.61066">
        <ele>986</ele>
        <time>2010-06-20T07:12:03Z</time>
      </trkpt>
      <trkpt lat="45.01183" lon="5.61071">
        <ele>986</ele>
        <time>2010-06-20T07:12:04Z</time>
      </trkpt>
      <trkpt lat="45.01185" lon="5.61076">
        <ele>985</ele>
        <time>2010-06-20T07:12:05Z</time>
      </trkpt>
      <trkpt lat="45.01187" lon="5.61079">
        <ele>985</ele>
        <time>2010-06-20T07:12:06Z</time>
      </trkpt>
      <trkpt lat="45.01188" lon="5.61084">
        <ele>984</ele>
        <time>2010-06-20T07:12:07Z</time>
      </trkpt>
      <trkpt lat="45.01189" lon="5.61089">
        <ele>983</ele>
        <time>2010-06-20T07:12:08Z</time>
      </trkpt>
      <trkpt lat="45.01191" lon="5.61094">
        <ele>982</ele>
        <time>2010-06-20T07:12:08Z</time>
      </trkpt>
      <trkpt lat="45.01192" lon="5.61098">
        <ele>981</ele>
        <time>2010-06-20T07:12:10Z</time>
      </trkpt>
      <trkpt lat="45.01193" lon="5.61101">
        <ele>980</ele>
        <time>2010-06-20T07:12:10Z</time>
      </trkpt>
      <trkpt lat="45.01193" lon="5.61105">
        <ele>979</ele>
        <time>2010-06-20T07:12:12Z</time>
      </trkpt>
      <trkpt lat="45.01192" lon="5.6111">
        <ele>978</ele>
        <time>2010-06-20T07:12:13Z</time>
      </trkpt>
      <trkpt lat="45.01191" lon="5.61115">
        <ele>977</ele>
        <time>2010-06-20T07:12:14Z</time>
      </trkpt>
      <trkpt lat="45.0119" lon="5.61119">
        <ele>976</ele>
        <time>2010-06-20T07:12:14Z</time>
      </trkpt>
      <trkpt lat="45.01189" lon="5.61124">
        <ele>975</ele>
        <time>2010-06-20T07:12:16Z</time>
      </trkpt>
      <trkpt lat="45.01188" lon="5.61129">
        <ele>974</ele>
        <time>2010-06-20T07:12:17Z</time>
      </trkpt>
      <trkpt lat="45.01189" lon="5.61133">
        <ele>973</ele>
        <time>2010-06-20T07:12:18Z</time>
      </trkpt>
      <trkpt lat="45.0119" lon="5.61138">
        <ele>972</ele>
        <time>2010-06-20T07:12:19Z</time>
      </trkpt>
      <trkpt lat="45.0119" lon="5.61142">
        <ele>971</ele>
        <time>2010-06-20T07:12:20Z</time>
      </trkpt>
      <trkpt lat="45.0119" lon="5.61147">
        <ele>970</ele>
        <time>2010-06-20T07:12:21Z</time>
      </trkpt>
      <trkpt lat="45.0119" lon="5.61152">
        <ele>969</ele>
        <time>2010-06-20T07:12:22Z</time>
      </trkpt>
      <trkpt lat="45.01189" lon="5.61156">
        <ele>968</ele>
        <time>2010-06-20T07:12:22Z</time>
      </trkpt>
      <trkpt lat="45.0119" lon="5.61161">
        <ele>967</ele>
        <time>2010-06-20T07:12:24Z</time>
      </trkpt>
      <trkpt lat="45.0119" lon="5.61165">
        <ele>966</ele>
        <time>2010-06-20T07:12:25Z</time>
      </trkpt>
      <trkpt lat="45.01189" lon="5.61169">
        <ele>965</ele>
        <time>2010-06-20T07:12:26Z</time>
      </trkpt>
      <trkpt lat="45.01187" lon="5.61171">
        <ele>964</ele>
        <time>2010-06-20T07:12:27Z</time>
      </trkpt>
      <trkpt lat="45.01184" lon="5.61173">
        <ele>963</ele>
        <time>2010-06-20T07:12:28Z</time>
      </trkpt>
      <trkpt lat="45.01182" lon="5.61173">
        <ele>962</ele>
        <time>2010-06-20T07:12:29Z</time>
      </trkpt>
      <trkpt lat="45.01179" lon="5.61172">
        <ele>962</ele>
        <time>2010-06-20T07:12:30Z</time>
      </trkpt>
      <trkpt lat="45.01177" lon="5.61171">
        <ele>962</ele>
        <time>2010-06-20T07:12:31Z</time>
      </trkpt>
      <trkpt lat="45.01175" lon="5.61171">
        <ele>962</ele>
        <time>2010-06-20T07:12:32Z</time>
      </trkpt>
      <trkpt lat="45.01172" lon="5.6117">
        <ele>962</ele>
        <time>2010-06-20T07:12:33Z</time>
      </trkpt>
      <trkpt lat="45.0117" lon="5.61169">
        <ele>962</ele>
        <time>2010-06-20T07:12:34Z</time>
      </trkpt>
      <trkpt lat="45.01167" lon="5.61167">
        <ele>962</ele>
        <time>2010-06-20T07:12:35Z</time>
      </trkpt>
      <trkpt lat="45.01164" lon="5.61167">
        <ele>962</ele>
        <time>2010-06-20T07:12:36Z</time>
      </trkpt>
      <trkpt lat="45.01162" lon="5.61166">
        <ele>962</ele>
        <time>2010-06-20T07:12:37Z</time>
      </trkpt>
      <trkpt lat="45.01159" lon="5.61166">
        <ele>962</ele>
        <time>2010-06-20T07:12:38Z</time>
      </trkpt>
      <trkpt lat="45.01157" lon="5.61164">
        <ele>962</ele>
        <time>2010-06-20T07:12:39Z</time>
      </trkpt>
      <trkpt lat="45.01155" lon="5.61165">
        <ele>962</ele>
        <time>2010-06-20T07:12:40Z</time>
      </trkpt>
      <trkpt lat="45.01153" lon="5.61164">
        <ele>962</ele>
        <time>2010-06-20T07:12:41Z</time>
      </trkpt>
      <trkpt lat="45.0115" lon="5.61164">
        <ele>963</ele>
        <time>2010-06-20T07:12:42Z</time>
      </trkpt>
      <trkpt lat="45.01147" lon="5.61164">
        <ele>964</ele>
        <time>2010-06-20T07:12:43Z</time>
      </trkpt>
      <trkpt lat="45.01145" lon="5.61163">
        <ele>965</ele>
        <time>2010-06-20T07:12:44Z</time>
      </trkpt>
      <trkpt lat="45.01143" lon="5.61162">
        <ele>966</ele>
        <time>2010-06-20T07:12:45Z</time>
      </trkpt>
      <trkpt lat="45.01141" lon="5.61159">
        <ele>967</ele>
        <time>2010-06-20T07:12:46Z</time>
      </trkpt>
      <trkpt lat="45.01139" lon="5.61156">
        <ele>968</ele>
        <time>2010-06-20T07:12:47Z</time>
      </trkpt>
      <trkpt lat="45.01137" lon="5.61154">
        <ele>969</ele>
        <time>2010-06-20T07:12:48Z</time>
      </trkpt>
      <trkpt lat="45.01134" lon="5.61153">
        <ele>970</ele>
        <time>2010-06-20T07:12:49Z</time>
      </trkpt>
      <trkpt lat="45.01131" lon="5.61152">
        <ele>970</ele>
        <time>2010-06-20T07:12:50Z</time>
      </trkpt>
      <trkpt lat="45.01129" lon="5.61151">
        <ele>970</ele>
        <time>2010-06-20T07:12:50Z</time>
      </trkpt>
      <trkpt lat="45.01126" lon="5.6115">
        <ele>970</ele>
        <time>2010-06-20T07:12:52Z</time>
      </trkpt>
      <trkpt lat="45.01124" lon="5.61149">
        <ele>971</ele>
        <time>2010-06-20T07:12:53Z</time>
      </trkpt>
      <trkpt lat="45.01121" lon="5.61147">
        <ele>972</ele>
        <time>2010-06-20T07:12:54Z</time>
      </trkpt>
      <trkpt lat="45.01119" lon="5.61146">
        <ele>973</ele>
        <time>2010-06-20T07:12:54Z</time>
      </trkpt>
      <trkpt lat="45.01117" lon="5.61146">
        <ele>974</ele>
        <time>2010-06-20T07:12:55Z</time>
      </trkpt>
      <trkpt lat="45.01115" lon="5.61145">
        <ele>975</ele>
        <time>2010-06-20T07:12:57Z</time>
      </trkpt>
      <trkpt lat="45.01112" lon="5.61143">
        <ele>976</ele>
        <time>2010-06-20T07:12:58Z</time>
      </trkpt>
      <trkpt lat="45.01108" lon="5.61142">
        <ele>977</ele>
        <time>2010-06-20T07:12:59Z</time>
      </trkpt>
      <trkpt lat="45.01105" lon="5.6114">
        <ele>978</ele>
        <time>2010-06-20T07:13:00Z</time>
      </trkpt>
      <trkpt lat="45.01103" lon="5.61137">
        <ele>979</ele>
        <time>2010-06-20T07:13:01Z</time>
      </trkpt>
      <trkpt lat="45.011" lon="5.61135">
        <ele>980</ele>
        <time>2010-06-20T07:13:02Z</time>
      </trkpt>
      <trkpt lat="45.01097" lon="5.61133">
        <ele>981</ele>
        <time>2010-06-20T07:13:03Z</time>
      </trkpt>
      <trkpt lat="45.01095" lon="5.61131">
        <ele>982</ele>
        <time>2010-06-20T07:13:04Z</time>
      </trkpt>
      <trkpt lat="45.01093" lon="5.61129">
        <ele>983</ele>
        <time>2010-06-20T07:13:05Z</time>
      </trkpt>
      <trkpt lat="45.0109" lon="5.61128">
        <ele>983</ele>
        <time>2010-06-20T07:13:06Z</time>
      </trkpt>
      <trkpt lat="45.01088" lon="5.61125">
        <ele>983</ele>
        <time>2010-06-20T07:13:07Z</time>
      </trkpt>
      <trkpt lat="45.01086" lon="5.61124">
        <ele>983</ele>
        <time>2010-06-20T07:13:08Z</time>
      </trkpt>
      <trkpt lat="45.01083" lon="5.61122">
        <ele>983</ele>
        <time>2010-06-20T07:13:09Z</time>
      </trkpt>
      <trkpt lat="45.0108" lon="5.6112">
        <ele>983</ele>
        <time>2010-06-20T07:13:10Z</time>
      </trkpt>
      <trkpt lat="45.01078" lon="5.61118">
        <ele>983</ele>
        <time>2010-06-20T07:13:11Z</time>
      </trkpt>
      <trkpt lat="45.01075" lon="5.61116">
        <ele>983</ele>
        <time>2010-06-20T07:13:12Z</time>
      </trkpt>
      <trkpt lat="45.01072" lon="5.61115">
        <ele>983</ele>
        <time>2010-06-20T07:13:12Z</time>
      </trkpt>
      <trkpt lat="45.01069" lon="5.61114">
        <ele>984</ele>
        <time>2010-06-20T07:13:14Z</time>
      </trkpt>
      <trkpt lat="45.01067" lon="5.61113">
        <ele>984</ele>
        <time>2010-06-20T07:13:14Z</time>
      </trkpt>
      <trkpt lat="45.01064" lon="5.61112">
        <ele>985</ele>
        <time>2010-06-20T07:13:15Z</time>
      </trkpt>
      <trkpt lat="45.01061" lon="5.6111">
        <ele>985</ele>
        <time>2010-06-20T07:13:16Z</time>
      </trkpt>
      <trkpt lat="45.0106" lon="5.61106">
        <ele>985</ele>
        <time>2010-06-20T07:13:18Z</time>
      </trkpt>
      <trkpt lat="45.01058" lon="5.61103">
        <ele>985</ele>
        <time>2010-06-20T07:13:19Z</time>
      </trkpt>
      <trkpt lat="45.01056" lon="5.61101">
        <ele>985</ele>
        <time>2010-06-20T07:13:20Z</time>
      </trkpt>
      <trkpt lat="45.01054" lon="5.61099">
        <ele>985</ele>
        <time>2010-06-20T07:13:21Z</time>
      </trkpt>
      <trkpt lat="45.01051" lon="5.61098">
        <ele>985</ele>
        <time>2010-06-20T07:13:22Z</time>
      </trkpt>
      <trkpt lat="45.01049" lon="5.61095">
        <ele>985</ele>
        <time>2010-06-20T07:13:23Z</time>
      </trkpt>
      <trkpt lat="45.01045" lon="5.61093">
        <ele>985</ele>
        <time>2010-06-20T07:13:24Z</time>
      </trkpt>
      <trkpt lat="45.01043" lon="5.61092">
        <ele>985</ele>
        <time>2010-06-20T07:13:25Z</time>
      </trkpt>
      <trkpt lat="45.01041" lon="5.6109">
        <ele>985</ele>
        <time>2010-06-20T07:13:26Z</time>
      </trkpt>
      <trkpt lat="45.01038" lon="5.61089">
        <ele>985</ele>
        <time>2010-06-20T07:13:27Z</time>
      </trkpt>
      <trkpt lat="45.01035" lon="5.61087">
        <ele>985</ele>
        <time>2010-06-20T07:13:28Z</time>
      </trkpt>
      <trkpt lat="45.01033" lon="5.61085">
        <ele>985</ele>
        <time>2010-06-20T07:13:29Z</time>
      </trkpt>
      <trkpt lat="45.0103" lon="5.61084">
        <ele>985</ele>
        <time>2010-06-20T07:13:30Z</time>
      </trkpt>
      <trkpt lat="45.01027" lon="5.61082">
        <ele>985</ele>
        <time>2010-06-20T07:13:30Z</time>
      </trkpt>
      <trkpt lat="45.01025" lon="5.61081">
        <ele>985</ele>
        <time>2010-06-20T07:13:32Z</time>
      </trkpt>
      <trkpt lat="45.01022" lon="5.61081">
        <ele>985</ele>
        <time>2010-06-20T07:13:32Z</time>
      </trkpt>
      <trkpt lat="45.0102" lon="5.6108">
        <ele>985</ele>
        <time>2010-06-20T07:13:34Z</time>
      </trkpt>
      <trkpt lat="45.01017" lon="5.61079">
        <ele>984</ele>
        <time>2010-06-20T07:13:35Z</time>
      </trkpt>
      <trkpt lat="45.01016" lon="5.61076">
        <ele>984</ele>
        <time>2010-06-20T07:13:36Z</time>
      </trkpt>
      <trkpt lat="45.01014" lon="5.61074">
        <ele>983</ele>
        <time>2010-06-20T07:13:37Z</time>
      </trkpt>
      <trkpt lat="45.01012" lon="5.61071">
        <ele>982</ele>
        <time>2010-06-20T07:13:37Z</time>
      </trkpt>
      <trkpt lat="45.01011" lon="5.61068">
        <ele>981</ele>
        <time>2010-06-20T07:13:38Z</time>
      </trkpt>
      <trkpt lat="45.01009" lon="5.61066">
        <ele>980</ele>
        <time>2010-06-20T07:13:40Z</time>
      </trkpt>
      <trkpt lat="45.01007" lon="5.61063">
        <ele>979</ele>
        <time>2010-06-20T07:13:40Z</time>
      </trkpt>
      <trkpt lat="45.01005" lon="5.6106">
        <ele>978</ele>
        <time>2010-06-20T07:13:41Z</time>
      </trkpt>
      <trkpt lat="45.01002" lon="5.61059">
        <ele>977</ele>
        <time>2010-06-20T07:13:43Z</time>
      </trkpt>
      <trkpt lat="45.00999" lon="5.61058">
        <ele>976</ele>
        <time>2010-06-20T07:13:43Z</time>
      </trkpt>
      <trkpt lat="45.00997" lon="5.61056">
        <ele>975</ele>
        <time>2010-06-20T07:13:45Z</time>
      </trkpt>
      <trkpt lat="45.00995" lon="5.61055">
        <ele>974</ele>
        <time>2010-06-20T07:13:45Z</time>
      </trkpt>
      <trkpt lat="45.00993" lon="5.61054">
        <ele>974</ele>
        <time>2010-06-20T07:13:46Z</time>
      </trkpt>
      <trkpt lat="45.0099" lon="5.61052">
        <ele>974</ele>
        <time>2010-06-20T07:13:47Z</time>
      </trkpt>
      <trkpt lat="45.00988" lon="5.61051">
        <ele>974</ele>
        <time>2010-06-20T07:13:48Z</time>
      </trkpt>
      <trkpt lat="45.00985" lon="5.61051">
        <ele>974</ele>
        <time>2010-06-20T07:13:49Z</time>
      </trkpt>
      <trkpt lat="45.00983" lon="5.6105">
        <ele>974</ele>
        <time>2010-06-20T07:13:51Z</time>
      </trkpt>
      <trkpt lat="45.0098" lon="5.6105">
        <ele>974</ele>
        <time>2010-06-20T07:13:51Z</time>
      </trkpt>
      <trkpt lat="45.00977" lon="5.6105">
        <ele>974</ele>
        <time>2010-06-20T07:13:52Z</time>
      </trkpt>
      <trkpt lat="45.00974" lon="5.6105">
        <ele>974</ele>
        <time>2010-06-20T07:13:53Z</time>
      </trkpt>
      <trkpt lat="45.00971" lon="5.61049">
        <ele>974</ele>
        <time>2010-06-20T07:13:54Z</time>
      </trkpt>
      <trkpt lat="45.00969" lon="5.61047">
        <ele>974</ele>
        <time>2010-06-20T07:13:56Z</time>
      </trkpt>
      <trkpt lat="45.00966" lon="5.61046">
        <ele>974</ele>
        <time>2010-06-20T07:13:56Z</time>
      </trkpt>
      <trkpt lat="45.00963" lon="5.61046">
        <ele>975</ele>
        <time>2010-06-20T07:13:58Z</time>
      </trkpt>
      <trkpt lat="45.00961" lon="5.61046">
        <ele>975</ele>
        <time>2010-06-20T07:13:59Z</time>
      </trkpt>
      <trkpt lat="45.00957" lon="5.61047">
        <ele>976</ele>
        <time>2010-06-20T07:13:59Z</time>
      </trkpt>
      <trkpt lat="45.00954" lon="5.61048">
        <ele>976</ele>
        <time>2010-06-20T07:14:01Z</time>
      </trkpt>
      <trkpt lat="45.00951" lon="5.61049">
        <ele>976</ele>
        <time>2010-06-20T07:14:02Z</time>
      </trkpt>
      <trkpt lat="45.00948" lon="5.6105">
        <ele>976</ele>
        <time>2010-06-20T07:14:02Z</time>
      </trkpt>
      <trkpt lat="45.00945" lon="5.61051">
        <ele>976</ele>
        <time>2010-06-20T07:14:03Z</time>
      </trkpt>
      <trkpt lat="45.00942" lon="5.61052">
        <ele>976</ele>
        <time>2010-06-20T07:14:04Z</time>
      </trkpt>
      <trkpt lat="45.00939" lon="5.61053">
        <ele>976</ele>
        <time>2010-06-20T07:14:06Z</time>
      </trkpt>
      <trkpt lat="45.00936" lon="5.61053">
        <ele>976</ele>
        <time>2010-06-20T07:14:06Z</time>
      </trkpt>
      <trkpt lat="45.00934" lon="5.61053">
        <ele>977</ele>
        <time>2010-06-20T07:14:08Z</time>
      </trkpt>
      <trkpt lat="45.0093" lon="5.61053">
        <ele>978</ele>
        <time>2010-06-20T07:14:09Z</time>
      </trkpt>
      <trkpt lat="45.00928" lon="5.61052">
        <ele>979</ele>
        <time>2010-06-20T07:14:10Z</time>
      </trkpt>
      <trkpt lat="45.00926" lon="5.61051">
        <ele>980</ele>
        <time>2010-06-20T07:14:11Z</time>
      </trkpt>
      <trkpt lat="45.00922" lon="5.61051">
        <ele>981</ele>
        <time>2010-06-20T07:14:12Z</time>
      </trkpt>
      <trkpt lat="45.0092" lon="5.61049">
        <ele>982</ele>
        <time>2010-06-20T07:14:13Z</time>
      </trkpt>
      <trkpt lat="45.00918" lon="5.61048">
        <ele>983</ele>
        <time>2010-06-20T07:14:13Z</time>
      </trkpt>
      <trkpt lat="45.00916" lon="5.61046">
        <ele>984</ele>
        <time>2010-06-20T07:14:15Z</time>
      </trkpt>
      <trkpt lat="45.00914" lon="5.61044">
        <ele>985</ele>
        <time>2010-06-20T07:14:16Z</time>
      </trkpt>
      <trkpt lat="45.00912" lon="5.61042">
        <ele>986</ele>
        <time>2010-06-20T07:14:17Z</time>
      </trkpt>
      <trkpt lat="45.00909" lon="5.6104">
        <ele>987</ele>
        <time>2010-06-20T07:14:18Z</time>
      </trkpt>
      <trkpt lat="45.00907" lon="5.61038">
        <ele>988</ele>
        <time>2010-06-20T07:14:19Z</time>
      </trkpt>
      <trkpt lat="45.00906" lon="5.61036">
        <ele>989</ele>
        <time>2010-06-20T07:14:19Z</time>
      </trkpt>
      <trkpt lat="45.00904" lon="5.61034">
        <ele>990</ele>
        <time>2010-06-20T07:14:21Z</time>
      </trkpt>
      <trkpt lat="45.00901" lon="5.61032">
        <ele>991</ele>
        <time>2010-06-20T07:14:21Z</time>
      </trkpt>
      <trkpt lat="45.00899" lon="5.61028">
        <ele>992</ele>
        <time>2010-06-20T07:14:23Z</time>
      </trkpt>
      <trkpt lat="45.00897" lon="5.61024">
        <ele>993</ele>
        <time>2010-06-20T07:14:23Z</time>
      </trkpt>
      <trkpt lat="45.00894" lon="5.61021">
        <ele>993</ele>
        <time>2010-06-20T07:14:25Z</time>
      </trkpt>
      <trkpt lat="45.00892" lon="5.61019">
        <ele>993</ele>
        <time>2010-06-20T07:14:26Z</time>
      </trkpt>
      <trkpt lat="45.0089" lon="5.61016">
        <ele>993</ele>
        <time>2010-06-20T07:14:27Z</time>
      </trkpt>
      <trkpt lat="45.00889" lon="5.61014">
        <ele>993</ele>
        <time>2010-06-20T07:14:27Z</time>
      </trkpt>
      <trkpt lat="45.00887" lon="5.61012">
        <ele>993</ele>
        <time>2010-06-20T07:14:29Z</time>
      </trkpt>
      <trkpt lat="45.00885" lon="5.6101">
        <ele>993</ele>
        <time>2010-06-20T07:14:30Z</time>
      </trkpt>
      <trkpt lat="45.00883" lon="5.61009">
        <ele>994</ele>
        <time>2010-06-20T07:14:31Z</time>
      </trkpt>
      <trkpt lat="45.00881" lon="5.61008">
        <ele>994</ele>
        <time>2010-06-20T07:14:31Z</time>
      </trkpt>
      <trkpt lat="45.0088" lon="5.61006">
        <ele>994</ele>
        <time>2010-06-20T07:14:32Z</time>
      </trkpt>
      <trkpt lat="45.00878" lon="5.61005">
        <ele>995</ele>
        <time>2010-06-20T07:14:34Z</time>
      </trkpt>
      <trkpt lat="45.00876" lon="5.61005">
        <ele>996</ele>
        <time>2010-06-20T07:14:34Z</time>
      </trkpt>
      <trkpt lat="45.00873" lon="5.61003">
        <ele>997</ele>
        <time>2010-06-20T07:14:35Z</time>
      </trkpt>
      <trkpt lat="45.00871" lon="5.61002">
        <ele>997</ele>
        <time>2010-06-20T07:14:37Z</time>
      </trkpt>
      <trkpt lat="45.00869" lon="5.61">
        <ele>998</ele>
        <time>2010-06-20T07:14:38Z</time>
      </trkpt>
      <trkpt lat="45.00867" lon="5.60999">
        <ele>999</ele>
        <time>2010-06-20T07:14:39Z</time>
      </trkpt>
      <trkpt lat="45.00865" lon="5.60996">
        <ele>999</ele>
        <time>2010-06-20T07:14:40Z</time>
      </trkpt>
      <trkpt lat="45.00863" lon="5.60993">
        <ele>1000</ele>
        <time>2010-06-20T07:14:41Z</time>
      </trkpt>
      <trkpt lat="45.00862" lon="5.6099">
        <ele>1000</ele>
        <time>2010-06-20T07:14:41Z</time>
      </trkpt>
      <trkpt lat="45.0086" lon="5.60988">
        <ele>1000</ele>
        <time>2010-06-20T07:14:43Z</time>
      </trkpt>
      <trkpt lat="45.00859" lon="5.60987">
        <ele>1000</ele>
        <time>2010-06-20T07:14:44Z</time>
      </trkpt>
      <trkpt lat="45.00857" lon="5.60985">
        <ele>1000</ele>
        <time>2010-06-20T07:14:45Z</time>
      </trkpt>
      <trkpt lat="45.00856" lon="5.60984">
        <ele>1000</ele>
        <time>2010-06-20T07:14:45Z</time>
      </trkpt>
      <trkpt lat="45.00854" lon="5.60983">
        <ele>1001</ele>
        <time>2010-06-20T07:14:46Z</time>
      </trkpt>
      <trkpt lat="45.00852" lon="5.60982">
        <ele>1002</ele>
        <time>2010-06-20T07:14:48Z</time>
      </trkpt>
      <trkpt lat="45.0085" lon="5.60981">
        <ele>1002</ele>
        <time>2010-06-20T07:14:49Z</time>
      </trkpt>
      <trkpt lat="45.00849" lon="5.60979">
        <ele>1002</ele>
        <time>2010-06-20T07:14:50Z</time>
      </trkpt>
      <trkpt lat="45.00848" lon="5.60978">
        <ele>1002</ele>
        <time>2010-06-20T07:14:51Z</time>
      </trkpt>
      <trkpt lat="45.00846" lon="5.60976">
        <ele>1002</ele>
        <time>2010-06-20T07:14:52Z</time>
      </trkpt>
      <trkpt lat="45.00845" lon="5.60976">
        <ele>1002</ele>
        <time>2010-06-20T07:14:53Z</time>
      </trkpt>
      <trkpt lat="45.00844" lon="5.60976">
        <ele>1002</ele>
        <time>2010-06-20T07:14:54Z</time>
      </trkpt>
      <trkpt lat="45.00842" lon="5.60976">
        <ele>1002</ele>
        <time>2010-06-20T07:14:55Z</time>
      </trkpt>
      <trkpt lat="45.0084" lon="5.60975">
        <ele>1002</ele>
        <time>2010-06-20T07:14:56Z</time>
      </trkpt>
      <trkpt lat="45.00839" lon="5.60975">
        <ele>1002</ele>
        <time>2010-06-20T07:14:57Z</time>
      </trkpt>
      <trkpt lat="45.00837" lon="5.60973">
        <ele>1002</ele>
        <time>2010-06-20T07:14:57Z</time>
      </trkpt>
      <trkpt lat="45.00835" lon="5.60973">
        <ele>1002</ele>
        <time>2010-06-20T07:14:59Z</time>
      </trkpt>
      <trkpt lat="45.00833" lon="5.60971">
        <ele>1002</ele>
        <time>2010-06-20T07:15:00Z</time>
      </trkpt>
      <trkpt lat="45.00832" lon="5.6097">
        <ele>1004</ele>
        <time>2010-06-20T07:15:03Z</time>
      </trkpt>
      <trkpt lat="45.00831" lon="5.60969">
        <ele>1005</ele>
        <time>2010-06-20T07:15:04Z</time>
      </trkpt>
      <trkpt lat="45.00829" lon="5.60967">
        <ele>1006</ele>
        <time>2010-06-20T07:15:05Z</time>
      </trkpt>
      <trkpt lat="45.00828" lon="5.60967">
        <ele>1007</ele>
        <time>2010-06-20T07:15:06Z</time>
      </trkpt>
      <trkpt lat="45.00826" lon="5.60966">
        <ele>1008</ele>
        <time>2010-06-20T07:15:07Z</time>
      </trkpt>
      <trkpt lat="45.00824" lon="5.60965">
        <ele>1009</ele>
        <time>2010-06-20T07:15:08Z</time>
      </trkpt>
      <trkpt lat="45.00823" lon="5.60963">
        <ele>1010</ele>
        <time>2010-06-20T07:15:08Z</time>
      </trkpt>
      <trkpt lat="45.00823" lon="5.6096">
        <ele>1011</ele>
        <time>2010-06-20T07:15:10Z</time>
      </trkpt>
      <trkpt lat="45.00822" lon="5.60958">
        <ele>1011</ele>
        <time>2010-06-20T07:15:11Z</time>
      </trkpt>
      <trkpt lat="45.00821" lon="5.60956">
        <ele>1011</ele>
        <time>2010-06-20T07:15:11Z</time>
      </trkpt>
      <trkpt lat="45.0082" lon="5.60953">
        <ele>1011</ele>
        <time>2010-06-20T07:15:14Z</time>
      </trkpt>
      <trkpt lat="45.0082" lon="5.60951">
        <ele>1011</ele>
        <time>2010-06-20T07:15:15Z</time>
      </trkpt>
      <trkpt lat="45.0082" lon="5.60949">
        <ele>1011</ele>
        <time>2010-06-20T07:15:16Z</time>
      </trkpt>
      <trkpt lat="45.00818" lon="5.60946">
        <ele>1011</ele>
        <time>2010-06-20T07:15:17Z</time>
      </trkpt>
      <trkpt lat="45.00818" lon="5.60944">
        <ele>1011</ele>
        <time>2010-06-20T07:15:18Z</time>
      </trkpt>
      <trkpt lat="45.00816" lon="5.60942">
        <ele>1011</ele>
        <time>2010-06-20T07:15:19Z</time>
      </trkpt>
      <trkpt lat="45.00815" lon="5.60939">
        <ele>1011</ele>
        <time>2010-06-20T07:15:20Z</time>
      </trkpt>
      <trkpt lat="45.00813" lon="5.60936">
        <ele>1011</ele>
        <time>2010-06-20T07:15:20Z</time>
      </trkpt>
      <trkpt lat="45.00812" lon="5.60934">
        <ele>1011</ele>
        <time>2010-06-20T07:15:22Z</time>
      </trkpt>
      <trkpt lat="45.0081" lon="5.60932">
        <ele>1011</ele>
        <time>2010-06-20T07:15:22Z</time>
      </trkpt>
      <trkpt lat="45.00809" lon="5.60931">
        <ele>1011</ele>
        <time>2010-06-20T07:15:23Z</time>
      </trkpt>
      <trkpt lat="45.00807" lon="5.60929">
        <ele>1011</ele>
        <time>2010-06-20T07:15:26Z</time>
      </trkpt>
      <trkpt lat="45.00805" lon="5.60926">
        <ele>1011</ele>
        <time>2010-06-20T07:15:27Z</time>
      </trkpt>
      <trkpt lat="45.00804" lon="5.60924">
        <ele>1011</ele>
        <time>2010-06-20T07:15:28Z</time>
      </trkpt>
      <trkpt lat="45.00803" lon="5.60922">
        <ele>1011</ele>
        <time>2010-06-20T07:15:29Z</time>
      </trkpt>
      <trkpt lat="45.00802" lon="5.60921">
        <ele>1011</ele>
        <time>2010-06-20T07:15:31Z</time>
      </trkpt>
      <trkpt lat="45.00801" lon="5.60918">
        <ele>1011</ele>
        <time>2010-06-20T07:15:31Z</time>
      </trkpt>
      <trkpt lat="45.008" lon="5.60916">
        <ele>1011</ele>
        <time>2010-06-20T07:15:33Z</time>
      </trkpt>
      <trkpt lat="45.00798" lon="5.60914">
        <ele>1011</ele>
        <time>2010-06-20T07:15:33Z</time>
      </trkpt>
      <trkpt lat="45.00798" lon="5.60912">
        <ele>1011</ele>
        <time>2010-06-20T07:15:35Z</time>
      </trkpt>
      <trkpt lat="45.00797" lon="5.6091">
        <ele>1011</ele>
        <time>2010-06-20T07:15:36Z</time>
      </trkpt>
      <trkpt lat="45.00796" lon="5.60907">
        <ele>1011</ele>
        <time>2010-06-20T07:15:36Z</time>
      </trkpt>
      <trkpt lat="45.00796" lon="5.60903">
        <ele>1011</ele>
        <time>2010-06-20T07:15:37Z</time>
      </trkpt>
      <trkpt lat="45.00796" lon="5.609">
        <ele>1011</ele>
        <time>2010-06-20T07:15:39Z</time>
      </trkpt>
      <trkpt lat="45.00795" lon="5.60897">
        <ele>1011</ele>
        <time>2010-06-20T07:15:39Z</time>
      </trkpt>
      <trkpt lat="45.00795" lon="5.60895">
        <ele>1011</ele>
        <time>2010-06-20T07:15:41Z</time>
      </trkpt>
      <trkpt lat="45.00795" lon="5.60893">
        <ele>1011</ele>
        <time>2010-06-20T07:15:41Z</time>
      </trkpt>
      <trkpt lat="45.00794" lon="5.60891">
        <ele>1011</ele>
        <time>2010-06-20T07:15:43Z</time>
      </trkpt>
      <trkpt lat="45.00791" lon="5.60887">
        <ele>1011</ele>
        <time>2010-06-20T07:15:44Z</time>
      </trkpt>
      <trkpt lat="45.0079" lon="5.60884">
        <ele>1011</ele>
        <time>2010-06-20T07:15:45Z</time>
      </trkpt>
      <trkpt lat="45.00789" lon="5.60883">
        <ele>1011</ele>
        <time>2010-06-20T07:15:47Z</time>
      </trkpt>
      <trkpt lat="45.00786" lon="5.6088">
        <ele>1013</ele>
        <time>2010-06-20T07:15:48Z</time>
      </trkpt>
      <trkpt lat="45.00785" lon="5.60877">
        <ele>1014</ele>
        <time>2010-06-20T07:15:49Z</time>
      </trkpt>
      <trkpt lat="45.00784" lon="5.60875">
        <ele>1015</ele>
        <time>2010-06-20T07:15:51Z</time>
      </trkpt>
      <trkpt lat="45.00784" lon="5.60872">
        <ele>1016</ele>
        <time>2010-06-20T07:15:52Z</time>
      </trkpt>
      <trkpt lat="45.00783" lon="5.6087">
        <ele>1016</ele>
        <time>2010-06-20T07:15:53Z</time>
      </trkpt>
      <trkpt lat="45.00783" lon="5.60868">
        <ele>1016</ele>
        <time>2010-06-20T07:15:54Z</time>
      </trkpt>
      <trkpt lat="45.00782" lon="5.60866">
        <ele>1016</ele>
        <time>2010-06-20T07:15:55Z</time>
      </trkpt>
      <trkpt lat="45.00781" lon="5.60864">
        <ele>1016</ele>
        <time>2010-06-20T07:15:56Z</time>
      </trkpt>
      <trkpt lat="45.00781" lon="5.60861">
        <ele>1016</ele>
        <time>2010-06-20T07:15:58Z</time>
      </trkpt>
      <trkpt lat="45.00781" lon="5.60859">
        <ele>1016</ele>
        <time>2010-06-20T07:15:59Z</time>
      </trkpt>
      <trkpt lat="45.0078" lon="5.60857">
        <ele>1016</ele>
        <time>2010-06-20T07:16:00Z</time>
      </trkpt>
      <trkpt lat="45.00779" lon="5.60855">
        <ele>1016</ele>
        <time>2010-06-20T07:16:01Z</time>
      </trkpt>
      <trkpt lat="45.00779" lon="5.60853">
        <ele>1016</ele>
        <time>2010-06-20T07:16:01Z</time>
      </trkpt>
      <trkpt lat="45.00779" lon="5.6085">
        <ele>1016</ele>
        <time>2010-06-20T07:16:03Z</time>
      </trkpt>
      <trkpt lat="45.00779" lon="5.60848">
        <ele>1016</ele>
        <time>2010-06-20T07:16:04Z</time>
      </trkpt>
      <trkpt lat="45.00779" lon="5.60845">
        <ele>1016</ele>
        <time>2010-06-20T07:16:04Z</time>
      </trkpt>
      <trkpt lat="45.00778" lon="5.60841">
        <ele>1016</ele>
        <time>2010-06-20T07:16:05Z</time>
      </trkpt>
      <trkpt lat="45.00778" lon="5.60839">
        <ele>1016</ele>
        <time>2010-06-20T07:16:07Z</time>
      </trkpt>
      <trkpt lat="45.00777" lon="5.60836">
        <ele>1016</ele>
        <time>2010-06-20T07:16:08Z</time>
      </trkpt>
      <trkpt lat="45.00776" lon="5.60833">
        <ele>1017</ele>
        <time>2010-06-20T07:16:09Z</time>
      </trkpt>
      <trkpt lat="45.00775" lon="5.6083">
        <ele>1017</ele>
        <time>2010-06-20T07:16:10Z</time>
      </trkpt>
      <trkpt lat="45.00774" lon="5.60827">
        <ele>1018</ele>
        <time>2010-06-20T07:16:10Z</time>
      </trkpt>
      <trkpt lat="45.00773" lon="5.60825">
        <ele>1019</ele>
        <time>2010-06-20T07:16:11Z</time>
      </trkpt>
      <trkpt lat="45.00771" lon="5.60822">
        <ele>1020</ele>
        <time>2010-06-20T07:16:12Z</time>
      </trkpt>
      <trkpt lat="45.0077" lon="5.60821">
        <ele>1020</ele>
        <time>2010-06-20T07:16:14Z</time>
      </trkpt>
      <trkpt lat="45.00769" lon="5.60819">
        <ele>1021</ele>
        <time>2010-06-20T07:16:15Z</time>
      </trkpt>
      <trkpt lat="45.00768" lon="5.60817">
        <ele>1021</ele>
        <time>2010-06-20T07:16:15Z</time>
      </trkpt>
      <trkpt lat="45.00767" lon="5.60815">
        <ele>1022</ele>
        <time>2010-06-20T07:16:16Z</time>
      </trkpt>
      <trkpt lat="45.00766" lon="5.60813">
        <ele>1022</ele>
        <time>2010-06-20T07:16:17Z</time>
      </trkpt>
      <trkpt lat="45.00765" lon="5.6081">
        <ele>1022</ele>
        <time>2010-06-20T07:16:19Z</time>
      </trkpt>
      <trkpt lat="45.00763" lon="5.60807">
        <ele>1022</ele>
        <time>2010-06-20T07:16:19Z</time>
      </trkpt>
      <trkpt lat="45.00762" lon="5.60804">
        <ele>1023</ele>
        <time>2010-06-20T07:16:20Z</time>
      </trkpt>
      <trkpt lat="45.00762" lon="5.60802">
        <ele>1023</ele>
        <time>2010-06-20T07:16:21Z</time>
      </trkpt>
      <trkpt lat="45.0076" lon="5.60801">
        <ele>1024</ele>
        <time>2010-06-20T07:16:23Z</time>
      </trkpt>
      <trkpt lat="45.00759" lon="5.60799">
        <ele>1026</ele>
        <time>2010-06-20T07:16:25Z</time>
      </trkpt>
      <trkpt lat="45.00758" lon="5.60796">
        <ele>1028</ele>
        <time>2010-06-20T07:16:26Z</time>
      </trkpt>
      <trkpt lat="45.00757" lon="5.60794">
        <ele>1028</ele>
        <time>2010-06-20T07:16:28Z</time>
      </trkpt>
      <trkpt lat="45.00756" lon="5.60792">
        <ele>1028</ele>
        <time>2010-06-20T07:16:28Z</time>
      </trkpt>
      <trkpt lat="45.00755" lon="5.60791">
        <ele>1028</ele>
        <time>2010-06-20T07:16:29Z</time>
      </trkpt>
      <trkpt lat="45.00753" lon="5.60789">
        <ele>1029</ele>
        <time>2010-06-20T07:16:32Z</time>
      </trkpt>
      <trkpt lat="45.00753" lon="5.60787">
        <ele>1029</ele>
        <time>2010-06-20T07:16:33Z</time>
      </trkpt>
      <trkpt lat="45.00752" lon="5.60784">
        <ele>1029</ele>
        <time>2010-06-20T07:16:34Z</time>
      </trkpt>
      <trkpt lat="45.00752" lon="5.6078">
        <ele>1030</ele>
        <time>2010-06-20T07:16:35Z</time>
      </trkpt>
      <trkpt lat="45.00752" lon="5.60778">
        <ele>1030</ele>
        <time>2010-06-20T07:16:37Z</time>
      </trkpt>
      <trkpt lat="45.00752" lon="5.60775">
        <ele>1030</ele>
        <time>2010-06-20T07:16:37Z</time>
      </trkpt>
      <trkpt lat="45.00752" lon="5.60772">
        <ele>1030</ele>
        <time>2010-06-20T07:16:39Z</time>
      </trkpt>
      <trkpt lat="45.00752" lon="5.60768">
        <ele>1030</ele>
        <time>2010-06-20T07:16:39Z</time>
      </trkpt>
      <trkpt lat="45.00751" lon="5.60766">
        <ele>1030</ele>
        <time>2010-06-20T07:16:41Z</time>
      </trkpt>
      <trkpt lat="45.0075" lon="5.60763">
        <ele>1030</ele>
        <time>2010-06-20T07:16:42Z</time>
      </trkpt>
      <trkpt lat="45.00749" lon="5.60761">
        <ele>1030</ele>
        <time>2010-06-20T07:16:42Z</time>
      </trkpt>
      <trkpt lat="45.00749" lon="5.60759">
        <ele>1031</ele>
        <time>2010-06-20T07:16:43Z</time>
      </trkpt>
      <trkpt lat="45.00746" lon="5.60755">
        <ele>1032</ele>
        <time>2010-06-20T07:16:45Z</time>
      </trkpt>
      <trkpt lat="45.00745" lon="5.60753">
        <ele>1032</ele>
        <time>2010-06-20T07:16:47Z</time>
      </trkpt>
      <trkpt lat="45.00743" lon="5.60752">
        <ele>1032</ele>
        <time>2010-06-20T07:16:47Z</time>
      </trkpt>
      <trkpt lat="45.00741" lon="5.60749">
        <ele>1033</ele>
        <time>2010-06-20T07:16:49Z</time>
      </trkpt>
      <trkpt lat="45.0074" lon="5.60747">
        <ele>1033</ele>
        <time>2010-06-20T07:16:51Z</time>
      </trkpt>
      <trkpt lat="45.00739" lon="5.60745">
        <ele>1033</ele>
        <time>2010-06-20T07:16:52Z</time>
      </trkpt>
      <trkpt lat="45.00739" lon="5.60743">
        <ele>1033</ele>
        <time>2010-06-20T07:16:52Z</time>
      </trkpt>
      <trkpt lat="45.00738" lon="5.60741">
        <ele>1033</ele>
        <time>2010-06-20T07:16:53Z</time>
      </trkpt>
      <trkpt lat="45.00737" lon="5.60738">
        <ele>1033</ele>
        <time>2010-06-20T07:16:54Z</time>
      </trkpt>
      <trkpt lat="45.00736" lon="5.60735">
        <ele>1033</ele>
        <time>2010-06-20T07:16:55Z</time>
      </trkpt>
      <trkpt lat="45.00735" lon="5.60733">
        <ele>1033</ele>
        <time>2010-06-20T07:16:57Z</time>
      </trkpt>
      <trkpt lat="45.00734" lon="5.60731">
        <ele>1033</ele>
        <time>2010-06-20T07:16:57Z</time>
      </trkpt>
      <trkpt lat="45.00734" lon="5.60729">
        <ele>1033</ele>
        <time>2010-06-20T07:16:58Z</time>
      </trkpt>
      <trkpt lat="45.00733" lon="5.60726">
        <ele>1033</ele>
        <time>2010-06-20T07:17:00Z</time>
      </trkpt>
      <trkpt lat="45.00732" lon="5.60725">
        <ele>1033</ele>
        <time>2010-06-20T07:17:01Z</time>
      </trkpt>
      <trkpt lat="45.00731" lon="5.60723">
        <ele>1033</ele>
        <time>2010-06-20T07:17:02Z</time>
      </trkpt>
      <trkpt lat="45.00729" lon="5.60721">
        <ele>1033</ele>
        <time>2010-06-20T07:17:03Z</time>
      </trkpt>
      <trkpt lat="45.00728" lon="5.60721">
        <ele>1033</ele>
        <time>2010-06-20T07:17:04Z</time>
      </trkpt>
      <trkpt lat="45.00726" lon="5.6072">
        <ele>1033</ele>
        <time>2010-06-20T07:17:05Z</time>
      </trkpt>
      <trkpt lat="45.00725" lon="5.60718">
        <ele>1034</ele>
        <time>2010-06-20T07:17:07Z</time>
      </trkpt>
      <trkpt lat="45.00723" lon="5.60715">
        <ele>1036</ele>
        <time>2010-06-20T07:17:08Z</time>
      </trkpt>
      <trkpt lat="45.00722" lon="5.60713">
        <ele>1037</ele>
        <time>2010-06-20T07:17:10Z</time>
      </trkpt>
      <trkpt lat="45.00722" lon="5.60712">
        <ele>1038</ele>
        <time>2010-06-20T07:17:10Z</time>
      </trkpt>
      <trkpt lat="45.00721" lon="5.6071">
        <ele>1039</ele>
        <time>2010-06-20T07:17:12Z</time>
      </trkpt>
      <trkpt lat="45.00718" lon="5.60708">
        <ele>1041</ele>
        <time>2010-06-20T07:17:13Z</time>
      </trkpt>
      <trkpt lat="45.00717" lon="5.60706">
        <ele>1042</ele>
        <time>2010-06-20T07:17:14Z</time>
      </trkpt>
      <trkpt lat="45.00716" lon="5.60706">
        <ele>1043</ele>
        <time>2010-06-20T07:17:15Z</time>
      </trkpt>
      <trkpt lat="45.00714" lon="5.60705">
        <ele>1043</ele>
        <time>2010-06-20T07:17:17Z</time>
      </trkpt>
      <trkpt lat="45.00713" lon="5.60705">
        <ele>1043</ele>
        <time>2010-06-20T07:17:17Z</time>
      </trkpt>
      <trkpt lat="45.00712" lon="5.60705">
        <ele>1043</ele>
        <time>2010-06-20T07:17:18Z</time>
      </trkpt>
      <trkpt lat="45.00711" lon="5.60703">
        <ele>1044</ele>
        <time>2010-06-20T07:17:19Z</time>
      </trkpt>
      <trkpt lat="45.0071" lon="5.60701">
        <ele>1044</ele>
        <time>2010-06-20T07:17:21Z</time>
      </trkpt>
      <trkpt lat="45.00708" lon="5.60699">
        <ele>1044</ele>
        <time>2010-06-20T07:17:24Z</time>
      </trkpt>
      <trkpt lat="45.00706" lon="5.60698">
        <ele>1044</ele>
        <time>2010-06-20T07:17:26Z</time>
      </trkpt>
      <trkpt lat="45.00705" lon="5.60697">
        <ele>1044</ele>
        <time>2010-06-20T07:17:27Z</time>
      </trkpt>
      <trkpt lat="45.00703" lon="5.60696">
        <ele>1044</ele>
        <time>2010-06-20T07:17:30Z</time>
      </trkpt>
      <trkpt lat="45.00702" lon="5.60694">
        <ele>1044</ele>
        <time>2010-06-20T07:17:30Z</time>
      </trkpt>
      <trkpt lat="45.007" lon="5.60693">
        <ele>1044</ele>
        <time>2010-06-20T07:17:31Z</time>
      </trkpt>
      <trkpt lat="45.00698" lon="5.60693">
        <ele>1044</ele>
        <time>2010-06-20T07:17:33Z</time>
      </trkpt>
      <trkpt lat="45.00697" lon="5.60692">
        <ele>1043</ele>
        <time>2010-06-20T07:17:35Z</time>
      </trkpt>
      <trkpt lat="45.00696" lon="5.60692">
        <ele>1043</ele>
        <time>2010-06-20T07:17:35Z</time>
      </trkpt>
      <trkpt lat="45.00694" lon="5.60691">
        <ele>1043</ele>
        <time>2010-06-20T07:17:37Z</time>
      </trkpt>
      <trkpt lat="45.00692" lon="5.60689">
        <ele>1043</ele>
        <time>2010-06-20T07:17:40Z</time>
      </trkpt>
      <trkpt lat="45.00691" lon="5.60688">
        <ele>1043</ele>
        <time>2010-06-20T07:17:40Z</time>
      </trkpt>
      <trkpt lat="45.00689" lon="5.60687">
        <ele>1043</ele>
        <time>2010-06-20T07:17:41Z</time>
      </trkpt>
      <trkpt lat="45.00688" lon="5.60685">
        <ele>1043</ele>
        <time>2010-06-20T07:17:42Z</time>
      </trkpt>
      <trkpt lat="45.00685" lon="5.60685">
        <ele>1043</ele>
        <time>2010-06-20T07:17:45Z</time>
      </trkpt>
      <trkpt lat="45.00683" lon="5.60685">
        <ele>1043</ele>
        <time>2010-06-20T07:17:45Z</time>
      </trkpt>
      <trkpt lat="45.00681" lon="5.60685">
        <ele>1043</ele>
        <time>2010-06-20T07:17:46Z</time>
      </trkpt>
      <trkpt lat="45.00679" lon="5.60683">
        <ele>1043</ele>
        <time>2010-06-20T07:17:47Z</time>
      </trkpt>
      <trkpt lat="45.00678" lon="5.60681">
        <ele>1044</ele>
        <time>2010-06-20T07:17:50Z</time>
      </trkpt>
      <trkpt lat="45.00676" lon="5.60679">
        <ele>1044</ele>
        <time>2010-06-20T07:17:50Z</time>
      </trkpt>
      <trkpt lat="45.00676" lon="5.60677">
        <ele>1045</ele>
        <time>2010-06-20T07:17:51Z</time>
      </trkpt>
      <trkpt lat="45.00674" lon="5.60674">
        <ele>1045</ele>
        <time>2010-06-20T07:17:52Z</time>
      </trkpt>
      <trkpt lat="45.00673" lon="5.60672">
        <ele>1045</ele>
        <time>2010-06-20T07:17:53Z</time>
      </trkpt>
      <trkpt lat="45.00672" lon="5.6067">
        <ele>1045</ele>
        <time>2010-06-20T07:17:55Z</time>
      </trkpt>
      <trkpt lat="45.00671" lon="5.60669">
        <ele>1046</ele>
        <time>2010-06-20T07:17:55Z</time>
      </trkpt>
      <trkpt lat="45.0067" lon="5.60667">
        <ele>1046</ele>
        <time>2010-06-20T07:17:56Z</time>
      </trkpt>
      <trkpt lat="45.00669" lon="5.60666">
        <ele>1047</ele>
        <time>2010-06-20T07:17:57Z</time>
      </trkpt>
      <trkpt lat="45.00668" lon="5.60665">
        <ele>1047</ele>
        <time>2010-06-20T07:17:59Z</time>
      </trkpt>
      <trkpt lat="45.00666" lon="5.60664">
        <ele>1048</ele>
        <time>2010-06-20T07:18:00Z</time>
      </trkpt>
      <trkpt lat="45.00665" lon="5.60664">
        <ele>1048</ele>
        <time>2010-06-20T07:18:00Z</time>
      </trkpt>
      <trkpt lat="45.00664" lon="5.60663">
        <ele>1049</ele>
        <time>2010-06-20T07:18:01Z</time>
      </trkpt>
      <trkpt lat="45.00662" lon="5.60661">
        <ele>1050</ele>
        <time>2010-06-20T07:18:03Z</time>
      </trkpt>
      <trkpt lat="45.0066" lon="5.6066">
        <ele>1050</ele>
        <time>2010-06-20T07:18:06Z</time>
      </trkpt>
      <trkpt lat="45.00659" lon="5.6066">
        <ele>1050</ele>
        <time>2010-06-20T07:18:06Z</time>
      </trkpt>
      <trkpt lat="45.00657" lon="5.60661">
        <ele>1051</ele>
        <time>2010-06-20T07:18:07Z</time>
      </trkpt>
      <trkpt lat="45.00656" lon="5.6066">
        <ele>1053</ele>
        <time>2010-06-20T07:18:09Z</time>
      </trkpt>
      <trkpt lat="45.00653" lon="5.60657">
        <ele>1055</ele>
        <time>2010-06-20T07:18:12Z</time>
      </trkpt>
      <trkpt lat="45.00652" lon="5.60656">
        <ele>1055</ele>
        <time>2010-06-20T07:18:12Z</time>
      </trkpt>
      <trkpt lat="45.00651" lon="5.60655">
        <ele>1055</ele>
        <time>2010-06-20T07:18:13Z</time>
      </trkpt>
      <trkpt lat="45.00649" lon="5.60655">
        <ele>1056</ele>
        <time>2010-06-20T07:18:14Z</time>
      </trkpt>
      <trkpt lat="45.00647" lon="5.60654">
        <ele>1056</ele>
        <time>2010-06-20T07:18:15Z</time>
      </trkpt>
      <trkpt lat="45.00646" lon="5.60653">
        <ele>1056</ele>
        <time>2010-06-20T07:18:17Z</time>
      </trkpt>
      <trkpt lat="45.00645" lon="5.60652">
        <ele>1056</ele>
        <time>2010-06-20T07:18:17Z</time>
      </trkpt>
      <trkpt lat="45.00643" lon="5.60652">
        <ele>1057</ele>
        <time>2010-06-20T07:18:18Z</time>
      </trkpt>
      <trkpt lat="45.00641" lon="5.60652">
        <ele>1057</ele>
        <time>2010-06-20T07:18:19Z</time>
      </trkpt>
      <trkpt lat="45.00639" lon="5.60651">
        <ele>1057</ele>
        <time>2010-06-20T07:18:20Z</time>
      </trkpt>
      <trkpt lat="45.00638" lon="5.60651">
        <ele>1058</ele>
        <time>2010-06-20T07:18:22Z</time>
      </trkpt>
      <trkpt lat="45.00636" lon="5.60649">
        <ele>1059</ele>
        <time>2010-06-20T07:18:23Z</time>
      </trkpt>
      <trkpt lat="45.00635" lon="5.60648">
        <ele>1060</ele>
        <time>2010-06-20T07:18:24Z</time>
      </trkpt>
      <trkpt lat="45.00633" lon="5.60646">
        <ele>1060</ele>
        <time>2010-06-20T07:18:27Z</time>
      </trkpt>
      <trkpt lat="45.00633" lon="5.60644">
        <ele>1060</ele>
        <time>2010-06-20T07:18:27Z</time>
      </trkpt>
      <trkpt lat="45.00631" lon="5.60643">
        <ele>1061</ele>
        <time>2010-06-20T07:18:28Z</time>
      </trkpt>
      <trkpt lat="45.0063" lon="5.60641">
        <ele>1061</ele>
        <time>2010-06-20T07:18:30Z</time>
      </trkpt>
      <trkpt lat="45.00629" lon="5.60639">
        <ele>1061</ele>
        <time>2010-06-20T07:18:32Z</time>
      </trkpt>
      <trkpt lat="45.00627" lon="5.60639">
        <ele>1061</ele>
        <time>2010-06-20T07:18:32Z</time>
      </trkpt>
      <trkpt lat="45.00627" lon="5.60638">
        <ele>1062</ele>
        <time>2010-06-20T07:18:33Z</time>
      </trkpt>
      <trkpt lat="45.00625" lon="5.60636">
        <ele>1063</ele>
        <time>2010-06-20T07:18:35Z</time>
      </trkpt>
      <trkpt lat="45.00623" lon="5.60635">
        <ele>1063</ele>
        <time>2010-06-20T07:18:36Z</time>
      </trkpt>
      <trkpt lat="45.00622" lon="5.60633">
        <ele>1064</ele>
        <time>2010-06-20T07:18:38Z</time>
      </trkpt>
      <trkpt lat="45.0062" lon="5.60633">
        <ele>1065</ele>
        <time>2010-06-20T07:18:39Z</time>
      </trkpt>
      <trkpt lat="45.00619" lon="5.60632">
        <ele>1065</ele>
        <time>2010-06-20T07:18:40Z</time>
      </trkpt>
      <trkpt lat="45.00617" lon="5.60631">
        <ele>1066</ele>
        <time>2010-06-20T07:18:42Z</time>
      </trkpt>
      <trkpt lat="45.00616" lon="5.60629">
        <ele>1066</ele>
        <time>2010-06-20T07:18:42Z</time>
      </trkpt>
      <trkpt lat="45.00613" lon="5.60628">
        <ele>1067</ele>
        <time>2010-06-20T07:18:43Z</time>
      </trkpt>
      <trkpt lat="45.00611" lon="5.60626">
        <ele>1067</ele>
        <time>2010-06-20T07:18:44Z</time>
      </trkpt>
      <trkpt lat="45.0061" lon="5.60624">
        <ele>1067</ele>
        <time>2010-06-20T07:18:45Z</time>
      </trkpt>
      <trkpt lat="45.00608" lon="5.60623">
        <ele>1067</ele>
        <time>2010-06-20T07:18:47Z</time>
      </trkpt>
      <trkpt lat="45.00606" lon="5.60621">
        <ele>1067</ele>
        <time>2010-06-20T07:18:47Z</time>
      </trkpt>
      <trkpt lat="45.00604" lon="5.60619">
        <ele>1067</ele>
        <time>2010-06-20T07:18:48Z</time>
      </trkpt>
      <trkpt lat="45.00603" lon="5.60618">
        <ele>1067</ele>
        <time>2010-06-20T07:18:49Z</time>
      </trkpt>
      <trkpt lat="45.00601" lon="5.60616">
        <ele>1067</ele>
        <time>2010-06-20T07:18:50Z</time>
      </trkpt>
      <trkpt lat="45.006" lon="5.60614">
        <ele>1067</ele>
        <time>2010-06-20T07:18:52Z</time>
      </trkpt>
      <trkpt lat="45.00598" lon="5.60611">
        <ele>1067</ele>
        <time>2010-06-20T07:18:52Z</time>
      </trkpt>
      <trkpt lat="45.00596" lon="5.6061">
        <ele>1067</ele>
        <time>2010-06-20T07:18:53Z</time>
      </trkpt>
      <trkpt lat="45.00594" lon="5.60608">
        <ele>1067</ele>
        <time>2010-06-20T07:18:54Z</time>
      </trkpt>
      <trkpt lat="45.00591" lon="5.60607">
        <ele>1067</ele>
        <time>2010-06-20T07:18:55Z</time>
      </trkpt>
      <trkpt lat="45.00589" lon="5.60605">
        <ele>1067</ele>
        <time>2010-06-20T07:18:57Z</time>
      </trkpt>
      <trkpt lat="45.00586" lon="5.60603">
        <ele>1067</ele>
        <time>2010-06-20T07:18:57Z</time>
      </trkpt>
      <trkpt lat="45.00584" lon="5.60601">
        <ele>1067</ele>
        <time>2010-06-20T07:18:58Z</time>
      </trkpt>
      <trkpt lat="45.00583" lon="5.60599">
        <ele>1067</ele>
        <time>2010-06-20T07:18:59Z</time>
      </trkpt>
      <trkpt lat="45.00581" lon="5.60597">
        <ele>1067</ele>
        <time>2010-06-20T07:19:00Z</time>
      </trkpt>
      <trkpt lat="45.00579" lon="5.60593">
        <ele>1067</ele>
        <time>2010-06-20T07:19:02Z</time>
      </trkpt>
      <trkpt lat="45.00576" lon="5.6059">
        <ele>1067</ele>
        <time>2010-06-20T07:19:02Z</time>
      </trkpt>
      <trkpt lat="45.00574" lon="5.60585">
        <ele>1067</ele>
        <time>2010-06-20T07:19:03Z</time>
      </trkpt>
      <trkpt lat="45.00572" lon="5.60582">
        <ele>1067</ele>
        <time>2010-06-20T07:19:04Z</time>
      </trkpt>
      <trkpt lat="45.0057" lon="5.60577">
        <ele>1067</ele>
        <time>2010-06-20T07:19:05Z</time>
      </trkpt>
      <trkpt lat="45.00568" lon="5.60573">
        <ele>1067</ele>
        <time>2010-06-20T07:19:07Z</time>
      </trkpt>
      <trkpt lat="45.00567" lon="5.6057">
        <ele>1067</ele>
        <time>2010-06-20T07:19:07Z</time>
      </trkpt>
      <trkpt lat="45.00565" lon="5.60567">
        <ele>1067</ele>
        <time>2010-06-20T07:19:08Z</time>
      </trkpt>
      <trkpt lat="45.00564" lon="5.60564">
        <ele>1067</ele>
        <time>2010-06-20T07:19:09Z</time>
      </trkpt>
      <trkpt lat="45.00562" lon="5.60561">
        <ele>1067</ele>
        <time>2010-06-20T07:19:10Z</time>
      </trkpt>
      <trkpt lat="45.00561" lon="5.60558">
        <ele>1067</ele>
        <time>2010-06-20T07:19:12Z</time>
      </trkpt>
      <trkpt lat="45.0056" lon="5.60554">
        <ele>1067</ele>
        <time>2010-06-20T07:19:12Z</time>
      </trkpt>
      <trkpt lat="45.00559" lon="5.60551">
        <ele>1067</ele>
        <time>2010-06-20T07:19:13Z</time>
      </trkpt>
      <trkpt lat="45.00559" lon="5.60549">
        <ele>1067</ele>
        <time>2010-06-20T07:19:14Z</time>
      </trkpt>
      <trkpt lat="45.00557" lon="5.60546">
        <ele>1067</ele>
        <time>2010-06-20T07:19:15Z</time>
      </trkpt>
      <trkpt lat="45.00555" lon="5.60543">
        <ele>1067</ele>
        <time>2010-06-20T07:19:16Z</time>
      </trkpt>
      <trkpt lat="45.00554" lon="5.60541">
        <ele>1067</ele>
        <time>2010-06-20T07:19:17Z</time>
      </trkpt>
      <trkpt lat="45.00553" lon="5.60538">
        <ele>1067</ele>
        <time>2010-06-20T07:19:18Z</time>
      </trkpt>
      <trkpt lat="45.00552" lon="5.60534">
        <ele>1067</ele>
        <time>2010-06-20T07:19:19Z</time>
      </trkpt>
      <trkpt lat="45.00551" lon="5.6053">
        <ele>1067</ele>
        <time>2010-06-20T07:19:20Z</time>
      </trkpt>
      <trkpt lat="45.00551" lon="5.60528">
        <ele>1067</ele>
        <time>2010-06-20T07:19:22Z</time>
      </trkpt>
      <trkpt lat="45.00552" lon="5.60525">
        <ele>1068</ele>
        <time>2010-06-20T07:19:23Z</time>
      </trkpt>
      <trkpt lat="45.00552" lon="5.60523">
        <ele>1069</ele>
        <time>2010-06-20T07:19:24Z</time>
      </trkpt>
      <trkpt lat="45.00553" lon="5.6052">
        <ele>1069</ele>
        <time>2010-06-20T07:19:25Z</time>
      </trkpt>
      <trkpt lat="45.00552" lon="5.60517">
        <ele>1069</ele>
        <time>2010-06-20T07:19:27Z</time>
      </trkpt>
      <trkpt lat="45.00552" lon="5.60515">
        <ele>1069</ele>
        <time>2010-06-20T07:19:27Z</time>
      </trkpt>
      <trkpt lat="45.00553" lon="5.60512">
        <ele>1070</ele>
        <time>2010-06-20T07:19:29Z</time>
      </trkpt>
      <trkpt lat="45.00553" lon="5.60511">
        <ele>1071</ele>
        <time>2010-06-20T07:19:30Z</time>
      </trkpt>
      <trkpt lat="45.00553" lon="5.60508">
        <ele>1072</ele>
        <time>2010-06-20T07:19:32Z</time>
      </trkpt>
      <trkpt lat="45.00553" lon="5.60506">
        <ele>1073</ele>
        <time>2010-06-20T07:19:32Z</time>
      </trkpt>
      <trkpt lat="45.00553" lon="5.60504">
        <ele>1074</ele>
        <time>2010-06-20T07:19:33Z</time>
      </trkpt>
      <trkpt lat="45.00554" lon="5.60502">
        <ele>1074</ele>
        <time>2010-06-20T07:19:34Z</time>
      </trkpt>
      <trkpt lat="45.00554" lon="5.605">
        <ele>1074</ele>
        <time>2010-06-20T07:19:35Z</time>
      </trkpt>
      <trkpt lat="45.00554" lon="5.60498">
        <ele>1074</ele>
        <time>2010-06-20T07:19:37Z</time>
      </trkpt>
      <trkpt lat="45.00553" lon="5.60496">
        <ele>1074</ele>
        <time>2010-06-20T07:19:38Z</time>
      </trkpt>
      <trkpt lat="45.00552" lon="5.60494">
        <ele>1075</ele>
        <time>2010-06-20T07:19:40Z</time>
      </trkpt>
      <trkpt lat="45.00552" lon="5.60492">
        <ele>1075</ele>
        <time>2010-06-20T07:19:43Z</time>
      </trkpt>
      <trkpt lat="45.00551" lon="5.60489">
        <ele>1075</ele>
        <time>2010-06-20T07:19:44Z</time>
      </trkpt>
      <trkpt lat="45.0055" lon="5.60488">
        <ele>1076</ele>
        <time>2010-06-20T07:19:45Z</time>
      </trkpt>
      <trkpt lat="45.0055" lon="5.60485">
        <ele>1076</ele>
        <time>2010-06-20T07:19:48Z</time>
      </trkpt>
      <trkpt lat="45.00549" lon="5.60483">
        <ele>1077</ele>
        <time>2010-06-20T07:19:49Z</time>
      </trkpt>
      <trkpt lat="45.00547" lon="5.6048">
        <ele>1079</ele>
        <time>2010-06-20T07:19:53Z</time>
      </trkpt>
      <trkpt lat="45.00547" lon="5.60479">
        <ele>1080</ele>
        <time>2010-06-20T07:19:54Z</time>
      </trkpt>
      <trkpt lat="45.00547" lon="5.60477">
        <ele>1081</ele>
        <time>2010-06-20T07:19:55Z</time>
      </trkpt>
      <trkpt lat="45.00547" lon="5.60476">
        <ele>1082</ele>
        <time>2010-06-20T07:19:56Z</time>
      </trkpt>
      <trkpt lat="45.00546" lon="5.60474">
        <ele>1083</ele>
        <time>2010-06-20T07:19:58Z</time>
      </trkpt>
      <trkpt lat="45.00546" lon="5.60472">
        <ele>1084</ele>
        <time>2010-06-20T07:19:58Z</time>
      </trkpt>
      <trkpt lat="45.00545" lon="5.6047">
        <ele>1085</ele>
        <time>2010-06-20T07:19:59Z</time>
      </trkpt>
      <trkpt lat="45.00545" lon="5.60468">
        <ele>1086</ele>
        <time>2010-06-20T07:20:00Z</time>
      </trkpt>
      <trkpt lat="45.00544" lon="5.60466">
        <ele>1087</ele>
        <time>2010-06-20T07:20:03Z</time>
      </trkpt>
      <trkpt lat="45.00542" lon="5.60464">
        <ele>1089</ele>
        <time>2010-06-20T07:20:04Z</time>
      </trkpt>
      <trkpt lat="45.00542" lon="5.60461">
        <ele>1089</ele>
        <time>2010-06-20T07:20:05Z</time>
      </trkpt>
      <trkpt lat="45.00541" lon="5.60459">
        <ele>1089</ele>
        <time>2010-06-20T07:20:08Z</time>
      </trkpt>
      <trkpt lat="45.00539" lon="5.60458">
        <ele>1089</ele>
        <time>2010-06-20T07:20:08Z</time>
      </trkpt>
      <trkpt lat="45.00538" lon="5.60456">
        <ele>1089</ele>
        <time>2010-06-20T07:20:09Z</time>
      </trkpt>
      <trkpt lat="45.00537" lon="5.60454">
        <ele>1089</ele>
        <time>2010-06-20T07:20:10Z</time>
      </trkpt>
      <trkpt lat="45.00536" lon="5.60452">
        <ele>1089</ele>
        <time>2010-06-20T07:20:11Z</time>
      </trkpt>
      <trkpt lat="45.00535" lon="5.60452">
        <ele>1090</ele>
        <time>2010-06-20T07:20:12Z</time>
      </trkpt>
      <trkpt lat="45.00534" lon="5.6045">
        <ele>1090</ele>
        <time>2010-06-20T07:20:13Z</time>
      </trkpt>
      <trkpt lat="45.00533" lon="5.60447">
        <ele>1091</ele>
        <time>2010-06-20T07:20:14Z</time>
      </trkpt>
      <trkpt lat="45.00532" lon="5.60445">
        <ele>1091</ele>
        <time>2010-06-20T07:20:15Z</time>
      </trkpt>
      <trkpt lat="45.00531" lon="5.60442">
        <ele>1091</ele>
        <time>2010-06-20T07:20:16Z</time>
      </trkpt>
      <trkpt lat="45.00529" lon="5.60439">
        <ele>1091</ele>
        <time>2010-06-20T07:20:17Z</time>
      </trkpt>
      <trkpt lat="45.00528" lon="5.60437">
        <ele>1091</ele>
        <time>2010-06-20T07:20:18Z</time>
      </trkpt>
      <trkpt lat="45.00527" lon="5.60436">
        <ele>1091</ele>
        <time>2010-06-20T07:20:19Z</time>
      </trkpt>
      <trkpt lat="45.00526" lon="5.60434">
        <ele>1091</ele>
        <time>2010-06-20T07:20:20Z</time>
      </trkpt>
      <trkpt lat="45.00525" lon="5.60432">
        <ele>1091</ele>
        <time>2010-06-20T07:20:21Z</time>
      </trkpt>
      <trkpt lat="45.00524" lon="5.6043">
        <ele>1091</ele>
        <time>2010-06-20T07:20:24Z</time>
      </trkpt>
      <trkpt lat="45.00523" lon="5.60429">
        <ele>1091</ele>
        <time>2010-06-20T07:20:24Z</time>
      </trkpt>
      <trkpt lat="45.00521" lon="5.60426">
        <ele>1091</ele>
        <time>2010-06-20T07:20:26Z</time>
      </trkpt>
      <trkpt lat="45.0052" lon="5.60425">
        <ele>1091</ele>
        <time>2010-06-20T07:20:27Z</time>
      </trkpt>
      <trkpt lat="45.00519" lon="5.60422">
        <ele>1091</ele>
        <time>2010-06-20T07:20:30Z</time>
      </trkpt>
      <trkpt lat="45.00518" lon="5.6042">
        <ele>1091</ele>
        <time>2010-06-20T07:20:31Z</time>
      </trkpt>
      <trkpt lat="45.00517" lon="5.60418">
        <ele>1091</ele>
        <time>2010-06-20T07:20:32Z</time>
      </trkpt>
      <trkpt lat="45.00517" lon="5.60416">
        <ele>1091</ele>
        <time>2010-06-20T07:20:33Z</time>
      </trkpt>
      <trkpt lat="45.00516" lon="5.60415">
        <ele>1092</ele>
        <time>2010-06-20T07:20:35Z</time>
      </trkpt>
      <trkpt lat="45.00516" lon="5.60413">
        <ele>1092</ele>
        <time>2010-06-20T07:20:35Z</time>
      </trkpt>
      <trkpt lat="45.00515" lon="5.60411">
        <ele>1092</ele>
        <time>2010-06-20T07:20:36Z</time>
      </trkpt>
      <trkpt lat="45.00514" lon="5.60408">
        <ele>1092</ele>
        <time>2010-06-20T07:20:38Z</time>
      </trkpt>
      <trkpt lat="45.00512" lon="5.60407">
        <ele>1092</ele>
        <time>2010-06-20T07:20:40Z</time>
      </trkpt>
      <trkpt lat="45.00509" lon="5.60405">
        <ele>1092</ele>
        <time>2010-06-20T07:20:42Z</time>
      </trkpt>
      <trkpt lat="45.00508" lon="5.60404">
        <ele>1092</ele>
        <time>2010-06-20T07:20:43Z</time>
      </trkpt>
      <trkpt lat="45.00507" lon="5.60402">
        <ele>1093</ele>
        <time>2010-06-20T07:20:44Z</time>
      </trkpt>
      <trkpt lat="45.00506" lon="5.604">
        <ele>1094</ele>
        <time>2010-06-20T07:20:47Z</time>
      </trkpt>
      <trkpt lat="45.00506" lon="5.60397">
        <ele>1095</ele>
        <time>2010-06-20T07:20:48Z</time>
      </trkpt>
      <trkpt lat="45.00505" lon="5.60396">
        <ele>1095</ele>
        <time>2010-06-20T07:20:49Z</time>
      </trkpt>
      <trkpt lat="45.00504" lon="5.60394">
        <ele>1095</ele>
        <time>2010-06-20T07:20:52Z</time>
      </trkpt>
      <trkpt lat="45.00502" lon="5.60392">
        <ele>1095</ele>
        <time>2010-06-20T07:20:52Z</time>
      </trkpt>
      <trkpt lat="45.00501" lon="5.6039">
        <ele>1095</ele>
        <time>2010-06-20T07:20:53Z</time>
      </trkpt>
      <trkpt lat="45.00501" lon="5.60389">
        <ele>1095</ele>
        <time>2010-06-20T07:20:54Z</time>
      </trkpt>
      <trkpt lat="45.00501" lon="5.60387">
        <ele>1095</ele>
        <time>2010-06-20T07:20:55Z</time>
      </trkpt>
      <trkpt lat="45.00499" lon="5.60386">
        <ele>1096</ele>
        <time>2010-06-20T07:20:56Z</time>
      </trkpt>
      <trkpt lat="45.00497" lon="5.60385">
        <ele>1096</ele>
        <time>2010-06-20T07:20:58Z</time>
      </trkpt>
      <trkpt lat="45.00496" lon="5.60383">
        <ele>1097</ele>
        <time>2010-06-20T07:20:59Z</time>
      </trkpt>
      <trkpt lat="45.00495" lon="5.60381">
        <ele>1099</ele>
        <time>2010-06-20T07:21:01Z</time>
      </trkpt>
      <trkpt lat="45.00493" lon="5.60379">
        <ele>1100</ele>
        <time>2010-06-20T07:21:03Z</time>
      </trkpt>
      <trkpt lat="45.00492" lon="5.60376">
        <ele>1102</ele>
        <time>2010-06-20T07:21:05Z</time>
      </trkpt>
      <trkpt lat="45.00492" lon="5.60374">
        <ele>1103</ele>
        <time>2010-06-20T07:21:07Z</time>
      </trkpt>
      <trkpt lat="45.00491" lon="5.60372">
        <ele>1103</ele>
        <time>2010-06-20T07:21:07Z</time>
      </trkpt>
      <trkpt lat="45.00489" lon="5.60371">
        <ele>1104</ele>
        <time>2010-06-20T07:21:08Z</time>
      </trkpt>
      <trkpt lat="45.00489" lon="5.60369">
        <ele>1104</ele>
        <time>2010-06-20T07:21:09Z</time>
      </trkpt>
      <trkpt lat="45.00487" lon="5.60367">
        <ele>1105</ele>
        <time>2010-06-20T07:21:11Z</time>
      </trkpt>
      <trkpt lat="45.00486" lon="5.60365">
        <ele>1106</ele>
        <time>2010-06-20T07:21:12Z</time>
      </trkpt>
      <trkpt lat="45.00485" lon="5.60364">
        <ele>1106</ele>
        <time>2010-06-20T07:21:13Z</time>
      </trkpt>
      <trkpt lat="45.00484" lon="5.60362">
        <ele>1107</ele>
        <time>2010-06-20T07:21:14Z</time>
      </trkpt>
      <trkpt lat="45.00482" lon="5.6036">
        <ele>1108</ele>
        <time>2010-06-20T07:21:16Z</time>
      </trkpt>
      <trkpt lat="45.0048" lon="5.60357">
        <ele>1109</ele>
        <time>2010-06-20T07:21:18Z</time>
      </trkpt>
      <trkpt lat="45.00479" lon="5.60355">
        <ele>1110</ele>
        <time>2010-06-20T07:21:20Z</time>
      </trkpt>
      <trkpt lat="45.00478" lon="5.60354">
        <ele>1111</ele>
        <time>2010-06-20T07:21:21Z</time>
      </trkpt>
      <trkpt lat="45.00477" lon="5.60352">
        <ele>1113</ele>
        <time>2010-06-20T07:21:23Z</time>
      </trkpt>
      <trkpt lat="45.00476" lon="5.6035">
        <ele>1114</ele>
        <time>2010-06-20T07:21:24Z</time>
      </trkpt>
      <trkpt lat="45.00475" lon="5.60348">
        <ele>1115</ele>
        <time>2010-06-20T07:21:25Z</time>
      </trkpt>
      <trkpt lat="45.00474" lon="5.60346">
        <ele>1116</ele>
        <time>2010-06-20T07:21:27Z</time>
      </trkpt>
      <trkpt lat="45.00472" lon="5.60344">
        <ele>1116</ele>
        <time>2010-06-20T07:21:28Z</time>
      </trkpt>
      <trkpt lat="45.00472" lon="5.60341">
        <ele>1116</ele>
        <time>2010-06-20T07:21:30Z</time>
      </trkpt>
      <trkpt lat="45.0047" lon="5.60338">
        <ele>1116</ele>
        <time>2010-06-20T07:21:32Z</time>
      </trkpt>
      <trkpt lat="45.00469" lon="5.60337">
        <ele>1116</ele>
        <time>2010-06-20T07:21:33Z</time>
      </trkpt>
      <trkpt lat="45.00468" lon="5.60335">
        <ele>1116</ele>
        <time>2010-06-20T07:21:35Z</time>
      </trkpt>
      <trkpt lat="45.00467" lon="5.60333">
        <ele>1116</ele>
        <time>2010-06-20T07:21:36Z</time>
      </trkpt>
      <trkpt lat="45.00467" lon="5.60331">
        <ele>1116</ele>
        <time>2010-06-20T07:21:38Z</time>
      </trkpt>
      <trkpt lat="45.00466" lon="5.60329">
        <ele>1116</ele>
        <time>2010-06-20T07:21:38Z</time>
      </trkpt>
      <trkpt lat="45.00465" lon="5.60328">
        <ele>1116</ele>
        <time>2010-06-20T07:21:39Z</time>
      </trkpt>
      <trkpt lat="45.00463" lon="5.60326">
        <ele>1116</ele>
        <time>2010-06-20T07:21:41Z</time>
      </trkpt>
      <trkpt lat="45.00462" lon="5.60324">
        <ele>1118</ele>
        <time>2010-06-20T07:21:44Z</time>
      </trkpt>
      <trkpt lat="45.00462" lon="5.60321">
        <ele>1118</ele>
        <time>2010-06-20T07:21:45Z</time>
      </trkpt>
      <trkpt lat="45.00461" lon="5.6032">
        <ele>1118</ele>
        <time>2010-06-20T07:21:46Z</time>
      </trkpt>
      <trkpt lat="45.00459" lon="5.60319">
        <ele>1118</ele>
        <time>2010-06-20T07:21:48Z</time>
      </trkpt>
      <trkpt lat="45.00457" lon="5.60317">
        <ele>1118</ele>
        <time>2010-06-20T07:21:51Z</time>
      </trkpt>
      <trkpt lat="45.00456" lon="5.60314">
        <ele>1118</ele>
        <time>2010-06-20T07:21:53Z</time>
      </trkpt>
      <trkpt lat="45.00456" lon="5.60312">
        <ele>1119</ele>
        <time>2010-06-20T07:21:54Z</time>
      </trkpt>
      <trkpt lat="45.00455" lon="5.60309">
        <ele>1119</ele>
        <time>2010-06-20T07:21:56Z</time>
      </trkpt>
      <trkpt lat="45.00453" lon="5.60307">
        <ele>1119</ele>
        <time>2010-06-20T07:21:59Z</time>
      </trkpt>
      <trkpt lat="45.00452" lon="5.60306">
        <ele>1119</ele>
        <time>2010-06-20T07:21:59Z</time>
      </trkpt>
      <trkpt lat="45.00451" lon="5.60304">
        <ele>1120</ele>
        <time>2010-06-20T07:22:01Z</time>
      </trkpt>
      <trkpt lat="45.00449" lon="5.60301">
        <ele>1121</ele>
        <time>2010-06-20T07:22:03Z</time>
      </trkpt>
      <trkpt lat="45.00448" lon="5.60299">
        <ele>1122</ele>
        <time>2010-06-20T07:22:05Z</time>
      </trkpt>
      <trkpt lat="45.00448" lon="5.60297">
        <ele>1122</ele>
        <time>2010-06-20T07:22:07Z</time>
      </trkpt>
      <trkpt lat="45.00448" lon="5.60295">
        <ele>1122</ele>
        <time>2010-06-20T07:22:08Z</time>
      </trkpt>
      <trkpt lat="45.00447" lon="5.60294">
        <ele>1122</ele>
        <time>2010-06-20T07:22:09Z</time>
      </trkpt>
      <trkpt lat="45.00446" lon="5.60292">
        <ele>1122</ele>
        <time>2010-06-20T07:22:10Z</time>
      </trkpt>
      <trkpt lat="45.00446" lon="5.6029">
        <ele>1122</ele>
        <time>2010-06-20T07:22:11Z</time>
      </trkpt>
      <trkpt lat="45.00444" lon="5.60288">
        <ele>1122</ele>
        <time>2010-06-20T07:22:13Z</time>
      </trkpt>
      <trkpt lat="45.00443" lon="5.60286">
        <ele>1122</ele>
        <time>2010-06-20T07:22:15Z</time>
      </trkpt>
      <trkpt lat="45.00443" lon="5.60284">
        <ele>1122</ele>
        <time>2010-06-20T07:22:16Z</time>
      </trkpt>
      <trkpt lat="45.00442" lon="5.60282">
        <ele>1122</ele>
        <time>2010-06-20T07:22:17Z</time>
      </trkpt>
      <trkpt lat="45.00442" lon="5.6028">
        <ele>1122</ele>
        <time>2010-06-20T07:22:18Z</time>
      </trkpt>
      <trkpt lat="45.00441" lon="5.60279">
        <ele>1122</ele>
        <time>2010-06-20T07:22:19Z</time>
      </trkpt>
      <trkpt lat="45.0044" lon="5.60277">
        <ele>1122</ele>
        <time>2010-06-20T07:22:21Z</time>
      </trkpt>
      <trkpt lat="45.0044" lon="5.60274">
        <ele>1122</ele>
        <time>2010-06-20T07:22:23Z</time>
      </trkpt>
      <trkpt lat="45.00439" lon="5.60273">
        <ele>1122</ele>
        <time>2010-06-20T07:22:26Z</time>
      </trkpt>
      <trkpt lat="45.00439" lon="5.60271">
        <ele>1122</ele>
        <time>2010-06-20T07:22:27Z</time>
      </trkpt>
      <trkpt lat="45.00439" lon="5.60269">
        <ele>1122</ele>
        <time>2010-06-20T07:22:28Z</time>
      </trkpt>
      <trkpt lat="45.00438" lon="5.60267">
        <ele>1122</ele>
        <time>2010-06-20T07:22:30Z</time>
      </trkpt>
      <trkpt lat="45.00438" lon="5.60265">
        <ele>1122</ele>
        <time>2010-06-20T07:22:31Z</time>
      </trkpt>
      <trkpt lat="45.00438" lon="5.60262">
        <ele>1122</ele>
        <time>2010-06-20T07:22:32Z</time>
      </trkpt>
      <trkpt lat="45.00437" lon="5.6026">
        <ele>1122</ele>
        <time>2010-06-20T07:22:34Z</time>
      </trkpt>
      <trkpt lat="45.00437" lon="5.60258">
        <ele>1122</ele>
        <time>2010-06-20T07:22:34Z</time>
      </trkpt>
      <trkpt lat="45.00437" lon="5.60256">
        <ele>1122</ele>
        <time>2010-06-20T07:22:35Z</time>
      </trkpt>
      <trkpt lat="45.00436" lon="5.60254">
        <ele>1122</ele>
        <time>2010-06-20T07:22:36Z</time>
      </trkpt>
      <trkpt lat="45.00436" lon="5.60252">
        <ele>1122</ele>
        <time>2010-06-20T07:22:37Z</time>
      </trkpt>
      <trkpt lat="45.00435" lon="5.60251">
        <ele>1122</ele>
        <time>2010-06-20T07:22:38Z</time>
      </trkpt>
      <trkpt lat="45.00435" lon="5.60249">
        <ele>1122</ele>
        <time>2010-06-20T07:22:39Z</time>
      </trkpt>
      <trkpt lat="45.00435" lon="5.60247">
        <ele>1122</ele>
        <time>2010-06-20T07:22:40Z</time>
      </trkpt>
      <trkpt lat="45.00434" lon="5.60244">
        <ele>1122</ele>
        <time>2010-06-20T07:22:42Z</time>
      </trkpt>
      <trkpt lat="45.00435" lon="5.60241">
        <ele>1122</ele>
        <time>2010-06-20T07:22:44Z</time>
      </trkpt>
      <trkpt lat="45.00434" lon="5.60239">
        <ele>1122</ele>
        <time>2010-06-20T07:22:46Z</time>
      </trkpt>
      <trkpt lat="45.00433" lon="5.60237">
        <ele>1123</ele>
        <time>2010-06-20T07:22:47Z</time>
      </trkpt>
      <trkpt lat="45.00433" lon="5.60235">
        <ele>1123</ele>
        <time>2010-06-20T07:22:48Z</time>
      </trkpt>
      <trkpt lat="45.00432" lon="5.60233">
        <ele>1123</ele>
        <time>2010-06-20T07:22:49Z</time>
      </trkpt>
      <trkpt lat="45.00431" lon="5.60232">
        <ele>1123</ele>
        <time>2010-06-20T07:22:50Z</time>
      </trkpt>
      <trkpt lat="45.0043" lon="5.60228">
        <ele>1124</ele>
        <time>2010-06-20T07:22:52Z</time>
      </trkpt>
      <trkpt lat="45.00429" lon="5.60225">
        <ele>1125</ele>
        <time>2010-06-20T07:22:53Z</time>
      </trkpt>
      <trkpt lat="45.00428" lon="5.60223">
        <ele>1125</ele>
        <time>2010-06-20T07:22:54Z</time>
      </trkpt>
      <trkpt lat="45.00428" lon="5.60221">
        <ele>1126</ele>
        <time>2010-06-20T07:22:55Z</time>
      </trkpt>
      <trkpt lat="45.00427" lon="5.60219">
        <ele>1126</ele>
        <time>2010-06-20T07:22:56Z</time>
      </trkpt>
      <trkpt lat="45.00426" lon="5.60217">
        <ele>1127</ele>
        <time>2010-06-20T07:22:58Z</time>
      </trkpt>
      <trkpt lat="45.00425" lon="5.60216">
        <ele>1128</ele>
        <time>2010-06-20T07:22:59Z</time>
      </trkpt>
      <trkpt lat="45.00423" lon="5.60215">
        <ele>1128</ele>
        <time>2010-06-20T07:23:00Z</time>
      </trkpt>
      <trkpt lat="45.00422" lon="5.60213">
        <ele>1129</ele>
        <time>2010-06-20T07:23:01Z</time>
      </trkpt>
      <trkpt lat="45.0042" lon="5.60211">
        <ele>1130</ele>
        <time>2010-06-20T07:23:02Z</time>
      </trkpt>
      <trkpt lat="45.00419" lon="5.6021">
        <ele>1130</ele>
        <time>2010-06-20T07:23:03Z</time>
      </trkpt>
      <trkpt lat="45.00417" lon="5.60209">
        <ele>1130</ele>
        <time>2010-06-20T07:23:04Z</time>
      </trkpt>
      <trkpt lat="45.00415" lon="5.60208">
        <ele>1130</ele>
        <time>2010-06-20T07:23:05Z</time>
      </trkpt>
      <trkpt lat="45.00413" lon="5.60207">
        <ele>1131</ele>
        <time>2010-06-20T07:23:06Z</time>
      </trkpt>
      <trkpt lat="45.00411" lon="5.60206">
        <ele>1131</ele>
        <time>2010-06-20T07:23:07Z</time>
      </trkpt>
      <trkpt lat="45.00409" lon="5.60204">
        <ele>1131</ele>
        <time>2010-06-20T07:23:08Z</time>
      </trkpt>
      <trkpt lat="45.00407" lon="5.60202">
        <ele>1131</ele>
        <time>2010-06-20T07:23:09Z</time>
      </trkpt>
      <trkpt lat="45.00406" lon="5.60199">
        <ele>1132</ele>
        <time>2010-06-20T07:23:10Z</time>
      </trkpt>
      <trkpt lat="45.00405" lon="5.60197">
        <ele>1132</ele>
        <time>2010-06-20T07:23:11Z</time>
      </trkpt>
      <trkpt lat="45.00403" lon="5.60194">
        <ele>1132</ele>
        <time>2010-06-20T07:23:12Z</time>
      </trkpt>
      <trkpt lat="45.00401" lon="5.60192">
        <ele>1132</ele>
        <time>2010-06-20T07:23:13Z</time>
      </trkpt>
      <trkpt lat="45.004" lon="5.6019">
        <ele>1133</ele>
        <time>2010-06-20T07:23:14Z</time>
      </trkpt>
      <trkpt lat="45.00398" lon="5.60188">
        <ele>1133</ele>
        <time>2010-06-20T07:23:15Z</time>
      </trkpt>
      <trkpt lat="45.00397" lon="5.60186">
        <ele>1133</ele>
        <time>2010-06-20T07:23:16Z</time>
      </trkpt>
      <trkpt lat="45.00395" lon="5.60183">
        <ele>1133</ele>
        <time>2010-06-20T07:23:17Z</time>
      </trkpt>
      <trkpt lat="45.00393" lon="5.60181">
        <ele>1133</ele>
        <time>2010-06-20T07:23:18Z</time>
      </trkpt>
      <trkpt lat="45.00391" lon="5.60179">
        <ele>1133</ele>
        <time>2010-06-20T07:23:19Z</time>
      </trkpt>
      <trkpt lat="45.00389" lon="5.60179">
        <ele>1133</ele>
        <time>2010-06-20T07:23:20Z</time>
      </trkpt>
      <trkpt lat="45.00387" lon="5.60177">
        <ele>1133</ele>
        <time>2010-06-20T07:23:21Z</time>
      </trkpt>
      <trkpt lat="45.00385" lon="5.60175">
        <ele>1133</ele>
        <time>2010-06-20T07:23:22Z</time>
      </trkpt>
      <trkpt lat="45.00384" lon="5.60173">
        <ele>1134</ele>
        <time>2010-06-20T07:23:23Z</time>
      </trkpt>
      <trkpt lat="45.00382" lon="5.60171">
        <ele>1134</ele>
        <time>2010-06-20T07:23:24Z</time>
      </trkpt>
      <trkpt lat="45.00381" lon="5.60169">
        <ele>1134</ele>
        <time>2010-06-20T07:23:25Z</time>
      </trkpt>
      <trkpt lat="45.00379" lon="5.60167">
        <ele>1135</ele>
        <time>2010-06-20T07:23:26Z</time>
      </trkpt>
      <trkpt lat="45.00378" lon="5.60166">
        <ele>1135</ele>
        <time>2010-06-20T07:23:27Z</time>
      </trkpt>
      <trkpt lat="45.00376" lon="5.60164">
        <ele>1135</ele>
        <time>2010-06-20T07:23:28Z</time>
      </trkpt>
      <trkpt lat="45.00375" lon="5.60163">
        <ele>1135</ele>
        <time>2010-06-20T07:23:29Z</time>
      </trkpt>
      <trkpt lat="45.00373" lon="5.60162">
        <ele>1135</ele>
        <time>2010-06-20T07:23:30Z</time>
      </trkpt>
      <trkpt lat="45.00371" lon="5.6016">
        <ele>1135</ele>
        <time>2010-06-20T07:23:31Z</time>
      </trkpt>
      <trkpt lat="45.0037" lon="5.60158">
        <ele>1135</ele>
        <time>2010-06-20T07:23:32Z</time>
      </trkpt>
      <trkpt lat="45.00368" lon="5.60157">
        <ele>1135</ele>
        <time>2010-06-20T07:23:33Z</time>
      </trkpt>
      <trkpt lat="45.00367" lon="5.60156">
        <ele>1135</ele>
        <time>2010-06-20T07:23:34Z</time>
      </trkpt>
      <trkpt lat="45.00365" lon="5.60154">
        <ele>1135</ele>
        <time>2010-06-20T07:23:35Z</time>
      </trkpt>
      <trkpt lat="45.00364" lon="5.60153">
        <ele>1135</ele>
        <time>2010-06-20T07:23:36Z</time>
      </trkpt>
      <trkpt lat="45.00362" lon="5.60151">
        <ele>1135</ele>
        <time>2010-06-20T07:23:37Z</time>
      </trkpt>
      <trkpt lat="45.00361" lon="5.6015">
        <ele>1135</ele>
        <time>2010-06-20T07:23:38Z</time>
      </trkpt>
      <trkpt lat="45.00359" lon="5.60148">
        <ele>1135</ele>
        <time>2010-06-20T07:23:39Z</time>
      </trkpt>
      <trkpt lat="45.00358" lon="5.60147">
        <ele>1135</ele>
        <time>2010-06-20T07:23:40Z</time>
      </trkpt>
      <trkpt lat="45.00356" lon="5.60145">
        <ele>1135</ele>
        <time>2010-06-20T07:23:41Z</time>
      </trkpt>
      <trkpt lat="45.00355" lon="5.60143">
        <ele>1135</ele>
        <time>2010-06-20T07:23:42Z</time>
      </trkpt>
      <trkpt lat="45.00354" lon="5.60141">
        <ele>1135</ele>
        <time>2010-06-20T07:23:43Z</time>
      </trkpt>
      <trkpt lat="45.00352" lon="5.60139">
        <ele>1135</ele>
        <time>2010-06-20T07:23:44Z</time>
      </trkpt>
      <trkpt lat="45.00351" lon="5.60137">
        <ele>1135</ele>
        <time>2010-06-20T07:23:45Z</time>
      </trkpt>
      <trkpt lat="45.00349" lon="5.60135">
        <ele>1135</ele>
        <time>2010-06-20T07:23:46Z</time>
      </trkpt>
      <trkpt lat="45.00347" lon="5.60134">
        <ele>1136</ele>
        <time>2010-06-20T07:23:47Z</time>
      </trkpt>
      <trkpt lat="45.00347" lon="5.60133">
        <ele>1136</ele>
        <time>2010-06-20T07:23:48Z</time>
      </trkpt>
      <trkpt lat="45.00345" lon="5.6013">
        <ele>1137</ele>
        <time>2010-06-20T07:23:50Z</time>
      </trkpt>
      <trkpt lat="45.00344" lon="5.60127">
        <ele>1138</ele>
        <time>2010-06-20T07:23:52Z</time>
      </trkpt>
      <trkpt lat="45.00342" lon="5.60124">
        <ele>1138</ele>
        <time>2010-06-20T07:23:54Z</time>
      </trkpt>
      <trkpt lat="45.00342" lon="5.60122">
        <ele>1138</ele>
        <time>2010-06-20T07:23:55Z</time>
      </trkpt>
      <trkpt lat="45.00341" lon="5.60121">
        <ele>1138</ele>
        <time>2010-06-20T07:23:56Z</time>
      </trkpt>
      <trkpt lat="45.00339" lon="5.60119">
        <ele>1139</ele>
        <time>2010-06-20T07:23:58Z</time>
      </trkpt>
      <trkpt lat="45.00338" lon="5.60117">
        <ele>1140</ele>
        <time>2010-06-20T07:23:59Z</time>
      </trkpt>
      <trkpt lat="45.00337" lon="5.60116">
        <ele>1140</ele>
        <time>2010-06-20T07:24:00Z</time>
      </trkpt>
      <trkpt lat="45.00335" lon="5.60113">
        <ele>1142</ele>
        <time>2010-06-20T07:24:02Z</time>
      </trkpt>
      <trkpt lat="45.00333" lon="5.60111">
        <ele>1143</ele>
        <time>2010-06-20T07:24:04Z</time>
      </trkpt>
      <trkpt lat="45.00332" lon="5.6011">
        <ele>1144</ele>
        <time>2010-06-20T07:24:06Z</time>
      </trkpt>
      <trkpt lat="45.0033" lon="5.60108">
        <ele>1144</ele>
        <time>2010-06-20T07:24:06Z</time>
      </trkpt>
      <trkpt lat="45.00328" lon="5.60105">
        <ele>1145</ele>
        <time>2010-06-20T07:24:07Z</time>
      </trkpt>
      <trkpt lat="45.00326" lon="5.60103">
        <ele>1146</ele>
        <time>2010-06-20T07:24:08Z</time>
      </trkpt>
      <trkpt lat="45.00325" lon="5.60101">
        <ele>1146</ele>
        <time>2010-06-20T07:24:09Z</time>
      </trkpt>
      <trkpt lat="45.00323" lon="5.60099">
        <ele>1146</ele>
        <time>2010-06-20T07:24:10Z</time>
      </trkpt>
      <trkpt lat="45.00322" lon="5.60096">
        <ele>1147</ele>
        <time>2010-06-20T07:24:11Z</time>
      </trkpt>
      <trkpt lat="45.0032" lon="5.60094">
        <ele>1147</ele>
        <time>2010-06-20T07:24:12Z</time>
      </trkpt>
      <trkpt lat="45.00318" lon="5.60092">
        <ele>1148</ele>
        <time>2010-06-20T07:24:13Z</time>
      </trkpt>
      <trkpt lat="45.00317" lon="5.6009">
        <ele>1149</ele>
        <time>2010-06-20T07:24:14Z</time>
      </trkpt>
      <trkpt lat="45.00316" lon="5.60088">
        <ele>1150</ele>
        <time>2010-06-20T07:24:15Z</time>
      </trkpt>
      <trkpt lat="45.00314" lon="5.60086">
        <ele>1151</ele>
        <time>2010-06-20T07:24:16Z</time>
      </trkpt>
      <trkpt lat="45.00313" lon="5.60084">
        <ele>1152</ele>
        <time>2010-06-20T07:24:17Z</time>
      </trkpt>
      <trkpt lat="45.00312" lon="5.60082">
        <ele>1153</ele>
        <time>2010-06-20T07:24:18Z</time>
      </trkpt>
      <trkpt lat="45.00311" lon="5.6008">
        <ele>1154</ele>
        <time>2010-06-20T07:24:19Z</time>
      </trkpt>
      <trkpt lat="45.00311" lon="5.60077">
        <ele>1155</ele>
        <time>2010-06-20T07:24:20Z</time>
      </trkpt>
      <trkpt lat="45.0031" lon="5.60075">
        <ele>1155</ele>
        <time>2010-06-20T07:24:21Z</time>
      </trkpt>
      <trkpt lat="45.00309" lon="5.60074">
        <ele>1156</ele>
        <time>2010-06-20T07:24:22Z</time>
      </trkpt>
      <trkpt lat="45.00309" lon="5.60072">
        <ele>1157</ele>
        <time>2010-06-20T07:24:23Z</time>
      </trkpt>
      <trkpt lat="45.00308" lon="5.6007">
        <ele>1157</ele>
        <time>2010-06-20T07:24:24Z</time>
      </trkpt>
      <trkpt lat="45.00307" lon="5.60068">
        <ele>1159</ele>
        <time>2010-06-20T07:24:26Z</time>
      </trkpt>
      <trkpt lat="45.00306" lon="5.60066">
        <ele>1160</ele>
        <time>2010-06-20T07:24:27Z</time>
      </trkpt>
      <trkpt lat="45.00305" lon="5.60064">
        <ele>1160</ele>
        <time>2010-06-20T07:24:28Z</time>
      </trkpt>
      <trkpt lat="45.00305" lon="5.60062">
        <ele>1161</ele>
        <time>2010-06-20T07:24:29Z</time>
      </trkpt>
      <trkpt lat="45.00304" lon="5.60061">
        <ele>1161</ele>
        <time>2010-06-20T07:24:30Z</time>
      </trkpt>
      <trkpt lat="45.00304" lon="5.60058">
        <ele>1161</ele>
        <time>2010-06-20T07:24:31Z</time>
      </trkpt>
      <trkpt lat="45.00304" lon="5.60056">
        <ele>1162</ele>
        <time>2010-06-20T07:24:32Z</time>
      </trkpt>
      <trkpt lat="45.00304" lon="5.60054">
        <ele>1162</ele>
        <time>2010-06-20T07:24:33Z</time>
      </trkpt>
      <trkpt lat="45.00303" lon="5.60052">
        <ele>1162</ele>
        <time>2010-06-20T07:24:34Z</time>
      </trkpt>
      <trkpt lat="45.00303" lon="5.6005">
        <ele>1162</ele>
        <time>2010-06-20T07:24:35Z</time>
      </trkpt>
      <trkpt lat="45.00302" lon="5.60048">
        <ele>1162</ele>
        <time>2010-06-20T07:24:36Z</time>
      </trkpt>
      <trkpt lat="45.00302" lon="5.60046">
        <ele>1162</ele>
        <time>2010-06-20T07:24:37Z</time>
      </trkpt>
      <trkpt lat="45.00301" lon="5.60043">
        <ele>1162</ele>
        <time>2010-06-20T07:24:39Z</time>
      </trkpt>
      <trkpt lat="45.003" lon="5.60042">
        <ele>1162</ele>
        <time>2010-06-20T07:24:40Z</time>
      </trkpt>
      <trkpt lat="45.00299" lon="5.6004">
        <ele>1162</ele>
        <time>2010-06-20T07:24:41Z</time>
      </trkpt>
      <trkpt lat="45.00297" lon="5.60038">
        <ele>1162</ele>
        <time>2010-06-20T07:24:43Z</time>
      </trkpt>
      <trkpt lat="45.00296" lon="5.60038">
        <ele>1162</ele>
        <time>2010-06-20T07:24:44Z</time>
      </trkpt>
      <trkpt lat="45.00295" lon="5.60037">
        <ele>1162</ele>
        <time>2010-06-20T07:24:45Z</time>
      </trkpt>
      <trkpt lat="45.00293" lon="5.60036">
        <ele>1162</ele>
        <time>2010-06-20T07:24:46Z</time>
      </trkpt>
      <trkpt lat="45.00292" lon="5.60036">
        <ele>1162</ele>
        <time>2010-06-20T07:24:47Z</time>
      </trkpt>
      <trkpt lat="45.0029" lon="5.60035">
        <ele>1162</ele>
        <time>2010-06-20T07:24:48Z</time>
      </trkpt>
      <trkpt lat="45.00287" lon="5.60035">
        <ele>1162</ele>
        <time>2010-06-20T07:24:49Z</time>
      </trkpt>
      <trkpt lat="45.00286" lon="5.60034">
        <ele>1162</ele>
        <time>2010-06-20T07:24:50Z</time>
      </trkpt>
      <trkpt lat="45.00284" lon="5.60034">
        <ele>1162</ele>
        <time>2010-06-20T07:24:51Z</time>
      </trkpt>
      <trkpt lat="45.00282" lon="5.60034">
        <ele>1162</ele>
        <time>2010-06-20T07:24:52Z</time>
      </trkpt>
      <trkpt lat="45.0028" lon="5.60033">
        <ele>1162</ele>
        <time>2010-06-20T07:24:53Z</time>
      </trkpt>
      <trkpt lat="45.00278" lon="5.60032">
        <ele>1163</ele>
        <time>2010-06-20T07:24:54Z</time>
      </trkpt>
      <trkpt lat="45.00277" lon="5.60032">
        <ele>1164</ele>
        <time>2010-06-20T07:24:55Z</time>
      </trkpt>
      <trkpt lat="45.00275" lon="5.60031">
        <ele>1164</ele>
        <time>2010-06-20T07:24:56Z</time>
      </trkpt>
      <trkpt lat="45.00274" lon="5.60032">
        <ele>1165</ele>
        <time>2010-06-20T07:24:57Z</time>
      </trkpt>
      <trkpt lat="45.00272" lon="5.60031">
        <ele>1165</ele>
        <time>2010-06-20T07:24:58Z</time>
      </trkpt>
      <trkpt lat="45.00271" lon="5.60031">
        <ele>1166</ele>
        <time>2010-06-20T07:24:59Z</time>
      </trkpt>
      <trkpt lat="45.0027" lon="5.60031">
        <ele>1166</ele>
        <time>2010-06-20T07:25:00Z</time>
      </trkpt>
      <trkpt lat="45.00269" lon="5.60031">
        <ele>1166</ele>
        <time>2010-06-20T07:25:01Z</time>
      </trkpt>
      <trkpt lat="45.00267" lon="5.6003">
        <ele>1166</ele>
        <time>2010-06-20T07:25:02Z</time>
      </trkpt>
      <trkpt lat="45.00266" lon="5.60029">
        <ele>1167</ele>
        <time>2010-06-20T07:25:03Z</time>
      </trkpt>
      <trkpt lat="45.00265" lon="5.60029">
        <ele>1167</ele>
        <time>2010-06-20T07:25:04Z</time>
      </trkpt>
      <trkpt lat="45.00263" lon="5.60029">
        <ele>1167</ele>
        <time>2010-06-20T07:25:05Z</time>
      </trkpt>
      <trkpt lat="45.00261" lon="5.60027">
        <ele>1167</ele>
        <time>2010-06-20T07:25:07Z</time>
      </trkpt>
      <trkpt lat="45.00259" lon="5.60028">
        <ele>1167</ele>
        <time>2010-06-20T07:25:08Z</time>
      </trkpt>
      <trkpt lat="45.00258" lon="5.60029">
        <ele>1168</ele>
        <time>2010-06-20T07:25:09Z</time>
      </trkpt>
      <trkpt lat="45.00256" lon="5.6003">
        <ele>1169</ele>
        <time>2010-06-20T07:25:11Z</time>
      </trkpt>
      <trkpt lat="45.00255" lon="5.6003">
        <ele>1170</ele>
        <time>2010-06-20T07:25:12Z</time>
      </trkpt>
      <trkpt lat="45.00253" lon="5.60032">
        <ele>1171</ele>
        <time>2010-06-20T07:25:13Z</time>
      </trkpt>
      <trkpt lat="45.00251" lon="5.60033">
        <ele>1173</ele>
        <time>2010-06-20T07:25:15Z</time>
      </trkpt>
      <trkpt lat="45.00249" lon="5.60033">
        <ele>1174</ele>
        <time>2010-06-20T07:25:17Z</time>
      </trkpt>
      <trkpt lat="45.00247" lon="5.60032">
        <ele>1174</ele>
        <time>2010-06-20T07:25:19Z</time>
      </trkpt>
      <trkpt lat="45.00246" lon="5.60031">
        <ele>1174</ele>
        <time>2010-06-20T07:25:20Z</time>
      </trkpt>
      <trkpt lat="45.00245" lon="5.6003">
        <ele>1174</ele>
        <time>2010-06-20T07:25:21Z</time>
      </trkpt>
      <trkpt lat="45.00243" lon="5.60029">
        <ele>1174</ele>
        <time>2010-06-20T07:25:23Z</time>
      </trkpt>
      <trkpt lat="45.00241" lon="5.6003">
        <ele>1174</ele>
        <time>2010-06-20T07:25:25Z</time>
      </trkpt>
      <trkpt lat="45.00239" lon="5.60029">
        <ele>1174</ele>
        <time>2010-06-20T07:25:27Z</time>
      </trkpt>
      <trkpt lat="45.00238" lon="5.6003">
        <ele>1174</ele>
        <time>2010-06-20T07:25:28Z</time>
      </trkpt>
      <trkpt lat="45.00236" lon="5.6003">
        <ele>1174</ele>
        <time>2010-06-20T07:25:30Z</time>
      </trkpt>
      <trkpt lat="45.00234" lon="5.6003">
        <ele>1174</ele>
        <time>2010-06-20T07:25:31Z</time>
      </trkpt>
      <trkpt lat="45.00233" lon="5.60031">
        <ele>1174</ele>
        <time>2010-06-20T07:25:32Z</time>
      </trkpt>
      <trkpt lat="45.00232" lon="5.60031">
        <ele>1174</ele>
        <time>2010-06-20T07:25:33Z</time>
      </trkpt>
      <trkpt lat="45.00231" lon="5.60032">
        <ele>1174</ele>
        <time>2010-06-20T07:25:35Z</time>
      </trkpt>
      <trkpt lat="45.00229" lon="5.60032">
        <ele>1174</ele>
        <time>2010-06-20T07:25:37Z</time>
      </trkpt>
      <trkpt lat="45.00226" lon="5.60032">
        <ele>1174</ele>
        <time>2010-06-20T07:25:39Z</time>
      </trkpt>
      <trkpt lat="45.00225" lon="5.60033">
        <ele>1175</ele>
        <time>2010-06-20T07:25:40Z</time>
      </trkpt>
      <trkpt lat="45.00223" lon="5.60035">
        <ele>1176</ele>
        <time>2010-06-20T07:25:42Z</time>
      </trkpt>
      <trkpt lat="45.00221" lon="5.60036">
        <ele>1176</ele>
        <time>2010-06-20T07:25:43Z</time>
      </trkpt>
      <trkpt lat="45.00219" lon="5.60037">
        <ele>1176</ele>
        <time>2010-06-20T07:25:44Z</time>
      </trkpt>
      <trkpt lat="45.00217" lon="5.60038">
        <ele>1176</ele>
        <time>2010-06-20T07:25:45Z</time>
      </trkpt>
      <trkpt lat="45.00215" lon="5.60039">
        <ele>1177</ele>
        <time>2010-06-20T07:25:46Z</time>
      </trkpt>
      <trkpt lat="45.00213" lon="5.60039">
        <ele>1177</ele>
        <time>2010-06-20T07:25:47Z</time>
      </trkpt>
      <trkpt lat="45.00212" lon="5.6004">
        <ele>1177</ele>
        <time>2010-06-20T07:25:48Z</time>
      </trkpt>
      <trkpt lat="45.0021" lon="5.60042">
        <ele>1177</ele>
        <time>2010-06-20T07:25:50Z</time>
      </trkpt>
      <trkpt lat="45.00208" lon="5.60045">
        <ele>1177</ele>
        <time>2010-06-20T07:25:51Z</time>
      </trkpt>
      <trkpt lat="45.00206" lon="5.60047">
        <ele>1178</ele>
        <time>2010-06-20T07:25:52Z</time>
      </trkpt>
      <trkpt lat="45.00205" lon="5.60048">
        <ele>1179</ele>
        <time>2010-06-20T07:25:53Z</time>
      </trkpt>
      <trkpt lat="45.00202" lon="5.60049">
        <ele>1180</ele>
        <time>2010-06-20T07:25:54Z</time>
      </trkpt>
      <trkpt lat="45.002" lon="5.6005">
        <ele>1181</ele>
        <time>2010-06-20T07:25:55Z</time>
      </trkpt>
      <trkpt lat="45.00199" lon="5.60052">
        <ele>1182</ele>
        <time>2010-06-20T07:25:56Z</time>
      </trkpt>
      <trkpt lat="45.00197" lon="5.60055">
        <ele>1183</ele>
        <time>2010-06-20T07:25:57Z</time>
      </trkpt>
      <trkpt lat="45.00195" lon="5.60056">
        <ele>1184</ele>
        <time>2010-06-20T07:25:58Z</time>
      </trkpt>
      <trkpt lat="45.00193" lon="5.60057">
        <ele>1185</ele>
        <time>2010-06-20T07:25:59Z</time>
      </trkpt>
      <trkpt lat="45.00191" lon="5.60057">
        <ele>1186</ele>
        <time>2010-06-20T07:26:00Z</time>
      </trkpt>
      <trkpt lat="45.0019" lon="5.60058">
        <ele>1187</ele>
        <time>2010-06-20T07:26:01Z</time>
      </trkpt>
      <trkpt lat="45.00188" lon="5.6006">
        <ele>1188</ele>
        <time>2010-06-20T07:26:02Z</time>
      </trkpt>
      <trkpt lat="45.00186" lon="5.60061">
        <ele>1189</ele>
        <time>2010-06-20T07:26:03Z</time>
      </trkpt>
      <trkpt lat="45.00183" lon="5.60062">
        <ele>1190</ele>
        <time>2010-06-20T07:26:04Z</time>
      </trkpt>
      <trkpt lat="45.0018" lon="5.60063">
        <ele>1191</ele>
        <time>2010-06-20T07:26:05Z</time>
      </trkpt>
      <trkpt lat="45.00178" lon="5.60065">
        <ele>1192</ele>
        <time>2010-06-20T07:26:06Z</time>
      </trkpt>
      <trkpt lat="45.00175" lon="5.60068">
        <ele>1193</ele>
        <time>2010-06-20T07:26:07Z</time>
      </trkpt>
      <trkpt lat="45.00173" lon="5.60069">
        <ele>1194</ele>
        <time>2010-06-20T07:26:08Z</time>
      </trkpt>
      <trkpt lat="45.00171" lon="5.6007">
        <ele>1195</ele>
        <time>2010-06-20T07:26:09Z</time>
      </trkpt>
      <trkpt lat="45.00169" lon="5.60071">
        <ele>1196</ele>
        <time>2010-06-20T07:26:10Z</time>
      </trkpt>
      <trkpt lat="45.00168" lon="5.60072">
        <ele>1197</ele>
        <time>2010-06-20T07:26:11Z</time>
      </trkpt>
      <trkpt lat="45.00166" lon="5.60073">
        <ele>1197</ele>
        <time>2010-06-20T07:26:13Z</time>
      </trkpt>
      <trkpt lat="45.00165" lon="5.60073">
        <ele>1197</ele>
        <time>2010-06-20T07:26:14Z</time>
      </trkpt>
      <trkpt lat="45.00163" lon="5.60074">
        <ele>1197</ele>
        <time>2010-06-20T07:26:15Z</time>
      </trkpt>
      <trkpt lat="45.00161" lon="5.60076">
        <ele>1197</ele>
        <time>2010-06-20T07:26:16Z</time>
      </trkpt>
      <trkpt lat="45.00159" lon="5.60078">
        <ele>1197</ele>
        <time>2010-06-20T07:26:17Z</time>
      </trkpt>
      <trkpt lat="45.00158" lon="5.6008">
        <ele>1197</ele>
        <time>2010-06-20T07:26:18Z</time>
      </trkpt>
      <trkpt lat="45.00156" lon="5.6008">
        <ele>1197</ele>
        <time>2010-06-20T07:26:20Z</time>
      </trkpt>
      <trkpt lat="45.00155" lon="5.60081">
        <ele>1197</ele>
        <time>2010-06-20T07:26:21Z</time>
      </trkpt>
      <trkpt lat="45.00154" lon="5.60081">
        <ele>1197</ele>
        <time>2010-06-20T07:26:22Z</time>
      </trkpt>
      <trkpt lat="45.00152" lon="5.60081">
        <ele>1197</ele>
        <time>2010-06-20T07:26:23Z</time>
      </trkpt>
      <trkpt lat="45.00151" lon="5.60081">
        <ele>1197</ele>
        <time>2010-06-20T07:26:24Z</time>
      </trkpt>
      <trkpt lat="45.0015" lon="5.60082">
        <ele>1197</ele>
        <time>2010-06-20T07:26:25Z</time>
      </trkpt>
      <trkpt lat="45.00149" lon="5.60082">
        <ele>1197</ele>
        <time>2010-06-20T07:26:26Z</time>
      </trkpt>
      <trkpt lat="45.00147" lon="5.60084">
        <ele>1197</ele>
        <time>2010-06-20T07:26:28Z</time>
      </trkpt>
      <trkpt lat="45.00145" lon="5.60085">
        <ele>1197</ele>
        <time>2010-06-20T07:26:30Z</time>
      </trkpt>
      <trkpt lat="45.00143" lon="5.60085">
        <ele>1197</ele>
        <time>2010-06-20T07:26:32Z</time>
      </trkpt>
      <trkpt lat="45.00141" lon="5.60085">
        <ele>1196</ele>
        <time>2010-06-20T07:26:34Z</time>
      </trkpt>
      <trkpt lat="45.0014" lon="5.60085">
        <ele>1194</ele>
        <time>2010-06-20T07:26:37Z</time>
      </trkpt>
      <trkpt lat="45.00138" lon="5.60086">
        <ele>1193</ele>
        <time>2010-06-20T07:26:39Z</time>
      </trkpt>
      <trkpt lat="45.00137" lon="5.60088">
        <ele>1192</ele>
        <time>2010-06-20T07:26:41Z</time>
      </trkpt>
      <trkpt lat="45.00134" lon="5.60088">
        <ele>1192</ele>
        <time>2010-06-20T07:26:43Z</time>
      </trkpt>
      <trkpt lat="45.00133" lon="5.60088">
        <ele>1192</ele>
        <time>2010-06-20T07:26:44Z</time>
      </trkpt>
      <trkpt lat="45.00132" lon="5.60088">
        <ele>1192</ele>
        <time>2010-06-20T07:26:45Z</time>
      </trkpt>
      <trkpt lat="45.0013" lon="5.60089">
        <ele>1192</ele>
        <time>2010-06-20T07:26:47Z</time>
      </trkpt>
      <trkpt lat="45.00128" lon="5.60091">
        <ele>1192</ele>
        <time>2010-06-20T07:26:49Z</time>
      </trkpt>
      <trkpt lat="45.00126" lon="5.60093">
        <ele>1192</ele>
        <time>2010-06-20T07:26:51Z</time>
      </trkpt>
      <trkpt lat="45.00125" lon="5.60094">
        <ele>1192</ele>
        <time>2010-06-20T07:26:52Z</time>
      </trkpt>
      <trkpt lat="45.00123" lon="5.60095">
        <ele>1192</ele>
        <time>2010-06-20T07:26:53Z</time>
      </trkpt>
      <trkpt lat="45.00122" lon="5.60096">
        <ele>1192</ele>
        <time>2010-06-20T07:26:54Z</time>
      </trkpt>
      <trkpt lat="45.0012" lon="5.60096">
        <ele>1192</ele>
        <time>2010-06-20T07:26:55Z</time>
      </trkpt>
      <trkpt lat="45.00118" lon="5.60097">
        <ele>1192</ele>
        <time>2010-06-20T07:26:56Z</time>
      </trkpt>
      <trkpt lat="45.00116" lon="5.60096">
        <ele>1192</ele>
        <time>2010-06-20T07:26:57Z</time>
      </trkpt>
      <trkpt lat="45.00114" lon="5.60096">
        <ele>1192</ele>
        <time>2010-06-20T07:26:58Z</time>
      </trkpt>
      <trkpt lat="45.00113" lon="5.60095">
        <ele>1192</ele>
        <time>2010-06-20T07:26:59Z</time>
      </trkpt>
      <trkpt lat="45.00111" lon="5.60093">
        <ele>1193</ele>
        <time>2010-06-20T07:27:00Z</time>
      </trkpt>
      <trkpt lat="45.0011" lon="5.60092">
        <ele>1194</ele>
        <time>2010-06-20T07:27:01Z</time>
      </trkpt>
      <trkpt lat="45.00109" lon="5.60089">
        <ele>1195</ele>
        <time>2010-06-20T07:27:03Z</time>
      </trkpt>
      <trkpt lat="45.00108" lon="5.60086">
        <ele>1195</ele>
        <time>2010-06-20T07:27:05Z</time>
      </trkpt>
      <trkpt lat="45.00107" lon="5.60084">
        <ele>1195</ele>
        <time>2010-06-20T07:27:06Z</time>
      </trkpt>
      <trkpt lat="45.00104" lon="5.60083">
        <ele>1195</ele>
        <time>2010-06-20T07:27:08Z</time>
      </trkpt>
      <trkpt lat="45.00102" lon="5.60083">
        <ele>1195</ele>
        <time>2010-06-20T07:27:09Z</time>
      </trkpt>
      <trkpt lat="45.001" lon="5.60082">
        <ele>1195</ele>
        <time>2010-06-20T07:27:10Z</time>
      </trkpt>
      <trkpt lat="45.00098" lon="5.60082">
        <ele>1195</ele>
        <time>2010-06-20T07:27:11Z</time>
      </trkpt>
      <trkpt lat="45.00096" lon="5.60081">
        <ele>1195</ele>
        <time>2010-06-20T07:27:12Z</time>
      </trkpt>
      <trkpt lat="45.00094" lon="5.60081">
        <ele>1195</ele>
        <time>2010-06-20T07:27:13Z</time>
      </trkpt>
      <trkpt lat="45.00091" lon="5.6008">
        <ele>1195</ele>
        <time>2010-06-20T07:27:14Z</time>
      </trkpt>
      <trkpt lat="45.00089" lon="5.60078">
        <ele>1195</ele>
        <time>2010-06-20T07:27:15Z</time>
      </trkpt>
      <trkpt lat="45.00086" lon="5.60076">
        <ele>1195</ele>
        <time>2010-06-20T07:27:16Z</time>
      </trkpt>
      <trkpt lat="45.00084" lon="5.60075">
        <ele>1195</ele>
        <time>2010-06-20T07:27:17Z</time>
      </trkpt>
      <trkpt lat="45.00081" lon="5.60074">
        <ele>1195</ele>
        <time>2010-06-20T07:27:18Z</time>
      </trkpt>
      <trkpt lat="45.00079" lon="5.60072">
        <ele>1195</ele>
        <time>2010-06-20T07:27:19Z</time>
      </trkpt>
      <trkpt lat="45.00076" lon="5.60068">
        <ele>1195</ele>
        <time>2010-06-20T07:27:20Z</time>
      </trkpt>
      <trkpt lat="45.00074" lon="5.60065">
        <ele>1195</ele>
        <time>2010-06-20T07:27:21Z</time>
      </trkpt>
      <trkpt lat="45.00073" lon="5.60062">
        <ele>1195</ele>
        <time>2010-06-20T07:27:22Z</time>
      </trkpt>
      <trkpt lat="45.00072" lon="5.60059">
        <ele>1195</ele>
        <time>2010-06-20T07:27:23Z</time>
      </trkpt>
      <trkpt lat="45.0007" lon="5.60056">
        <ele>1195</ele>
        <time>2010-06-20T07:27:24Z</time>
      </trkpt>
      <trkpt lat="45.00069" lon="5.60053">
        <ele>1195</ele>
        <time>2010-06-20T07:27:25Z</time>
      </trkpt>
      <trkpt lat="45.00067" lon="5.6005">
        <ele>1195</ele>
        <time>2010-06-20T07:27:26Z</time>
      </trkpt>
      <trkpt lat="45.00066" lon="5.60047">
        <ele>1195</ele>
        <time>2010-06-20T07:27:27Z</time>
      </trkpt>
      <trkpt lat="45.00064" lon="5.60043">
        <ele>1195</ele>
        <time>2010-06-20T07:27:28Z</time>
      </trkpt>
      <trkpt lat="45.00062" lon="5.60039">
        <ele>1195</ele>
        <time>2010-06-20T07:27:29Z</time>
      </trkpt>
      <trkpt lat="45.00061" lon="5.60034">
        <ele>1195</ele>
        <time>2010-06-20T07:27:30Z</time>
      </trkpt>
      <trkpt lat="45.0006" lon="5.6003">
        <ele>1195</ele>
        <time>2010-06-20T07:27:31Z</time>
      </trkpt>
      <trkpt lat="45.00059" lon="5.60026">
        <ele>1195</ele>
        <time>2010-06-20T07:27:32Z</time>
      </trkpt>
      <trkpt lat="45.00058" lon="5.60023">
        <ele>1195</ele>
        <time>2010-06-20T07:27:33Z</time>
      </trkpt>
      <trkpt lat="45.00056" lon="5.60019">
        <ele>1195</ele>
        <time>2010-06-20T07:27:34Z</time>
      </trkpt>
      <trkpt lat="45.00055" lon="5.60016">
        <ele>1195</ele>
        <time>2010-06-20T07:27:35Z</time>
      </trkpt>
      <trkpt lat="45.00054" lon="5.60012">
        <ele>1195</ele>
        <time>2010-06-20T07:27:36Z</time>
      </trkpt>
      <trkpt lat="45.00053" lon="5.60008">
        <ele>1195</ele>
        <time>2010-06-20T07:27:37Z</time>
      </trkpt>
      <trkpt lat="45.00052" lon="5.60004">
        <ele>1195</ele>
        <time>2010-06-20T07:27:38Z</time>
      </trkpt>
      <trkpt lat="45.00051" lon="5.6">
        <ele>1195</ele>
        <time>2010-06-20T07:27:39Z</time>
      </trkpt>
      <trkpt lat="45.0005" lon="5.59996">
        <ele>1195</ele>
        <time>2010-06-20T07:27:40Z</time>
      </trkpt>
      <trkpt lat="45.00049" lon="5.59993">
        <ele>1195</ele>
        <time>2010-06-20T07:27:41Z</time>
      </trkpt>
      <trkpt lat="45.00047" lon="5.59989">
        <ele>1195</ele>
        <time>2010-06-20T07:27:42Z</time>
      </trkpt>
      <trkpt lat="45.00046" lon="5.59985">
        <ele>1195</ele>
        <time>2010-06-20T07:27:43Z</time>
      </trkpt>
      <trkpt lat="45.00045" lon="5.59981">
        <ele>1195</ele>
        <time>2010-06-20T07:27:44Z</time>
      </trkpt>
      <trkpt lat="45.00044" lon="5.59978">
        <ele>1195</ele>
        <time>2010-06-20T07:27:45Z</time>
      </trkpt>
      <trkpt lat="45.00043" lon="5.59975">
        <ele>1195</ele>
        <time>2010-06-20T07:27:46Z</time>
      </trkpt>
      <trkpt lat="45.00042" lon="5.59971">
        <ele>1195</ele>
        <time>2010-06-20T07:27:47Z</time>
      </trkpt>
      <trkpt lat="45.00041" lon="5.59967">
        <ele>1195</ele>
        <time>2010-06-20T07:27:48Z</time>
      </trkpt>
      <trkpt lat="45.0004" lon="5.59964">
        <ele>1195</ele>
        <time>2010-06-20T07:27:49Z</time>
      </trkpt>
      <trkpt lat="45.00037" lon="5.59962">
        <ele>1195</ele>
        <time>2010-06-20T07:27:50Z</time>
      </trkpt>
      <trkpt lat="45.00036" lon="5.59959">
        <ele>1195</ele>
        <time>2010-06-20T07:27:51Z</time>
      </trkpt>
      <trkpt lat="45.00035" lon="5.59955">
        <ele>1195</ele>
        <time>2010-06-20T07:27:52Z</time>
      </trkpt>
      <trkpt lat="45.00035" lon="5.59952">
        <ele>1195</ele>
        <time>2010-06-20T07:27:53Z</time>
      </trkpt>
      <trkpt lat="45.00035" lon="5.59948">
        <ele>1196</ele>
        <time>2010-06-20T07:27:54Z</time>
      </trkpt>
      <trkpt lat="45.00034" lon="5.59945">
        <ele>1197</ele>
        <time>2010-06-20T07:27:55Z</time>
      </trkpt>
      <trkpt lat="45.00033" lon="5.59941">
        <ele>1197</ele>
        <time>2010-06-20T07:27:56Z</time>
      </trkpt>
      <trkpt lat="45.00032" lon="5.59938">
        <ele>1197</ele>
        <time>2010-06-20T07:27:57Z</time>
      </trkpt>
      <trkpt lat="45.00031" lon="5.59934">
        <ele>1198</ele>
        <time>2010-06-20T07:27:58Z</time>
      </trkpt>
      <trkpt lat="45.00029" lon="5.59931">
        <ele>1198</ele>
        <time>2010-06-20T07:27:59Z</time>
      </trkpt>
      <trkpt lat="45.00028" lon="5.59928">
        <ele>1199</ele>
        <time>2010-06-20T07:28:00Z</time>
      </trkpt>
      <trkpt lat="45.00028" lon="5.59924">
        <ele>1200</ele>
        <time>2010-06-20T07:28:01Z</time>
      </trkpt>
      <trkpt lat="45.00027" lon="5.5992">
        <ele>1201</ele>
        <time>2010-06-20T07:28:02Z</time>
      </trkpt>
      <trkpt lat="45.00026" lon="5.59916">
        <ele>1202</ele>
        <time>2010-06-20T07:28:03Z</time>
      </trkpt>
      <trkpt lat="45.00025" lon="5.59913">
        <ele>1202</ele>
        <time>2010-06-20T07:28:04Z</time>
      </trkpt>
      <trkpt lat="45.00024" lon="5.59909">
        <ele>1203</ele>
        <time>2010-06-20T07:28:05Z</time>
      </trkpt>
      <trkpt lat="45.00023" lon="5.59905">
        <ele>1203</ele>
        <time>2010-06-20T07:28:06Z</time>
      </trkpt>
      <trkpt lat="45.00023" lon="5.59901">
        <ele>1203</ele>
        <time>2010-06-20T07:28:07Z</time>
      </trkpt>
      <trkpt lat="45.00023" lon="5.59898">
        <ele>1203</ele>
        <time>2010-06-20T07:28:08Z</time>
      </trkpt>
      <trkpt lat="45.00022" lon="5.59895">
        <ele>1204</ele>
        <time>2010-06-20T07:28:09Z</time>
      </trkpt>
      <trkpt lat="45.00021" lon="5.59891">
        <ele>1204</ele>
        <time>2010-06-20T07:28:10Z</time>
      </trkpt>
      <trkpt lat="45.0002" lon="5.59888">
        <ele>1204</ele>
        <time>2010-06-20T07:28:11Z</time>
      </trkpt>
      <trkpt lat="45.0002" lon="5.59884">
        <ele>1204</ele>
        <time>2010-06-20T07:28:12Z</time>
      </trkpt>
      <trkpt lat="45.00018" lon="5.59881">
        <ele>1205</ele>
        <time>2010-06-20T07:28:13Z</time>
      </trkpt>
      <trkpt lat="45.00017" lon="5.59877">
        <ele>1205</ele>
        <time>2010-06-20T07:28:14Z</time>
      </trkpt>
      <trkpt lat="45.00016" lon="5.59873">
        <ele>1205</ele>
        <time>2010-06-20T07:28:15Z</time>
      </trkpt>
      <trkpt lat="45.00015" lon="5.59868">
        <ele>1206</ele>
        <time>2010-06-20T07:28:16Z</time>
      </trkpt>
      <trkpt lat="45.00014" lon="5.59864">
        <ele>1206</ele>
        <time>2010-06-20T07:28:17Z</time>
      </trkpt>
      <trkpt lat="45.00013" lon="5.5986">
        <ele>1207</ele>
        <time>2010-06-20T07:28:18Z</time>
      </trkpt>
      <trkpt lat="45.00012" lon="5.59855">
        <ele>1207</ele>
        <time>2010-06-20T07:28:19Z</time>
      </trkpt>
      <trkpt lat="45.0001" lon="5.5985">
        <ele>1207</ele>
        <time>2010-06-20T07:28:20Z</time>
      </trkpt>
      <trkpt lat="45.00009" lon="5.59847">
        <ele>1207</ele>
        <time>2010-06-20T07:28:21Z</time>
      </trkpt>
      <trkpt lat="45.00008" lon="5.59843">
        <ele>1207</ele>
        <time>2010-06-20T07:28:22Z</time>
      </trkpt>
      <trkpt lat="45.00007" lon="5.59838">
        <ele>1207</ele>
        <time>2010-06-20T07:28:23Z</time>
      </trkpt>
      <trkpt lat="45.00007" lon="5.59834">
        <ele>1207</ele>
        <time>2010-06-20T07:28:24Z</time>
      </trkpt>
      <trkpt lat="45.00005" lon="5.5983">
        <ele>1207</ele>
        <time>2010-06-20T07:28:25Z</time>
      </trkpt>
      <trkpt lat="45.00004" lon="5.59826">
        <ele>1207</ele>
        <time>2010-06-20T07:28:26Z</time>
      </trkpt>
      <trkpt lat="45.00002" lon="5.59822">
        <ele>1207</ele>
        <time>2010-06-20T07:28:27Z</time>
      </trkpt>
      <trkpt lat="45" lon="5.59819">
        <ele>1207</ele>
        <time>2010-06-20T07:28:28Z</time>
      </trkpt>
      <trkpt lat="44.99998" lon="5.59816">
        <ele>1207</ele>
        <time>2010-06-20T07:28:29Z</time>
      </trkpt>
      <trkpt lat="44.99996" lon="5.59812">
        <ele>1207</ele>
        <time>2010-06-20T07:28:30Z</time>
      </trkpt>
      <trkpt lat="44.99994" lon="5.59808">
        <ele>1207</ele>
        <time>2010-06-20T07:28:31Z</time>
      </trkpt>
      <trkpt lat="44.99992" lon="5.59805">
        <ele>1207</ele>
        <time>2010-06-20T07:28:32Z</time>
      </trkpt>
      <trkpt lat="44.9999" lon="5.59802">
        <ele>1207</ele>
        <time>2010-06-20T07:28:33Z</time>
      </trkpt>
      <trkpt lat="44.99988" lon="5.598">
        <ele>1207</ele>
        <time>2010-06-20T07:28:34Z</time>
      </trkpt>
      <trkpt lat="44.99987" lon="5.59796">
        <ele>1207</ele>
        <time>2010-06-20T07:28:35Z</time>
      </trkpt>
      <trkpt lat="44.99985" lon="5.59793">
        <ele>1207</ele>
        <time>2010-06-20T07:28:36Z</time>
      </trkpt>
      <trkpt lat="44.99983" lon="5.59791">
        <ele>1207</ele>
        <time>2010-06-20T07:28:37Z</time>
      </trkpt>
      <trkpt lat="44.99981" lon="5.59789">
        <ele>1207</ele>
        <time>2010-06-20T07:28:38Z</time>
      </trkpt>
      <trkpt lat="44.99979" lon="5.59786">
        <ele>1207</ele>
        <time>2010-06-20T07:28:39Z</time>
      </trkpt>
      <trkpt lat="44.99978" lon="5.59783">
        <ele>1207</ele>
        <time>2010-06-20T07:28:40Z</time>
      </trkpt>
      <trkpt lat="44.99975" lon="5.59782">
        <ele>1207</ele>
        <time>2010-06-20T07:28:41Z</time>
      </trkpt>
      <trkpt lat="44.99973" lon="5.5978">
        <ele>1207</ele>
        <time>2010-06-20T07:28:42Z</time>
      </trkpt>
      <trkpt lat="44.99971" lon="5.59777">
        <ele>1207</ele>
        <time>2010-06-20T07:28:43Z</time>
      </trkpt>
      <trkpt lat="44.9997" lon="5.59774">
        <ele>1207</ele>
        <time>2010-06-20T07:28:44Z</time>
      </trkpt>
      <trkpt lat="44.99968" lon="5.59771">
        <ele>1207</ele>
        <time>2010-06-20T07:28:45Z</time>
      </trkpt>
      <trkpt lat="44.99964" lon="5.5977">
        <ele>1207</ele>
        <time>2010-06-20T07:28:46Z</time>
      </trkpt>
      <trkpt lat="44.99962" lon="5.59768">
        <ele>1207</ele>
        <time>2010-06-20T07:28:47Z</time>
      </trkpt>
      <trkpt lat="44.99959" lon="5.59766">
        <ele>1207</ele>
        <time>2010-06-20T07:28:48Z</time>
      </trkpt>
      <trkpt lat="44.99957" lon="5.59763">
        <ele>1207</ele>
        <time>2010-06-20T07:28:49Z</time>
      </trkpt>
      <trkpt lat="44.99955" lon="5.59759">
        <ele>1207</ele>
        <time>2010-06-20T07:28:50Z</time>
      </trkpt>
      <trkpt lat="44.99953" lon="5.59756">
        <ele>1206</ele>
        <time>2010-06-20T07:28:51Z</time>
      </trkpt>
      <trkpt lat="44.99952" lon="5.59752">
        <ele>1205</ele>
        <time>2010-06-20T07:28:52Z</time>
      </trkpt>
      <trkpt lat="44.9995" lon="5.59748">
        <ele>1205</ele>
        <time>2010-06-20T07:28:53Z</time>
      </trkpt>
      <trkpt lat="44.99949" lon="5.59744">
        <ele>1204</ele>
        <time>2010-06-20T07:28:54Z</time>
      </trkpt>
      <trkpt lat="44.99948" lon="5.5974">
        <ele>1203</ele>
        <time>2010-06-20T07:28:55Z</time>
      </trkpt>
      <trkpt lat="44.99947" lon="5.59735">
        <ele>1202</ele>
        <time>2010-06-20T07:28:56Z</time>
      </trkpt>
      <trkpt lat="44.99947" lon="5.5973">
        <ele>1201</ele>
        <time>2010-06-20T07:28:57Z</time>
      </trkpt>
      <trkpt lat="44.99946" lon="5.59726">
        <ele>1200</ele>
        <time>2010-06-20T07:28:58Z</time>
      </trkpt>
      <trkpt lat="44.99944" lon="5.59722">
        <ele>1199</ele>
        <time>2010-06-20T07:28:59Z</time>
      </trkpt>
      <trkpt lat="44.99943" lon="5.59719">
        <ele>1199</ele>
        <time>2010-06-20T07:29:00Z</time>
      </trkpt>
      <trkpt lat="44.99942" lon="5.59715">
        <ele>1198</ele>
        <time>2010-06-20T07:29:01Z</time>
      </trkpt>
      <trkpt lat="44.99941" lon="5.5971">
        <ele>1197</ele>
        <time>2010-06-20T07:29:02Z</time>
      </trkpt>
      <trkpt lat="44.99941" lon="5.59707">
        <ele>1197</ele>
        <time>2010-06-20T07:29:03Z</time>
      </trkpt>
      <trkpt lat="44.99939" lon="5.59703">
        <ele>1196</ele>
        <time>2010-06-20T07:29:04Z</time>
      </trkpt>
      <trkpt lat="44.99938" lon="5.597">
        <ele>1196</ele>
        <time>2010-06-20T07:29:05Z</time>
      </trkpt>
      <trkpt lat="44.99936" lon="5.59698">
        <ele>1196</ele>
        <time>2010-06-20T07:29:06Z</time>
      </trkpt>
      <trkpt lat="44.99935" lon="5.59694">
        <ele>1196</ele>
        <time>2010-06-20T07:29:07Z</time>
      </trkpt>
      <trkpt lat="44.99935" lon="5.59691">
        <ele>1195</ele>
        <time>2010-06-20T07:29:08Z</time>
      </trkpt>
      <trkpt lat="44.99935" lon="5.59687">
        <ele>1194</ele>
        <time>2010-06-20T07:29:09Z</time>
      </trkpt>
      <trkpt lat="44.99935" lon="5.59683">
        <ele>1194</ele>
        <time>2010-06-20T07:29:10Z</time>
      </trkpt>
      <trkpt lat="44.99935" lon="5.59679">
        <ele>1193</ele>
        <time>2010-06-20T07:29:11Z</time>
      </trkpt>
      <trkpt lat="44.99935" lon="5.59676">
        <ele>1192</ele>
        <time>2010-06-20T07:29:12Z</time>
      </trkpt>
      <trkpt lat="44.99936" lon="5.59673">
        <ele>1191</ele>
        <time>2010-06-20T07:29:13Z</time>
      </trkpt>
      <trkpt lat="44.99936" lon="5.59669">
        <ele>1190</ele>
        <time>2010-06-20T07:29:14Z</time>
      </trkpt>
      <trkpt lat="44.99937" lon="5.59666">
        <ele>1189</ele>
        <time>2010-06-20T07:29:15Z</time>
      </trkpt>
      <trkpt lat="44.99938" lon="5.59663">
        <ele>1188</ele>
        <time>2010-06-20T07:29:16Z</time>
      </trkpt>
      <trkpt lat="44.9994" lon="5.59659">
        <ele>1187</ele>
        <time>2010-06-20T07:29:17Z</time>
      </trkpt>
      <trkpt lat="44.99941" lon="5.59655">
        <ele>1186</ele>
        <time>2010-06-20T07:29:18Z</time>
      </trkpt>
      <trkpt lat="44.99941" lon="5.59651">
        <ele>1185</ele>
        <time>2010-06-20T07:29:19Z</time>
      </trkpt>
      <trkpt lat="44.99943" lon="5.59648">
        <ele>1184</ele>
        <time>2010-06-20T07:29:20Z</time>
      </trkpt>
      <trkpt lat="44.99944" lon="5.59645">
        <ele>1183</ele>
        <time>2010-06-20T07:29:21Z</time>
      </trkpt>
      <trkpt lat="44.99945" lon="5.59643">
        <ele>1182</ele>
        <time>2010-06-20T07:29:22Z</time>
      </trkpt>
      <trkpt lat="44.99947" lon="5.59641">
        <ele>1181</ele>
        <time>2010-06-20T07:29:23Z</time>
      </trkpt>
      <trkpt lat="44.99948" lon="5.59638">
        <ele>1179</ele>
        <time>2010-06-20T07:29:24Z</time>
      </trkpt>
      <trkpt lat="44.99948" lon="5.59635">
        <ele>1178</ele>
        <time>2010-06-20T07:29:25Z</time>
      </trkpt>
      <trkpt lat="44.99947" lon="5.5963">
        <ele>1177</ele>
        <time>2010-06-20T07:29:26Z</time>
      </trkpt>
      <trkpt lat="44.99947" lon="5.59625">
        <ele>1176</ele>
        <time>2010-06-20T07:29:27Z</time>
      </trkpt>
      <trkpt lat="44.99946" lon="5.59623">
        <ele>1176</ele>
        <time>2010-06-20T07:29:28Z</time>
      </trkpt>
      <trkpt lat="44.99944" lon="5.59619">
        <ele>1176</ele>
        <time>2010-06-20T07:29:29Z</time>
      </trkpt>
      <trkpt lat="44.99943" lon="5.59616">
        <ele>1177</ele>
        <time>2010-06-20T07:29:30Z</time>
      </trkpt>
      <trkpt lat="44.9994" lon="5.59615">
        <ele>1178</ele>
        <time>2010-06-20T07:29:31Z</time>
      </trkpt>
      <trkpt lat="44.99938" lon="5.59614">
        <ele>1179</ele>
        <time>2010-06-20T07:29:32Z</time>
      </trkpt>
      <trkpt lat="44.99936" lon="5.59612">
        <ele>1180</ele>
        <time>2010-06-20T07:29:33Z</time>
      </trkpt>
      <trkpt lat="44.99933" lon="5.59612">
        <ele>1181</ele>
        <time>2010-06-20T07:29:34Z</time>
      </trkpt>
      <trkpt lat="44.99931" lon="5.59611">
        <ele>1182</ele>
        <time>2010-06-20T07:29:35Z</time>
      </trkpt>
      <trkpt lat="44.99928" lon="5.5961">
        <ele>1183</ele>
        <time>2010-06-20T07:29:36Z</time>
      </trkpt>
      <trkpt lat="44.99926" lon="5.5961">
        <ele>1184</ele>
        <time>2010-06-20T07:29:37Z</time>
      </trkpt>
      <trkpt lat="44.99923" lon="5.59612">
        <ele>1185</ele>
        <time>2010-06-20T07:29:38Z</time>
      </trkpt>
      <trkpt lat="44.9992" lon="5.59612">
        <ele>1186</ele>
        <time>2010-06-20T07:29:39Z</time>
      </trkpt>
      <trkpt lat="44.99917" lon="5.59611">
        <ele>1187</ele>
        <time>2010-06-20T07:29:40Z</time>
      </trkpt>
      <trkpt lat="44.99915" lon="5.5961">
        <ele>1188</ele>
        <time>2010-06-20T07:29:41Z</time>
      </trkpt>
      <trkpt lat="44.99913" lon="5.59608">
        <ele>1189</ele>
        <time>2010-06-20T07:29:42Z</time>
      </trkpt>
      <trkpt lat="44.9991" lon="5.59608">
        <ele>1190</ele>
        <time>2010-06-20T07:29:43Z</time>
      </trkpt>
      <trkpt lat="44.99907" lon="5.59608">
        <ele>1191</ele>
        <time>2010-06-20T07:29:44Z</time>
      </trkpt>
      <trkpt lat="44.99905" lon="5.59609">
        <ele>1192</ele>
        <time>2010-06-20T07:29:45Z</time>
      </trkpt>
      <trkpt lat="44.99902" lon="5.59609">
        <ele>1193</ele>
        <time>2010-06-20T07:29:46Z</time>
      </trkpt>
      <trkpt lat="44.99899" lon="5.59609">
        <ele>1193</ele>
        <time>2010-06-20T07:29:47Z</time>
      </trkpt>
      <trkpt lat="44.99896" lon="5.59608">
        <ele>1193</ele>
        <time>2010-06-20T07:29:48Z</time>
      </trkpt>
      <trkpt lat="44.99893" lon="5.59608">
        <ele>1194</ele>
        <time>2010-06-20T07:29:49Z</time>
      </trkpt>
      <trkpt lat="44.99891" lon="5.59608">
        <ele>1195</ele>
        <time>2010-06-20T07:29:50Z</time>
      </trkpt>
      <trkpt lat="44.99888" lon="5.59609">
        <ele>1196</ele>
        <time>2010-06-20T07:29:51Z</time>
      </trkpt>
      <trkpt lat="44.99886" lon="5.5961">
        <ele>1197</ele>
        <time>2010-06-20T07:29:52Z</time>
      </trkpt>
      <trkpt lat="44.99882" lon="5.59612">
        <ele>1198</ele>
        <time>2010-06-20T07:29:53Z</time>
      </trkpt>
      <trkpt lat="44.99879" lon="5.59614">
        <ele>1199</ele>
        <time>2010-06-20T07:29:54Z</time>
      </trkpt>
      <trkpt lat="44.99875" lon="5.59615">
        <ele>1200</ele>
        <time>2010-06-20T07:29:55Z</time>
      </trkpt>
      <trkpt lat="44.99873" lon="5.59615">
        <ele>1201</ele>
        <time>2010-06-20T07:29:56Z</time>
      </trkpt>
      <trkpt lat="44.9987" lon="5.59616">
        <ele>1202</ele>
        <time>2010-06-20T07:29:57Z</time>
      </trkpt>
      <trkpt lat="44.99867" lon="5.59615">
        <ele>1203</ele>
        <time>2010-06-20T07:29:58Z</time>
      </trkpt>
      <trkpt lat="44.99864" lon="5.59614">
        <ele>1203</ele>
        <time>2010-06-20T07:29:59Z</time>
      </trkpt>
      <trkpt lat="44.99862" lon="5.59612">
        <ele>1203</ele>
        <time>2010-06-20T07:30:00Z</time>
      </trkpt>
      <trkpt lat="44.99861" lon="5.59611">
        <ele>1203</ele>
        <time>2010-06-20T07:30:01Z</time>
      </trkpt>
      <trkpt lat="44.99863" lon="5.5961">
        <ele>1205</ele>
        <time>2010-06-20T07:30:05Z</time>
      </trkpt>
      <trkpt lat="44.99865" lon="5.59611">
        <ele>1206</ele>
        <time>2010-06-20T07:30:07Z</time>
      </trkpt>
      <trkpt lat="44.99867" lon="5.59609">
        <ele>1206</ele>
        <time>2010-06-20T07:30:08Z</time>
      </trkpt>
      <trkpt lat="44.99869" lon="5.59608">
        <ele>1207</ele>
        <time>2010-06-20T07:30:09Z</time>
      </trkpt>
      <trkpt lat="44.99871" lon="5.59606">
        <ele>1208</ele>
        <time>2010-06-20T07:30:10Z</time>
      </trkpt>
      <trkpt lat="44.99872" lon="5.59603">
        <ele>1209</ele>
        <time>2010-06-20T07:30:11Z</time>
      </trkpt>
      <trkpt lat="44.99874" lon="5.59601">
        <ele>1209</ele>
        <time>2010-06-20T07:30:12Z</time>
      </trkpt>
      <trkpt lat="44.99876" lon="5.59599">
        <ele>1209</ele>
        <time>2010-06-20T07:30:13Z</time>
      </trkpt>
      <trkpt lat="44.99878" lon="5.59597">
        <ele>1209</ele>
        <time>2010-06-20T07:30:14Z</time>
      </trkpt>
      <trkpt lat="44.99879" lon="5.59595">
        <ele>1209</ele>
        <time>2010-06-20T07:30:15Z</time>
      </trkpt>
      <trkpt lat="44.9988" lon="5.59593">
        <ele>1209</ele>
        <time>2010-06-20T07:30:16Z</time>
      </trkpt>
      <trkpt lat="44.99881" lon="5.59592">
        <ele>1209</ele>
        <time>2010-06-20T07:30:17Z</time>
      </trkpt>
      <trkpt lat="44.99882" lon="5.5959">
        <ele>1209</ele>
        <time>2010-06-20T07:30:18Z</time>
      </trkpt>
      <trkpt lat="44.99884" lon="5.59589">
        <ele>1209</ele>
        <time>2010-06-20T07:30:20Z</time>
      </trkpt>
      <trkpt lat="44.99886" lon="5.59586">
        <ele>1209</ele>
        <time>2010-06-20T07:30:22Z</time>
      </trkpt>
      <trkpt lat="44.99888" lon="5.59584">
        <ele>1209</ele>
        <time>2010-06-20T07:30:23Z</time>
      </trkpt>
      <trkpt lat="44.99889" lon="5.59581">
        <ele>1209</ele>
        <time>2010-06-20T07:30:24Z</time>
      </trkpt>
      <trkpt lat="44.9989" lon="5.59579">
        <ele>1209</ele>
        <time>2010-06-20T07:30:25Z</time>
      </trkpt>
      <trkpt lat="44.99892" lon="5.59578">
        <ele>1209</ele>
        <time>2010-06-20T07:30:26Z</time>
      </trkpt>
      <trkpt lat="44.99893" lon="5.59577">
        <ele>1209</ele>
        <time>2010-06-20T07:30:27Z</time>
      </trkpt>
      <trkpt lat="44.99895" lon="5.59575">
        <ele>1209</ele>
        <time>2010-06-20T07:30:28Z</time>
      </trkpt>
      <trkpt lat="44.99897" lon="5.59574">
        <ele>1208</ele>
        <time>2010-06-20T07:30:30Z</time>
      </trkpt>
      <trkpt lat="44.99898" lon="5.59572">
        <ele>1208</ele>
        <time>2010-06-20T07:30:32Z</time>
      </trkpt>
      <trkpt lat="44.99899" lon="5.5957">
        <ele>1208</ele>
        <time>2010-06-20T07:30:33Z</time>
      </trkpt>
      <trkpt lat="44.999" lon="5.59568">
        <ele>1208</ele>
        <time>2010-06-20T07:30:34Z</time>
      </trkpt>
      <trkpt lat="44.99901" lon="5.59567">
        <ele>1208</ele>
        <time>2010-06-20T07:30:35Z</time>
      </trkpt>
      <trkpt lat="44.99903" lon="5.59566">
        <ele>1208</ele>
        <time>2010-06-20T07:30:36Z</time>
      </trkpt>
      <trkpt lat="44.99905" lon="5.59564">
        <ele>1207</ele>
        <time>2010-06-20T07:30:37Z</time>
      </trkpt>
      <trkpt lat="44.99907" lon="5.59564">
        <ele>1207</ele>
        <time>2010-06-20T07:30:38Z</time>
      </trkpt>
      <trkpt lat="44.99908" lon="5.59564">
        <ele>1206</ele>
        <time>2010-06-20T07:30:39Z</time>
      </trkpt>
      <trkpt lat="44.99909" lon="5.59563">
        <ele>1206</ele>
        <time>2010-06-20T07:30:40Z</time>
      </trkpt>
      <trkpt lat="44.99911" lon="5.59563">
        <ele>1205</ele>
        <time>2010-06-20T07:30:42Z</time>
      </trkpt>
      <trkpt lat="44.99913" lon="5.5956">
        <ele>1204</ele>
        <time>2010-06-20T07:30:44Z</time>
      </trkpt>
      <trkpt lat="44.99914" lon="5.59559">
        <ele>1204</ele>
        <time>2010-06-20T07:30:45Z</time>
      </trkpt>
      <trkpt lat="44.99916" lon="5.59556">
        <ele>1203</ele>
        <time>2010-06-20T07:30:47Z</time>
      </trkpt>
      <trkpt lat="44.99917" lon="5.59554">
        <ele>1203</ele>
        <time>2010-06-20T07:30:48Z</time>
      </trkpt>
      <trkpt lat="44.99919" lon="5.59553">
        <ele>1203</ele>
        <time>2010-06-20T07:30:50Z</time>
      </trkpt>
      <trkpt lat="44.99919" lon="5.59551">
        <ele>1202</ele>
        <time>2010-06-20T07:30:52Z</time>
      </trkpt>
      <trkpt lat="44.99921" lon="5.5955">
        <ele>1201</ele>
        <time>2010-06-20T07:30:53Z</time>
      </trkpt>
      <trkpt lat="44.99922" lon="5.59549">
        <ele>1200</ele>
        <time>2010-06-20T07:30:55Z</time>
      </trkpt>
      <trkpt lat="44.99923" lon="5.59547">
        <ele>1200</ele>
        <time>2010-06-20T07:30:57Z</time>
      </trkpt>
      <trkpt lat="44.99923" lon="5.59545">
        <ele>1200</ele>
        <time>2010-06-20T07:31:00Z</time>
      </trkpt>
      <trkpt lat="44.99924" lon="5.59543">
        <ele>1202</ele>
        <time>2010-06-20T07:31:02Z</time>
      </trkpt>
      <trkpt lat="44.99925" lon="5.5954">
        <ele>1204</ele>
        <time>2010-06-20T07:31:04Z</time>
      </trkpt>
      <trkpt lat="44.99925" lon="5.59539">
        <ele>1206</ele>
        <time>2010-06-20T07:31:06Z</time>
      </trkpt>
      <trkpt lat="44.99926" lon="5.59537">
        <ele>1208</ele>
        <time>2010-06-20T07:31:08Z</time>
      </trkpt>
      <trkpt lat="44.99927" lon="5.59536">
        <ele>1211</ele>
        <time>2010-06-20T07:31:11Z</time>
      </trkpt>
      <trkpt lat="44.99928" lon="5.59532">
        <ele>1213</ele>
        <time>2010-06-20T07:31:13Z</time>
      </trkpt>
      <trkpt lat="44.99929" lon="5.59532">
        <ele>1214</ele>
        <time>2010-06-20T07:31:14Z</time>
      </trkpt>
      <trkpt lat="44.99931" lon="5.59531">
        <ele>1216</ele>
        <time>2010-06-20T07:31:16Z</time>
      </trkpt>
      <trkpt lat="44.99932" lon="5.5953">
        <ele>1217</ele>
        <time>2010-06-20T07:31:18Z</time>
      </trkpt>
      <trkpt lat="44.99935" lon="5.59529">
        <ele>1217</ele>
        <time>2010-06-20T07:31:20Z</time>
      </trkpt>
      <trkpt lat="44.99936" lon="5.59528">
        <ele>1217</ele>
        <time>2010-06-20T07:31:21Z</time>
      </trkpt>
      <trkpt lat="44.99938" lon="5.59526">
        <ele>1217</ele>
        <time>2010-06-20T07:31:23Z</time>
      </trkpt>
      <trkpt lat="44.99938" lon="5.59524">
        <ele>1217</ele>
        <time>2010-06-20T07:31:25Z</time>
      </trkpt>
      <trkpt lat="44.99939" lon="5.59522">
        <ele>1217</ele>
        <time>2010-06-20T07:31:26Z</time>
      </trkpt>
      <trkpt lat="44.99941" lon="5.5952">
        <ele>1217</ele>
        <time>2010-06-20T07:31:28Z</time>
      </trkpt>
      <trkpt lat="44.99942" lon="5.59519">
        <ele>1217</ele>
        <time>2010-06-20T07:31:29Z</time>
      </trkpt>
      <trkpt lat="44.99943" lon="5.59518">
        <ele>1217</ele>
        <time>2010-06-20T07:31:30Z</time>
      </trkpt>
      <trkpt lat="44.99944" lon="5.59517">
        <ele>1217</ele>
        <time>2010-06-20T07:31:31Z</time>
      </trkpt>
      <trkpt lat="44.99946" lon="5.59515">
        <ele>1217</ele>
        <time>2010-06-20T07:31:33Z</time>
      </trkpt>
      <trkpt lat="44.99948" lon="5.59512">
        <ele>1217</ele>
        <time>2010-06-20T07:31:35Z</time>
      </trkpt>
      <trkpt lat="44.9995" lon="5.5951">
        <ele>1217</ele>
        <time>2010-06-20T07:31:36Z</time>
      </trkpt>
      <trkpt lat="44.99951" lon="5.59508">
        <ele>1217</ele>
        <time>2010-06-20T07:31:37Z</time>
      </trkpt>
      <trkpt lat="44.99952" lon="5.59506">
        <ele>1217</ele>
        <time>2010-06-20T07:31:39Z</time>
      </trkpt>
      <trkpt lat="44.99953" lon="5.59505">
        <ele>1217</ele>
        <time>2010-06-20T07:31:41Z</time>
      </trkpt>
      <trkpt lat="44.99956" lon="5.59503">
        <ele>1217</ele>
        <time>2010-06-20T07:31:43Z</time>
      </trkpt>
      <trkpt lat="44.99958" lon="5.59501">
        <ele>1217</ele>
        <time>2010-06-20T07:31:45Z</time>
      </trkpt>
      <trkpt lat="44.99959" lon="5.59499">
        <ele>1217</ele>
        <time>2010-06-20T07:31:47Z</time>
      </trkpt>
      <trkpt lat="44.9996" lon="5.59498">
        <ele>1217</ele>
        <time>2010-06-20T07:31:48Z</time>
      </trkpt>
      <trkpt lat="44.99962" lon="5.59497">
        <ele>1217</ele>
        <time>2010-06-20T07:31:50Z</time>
      </trkpt>
      <trkpt lat="44.99963" lon="5.59496">
        <ele>1217</ele>
        <time>2010-06-20T07:31:51Z</time>
      </trkpt>
      <trkpt lat="44.99965" lon="5.59495">
        <ele>1218</ele>
        <time>2010-06-20T07:31:53Z</time>
      </trkpt>
      <trkpt lat="44.99966" lon="5.59494">
        <ele>1219</ele>
        <time>2010-06-20T07:31:55Z</time>
      </trkpt>
      <trkpt lat="44.99968" lon="5.59492">
        <ele>1219</ele>
        <time>2010-06-20T07:31:57Z</time>
      </trkpt>
      <trkpt lat="44.99969" lon="5.5949">
        <ele>1219</ele>
        <time>2010-06-20T07:31:59Z</time>
      </trkpt>
      <trkpt lat="44.99971" lon="5.5949">
        <ele>1219</ele>
        <time>2010-06-20T07:32:01Z</time>
      </trkpt>
      <trkpt lat="44.99972" lon="5.59489">
        <ele>1219</ele>
        <time>2010-06-20T07:32:03Z</time>
      </trkpt>
      <trkpt lat="44.99972" lon="5.59487">
        <ele>1220</ele>
        <time>2010-06-20T07:32:05Z</time>
      </trkpt>
      <trkpt lat="44.99973" lon="5.59485">
        <ele>1221</ele>
        <time>2010-06-20T07:32:06Z</time>
      </trkpt>
      <trkpt lat="44.99975" lon="5.59484">
        <ele>1222</ele>
        <time>2010-06-20T07:32:07Z</time>
      </trkpt>
      <trkpt lat="44.99976" lon="5.59482">
        <ele>1223</ele>
        <time>2010-06-20T07:32:08Z</time>
      </trkpt>
      <trkpt lat="44.99978" lon="5.59481">
        <ele>1223</ele>
        <time>2010-06-20T07:32:09Z</time>
      </trkpt>
      <trkpt lat="44.9998" lon="5.59481">
        <ele>1223</ele>
        <time>2010-06-20T07:32:10Z</time>
      </trkpt>
      <trkpt lat="44.99981" lon="5.59479">
        <ele>1223</ele>
        <time>2010-06-20T07:32:12Z</time>
      </trkpt>
      <trkpt lat="44.99982" lon="5.59478">
        <ele>1223</ele>
        <time>2010-06-20T07:32:13Z</time>
      </trkpt>
      <trkpt lat="44.99984" lon="5.59478">
        <ele>1223</ele>
        <time>2010-06-20T07:32:14Z</time>
      </trkpt>
      <trkpt lat="44.99985" lon="5.59477">
        <ele>1223</ele>
        <time>2010-06-20T07:32:16Z</time>
      </trkpt>
      <trkpt lat="44.99987" lon="5.59476">
        <ele>1223</ele>
        <time>2010-06-20T07:32:18Z</time>
      </trkpt>
      <trkpt lat="44.99989" lon="5.59475">
        <ele>1223</ele>
        <time>2010-06-20T07:32:19Z</time>
      </trkpt>
      <trkpt lat="44.9999" lon="5.59473">
        <ele>1223</ele>
        <time>2010-06-20T07:32:20Z</time>
      </trkpt>
      <trkpt lat="44.99991" lon="5.59472">
        <ele>1223</ele>
        <time>2010-06-20T07:32:21Z</time>
      </trkpt>
      <trkpt lat="44.99992" lon="5.59471">
        <ele>1223</ele>
        <time>2010-06-20T07:32:24Z</time>
      </trkpt>
      <trkpt lat="44.99994" lon="5.5947">
        <ele>1223</ele>
        <time>2010-06-20T07:32:26Z</time>
      </trkpt>
      <trkpt lat="44.99996" lon="5.5947">
        <ele>1223</ele>
        <time>2010-06-20T07:32:27Z</time>
      </trkpt>
      <trkpt lat="44.99997" lon="5.59468">
        <ele>1223</ele>
        <time>2010-06-20T07:32:28Z</time>
      </trkpt>
      <trkpt lat="44.99998" lon="5.59467">
        <ele>1223</ele>
        <time>2010-06-20T07:32:29Z</time>
      </trkpt>
      <trkpt lat="45" lon="5.59467">
        <ele>1225</ele>
        <time>2010-06-20T07:32:31Z</time>
      </trkpt>
      <trkpt lat="45.00001" lon="5.59467">
        <ele>1225</ele>
        <time>2010-06-20T07:32:32Z</time>
      </trkpt>
      <trkpt lat="45.00003" lon="5.59466">
        <ele>1226</ele>
        <time>2010-06-20T07:32:33Z</time>
      </trkpt>
      <trkpt lat="45.00004" lon="5.59466">
        <ele>1226</ele>
        <time>2010-06-20T07:32:34Z</time>
      </trkpt>
      <trkpt lat="45.00006" lon="5.59465">
        <ele>1226</ele>
        <time>2010-06-20T07:32:35Z</time>
      </trkpt>
      <trkpt lat="45.00008" lon="5.59464">
        <ele>1226</ele>
        <time>2010-06-20T07:32:36Z</time>
      </trkpt>
      <trkpt lat="45.00009" lon="5.59463">
        <ele>1226</ele>
        <time>2010-06-20T07:32:37Z</time>
      </trkpt>
      <trkpt lat="45.00011" lon="5.59462">
        <ele>1226</ele>
        <time>2010-06-20T07:32:38Z</time>
      </trkpt>
      <trkpt lat="45.00013" lon="5.59462">
        <ele>1226</ele>
        <time>2010-06-20T07:32:39Z</time>
      </trkpt>
      <trkpt lat="45.00014" lon="5.59461">
        <ele>1226</ele>
        <time>2010-06-20T07:32:40Z</time>
      </trkpt>
      <trkpt lat="45.00016" lon="5.59461">
        <ele>1226</ele>
        <time>2010-06-20T07:32:41Z</time>
      </trkpt>
      <trkpt lat="45.00018" lon="5.5946">
        <ele>1226</ele>
        <time>2010-06-20T07:32:42Z</time>
      </trkpt>
      <trkpt lat="45.00019" lon="5.59459">
        <ele>1226</ele>
        <time>2010-06-20T07:32:43Z</time>
      </trkpt>
      <trkpt lat="45.00021" lon="5.59458">
        <ele>1226</ele>
        <time>2010-06-20T07:32:44Z</time>
      </trkpt>
      <trkpt lat="45.00023" lon="5.59458">
        <ele>1226</ele>
        <time>2010-06-20T07:32:45Z</time>
      </trkpt>
      <trkpt lat="45.00025" lon="5.59458">
        <ele>1226</ele>
        <time>2010-06-20T07:32:46Z</time>
      </trkpt>
      <trkpt lat="45.00027" lon="5.59458">
        <ele>1226</ele>
        <time>2010-06-20T07:32:47Z</time>
      </trkpt>
      <trkpt lat="45.00028" lon="5.59459">
        <ele>1226</ele>
        <time>2010-06-20T07:32:48Z</time>
      </trkpt>
      <trkpt lat="45.0003" lon="5.5946">
        <ele>1227</ele>
        <time>2010-06-20T07:32:49Z</time>
      </trkpt>
      <trkpt lat="45.00032" lon="5.59461">
        <ele>1228</ele>
        <time>2010-06-20T07:32:50Z</time>
      </trkpt>
      <trkpt lat="45.00035" lon="5.59462">
        <ele>1229</ele>
        <time>2010-06-20T07:32:51Z</time>
      </trkpt>
      <trkpt lat="45.00037" lon="5.59461">
        <ele>1230</ele>
        <time>2010-06-20T07:32:52Z</time>
      </trkpt>
      <trkpt lat="45.0004" lon="5.5946">
        <ele>1231</ele>
        <time>2010-06-20T07:32:53Z</time>
      </trkpt>
      <trkpt lat="45.00042" lon="5.59459">
        <ele>1231</ele>
        <time>2010-06-20T07:32:54Z</time>
      </trkpt>
      <trkpt lat="45.00044" lon="5.59459">
        <ele>1231</ele>
        <time>2010-06-20T07:32:55Z</time>
      </trkpt>
      <trkpt lat="45.00045" lon="5.59459">
        <ele>1231</ele>
        <time>2010-06-20T07:32:56Z</time>
      </trkpt>
      <trkpt lat="45.00047" lon="5.59459">
        <ele>1232</ele>
        <time>2010-06-20T07:32:57Z</time>
      </trkpt>
      <trkpt lat="45.00048" lon="5.59459">
        <ele>1232</ele>
        <time>2010-06-20T07:32:58Z</time>
      </trkpt>
      <trkpt lat="45.00051" lon="5.59459">
        <ele>1233</ele>
        <time>2010-06-20T07:32:59Z</time>
      </trkpt>
      <trkpt lat="45.00052" lon="5.59459">
        <ele>1234</ele>
        <time>2010-06-20T07:33:01Z</time>
      </trkpt>
      <trkpt lat="45.00054" lon="5.59459">
        <ele>1235</ele>
        <time>2010-06-20T07:33:02Z</time>
      </trkpt>
      <trkpt lat="45.00055" lon="5.59457">
        <ele>1235</ele>
        <time>2010-06-20T07:33:03Z</time>
      </trkpt>
      <trkpt lat="45.00056" lon="5.59455">
        <ele>1236</ele>
        <time>2010-06-20T07:33:05Z</time>
      </trkpt>
      <trkpt lat="45.00059" lon="5.59455">
        <ele>1237</ele>
        <time>2010-06-20T07:33:07Z</time>
      </trkpt>
      <trkpt lat="45.0006" lon="5.59455">
        <ele>1237</ele>
        <time>2010-06-20T07:33:08Z</time>
      </trkpt>
      <trkpt lat="45.00062" lon="5.59456">
        <ele>1237</ele>
        <time>2010-06-20T07:33:09Z</time>
      </trkpt>
      <trkpt lat="45.00063" lon="5.59455">
        <ele>1237</ele>
        <time>2010-06-20T07:33:11Z</time>
      </trkpt>
      <trkpt lat="45.00064" lon="5.59455">
        <ele>1237</ele>
        <time>2010-06-20T07:33:12Z</time>
      </trkpt>
      <trkpt lat="45.00065" lon="5.59454">
        <ele>1237</ele>
        <time>2010-06-20T07:33:14Z</time>
      </trkpt>
      <trkpt lat="45.00067" lon="5.59452">
        <ele>1237</ele>
        <time>2010-06-20T07:33:16Z</time>
      </trkpt>
      <trkpt lat="45.00069" lon="5.59452">
        <ele>1238</ele>
        <time>2010-06-20T07:33:17Z</time>
      </trkpt>
      <trkpt lat="45.0007" lon="5.59451">
        <ele>1238</ele>
        <time>2010-06-20T07:33:18Z</time>
      </trkpt>
      <trkpt lat="45.00071" lon="5.59451">
        <ele>1239</ele>
        <time>2010-06-20T07:33:19Z</time>
      </trkpt>
      <trkpt lat="45.00073" lon="5.5945">
        <ele>1240</ele>
        <time>2010-06-20T07:33:20Z</time>
      </trkpt>
      <trkpt lat="45.00075" lon="5.59448">
        <ele>1242</ele>
        <time>2010-06-20T07:33:22Z</time>
      </trkpt>
      <trkpt lat="45.00077" lon="5.59447">
        <ele>1244</ele>
        <time>2010-06-20T07:33:24Z</time>
      </trkpt>
      <trkpt lat="45.00078" lon="5.59446">
        <ele>1246</ele>
        <time>2010-06-20T07:33:26Z</time>
      </trkpt>
      <trkpt lat="45.0008" lon="5.59445">
        <ele>1246</ele>
        <time>2010-06-20T07:33:27Z</time>
      </trkpt>
      <trkpt lat="45.00081" lon="5.59444">
        <ele>1247</ele>
        <time>2010-06-20T07:33:28Z</time>
      </trkpt>
      <trkpt lat="45.00083" lon="5.59443">
        <ele>1249</ele>
        <time>2010-06-20T07:33:30Z</time>
      </trkpt>
      <trkpt lat="45.00085" lon="5.59443">
        <ele>1251</ele>
        <time>2010-06-20T07:33:32Z</time>
      </trkpt>
      <trkpt lat="45.00086" lon="5.59442">
        <ele>1251</ele>
        <time>2010-06-20T07:33:33Z</time>
      </trkpt>
      <trkpt lat="45.00088" lon="5.59441">
        <ele>1252</ele>
        <time>2010-06-20T07:33:35Z</time>
      </trkpt>
      <trkpt lat="45.00089" lon="5.5944">
        <ele>1253</ele>
        <time>2010-06-20T07:33:37Z</time>
      </trkpt>
      <trkpt lat="45.00091" lon="5.59438">
        <ele>1254</ele>
        <time>2010-06-20T07:33:39Z</time>
      </trkpt>
      <trkpt lat="45.00092" lon="5.59436">
        <ele>1255</ele>
        <time>2010-06-20T07:33:41Z</time>
      </trkpt>
      <trkpt lat="45.00094" lon="5.59434">
        <ele>1256</ele>
        <time>2010-06-20T07:33:43Z</time>
      </trkpt>
      <trkpt lat="45.00095" lon="5.59431">
        <ele>1257</ele>
        <time>2010-06-20T07:33:45Z</time>
      </trkpt>
      <trkpt lat="45.00097" lon="5.59429">
        <ele>1258</ele>
        <time>2010-06-20T07:33:47Z</time>
      </trkpt>
      <trkpt lat="45.00099" lon="5.59428">
        <ele>1260</ele>
        <time>2010-06-20T07:33:49Z</time>
      </trkpt>
      <trkpt lat="45.001" lon="5.59427">
        <ele>1261</ele>
        <time>2010-06-20T07:33:51Z</time>
      </trkpt>
      <trkpt lat="45.00102" lon="5.59425">
        <ele>1263</ele>
        <time>2010-06-20T07:33:54Z</time>
      </trkpt>
      <trkpt lat="45.00104" lon="5.59422">
        <ele>1263</ele>
        <time>2010-06-20T07:33:56Z</time>
      </trkpt>
      <trkpt lat="45.00106" lon="5.59422">
        <ele>1263</ele>
        <time>2010-06-20T07:33:58Z</time>
      </trkpt>
      <trkpt lat="45.00107" lon="5.59422">
        <ele>1263</ele>
        <time>2010-06-20T07:33:59Z</time>
      </trkpt>
      <trkpt lat="45.00108" lon="5.59421">
        <ele>1263</ele>
        <time>2010-06-20T07:34:00Z</time>
      </trkpt>
      <trkpt lat="45.0011" lon="5.59419">
        <ele>1263</ele>
        <time>2010-06-20T07:34:02Z</time>
      </trkpt>
      <trkpt lat="45.00111" lon="5.59419">
        <ele>1263</ele>
        <time>2010-06-20T07:34:04Z</time>
      </trkpt>
      <trkpt lat="45.00113" lon="5.59418">
        <ele>1263</ele>
        <time>2010-06-20T07:34:06Z</time>
      </trkpt>
      <trkpt lat="45.00114" lon="5.59418">
        <ele>1263</ele>
        <time>2010-06-20T07:34:08Z</time>
      </trkpt>
      <trkpt lat="45.00116" lon="5.59416">
        <ele>1263</ele>
        <time>2010-06-20T07:34:11Z</time>
      </trkpt>
      <trkpt lat="45.00117" lon="5.59415">
        <ele>1263</ele>
        <time>2010-06-20T07:34:13Z</time>
      </trkpt>
      <trkpt lat="45.00119" lon="5.59414">
        <ele>1263</ele>
        <time>2010-06-20T07:34:15Z</time>
      </trkpt>
      <trkpt lat="45.00121" lon="5.59413">
        <ele>1265</ele>
        <time>2010-06-20T07:34:17Z</time>
      </trkpt>
      <trkpt lat="45.00121" lon="5.59411">
        <ele>1266</ele>
        <time>2010-06-20T07:34:19Z</time>
      </trkpt>
      <trkpt lat="45.00122" lon="5.59409">
        <ele>1266</ele>
        <time>2010-06-20T07:34:21Z</time>
      </trkpt>
      <trkpt lat="45.00124" lon="5.59407">
        <ele>1266</ele>
        <time>2010-06-20T07:34:23Z</time>
      </trkpt>
      <trkpt lat="45.00126" lon="5.59405">
        <ele>1267</ele>
        <time>2010-06-20T07:34:26Z</time>
      </trkpt>
      <trkpt lat="45.00127" lon="5.59403">
        <ele>1267</ele>
        <time>2010-06-20T07:34:28Z</time>
      </trkpt>
      <trkpt lat="45.00128" lon="5.59402">
        <ele>1268</ele>
        <time>2010-06-20T07:34:30Z</time>
      </trkpt>
      <trkpt lat="45.0013" lon="5.59401">
        <ele>1269</ele>
        <time>2010-06-20T07:34:32Z</time>
      </trkpt>
      <trkpt lat="45.00132" lon="5.594">
        <ele>1269</ele>
        <time>2010-06-20T07:34:34Z</time>
      </trkpt>
      <trkpt lat="45.00133" lon="5.59398">
        <ele>1269</ele>
        <time>2010-06-20T07:34:36Z</time>
      </trkpt>
      <trkpt lat="45.00135" lon="5.59396">
        <ele>1269</ele>
        <time>2010-06-20T07:34:38Z</time>
      </trkpt>
      <trkpt lat="45.00135" lon="5.59394">
        <ele>1269</ele>
        <time>2010-06-20T07:34:40Z</time>
      </trkpt>
      <trkpt lat="45.00137" lon="5.59392">
        <ele>1269</ele>
        <time>2010-06-20T07:34:42Z</time>
      </trkpt>
      <trkpt lat="45.00138" lon="5.59392">
        <ele>1269</ele>
        <time>2010-06-20T07:34:45Z</time>
      </trkpt>
      <trkpt lat="45.00139" lon="5.5939">
        <ele>1269</ele>
        <time>2010-06-20T07:34:47Z</time>
      </trkpt>
      <trkpt lat="45.00141" lon="5.59388">
        <ele>1269</ele>
        <time>2010-06-20T07:34:50Z</time>
      </trkpt>
      <trkpt lat="45.00142" lon="5.59387">
        <ele>1270</ele>
        <time>2010-06-20T07:34:51Z</time>
      </trkpt>
      <trkpt lat="45.00144" lon="5.59386">
        <ele>1272</ele>
        <time>2010-06-20T07:34:53Z</time>
      </trkpt>
      <trkpt lat="45.00145" lon="5.59386">
        <ele>1274</ele>
        <time>2010-06-20T07:34:55Z</time>
      </trkpt>
      <trkpt lat="45.00147" lon="5.59385">
        <ele>1276</ele>
        <time>2010-06-20T07:34:57Z</time>
      </trkpt>
      <trkpt lat="45.00148" lon="5.59384">
        <ele>1278</ele>
        <time>2010-06-20T07:34:59Z</time>
      </trkpt>
      <trkpt lat="45.0015" lon="5.59384">
        <ele>1279</ele>
        <time>2010-06-20T07:35:01Z</time>
      </trkpt>
      <trkpt lat="45.00151" lon="5.59384">
        <ele>1279</ele>
        <time>2010-06-20T07:35:02Z</time>
      </trkpt>
      <trkpt lat="45.00152" lon="5.59384">
        <ele>1279</ele>
        <time>2010-06-20T07:35:04Z</time>
      </trkpt>
      <trkpt lat="45.00154" lon="5.59384">
        <ele>1279</ele>
        <time>2010-06-20T07:35:05Z</time>
      </trkpt>
      <trkpt lat="45.00155" lon="5.59384">
        <ele>1279</ele>
        <time>2010-06-20T07:35:07Z</time>
      </trkpt>
      <trkpt lat="45.00157" lon="5.59384">
        <ele>1280</ele>
        <time>2010-06-20T07:35:09Z</time>
      </trkpt>
      <trkpt lat="45.00158" lon="5.59384">
        <ele>1280</ele>
        <time>2010-06-20T07:35:10Z</time>
      </trkpt>
      <trkpt lat="45.0016" lon="5.59384">
        <ele>1280</ele>
        <time>2010-06-20T07:35:11Z</time>
      </trkpt>
      <trkpt lat="45.00161" lon="5.59384">
        <ele>1280</ele>
        <time>2010-06-20T07:35:12Z</time>
      </trkpt>
      <trkpt lat="45.00163" lon="5.59385">
        <ele>1280</ele>
        <time>2010-06-20T07:35:14Z</time>
      </trkpt>
      <trkpt lat="45.00165" lon="5.59384">
        <ele>1280</ele>
        <time>2010-06-20T07:35:16Z</time>
      </trkpt>
      <trkpt lat="45.00167" lon="5.59385">
        <ele>1280</ele>
        <time>2010-06-20T07:35:18Z</time>
      </trkpt>
      <trkpt lat="45.00169" lon="5.59386">
        <ele>1280</ele>
        <time>2010-06-20T07:35:20Z</time>
      </trkpt>
      <trkpt lat="45.00171" lon="5.59385">
        <ele>1280</ele>
        <time>2010-06-20T07:35:22Z</time>
      </trkpt>
      <trkpt lat="45.00172" lon="5.59384">
        <ele>1280</ele>
        <time>2010-06-20T07:35:23Z</time>
      </trkpt>
      <trkpt lat="45.00174" lon="5.59383">
        <ele>1281</ele>
        <time>2010-06-20T07:35:24Z</time>
      </trkpt>
      <trkpt lat="45.00175" lon="5.59382">
        <ele>1282</ele>
        <time>2010-06-20T07:35:26Z</time>
      </trkpt>
      <trkpt lat="45.00178" lon="5.5938">
        <ele>1284</ele>
        <time>2010-06-20T07:35:28Z</time>
      </trkpt>
      <trkpt lat="45.0018" lon="5.59379">
        <ele>1285</ele>
        <time>2010-06-20T07:35:30Z</time>
      </trkpt>
      <trkpt lat="45.00182" lon="5.59378">
        <ele>1287</ele>
        <time>2010-06-20T07:35:32Z</time>
      </trkpt>
      <trkpt lat="45.00184" lon="5.59377">
        <ele>1290</ele>
        <time>2010-06-20T07:35:35Z</time>
      </trkpt>
      <trkpt lat="45.00185" lon="5.59376">
        <ele>1290</ele>
        <time>2010-06-20T07:35:37Z</time>
      </trkpt>
      <trkpt lat="45.00187" lon="5.59376">
        <ele>1291</ele>
        <time>2010-06-20T07:35:39Z</time>
      </trkpt>
      <trkpt lat="45.00188" lon="5.59376">
        <ele>1291</ele>
        <time>2010-06-20T07:35:40Z</time>
      </trkpt>
      <trkpt lat="45.00189" lon="5.59376">
        <ele>1291</ele>
        <time>2010-06-20T07:35:41Z</time>
      </trkpt>
      <trkpt lat="45.00191" lon="5.59375">
        <ele>1291</ele>
        <time>2010-06-20T07:35:42Z</time>
      </trkpt>
      <trkpt lat="45.00192" lon="5.59373">
        <ele>1291</ele>
        <time>2010-06-20T07:35:44Z</time>
      </trkpt>
      <trkpt lat="45.00193" lon="5.5937">
        <ele>1291</ele>
        <time>2010-06-20T07:35:45Z</time>
      </trkpt>
      <trkpt lat="45.00193" lon="5.59368">
        <ele>1291</ele>
        <time>2010-06-20T07:35:46Z</time>
      </trkpt>
      <trkpt lat="45.00194" lon="5.59366">
        <ele>1291</ele>
        <time>2010-06-20T07:35:48Z</time>
      </trkpt>
      <trkpt lat="45.00195" lon="5.59364">
        <ele>1291</ele>
        <time>2010-06-20T07:35:49Z</time>
      </trkpt>
      <trkpt lat="45.00196" lon="5.59362">
        <ele>1291</ele>
        <time>2010-06-20T07:35:50Z</time>
      </trkpt>
      <trkpt lat="45.00198" lon="5.59361">
        <ele>1291</ele>
        <time>2010-06-20T07:35:52Z</time>
      </trkpt>
      <trkpt lat="45.002" lon="5.59359">
        <ele>1293</ele>
        <time>2010-06-20T07:35:54Z</time>
      </trkpt>
      <trkpt lat="45.00202" lon="5.59359">
        <ele>1295</ele>
        <time>2010-06-20T07:35:56Z</time>
      </trkpt>
      <trkpt lat="45.00203" lon="5.5936">
        <ele>1296</ele>
        <time>2010-06-20T07:35:57Z</time>
      </trkpt>
      <trkpt lat="45.00205" lon="5.59362">
        <ele>1298</ele>
        <time>2010-06-20T07:35:59Z</time>
      </trkpt>
      <trkpt lat="45.00206" lon="5.59364">
        <ele>1299</ele>
        <time>2010-06-20T07:36:00Z</time>
      </trkpt>
      <trkpt lat="45.00208" lon="5.59366">
        <ele>1300</ele>
        <time>2010-06-20T07:36:01Z</time>
      </trkpt>
      <trkpt lat="45.0021" lon="5.59368">
        <ele>1301</ele>
        <time>2010-06-20T07:36:02Z</time>
      </trkpt>
      <trkpt lat="45.0021" lon="5.59371">
        <ele>1302</ele>
        <time>2010-06-20T07:36:03Z</time>
      </trkpt>
      <trkpt lat="45.00211" lon="5.59372">
        <ele>1303</ele>
        <time>2010-06-20T07:36:04Z</time>
      </trkpt>
      <trkpt lat="45.00212" lon="5.59373">
        <ele>1304</ele>
        <time>2010-06-20T07:36:05Z</time>
      </trkpt>
      <trkpt lat="45.00214" lon="5.59373">
        <ele>1305</ele>
        <time>2010-06-20T07:36:06Z</time>
      </trkpt>
      <trkpt lat="45.00215" lon="5.59375">
        <ele>1307</ele>
        <time>2010-06-20T07:36:08Z</time>
      </trkpt>
      <trkpt lat="45.00216" lon="5.59375">
        <ele>1309</ele>
        <time>2010-06-20T07:36:10Z</time>
      </trkpt>
      <trkpt lat="45.00218" lon="5.59376">
        <ele>1310</ele>
        <time>2010-06-20T07:36:11Z</time>
      </trkpt>
      <trkpt lat="45.00219" lon="5.59377">
        <ele>1311</ele>
        <time>2010-06-20T07:36:12Z</time>
      </trkpt>
      <trkpt lat="45.00221" lon="5.59378">
        <ele>1311</ele>
        <time>2010-06-20T07:36:13Z</time>
      </trkpt>
      <trkpt lat="45.00222" lon="5.59378">
        <ele>1311</ele>
        <time>2010-06-20T07:36:14Z</time>
      </trkpt>
      <trkpt lat="45.00224" lon="5.59379">
        <ele>1311</ele>
        <time>2010-06-20T07:36:16Z</time>
      </trkpt>
      <trkpt lat="45.00226" lon="5.59379">
        <ele>1311</ele>
        <time>2010-06-20T07:36:18Z</time>
      </trkpt>
      <trkpt lat="45.00227" lon="5.5938">
        <ele>1313</ele>
        <time>2010-06-20T07:36:20Z</time>
      </trkpt>
      <trkpt lat="45.00228" lon="5.59382">
        <ele>1314</ele>
        <time>2010-06-20T07:36:22Z</time>
      </trkpt>
      <trkpt lat="45.0023" lon="5.59383">
        <ele>1314</ele>
        <time>2010-06-20T07:36:24Z</time>
      </trkpt>
      <trkpt lat="45.00231" lon="5.59385">
        <ele>1314</ele>
        <time>2010-06-20T07:36:26Z</time>
      </trkpt>
      <trkpt lat="45.00232" lon="5.59387">
        <ele>1314</ele>
        <time>2010-06-20T07:36:28Z</time>
      </trkpt>
      <trkpt lat="45.00232" lon="5.59389">
        <ele>1314</ele>
        <time>2010-06-20T07:36:30Z</time>
      </trkpt>
      <trkpt lat="45.00233" lon="5.5939">
        <ele>1314</ele>
        <time>2010-06-20T07:36:33Z</time>
      </trkpt>
      <trkpt lat="45.00234" lon="5.59392">
        <ele>1314</ele>
        <time>2010-06-20T07:36:34Z</time>
      </trkpt>
      <trkpt lat="45.00234" lon="5.59393">
        <ele>1314</ele>
        <time>2010-06-20T07:36:36Z</time>
      </trkpt>
      <trkpt lat="45.00236" lon="5.59394">
        <ele>1314</ele>
        <time>2010-06-20T07:36:38Z</time>
      </trkpt>
      <trkpt lat="45.00238" lon="5.59395">
        <ele>1314</ele>
        <time>2010-06-20T07:36:40Z</time>
      </trkpt>
      <trkpt lat="45.00239" lon="5.59397">
        <ele>1314</ele>
        <time>2010-06-20T07:36:42Z</time>
      </trkpt>
      <trkpt lat="45.0024" lon="5.59397">
        <ele>1314</ele>
        <time>2010-06-20T07:36:43Z</time>
      </trkpt>
      <trkpt lat="45.00241" lon="5.59399">
        <ele>1314</ele>
        <time>2010-06-20T07:36:45Z</time>
      </trkpt>
      <trkpt lat="45.00242" lon="5.594">
        <ele>1314</ele>
        <time>2010-06-20T07:36:47Z</time>
      </trkpt>
      <trkpt lat="45.00243" lon="5.594">
        <ele>1315</ele>
        <time>2010-06-20T07:36:48Z</time>
      </trkpt>
      <trkpt lat="45.00245" lon="5.59401">
        <ele>1316</ele>
        <time>2010-06-20T07:36:49Z</time>
      </trkpt>
      <trkpt lat="45.00247" lon="5.59402">
        <ele>1318</ele>
        <time>2010-06-20T07:36:51Z</time>
      </trkpt>
      <trkpt lat="45.00248" lon="5.59403">
        <ele>1319</ele>
        <time>2010-06-20T07:36:53Z</time>
      </trkpt>
      <trkpt lat="45.00249" lon="5.59405">
        <ele>1319</ele>
        <time>2010-06-20T07:36:55Z</time>
      </trkpt>
      <trkpt lat="45.00247" lon="5.59408">
        <ele>1319</ele>
        <time>2010-06-20T07:36:58Z</time>
      </trkpt>
      <trkpt lat="45.0025" lon="5.59408">
        <ele>1319</ele>
        <time>2010-06-20T07:37:00Z</time>
      </trkpt>
      <trkpt lat="45.0025" lon="5.5941">
        <ele>1319</ele>
        <time>2010-06-20T07:37:02Z</time>
      </trkpt>
      <trkpt lat="45.0025" lon="5.59412">
        <ele>1319</ele>
        <time>2010-06-20T07:37:03Z</time>
      </trkpt>
      <trkpt lat="45.0025" lon="5.59414">
        <ele>1319</ele>
        <time>2010-06-20T07:37:04Z</time>
      </trkpt>
      <trkpt lat="45.0025" lon="5.59416">
        <ele>1319</ele>
        <time>2010-06-20T07:37:06Z</time>
      </trkpt>
      <trkpt lat="45.0025" lon="5.59417">
        <ele>1319</ele>
        <time>2010-06-20T07:37:07Z</time>
      </trkpt>
      <trkpt lat="45.00251" lon="5.59419">
        <ele>1319</ele>
        <time>2010-06-20T07:37:09Z</time>
      </trkpt>
      <trkpt lat="45.00252" lon="5.5942">
        <ele>1319</ele>
        <time>2010-06-20T07:37:10Z</time>
      </trkpt>
      <trkpt lat="45.00254" lon="5.59422">
        <ele>1319</ele>
        <time>2010-06-20T07:37:12Z</time>
      </trkpt>
      <trkpt lat="45.00254" lon="5.59424">
        <ele>1320</ele>
        <time>2010-06-20T07:37:14Z</time>
      </trkpt>
      <trkpt lat="45.00254" lon="5.59426">
        <ele>1320</ele>
        <time>2010-06-20T07:37:15Z</time>
      </trkpt>
      <trkpt lat="45.00254" lon="5.59428">
        <ele>1320</ele>
        <time>2010-06-20T07:37:16Z</time>
      </trkpt>
      <trkpt lat="45.00254" lon="5.5943">
        <ele>1320</ele>
        <time>2010-06-20T07:37:17Z</time>
      </trkpt>
      <trkpt lat="45.00254" lon="5.59432">
        <ele>1321</ele>
        <time>2010-06-20T07:37:18Z</time>
      </trkpt>
      <trkpt lat="45.00254" lon="5.59434">
        <ele>1322</ele>
        <time>2010-06-20T07:37:19Z</time>
      </trkpt>
      <trkpt lat="45.00256" lon="5.59436">
        <ele>1324</ele>
        <time>2010-06-20T07:37:21Z</time>
      </trkpt>
      <trkpt lat="45.00256" lon="5.59438">
        <ele>1325</ele>
        <time>2010-06-20T07:37:22Z</time>
      </trkpt>
      <trkpt lat="45.00258" lon="5.59439">
        <ele>1325</ele>
        <time>2010-06-20T07:37:24Z</time>
      </trkpt>
      <trkpt lat="45.00259" lon="5.59442">
        <ele>1325</ele>
        <time>2010-06-20T07:37:26Z</time>
      </trkpt>
      <trkpt lat="45.0026" lon="5.59445">
        <ele>1325</ele>
        <time>2010-06-20T07:37:28Z</time>
      </trkpt>
      <trkpt lat="45.00261" lon="5.59446">
        <ele>1325</ele>
        <time>2010-06-20T07:37:29Z</time>
      </trkpt>
      <trkpt lat="45.00262" lon="5.59448">
        <ele>1325</ele>
        <time>2010-06-20T07:37:30Z</time>
      </trkpt>
      <trkpt lat="45.00263" lon="5.5945">
        <ele>1325</ele>
        <time>2010-06-20T07:37:31Z</time>
      </trkpt>
      <trkpt lat="45.00264" lon="5.59452">
        <ele>1326</ele>
        <time>2010-06-20T07:37:32Z</time>
      </trkpt>
      <trkpt lat="45.00265" lon="5.59454">
        <ele>1326</ele>
        <time>2010-06-20T07:37:33Z</time>
      </trkpt>
      <trkpt lat="45.00266" lon="5.59456">
        <ele>1326</ele>
        <time>2010-06-20T07:37:34Z</time>
      </trkpt>
      <trkpt lat="45.00267" lon="5.59458">
        <ele>1326</ele>
        <time>2010-06-20T07:37:35Z</time>
      </trkpt>
      <trkpt lat="45.00268" lon="5.5946">
        <ele>1326</ele>
        <time>2010-06-20T07:37:36Z</time>
      </trkpt>
      <trkpt lat="45.00269" lon="5.59463">
        <ele>1326</ele>
        <time>2010-06-20T07:37:37Z</time>
      </trkpt>
      <trkpt lat="45.00269" lon="5.59466">
        <ele>1327</ele>
        <time>2010-06-20T07:37:38Z</time>
      </trkpt>
      <trkpt lat="45.00271" lon="5.59468">
        <ele>1327</ele>
        <time>2010-06-20T07:37:39Z</time>
      </trkpt>
      <trkpt lat="45.00272" lon="5.5947">
        <ele>1328</ele>
        <time>2010-06-20T07:37:40Z</time>
      </trkpt>
      <trkpt lat="45.00274" lon="5.59471">
        <ele>1328</ele>
        <time>2010-06-20T07:37:41Z</time>
      </trkpt>
      <trkpt lat="45.00277" lon="5.59472">
        <ele>1328</ele>
        <time>2010-06-20T07:37:42Z</time>
      </trkpt>
      <trkpt lat="45.0028" lon="5.59474">
        <ele>1328</ele>
        <time>2010-06-20T07:37:43Z</time>
      </trkpt>
      <trkpt lat="45.00282" lon="5.59475">
        <ele>1328</ele>
        <time>2010-06-20T07:37:44Z</time>
      </trkpt>
      <trkpt lat="45.00286" lon="5.59476">
        <ele>1328</ele>
        <time>2010-06-20T07:37:45Z</time>
      </trkpt>
      <trkpt lat="45.00288" lon="5.59478">
        <ele>1328</ele>
        <time>2010-06-20T07:37:46Z</time>
      </trkpt>
      <trkpt lat="45.00291" lon="5.59479">
        <ele>1328</ele>
        <time>2010-06-20T07:37:47Z</time>
      </trkpt>
      <trkpt lat="45.00294" lon="5.59479">
        <ele>1328</ele>
        <time>2010-06-20T07:37:48Z</time>
      </trkpt>
      <trkpt lat="45.00298" lon="5.5948">
        <ele>1328</ele>
        <time>2010-06-20T07:37:49Z</time>
      </trkpt>
      <trkpt lat="45.00301" lon="5.5948">
        <ele>1328</ele>
        <time>2010-06-20T07:37:50Z</time>
      </trkpt>
      <trkpt lat="45.00304" lon="5.59481">
        <ele>1328</ele>
        <time>2010-06-20T07:37:51Z</time>
      </trkpt>
      <trkpt lat="45.00307" lon="5.59481">
        <ele>1328</ele>
        <time>2010-06-20T07:37:52Z</time>
      </trkpt>
      <trkpt lat="45.00309" lon="5.59481">
        <ele>1328</ele>
        <time>2010-06-20T07:37:53Z</time>
      </trkpt>
      <trkpt lat="45.00312" lon="5.5948">
        <ele>1328</ele>
        <time>2010-06-20T07:37:54Z</time>
      </trkpt>
      <trkpt lat="45.00315" lon="5.59481">
        <ele>1328</ele>
        <time>2010-06-20T07:37:55Z</time>
      </trkpt>
      <trkpt lat="45.00318" lon="5.59481">
        <ele>1328</ele>
        <time>2010-06-20T07:37:56Z</time>
      </trkpt>
      <trkpt lat="45.00322" lon="5.59481">
        <ele>1328</ele>
        <time>2010-06-20T07:37:57Z</time>
      </trkpt>
      <trkpt lat="45.00325" lon="5.5948">
        <ele>1328</ele>
        <time>2010-06-20T07:37:58Z</time>
      </trkpt>
      <trkpt lat="45.00328" lon="5.59479">
        <ele>1328</ele>
        <time>2010-06-20T07:37:59Z</time>
      </trkpt>
      <trkpt lat="45.00331" lon="5.59478">
        <ele>1328</ele>
        <time>2010-06-20T07:38:00Z</time>
      </trkpt>
      <trkpt lat="45.00334" lon="5.59476">
        <ele>1328</ele>
        <time>2010-06-20T07:38:01Z</time>
      </trkpt>
      <trkpt lat="45.00338" lon="5.59475">
        <ele>1328</ele>
        <time>2010-06-20T07:38:02Z</time>
      </trkpt>
      <trkpt lat="45.00341" lon="5.59473">
        <ele>1328</ele>
        <time>2010-06-20T07:38:03Z</time>
      </trkpt>
      <trkpt lat="45.00343" lon="5.59472">
        <ele>1328</ele>
        <time>2010-06-20T07:38:04Z</time>
      </trkpt>
      <trkpt lat="45.00347" lon="5.5947">
        <ele>1327</ele>
        <time>2010-06-20T07:38:05Z</time>
      </trkpt>
      <trkpt lat="45.0035" lon="5.59469">
        <ele>1327</ele>
        <time>2010-06-20T07:38:06Z</time>
      </trkpt>
      <trkpt lat="45.00353" lon="5.59468">
        <ele>1327</ele>
        <time>2010-06-20T07:38:07Z</time>
      </trkpt>
      <trkpt lat="45.00356" lon="5.59467">
        <ele>1326</ele>
        <time>2010-06-20T07:38:08Z</time>
      </trkpt>
      <trkpt lat="45.00359" lon="5.59467">
        <ele>1326</ele>
        <time>2010-06-20T07:38:09Z</time>
      </trkpt>
      <trkpt lat="45.00362" lon="5.59467">
        <ele>1326</ele>
        <time>2010-06-20T07:38:10Z</time>
      </trkpt>
      <trkpt lat="45.00364" lon="5.59467">
        <ele>1326</ele>
        <time>2010-06-20T07:38:11Z</time>
      </trkpt>
      <trkpt lat="45.00366" lon="5.59468">
        <ele>1326</ele>
        <time>2010-06-20T07:38:12Z</time>
      </trkpt>
      <trkpt lat="45.00369" lon="5.59469">
        <ele>1326</ele>
        <time>2010-06-20T07:38:13Z</time>
      </trkpt>
      <trkpt lat="45.00371" lon="5.59469">
        <ele>1326</ele>
        <time>2010-06-20T07:38:14Z</time>
      </trkpt>
      <trkpt lat="45.00374" lon="5.59469">
        <ele>1326</ele>
        <time>2010-06-20T07:38:15Z</time>
      </trkpt>
      <trkpt lat="45.00377" lon="5.59469">
        <ele>1325</ele>
        <time>2010-06-20T07:38:16Z</time>
      </trkpt>
      <trkpt lat="45.00381" lon="5.59468">
        <ele>1325</ele>
        <time>2010-06-20T07:38:17Z</time>
      </trkpt>
      <trkpt lat="45.00385" lon="5.59467">
        <ele>1324</ele>
        <time>2010-06-20T07:38:18Z</time>
      </trkpt>
      <trkpt lat="45.00388" lon="5.59467">
        <ele>1323</ele>
        <time>2010-06-20T07:38:19Z</time>
      </trkpt>
      <trkpt lat="45.00391" lon="5.59467">
        <ele>1322</ele>
        <time>2010-06-20T07:38:20Z</time>
      </trkpt>
      <trkpt lat="45.00394" lon="5.59467">
        <ele>1322</ele>
        <time>2010-06-20T07:38:21Z</time>
      </trkpt>
      <trkpt lat="45.00396" lon="5.59468">
        <ele>1321</ele>
        <time>2010-06-20T07:38:22Z</time>
      </trkpt>
      <trkpt lat="45.00398" lon="5.59468">
        <ele>1320</ele>
        <time>2010-06-20T07:38:23Z</time>
      </trkpt>
      <trkpt lat="45.00402" lon="5.59469">
        <ele>1319</ele>
        <time>2010-06-20T07:38:24Z</time>
      </trkpt>
      <trkpt lat="45.00405" lon="5.5947">
        <ele>1318</ele>
        <time>2010-06-20T07:38:25Z</time>
      </trkpt>
      <trkpt lat="45.00407" lon="5.59472">
        <ele>1317</ele>
        <time>2010-06-20T07:38:26Z</time>
      </trkpt>
      <trkpt lat="45.00409" lon="5.59476">
        <ele>1316</ele>
        <time>2010-06-20T07:38:27Z</time>
      </trkpt>
      <trkpt lat="45.00411" lon="5.5948">
        <ele>1315</ele>
        <time>2010-06-20T07:38:28Z</time>
      </trkpt>
      <trkpt lat="45.00413" lon="5.59483">
        <ele>1314</ele>
        <time>2010-06-20T07:38:29Z</time>
      </trkpt>
      <trkpt lat="45.00415" lon="5.59486">
        <ele>1313</ele>
        <time>2010-06-20T07:38:30Z</time>
      </trkpt>
      <trkpt lat="45.00416" lon="5.5949">
        <ele>1312</ele>
        <time>2010-06-20T07:38:31Z</time>
      </trkpt>
      <trkpt lat="45.00418" lon="5.59494">
        <ele>1311</ele>
        <time>2010-06-20T07:38:32Z</time>
      </trkpt>
      <trkpt lat="45.0042" lon="5.59497">
        <ele>1310</ele>
        <time>2010-06-20T07:38:33Z</time>
      </trkpt>
      <trkpt lat="45.00422" lon="5.595">
        <ele>1309</ele>
        <time>2010-06-20T07:38:34Z</time>
      </trkpt>
      <trkpt lat="45.00425" lon="5.59503">
        <ele>1308</ele>
        <time>2010-06-20T07:38:35Z</time>
      </trkpt>
      <trkpt lat="45.00428" lon="5.59506">
        <ele>1307</ele>
        <time>2010-06-20T07:38:36Z</time>
      </trkpt>
      <trkpt lat="45.00431" lon="5.59508">
        <ele>1307</ele>
        <time>2010-06-20T07:38:37Z</time>
      </trkpt>
      <trkpt lat="45.00434" lon="5.59511">
        <ele>1307</ele>
        <time>2010-06-20T07:38:38Z</time>
      </trkpt>
      <trkpt lat="45.00437" lon="5.59514">
        <ele>1307</ele>
        <time>2010-06-20T07:38:39Z</time>
      </trkpt>
      <trkpt lat="45.00439" lon="5.59518">
        <ele>1307</ele>
        <time>2010-06-20T07:38:40Z</time>
      </trkpt>
      <trkpt lat="45.00442" lon="5.59521">
        <ele>1307</ele>
        <time>2010-06-20T07:38:41Z</time>
      </trkpt>
      <trkpt lat="45.00445" lon="5.59523">
        <ele>1307</ele>
        <time>2010-06-20T07:38:42Z</time>
      </trkpt>
      <trkpt lat="45.00448" lon="5.59526">
        <ele>1306</ele>
        <time>2010-06-20T07:38:43Z</time>
      </trkpt>
      <trkpt lat="45.00451" lon="5.59529">
        <ele>1305</ele>
        <time>2010-06-20T07:38:44Z</time>
      </trkpt>
      <trkpt lat="45.00453" lon="5.59531">
        <ele>1304</ele>
        <time>2010-06-20T07:38:45Z</time>
      </trkpt>
      <trkpt lat="45.00456" lon="5.59533">
        <ele>1303</ele>
        <time>2010-06-20T07:38:46Z</time>
      </trkpt>
      <trkpt lat="45.00459" lon="5.59535">
        <ele>1302</ele>
        <time>2010-06-20T07:38:47Z</time>
      </trkpt>
      <trkpt lat="45.00461" lon="5.59537">
        <ele>1301</ele>
        <time>2010-06-20T07:38:48Z</time>
      </trkpt>
      <trkpt lat="45.00463" lon="5.59538">
        <ele>1300</ele>
        <time>2010-06-20T07:38:49Z</time>
      </trkpt>
      <trkpt lat="45.00465" lon="5.5954">
        <ele>1300</ele>
        <time>2010-06-20T07:38:50Z</time>
      </trkpt>
      <trkpt lat="45.00468" lon="5.59541">
        <ele>1299</ele>
        <time>2010-06-20T07:38:51Z</time>
      </trkpt>
      <trkpt lat="45.00471" lon="5.59541">
        <ele>1299</ele>
        <time>2010-06-20T07:38:52Z</time>
      </trkpt>
      <trkpt lat="45.00474" lon="5.59541">
        <ele>1298</ele>
        <time>2010-06-20T07:38:53Z</time>
      </trkpt>
      <trkpt lat="45.00477" lon="5.59541">
        <ele>1297</ele>
        <time>2010-06-20T07:38:54Z</time>
      </trkpt>
      <trkpt lat="45.0048" lon="5.59541">
        <ele>1296</ele>
        <time>2010-06-20T07:38:55Z</time>
      </trkpt>
      <trkpt lat="45.00483" lon="5.59541">
        <ele>1295</ele>
        <time>2010-06-20T07:38:56Z</time>
      </trkpt>
      <trkpt lat="45.00486" lon="5.59541">
        <ele>1294</ele>
        <time>2010-06-20T07:38:57Z</time>
      </trkpt>
      <trkpt lat="45.00489" lon="5.59541">
        <ele>1293</ele>
        <time>2010-06-20T07:38:58Z</time>
      </trkpt>
      <trkpt lat="45.00492" lon="5.5954">
        <ele>1292</ele>
        <time>2010-06-20T07:38:59Z</time>
      </trkpt>
      <trkpt lat="45.00494" lon="5.59539">
        <ele>1291</ele>
        <time>2010-06-20T07:39:00Z</time>
      </trkpt>
      <trkpt lat="45.00497" lon="5.59538">
        <ele>1290</ele>
        <time>2010-06-20T07:39:01Z</time>
      </trkpt>
      <trkpt lat="45.005" lon="5.59538">
        <ele>1289</ele>
        <time>2010-06-20T07:39:02Z</time>
      </trkpt>
      <trkpt lat="45.00504" lon="5.59537">
        <ele>1288</ele>
        <time>2010-06-20T07:39:03Z</time>
      </trkpt>
      <trkpt lat="45.00508" lon="5.59536">
        <ele>1287</ele>
        <time>2010-06-20T07:39:04Z</time>
      </trkpt>
      <trkpt lat="45.00512" lon="5.59536">
        <ele>1287</ele>
        <time>2010-06-20T07:39:05Z</time>
      </trkpt>
      <trkpt lat="45.00515" lon="5.59534">
        <ele>1287</ele>
        <time>2010-06-20T07:39:06Z</time>
      </trkpt>
      <trkpt lat="45.00518" lon="5.59532">
        <ele>1287</ele>
        <time>2010-06-20T07:39:07Z</time>
      </trkpt>
      <trkpt lat="45.00521" lon="5.59531">
        <ele>1287</ele>
        <time>2010-06-20T07:39:08Z</time>
      </trkpt>
      <trkpt lat="45.00524" lon="5.5953">
        <ele>1287</ele>
        <time>2010-06-20T07:39:09Z</time>
      </trkpt>
      <trkpt lat="45.00527" lon="5.59531">
        <ele>1287</ele>
        <time>2010-06-20T07:39:10Z</time>
      </trkpt>
      <trkpt lat="45.0053" lon="5.59531">
        <ele>1287</ele>
        <time>2010-06-20T07:39:11Z</time>
      </trkpt>
      <trkpt lat="45.00535" lon="5.59531">
        <ele>1287</ele>
        <time>2010-06-20T07:39:12Z</time>
      </trkpt>
      <trkpt lat="45.00539" lon="5.59529">
        <ele>1287</ele>
        <time>2010-06-20T07:39:13Z</time>
      </trkpt>
      <trkpt lat="45.00542" lon="5.59529">
        <ele>1287</ele>
        <time>2010-06-20T07:39:14Z</time>
      </trkpt>
      <trkpt lat="45.00545" lon="5.59529">
        <ele>1287</ele>
        <time>2010-06-20T07:39:15Z</time>
      </trkpt>
      <trkpt lat="45.00548" lon="5.59529">
        <ele>1287</ele>
        <time>2010-06-20T07:39:16Z</time>
      </trkpt>
      <trkpt lat="45.00551" lon="5.59528">
        <ele>1287</ele>
        <time>2010-06-20T07:39:17Z</time>
      </trkpt>
      <trkpt lat="45.00554" lon="5.59528">
        <ele>1287</ele>
        <time>2010-06-20T07:39:18Z</time>
      </trkpt>
      <trkpt lat="45.00557" lon="5.59528">
        <ele>1287</ele>
        <time>2010-06-20T07:39:19Z</time>
      </trkpt>
      <trkpt lat="45.00559" lon="5.5953">
        <ele>1287</ele>
        <time>2010-06-20T07:39:20Z</time>
      </trkpt>
      <trkpt lat="45.00563" lon="5.59532">
        <ele>1287</ele>
        <time>2010-06-20T07:39:21Z</time>
      </trkpt>
      <trkpt lat="45.00566" lon="5.59535">
        <ele>1287</ele>
        <time>2010-06-20T07:39:22Z</time>
      </trkpt>
      <trkpt lat="45.00568" lon="5.59538">
        <ele>1287</ele>
        <time>2010-06-20T07:39:23Z</time>
      </trkpt>
      <trkpt lat="45.00571" lon="5.5954">
        <ele>1287</ele>
        <time>2010-06-20T07:39:24Z</time>
      </trkpt>
      <trkpt lat="45.00574" lon="5.59542">
        <ele>1287</ele>
        <time>2010-06-20T07:39:25Z</time>
      </trkpt>
      <trkpt lat="45.00577" lon="5.59545">
        <ele>1287</ele>
        <time>2010-06-20T07:39:26Z</time>
      </trkpt>
      <trkpt lat="45.00579" lon="5.59547">
        <ele>1286</ele>
        <time>2010-06-20T07:39:27Z</time>
      </trkpt>
      <trkpt lat="45.00581" lon="5.5955">
        <ele>1286</ele>
        <time>2010-06-20T07:39:28Z</time>
      </trkpt>
      <trkpt lat="45.00583" lon="5.59553">
        <ele>1286</ele>
        <time>2010-06-20T07:39:29Z</time>
      </trkpt>
      <trkpt lat="45.00586" lon="5.59556">
        <ele>1286</ele>
        <time>2010-06-20T07:39:30Z</time>
      </trkpt>
      <trkpt lat="45.00588" lon="5.59559">
        <ele>1285</ele>
        <time>2010-06-20T07:39:31Z</time>
      </trkpt>
      <trkpt lat="45.0059" lon="5.59561">
        <ele>1285</ele>
        <time>2010-06-20T07:39:32Z</time>
      </trkpt>
      <trkpt lat="45.00593" lon="5.59561">
        <ele>1285</ele>
        <time>2010-06-20T07:39:33Z</time>
      </trkpt>
      <trkpt lat="45.00596" lon="5.59562">
        <ele>1285</ele>
        <time>2010-06-20T07:39:34Z</time>
      </trkpt>
      <trkpt lat="45.00599" lon="5.59561">
        <ele>1285</ele>
        <time>2010-06-20T07:39:35Z</time>
      </trkpt>
      <trkpt lat="45.00603" lon="5.59561">
        <ele>1285</ele>
        <time>2010-06-20T07:39:36Z</time>
      </trkpt>
      <trkpt lat="45.00606" lon="5.59559">
        <ele>1285</ele>
        <time>2010-06-20T07:39:37Z</time>
      </trkpt>
      <trkpt lat="45.00609" lon="5.59557">
        <ele>1285</ele>
        <time>2010-06-20T07:39:38Z</time>
      </trkpt>
      <trkpt lat="45.00612" lon="5.59555">
        <ele>1285</ele>
        <time>2010-06-20T07:39:39Z</time>
      </trkpt>
      <trkpt lat="45.00615" lon="5.59552">
        <ele>1285</ele>
        <time>2010-06-20T07:39:40Z</time>
      </trkpt>
      <trkpt lat="45.00617" lon="5.59549">
        <ele>1285</ele>
        <time>2010-06-20T07:39:41Z</time>
      </trkpt>
      <trkpt lat="45.0062" lon="5.59547">
        <ele>1285</ele>
        <time>2010-06-20T07:39:42Z</time>
      </trkpt>
      <trkpt lat="45.00622" lon="5.59545">
        <ele>1285</ele>
        <time>2010-06-20T07:39:43Z</time>
      </trkpt>
      <trkpt lat="45.00625" lon="5.59544">
        <ele>1285</ele>
        <time>2010-06-20T07:39:44Z</time>
      </trkpt>
      <trkpt lat="45.00628" lon="5.59542">
        <ele>1285</ele>
        <time>2010-06-20T07:39:45Z</time>
      </trkpt>
      <trkpt lat="45.00631" lon="5.5954">
        <ele>1285</ele>
        <time>2010-06-20T07:39:46Z</time>
      </trkpt>
      <trkpt lat="45.00633" lon="5.59539">
        <ele>1285</ele>
        <time>2010-06-20T07:39:47Z</time>
      </trkpt>
      <trkpt lat="45.00636" lon="5.59537">
        <ele>1285</ele>
        <time>2010-06-20T07:39:48Z</time>
      </trkpt>
      <trkpt lat="45.00639" lon="5.59536">
        <ele>1284</ele>
        <time>2010-06-20T07:39:49Z</time>
      </trkpt>
      <trkpt lat="45.00642" lon="5.59535">
        <ele>1284</ele>
        <time>2010-06-20T07:39:50Z</time>
      </trkpt>
      <trkpt lat="45.00645" lon="5.59535">
        <ele>1283</ele>
        <time>2010-06-20T07:39:51Z</time>
      </trkpt>
      <trkpt lat="45.00648" lon="5.59535">
        <ele>1283</ele>
        <time>2010-06-20T07:39:52Z</time>
      </trkpt>
      <trkpt lat="45.0065" lon="5.59536">
        <ele>1283</ele>
        <time>2010-06-20T07:39:53Z</time>
      </trkpt>
      <trkpt lat="45.00652" lon="5.59536">
        <ele>1283</ele>
        <time>2010-06-20T07:39:54Z</time>
      </trkpt>
      <trkpt lat="45.00654" lon="5.59536">
        <ele>1283</ele>
        <time>2010-06-20T07:39:55Z</time>
      </trkpt>
      <trkpt lat="45.00656" lon="5.59536">
        <ele>1282</ele>
        <time>2010-06-20T07:39:56Z</time>
      </trkpt>
      <trkpt lat="45.00658" lon="5.59535">
        <ele>1281</ele>
        <time>2010-06-20T07:39:57Z</time>
      </trkpt>
      <trkpt lat="45.0066" lon="5.59535">
        <ele>1280</ele>
        <time>2010-06-20T07:39:58Z</time>
      </trkpt>
      <trkpt lat="45.00662" lon="5.59534">
        <ele>1279</ele>
        <time>2010-06-20T07:39:59Z</time>
      </trkpt>
      <trkpt lat="45.00664" lon="5.59533">
        <ele>1278</ele>
        <time>2010-06-20T07:40:00Z</time>
      </trkpt>
      <trkpt lat="45.00666" lon="5.59532">
        <ele>1277</ele>
        <time>2010-06-20T07:40:01Z</time>
      </trkpt>
      <trkpt lat="45.00669" lon="5.59532">
        <ele>1276</ele>
        <time>2010-06-20T07:40:02Z</time>
      </trkpt>
      <trkpt lat="45.00672" lon="5.59531">
        <ele>1275</ele>
        <time>2010-06-20T07:40:03Z</time>
      </trkpt>
      <trkpt lat="45.00674" lon="5.59531">
        <ele>1274</ele>
        <time>2010-06-20T07:40:04Z</time>
      </trkpt>
      <trkpt lat="45.00677" lon="5.59529">
        <ele>1273</ele>
        <time>2010-06-20T07:40:05Z</time>
      </trkpt>
      <trkpt lat="45.00679" lon="5.59528">
        <ele>1272</ele>
        <time>2010-06-20T07:40:06Z</time>
      </trkpt>
      <trkpt lat="45.00682" lon="5.59527">
        <ele>1271</ele>
        <time>2010-06-20T07:40:07Z</time>
      </trkpt>
      <trkpt lat="45.00684" lon="5.59527">
        <ele>1270</ele>
        <time>2010-06-20T07:40:08Z</time>
      </trkpt>
      <trkpt lat="45.00687" lon="5.59526">
        <ele>1269</ele>
        <time>2010-06-20T07:40:09Z</time>
      </trkpt>
      <trkpt lat="45.00689" lon="5.59525">
        <ele>1269</ele>
        <time>2010-06-20T07:40:10Z</time>
      </trkpt>
      <trkpt lat="45.00692" lon="5.59524">
        <ele>1269</ele>
        <time>2010-06-20T07:40:11Z</time>
      </trkpt>
      <trkpt lat="45.00695" lon="5.59524">
        <ele>1269</ele>
        <time>2010-06-20T07:40:12Z</time>
      </trkpt>
      <trkpt lat="45.00699" lon="5.59524">
        <ele>1269</ele>
        <time>2010-06-20T07:40:13Z</time>
      </trkpt>
      <trkpt lat="45.00702" lon="5.59524">
        <ele>1269</ele>
        <time>2010-06-20T07:40:14Z</time>
      </trkpt>
      <trkpt lat="45.00704" lon="5.59526">
        <ele>1269</ele>
        <time>2010-06-20T07:40:15Z</time>
      </trkpt>
      <trkpt lat="45.00706" lon="5.59528">
        <ele>1268</ele>
        <time>2010-06-20T07:40:16Z</time>
      </trkpt>
      <trkpt lat="45.00708" lon="5.5953">
        <ele>1268</ele>
        <time>2010-06-20T07:40:17Z</time>
      </trkpt>
      <trkpt lat="45.0071" lon="5.59532">
        <ele>1267</ele>
        <time>2010-06-20T07:40:18Z</time>
      </trkpt>
      <trkpt lat="45.00712" lon="5.59535">
        <ele>1266</ele>
        <time>2010-06-20T07:40:19Z</time>
      </trkpt>
      <trkpt lat="45.00714" lon="5.59539">
        <ele>1266</ele>
        <time>2010-06-20T07:40:20Z</time>
      </trkpt>
      <trkpt lat="45.00715" lon="5.59543">
        <ele>1265</ele>
        <time>2010-06-20T07:40:21Z</time>
      </trkpt>
      <trkpt lat="45.00717" lon="5.59547">
        <ele>1264</ele>
        <time>2010-06-20T07:40:22Z</time>
      </trkpt>
      <trkpt lat="45.00719" lon="5.5955">
        <ele>1264</ele>
        <time>2010-06-20T07:40:23Z</time>
      </trkpt>
      <trkpt lat="45.00721" lon="5.59552">
        <ele>1263</ele>
        <time>2010-06-20T07:40:24Z</time>
      </trkpt>
      <trkpt lat="45.00723" lon="5.59553">
        <ele>1262</ele>
        <time>2010-06-20T07:40:25Z</time>
      </trkpt>
      <trkpt lat="45.00726" lon="5.59553">
        <ele>1262</ele>
        <time>2010-06-20T07:40:26Z</time>
      </trkpt>
      <trkpt lat="45.00728" lon="5.59554">
        <ele>1262</ele>
        <time>2010-06-20T07:40:27Z</time>
      </trkpt>
      <trkpt lat="45.0073" lon="5.59554">
        <ele>1262</ele>
        <time>2010-06-20T07:40:28Z</time>
      </trkpt>
      <trkpt lat="45.00733" lon="5.59555">
        <ele>1262</ele>
        <time>2010-06-20T07:40:29Z</time>
      </trkpt>
      <trkpt lat="45.00735" lon="5.59556">
        <ele>1262</ele>
        <time>2010-06-20T07:40:30Z</time>
      </trkpt>
      <trkpt lat="45.00738" lon="5.59557">
        <ele>1262</ele>
        <time>2010-06-20T07:40:31Z</time>
      </trkpt>
      <trkpt lat="45.00741" lon="5.59559">
        <ele>1262</ele>
        <time>2010-06-20T07:40:32Z</time>
      </trkpt>
      <trkpt lat="45.00745" lon="5.5956">
        <ele>1262</ele>
        <time>2010-06-20T07:40:33Z</time>
      </trkpt>
      <trkpt lat="45.00748" lon="5.5956">
        <ele>1262</ele>
        <time>2010-06-20T07:40:34Z</time>
      </trkpt>
      <trkpt lat="45.00751" lon="5.5956">
        <ele>1262</ele>
        <time>2010-06-20T07:40:35Z</time>
      </trkpt>
      <trkpt lat="45.00754" lon="5.5956">
        <ele>1261</ele>
        <time>2010-06-20T07:40:36Z</time>
      </trkpt>
      <trkpt lat="45.00756" lon="5.59558">
        <ele>1261</ele>
        <time>2010-06-20T07:40:37Z</time>
      </trkpt>
      <trkpt lat="45.00758" lon="5.59556">
        <ele>1261</ele>
        <time>2010-06-20T07:40:38Z</time>
      </trkpt>
      <trkpt lat="45.0076" lon="5.59555">
        <ele>1261</ele>
        <time>2010-06-20T07:40:39Z</time>
      </trkpt>
      <trkpt lat="45.00762" lon="5.59553">
        <ele>1261</ele>
        <time>2010-06-20T07:40:40Z</time>
      </trkpt>
      <trkpt lat="45.00764" lon="5.59552">
        <ele>1261</ele>
        <time>2010-06-20T07:40:41Z</time>
      </trkpt>
      <trkpt lat="45.00767" lon="5.59551">
        <ele>1261</ele>
        <time>2010-06-20T07:40:42Z</time>
      </trkpt>
      <trkpt lat="45.00769" lon="5.5955">
        <ele>1261</ele>
        <time>2010-06-20T07:40:43Z</time>
      </trkpt>
      <trkpt lat="45.00771" lon="5.59548">
        <ele>1261</ele>
        <time>2010-06-20T07:40:44Z</time>
      </trkpt>
      <trkpt lat="45.00773" lon="5.59547">
        <ele>1262</ele>
        <time>2010-06-20T07:40:45Z</time>
      </trkpt>
      <trkpt lat="45.00774" lon="5.59546">
        <ele>1262</ele>
        <time>2010-06-20T07:40:46Z</time>
      </trkpt>
      <trkpt lat="45.00776" lon="5.59543">
        <ele>1263</ele>
        <time>2010-06-20T07:40:47Z</time>
      </trkpt>
      <trkpt lat="45.00777" lon="5.59541">
        <ele>1264</ele>
        <time>2010-06-20T07:40:48Z</time>
      </trkpt>
      <trkpt lat="45.00778" lon="5.59539">
        <ele>1264</ele>
        <time>2010-06-20T07:40:49Z</time>
      </trkpt>
      <trkpt lat="45.0078" lon="5.59536">
        <ele>1265</ele>
        <time>2010-06-20T07:40:50Z</time>
      </trkpt>
      <trkpt lat="45.00781" lon="5.59533">
        <ele>1266</ele>
        <time>2010-06-20T07:40:51Z</time>
      </trkpt>
      <trkpt lat="45.00783" lon="5.59531">
        <ele>1267</ele>
        <time>2010-06-20T07:40:52Z</time>
      </trkpt>
      <trkpt lat="45.00785" lon="5.5953">
        <ele>1268</ele>
        <time>2010-06-20T07:40:53Z</time>
      </trkpt>
      <trkpt lat="45.00787" lon="5.59527">
        <ele>1269</ele>
        <time>2010-06-20T07:40:54Z</time>
      </trkpt>
      <trkpt lat="45.00788" lon="5.59525">
        <ele>1270</ele>
        <time>2010-06-20T07:40:55Z</time>
      </trkpt>
      <trkpt lat="45.00789" lon="5.59523">
        <ele>1271</ele>
        <time>2010-06-20T07:40:56Z</time>
      </trkpt>
      <trkpt lat="45.00791" lon="5.5952">
        <ele>1272</ele>
        <time>2010-06-20T07:40:57Z</time>
      </trkpt>
      <trkpt lat="45.00791" lon="5.59518">
        <ele>1273</ele>
        <time>2010-06-20T07:40:58Z</time>
      </trkpt>
      <trkpt lat="45.00792" lon="5.59516">
        <ele>1274</ele>
        <time>2010-06-20T07:40:59Z</time>
      </trkpt>
      <trkpt lat="45.00794" lon="5.59515">
        <ele>1275</ele>
        <time>2010-06-20T07:41:00Z</time>
      </trkpt>
      <trkpt lat="45.00795" lon="5.59514">
        <ele>1275</ele>
        <time>2010-06-20T07:41:01Z</time>
      </trkpt>
      <trkpt lat="45.00797" lon="5.59512">
        <ele>1275</ele>
        <time>2010-06-20T07:41:03Z</time>
      </trkpt>
      <trkpt lat="45.00798" lon="5.5951">
        <ele>1276</ele>
        <time>2010-06-20T07:41:04Z</time>
      </trkpt>
      <trkpt lat="45.008" lon="5.59509">
        <ele>1277</ele>
        <time>2010-06-20T07:41:05Z</time>
      </trkpt>
      <trkpt lat="45.00801" lon="5.59505">
        <ele>1278</ele>
        <time>2010-06-20T07:41:06Z</time>
      </trkpt>
      <trkpt lat="45.00803" lon="5.59503">
        <ele>1279</ele>
        <time>2010-06-20T07:41:08Z</time>
      </trkpt>
      <trkpt lat="45.00804" lon="5.59501">
        <ele>1279</ele>
        <time>2010-06-20T07:41:09Z</time>
      </trkpt>
      <trkpt lat="45.00806" lon="5.59499">
        <ele>1279</ele>
        <time>2010-06-20T07:41:10Z</time>
      </trkpt>
      <trkpt lat="45.00808" lon="5.59496">
        <ele>1279</ele>
        <time>2010-06-20T07:41:11Z</time>
      </trkpt>
      <trkpt lat="45.0081" lon="5.59494">
        <ele>1279</ele>
        <time>2010-06-20T07:41:12Z</time>
      </trkpt>
      <trkpt lat="45.00812" lon="5.59492">
        <ele>1279</ele>
        <time>2010-06-20T07:41:13Z</time>
      </trkpt>
      <trkpt lat="45.00813" lon="5.5949">
        <ele>1279</ele>
        <time>2010-06-20T07:41:14Z</time>
      </trkpt>
      <trkpt lat="45.00815" lon="5.59488">
        <ele>1279</ele>
        <time>2010-06-20T07:41:15Z</time>
      </trkpt>
      <trkpt lat="45.00816" lon="5.59487">
        <ele>1279</ele>
        <time>2010-06-20T07:41:16Z</time>
      </trkpt>
      <trkpt lat="45.00818" lon="5.59484">
        <ele>1279</ele>
        <time>2010-06-20T07:41:17Z</time>
      </trkpt>
      <trkpt lat="45.0082" lon="5.59482">
        <ele>1279</ele>
        <time>2010-06-20T07:41:18Z</time>
      </trkpt>
      <trkpt lat="45.00822" lon="5.5948">
        <ele>1279</ele>
        <time>2010-06-20T07:41:19Z</time>
      </trkpt>
      <trkpt lat="45.00824" lon="5.59478">
        <ele>1279</ele>
        <time>2010-06-20T07:41:20Z</time>
      </trkpt>
      <trkpt lat="45.00825" lon="5.59476">
        <ele>1280</ele>
        <time>2010-06-20T07:41:21Z</time>
      </trkpt>
      <trkpt lat="45.00827" lon="5.59474">
        <ele>1281</ele>
        <time>2010-06-20T07:41:22Z</time>
      </trkpt>
      <trkpt lat="45.00827" lon="5.5947">
        <ele>1282</ele>
        <time>2010-06-20T07:41:23Z</time>
      </trkpt>
      <trkpt lat="45.00829" lon="5.59468">
        <ele>1283</ele>
        <time>2010-06-20T07:41:24Z</time>
      </trkpt>
      <trkpt lat="45.0083" lon="5.59466">
        <ele>1284</ele>
        <time>2010-06-20T07:41:25Z</time>
      </trkpt>
      <trkpt lat="45.00831" lon="5.59465">
        <ele>1285</ele>
        <time>2010-06-20T07:41:26Z</time>
      </trkpt>
      <trkpt lat="45.00832" lon="5.59463">
        <ele>1285</ele>
        <time>2010-06-20T07:41:27Z</time>
      </trkpt>
      <trkpt lat="45.00833" lon="5.59461">
        <ele>1285</ele>
        <time>2010-06-20T07:41:28Z</time>
      </trkpt>
      <trkpt lat="45.00835" lon="5.59459">
        <ele>1285</ele>
        <time>2010-06-20T07:41:29Z</time>
      </trkpt>
      <trkpt lat="45.00836" lon="5.59457">
        <ele>1285</ele>
        <time>2010-06-20T07:41:30Z</time>
      </trkpt>
      <trkpt lat="45.00838" lon="5.59454">
        <ele>1285</ele>
        <time>2010-06-20T07:41:31Z</time>
      </trkpt>
      <trkpt lat="45.00839" lon="5.59452">
        <ele>1285</ele>
        <time>2010-06-20T07:41:32Z</time>
      </trkpt>
      <trkpt lat="45.0084" lon="5.59449">
        <ele>1285</ele>
        <time>2010-06-20T07:41:33Z</time>
      </trkpt>
      <trkpt lat="45.00841" lon="5.59446">
        <ele>1285</ele>
        <time>2010-06-20T07:41:34Z</time>
      </trkpt>
      <trkpt lat="45.00842" lon="5.59444">
        <ele>1285</ele>
        <time>2010-06-20T07:41:35Z</time>
      </trkpt>
      <trkpt lat="45.00843" lon="5.59443">
        <ele>1284</ele>
        <time>2010-06-20T07:41:36Z</time>
      </trkpt>
      <trkpt lat="45.00845" lon="5.5944">
        <ele>1284</ele>
        <time>2010-06-20T07:41:38Z</time>
      </trkpt>
      <trkpt lat="45.00845" lon="5.59438">
        <ele>1283</ele>
        <time>2010-06-20T07:41:39Z</time>
      </trkpt>
      <trkpt lat="45.00847" lon="5.59436">
        <ele>1283</ele>
        <time>2010-06-20T07:41:40Z</time>
      </trkpt>
      <trkpt lat="45.00849" lon="5.59434">
        <ele>1283</ele>
        <time>2010-06-20T07:41:41Z</time>
      </trkpt>
      <trkpt lat="45.0085" lon="5.59431">
        <ele>1283</ele>
        <time>2010-06-20T07:41:42Z</time>
      </trkpt>
      <trkpt lat="45.00851" lon="5.59429">
        <ele>1283</ele>
        <time>2010-06-20T07:41:43Z</time>
      </trkpt>
      <trkpt lat="45.00852" lon="5.59425">
        <ele>1283</ele>
        <time>2010-06-20T07:41:44Z</time>
      </trkpt>
      <trkpt lat="45.00854" lon="5.59423">
        <ele>1283</ele>
        <time>2010-06-20T07:41:45Z</time>
      </trkpt>
      <trkpt lat="45.00855" lon="5.59421">
        <ele>1283</ele>
        <time>2010-06-20T07:41:46Z</time>
      </trkpt>
      <trkpt lat="45.00856" lon="5.59419">
        <ele>1283</ele>
        <time>2010-06-20T07:41:47Z</time>
      </trkpt>
      <trkpt lat="45.00858" lon="5.59417">
        <ele>1283</ele>
        <time>2010-06-20T07:41:48Z</time>
      </trkpt>
      <trkpt lat="45.00859" lon="5.59416">
        <ele>1283</ele>
        <time>2010-06-20T07:41:49Z</time>
      </trkpt>
      <trkpt lat="45.00861" lon="5.59415">
        <ele>1283</ele>
        <time>2010-06-20T07:41:50Z</time>
      </trkpt>
      <trkpt lat="45.00863" lon="5.59413">
        <ele>1283</ele>
        <time>2010-06-20T07:41:51Z</time>
      </trkpt>
      <trkpt lat="45.00864" lon="5.59412">
        <ele>1283</ele>
        <time>2010-06-20T07:41:52Z</time>
      </trkpt>
      <trkpt lat="45.00866" lon="5.59412">
        <ele>1283</ele>
        <time>2010-06-20T07:41:53Z</time>
      </trkpt>
      <trkpt lat="45.00867" lon="5.59411">
        <ele>1283</ele>
        <time>2010-06-20T07:41:54Z</time>
      </trkpt>
      <trkpt lat="45.00869" lon="5.5941">
        <ele>1283</ele>
        <time>2010-06-20T07:41:55Z</time>
      </trkpt>
      <trkpt lat="45.0087" lon="5.59408">
        <ele>1284</ele>
        <time>2010-06-20T07:41:56Z</time>
      </trkpt>
      <trkpt lat="45.00871" lon="5.59405">
        <ele>1284</ele>
        <time>2010-06-20T07:41:57Z</time>
      </trkpt>
      <trkpt lat="45.00872" lon="5.59402">
        <ele>1285</ele>
        <time>2010-06-20T07:41:58Z</time>
      </trkpt>
      <trkpt lat="45.00874" lon="5.59399">
        <ele>1286</ele>
        <time>2010-06-20T07:41:59Z</time>
      </trkpt>
      <trkpt lat="45.00876" lon="5.59397">
        <ele>1286</ele>
        <time>2010-06-20T07:42:00Z</time>
      </trkpt>
      <trkpt lat="45.00877" lon="5.59395">
        <ele>1287</ele>
        <time>2010-06-20T07:42:01Z</time>
      </trkpt>
      <trkpt lat="45.00878" lon="5.59393">
        <ele>1287</ele>
        <time>2010-06-20T07:42:02Z</time>
      </trkpt>
      <trkpt lat="45.0088" lon="5.59391">
        <ele>1287</ele>
        <time>2010-06-20T07:42:03Z</time>
      </trkpt>
      <trkpt lat="45.00881" lon="5.59389">
        <ele>1287</ele>
        <time>2010-06-20T07:42:04Z</time>
      </trkpt>
      <trkpt lat="45.00882" lon="5.59387">
        <ele>1287</ele>
        <time>2010-06-20T07:42:05Z</time>
      </trkpt>
      <trkpt lat="45.00883" lon="5.59385">
        <ele>1287</ele>
        <time>2010-06-20T07:42:06Z</time>
      </trkpt>
      <trkpt lat="45.00884" lon="5.59383">
        <ele>1288</ele>
        <time>2010-06-20T07:42:07Z</time>
      </trkpt>
      <trkpt lat="45.00886" lon="5.59382">
        <ele>1289</ele>
        <time>2010-06-20T07:42:08Z</time>
      </trkpt>
      <trkpt lat="45.00888" lon="5.59381">
        <ele>1290</ele>
        <time>2010-06-20T07:42:09Z</time>
      </trkpt>
      <trkpt lat="45.0089" lon="5.5938">
        <ele>1290</ele>
        <time>2010-06-20T07:42:10Z</time>
      </trkpt>
      <trkpt lat="45.00891" lon="5.59378">
        <ele>1291</ele>
        <time>2010-06-20T07:42:11Z</time>
      </trkpt>
      <trkpt lat="45.00893" lon="5.59377">
        <ele>1291</ele>
        <time>2010-06-20T07:42:12Z</time>
      </trkpt>
      <trkpt lat="45.00895" lon="5.59375">
        <ele>1291</ele>
        <time>2010-06-20T07:42:13Z</time>
      </trkpt>
      <trkpt lat="45.00896" lon="5.59374">
        <ele>1291</ele>
        <time>2010-06-20T07:42:14Z</time>
      </trkpt>
      <trkpt lat="45.00897" lon="5.59372">
        <ele>1291</ele>
        <time>2010-06-20T07:42:15Z</time>
      </trkpt>
      <trkpt lat="45.00899" lon="5.59371">
        <ele>1291</ele>
        <time>2010-06-20T07:42:16Z</time>
      </trkpt>
      <trkpt lat="45.00901" lon="5.5937">
        <ele>1291</ele>
        <time>2010-06-20T07:42:17Z</time>
      </trkpt>
      <trkpt lat="45.00902" lon="5.59369">
        <ele>1291</ele>
        <time>2010-06-20T07:42:18Z</time>
      </trkpt>
      <trkpt lat="45.00904" lon="5.59368">
        <ele>1291</ele>
        <time>2010-06-20T07:42:19Z</time>
      </trkpt>
      <trkpt lat="45.00906" lon="5.59367">
        <ele>1291</ele>
        <time>2010-06-20T07:42:20Z</time>
      </trkpt>
      <trkpt lat="45.00908" lon="5.59365">
        <ele>1291</ele>
        <time>2010-06-20T07:42:22Z</time>
      </trkpt>
      <trkpt lat="45.0091" lon="5.59366">
        <ele>1291</ele>
        <time>2010-06-20T07:42:23Z</time>
      </trkpt>
      <trkpt lat="45.00912" lon="5.59366">
        <ele>1291</ele>
        <time>2010-06-20T07:42:24Z</time>
      </trkpt>
      <trkpt lat="45.00914" lon="5.59368">
        <ele>1291</ele>
        <time>2010-06-20T07:42:26Z</time>
      </trkpt>
      <trkpt lat="45.00916" lon="5.59369">
        <ele>1291</ele>
        <time>2010-06-20T07:42:27Z</time>
      </trkpt>
      <trkpt lat="45.00918" lon="5.5937">
        <ele>1291</ele>
        <time>2010-06-20T07:42:28Z</time>
      </trkpt>
      <trkpt lat="45.0092" lon="5.5937">
        <ele>1291</ele>
        <time>2010-06-20T07:42:29Z</time>
      </trkpt>
      <trkpt lat="45.00922" lon="5.59371">
        <ele>1291</ele>
        <time>2010-06-20T07:42:30Z</time>
      </trkpt>
      <trkpt lat="45.00923" lon="5.59373">
        <ele>1291</ele>
        <time>2010-06-20T07:42:31Z</time>
      </trkpt>
      <trkpt lat="45.00924" lon="5.59375">
        <ele>1291</ele>
        <time>2010-06-20T07:42:32Z</time>
      </trkpt>
      <trkpt lat="45.00926" lon="5.59378">
        <ele>1291</ele>
        <time>2010-06-20T07:42:33Z</time>
      </trkpt>
      <trkpt lat="45.00928" lon="5.59381">
        <ele>1291</ele>
        <time>2010-06-20T07:42:34Z</time>
      </trkpt>
      <trkpt lat="45.0093" lon="5.59382">
        <ele>1292</ele>
        <time>2010-06-20T07:42:35Z</time>
      </trkpt>
      <trkpt lat="45.00931" lon="5.59384">
        <ele>1293</ele>
        <time>2010-06-20T07:42:36Z</time>
      </trkpt>
      <trkpt lat="45.00932" lon="5.59386">
        <ele>1294</ele>
        <time>2010-06-20T07:42:37Z</time>
      </trkpt>
      <trkpt lat="45.00933" lon="5.59389">
        <ele>1295</ele>
        <time>2010-06-20T07:42:38Z</time>
      </trkpt>
      <trkpt lat="45.00934" lon="5.59391">
        <ele>1296</ele>
        <time>2010-06-20T07:42:39Z</time>
      </trkpt>
      <trkpt lat="45.00935" lon="5.59393">
        <ele>1297</ele>
        <time>2010-06-20T07:42:40Z</time>
      </trkpt>
      <trkpt lat="45.00936" lon="5.59395">
        <ele>1298</ele>
        <time>2010-06-20T07:42:41Z</time>
      </trkpt>
      <trkpt lat="45.00938" lon="5.59396">
        <ele>1299</ele>
        <time>2010-06-20T07:42:42Z</time>
      </trkpt>
      <trkpt lat="45.00939" lon="5.59398">
        <ele>1300</ele>
        <time>2010-06-20T07:42:43Z</time>
      </trkpt>
      <trkpt lat="45.0094" lon="5.59399">
        <ele>1301</ele>
        <time>2010-06-20T07:42:44Z</time>
      </trkpt>
      <trkpt lat="45.00942" lon="5.594">
        <ele>1302</ele>
        <time>2010-06-20T07:42:45Z</time>
      </trkpt>
      <trkpt lat="45.00943" lon="5.59401">
        <ele>1303</ele>
        <time>2010-06-20T07:42:46Z</time>
      </trkpt>
      <trkpt lat="45.00945" lon="5.59401">
        <ele>1303</ele>
        <time>2010-06-20T07:42:47Z</time>
      </trkpt>
      <trkpt lat="45.00946" lon="5.59403">
        <ele>1303</ele>
        <time>2010-06-20T07:42:48Z</time>
      </trkpt>
      <trkpt lat="45.00947" lon="5.59403">
        <ele>1303</ele>
        <time>2010-06-20T07:42:49Z</time>
      </trkpt>
      <trkpt lat="45.00949" lon="5.59403">
        <ele>1303</ele>
        <time>2010-06-20T07:42:50Z</time>
      </trkpt>
      <trkpt lat="45.0095" lon="5.59403">
        <ele>1303</ele>
        <time>2010-06-20T07:42:51Z</time>
      </trkpt>
      <trkpt lat="45.00952" lon="5.59404">
        <ele>1303</ele>
        <time>2010-06-20T07:42:52Z</time>
      </trkpt>
      <trkpt lat="45.00954" lon="5.59404">
        <ele>1303</ele>
        <time>2010-06-20T07:42:53Z</time>
      </trkpt>
      <trkpt lat="45.00957" lon="5.59404">
        <ele>1304</ele>
        <time>2010-06-20T07:42:54Z</time>
      </trkpt>
      <trkpt lat="45.00959" lon="5.59403">
        <ele>1304</ele>
        <time>2010-06-20T07:42:55Z</time>
      </trkpt>
      <trkpt lat="45.0096" lon="5.59403">
        <ele>1304</ele>
        <time>2010-06-20T07:42:56Z</time>
      </trkpt>
      <trkpt lat="45.00962" lon="5.59401">
        <ele>1304</ele>
        <time>2010-06-20T07:42:57Z</time>
      </trkpt>
      <trkpt lat="45.00963" lon="5.594">
        <ele>1304</ele>
        <time>2010-06-20T07:42:58Z</time>
      </trkpt>
      <trkpt lat="45.00966" lon="5.59397">
        <ele>1306</ele>
        <time>2010-06-20T07:43:00Z</time>
      </trkpt>
      <trkpt lat="45.00967" lon="5.59395">
        <ele>1307</ele>
        <time>2010-06-20T07:43:01Z</time>
      </trkpt>
      <trkpt lat="45.00968" lon="5.59393">
        <ele>1308</ele>
        <time>2010-06-20T07:43:02Z</time>
      </trkpt>
      <trkpt lat="45.0097" lon="5.59391">
        <ele>1309</ele>
        <time>2010-06-20T07:43:03Z</time>
      </trkpt>
      <trkpt lat="45.00972" lon="5.5939">
        <ele>1310</ele>
        <time>2010-06-20T07:43:04Z</time>
      </trkpt>
      <trkpt lat="45.00973" lon="5.59388">
        <ele>1311</ele>
        <time>2010-06-20T07:43:05Z</time>
      </trkpt>
      <trkpt lat="45.00975" lon="5.59387">
        <ele>1311</ele>
        <time>2010-06-20T07:43:06Z</time>
      </trkpt>
      <trkpt lat="45.00976" lon="5.59385">
        <ele>1312</ele>
        <time>2010-06-20T07:43:07Z</time>
      </trkpt>
      <trkpt lat="45.00978" lon="5.59383">
        <ele>1313</ele>
        <time>2010-06-20T07:43:08Z</time>
      </trkpt>
      <trkpt lat="45.00979" lon="5.59382">
        <ele>1314</ele>
        <time>2010-06-20T07:43:09Z</time>
      </trkpt>
      <trkpt lat="45.0098" lon="5.5938">
        <ele>1315</ele>
        <time>2010-06-20T07:43:10Z</time>
      </trkpt>
      <trkpt lat="45.00982" lon="5.59378">
        <ele>1316</ele>
        <time>2010-06-20T07:43:11Z</time>
      </trkpt>
      <trkpt lat="45.00982" lon="5.59376">
        <ele>1317</ele>
        <time>2010-06-20T07:43:12Z</time>
      </trkpt>
      <trkpt lat="45.00983" lon="5.59374">
        <ele>1317</ele>
        <time>2010-06-20T07:43:13Z</time>
      </trkpt>
      <trkpt lat="45.00985" lon="5.59373">
        <ele>1318</ele>
        <time>2010-06-20T07:43:14Z</time>
      </trkpt>
      <trkpt lat="45.00986" lon="5.59371">
        <ele>1318</ele>
        <time>2010-06-20T07:43:15Z</time>
      </trkpt>
      <trkpt lat="45.00988" lon="5.5937">
        <ele>1318</ele>
        <time>2010-06-20T07:43:16Z</time>
      </trkpt>
      <trkpt lat="45.0099" lon="5.59368">
        <ele>1318</ele>
        <time>2010-06-20T07:43:17Z</time>
      </trkpt>
      <trkpt lat="45.00991" lon="5.59367">
        <ele>1319</ele>
        <time>2010-06-20T07:43:18Z</time>
      </trkpt>
      <trkpt lat="45.00993" lon="5.59364">
        <ele>1319</ele>
        <time>2010-06-20T07:43:20Z</time>
      </trkpt>
      <trkpt lat="45.00995" lon="5.59363">
        <ele>1320</ele>
        <time>2010-06-20T07:43:21Z</time>
      </trkpt>
      <trkpt lat="45.00997" lon="5.59362">
        <ele>1320</ele>
        <time>2010-06-20T07:43:22Z</time>
      </trkpt>
      <trkpt lat="45.00998" lon="5.59361">
        <ele>1320</ele>
        <time>2010-06-20T07:43:23Z</time>
      </trkpt>
      <trkpt lat="45.01" lon="5.5936">
        <ele>1321</ele>
        <time>2010-06-20T07:43:24Z</time>
      </trkpt>
      <trkpt lat="45.01002" lon="5.59359">
        <ele>1321</ele>
        <time>2010-06-20T07:43:25Z</time>
      </trkpt>
      <trkpt lat="45.01003" lon="5.59359">
        <ele>1321</ele>
        <time>2010-06-20T07:43:26Z</time>
      </trkpt>
      <trkpt lat="45.01004" lon="5.59358">
        <ele>1321</ele>
        <time>2010-06-20T07:43:27Z</time>
      </trkpt>
      <trkpt lat="45.01006" lon="5.59357">
        <ele>1321</ele>
        <time>2010-06-20T07:43:28Z</time>
      </trkpt>
      <trkpt lat="45.01008" lon="5.59357">
        <ele>1321</ele>
        <time>2010-06-20T07:43:29Z</time>
      </trkpt>
      <trkpt lat="45.0101" lon="5.59356">
        <ele>1321</ele>
        <time>2010-06-20T07:43:30Z</time>
      </trkpt>
      <trkpt lat="45.01013" lon="5.59355">
        <ele>1321</ele>
        <time>2010-06-20T07:43:31Z</time>
      </trkpt>
      <trkpt lat="45.01015" lon="5.59355">
        <ele>1321</ele>
        <time>2010-06-20T07:43:32Z</time>
      </trkpt>
      <trkpt lat="45.01017" lon="5.59355">
        <ele>1321</ele>
        <time>2010-06-20T07:43:33Z</time>
      </trkpt>
      <trkpt lat="45.01019" lon="5.59355">
        <ele>1321</ele>
        <time>2010-06-20T07:43:34Z</time>
      </trkpt>
      <trkpt lat="45.0102" lon="5.59355">
        <ele>1321</ele>
        <time>2010-06-20T07:43:35Z</time>
      </trkpt>
      <trkpt lat="45.01022" lon="5.59355">
        <ele>1321</ele>
        <time>2010-06-20T07:43:36Z</time>
      </trkpt>
      <trkpt lat="45.01024" lon="5.59355">
        <ele>1321</ele>
        <time>2010-06-20T07:43:37Z</time>
      </trkpt>
      <trkpt lat="45.01026" lon="5.59356">
        <ele>1321</ele>
        <time>2010-06-20T07:43:38Z</time>
      </trkpt>
      <trkpt lat="45.01029" lon="5.59357">
        <ele>1321</ele>
        <time>2010-06-20T07:43:39Z</time>
      </trkpt>
      <trkpt lat="45.01031" lon="5.59359">
        <ele>1321</ele>
        <time>2010-06-20T07:43:40Z</time>
      </trkpt>
      <trkpt lat="45.01033" lon="5.59361">
        <ele>1321</ele>
        <time>2010-06-20T07:43:41Z</time>
      </trkpt>
      <trkpt lat="45.01034" lon="5.59364">
        <ele>1321</ele>
        <time>2010-06-20T07:43:42Z</time>
      </trkpt>
      <trkpt lat="45.01036" lon="5.59366">
        <ele>1321</ele>
        <time>2010-06-20T07:43:43Z</time>
      </trkpt>
      <trkpt lat="45.01038" lon="5.59367">
        <ele>1321</ele>
        <time>2010-06-20T07:43:44Z</time>
      </trkpt>
      <trkpt lat="45.0104" lon="5.59368">
        <ele>1320</ele>
        <time>2010-06-20T07:43:45Z</time>
      </trkpt>
      <trkpt lat="45.01042" lon="5.59369">
        <ele>1320</ele>
        <time>2010-06-20T07:43:46Z</time>
      </trkpt>
      <trkpt lat="45.01045" lon="5.5937">
        <ele>1319</ele>
        <time>2010-06-20T07:43:47Z</time>
      </trkpt>
      <trkpt lat="45.01047" lon="5.5937">
        <ele>1319</ele>
        <time>2010-06-20T07:43:48Z</time>
      </trkpt>
      <trkpt lat="45.0105" lon="5.59369">
        <ele>1319</ele>
        <time>2010-06-20T07:43:49Z</time>
      </trkpt>
      <trkpt lat="45.01052" lon="5.59367">
        <ele>1319</ele>
        <time>2010-06-20T07:43:50Z</time>
      </trkpt>
      <trkpt lat="45.01054" lon="5.59365">
        <ele>1319</ele>
        <time>2010-06-20T07:43:51Z</time>
      </trkpt>
      <trkpt lat="45.01056" lon="5.59362">
        <ele>1319</ele>
        <time>2010-06-20T07:43:52Z</time>
      </trkpt>
      <trkpt lat="45.01058" lon="5.59359">
        <ele>1319</ele>
        <time>2010-06-20T07:43:53Z</time>
      </trkpt>
      <trkpt lat="45.0106" lon="5.59357">
        <ele>1319</ele>
        <time>2010-06-20T07:43:54Z</time>
      </trkpt>
      <trkpt lat="45.01062" lon="5.59354">
        <ele>1319</ele>
        <time>2010-06-20T07:43:55Z</time>
      </trkpt>
      <trkpt lat="45.01065" lon="5.59353">
        <ele>1319</ele>
        <time>2010-06-20T07:43:56Z</time>
      </trkpt>
      <trkpt lat="45.01068" lon="5.59351">
        <ele>1319</ele>
        <time>2010-06-20T07:43:57Z</time>
      </trkpt>
      <trkpt lat="45.0107" lon="5.59352">
        <ele>1319</ele>
        <time>2010-06-20T07:43:58Z</time>
      </trkpt>
      <trkpt lat="45.01072" lon="5.59353">
        <ele>1319</ele>
        <time>2010-06-20T07:43:59Z</time>
      </trkpt>
      <trkpt lat="45.01075" lon="5.59355">
        <ele>1319</ele>
        <time>2010-06-20T07:44:00Z</time>
      </trkpt>
      <trkpt lat="45.01077" lon="5.59359">
        <ele>1318</ele>
        <time>2010-06-20T07:44:01Z</time>
      </trkpt>
      <trkpt lat="45.01079" lon="5.59362">
        <ele>1317</ele>
        <time>2010-06-20T07:44:02Z</time>
      </trkpt>
      <trkpt lat="45.01082" lon="5.59365">
        <ele>1316</ele>
        <time>2010-06-20T07:44:03Z</time>
      </trkpt>
      <trkpt lat="45.01084" lon="5.59367">
        <ele>1315</ele>
        <time>2010-06-20T07:44:04Z</time>
      </trkpt>
      <trkpt lat="45.01086" lon="5.59368">
        <ele>1315</ele>
        <time>2010-06-20T07:44:05Z</time>
      </trkpt>
      <trkpt lat="45.01088" lon="5.59369">
        <ele>1315</ele>
        <time>2010-06-20T07:44:06Z</time>
      </trkpt>
      <trkpt lat="45.01091" lon="5.59371">
        <ele>1315</ele>
        <time>2010-06-20T07:44:07Z</time>
      </trkpt>
      <trkpt lat="45.01093" lon="5.59374">
        <ele>1315</ele>
        <time>2010-06-20T07:44:08Z</time>
      </trkpt>
      <trkpt lat="45.01095" lon="5.59377">
        <ele>1314</ele>
        <time>2010-06-20T07:44:09Z</time>
      </trkpt>
      <trkpt lat="45.01097" lon="5.59381">
        <ele>1314</ele>
        <time>2010-06-20T07:44:10Z</time>
      </trkpt>
      <trkpt lat="45.01099" lon="5.59385">
        <ele>1313</ele>
        <time>2010-06-20T07:44:11Z</time>
      </trkpt>
      <trkpt lat="45.01101" lon="5.59387">
        <ele>1313</ele>
        <time>2010-06-20T07:44:12Z</time>
      </trkpt>
      <trkpt lat="45.01103" lon="5.5939">
        <ele>1313</ele>
        <time>2010-06-20T07:44:13Z</time>
      </trkpt>
      <trkpt lat="45.01104" lon="5.59393">
        <ele>1313</ele>
        <time>2010-06-20T07:44:14Z</time>
      </trkpt>
      <trkpt lat="45.01105" lon="5.59396">
        <ele>1313</ele>
        <time>2010-06-20T07:44:15Z</time>
      </trkpt>
      <trkpt lat="45.01106" lon="5.594">
        <ele>1313</ele>
        <time>2010-06-20T07:44:16Z</time>
      </trkpt>
      <trkpt lat="45.01107" lon="5.59404">
        <ele>1313</ele>
        <time>2010-06-20T07:44:17Z</time>
      </trkpt>
      <trkpt lat="45.01108" lon="5.59407">
        <ele>1313</ele>
        <time>2010-06-20T07:44:18Z</time>
      </trkpt>
      <trkpt lat="45.0111" lon="5.59411">
        <ele>1312</ele>
        <time>2010-06-20T07:44:19Z</time>
      </trkpt>
      <trkpt lat="45.01112" lon="5.59414">
        <ele>1312</ele>
        <time>2010-06-20T07:44:20Z</time>
      </trkpt>
      <trkpt lat="45.01114" lon="5.59416">
        <ele>1311</ele>
        <time>2010-06-20T07:44:21Z</time>
      </trkpt>
      <trkpt lat="45.01116" lon="5.59418">
        <ele>1310</ele>
        <time>2010-06-20T07:44:22Z</time>
      </trkpt>
      <trkpt lat="45.01117" lon="5.5942">
        <ele>1309</ele>
        <time>2010-06-20T07:44:23Z</time>
      </trkpt>
      <trkpt lat="45.01118" lon="5.59422">
        <ele>1309</ele>
        <time>2010-06-20T07:44:24Z</time>
      </trkpt>
      <trkpt lat="45.01121" lon="5.59424">
        <ele>1308</ele>
        <time>2010-06-20T07:44:25Z</time>
      </trkpt>
      <trkpt lat="45.01123" lon="5.59427">
        <ele>1307</ele>
        <time>2010-06-20T07:44:26Z</time>
      </trkpt>
      <trkpt lat="45.01124" lon="5.59431">
        <ele>1307</ele>
        <time>2010-06-20T07:44:27Z</time>
      </trkpt>
      <trkpt lat="45.01126" lon="5.59434">
        <ele>1307</ele>
        <time>2010-06-20T07:44:28Z</time>
      </trkpt>
      <trkpt lat="45.01128" lon="5.59438">
        <ele>1307</ele>
        <time>2010-06-20T07:44:29Z</time>
      </trkpt>
      <trkpt lat="45.0113" lon="5.59441">
        <ele>1307</ele>
        <time>2010-06-20T07:44:30Z</time>
      </trkpt>
      <trkpt lat="45.01133" lon="5.59444">
        <ele>1307</ele>
        <time>2010-06-20T07:44:31Z</time>
      </trkpt>
      <trkpt lat="45.01135" lon="5.59447">
        <ele>1307</ele>
        <time>2010-06-20T07:44:32Z</time>
      </trkpt>
      <trkpt lat="45.01137" lon="5.5945">
        <ele>1306</ele>
        <time>2010-06-20T07:44:33Z</time>
      </trkpt>
      <trkpt lat="45.01138" lon="5.59455">
        <ele>1306</ele>
        <time>2010-06-20T07:44:34Z</time>
      </trkpt>
      <trkpt lat="45.0114" lon="5.59458">
        <ele>1305</ele>
        <time>2010-06-20T07:44:35Z</time>
      </trkpt>
      <trkpt lat="45.01142" lon="5.59462">
        <ele>1305</ele>
        <time>2010-06-20T07:44:36Z</time>
      </trkpt>
      <trkpt lat="45.01143" lon="5.59467">
        <ele>1305</ele>
        <time>2010-06-20T07:44:37Z</time>
      </trkpt>
      <trkpt lat="45.01144" lon="5.59471">
        <ele>1305</ele>
        <time>2010-06-20T07:44:38Z</time>
      </trkpt>
      <trkpt lat="45.01146" lon="5.59476">
        <ele>1305</ele>
        <time>2010-06-20T07:44:39Z</time>
      </trkpt>
      <trkpt lat="45.01147" lon="5.59479">
        <ele>1305</ele>
        <time>2010-06-20T07:44:40Z</time>
      </trkpt>
      <trkpt lat="45.01147" lon="5.59483">
        <ele>1305</ele>
        <time>2010-06-20T07:44:41Z</time>
      </trkpt>
      <trkpt lat="45.01149" lon="5.59487">
        <ele>1305</ele>
        <time>2010-06-20T07:44:42Z</time>
      </trkpt>
      <trkpt lat="45.01149" lon="5.59492">
        <ele>1305</ele>
        <time>2010-06-20T07:44:43Z</time>
      </trkpt>
      <trkpt lat="45.01151" lon="5.59495">
        <ele>1305</ele>
        <time>2010-06-20T07:44:44Z</time>
      </trkpt>
      <trkpt lat="45.01152" lon="5.59498">
        <ele>1305</ele>
        <time>2010-06-20T07:44:45Z</time>
      </trkpt>
      <trkpt lat="45.01155" lon="5.59501">
        <ele>1305</ele>
        <time>2010-06-20T07:44:46Z</time>
      </trkpt>
      <trkpt lat="45.01158" lon="5.59505">
        <ele>1305</ele>
        <time>2010-06-20T07:44:47Z</time>
      </trkpt>
      <trkpt lat="45.0116" lon="5.59509">
        <ele>1305</ele>
        <time>2010-06-20T07:44:48Z</time>
      </trkpt>
      <trkpt lat="45.01162" lon="5.59512">
        <ele>1305</ele>
        <time>2010-06-20T07:44:49Z</time>
      </trkpt>
      <trkpt lat="45.01165" lon="5.59515">
        <ele>1305</ele>
        <time>2010-06-20T07:44:50Z</time>
      </trkpt>
      <trkpt lat="45.01167" lon="5.5952">
        <ele>1305</ele>
        <time>2010-06-20T07:44:51Z</time>
      </trkpt>
      <trkpt lat="45.01169" lon="5.59524">
        <ele>1305</ele>
        <time>2010-06-20T07:44:52Z</time>
      </trkpt>
      <trkpt lat="45.01173" lon="5.59526">
        <ele>1305</ele>
        <time>2010-06-20T07:44:53Z</time>
      </trkpt>
      <trkpt lat="45.01175" lon="5.59529">
        <ele>1305</ele>
        <time>2010-06-20T07:44:54Z</time>
      </trkpt>
      <trkpt lat="45.01179" lon="5.59532">
        <ele>1305</ele>
        <time>2010-06-20T07:44:55Z</time>
      </trkpt>
      <trkpt lat="45.01182" lon="5.59534">
        <ele>1305</ele>
        <time>2010-06-20T07:44:56Z</time>
      </trkpt>
      <trkpt lat="45.01186" lon="5.59536">
        <ele>1305</ele>
        <time>2010-06-20T07:44:57Z</time>
      </trkpt>
      <trkpt lat="45.01189" lon="5.59536">
        <ele>1305</ele>
        <time>2010-06-20T07:44:58Z</time>
      </trkpt>
      <trkpt lat="45.01192" lon="5.59537">
        <ele>1305</ele>
        <time>2010-06-20T07:44:59Z</time>
      </trkpt>
      <trkpt lat="45.01195" lon="5.59539">
        <ele>1305</ele>
        <time>2010-06-20T07:45:00Z</time>
      </trkpt>
      <trkpt lat="45.01199" lon="5.59541">
        <ele>1305</ele>
        <time>2010-06-20T07:45:01Z</time>
      </trkpt>
      <trkpt lat="45.01203" lon="5.59543">
        <ele>1305</ele>
        <time>2010-06-20T07:45:02Z</time>
      </trkpt>
      <trkpt lat="45.01205" lon="5.59544">
        <ele>1306</ele>
        <time>2010-06-20T07:45:03Z</time>
      </trkpt>
      <trkpt lat="45.01208" lon="5.59546">
        <ele>1306</ele>
        <time>2010-06-20T07:45:04Z</time>
      </trkpt>
      <trkpt lat="45.01211" lon="5.59547">
        <ele>1306</ele>
        <time>2010-06-20T07:45:05Z</time>
      </trkpt>
      <trkpt lat="45.01214" lon="5.59549">
        <ele>1307</ele>
        <time>2010-06-20T07:45:06Z</time>
      </trkpt>
      <trkpt lat="45.01216" lon="5.5955">
        <ele>1307</ele>
        <time>2010-06-20T07:45:07Z</time>
      </trkpt>
      <trkpt lat="45.01217" lon="5.5955">
        <ele>1307</ele>
        <time>2010-06-20T07:45:08Z</time>
      </trkpt>
      <trkpt lat="45.01219" lon="5.59552">
        <ele>1307</ele>
        <time>2010-06-20T07:45:09Z</time>
      </trkpt>
      <trkpt lat="45.01223" lon="5.59554">
        <ele>1307</ele>
        <time>2010-06-20T07:45:10Z</time>
      </trkpt>
      <trkpt lat="45.01227" lon="5.59556">
        <ele>1307</ele>
        <time>2010-06-20T07:45:11Z</time>
      </trkpt>
      <trkpt lat="45.0123" lon="5.59556">
        <ele>1307</ele>
        <time>2010-06-20T07:45:12Z</time>
      </trkpt>
      <trkpt lat="45.01232" lon="5.59557">
        <ele>1307</ele>
        <time>2010-06-20T07:45:13Z</time>
      </trkpt>
      <trkpt lat="45.01235" lon="5.59559">
        <ele>1307</ele>
        <time>2010-06-20T07:45:14Z</time>
      </trkpt>
      <trkpt lat="45.01238" lon="5.59562">
        <ele>1307</ele>
        <time>2010-06-20T07:45:15Z</time>
      </trkpt>
      <trkpt lat="45.0124" lon="5.59564">
        <ele>1307</ele>
        <time>2010-06-20T07:45:16Z</time>
      </trkpt>
      <trkpt lat="45.01244" lon="5.59566">
        <ele>1306</ele>
        <time>2010-06-20T07:45:17Z</time>
      </trkpt>
      <trkpt lat="45.01247" lon="5.59567">
        <ele>1305</ele>
        <time>2010-06-20T07:45:18Z</time>
      </trkpt>
      <trkpt lat="45.0125" lon="5.59569">
        <ele>1305</ele>
        <time>2010-06-20T07:45:19Z</time>
      </trkpt>
      <trkpt lat="45.01253" lon="5.5957">
        <ele>1304</ele>
        <time>2010-06-20T07:45:20Z</time>
      </trkpt>
      <trkpt lat="45.01256" lon="5.59572">
        <ele>1304</ele>
        <time>2010-06-20T07:45:21Z</time>
      </trkpt>
      <trkpt lat="45.01258" lon="5.59573">
        <ele>1304</ele>
        <time>2010-06-20T07:45:22Z</time>
      </trkpt>
      <trkpt lat="45.01263" lon="5.59574">
        <ele>1304</ele>
        <time>2010-06-20T07:45:23Z</time>
      </trkpt>
      <trkpt lat="45.01266" lon="5.59576">
        <ele>1304</ele>
        <time>2010-06-20T07:45:24Z</time>
      </trkpt>
      <trkpt lat="45.01268" lon="5.59578">
        <ele>1304</ele>
        <time>2010-06-20T07:45:25Z</time>
      </trkpt>
      <trkpt lat="45.0127" lon="5.59579">
        <ele>1304</ele>
        <time>2010-06-20T07:45:26Z</time>
      </trkpt>
      <trkpt lat="45.01274" lon="5.5958">
        <ele>1304</ele>
        <time>2010-06-20T07:45:27Z</time>
      </trkpt>
      <trkpt lat="45.01277" lon="5.5958">
        <ele>1304</ele>
        <time>2010-06-20T07:45:28Z</time>
      </trkpt>
      <trkpt lat="45.0128" lon="5.59581">
        <ele>1304</ele>
        <time>2010-06-20T07:45:29Z</time>
      </trkpt>
      <trkpt lat="45.01283" lon="5.59582">
        <ele>1304</ele>
        <time>2010-06-20T07:45:30Z</time>
      </trkpt>
      <trkpt lat="45.01286" lon="5.59583">
        <ele>1304</ele>
        <time>2010-06-20T07:45:31Z</time>
      </trkpt>
      <trkpt lat="45.01289" lon="5.59583">
        <ele>1304</ele>
        <time>2010-06-20T07:45:32Z</time>
      </trkpt>
      <trkpt lat="45.01292" lon="5.59583">
        <ele>1304</ele>
        <time>2010-06-20T07:45:33Z</time>
      </trkpt>
      <trkpt lat="45.01294" lon="5.59583">
        <ele>1304</ele>
        <time>2010-06-20T07:45:34Z</time>
      </trkpt>
      <trkpt lat="45.01297" lon="5.59584">
        <ele>1304</ele>
        <time>2010-06-20T07:45:35Z</time>
      </trkpt>
      <trkpt lat="45.01299" lon="5.59585">
        <ele>1304</ele>
        <time>2010-06-20T07:45:36Z</time>
      </trkpt>
      <trkpt lat="45.01302" lon="5.59586">
        <ele>1304</ele>
        <time>2010-06-20T07:45:37Z</time>
      </trkpt>
      <trkpt lat="45.01304" lon="5.59587">
        <ele>1304</ele>
        <time>2010-06-20T07:45:38Z</time>
      </trkpt>
      <trkpt lat="45.01307" lon="5.59587">
        <ele>1304</ele>
        <time>2010-06-20T07:45:39Z</time>
      </trkpt>
      <trkpt lat="45.0131" lon="5.59586">
        <ele>1304</ele>
        <time>2010-06-20T07:45:40Z</time>
      </trkpt>
      <trkpt lat="45.01313" lon="5.59587">
        <ele>1304</ele>
        <time>2010-06-20T07:45:41Z</time>
      </trkpt>
      <trkpt lat="45.01316" lon="5.59587">
        <ele>1304</ele>
        <time>2010-06-20T07:45:42Z</time>
      </trkpt>
      <trkpt lat="45.01318" lon="5.59586">
        <ele>1304</ele>
        <time>2010-06-20T07:45:43Z</time>
      </trkpt>
      <trkpt lat="45.0132" lon="5.59585">
        <ele>1304</ele>
        <time>2010-06-20T07:45:44Z</time>
      </trkpt>
      <trkpt lat="45.01322" lon="5.59584">
        <ele>1304</ele>
        <time>2010-06-20T07:45:45Z</time>
      </trkpt>
      <trkpt lat="45.01324" lon="5.59583">
        <ele>1304</ele>
        <time>2010-06-20T07:45:46Z</time>
      </trkpt>
      <trkpt lat="45.01327" lon="5.59584">
        <ele>1304</ele>
        <time>2010-06-20T07:45:47Z</time>
      </trkpt>
      <trkpt lat="45.0133" lon="5.59584">
        <ele>1304</ele>
        <time>2010-06-20T07:45:48Z</time>
      </trkpt>
      <trkpt lat="45.01332" lon="5.59584">
        <ele>1304</ele>
        <time>2010-06-20T07:45:49Z</time>
      </trkpt>
      <trkpt lat="45.01334" lon="5.59584">
        <ele>1304</ele>
        <time>2010-06-20T07:45:50Z</time>
      </trkpt>
      <trkpt lat="45.01337" lon="5.59584">
        <ele>1304</ele>
        <time>2010-06-20T07:45:51Z</time>
      </trkpt>
      <trkpt lat="45.0134" lon="5.59584">
        <ele>1304</ele>
        <time>2010-06-20T07:45:52Z</time>
      </trkpt>
      <trkpt lat="45.01342" lon="5.59584">
        <ele>1305</ele>
        <time>2010-06-20T07:45:53Z</time>
      </trkpt>
      <trkpt lat="45.01345" lon="5.59585">
        <ele>1306</ele>
        <time>2010-06-20T07:45:54Z</time>
      </trkpt>
      <trkpt lat="45.01348" lon="5.59585">
        <ele>1307</ele>
        <time>2010-06-20T07:45:55Z</time>
      </trkpt>
      <trkpt lat="45.01351" lon="5.59585">
        <ele>1308</ele>
        <time>2010-06-20T07:45:56Z</time>
      </trkpt>
      <trkpt lat="45.01354" lon="5.59583">
        <ele>1309</ele>
        <time>2010-06-20T07:45:57Z</time>
      </trkpt>
      <trkpt lat="45.01356" lon="5.59582">
        <ele>1310</ele>
        <time>2010-06-20T07:45:58Z</time>
      </trkpt>
      <trkpt lat="45.01359" lon="5.59582">
        <ele>1310</ele>
        <time>2010-06-20T07:45:59Z</time>
      </trkpt>
      <trkpt lat="45.01362" lon="5.59584">
        <ele>1311</ele>
        <time>2010-06-20T07:46:00Z</time>
      </trkpt>
      <trkpt lat="45.01364" lon="5.59585">
        <ele>1312</ele>
        <time>2010-06-20T07:46:01Z</time>
      </trkpt>
      <trkpt lat="45.01366" lon="5.59587">
        <ele>1313</ele>
        <time>2010-06-20T07:46:02Z</time>
      </trkpt>
      <trkpt lat="45.01369" lon="5.59588">
        <ele>1314</ele>
        <time>2010-06-20T07:46:03Z</time>
      </trkpt>
      <trkpt lat="45.01371" lon="5.59589">
        <ele>1315</ele>
        <time>2010-06-20T07:46:04Z</time>
      </trkpt>
      <trkpt lat="45.01374" lon="5.5959">
        <ele>1316</ele>
        <time>2010-06-20T07:46:05Z</time>
      </trkpt>
      <trkpt lat="45.01376" lon="5.59591">
        <ele>1316</ele>
        <time>2010-06-20T07:46:06Z</time>
      </trkpt>
      <trkpt lat="45.01379" lon="5.59591">
        <ele>1316</ele>
        <time>2010-06-20T07:46:07Z</time>
      </trkpt>
      <trkpt lat="45.01382" lon="5.59592">
        <ele>1316</ele>
        <time>2010-06-20T07:46:08Z</time>
      </trkpt>
      <trkpt lat="45.01385" lon="5.59592">
        <ele>1316</ele>
        <time>2010-06-20T07:46:09Z</time>
      </trkpt>
      <trkpt lat="45.01387" lon="5.59592">
        <ele>1316</ele>
        <time>2010-06-20T07:46:10Z</time>
      </trkpt>
      <trkpt lat="45.0139" lon="5.59593">
        <ele>1316</ele>
        <time>2010-06-20T07:46:11Z</time>
      </trkpt>
      <trkpt lat="45.01393" lon="5.59593">
        <ele>1316</ele>
        <time>2010-06-20T07:46:12Z</time>
      </trkpt>
      <trkpt lat="45.01396" lon="5.59594">
        <ele>1317</ele>
        <time>2010-06-20T07:46:13Z</time>
      </trkpt>
      <trkpt lat="45.01399" lon="5.59596">
        <ele>1317</ele>
        <time>2010-06-20T07:46:14Z</time>
      </trkpt>
      <trkpt lat="45.01402" lon="5.59597">
        <ele>1317</ele>
        <time>2010-06-20T07:46:15Z</time>
      </trkpt>
      <trkpt lat="45.01405" lon="5.59597">
        <ele>1317</ele>
        <time>2010-06-20T07:46:16Z</time>
      </trkpt>
      <trkpt lat="45.01408" lon="5.59597">
        <ele>1317</ele>
        <time>2010-06-20T07:46:17Z</time>
      </trkpt>
      <trkpt lat="45.0141" lon="5.59597">
        <ele>1317</ele>
        <time>2010-06-20T07:46:18Z</time>
      </trkpt>
      <trkpt lat="45.01413" lon="5.59597">
        <ele>1317</ele>
        <time>2010-06-20T07:46:19Z</time>
      </trkpt>
      <trkpt lat="45.01415" lon="5.59597">
        <ele>1317</ele>
        <time>2010-06-20T07:46:20Z</time>
      </trkpt>
      <trkpt lat="45.01418" lon="5.59597">
        <ele>1317</ele>
        <time>2010-06-20T07:46:21Z</time>
      </trkpt>
      <trkpt lat="45.01421" lon="5.59598">
        <ele>1317</ele>
        <time>2010-06-20T07:46:22Z</time>
      </trkpt>
      <trkpt lat="45.01424" lon="5.59598">
        <ele>1317</ele>
        <time>2010-06-20T07:46:23Z</time>
      </trkpt>
      <trkpt lat="45.01427" lon="5.59598">
        <ele>1317</ele>
        <time>2010-06-20T07:46:24Z</time>
      </trkpt>
      <trkpt lat="45.01431" lon="5.59598">
        <ele>1317</ele>
        <time>2010-06-20T07:46:25Z</time>
      </trkpt>
      <trkpt lat="45.01434" lon="5.59599">
        <ele>1317</ele>
        <time>2010-06-20T07:46:26Z</time>
      </trkpt>
      <trkpt lat="45.01438" lon="5.59598">
        <ele>1317</ele>
        <time>2010-06-20T07:46:27Z</time>
      </trkpt>
      <trkpt lat="45.01441" lon="5.59598">
        <ele>1317</ele>
        <time>2010-06-20T07:46:28Z</time>
      </trkpt>
      <trkpt lat="45.01445" lon="5.59597">
        <ele>1317</ele>
        <time>2010-06-20T07:46:29Z</time>
      </trkpt>
      <trkpt lat="45.01447" lon="5.59598">
        <ele>1317</ele>
        <time>2010-06-20T07:46:30Z</time>
      </trkpt>
      <trkpt lat="45.0145" lon="5.59598">
        <ele>1317</ele>
        <time>2010-06-20T07:46:31Z</time>
      </trkpt>
      <trkpt lat="45.01452" lon="5.59598">
        <ele>1317</ele>
        <time>2010-06-20T07:46:32Z</time>
      </trkpt>
      <trkpt lat="45.01455" lon="5.59598">
        <ele>1317</ele>
        <time>2010-06-20T07:46:33Z</time>
      </trkpt>
      <trkpt lat="45.01457" lon="5.59598">
        <ele>1317</ele>
        <time>2010-06-20T07:46:34Z</time>
      </trkpt>
      <trkpt lat="45.0146" lon="5.59599">
        <ele>1317</ele>
        <time>2010-06-20T07:46:35Z</time>
      </trkpt>
      <trkpt lat="45.01463" lon="5.59598">
        <ele>1317</ele>
        <time>2010-06-20T07:46:36Z</time>
      </trkpt>
      <trkpt lat="45.01466" lon="5.59599">
        <ele>1317</ele>
        <time>2010-06-20T07:46:37Z</time>
      </trkpt>
      <trkpt lat="45.01469" lon="5.59599">
        <ele>1317</ele>
        <time>2010-06-20T07:46:38Z</time>
      </trkpt>
      <trkpt lat="45.01472" lon="5.59601">
        <ele>1317</ele>
        <time>2010-06-20T07:46:39Z</time>
      </trkpt>
      <trkpt lat="45.01475" lon="5.59602">
        <ele>1317</ele>
        <time>2010-06-20T07:46:40Z</time>
      </trkpt>
      <trkpt lat="45.01478" lon="5.59602">
        <ele>1317</ele>
        <time>2010-06-20T07:46:41Z</time>
      </trkpt>
      <trkpt lat="45.01481" lon="5.59602">
        <ele>1316</ele>
        <time>2010-06-20T07:46:42Z</time>
      </trkpt>
      <trkpt lat="45.01484" lon="5.59602">
        <ele>1315</ele>
        <time>2010-06-20T07:46:43Z</time>
      </trkpt>
      <trkpt lat="45.01487" lon="5.59602">
        <ele>1314</ele>
        <time>2010-06-20T07:46:44Z</time>
      </trkpt>
      <trkpt lat="45.01489" lon="5.59602">
        <ele>1313</ele>
        <time>2010-06-20T07:46:45Z</time>
      </trkpt>
      <trkpt lat="45.01492" lon="5.59602">
        <ele>1312</ele>
        <time>2010-06-20T07:46:46Z</time>
      </trkpt>
      <trkpt lat="45.01495" lon="5.59602">
        <ele>1311</ele>
        <time>2010-06-20T07:46:47Z</time>
      </trkpt>
      <trkpt lat="45.01497" lon="5.59603">
        <ele>1310</ele>
        <time>2010-06-20T07:46:48Z</time>
      </trkpt>
      <trkpt lat="45.015" lon="5.59601">
        <ele>1310</ele>
        <time>2010-06-20T07:46:49Z</time>
      </trkpt>
      <trkpt lat="45.01503" lon="5.59601">
        <ele>1310</ele>
        <time>2010-06-20T07:46:50Z</time>
      </trkpt>
      <trkpt lat="45.01505" lon="5.596">
        <ele>1310</ele>
        <time>2010-06-20T07:46:51Z</time>
      </trkpt>
      <trkpt lat="45.01508" lon="5.59599">
        <ele>1310</ele>
        <time>2010-06-20T07:46:52Z</time>
      </trkpt>
      <trkpt lat="45.01511" lon="5.59598">
        <ele>1310</ele>
        <time>2010-06-20T07:46:53Z</time>
      </trkpt>
      <trkpt lat="45.01515" lon="5.59596">
        <ele>1310</ele>
        <time>2010-06-20T07:46:54Z</time>
      </trkpt>
      <trkpt lat="45.01518" lon="5.59595">
        <ele>1310</ele>
        <time>2010-06-20T07:46:55Z</time>
      </trkpt>
      <trkpt lat="45.0152" lon="5.59594">
        <ele>1310</ele>
        <time>2010-06-20T07:46:56Z</time>
      </trkpt>
      <trkpt lat="45.01523" lon="5.59593">
        <ele>1311</ele>
        <time>2010-06-20T07:46:57Z</time>
      </trkpt>
      <trkpt lat="45.01526" lon="5.59592">
        <ele>1312</ele>
        <time>2010-06-20T07:46:58Z</time>
      </trkpt>
      <trkpt lat="45.01529" lon="5.5959">
        <ele>1313</ele>
        <time>2010-06-20T07:46:59Z</time>
      </trkpt>
      <trkpt lat="45.01532" lon="5.5959">
        <ele>1314</ele>
        <time>2010-06-20T07:47:00Z</time>
      </trkpt>
      <trkpt lat="45.01535" lon="5.59589">
        <ele>1314</ele>
        <time>2010-06-20T07:47:01Z</time>
      </trkpt>
      <trkpt lat="45.01538" lon="5.59588">
        <ele>1314</ele>
        <time>2010-06-20T07:47:02Z</time>
      </trkpt>
      <trkpt lat="45.01541" lon="5.59588">
        <ele>1314</ele>
        <time>2010-06-20T07:47:03Z</time>
      </trkpt>
      <trkpt lat="45.01544" lon="5.59588">
        <ele>1314</ele>
        <time>2010-06-20T07:47:04Z</time>
      </trkpt>
      <trkpt lat="45.01547" lon="5.59586">
        <ele>1314</ele>
        <time>2010-06-20T07:47:05Z</time>
      </trkpt>
      <trkpt lat="45.0155" lon="5.59585">
        <ele>1314</ele>
        <time>2010-06-20T07:47:06Z</time>
      </trkpt>
      <trkpt lat="45.01552" lon="5.59585">
        <ele>1314</ele>
        <time>2010-06-20T07:47:07Z</time>
      </trkpt>
      <trkpt lat="45.01555" lon="5.59585">
        <ele>1314</ele>
        <time>2010-06-20T07:47:08Z</time>
      </trkpt>
      <trkpt lat="45.01558" lon="5.59584">
        <ele>1314</ele>
        <time>2010-06-20T07:47:09Z</time>
      </trkpt>
      <trkpt lat="45.01561" lon="5.59583">
        <ele>1314</ele>
        <time>2010-06-20T07:47:10Z</time>
      </trkpt>
      <trkpt lat="45.01563" lon="5.59584">
        <ele>1314</ele>
        <time>2010-06-20T07:47:11Z</time>
      </trkpt>
      <trkpt lat="45.01566" lon="5.59584">
        <ele>1314</ele>
        <time>2010-06-20T07:47:12Z</time>
      </trkpt>
      <trkpt lat="45.01569" lon="5.59583">
        <ele>1314</ele>
        <time>2010-06-20T07:47:13Z</time>
      </trkpt>
      <trkpt lat="45.01572" lon="5.59583">
        <ele>1315</ele>
        <time>2010-06-20T07:47:14Z</time>
      </trkpt>
      <trkpt lat="45.01575" lon="5.59583">
        <ele>1315</ele>
        <time>2010-06-20T07:47:15Z</time>
      </trkpt>
      <trkpt lat="45.01578" lon="5.59583">
        <ele>1315</ele>
        <time>2010-06-20T07:47:16Z</time>
      </trkpt>
      <trkpt lat="45.01582" lon="5.59583">
        <ele>1315</ele>
        <time>2010-06-20T07:47:17Z</time>
      </trkpt>
      <trkpt lat="45.01586" lon="5.59582">
        <ele>1316</ele>
        <time>2010-06-20T07:47:18Z</time>
      </trkpt>
      <trkpt lat="45.01589" lon="5.59582">
        <ele>1317</ele>
        <time>2010-06-20T07:47:19Z</time>
      </trkpt>
      <trkpt lat="45.01592" lon="5.59582">
        <ele>1318</ele>
        <time>2010-06-20T07:47:20Z</time>
      </trkpt>
      <trkpt lat="45.01595" lon="5.59583">
        <ele>1319</ele>
        <time>2010-06-20T07:47:21Z</time>
      </trkpt>
      <trkpt lat="45.01598" lon="5.59583">
        <ele>1320</ele>
        <time>2010-06-20T07:47:22Z</time>
      </trkpt>
      <trkpt lat="45.01601" lon="5.59584">
        <ele>1321</ele>
        <time>2010-06-20T07:47:23Z</time>
      </trkpt>
      <trkpt lat="45.01604" lon="5.59584">
        <ele>1322</ele>
        <time>2010-06-20T07:47:24Z</time>
      </trkpt>
      <trkpt lat="45.01607" lon="5.59583">
        <ele>1323</ele>
        <time>2010-06-20T07:47:25Z</time>
      </trkpt>
      <trkpt lat="45.0161" lon="5.59583">
        <ele>1324</ele>
        <time>2010-06-20T07:47:26Z</time>
      </trkpt>
      <trkpt lat="45.01614" lon="5.59582">
        <ele>1325</ele>
        <time>2010-06-20T07:47:27Z</time>
      </trkpt>
      <trkpt lat="45.01617" lon="5.59583">
        <ele>1326</ele>
        <time>2010-06-20T07:47:28Z</time>
      </trkpt>
      <trkpt lat="45.01619" lon="5.59584">
        <ele>1327</ele>
        <time>2010-06-20T07:47:29Z</time>
      </trkpt>
      <trkpt lat="45.01622" lon="5.59584">
        <ele>1328</ele>
        <time>2010-06-20T07:47:30Z</time>
      </trkpt>
      <trkpt lat="45.01624" lon="5.59584">
        <ele>1328</ele>
        <time>2010-06-20T07:47:31Z</time>
      </trkpt>
      <trkpt lat="45.01627" lon="5.59583">
        <ele>1329</ele>
        <time>2010-06-20T07:47:32Z</time>
      </trkpt>
      <trkpt lat="45.0163" lon="5.59582">
        <ele>1330</ele>
        <time>2010-06-20T07:47:33Z</time>
      </trkpt>
      <trkpt lat="45.01632" lon="5.59582">
        <ele>1330</ele>
        <time>2010-06-20T07:47:34Z</time>
      </trkpt>
      <trkpt lat="45.01635" lon="5.59583">
        <ele>1331</ele>
        <time>2010-06-20T07:47:35Z</time>
      </trkpt>
      <trkpt lat="45.01638" lon="5.59584">
        <ele>1331</ele>
        <time>2010-06-20T07:47:36Z</time>
      </trkpt>
      <trkpt lat="45.01641" lon="5.59584">
        <ele>1331</ele>
        <time>2010-06-20T07:47:37Z</time>
      </trkpt>
      <trkpt lat="45.01644" lon="5.59585">
        <ele>1331</ele>
        <time>2010-06-20T07:47:38Z</time>
      </trkpt>
      <trkpt lat="45.01647" lon="5.59585">
        <ele>1331</ele>
        <time>2010-06-20T07:47:39Z</time>
      </trkpt>
      <trkpt lat="45.0165" lon="5.59585">
        <ele>1331</ele>
        <time>2010-06-20T07:47:40Z</time>
      </trkpt>
      <trkpt lat="45.01653" lon="5.59586">
        <ele>1331</ele>
        <time>2010-06-20T07:47:41Z</time>
      </trkpt>
      <trkpt lat="45.01655" lon="5.59585">
        <ele>1331</ele>
        <time>2010-06-20T07:47:42Z</time>
      </trkpt>
      <trkpt lat="45.01658" lon="5.59585">
        <ele>1331</ele>
        <time>2010-06-20T07:47:43Z</time>
      </trkpt>
      <trkpt lat="45.01661" lon="5.59586">
        <ele>1331</ele>
        <time>2010-06-20T07:47:44Z</time>
      </trkpt>
      <trkpt lat="45.01662" lon="5.59586">
        <ele>1331</ele>
        <time>2010-06-20T07:47:45Z</time>
      </trkpt>
      <trkpt lat="45.01664" lon="5.59586">
        <ele>1329</ele>
        <time>2010-06-20T07:47:48Z</time>
      </trkpt>
      <trkpt lat="45.01666" lon="5.59586">
        <ele>1328</ele>
        <time>2010-06-20T07:47:49Z</time>
      </trkpt>
      <trkpt lat="45.01669" lon="5.59587">
        <ele>1327</ele>
        <time>2010-06-20T07:47:50Z</time>
      </trkpt>
      <trkpt lat="45.01672" lon="5.59588">
        <ele>1327</ele>
        <time>2010-06-20T07:47:51Z</time>
      </trkpt>
      <trkpt lat="45.01675" lon="5.5959">
        <ele>1327</ele>
        <time>2010-06-20T07:47:52Z</time>
      </trkpt>
      <trkpt lat="45.01678" lon="5.59591">
        <ele>1327</ele>
        <time>2010-06-20T07:47:53Z</time>
      </trkpt>
      <trkpt lat="45.01681" lon="5.59591">
        <ele>1327</ele>
        <time>2010-06-20T07:47:54Z</time>
      </trkpt>
      <trkpt lat="45.01684" lon="5.59592">
        <ele>1327</ele>
        <time>2010-06-20T07:47:55Z</time>
      </trkpt>
      <trkpt lat="45.01687" lon="5.59592">
        <ele>1326</ele>
        <time>2010-06-20T07:47:56Z</time>
      </trkpt>
      <trkpt lat="45.01691" lon="5.59593">
        <ele>1326</ele>
        <time>2010-06-20T07:47:57Z</time>
      </trkpt>
      <trkpt lat="45.01695" lon="5.59594">
        <ele>1326</ele>
        <time>2010-06-20T07:47:58Z</time>
      </trkpt>
      <trkpt lat="45.01698" lon="5.59595">
        <ele>1325</ele>
        <time>2010-06-20T07:47:59Z</time>
      </trkpt>
      <trkpt lat="45.01701" lon="5.59596">
        <ele>1324</ele>
        <time>2010-06-20T07:48:00Z</time>
      </trkpt>
      <trkpt lat="45.01704" lon="5.59597">
        <ele>1324</ele>
        <time>2010-06-20T07:48:01Z</time>
      </trkpt>
      <trkpt lat="45.01708" lon="5.59599">
        <ele>1323</ele>
        <time>2010-06-20T07:48:02Z</time>
      </trkpt>
      <trkpt lat="45.01711" lon="5.596">
        <ele>1322</ele>
        <time>2010-06-20T07:48:03Z</time>
      </trkpt>
      <trkpt lat="45.01714" lon="5.59603">
        <ele>1322</ele>
        <time>2010-06-20T07:48:04Z</time>
      </trkpt>
      <trkpt lat="45.01717" lon="5.59604">
        <ele>1321</ele>
        <time>2010-06-20T07:48:05Z</time>
      </trkpt>
      <trkpt lat="45.01721" lon="5.59603">
        <ele>1321</ele>
        <time>2010-06-20T07:48:06Z</time>
      </trkpt>
      <trkpt lat="45.01725" lon="5.59604">
        <ele>1320</ele>
        <time>2010-06-20T07:48:07Z</time>
      </trkpt>
      <trkpt lat="45.01728" lon="5.59605">
        <ele>1320</ele>
        <time>2010-06-20T07:48:08Z</time>
      </trkpt>
      <trkpt lat="45.01731" lon="5.59606">
        <ele>1320</ele>
        <time>2010-06-20T07:48:09Z</time>
      </trkpt>
      <trkpt lat="45.01734" lon="5.59607">
        <ele>1320</ele>
        <time>2010-06-20T07:48:10Z</time>
      </trkpt>
      <trkpt lat="45.01737" lon="5.59608">
        <ele>1319</ele>
        <time>2010-06-20T07:48:11Z</time>
      </trkpt>
      <trkpt lat="45.01739" lon="5.59609">
        <ele>1319</ele>
        <time>2010-06-20T07:48:12Z</time>
      </trkpt>
      <trkpt lat="45.01742" lon="5.5961">
        <ele>1318</ele>
        <time>2010-06-20T07:48:13Z</time>
      </trkpt>
      <trkpt lat="45.01744" lon="5.5961">
        <ele>1317</ele>
        <time>2010-06-20T07:48:14Z</time>
      </trkpt>
      <trkpt lat="45.01746" lon="5.5961">
        <ele>1317</ele>
        <time>2010-06-20T07:48:15Z</time>
      </trkpt>
      <trkpt lat="45.01748" lon="5.5961">
        <ele>1316</ele>
        <time>2010-06-20T07:48:16Z</time>
      </trkpt>
      <trkpt lat="45.01751" lon="5.5961">
        <ele>1315</ele>
        <time>2010-06-20T07:48:17Z</time>
      </trkpt>
      <trkpt lat="45.01754" lon="5.59609">
        <ele>1315</ele>
        <time>2010-06-20T07:48:18Z</time>
      </trkpt>
      <trkpt lat="45.01757" lon="5.59608">
        <ele>1314</ele>
        <time>2010-06-20T07:48:19Z</time>
      </trkpt>
      <trkpt lat="45.01759" lon="5.59608">
        <ele>1313</ele>
        <time>2010-06-20T07:48:20Z</time>
      </trkpt>
      <trkpt lat="45.01762" lon="5.59608">
        <ele>1313</ele>
        <time>2010-06-20T07:48:21Z</time>
      </trkpt>
      <trkpt lat="45.01765" lon="5.59608">
        <ele>1312</ele>
        <time>2010-06-20T07:48:22Z</time>
      </trkpt>
      <trkpt lat="45.01767" lon="5.5961">
        <ele>1312</ele>
        <time>2010-06-20T07:48:23Z</time>
      </trkpt>
      <trkpt lat="45.01769" lon="5.5961">
        <ele>1311</ele>
        <time>2010-06-20T07:48:24Z</time>
      </trkpt>
      <trkpt lat="45.01771" lon="5.59611">
        <ele>1310</ele>
        <time>2010-06-20T07:48:25Z</time>
      </trkpt>
      <trkpt lat="45.01776" lon="5.59612">
        <ele>1310</ele>
        <time>2010-06-20T07:48:26Z</time>
      </trkpt>
      <trkpt lat="45.0178" lon="5.59613">
        <ele>1310</ele>
        <time>2010-06-20T07:48:27Z</time>
      </trkpt>
      <trkpt lat="45.01784" lon="5.59613">
        <ele>1310</ele>
        <time>2010-06-20T07:48:28Z</time>
      </trkpt>
      <trkpt lat="45.01787" lon="5.59614">
        <ele>1310</ele>
        <time>2010-06-20T07:48:29Z</time>
      </trkpt>
      <trkpt lat="45.01789" lon="5.59614">
        <ele>1310</ele>
        <time>2010-06-20T07:48:30Z</time>
      </trkpt>
      <trkpt lat="45.01791" lon="5.59615">
        <ele>1310</ele>
        <time>2010-06-20T07:48:31Z</time>
      </trkpt>
      <trkpt lat="45.01794" lon="5.59615">
        <ele>1310</ele>
        <time>2010-06-20T07:48:32Z</time>
      </trkpt>
      <trkpt lat="45.01798" lon="5.59615">
        <ele>1310</ele>
        <time>2010-06-20T07:48:33Z</time>
      </trkpt>
      <trkpt lat="45.01802" lon="5.59616">
        <ele>1310</ele>
        <time>2010-06-20T07:48:34Z</time>
      </trkpt>
      <trkpt lat="45.01806" lon="5.59617">
        <ele>1310</ele>
        <time>2010-06-20T07:48:35Z</time>
      </trkpt>
      <trkpt lat="45.01809" lon="5.59618">
        <ele>1310</ele>
        <time>2010-06-20T07:48:36Z</time>
      </trkpt>
      <trkpt lat="45.01812" lon="5.59618">
        <ele>1310</ele>
        <time>2010-06-20T07:48:37Z</time>
      </trkpt>
      <trkpt lat="45.01815" lon="5.59618">
        <ele>1310</ele>
        <time>2010-06-20T07:48:38Z</time>
      </trkpt>
      <trkpt lat="45.01817" lon="5.59618">
        <ele>1310</ele>
        <time>2010-06-20T07:48:39Z</time>
      </trkpt>
      <trkpt lat="45.0182" lon="5.59619">
        <ele>1310</ele>
        <time>2010-06-20T07:48:40Z</time>
      </trkpt>
      <trkpt lat="45.01823" lon="5.59619">
        <ele>1310</ele>
        <time>2010-06-20T07:48:41Z</time>
      </trkpt>
      <trkpt lat="45.01826" lon="5.59619">
        <ele>1309</ele>
        <time>2010-06-20T07:48:42Z</time>
      </trkpt>
      <trkpt lat="45.01828" lon="5.59619">
        <ele>1309</ele>
        <time>2010-06-20T07:48:43Z</time>
      </trkpt>
      <trkpt lat="45.01831" lon="5.5962">
        <ele>1309</ele>
        <time>2010-06-20T07:48:44Z</time>
      </trkpt>
      <trkpt lat="45.01835" lon="5.59621">
        <ele>1309</ele>
        <time>2010-06-20T07:48:45Z</time>
      </trkpt>
      <trkpt lat="45.0184" lon="5.59621">
        <ele>1309</ele>
        <time>2010-06-20T07:48:46Z</time>
      </trkpt>
      <trkpt lat="45.01843" lon="5.59622">
        <ele>1309</ele>
        <time>2010-06-20T07:48:47Z</time>
      </trkpt>
      <trkpt lat="45.01845" lon="5.59622">
        <ele>1309</ele>
        <time>2010-06-20T07:48:48Z</time>
      </trkpt>
      <trkpt lat="45.01848" lon="5.59624">
        <ele>1310</ele>
        <time>2010-06-20T07:48:49Z</time>
      </trkpt>
      <trkpt lat="45.01852" lon="5.59625">
        <ele>1311</ele>
        <time>2010-06-20T07:48:50Z</time>
      </trkpt>
      <trkpt lat="45.01855" lon="5.59626">
        <ele>1311</ele>
        <time>2010-06-20T07:48:51Z</time>
      </trkpt>
      <trkpt lat="45.01857" lon="5.59626">
        <ele>1311</ele>
        <time>2010-06-20T07:48:52Z</time>
      </trkpt>
      <trkpt lat="45.0186" lon="5.59626">
        <ele>1312</ele>
        <time>2010-06-20T07:48:53Z</time>
      </trkpt>
      <trkpt lat="45.01862" lon="5.59626">
        <ele>1313</ele>
        <time>2010-06-20T07:48:54Z</time>
      </trkpt>
      <trkpt lat="45.01865" lon="5.59626">
        <ele>1313</ele>
        <time>2010-06-20T07:48:55Z</time>
      </trkpt>
      <trkpt lat="45.01867" lon="5.59626">
        <ele>1313</ele>
        <time>2010-06-20T07:48:56Z</time>
      </trkpt>
      <trkpt lat="45.0187" lon="5.59626">
        <ele>1313</ele>
        <time>2010-06-20T07:48:57Z</time>
      </trkpt>
      <trkpt lat="45.01872" lon="5.59627">
        <ele>1313</ele>
        <time>2010-06-20T07:48:58Z</time>
      </trkpt>
      <trkpt lat="45.01874" lon="5.59627">
        <ele>1313</ele>
        <time>2010-06-20T07:48:59Z</time>
      </trkpt>
      <trkpt lat="45.01877" lon="5.59627">
        <ele>1313</ele>
        <time>2010-06-20T07:49:00Z</time>
      </trkpt>
      <trkpt lat="45.01879" lon="5.59627">
        <ele>1312</ele>
        <time>2010-06-20T07:49:01Z</time>
      </trkpt>
      <trkpt lat="45.01882" lon="5.59627">
        <ele>1311</ele>
        <time>2010-06-20T07:49:02Z</time>
      </trkpt>
      <trkpt lat="45.01886" lon="5.59628">
        <ele>1310</ele>
        <time>2010-06-20T07:49:03Z</time>
      </trkpt>
      <trkpt lat="45.01889" lon="5.59629">
        <ele>1309</ele>
        <time>2010-06-20T07:49:04Z</time>
      </trkpt>
      <trkpt lat="45.01893" lon="5.59631">
        <ele>1309</ele>
        <time>2010-06-20T07:49:05Z</time>
      </trkpt>
      <trkpt lat="45.01895" lon="5.59632">
        <ele>1309</ele>
        <time>2010-06-20T07:49:06Z</time>
      </trkpt>
      <trkpt lat="45.01898" lon="5.59634">
        <ele>1309</ele>
        <time>2010-06-20T07:49:07Z</time>
      </trkpt>
      <trkpt lat="45.01901" lon="5.59636">
        <ele>1309</ele>
        <time>2010-06-20T07:49:08Z</time>
      </trkpt>
      <trkpt lat="45.01904" lon="5.59637">
        <ele>1309</ele>
        <time>2010-06-20T07:49:09Z</time>
      </trkpt>
      <trkpt lat="45.01907" lon="5.59638">
        <ele>1309</ele>
        <time>2010-06-20T07:49:10Z</time>
      </trkpt>
      <trkpt lat="45.0191" lon="5.59638">
        <ele>1308</ele>
        <time>2010-06-20T07:49:11Z</time>
      </trkpt>
      <trkpt lat="45.01914" lon="5.59639">
        <ele>1308</ele>
        <time>2010-06-20T07:49:12Z</time>
      </trkpt>
      <trkpt lat="45.01917" lon="5.5964">
        <ele>1307</ele>
        <time>2010-06-20T07:49:13Z</time>
      </trkpt>
      <trkpt lat="45.01922" lon="5.5964">
        <ele>1307</ele>
        <time>2010-06-20T07:49:14Z</time>
      </trkpt>
      <trkpt lat="45.01925" lon="5.59641">
        <ele>1306</ele>
        <time>2010-06-20T07:49:15Z</time>
      </trkpt>
      <trkpt lat="45.01928" lon="5.59642">
        <ele>1306</ele>
        <time>2010-06-20T07:49:16Z</time>
      </trkpt>
      <trkpt lat="45.01931" lon="5.59643">
        <ele>1305</ele>
        <time>2010-06-20T07:49:17Z</time>
      </trkpt>
      <trkpt lat="45.01934" lon="5.59645">
        <ele>1305</ele>
        <time>2010-06-20T07:49:18Z</time>
      </trkpt>
      <trkpt lat="45.01938" lon="5.59645">
        <ele>1305</ele>
        <time>2010-06-20T07:49:19Z</time>
      </trkpt>
      <trkpt lat="45.01941" lon="5.59646">
        <ele>1305</ele>
        <time>2010-06-20T07:49:20Z</time>
      </trkpt>
      <trkpt lat="45.01943" lon="5.59646">
        <ele>1305</ele>
        <time>2010-06-20T07:49:21Z</time>
      </trkpt>
      <trkpt lat="45.01945" lon="5.59646">
        <ele>1305</ele>
        <time>2010-06-20T07:49:22Z</time>
      </trkpt>
      <trkpt lat="45.01948" lon="5.59647">
        <ele>1305</ele>
        <time>2010-06-20T07:49:23Z</time>
      </trkpt>
      <trkpt lat="45.01952" lon="5.59648">
        <ele>1305</ele>
        <time>2010-06-20T07:49:24Z</time>
      </trkpt>
      <trkpt lat="45.01955" lon="5.59649">
        <ele>1305</ele>
        <time>2010-06-20T07:49:25Z</time>
      </trkpt>
      <trkpt lat="45.01957" lon="5.5965">
        <ele>1305</ele>
        <time>2010-06-20T07:49:26Z</time>
      </trkpt>
      <trkpt lat="45.01959" lon="5.59651">
        <ele>1305</ele>
        <time>2010-06-20T07:49:27Z</time>
      </trkpt>
      <trkpt lat="45.01962" lon="5.59651">
        <ele>1306</ele>
        <time>2010-06-20T07:49:28Z</time>
      </trkpt>
      <trkpt lat="45.01965" lon="5.59652">
        <ele>1306</ele>
        <time>2010-06-20T07:49:29Z</time>
      </trkpt>
      <trkpt lat="45.01968" lon="5.59652">
        <ele>1307</ele>
        <time>2010-06-20T07:49:30Z</time>
      </trkpt>
      <trkpt lat="45.01971" lon="5.59653">
        <ele>1308</ele>
        <time>2010-06-20T07:49:31Z</time>
      </trkpt>
      <trkpt lat="45.01975" lon="5.59653">
        <ele>1308</ele>
        <time>2010-06-20T07:49:32Z</time>
      </trkpt>
      <trkpt lat="45.01977" lon="5.59653">
        <ele>1309</ele>
        <time>2010-06-20T07:49:33Z</time>
      </trkpt>
      <trkpt lat="45.0198" lon="5.59654">
        <ele>1309</ele>
        <time>2010-06-20T07:49:34Z</time>
      </trkpt>
      <trkpt lat="45.01984" lon="5.59655">
        <ele>1309</ele>
        <time>2010-06-20T07:49:35Z</time>
      </trkpt>
      <trkpt lat="45.01987" lon="5.59655">
        <ele>1309</ele>
        <time>2010-06-20T07:49:36Z</time>
      </trkpt>
      <trkpt lat="45.01989" lon="5.59655">
        <ele>1309</ele>
        <time>2010-06-20T07:49:37Z</time>
      </trkpt>
      <trkpt lat="45.01992" lon="5.59655">
        <ele>1309</ele>
        <time>2010-06-20T07:49:38Z</time>
      </trkpt>
      <trkpt lat="45.01995" lon="5.59655">
        <ele>1309</ele>
        <time>2010-06-20T07:49:39Z</time>
      </trkpt>
      <trkpt lat="45.01998" lon="5.59656">
        <ele>1309</ele>
        <time>2010-06-20T07:49:40Z</time>
      </trkpt>
      <trkpt lat="45.02" lon="5.59656">
        <ele>1309</ele>
        <time>2010-06-20T07:49:41Z</time>
      </trkpt>
      <trkpt lat="45.02003" lon="5.59656">
        <ele>1309</ele>
        <time>2010-06-20T07:49:42Z</time>
      </trkpt>
      <trkpt lat="45.02006" lon="5.59656">
        <ele>1309</ele>
        <time>2010-06-20T07:49:43Z</time>
      </trkpt>
      <trkpt lat="45.02009" lon="5.59656">
        <ele>1309</ele>
        <time>2010-06-20T07:49:44Z</time>
      </trkpt>
      <trkpt lat="45.02012" lon="5.59658">
        <ele>1309</ele>
        <time>2010-06-20T07:49:45Z</time>
      </trkpt>
      <trkpt lat="45.02014" lon="5.5966">
        <ele>1309</ele>
        <time>2010-06-20T07:49:46Z</time>
      </trkpt>
      <trkpt lat="45.02016" lon="5.59662">
        <ele>1309</ele>
        <time>2010-06-20T07:49:47Z</time>
      </trkpt>
      <trkpt lat="45.02019" lon="5.59666">
        <ele>1309</ele>
        <time>2010-06-20T07:49:48Z</time>
      </trkpt>
      <trkpt lat="45.02022" lon="5.59667">
        <ele>1309</ele>
        <time>2010-06-20T07:49:49Z</time>
      </trkpt>
      <trkpt lat="45.02026" lon="5.59667">
        <ele>1309</ele>
        <time>2010-06-20T07:49:50Z</time>
      </trkpt>
      <trkpt lat="45.02029" lon="5.59668">
        <ele>1309</ele>
        <time>2010-06-20T07:49:51Z</time>
      </trkpt>
      <trkpt lat="45.02032" lon="5.59668">
        <ele>1309</ele>
        <time>2010-06-20T07:49:52Z</time>
      </trkpt>
      <trkpt lat="45.02036" lon="5.59668">
        <ele>1309</ele>
        <time>2010-06-20T07:49:53Z</time>
      </trkpt>
      <trkpt lat="45.02039" lon="5.59668">
        <ele>1309</ele>
        <time>2010-06-20T07:49:54Z</time>
      </trkpt>
      <trkpt lat="45.02041" lon="5.59669">
        <ele>1309</ele>
        <time>2010-06-20T07:49:55Z</time>
      </trkpt>
      <trkpt lat="45.02043" lon="5.59669">
        <ele>1309</ele>
        <time>2010-06-20T07:49:56Z</time>
      </trkpt>
      <trkpt lat="45.02045" lon="5.5967">
        <ele>1309</ele>
        <time>2010-06-20T07:49:57Z</time>
      </trkpt>
      <trkpt lat="45.02047" lon="5.59672">
        <ele>1309</ele>
        <time>2010-06-20T07:49:58Z</time>
      </trkpt>
      <trkpt lat="45.02049" lon="5.59675">
        <ele>1309</ele>
        <time>2010-06-20T07:49:59Z</time>
      </trkpt>
      <trkpt lat="45.02052" lon="5.59676">
        <ele>1309</ele>
        <time>2010-06-20T07:50:00Z</time>
      </trkpt>
      <trkpt lat="45.02055" lon="5.59676">
        <ele>1309</ele>
        <time>2010-06-20T07:50:01Z</time>
      </trkpt>
      <trkpt lat="45.02059" lon="5.59676">
        <ele>1309</ele>
        <time>2010-06-20T07:50:02Z</time>
      </trkpt>
      <trkpt lat="45.02063" lon="5.59677">
        <ele>1309</ele>
        <time>2010-06-20T07:50:03Z</time>
      </trkpt>
      <trkpt lat="45.02066" lon="5.59677">
        <ele>1309</ele>
        <time>2010-06-20T07:50:04Z</time>
      </trkpt>
      <trkpt lat="45.02069" lon="5.59678">
        <ele>1309</ele>
        <time>2010-06-20T07:50:05Z</time>
      </trkpt>
      <trkpt lat="45.02072" lon="5.59679">
        <ele>1309</ele>
        <time>2010-06-20T07:50:06Z</time>
      </trkpt>
      <trkpt lat="45.02074" lon="5.59681">
        <ele>1309</ele>
        <time>2010-06-20T07:50:07Z</time>
      </trkpt>
      <trkpt lat="45.02077" lon="5.59683">
        <ele>1309</ele>
        <time>2010-06-20T07:50:08Z</time>
      </trkpt>
      <trkpt lat="45.02079" lon="5.59686">
        <ele>1309</ele>
        <time>2010-06-20T07:50:09Z</time>
      </trkpt>
      <trkpt lat="45.02082" lon="5.59687">
        <ele>1309</ele>
        <time>2010-06-20T07:50:10Z</time>
      </trkpt>
      <trkpt lat="45.02085" lon="5.59689">
        <ele>1309</ele>
        <time>2010-06-20T07:50:11Z</time>
      </trkpt>
      <trkpt lat="45.02089" lon="5.59691">
        <ele>1309</ele>
        <time>2010-06-20T07:50:12Z</time>
      </trkpt>
      <trkpt lat="45.02092" lon="5.59693">
        <ele>1309</ele>
        <time>2010-06-20T07:50:13Z</time>
      </trkpt>
      <trkpt lat="45.02094" lon="5.59695">
        <ele>1309</ele>
        <time>2010-06-20T07:50:14Z</time>
      </trkpt>
      <trkpt lat="45.02097" lon="5.59696">
        <ele>1309</ele>
        <time>2010-06-20T07:50:15Z</time>
      </trkpt>
      <trkpt lat="45.021" lon="5.59697">
        <ele>1310</ele>
        <time>2010-06-20T07:50:16Z</time>
      </trkpt>
      <trkpt lat="45.02102" lon="5.59698">
        <ele>1310</ele>
        <time>2010-06-20T07:50:17Z</time>
      </trkpt>
      <trkpt lat="45.02105" lon="5.59699">
        <ele>1310</ele>
        <time>2010-06-20T07:50:18Z</time>
      </trkpt>
      <trkpt lat="45.02108" lon="5.597">
        <ele>1311</ele>
        <time>2010-06-20T07:50:19Z</time>
      </trkpt>
      <trkpt lat="45.0211" lon="5.597">
        <ele>1311</ele>
        <time>2010-06-20T07:50:20Z</time>
      </trkpt>
      <trkpt lat="45.02113" lon="5.59701">
        <ele>1311</ele>
        <time>2010-06-20T07:50:21Z</time>
      </trkpt>
      <trkpt lat="45.02115" lon="5.59702">
        <ele>1311</ele>
        <time>2010-06-20T07:50:22Z</time>
      </trkpt>
      <trkpt lat="45.02117" lon="5.59703">
        <ele>1311</ele>
        <time>2010-06-20T07:50:23Z</time>
      </trkpt>
      <trkpt lat="45.02119" lon="5.59704">
        <ele>1311</ele>
        <time>2010-06-20T07:50:24Z</time>
      </trkpt>
      <trkpt lat="45.02122" lon="5.59706">
        <ele>1311</ele>
        <time>2010-06-20T07:50:25Z</time>
      </trkpt>
      <trkpt lat="45.02124" lon="5.59706">
        <ele>1311</ele>
        <time>2010-06-20T07:50:26Z</time>
      </trkpt>
      <trkpt lat="45.02127" lon="5.59707">
        <ele>1311</ele>
        <time>2010-06-20T07:50:27Z</time>
      </trkpt>
      <trkpt lat="45.02129" lon="5.59707">
        <ele>1311</ele>
        <time>2010-06-20T07:50:28Z</time>
      </trkpt>
      <trkpt lat="45.02131" lon="5.59707">
        <ele>1311</ele>
        <time>2010-06-20T07:50:29Z</time>
      </trkpt>
      <trkpt lat="45.02134" lon="5.59707">
        <ele>1311</ele>
        <time>2010-06-20T07:50:30Z</time>
      </trkpt>
      <trkpt lat="45.02136" lon="5.59707">
        <ele>1310</ele>
        <time>2010-06-20T07:50:31Z</time>
      </trkpt>
      <trkpt lat="45.02139" lon="5.59709">
        <ele>1309</ele>
        <time>2010-06-20T07:50:32Z</time>
      </trkpt>
      <trkpt lat="45.02142" lon="5.5971">
        <ele>1308</ele>
        <time>2010-06-20T07:50:33Z</time>
      </trkpt>
      <trkpt lat="45.02146" lon="5.59712">
        <ele>1307</ele>
        <time>2010-06-20T07:50:34Z</time>
      </trkpt>
      <trkpt lat="45.02149" lon="5.59714">
        <ele>1306</ele>
        <time>2010-06-20T07:50:35Z</time>
      </trkpt>
      <trkpt lat="45.02152" lon="5.59715">
        <ele>1305</ele>
        <time>2010-06-20T07:50:36Z</time>
      </trkpt>
      <trkpt lat="45.02155" lon="5.59717">
        <ele>1305</ele>
        <time>2010-06-20T07:50:37Z</time>
      </trkpt>
      <trkpt lat="45.02158" lon="5.59719">
        <ele>1304</ele>
        <time>2010-06-20T07:50:38Z</time>
      </trkpt>
      <trkpt lat="45.02161" lon="5.59718">
        <ele>1304</ele>
        <time>2010-06-20T07:50:39Z</time>
      </trkpt>
      <trkpt lat="45.02163" lon="5.59719">
        <ele>1303</ele>
        <time>2010-06-20T07:50:40Z</time>
      </trkpt>
      <trkpt lat="45.02167" lon="5.5972">
        <ele>1303</ele>
        <time>2010-06-20T07:50:41Z</time>
      </trkpt>
      <trkpt lat="45.02171" lon="5.59722">
        <ele>1303</ele>
        <time>2010-06-20T07:50:42Z</time>
      </trkpt>
      <trkpt lat="45.02174" lon="5.59724">
        <ele>1303</ele>
        <time>2010-06-20T07:50:43Z</time>
      </trkpt>
      <trkpt lat="45.02177" lon="5.59725">
        <ele>1303</ele>
        <time>2010-06-20T07:50:44Z</time>
      </trkpt>
      <trkpt lat="45.02179" lon="5.59727">
        <ele>1303</ele>
        <time>2010-06-20T07:50:45Z</time>
      </trkpt>
      <trkpt lat="45.02181" lon="5.59727">
        <ele>1303</ele>
        <time>2010-06-20T07:50:46Z</time>
      </trkpt>
      <trkpt lat="45.02183" lon="5.59728">
        <ele>1303</ele>
        <time>2010-06-20T07:50:47Z</time>
      </trkpt>
      <trkpt lat="45.02186" lon="5.59729">
        <ele>1303</ele>
        <time>2010-06-20T07:50:48Z</time>
      </trkpt>
      <trkpt lat="45.02189" lon="5.59731">
        <ele>1303</ele>
        <time>2010-06-20T07:50:49Z</time>
      </trkpt>
      <trkpt lat="45.02191" lon="5.59733">
        <ele>1302</ele>
        <time>2010-06-20T07:50:50Z</time>
      </trkpt>
      <trkpt lat="45.02193" lon="5.59734">
        <ele>1302</ele>
        <time>2010-06-20T07:50:51Z</time>
      </trkpt>
      <trkpt lat="45.02196" lon="5.59735">
        <ele>1301</ele>
        <time>2010-06-20T07:50:52Z</time>
      </trkpt>
      <trkpt lat="45.02199" lon="5.59736">
        <ele>1300</ele>
        <time>2010-06-20T07:50:53Z</time>
      </trkpt>
      <trkpt lat="45.02202" lon="5.59737">
        <ele>1299</ele>
        <time>2010-06-20T07:50:54Z</time>
      </trkpt>
      <trkpt lat="45.02204" lon="5.59738">
        <ele>1298</ele>
        <time>2010-06-20T07:50:55Z</time>
      </trkpt>
      <trkpt lat="45.02206" lon="5.59739">
        <ele>1297</ele>
        <time>2010-06-20T07:50:56Z</time>
      </trkpt>
      <trkpt lat="45.0221" lon="5.59742">
        <ele>1296</ele>
        <time>2010-06-20T07:50:57Z</time>
      </trkpt>
      <trkpt lat="45.02213" lon="5.59744">
        <ele>1295</ele>
        <time>2010-06-20T07:50:58Z</time>
      </trkpt>
      <trkpt lat="45.02214" lon="5.59746">
        <ele>1295</ele>
        <time>2010-06-20T07:50:59Z</time>
      </trkpt>
      <trkpt lat="45.02216" lon="5.59747">
        <ele>1295</ele>
        <time>2010-06-20T07:51:00Z</time>
      </trkpt>
      <trkpt lat="45.02218" lon="5.59748">
        <ele>1295</ele>
        <time>2010-06-20T07:51:01Z</time>
      </trkpt>
      <trkpt lat="45.0222" lon="5.59751">
        <ele>1295</ele>
        <time>2010-06-20T07:51:02Z</time>
      </trkpt>
      <trkpt lat="45.02224" lon="5.59752">
        <ele>1295</ele>
        <time>2010-06-20T07:51:03Z</time>
      </trkpt>
      <trkpt lat="45.02226" lon="5.59753">
        <ele>1295</ele>
        <time>2010-06-20T07:51:04Z</time>
      </trkpt>
      <trkpt lat="45.02229" lon="5.59754">
        <ele>1295</ele>
        <time>2010-06-20T07:51:05Z</time>
      </trkpt>
      <trkpt lat="45.02232" lon="5.59756">
        <ele>1295</ele>
        <time>2010-06-20T07:51:06Z</time>
      </trkpt>
      <trkpt lat="45.02235" lon="5.59757">
        <ele>1295</ele>
        <time>2010-06-20T07:51:07Z</time>
      </trkpt>
      <trkpt lat="45.02238" lon="5.59758">
        <ele>1295</ele>
        <time>2010-06-20T07:51:08Z</time>
      </trkpt>
      <trkpt lat="45.02242" lon="5.59759">
        <ele>1295</ele>
        <time>2010-06-20T07:51:09Z</time>
      </trkpt>
      <trkpt lat="45.02246" lon="5.59759">
        <ele>1296</ele>
        <time>2010-06-20T07:51:10Z</time>
      </trkpt>
      <trkpt lat="45.0225" lon="5.5976">
        <ele>1297</ele>
        <time>2010-06-20T07:51:11Z</time>
      </trkpt>
      <trkpt lat="45.02253" lon="5.59761">
        <ele>1298</ele>
        <time>2010-06-20T07:51:12Z</time>
      </trkpt>
      <trkpt lat="45.02255" lon="5.59762">
        <ele>1298</ele>
        <time>2010-06-20T07:51:13Z</time>
      </trkpt>
      <trkpt lat="45.02258" lon="5.59763">
        <ele>1299</ele>
        <time>2010-06-20T07:51:14Z</time>
      </trkpt>
      <trkpt lat="45.02261" lon="5.59764">
        <ele>1299</ele>
        <time>2010-06-20T07:51:15Z</time>
      </trkpt>
      <trkpt lat="45.02263" lon="5.59765">
        <ele>1299</ele>
        <time>2010-06-20T07:51:16Z</time>
      </trkpt>
      <trkpt lat="45.02265" lon="5.59765">
        <ele>1299</ele>
        <time>2010-06-20T07:51:17Z</time>
      </trkpt>
      <trkpt lat="45.02266" lon="5.59766">
        <ele>1299</ele>
        <time>2010-06-20T07:51:18Z</time>
      </trkpt>
      <trkpt lat="45.02268" lon="5.59767">
        <ele>1299</ele>
        <time>2010-06-20T07:51:19Z</time>
      </trkpt>
      <trkpt lat="45.0227" lon="5.59768">
        <ele>1299</ele>
        <time>2010-06-20T07:51:20Z</time>
      </trkpt>
      <trkpt lat="45.02272" lon="5.59769">
        <ele>1299</ele>
        <time>2010-06-20T07:51:21Z</time>
      </trkpt>
      <trkpt lat="45.02275" lon="5.5977">
        <ele>1299</ele>
        <time>2010-06-20T07:51:22Z</time>
      </trkpt>
      <trkpt lat="45.02277" lon="5.59771">
        <ele>1299</ele>
        <time>2010-06-20T07:51:23Z</time>
      </trkpt>
      <trkpt lat="45.0228" lon="5.59772">
        <ele>1299</ele>
        <time>2010-06-20T07:51:24Z</time>
      </trkpt>
      <trkpt lat="45.02283" lon="5.59773">
        <ele>1299</ele>
        <time>2010-06-20T07:51:25Z</time>
      </trkpt>
      <trkpt lat="45.02285" lon="5.59773">
        <ele>1299</ele>
        <time>2010-06-20T07:51:26Z</time>
      </trkpt>
      <trkpt lat="45.02288" lon="5.59773">
        <ele>1299</ele>
        <time>2010-06-20T07:51:27Z</time>
      </trkpt>
      <trkpt lat="45.0229" lon="5.59774">
        <ele>1299</ele>
        <time>2010-06-20T07:51:28Z</time>
      </trkpt>
      <trkpt lat="45.02293" lon="5.59774">
        <ele>1299</ele>
        <time>2010-06-20T07:51:29Z</time>
      </trkpt>
      <trkpt lat="45.02295" lon="5.59776">
        <ele>1299</ele>
        <time>2010-06-20T07:51:30Z</time>
      </trkpt>
      <trkpt lat="45.02298" lon="5.59778">
        <ele>1299</ele>
        <time>2010-06-20T07:51:31Z</time>
      </trkpt>
      <trkpt lat="45.02301" lon="5.5978">
        <ele>1299</ele>
        <time>2010-06-20T07:51:32Z</time>
      </trkpt>
      <trkpt lat="45.02304" lon="5.59783">
        <ele>1299</ele>
        <time>2010-06-20T07:51:33Z</time>
      </trkpt>
      <trkpt lat="45.02306" lon="5.59786">
        <ele>1299</ele>
        <time>2010-06-20T07:51:34Z</time>
      </trkpt>
      <trkpt lat="45.02309" lon="5.59788">
        <ele>1299</ele>
        <time>2010-06-20T07:51:35Z</time>
      </trkpt>
      <trkpt lat="45.02312" lon="5.59791">
        <ele>1299</ele>
        <time>2010-06-20T07:51:36Z</time>
      </trkpt>
      <trkpt lat="45.02314" lon="5.59794">
        <ele>1299</ele>
        <time>2010-06-20T07:51:37Z</time>
      </trkpt>
      <trkpt lat="45.02316" lon="5.59796">
        <ele>1299</ele>
        <time>2010-06-20T07:51:38Z</time>
      </trkpt>
      <trkpt lat="45.02319" lon="5.59799">
        <ele>1299</ele>
        <time>2010-06-20T07:51:39Z</time>
      </trkpt>
      <trkpt lat="45.02322" lon="5.59801">
        <ele>1299</ele>
        <time>2010-06-20T07:51:40Z</time>
      </trkpt>
      <trkpt lat="45.02325" lon="5.59802">
        <ele>1299</ele>
        <time>2010-06-20T07:51:41Z</time>
      </trkpt>
      <trkpt lat="45.02329" lon="5.59803">
        <ele>1299</ele>
        <time>2010-06-20T07:51:42Z</time>
      </trkpt>
      <trkpt lat="45.02332" lon="5.59805">
        <ele>1300</ele>
        <time>2010-06-20T07:51:43Z</time>
      </trkpt>
      <trkpt lat="45.02335" lon="5.59807">
        <ele>1300</ele>
        <time>2010-06-20T07:51:44Z</time>
      </trkpt>
      <trkpt lat="45.02338" lon="5.59809">
        <ele>1301</ele>
        <time>2010-06-20T07:51:45Z</time>
      </trkpt>
      <trkpt lat="45.02341" lon="5.59812">
        <ele>1301</ele>
        <time>2010-06-20T07:51:46Z</time>
      </trkpt>
      <trkpt lat="45.02344" lon="5.59813">
        <ele>1302</ele>
        <time>2010-06-20T07:51:47Z</time>
      </trkpt>
      <trkpt lat="45.02346" lon="5.59816">
        <ele>1302</ele>
        <time>2010-06-20T07:51:48Z</time>
      </trkpt>
      <trkpt lat="45.02349" lon="5.59818">
        <ele>1303</ele>
        <time>2010-06-20T07:51:49Z</time>
      </trkpt>
      <trkpt lat="45.02352" lon="5.5982">
        <ele>1303</ele>
        <time>2010-06-20T07:51:50Z</time>
      </trkpt>
      <trkpt lat="45.02354" lon="5.59822">
        <ele>1303</ele>
        <time>2010-06-20T07:51:51Z</time>
      </trkpt>
      <trkpt lat="45.02357" lon="5.59823">
        <ele>1304</ele>
        <time>2010-06-20T07:51:52Z</time>
      </trkpt>
      <trkpt lat="45.0236" lon="5.59824">
        <ele>1304</ele>
        <time>2010-06-20T07:51:53Z</time>
      </trkpt>
      <trkpt lat="45.02362" lon="5.59825">
        <ele>1304</ele>
        <time>2010-06-20T07:51:54Z</time>
      </trkpt>
      <trkpt lat="45.02365" lon="5.59826">
        <ele>1305</ele>
        <time>2010-06-20T07:51:55Z</time>
      </trkpt>
      <trkpt lat="45.02367" lon="5.59827">
        <ele>1305</ele>
        <time>2010-06-20T07:51:56Z</time>
      </trkpt>
      <trkpt lat="45.0237" lon="5.59828">
        <ele>1305</ele>
        <time>2010-06-20T07:51:57Z</time>
      </trkpt>
      <trkpt lat="45.02372" lon="5.59828">
        <ele>1305</ele>
        <time>2010-06-20T07:51:58Z</time>
      </trkpt>
      <trkpt lat="45.02374" lon="5.59829">
        <ele>1306</ele>
        <time>2010-06-20T07:51:59Z</time>
      </trkpt>
      <trkpt lat="45.02377" lon="5.59829">
        <ele>1306</ele>
        <time>2010-06-20T07:52:00Z</time>
      </trkpt>
      <trkpt lat="45.0238" lon="5.59829">
        <ele>1306</ele>
        <time>2010-06-20T07:52:01Z</time>
      </trkpt>
      <trkpt lat="45.02382" lon="5.59829">
        <ele>1306</ele>
        <time>2010-06-20T07:52:02Z</time>
      </trkpt>
      <trkpt lat="45.02385" lon="5.59828">
        <ele>1307</ele>
        <time>2010-06-20T07:52:03Z</time>
      </trkpt>
      <trkpt lat="45.02388" lon="5.59827">
        <ele>1307</ele>
        <time>2010-06-20T07:52:04Z</time>
      </trkpt>
      <trkpt lat="45.0239" lon="5.59826">
        <ele>1308</ele>
        <time>2010-06-20T07:52:05Z</time>
      </trkpt>
      <trkpt lat="45.02393" lon="5.59826">
        <ele>1309</ele>
        <time>2010-06-20T07:52:06Z</time>
      </trkpt>
      <trkpt lat="45.02395" lon="5.59826">
        <ele>1310</ele>
        <time>2010-06-20T07:52:07Z</time>
      </trkpt>
      <trkpt lat="45.02397" lon="5.59825">
        <ele>1310</ele>
        <time>2010-06-20T07:52:08Z</time>
      </trkpt>
      <trkpt lat="45.02399" lon="5.59825">
        <ele>1311</ele>
        <time>2010-06-20T07:52:09Z</time>
      </trkpt>
      <trkpt lat="45.02402" lon="5.59825">
        <ele>1312</ele>
        <time>2010-06-20T07:52:10Z</time>
      </trkpt>
      <trkpt lat="45.02404" lon="5.59826">
        <ele>1313</ele>
        <time>2010-06-20T07:52:11Z</time>
      </trkpt>
      <trkpt lat="45.02406" lon="5.59826">
        <ele>1313</ele>
        <time>2010-06-20T07:52:12Z</time>
      </trkpt>
      <trkpt lat="45.02408" lon="5.59825">
        <ele>1314</ele>
        <time>2010-06-20T07:52:13Z</time>
      </trkpt>
      <trkpt lat="45.0241" lon="5.59825">
        <ele>1315</ele>
        <time>2010-06-20T07:52:14Z</time>
      </trkpt>
      <trkpt lat="45.02413" lon="5.59825">
        <ele>1316</ele>
        <time>2010-06-20T07:52:15Z</time>
      </trkpt>
      <trkpt lat="45.02415" lon="5.59825">
        <ele>1317</ele>
        <time>2010-06-20T07:52:16Z</time>
      </trkpt>
      <trkpt lat="45.02417" lon="5.59825">
        <ele>1318</ele>
        <time>2010-06-20T07:52:17Z</time>
      </trkpt>
      <trkpt lat="45.02419" lon="5.59825">
        <ele>1318</ele>
        <time>2010-06-20T07:52:18Z</time>
      </trkpt>
      <trkpt lat="45.02421" lon="5.59826">
        <ele>1319</ele>
        <time>2010-06-20T07:52:19Z</time>
      </trkpt>
      <trkpt lat="45.02423" lon="5.59826">
        <ele>1320</ele>
        <time>2010-06-20T07:52:20Z</time>
      </trkpt>
      <trkpt lat="45.02425" lon="5.59825">
        <ele>1321</ele>
        <time>2010-06-20T07:52:21Z</time>
      </trkpt>
      <trkpt lat="45.02427" lon="5.59826">
        <ele>1322</ele>
        <time>2010-06-20T07:52:22Z</time>
      </trkpt>
      <trkpt lat="45.02428" lon="5.59827">
        <ele>1323</ele>
        <time>2010-06-20T07:52:23Z</time>
      </trkpt>
      <trkpt lat="45.0243" lon="5.59828">
        <ele>1324</ele>
        <time>2010-06-20T07:52:24Z</time>
      </trkpt>
      <trkpt lat="45.02433" lon="5.59828">
        <ele>1325</ele>
        <time>2010-06-20T07:52:25Z</time>
      </trkpt>
      <trkpt lat="45.02435" lon="5.59829">
        <ele>1326</ele>
        <time>2010-06-20T07:52:26Z</time>
      </trkpt>
      <trkpt lat="45.02437" lon="5.59829">
        <ele>1327</ele>
        <time>2010-06-20T07:52:27Z</time>
      </trkpt>
      <trkpt lat="45.0244" lon="5.5983">
        <ele>1328</ele>
        <time>2010-06-20T07:52:28Z</time>
      </trkpt>
      <trkpt lat="45.02442" lon="5.5983">
        <ele>1328</ele>
        <time>2010-06-20T07:52:29Z</time>
      </trkpt>
      <trkpt lat="45.02444" lon="5.59829">
        <ele>1328</ele>
        <time>2010-06-20T07:52:30Z</time>
      </trkpt>
      <trkpt lat="45.02445" lon="5.59829">
        <ele>1329</ele>
        <time>2010-06-20T07:52:31Z</time>
      </trkpt>
      <trkpt lat="45.02447" lon="5.59829">
        <ele>1329</ele>
        <time>2010-06-20T07:52:32Z</time>
      </trkpt>
      <trkpt lat="45.02449" lon="5.59829">
        <ele>1330</ele>
        <time>2010-06-20T07:52:33Z</time>
      </trkpt>
      <trkpt lat="45.02452" lon="5.59829">
        <ele>1331</ele>
        <time>2010-06-20T07:52:34Z</time>
      </trkpt>
      <trkpt lat="45.02454" lon="5.59829">
        <ele>1332</ele>
        <time>2010-06-20T07:52:35Z</time>
      </trkpt>
      <trkpt lat="45.02456" lon="5.5983">
        <ele>1333</ele>
        <time>2010-06-20T07:52:36Z</time>
      </trkpt>
      <trkpt lat="45.02459" lon="5.5983">
        <ele>1333</ele>
        <time>2010-06-20T07:52:37Z</time>
      </trkpt>
      <trkpt lat="45.02461" lon="5.5983">
        <ele>1334</ele>
        <time>2010-06-20T07:52:38Z</time>
      </trkpt>
      <trkpt lat="45.02463" lon="5.5983">
        <ele>1334</ele>
        <time>2010-06-20T07:52:39Z</time>
      </trkpt>
      <trkpt lat="45.02466" lon="5.59831">
        <ele>1334</ele>
        <time>2010-06-20T07:52:40Z</time>
      </trkpt>
      <trkpt lat="45.02467" lon="5.59831">
        <ele>1334</ele>
        <time>2010-06-20T07:52:41Z</time>
      </trkpt>
      <trkpt lat="45.02469" lon="5.59831">
        <ele>1334</ele>
        <time>2010-06-20T07:52:42Z</time>
      </trkpt>
      <trkpt lat="45.02471" lon="5.59831">
        <ele>1335</ele>
        <time>2010-06-20T07:52:43Z</time>
      </trkpt>
      <trkpt lat="45.02473" lon="5.59831">
        <ele>1335</ele>
        <time>2010-06-20T07:52:44Z</time>
      </trkpt>
      <trkpt lat="45.02476" lon="5.59831">
        <ele>1335</ele>
        <time>2010-06-20T07:52:45Z</time>
      </trkpt>
      <trkpt lat="45.02478" lon="5.59831">
        <ele>1336</ele>
        <time>2010-06-20T07:52:46Z</time>
      </trkpt>
      <trkpt lat="45.0248" lon="5.59832">
        <ele>1336</ele>
        <time>2010-06-20T07:52:47Z</time>
      </trkpt>
      <trkpt lat="45.02482" lon="5.59833">
        <ele>1336</ele>
        <time>2010-06-20T07:52:48Z</time>
      </trkpt>
      <trkpt lat="45.02485" lon="5.59833">
        <ele>1336</ele>
        <time>2010-06-20T07:52:49Z</time>
      </trkpt>
      <trkpt lat="45.02487" lon="5.59833">
        <ele>1336</ele>
        <time>2010-06-20T07:52:50Z</time>
      </trkpt>
      <trkpt lat="45.02489" lon="5.59834">
        <ele>1336</ele>
        <time>2010-06-20T07:52:51Z</time>
      </trkpt>
      <trkpt lat="45.02492" lon="5.59834">
        <ele>1336</ele>
        <time>2010-06-20T07:52:52Z</time>
      </trkpt>
      <trkpt lat="45.02494" lon="5.59834">
        <ele>1336</ele>
        <time>2010-06-20T07:52:53Z</time>
      </trkpt>
      <trkpt lat="45.02496" lon="5.59835">
        <ele>1336</ele>
        <time>2010-06-20T07:52:54Z</time>
      </trkpt>
      <trkpt lat="45.02498" lon="5.59835">
        <ele>1336</ele>
        <time>2010-06-20T07:52:55Z</time>
      </trkpt>
      <trkpt lat="45.02501" lon="5.59836">
        <ele>1336</ele>
        <time>2010-06-20T07:52:56Z</time>
      </trkpt>
      <trkpt lat="45.02503" lon="5.59836">
        <ele>1336</ele>
        <time>2010-06-20T07:52:57Z</time>
      </trkpt>
      <trkpt lat="45.02505" lon="5.59836">
        <ele>1336</ele>
        <time>2010-06-20T07:52:58Z</time>
      </trkpt>
      <trkpt lat="45.02507" lon="5.59836">
        <ele>1336</ele>
        <time>2010-06-20T07:52:59Z</time>
      </trkpt>
      <trkpt lat="45.02509" lon="5.59836">
        <ele>1336</ele>
        <time>2010-06-20T07:53:00Z</time>
      </trkpt>
      <trkpt lat="45.02511" lon="5.59836">
        <ele>1336</ele>
        <time>2010-06-20T07:53:01Z</time>
      </trkpt>
      <trkpt lat="45.02513" lon="5.59837">
        <ele>1336</ele>
        <time>2010-06-20T07:53:02Z</time>
      </trkpt>
      <trkpt lat="45.02515" lon="5.59838">
        <ele>1336</ele>
        <time>2010-06-20T07:53:03Z</time>
      </trkpt>
      <trkpt lat="45.02517" lon="5.59838">
        <ele>1336</ele>
        <time>2010-06-20T07:53:04Z</time>
      </trkpt>
      <trkpt lat="45.02519" lon="5.59838">
        <ele>1336</ele>
        <time>2010-06-20T07:53:05Z</time>
      </trkpt>
      <trkpt lat="45.02521" lon="5.59839">
        <ele>1337</ele>
        <time>2010-06-20T07:53:06Z</time>
      </trkpt>
      <trkpt lat="45.02524" lon="5.59839">
        <ele>1337</ele>
        <time>2010-06-20T07:53:07Z</time>
      </trkpt>
      <trkpt lat="45.02526" lon="5.59839">
        <ele>1338</ele>
        <time>2010-06-20T07:53:08Z</time>
      </trkpt>
      <trkpt lat="45.02528" lon="5.5984">
        <ele>1338</ele>
        <time>2010-06-20T07:53:09Z</time>
      </trkpt>
      <trkpt lat="45.0253" lon="5.5984">
        <ele>1338</ele>
        <time>2010-06-20T07:53:10Z</time>
      </trkpt>
      <trkpt lat="45.02532" lon="5.59841">
        <ele>1338</ele>
        <time>2010-06-20T07:53:11Z</time>
      </trkpt>
      <trkpt lat="45.02534" lon="5.59842">
        <ele>1338</ele>
        <time>2010-06-20T07:53:12Z</time>
      </trkpt>
      <trkpt lat="45.02536" lon="5.59842">
        <ele>1338</ele>
        <time>2010-06-20T07:53:13Z</time>
      </trkpt>
      <trkpt lat="45.02539" lon="5.59842">
        <ele>1338</ele>
        <time>2010-06-20T07:53:14Z</time>
      </trkpt>
      <trkpt lat="45.02541" lon="5.59843">
        <ele>1339</ele>
        <time>2010-06-20T07:53:15Z</time>
      </trkpt>
      <trkpt lat="45.02543" lon="5.59843">
        <ele>1340</ele>
        <time>2010-06-20T07:53:16Z</time>
      </trkpt>
      <trkpt lat="45.02546" lon="5.59844">
        <ele>1341</ele>
        <time>2010-06-20T07:53:17Z</time>
      </trkpt>
      <trkpt lat="45.02548" lon="5.59844">
        <ele>1341</ele>
        <time>2010-06-20T07:53:18Z</time>
      </trkpt>
      <trkpt lat="45.0255" lon="5.59844">
        <ele>1341</ele>
        <time>2010-06-20T07:53:19Z</time>
      </trkpt>
      <trkpt lat="45.02552" lon="5.59845">
        <ele>1341</ele>
        <time>2010-06-20T07:53:20Z</time>
      </trkpt>
      <trkpt lat="45.02554" lon="5.59846">
        <ele>1341</ele>
        <time>2010-06-20T07:53:21Z</time>
      </trkpt>
      <trkpt lat="45.02556" lon="5.59846">
        <ele>1341</ele>
        <time>2010-06-20T07:53:22Z</time>
      </trkpt>
      <trkpt lat="45.02558" lon="5.59847">
        <ele>1341</ele>
        <time>2010-06-20T07:53:23Z</time>
      </trkpt>
      <trkpt lat="45.0256" lon="5.59848">
        <ele>1341</ele>
        <time>2010-06-20T07:53:24Z</time>
      </trkpt>
      <trkpt lat="45.02561" lon="5.59849">
        <ele>1341</ele>
        <time>2010-06-20T07:53:25Z</time>
      </trkpt>
      <trkpt lat="45.02563" lon="5.5985">
        <ele>1341</ele>
        <time>2010-06-20T07:53:26Z</time>
      </trkpt>
      <trkpt lat="45.02565" lon="5.5985">
        <ele>1341</ele>
        <time>2010-06-20T07:53:27Z</time>
      </trkpt>
      <trkpt lat="45.02567" lon="5.59851">
        <ele>1342</ele>
        <time>2010-06-20T07:53:28Z</time>
      </trkpt>
      <trkpt lat="45.0257" lon="5.59851">
        <ele>1342</ele>
        <time>2010-06-20T07:53:29Z</time>
      </trkpt>
      <trkpt lat="45.02571" lon="5.59852">
        <ele>1342</ele>
        <time>2010-06-20T07:53:30Z</time>
      </trkpt>
      <trkpt lat="45.02573" lon="5.59853">
        <ele>1343</ele>
        <time>2010-06-20T07:53:31Z</time>
      </trkpt>
      <trkpt lat="45.02576" lon="5.59853">
        <ele>1343</ele>
        <time>2010-06-20T07:53:32Z</time>
      </trkpt>
      <trkpt lat="45.02578" lon="5.59855">
        <ele>1343</ele>
        <time>2010-06-20T07:53:33Z</time>
      </trkpt>
      <trkpt lat="45.02579" lon="5.59855">
        <ele>1343</ele>
        <time>2010-06-20T07:53:34Z</time>
      </trkpt>
      <trkpt lat="45.02581" lon="5.59855">
        <ele>1343</ele>
        <time>2010-06-20T07:53:35Z</time>
      </trkpt>
      <trkpt lat="45.02583" lon="5.59856">
        <ele>1343</ele>
        <time>2010-06-20T07:53:36Z</time>
      </trkpt>
      <trkpt lat="45.02585" lon="5.59856">
        <ele>1343</ele>
        <time>2010-06-20T07:53:37Z</time>
      </trkpt>
      <trkpt lat="45.02586" lon="5.59857">
        <ele>1343</ele>
        <time>2010-06-20T07:53:38Z</time>
      </trkpt>
      <trkpt lat="45.02588" lon="5.59857">
        <ele>1343</ele>
        <time>2010-06-20T07:53:39Z</time>
      </trkpt>
      <trkpt lat="45.0259" lon="5.59857">
        <ele>1343</ele>
        <time>2010-06-20T07:53:40Z</time>
      </trkpt>
      <trkpt lat="45.02592" lon="5.59858">
        <ele>1343</ele>
        <time>2010-06-20T07:53:41Z</time>
      </trkpt>
      <trkpt lat="45.02594" lon="5.59858">
        <ele>1343</ele>
        <time>2010-06-20T07:53:42Z</time>
      </trkpt>
      <trkpt lat="45.02596" lon="5.59858">
        <ele>1343</ele>
        <time>2010-06-20T07:53:43Z</time>
      </trkpt>
      <trkpt lat="45.02599" lon="5.59858">
        <ele>1343</ele>
        <time>2010-06-20T07:53:44Z</time>
      </trkpt>
      <trkpt lat="45.026" lon="5.59859">
        <ele>1343</ele>
        <time>2010-06-20T07:53:45Z</time>
      </trkpt>
      <trkpt lat="45.02602" lon="5.5986">
        <ele>1343</ele>
        <time>2010-06-20T07:53:46Z</time>
      </trkpt>
      <trkpt lat="45.02604" lon="5.59859">
        <ele>1343</ele>
        <time>2010-06-20T07:53:47Z</time>
      </trkpt>
      <trkpt lat="45.02606" lon="5.59859">
        <ele>1343</ele>
        <time>2010-06-20T07:53:48Z</time>
      </trkpt>
      <trkpt lat="45.02608" lon="5.59858">
        <ele>1344</ele>
        <time>2010-06-20T07:53:49Z</time>
      </trkpt>
      <trkpt lat="45.02611" lon="5.59859">
        <ele>1344</ele>
        <time>2010-06-20T07:53:50Z</time>
      </trkpt>
      <trkpt lat="45.02613" lon="5.59859">
        <ele>1344</ele>
        <time>2010-06-20T07:53:51Z</time>
      </trkpt>
      <trkpt lat="45.02615" lon="5.59859">
        <ele>1344</ele>
        <time>2010-06-20T07:53:52Z</time>
      </trkpt>
      <trkpt lat="45.02617" lon="5.59858">
        <ele>1345</ele>
        <time>2010-06-20T07:53:53Z</time>
      </trkpt>
      <trkpt lat="45.02619" lon="5.59858">
        <ele>1345</ele>
        <time>2010-06-20T07:53:54Z</time>
      </trkpt>
      <trkpt lat="45.02621" lon="5.59858">
        <ele>1346</ele>
        <time>2010-06-20T07:53:55Z</time>
      </trkpt>
      <trkpt lat="45.02623" lon="5.59858">
        <ele>1346</ele>
        <time>2010-06-20T07:53:56Z</time>
      </trkpt>
      <trkpt lat="45.02625" lon="5.59857">
        <ele>1347</ele>
        <time>2010-06-20T07:53:57Z</time>
      </trkpt>
      <trkpt lat="45.02626" lon="5.59858">
        <ele>1348</ele>
        <time>2010-06-20T07:53:58Z</time>
      </trkpt>
      <trkpt lat="45.02628" lon="5.59858">
        <ele>1349</ele>
        <time>2010-06-20T07:53:59Z</time>
      </trkpt>
      <trkpt lat="45.0263" lon="5.59858">
        <ele>1349</ele>
        <time>2010-06-20T07:54:00Z</time>
      </trkpt>
      <trkpt lat="45.02632" lon="5.59858">
        <ele>1350</ele>
        <time>2010-06-20T07:54:01Z</time>
      </trkpt>
      <trkpt lat="45.02634" lon="5.59859">
        <ele>1350</ele>
        <time>2010-06-20T07:54:02Z</time>
      </trkpt>
      <trkpt lat="45.02636" lon="5.5986">
        <ele>1351</ele>
        <time>2010-06-20T07:54:03Z</time>
      </trkpt>
      <trkpt lat="45.02638" lon="5.59861">
        <ele>1351</ele>
        <time>2010-06-20T07:54:04Z</time>
      </trkpt>
      <trkpt lat="45.0264" lon="5.59862">
        <ele>1352</ele>
        <time>2010-06-20T07:54:05Z</time>
      </trkpt>
      <trkpt lat="45.02642" lon="5.59862">
        <ele>1352</ele>
        <time>2010-06-20T07:54:06Z</time>
      </trkpt>
      <trkpt lat="45.02644" lon="5.59863">
        <ele>1352</ele>
        <time>2010-06-20T07:54:07Z</time>
      </trkpt>
      <trkpt lat="45.02646" lon="5.59864">
        <ele>1353</ele>
        <time>2010-06-20T07:54:08Z</time>
      </trkpt>
      <trkpt lat="45.02648" lon="5.59864">
        <ele>1353</ele>
        <time>2010-06-20T07:54:09Z</time>
      </trkpt>
      <trkpt lat="45.0265" lon="5.59864">
        <ele>1353</ele>
        <time>2010-06-20T07:54:10Z</time>
      </trkpt>
      <trkpt lat="45.02651" lon="5.59864">
        <ele>1353</ele>
        <time>2010-06-20T07:54:11Z</time>
      </trkpt>
      <trkpt lat="45.02654" lon="5.59865">
        <ele>1353</ele>
        <time>2010-06-20T07:54:12Z</time>
      </trkpt>
      <trkpt lat="45.02655" lon="5.59865">
        <ele>1354</ele>
        <time>2010-06-20T07:54:13Z</time>
      </trkpt>
      <trkpt lat="45.02657" lon="5.59865">
        <ele>1355</ele>
        <time>2010-06-20T07:54:14Z</time>
      </trkpt>
      <trkpt lat="45.02659" lon="5.59865">
        <ele>1356</ele>
        <time>2010-06-20T07:54:15Z</time>
      </trkpt>
      <trkpt lat="45.02661" lon="5.59865">
        <ele>1356</ele>
        <time>2010-06-20T07:54:16Z</time>
      </trkpt>
      <trkpt lat="45.02663" lon="5.59865">
        <ele>1357</ele>
        <time>2010-06-20T07:54:17Z</time>
      </trkpt>
      <trkpt lat="45.02665" lon="5.59866">
        <ele>1358</ele>
        <time>2010-06-20T07:54:18Z</time>
      </trkpt>
      <trkpt lat="45.02667" lon="5.59866">
        <ele>1358</ele>
        <time>2010-06-20T07:54:19Z</time>
      </trkpt>
      <trkpt lat="45.02669" lon="5.59867">
        <ele>1358</ele>
        <time>2010-06-20T07:54:20Z</time>
      </trkpt>
      <trkpt lat="45.02671" lon="5.59868">
        <ele>1358</ele>
        <time>2010-06-20T07:54:21Z</time>
      </trkpt>
      <trkpt lat="45.02673" lon="5.59868">
        <ele>1358</ele>
        <time>2010-06-20T07:54:22Z</time>
      </trkpt>
      <trkpt lat="45.02675" lon="5.59868">
        <ele>1359</ele>
        <time>2010-06-20T07:54:23Z</time>
      </trkpt>
      <trkpt lat="45.02677" lon="5.59869">
        <ele>1359</ele>
        <time>2010-06-20T07:54:24Z</time>
      </trkpt>
      <trkpt lat="45.02679" lon="5.5987">
        <ele>1360</ele>
        <time>2010-06-20T07:54:25Z</time>
      </trkpt>
      <trkpt lat="45.02681" lon="5.5987">
        <ele>1360</ele>
        <time>2010-06-20T07:54:26Z</time>
      </trkpt>
      <trkpt lat="45.02683" lon="5.5987">
        <ele>1361</ele>
        <time>2010-06-20T07:54:27Z</time>
      </trkpt>
      <trkpt lat="45.02685" lon="5.5987">
        <ele>1361</ele>
        <time>2010-06-20T07:54:28Z</time>
      </trkpt>
      <trkpt lat="45.02687" lon="5.5987">
        <ele>1361</ele>
        <time>2010-06-20T07:54:29Z</time>
      </trkpt>
      <trkpt lat="45.02688" lon="5.5987">
        <ele>1362</ele>
        <time>2010-06-20T07:54:30Z</time>
      </trkpt>
      <trkpt lat="45.0269" lon="5.59871">
        <ele>1362</ele>
        <time>2010-06-20T07:54:31Z</time>
      </trkpt>
      <trkpt lat="45.02692" lon="5.5987">
        <ele>1363</ele>
        <time>2010-06-20T07:54:32Z</time>
      </trkpt>
      <trkpt lat="45.02694" lon="5.5987">
        <ele>1363</ele>
        <time>2010-06-20T07:54:33Z</time>
      </trkpt>
      <trkpt lat="45.02696" lon="5.5987">
        <ele>1364</ele>
        <time>2010-06-20T07:54:34Z</time>
      </trkpt>
      <trkpt lat="45.02698" lon="5.59871">
        <ele>1364</ele>
        <time>2010-06-20T07:54:35Z</time>
      </trkpt>
      <trkpt lat="45.027" lon="5.59871">
        <ele>1365</ele>
        <time>2010-06-20T07:54:36Z</time>
      </trkpt>
      <trkpt lat="45.02702" lon="5.59871">
        <ele>1365</ele>
        <time>2010-06-20T07:54:37Z</time>
      </trkpt>
      <trkpt lat="45.02704" lon="5.59872">
        <ele>1366</ele>
        <time>2010-06-20T07:54:38Z</time>
      </trkpt>
      <trkpt lat="45.02705" lon="5.59872">
        <ele>1367</ele>
        <time>2010-06-20T07:54:39Z</time>
      </trkpt>
      <trkpt lat="45.02708" lon="5.59872">
        <ele>1368</ele>
        <time>2010-06-20T07:54:40Z</time>
      </trkpt>
      <trkpt lat="45.0271" lon="5.59873">
        <ele>1369</ele>
        <time>2010-06-20T07:54:41Z</time>
      </trkpt>
      <trkpt lat="45.02712" lon="5.59872">
        <ele>1370</ele>
        <time>2010-06-20T07:54:42Z</time>
      </trkpt>
      <trkpt lat="45.02714" lon="5.59872">
        <ele>1371</ele>
        <time>2010-06-20T07:54:43Z</time>
      </trkpt>
      <trkpt lat="45.02716" lon="5.59871">
        <ele>1371</ele>
        <time>2010-06-20T07:54:44Z</time>
      </trkpt>
      <trkpt lat="45.02717" lon="5.59871">
        <ele>1371</ele>
        <time>2010-06-20T07:54:45Z</time>
      </trkpt>
      <trkpt lat="45.02719" lon="5.5987">
        <ele>1371</ele>
        <time>2010-06-20T07:54:46Z</time>
      </trkpt>
      <trkpt lat="45.02721" lon="5.59871">
        <ele>1371</ele>
        <time>2010-06-20T07:54:47Z</time>
      </trkpt>
      <trkpt lat="45.02722" lon="5.59871">
        <ele>1371</ele>
        <time>2010-06-20T07:54:48Z</time>
      </trkpt>
      <trkpt lat="45.02724" lon="5.5987">
        <ele>1371</ele>
        <time>2010-06-20T07:54:49Z</time>
      </trkpt>
      <trkpt lat="45.02726" lon="5.5987">
        <ele>1371</ele>
        <time>2010-06-20T07:54:50Z</time>
      </trkpt>
      <trkpt lat="45.02728" lon="5.5987">
        <ele>1371</ele>
        <time>2010-06-20T07:54:51Z</time>
      </trkpt>
      <trkpt lat="45.0273" lon="5.5987">
        <ele>1371</ele>
        <time>2010-06-20T07:54:52Z</time>
      </trkpt>
      <trkpt lat="45.02732" lon="5.5987">
        <ele>1371</ele>
        <time>2010-06-20T07:54:53Z</time>
      </trkpt>
      <trkpt lat="45.02734" lon="5.5987">
        <ele>1371</ele>
        <time>2010-06-20T07:54:54Z</time>
      </trkpt>
      <trkpt lat="45.02736" lon="5.5987">
        <ele>1372</ele>
        <time>2010-06-20T07:54:55Z</time>
      </trkpt>
      <trkpt lat="45.02738" lon="5.5987">
        <ele>1372</ele>
        <time>2010-06-20T07:54:56Z</time>
      </trkpt>
      <trkpt lat="45.0274" lon="5.59871">
        <ele>1372</ele>
        <time>2010-06-20T07:54:57Z</time>
      </trkpt>
      <trkpt lat="45.02742" lon="5.59872">
        <ele>1373</ele>
        <time>2010-06-20T07:54:58Z</time>
      </trkpt>
      <trkpt lat="45.02743" lon="5.59872">
        <ele>1374</ele>
        <time>2010-06-20T07:54:59Z</time>
      </trkpt>
      <trkpt lat="45.02745" lon="5.59872">
        <ele>1374</ele>
        <time>2010-06-20T07:55:00Z</time>
      </trkpt>
      <trkpt lat="45.02747" lon="5.59873">
        <ele>1375</ele>
        <time>2010-06-20T07:55:01Z</time>
      </trkpt>
      <trkpt lat="45.02749" lon="5.59873">
        <ele>1376</ele>
        <time>2010-06-20T07:55:02Z</time>
      </trkpt>
      <trkpt lat="45.02751" lon="5.59873">
        <ele>1377</ele>
        <time>2010-06-20T07:55:03Z</time>
      </trkpt>
      <trkpt lat="45.02753" lon="5.59873">
        <ele>1378</ele>
        <time>2010-06-20T07:55:04Z</time>
      </trkpt>
      <trkpt lat="45.02755" lon="5.59873">
        <ele>1379</ele>
        <time>2010-06-20T07:55:05Z</time>
      </trkpt>
      <trkpt lat="45.02757" lon="5.59874">
        <ele>1379</ele>
        <time>2010-06-20T07:55:06Z</time>
      </trkpt>
      <trkpt lat="45.02759" lon="5.59875">
        <ele>1379</ele>
        <time>2010-06-20T07:55:07Z</time>
      </trkpt>
      <trkpt lat="45.02761" lon="5.59876">
        <ele>1379</ele>
        <time>2010-06-20T07:55:08Z</time>
      </trkpt>
      <trkpt lat="45.02763" lon="5.59876">
        <ele>1379</ele>
        <time>2010-06-20T07:55:09Z</time>
      </trkpt>
      <trkpt lat="45.02764" lon="5.59877">
        <ele>1379</ele>
        <time>2010-06-20T07:55:10Z</time>
      </trkpt>
      <trkpt lat="45.02766" lon="5.59877">
        <ele>1379</ele>
        <time>2010-06-20T07:55:11Z</time>
      </trkpt>
      <trkpt lat="45.02768" lon="5.59878">
        <ele>1379</ele>
        <time>2010-06-20T07:55:12Z</time>
      </trkpt>
      <trkpt lat="45.0277" lon="5.59879">
        <ele>1380</ele>
        <time>2010-06-20T07:55:13Z</time>
      </trkpt>
      <trkpt lat="45.02772" lon="5.59879">
        <ele>1381</ele>
        <time>2010-06-20T07:55:14Z</time>
      </trkpt>
      <trkpt lat="45.02774" lon="5.59879">
        <ele>1382</ele>
        <time>2010-06-20T07:55:15Z</time>
      </trkpt>
      <trkpt lat="45.02776" lon="5.59879">
        <ele>1383</ele>
        <time>2010-06-20T07:55:16Z</time>
      </trkpt>
      <trkpt lat="45.02778" lon="5.59879">
        <ele>1383</ele>
        <time>2010-06-20T07:55:17Z</time>
      </trkpt>
      <trkpt lat="45.0278" lon="5.5988">
        <ele>1383</ele>
        <time>2010-06-20T07:55:18Z</time>
      </trkpt>
      <trkpt lat="45.02782" lon="5.5988">
        <ele>1384</ele>
        <time>2010-06-20T07:55:19Z</time>
      </trkpt>
      <trkpt lat="45.02784" lon="5.5988">
        <ele>1384</ele>
        <time>2010-06-20T07:55:20Z</time>
      </trkpt>
      <trkpt lat="45.02786" lon="5.59881">
        <ele>1384</ele>
        <time>2010-06-20T07:55:21Z</time>
      </trkpt>
      <trkpt lat="45.02787" lon="5.59882">
        <ele>1384</ele>
        <time>2010-06-20T07:55:22Z</time>
      </trkpt>
      <trkpt lat="45.0279" lon="5.59883">
        <ele>1384</ele>
        <time>2010-06-20T07:55:23Z</time>
      </trkpt>
      <trkpt lat="45.02792" lon="5.59884">
        <ele>1384</ele>
        <time>2010-06-20T07:55:24Z</time>
      </trkpt>
      <trkpt lat="45.02794" lon="5.59884">
        <ele>1384</ele>
        <time>2010-06-20T07:55:25Z</time>
      </trkpt>
      <trkpt lat="45.02796" lon="5.59885">
        <ele>1384</ele>
        <time>2010-06-20T07:55:26Z</time>
      </trkpt>
      <trkpt lat="45.02797" lon="5.59886">
        <ele>1384</ele>
        <time>2010-06-20T07:55:27Z</time>
      </trkpt>
      <trkpt lat="45.02799" lon="5.59887">
        <ele>1384</ele>
        <time>2010-06-20T07:55:28Z</time>
      </trkpt>
      <trkpt lat="45.02801" lon="5.59887">
        <ele>1384</ele>
        <time>2010-06-20T07:55:29Z</time>
      </trkpt>
      <trkpt lat="45.02803" lon="5.59886">
        <ele>1383</ele>
        <time>2010-06-20T07:55:30Z</time>
      </trkpt>
      <trkpt lat="45.02803" lon="5.59885">
        <ele>1383</ele>
        <time>2010-06-20T07:55:31Z</time>
      </trkpt>
      <trkpt lat="45.02802" lon="5.59882">
        <ele>1383</ele>
        <time>2010-06-20T07:55:33Z</time>
      </trkpt>
      <trkpt lat="45.02802" lon="5.5988">
        <ele>1383</ele>
        <time>2010-06-20T07:55:34Z</time>
      </trkpt>
      <trkpt lat="45.028" lon="5.59878">
        <ele>1383</ele>
        <time>2010-06-20T07:55:35Z</time>
      </trkpt>
      <trkpt lat="45.02799" lon="5.59877">
        <ele>1383</ele>
        <time>2010-06-20T07:55:36Z</time>
      </trkpt>
      <trkpt lat="45.02797" lon="5.59875">
        <ele>1383</ele>
        <time>2010-06-20T07:55:37Z</time>
      </trkpt>
      <trkpt lat="45.02795" lon="5.59874">
        <ele>1382</ele>
        <time>2010-06-20T07:55:38Z</time>
      </trkpt>
      <trkpt lat="45.02793" lon="5.59873">
        <ele>1382</ele>
        <time>2010-06-20T07:55:39Z</time>
      </trkpt>
      <trkpt lat="45.02791" lon="5.59872">
        <ele>1382</ele>
        <time>2010-06-20T07:55:40Z</time>
      </trkpt>
      <trkpt lat="45.02789" lon="5.59871">
        <ele>1382</ele>
        <time>2010-06-20T07:55:41Z</time>
      </trkpt>
      <trkpt lat="45.02787" lon="5.5987">
        <ele>1382</ele>
        <time>2010-06-20T07:55:42Z</time>
      </trkpt>
      <trkpt lat="45.02785" lon="5.59869">
        <ele>1382</ele>
        <time>2010-06-20T07:55:43Z</time>
      </trkpt>
      <trkpt lat="45.02782" lon="5.59868">
        <ele>1382</ele>
        <time>2010-06-20T07:55:44Z</time>
      </trkpt>
      <trkpt lat="45.0278" lon="5.59868">
        <ele>1382</ele>
        <time>2010-06-20T07:55:45Z</time>
      </trkpt>
      <trkpt lat="45.02778" lon="5.59867">
        <ele>1382</ele>
        <time>2010-06-20T07:55:46Z</time>
      </trkpt>
      <trkpt lat="45.02776" lon="5.59867">
        <ele>1382</ele>
        <time>2010-06-20T07:55:47Z</time>
      </trkpt>
      <trkpt lat="45.02774" lon="5.59866">
        <ele>1382</ele>
        <time>2010-06-20T07:55:48Z</time>
      </trkpt>
      <trkpt lat="45.02772" lon="5.59866">
        <ele>1382</ele>
        <time>2010-06-20T07:55:49Z</time>
      </trkpt>
      <trkpt lat="45.0277" lon="5.59865">
        <ele>1382</ele>
        <time>2010-06-20T07:55:50Z</time>
      </trkpt>
      <trkpt lat="45.02767" lon="5.59864">
        <ele>1382</ele>
        <time>2010-06-20T07:55:51Z</time>
      </trkpt>
      <trkpt lat="45.02765" lon="5.59864">
        <ele>1382</ele>
        <time>2010-06-20T07:55:52Z</time>
      </trkpt>
      <trkpt lat="45.02763" lon="5.59863">
        <ele>1382</ele>
        <time>2010-06-20T07:55:53Z</time>
      </trkpt>
      <trkpt lat="45.02761" lon="5.59862">
        <ele>1382</ele>
        <time>2010-06-20T07:55:54Z</time>
      </trkpt>
      <trkpt lat="45.02758" lon="5.59861">
        <ele>1382</ele>
        <time>2010-06-20T07:55:55Z</time>
      </trkpt>
      <trkpt lat="45.02756" lon="5.5986">
        <ele>1382</ele>
        <time>2010-06-20T07:55:56Z</time>
      </trkpt>
      <trkpt lat="45.02754" lon="5.59858">
        <ele>1382</ele>
        <time>2010-06-20T07:55:57Z</time>
      </trkpt>
      <trkpt lat="45.02752" lon="5.59857">
        <ele>1382</ele>
        <time>2010-06-20T07:55:58Z</time>
      </trkpt>
      <trkpt lat="45.02749" lon="5.59856">
        <ele>1382</ele>
        <time>2010-06-20T07:55:59Z</time>
      </trkpt>
      <trkpt lat="45.02748" lon="5.59854">
        <ele>1382</ele>
        <time>2010-06-20T07:56:00Z</time>
      </trkpt>
      <trkpt lat="45.02746" lon="5.59852">
        <ele>1382</ele>
        <time>2010-06-20T07:56:01Z</time>
      </trkpt>
      <trkpt lat="45.02743" lon="5.59851">
        <ele>1383</ele>
        <time>2010-06-20T07:56:02Z</time>
      </trkpt>
      <trkpt lat="45.02741" lon="5.59849">
        <ele>1383</ele>
        <time>2010-06-20T07:56:03Z</time>
      </trkpt>
      <trkpt lat="45.02739" lon="5.59848">
        <ele>1383</ele>
        <time>2010-06-20T07:56:04Z</time>
      </trkpt>
      <trkpt lat="45.02738" lon="5.59845">
        <ele>1383</ele>
        <time>2010-06-20T07:56:05Z</time>
      </trkpt>
      <trkpt lat="45.02736" lon="5.59844">
        <ele>1384</ele>
        <time>2010-06-20T07:56:06Z</time>
      </trkpt>
      <trkpt lat="45.02734" lon="5.59843">
        <ele>1384</ele>
        <time>2010-06-20T07:56:07Z</time>
      </trkpt>
      <trkpt lat="45.02732" lon="5.59841">
        <ele>1384</ele>
        <time>2010-06-20T07:56:08Z</time>
      </trkpt>
      <trkpt lat="45.0273" lon="5.5984">
        <ele>1384</ele>
        <time>2010-06-20T07:56:09Z</time>
      </trkpt>
      <trkpt lat="45.02729" lon="5.59838">
        <ele>1385</ele>
        <time>2010-06-20T07:56:10Z</time>
      </trkpt>
      <trkpt lat="45.02727" lon="5.59836">
        <ele>1385</ele>
        <time>2010-06-20T07:56:11Z</time>
      </trkpt>
      <trkpt lat="45.02725" lon="5.59834">
        <ele>1385</ele>
        <time>2010-06-20T07:56:12Z</time>
      </trkpt>
      <trkpt lat="45.02724" lon="5.59832">
        <ele>1385</ele>
        <time>2010-06-20T07:56:13Z</time>
      </trkpt>
      <trkpt lat="45.02722" lon="5.5983">
        <ele>1386</ele>
        <time>2010-06-20T07:56:14Z</time>
      </trkpt>
      <trkpt lat="45.0272" lon="5.59829">
        <ele>1386</ele>
        <time>2010-06-20T07:56:15Z</time>
      </trkpt>
      <trkpt lat="45.02717" lon="5.59827">
        <ele>1386</ele>
        <time>2010-06-20T07:56:16Z</time>
      </trkpt>
      <trkpt lat="45.02715" lon="5.59826">
        <ele>1386</ele>
        <time>2010-06-20T07:56:17Z</time>
      </trkpt>
      <trkpt lat="45.02713" lon="5.59824">
        <ele>1386</ele>
        <time>2010-06-20T07:56:18Z</time>
      </trkpt>
      <trkpt lat="45.02711" lon="5.59822">
        <ele>1386</ele>
        <time>2010-06-20T07:56:19Z</time>
      </trkpt>
      <trkpt lat="45.02709" lon="5.5982">
        <ele>1386</ele>
        <time>2010-06-20T07:56:20Z</time>
      </trkpt>
      <trkpt lat="45.02707" lon="5.59819">
        <ele>1386</ele>
        <time>2010-06-20T07:56:21Z</time>
      </trkpt>
      <trkpt lat="45.02705" lon="5.59817">
        <ele>1386</ele>
        <time>2010-06-20T07:56:22Z</time>
      </trkpt>
      <trkpt lat="45.02703" lon="5.59814">
        <ele>1386</ele>
        <time>2010-06-20T07:56:23Z</time>
      </trkpt>
      <trkpt lat="45.02702" lon="5.59812">
        <ele>1386</ele>
        <time>2010-06-20T07:56:24Z</time>
      </trkpt>
      <trkpt lat="45.027" lon="5.5981">
        <ele>1386</ele>
        <time>2010-06-20T07:56:25Z</time>
      </trkpt>
      <trkpt lat="45.02698" lon="5.59808">
        <ele>1387</ele>
        <time>2010-06-20T07:56:26Z</time>
      </trkpt>
      <trkpt lat="45.02696" lon="5.59806">
        <ele>1387</ele>
        <time>2010-06-20T07:56:27Z</time>
      </trkpt>
      <trkpt lat="45.02694" lon="5.59805">
        <ele>1387</ele>
        <time>2010-06-20T07:56:28Z</time>
      </trkpt>
      <trkpt lat="45.02692" lon="5.59804">
        <ele>1387</ele>
        <time>2010-06-20T07:56:29Z</time>
      </trkpt>
      <trkpt lat="45.0269" lon="5.59802">
        <ele>1387</ele>
        <time>2010-06-20T07:56:30Z</time>
      </trkpt>
      <trkpt lat="45.02688" lon="5.59801">
        <ele>1387</ele>
        <time>2010-06-20T07:56:31Z</time>
      </trkpt>
      <trkpt lat="45.02686" lon="5.598">
        <ele>1387</ele>
        <time>2010-06-20T07:56:32Z</time>
      </trkpt>
      <trkpt lat="45.02683" lon="5.59799">
        <ele>1387</ele>
        <time>2010-06-20T07:56:33Z</time>
      </trkpt>
      <trkpt lat="45.02682" lon="5.59797">
        <ele>1387</ele>
        <time>2010-06-20T07:56:34Z</time>
      </trkpt>
      <trkpt lat="45.0268" lon="5.59796">
        <ele>1387</ele>
        <time>2010-06-20T07:56:35Z</time>
      </trkpt>
      <trkpt lat="45.02678" lon="5.59794">
        <ele>1387</ele>
        <time>2010-06-20T07:56:36Z</time>
      </trkpt>
      <trkpt lat="45.02676" lon="5.59792">
        <ele>1387</ele>
        <time>2010-06-20T07:56:37Z</time>
      </trkpt>
      <trkpt lat="45.02674" lon="5.59791">
        <ele>1387</ele>
        <time>2010-06-20T07:56:38Z</time>
      </trkpt>
      <trkpt lat="45.02672" lon="5.59789">
        <ele>1387</ele>
        <time>2010-06-20T07:56:39Z</time>
      </trkpt>
      <trkpt lat="45.02669" lon="5.59789">
        <ele>1387</ele>
        <time>2010-06-20T07:56:40Z</time>
      </trkpt>
      <trkpt lat="45.02666" lon="5.59788">
        <ele>1387</ele>
        <time>2010-06-20T07:56:41Z</time>
      </trkpt>
      <trkpt lat="45.02664" lon="5.59787">
        <ele>1387</ele>
        <time>2010-06-20T07:56:42Z</time>
      </trkpt>
      <trkpt lat="45.02662" lon="5.59785">
        <ele>1388</ele>
        <time>2010-06-20T07:56:43Z</time>
      </trkpt>
      <trkpt lat="45.0266" lon="5.59784">
        <ele>1388</ele>
        <time>2010-06-20T07:56:44Z</time>
      </trkpt>
      <trkpt lat="45.02657" lon="5.59783">
        <ele>1388</ele>
        <time>2010-06-20T07:56:45Z</time>
      </trkpt>
      <trkpt lat="45.02655" lon="5.59782">
        <ele>1388</ele>
        <time>2010-06-20T07:56:46Z</time>
      </trkpt>
      <trkpt lat="45.02653" lon="5.59779">
        <ele>1388</ele>
        <time>2010-06-20T07:56:47Z</time>
      </trkpt>
      <trkpt lat="45.0265" lon="5.59777">
        <ele>1388</ele>
        <time>2010-06-20T07:56:48Z</time>
      </trkpt>
      <trkpt lat="45.02648" lon="5.59776">
        <ele>1388</ele>
        <time>2010-06-20T07:56:49Z</time>
      </trkpt>
      <trkpt lat="45.02645" lon="5.59774">
        <ele>1388</ele>
        <time>2010-06-20T07:56:50Z</time>
      </trkpt>
      <trkpt lat="45.02643" lon="5.59773">
        <ele>1388</ele>
        <time>2010-06-20T07:56:51Z</time>
      </trkpt>
      <trkpt lat="45.02641" lon="5.5977">
        <ele>1388</ele>
        <time>2010-06-20T07:56:52Z</time>
      </trkpt>
      <trkpt lat="45.02639" lon="5.59769">
        <ele>1389</ele>
        <time>2010-06-20T07:56:53Z</time>
      </trkpt>
      <trkpt lat="45.02637" lon="5.59767">
        <ele>1389</ele>
        <time>2010-06-20T07:56:54Z</time>
      </trkpt>
      <trkpt lat="45.02634" lon="5.59766">
        <ele>1389</ele>
        <time>2010-06-20T07:56:55Z</time>
      </trkpt>
      <trkpt lat="45.02632" lon="5.59764">
        <ele>1390</ele>
        <time>2010-06-20T07:56:56Z</time>
      </trkpt>
      <trkpt lat="45.0263" lon="5.59762">
        <ele>1390</ele>
        <time>2010-06-20T07:56:57Z</time>
      </trkpt>
      <trkpt lat="45.02627" lon="5.59761">
        <ele>1390</ele>
        <time>2010-06-20T07:56:58Z</time>
      </trkpt>
      <trkpt lat="45.02626" lon="5.5976">
        <ele>1390</ele>
        <time>2010-06-20T07:56:59Z</time>
      </trkpt>
      <trkpt lat="45.02624" lon="5.59759">
        <ele>1391</ele>
        <time>2010-06-20T07:57:00Z</time>
      </trkpt>
      <trkpt lat="45.02622" lon="5.59757">
        <ele>1391</ele>
        <time>2010-06-20T07:57:01Z</time>
      </trkpt>
      <trkpt lat="45.0262" lon="5.59756">
        <ele>1391</ele>
        <time>2010-06-20T07:57:02Z</time>
      </trkpt>
      <trkpt lat="45.02618" lon="5.59754">
        <ele>1391</ele>
        <time>2010-06-20T07:57:03Z</time>
      </trkpt>
      <trkpt lat="45.02616" lon="5.59752">
        <ele>1391</ele>
        <time>2010-06-20T07:57:04Z</time>
      </trkpt>
      <trkpt lat="45.02614" lon="5.59751">
        <ele>1391</ele>
        <time>2010-06-20T07:57:05Z</time>
      </trkpt>
      <trkpt lat="45.02612" lon="5.59749">
        <ele>1392</ele>
        <time>2010-06-20T07:57:06Z</time>
      </trkpt>
      <trkpt lat="45.0261" lon="5.59748">
        <ele>1392</ele>
        <time>2010-06-20T07:57:07Z</time>
      </trkpt>
      <trkpt lat="45.02608" lon="5.59746">
        <ele>1393</ele>
        <time>2010-06-20T07:57:08Z</time>
      </trkpt>
      <trkpt lat="45.02606" lon="5.59745">
        <ele>1393</ele>
        <time>2010-06-20T07:57:09Z</time>
      </trkpt>
      <trkpt lat="45.02604" lon="5.59744">
        <ele>1393</ele>
        <time>2010-06-20T07:57:10Z</time>
      </trkpt>
      <trkpt lat="45.02601" lon="5.59742">
        <ele>1393</ele>
        <time>2010-06-20T07:57:11Z</time>
      </trkpt>
      <trkpt lat="45.02599" lon="5.5974">
        <ele>1394</ele>
        <time>2010-06-20T07:57:12Z</time>
      </trkpt>
      <trkpt lat="45.02597" lon="5.59739">
        <ele>1394</ele>
        <time>2010-06-20T07:57:13Z</time>
      </trkpt>
      <trkpt lat="45.02596" lon="5.59736">
        <ele>1394</ele>
        <time>2010-06-20T07:57:14Z</time>
      </trkpt>
      <trkpt lat="45.02594" lon="5.59734">
        <ele>1395</ele>
        <time>2010-06-20T07:57:15Z</time>
      </trkpt>
      <trkpt lat="45.02592" lon="5.59733">
        <ele>1395</ele>
        <time>2010-06-20T07:57:16Z</time>
      </trkpt>
      <trkpt lat="45.0259" lon="5.59731">
        <ele>1395</ele>
        <time>2010-06-20T07:57:17Z</time>
      </trkpt>
      <trkpt lat="45.02588" lon="5.59729">
        <ele>1396</ele>
        <time>2010-06-20T07:57:18Z</time>
      </trkpt>
      <trkpt lat="45.02586" lon="5.59727">
        <ele>1396</ele>
        <time>2010-06-20T07:57:19Z</time>
      </trkpt>
      <trkpt lat="45.02584" lon="5.59725">
        <ele>1396</ele>
        <time>2010-06-20T07:57:20Z</time>
      </trkpt>
      <trkpt lat="45.02582" lon="5.59724">
        <ele>1397</ele>
        <time>2010-06-20T07:57:21Z</time>
      </trkpt>
      <trkpt lat="45.0258" lon="5.59722">
        <ele>1397</ele>
        <time>2010-06-20T07:57:22Z</time>
      </trkpt>
      <trkpt lat="45.02578" lon="5.59719">
        <ele>1397</ele>
        <time>2010-06-20T07:57:23Z</time>
      </trkpt>
      <trkpt lat="45.02576" lon="5.59716">
        <ele>1397</ele>
        <time>2010-06-20T07:57:24Z</time>
      </trkpt>
      <trkpt lat="45.02574" lon="5.59713">
        <ele>1398</ele>
        <time>2010-06-20T07:57:25Z</time>
      </trkpt>
      <trkpt lat="45.02572" lon="5.59711">
        <ele>1398</ele>
        <time>2010-06-20T07:57:26Z</time>
      </trkpt>
      <trkpt lat="45.0257" lon="5.59708">
        <ele>1398</ele>
        <time>2010-06-20T07:57:27Z</time>
      </trkpt>
      <trkpt lat="45.02568" lon="5.59706">
        <ele>1398</ele>
        <time>2010-06-20T07:57:28Z</time>
      </trkpt>
      <trkpt lat="45.02566" lon="5.59705">
        <ele>1398</ele>
        <time>2010-06-20T07:57:29Z</time>
      </trkpt>
      <trkpt lat="45.02563" lon="5.59703">
        <ele>1398</ele>
        <time>2010-06-20T07:57:30Z</time>
      </trkpt>
      <trkpt lat="45.02561" lon="5.59701">
        <ele>1398</ele>
        <time>2010-06-20T07:57:31Z</time>
      </trkpt>
      <trkpt lat="45.02559" lon="5.597">
        <ele>1399</ele>
        <time>2010-06-20T07:57:32Z</time>
      </trkpt>
      <trkpt lat="45.02556" lon="5.59699">
        <ele>1399</ele>
        <time>2010-06-20T07:57:33Z</time>
      </trkpt>
      <trkpt lat="45.02554" lon="5.59698">
        <ele>1399</ele>
        <time>2010-06-20T07:57:34Z</time>
      </trkpt>
      <trkpt lat="45.02552" lon="5.59696">
        <ele>1399</ele>
        <time>2010-06-20T07:57:35Z</time>
      </trkpt>
      <trkpt lat="45.02549" lon="5.59695">
        <ele>1400</ele>
        <time>2010-06-20T07:57:36Z</time>
      </trkpt>
      <trkpt lat="45.02547" lon="5.59693">
        <ele>1400</ele>
        <time>2010-06-20T07:57:37Z</time>
      </trkpt>
      <trkpt lat="45.02545" lon="5.59691">
        <ele>1400</ele>
        <time>2010-06-20T07:57:38Z</time>
      </trkpt>
      <trkpt lat="45.02543" lon="5.59689">
        <ele>1400</ele>
        <time>2010-06-20T07:57:39Z</time>
      </trkpt>
      <trkpt lat="45.02541" lon="5.59687">
        <ele>1400</ele>
        <time>2010-06-20T07:57:40Z</time>
      </trkpt>
      <trkpt lat="45.02539" lon="5.59685">
        <ele>1401</ele>
        <time>2010-06-20T07:57:41Z</time>
      </trkpt>
      <trkpt lat="45.02536" lon="5.59683">
        <ele>1401</ele>
        <time>2010-06-20T07:57:42Z</time>
      </trkpt>
      <trkpt lat="45.02534" lon="5.59681">
        <ele>1402</ele>
        <time>2010-06-20T07:57:43Z</time>
      </trkpt>
      <trkpt lat="45.02531" lon="5.59679">
        <ele>1402</ele>
        <time>2010-06-20T07:57:44Z</time>
      </trkpt>
      <trkpt lat="45.02529" lon="5.59678">
        <ele>1403</ele>
        <time>2010-06-20T07:57:45Z</time>
      </trkpt>
      <trkpt lat="45.02527" lon="5.59675">
        <ele>1403</ele>
        <time>2010-06-20T07:57:46Z</time>
      </trkpt>
      <trkpt lat="45.02525" lon="5.59673">
        <ele>1403</ele>
        <time>2010-06-20T07:57:47Z</time>
      </trkpt>
      <trkpt lat="45.02523" lon="5.59671">
        <ele>1404</ele>
        <time>2010-06-20T07:57:48Z</time>
      </trkpt>
      <trkpt lat="45.0252" lon="5.5967">
        <ele>1404</ele>
        <time>2010-06-20T07:57:49Z</time>
      </trkpt>
      <trkpt lat="45.02518" lon="5.59668">
        <ele>1404</ele>
        <time>2010-06-20T07:57:50Z</time>
      </trkpt>
      <trkpt lat="45.02515" lon="5.59667">
        <ele>1404</ele>
        <time>2010-06-20T07:57:51Z</time>
      </trkpt>
      <trkpt lat="45.02512" lon="5.59666">
        <ele>1404</ele>
        <time>2010-06-20T07:57:52Z</time>
      </trkpt>
      <trkpt lat="45.0251" lon="5.59664">
        <ele>1404</ele>
        <time>2010-06-20T07:57:53Z</time>
      </trkpt>
      <trkpt lat="45.02508" lon="5.59663">
        <ele>1404</ele>
        <time>2010-06-20T07:57:54Z</time>
      </trkpt>
      <trkpt lat="45.02506" lon="5.5966">
        <ele>1405</ele>
        <time>2010-06-20T07:57:55Z</time>
      </trkpt>
      <trkpt lat="45.02505" lon="5.59658">
        <ele>1405</ele>
        <time>2010-06-20T07:57:56Z</time>
      </trkpt>
      <trkpt lat="45.02503" lon="5.59656">
        <ele>1405</ele>
        <time>2010-06-20T07:57:57Z</time>
      </trkpt>
      <trkpt lat="45.025" lon="5.59655">
        <ele>1405</ele>
        <time>2010-06-20T07:57:58Z</time>
      </trkpt>
      <trkpt lat="45.02499" lon="5.59652">
        <ele>1405</ele>
        <time>2010-06-20T07:57:59Z</time>
      </trkpt>
      <trkpt lat="45.02497" lon="5.59649">
        <ele>1406</ele>
        <time>2010-06-20T07:58:00Z</time>
      </trkpt>
      <trkpt lat="45.02496" lon="5.59647">
        <ele>1406</ele>
        <time>2010-06-20T07:58:01Z</time>
      </trkpt>
      <trkpt lat="45.02493" lon="5.59645">
        <ele>1406</ele>
        <time>2010-06-20T07:58:02Z</time>
      </trkpt>
      <trkpt lat="45.02491" lon="5.59643">
        <ele>1407</ele>
        <time>2010-06-20T07:58:03Z</time>
      </trkpt>
      <trkpt lat="45.02489" lon="5.59641">
        <ele>1407</ele>
        <time>2010-06-20T07:58:04Z</time>
      </trkpt>
      <trkpt lat="45.02487" lon="5.59639">
        <ele>1407</ele>
        <time>2010-06-20T07:58:05Z</time>
      </trkpt>
      <trkpt lat="45.02485" lon="5.59636">
        <ele>1407</ele>
        <time>2010-06-20T07:58:06Z</time>
      </trkpt>
      <trkpt lat="45.02483" lon="5.59634">
        <ele>1407</ele>
        <time>2010-06-20T07:58:07Z</time>
      </trkpt>
      <trkpt lat="45.0248" lon="5.59632">
        <ele>1407</ele>
        <time>2010-06-20T07:58:08Z</time>
      </trkpt>
      <trkpt lat="45.02478" lon="5.5963">
        <ele>1407</ele>
        <time>2010-06-20T07:58:09Z</time>
      </trkpt>
      <trkpt lat="45.02475" lon="5.59628">
        <ele>1407</ele>
        <time>2010-06-20T07:58:10Z</time>
      </trkpt>
      <trkpt lat="45.02473" lon="5.59626">
        <ele>1407</ele>
        <time>2010-06-20T07:58:11Z</time>
      </trkpt>
      <trkpt lat="45.0247" lon="5.59625">
        <ele>1407</ele>
        <time>2010-06-20T07:58:12Z</time>
      </trkpt>
      <trkpt lat="45.02467" lon="5.59623">
        <ele>1407</ele>
        <time>2010-06-20T07:58:13Z</time>
      </trkpt>
      <trkpt lat="45.02465" lon="5.59621">
        <ele>1407</ele>
        <time>2010-06-20T07:58:14Z</time>
      </trkpt>
      <trkpt lat="45.02463" lon="5.59619">
        <ele>1407</ele>
        <time>2010-06-20T07:58:15Z</time>
      </trkpt>
      <trkpt lat="45.0246" lon="5.59618">
        <ele>1407</ele>
        <time>2010-06-20T07:58:16Z</time>
      </trkpt>
      <trkpt lat="45.02457" lon="5.59616">
        <ele>1407</ele>
        <time>2010-06-20T07:58:17Z</time>
      </trkpt>
      <trkpt lat="45.02455" lon="5.59614">
        <ele>1407</ele>
        <time>2010-06-20T07:58:18Z</time>
      </trkpt>
      <trkpt lat="45.02452" lon="5.59612">
        <ele>1407</ele>
        <time>2010-06-20T07:58:19Z</time>
      </trkpt>
      <trkpt lat="45.0245" lon="5.59611">
        <ele>1407</ele>
        <time>2010-06-20T07:58:20Z</time>
      </trkpt>
      <trkpt lat="45.02447" lon="5.5961">
        <ele>1407</ele>
        <time>2010-06-20T07:58:21Z</time>
      </trkpt>
      <trkpt lat="45.02444" lon="5.59609">
        <ele>1407</ele>
        <time>2010-06-20T07:58:22Z</time>
      </trkpt>
      <trkpt lat="45.02442" lon="5.59607">
        <ele>1407</ele>
        <time>2010-06-20T07:58:23Z</time>
      </trkpt>
      <trkpt lat="45.0244" lon="5.59606">
        <ele>1407</ele>
        <time>2010-06-20T07:58:24Z</time>
      </trkpt>
      <trkpt lat="45.02437" lon="5.59604">
        <ele>1407</ele>
        <time>2010-06-20T07:58:25Z</time>
      </trkpt>
      <trkpt lat="45.02435" lon="5.59602">
        <ele>1407</ele>
        <time>2010-06-20T07:58:26Z</time>
      </trkpt>
      <trkpt lat="45.02432" lon="5.59601">
        <ele>1407</ele>
        <time>2010-06-20T07:58:27Z</time>
      </trkpt>
      <trkpt lat="45.02429" lon="5.596">
        <ele>1407</ele>
        <time>2010-06-20T07:58:28Z</time>
      </trkpt>
      <trkpt lat="45.02426" lon="5.59599">
        <ele>1407</ele>
        <time>2010-06-20T07:58:29Z</time>
      </trkpt>
      <trkpt lat="45.02424" lon="5.59597">
        <ele>1407</ele>
        <time>2010-06-20T07:58:30Z</time>
      </trkpt>
      <trkpt lat="45.02422" lon="5.59595">
        <ele>1407</ele>
        <time>2010-06-20T07:58:31Z</time>
      </trkpt>
      <trkpt lat="45.0242" lon="5.59593">
        <ele>1407</ele>
        <time>2010-06-20T07:58:32Z</time>
      </trkpt>
      <trkpt lat="45.02418" lon="5.59591">
        <ele>1407</ele>
        <time>2010-06-20T07:58:33Z</time>
      </trkpt>
      <trkpt lat="45.02416" lon="5.59589">
        <ele>1407</ele>
        <time>2010-06-20T07:58:34Z</time>
      </trkpt>
      <trkpt lat="45.02414" lon="5.59588">
        <ele>1407</ele>
        <time>2010-06-20T07:58:35Z</time>
      </trkpt>
      <trkpt lat="45.02412" lon="5.59587">
        <ele>1408</ele>
        <time>2010-06-20T07:58:36Z</time>
      </trkpt>
      <trkpt lat="45.0241" lon="5.59585">
        <ele>1408</ele>
        <time>2010-06-20T07:58:37Z</time>
      </trkpt>
      <trkpt lat="45.02407" lon="5.59583">
        <ele>1408</ele>
        <time>2010-06-20T07:58:38Z</time>
      </trkpt>
      <trkpt lat="45.02404" lon="5.59582">
        <ele>1408</ele>
        <time>2010-06-20T07:58:39Z</time>
      </trkpt>
      <trkpt lat="45.02402" lon="5.5958">
        <ele>1408</ele>
        <time>2010-06-20T07:58:40Z</time>
      </trkpt>
      <trkpt lat="45.024" lon="5.59578">
        <ele>1408</ele>
        <time>2010-06-20T07:58:41Z</time>
      </trkpt>
      <trkpt lat="45.02396" lon="5.59577">
        <ele>1408</ele>
        <time>2010-06-20T07:58:42Z</time>
      </trkpt>
      <trkpt lat="45.02393" lon="5.59577">
        <ele>1408</ele>
        <time>2010-06-20T07:58:43Z</time>
      </trkpt>
      <trkpt lat="45.02391" lon="5.59576">
        <ele>1408</ele>
        <time>2010-06-20T07:58:44Z</time>
      </trkpt>
      <trkpt lat="45.02388" lon="5.59574">
        <ele>1408</ele>
        <time>2010-06-20T07:58:45Z</time>
      </trkpt>
      <trkpt lat="45.02386" lon="5.59573">
        <ele>1408</ele>
        <time>2010-06-20T07:58:46Z</time>
      </trkpt>
      <trkpt lat="45.02383" lon="5.59572">
        <ele>1408</ele>
        <time>2010-06-20T07:58:47Z</time>
      </trkpt>
      <trkpt lat="45.0238" lon="5.59571">
        <ele>1408</ele>
        <time>2010-06-20T07:58:48Z</time>
      </trkpt>
      <trkpt lat="45.02377" lon="5.5957">
        <ele>1408</ele>
        <time>2010-06-20T07:58:49Z</time>
      </trkpt>
      <trkpt lat="45.02374" lon="5.59568">
        <ele>1408</ele>
        <time>2010-06-20T07:58:50Z</time>
      </trkpt>
      <trkpt lat="45.02372" lon="5.59566">
        <ele>1408</ele>
        <time>2010-06-20T07:58:51Z</time>
      </trkpt>
      <trkpt lat="45.02369" lon="5.59565">
        <ele>1408</ele>
        <time>2010-06-20T07:58:52Z</time>
      </trkpt>
      <trkpt lat="45.02366" lon="5.59564">
        <ele>1408</ele>
        <time>2010-06-20T07:58:53Z</time>
      </trkpt>
      <trkpt lat="45.02363" lon="5.59564">
        <ele>1408</ele>
        <time>2010-06-20T07:58:54Z</time>
      </trkpt>
      <trkpt lat="45.0236" lon="5.59563">
        <ele>1408</ele>
        <time>2010-06-20T07:58:55Z</time>
      </trkpt>
      <trkpt lat="45.02357" lon="5.59562">
        <ele>1408</ele>
        <time>2010-06-20T07:58:56Z</time>
      </trkpt>
      <trkpt lat="45.02354" lon="5.5956">
        <ele>1408</ele>
        <time>2010-06-20T07:58:57Z</time>
      </trkpt>
      <trkpt lat="45.02351" lon="5.59559">
        <ele>1409</ele>
        <time>2010-06-20T07:58:58Z</time>
      </trkpt>
      <trkpt lat="45.02348" lon="5.59558">
        <ele>1409</ele>
        <time>2010-06-20T07:58:59Z</time>
      </trkpt>
      <trkpt lat="45.02346" lon="5.59557">
        <ele>1409</ele>
        <time>2010-06-20T07:59:00Z</time>
      </trkpt>
      <trkpt lat="45.02342" lon="5.59558">
        <ele>1409</ele>
        <time>2010-06-20T07:59:01Z</time>
      </trkpt>
      <trkpt lat="45.02339" lon="5.59559">
        <ele>1409</ele>
        <time>2010-06-20T07:59:02Z</time>
      </trkpt>
      <trkpt lat="45.02335" lon="5.59559">
        <ele>1409</ele>
        <time>2010-06-20T07:59:03Z</time>
      </trkpt>
      <trkpt lat="45.02331" lon="5.5956">
        <ele>1409</ele>
        <time>2010-06-20T07:59:04Z</time>
      </trkpt>
      <trkpt lat="45.02327" lon="5.5956">
        <ele>1409</ele>
        <time>2010-06-20T07:59:05Z</time>
      </trkpt>
      <trkpt lat="45.02323" lon="5.59562">
        <ele>1409</ele>
        <time>2010-06-20T07:59:06Z</time>
      </trkpt>
      <trkpt lat="45.0232" lon="5.59563">
        <ele>1409</ele>
        <time>2010-06-20T07:59:07Z</time>
      </trkpt>
      <trkpt lat="45.02316" lon="5.59563">
        <ele>1409</ele>
        <time>2010-06-20T07:59:08Z</time>
      </trkpt>
      <trkpt lat="45.02313" lon="5.59563">
        <ele>1409</ele>
        <time>2010-06-20T07:59:09Z</time>
      </trkpt>
      <trkpt lat="45.02309" lon="5.59562">
        <ele>1409</ele>
        <time>2010-06-20T07:59:10Z</time>
      </trkpt>
      <trkpt lat="45.02307" lon="5.5956">
        <ele>1409</ele>
        <time>2010-06-20T07:59:11Z</time>
      </trkpt>
      <trkpt lat="45.02304" lon="5.59559">
        <ele>1409</ele>
        <time>2010-06-20T07:59:12Z</time>
      </trkpt>
      <trkpt lat="45.02302" lon="5.59556">
        <ele>1410</ele>
        <time>2010-06-20T07:59:13Z</time>
      </trkpt>
      <trkpt lat="45.02299" lon="5.59555">
        <ele>1410</ele>
        <time>2010-06-20T07:59:14Z</time>
      </trkpt>
      <trkpt lat="45.02296" lon="5.59553">
        <ele>1410</ele>
        <time>2010-06-20T07:59:15Z</time>
      </trkpt>
      <trkpt lat="45.02293" lon="5.59551">
        <ele>1410</ele>
        <time>2010-06-20T07:59:16Z</time>
      </trkpt>
      <trkpt lat="45.0229" lon="5.59549">
        <ele>1410</ele>
        <time>2010-06-20T07:59:17Z</time>
      </trkpt>
      <trkpt lat="45.02288" lon="5.59546">
        <ele>1410</ele>
        <time>2010-06-20T07:59:18Z</time>
      </trkpt>
      <trkpt lat="45.02285" lon="5.59544">
        <ele>1410</ele>
        <time>2010-06-20T07:59:19Z</time>
      </trkpt>
      <trkpt lat="45.02282" lon="5.59541">
        <ele>1410</ele>
        <time>2010-06-20T07:59:20Z</time>
      </trkpt>
      <trkpt lat="45.0228" lon="5.59539">
        <ele>1410</ele>
        <time>2010-06-20T07:59:21Z</time>
      </trkpt>
      <trkpt lat="45.02277" lon="5.59537">
        <ele>1410</ele>
        <time>2010-06-20T07:59:22Z</time>
      </trkpt>
      <trkpt lat="45.02274" lon="5.59535">
        <ele>1410</ele>
        <time>2010-06-20T07:59:23Z</time>
      </trkpt>
      <trkpt lat="45.02272" lon="5.59533">
        <ele>1410</ele>
        <time>2010-06-20T07:59:24Z</time>
      </trkpt>
      <trkpt lat="45.02269" lon="5.59532">
        <ele>1410</ele>
        <time>2010-06-20T07:59:25Z</time>
      </trkpt>
      <trkpt lat="45.02267" lon="5.5953">
        <ele>1410</ele>
        <time>2010-06-20T07:59:26Z</time>
      </trkpt>
      <trkpt lat="45.02264" lon="5.59528">
        <ele>1410</ele>
        <time>2010-06-20T07:59:27Z</time>
      </trkpt>
      <trkpt lat="45.02261" lon="5.59526">
        <ele>1410</ele>
        <time>2010-06-20T07:59:28Z</time>
      </trkpt>
      <trkpt lat="45.02258" lon="5.59525">
        <ele>1410</ele>
        <time>2010-06-20T07:59:29Z</time>
      </trkpt>
      <trkpt lat="45.02255" lon="5.59523">
        <ele>1410</ele>
        <time>2010-06-20T07:59:30Z</time>
      </trkpt>
      <trkpt lat="45.02252" lon="5.59521">
        <ele>1410</ele>
        <time>2010-06-20T07:59:31Z</time>
      </trkpt>
      <trkpt lat="45.02249" lon="5.59518">
        <ele>1410</ele>
        <time>2010-06-20T07:59:32Z</time>
      </trkpt>
      <trkpt lat="45.02246" lon="5.59516">
        <ele>1410</ele>
        <time>2010-06-20T07:59:33Z</time>
      </trkpt>
      <trkpt lat="45.02243" lon="5.59514">
        <ele>1410</ele>
        <time>2010-06-20T07:59:34Z</time>
      </trkpt>
      <trkpt lat="45.0224" lon="5.59512">
        <ele>1411</ele>
        <time>2010-06-20T07:59:35Z</time>
      </trkpt>
      <trkpt lat="45.02237" lon="5.59511">
        <ele>1411</ele>
        <time>2010-06-20T07:59:36Z</time>
      </trkpt>
      <trkpt lat="45.02234" lon="5.59509">
        <ele>1411</ele>
        <time>2010-06-20T07:59:37Z</time>
      </trkpt>
      <trkpt lat="45.02231" lon="5.59507">
        <ele>1411</ele>
        <time>2010-06-20T07:59:38Z</time>
      </trkpt>
      <trkpt lat="45.02228" lon="5.59505">
        <ele>1411</ele>
        <time>2010-06-20T07:59:39Z</time>
      </trkpt>
      <trkpt lat="45.02225" lon="5.59503">
        <ele>1411</ele>
        <time>2010-06-20T07:59:40Z</time>
      </trkpt>
      <trkpt lat="45.02222" lon="5.59502">
        <ele>1411</ele>
        <time>2010-06-20T07:59:41Z</time>
      </trkpt>
      <trkpt lat="45.02219" lon="5.595">
        <ele>1411</ele>
        <time>2010-06-20T07:59:42Z</time>
      </trkpt>
      <trkpt lat="45.02216" lon="5.59498">
        <ele>1411</ele>
        <time>2010-06-20T07:59:43Z</time>
      </trkpt>
      <trkpt lat="45.02213" lon="5.59496">
        <ele>1411</ele>
        <time>2010-06-20T07:59:44Z</time>
      </trkpt>
      <trkpt lat="45.02209" lon="5.59495">
        <ele>1411</ele>
        <time>2010-06-20T07:59:45Z</time>
      </trkpt>
      <trkpt lat="45.02206" lon="5.59495">
        <ele>1411</ele>
        <time>2010-06-20T07:59:46Z</time>
      </trkpt>
      <trkpt lat="45.02202" lon="5.59494">
        <ele>1411</ele>
        <time>2010-06-20T07:59:47Z</time>
      </trkpt>
      <trkpt lat="45.02199" lon="5.59493">
        <ele>1411</ele>
        <time>2010-06-20T07:59:48Z</time>
      </trkpt>
      <trkpt lat="45.02195" lon="5.59493">
        <ele>1411</ele>
        <time>2010-06-20T07:59:49Z</time>
      </trkpt>
      <trkpt lat="45.02192" lon="5.59492">
        <ele>1411</ele>
        <time>2010-06-20T07:59:50Z</time>
      </trkpt>
      <trkpt lat="45.02189" lon="5.59492">
        <ele>1411</ele>
        <time>2010-06-20T07:59:51Z</time>
      </trkpt>
      <trkpt lat="45.02185" lon="5.59492">
        <ele>1411</ele>
        <time>2010-06-20T07:59:52Z</time>
      </trkpt>
      <trkpt lat="45.02182" lon="5.59491">
        <ele>1411</ele>
        <time>2010-06-20T07:59:53Z</time>
      </trkpt>
      <trkpt lat="45.02178" lon="5.5949">
        <ele>1411</ele>
        <time>2010-06-20T07:59:54Z</time>
      </trkpt>
      <trkpt lat="45.02175" lon="5.59489">
        <ele>1411</ele>
        <time>2010-06-20T07:59:55Z</time>
      </trkpt>
      <trkpt lat="45.02171" lon="5.59487">
        <ele>1411</ele>
        <time>2010-06-20T07:59:56Z</time>
      </trkpt>
      <trkpt lat="45.02168" lon="5.59485">
        <ele>1411</ele>
        <time>2010-06-20T07:59:57Z</time>
      </trkpt>
      <trkpt lat="45.02165" lon="5.59482">
        <ele>1411</ele>
        <time>2010-06-20T07:59:58Z</time>
      </trkpt>
      <trkpt lat="45.02162" lon="5.5948">
        <ele>1411</ele>
        <time>2010-06-20T07:59:59Z</time>
      </trkpt>
      <trkpt lat="45.02158" lon="5.59478">
        <ele>1411</ele>
        <time>2010-06-20T08:00:00Z</time>
      </trkpt>
      <trkpt lat="45.02155" lon="5.59476">
        <ele>1411</ele>
        <time>2010-06-20T08:00:01Z</time>
      </trkpt>
      <trkpt lat="45.02152" lon="5.59474">
        <ele>1411</ele>
        <time>2010-06-20T08:00:02Z</time>
      </trkpt>
      <trkpt lat="45.02149" lon="5.59473">
        <ele>1411</ele>
        <time>2010-06-20T08:00:03Z</time>
      </trkpt>
      <trkpt lat="45.02147" lon="5.59471">
        <ele>1411</ele>
        <time>2010-06-20T08:00:04Z</time>
      </trkpt>
      <trkpt lat="45.02144" lon="5.59469">
        <ele>1411</ele>
        <time>2010-06-20T08:00:05Z</time>
      </trkpt>
      <trkpt lat="45.02141" lon="5.59467">
        <ele>1411</ele>
        <time>2010-06-20T08:00:06Z</time>
      </trkpt>
      <trkpt lat="45.02137" lon="5.59464">
        <ele>1411</ele>
        <time>2010-06-20T08:00:07Z</time>
      </trkpt>
      <trkpt lat="45.02134" lon="5.59462">
        <ele>1411</ele>
        <time>2010-06-20T08:00:08Z</time>
      </trkpt>
      <trkpt lat="45.02131" lon="5.5946">
        <ele>1411</ele>
        <time>2010-06-20T08:00:09Z</time>
      </trkpt>
      <trkpt lat="45.02128" lon="5.59458">
        <ele>1411</ele>
        <time>2010-06-20T08:00:10Z</time>
      </trkpt>
      <trkpt lat="45.02125" lon="5.59456">
        <ele>1411</ele>
        <time>2010-06-20T08:00:11Z</time>
      </trkpt>
      <trkpt lat="45.02122" lon="5.59455">
        <ele>1411</ele>
        <time>2010-06-20T08:00:12Z</time>
      </trkpt>
      <trkpt lat="45.02119" lon="5.59453">
        <ele>1411</ele>
        <time>2010-06-20T08:00:13Z</time>
      </trkpt>
      <trkpt lat="45.02116" lon="5.59452">
        <ele>1411</ele>
        <time>2010-06-20T08:00:14Z</time>
      </trkpt>
      <trkpt lat="45.02112" lon="5.59451">
        <ele>1411</ele>
        <time>2010-06-20T08:00:15Z</time>
      </trkpt>
      <trkpt lat="45.02109" lon="5.59449">
        <ele>1411</ele>
        <time>2010-06-20T08:00:16Z</time>
      </trkpt>
      <trkpt lat="45.02105" lon="5.59449">
        <ele>1411</ele>
        <time>2010-06-20T08:00:17Z</time>
      </trkpt>
      <trkpt lat="45.02101" lon="5.59448">
        <ele>1411</ele>
        <time>2010-06-20T08:00:18Z</time>
      </trkpt>
      <trkpt lat="45.02098" lon="5.59447">
        <ele>1411</ele>
        <time>2010-06-20T08:00:19Z</time>
      </trkpt>
      <trkpt lat="45.02095" lon="5.59445">
        <ele>1411</ele>
        <time>2010-06-20T08:00:20Z</time>
      </trkpt>
      <trkpt lat="45.02091" lon="5.59444">
        <ele>1411</ele>
        <time>2010-06-20T08:00:21Z</time>
      </trkpt>
      <trkpt lat="45.02088" lon="5.59444">
        <ele>1411</ele>
        <time>2010-06-20T08:00:22Z</time>
      </trkpt>
      <trkpt lat="45.02084" lon="5.59444">
        <ele>1411</ele>
        <time>2010-06-20T08:00:23Z</time>
      </trkpt>
      <trkpt lat="45.02081" lon="5.59443">
        <ele>1411</ele>
        <time>2010-06-20T08:00:24Z</time>
      </trkpt>
      <trkpt lat="45.02077" lon="5.59444">
        <ele>1410</ele>
        <time>2010-06-20T08:00:25Z</time>
      </trkpt>
      <trkpt lat="45.02074" lon="5.59443">
        <ele>1410</ele>
        <time>2010-06-20T08:00:26Z</time>
      </trkpt>
      <trkpt lat="45.0207" lon="5.59443">
        <ele>1410</ele>
        <time>2010-06-20T08:00:27Z</time>
      </trkpt>
      <trkpt lat="45.02067" lon="5.59442">
        <ele>1410</ele>
        <time>2010-06-20T08:00:28Z</time>
      </trkpt>
      <trkpt lat="45.02064" lon="5.59441">
        <ele>1409</ele>
        <time>2010-06-20T08:00:29Z</time>
      </trkpt>
      <trkpt lat="45.0206" lon="5.5944">
        <ele>1409</ele>
        <time>2010-06-20T08:00:30Z</time>
      </trkpt>
      <trkpt lat="45.02056" lon="5.59439">
        <ele>1409</ele>
        <time>2010-06-20T08:00:31Z</time>
      </trkpt>
      <trkpt lat="45.02053" lon="5.59439">
        <ele>1409</ele>
        <time>2010-06-20T08:00:32Z</time>
      </trkpt>
      <trkpt lat="45.0205" lon="5.59439">
        <ele>1409</ele>
        <time>2010-06-20T08:00:33Z</time>
      </trkpt>
      <trkpt lat="45.02046" lon="5.59439">
        <ele>1409</ele>
        <time>2010-06-20T08:00:34Z</time>
      </trkpt>
      <trkpt lat="45.02043" lon="5.59439">
        <ele>1409</ele>
        <time>2010-06-20T08:00:35Z</time>
      </trkpt>
      <trkpt lat="45.02039" lon="5.59438">
        <ele>1409</ele>
        <time>2010-06-20T08:00:36Z</time>
      </trkpt>
      <trkpt lat="45.02035" lon="5.59438">
        <ele>1409</ele>
        <time>2010-06-20T08:00:38Z</time>
      </trkpt>
      <trkpt lat="45.02032" lon="5.59437">
        <ele>1409</ele>
        <time>2010-06-20T08:00:38Z</time>
      </trkpt>
      <trkpt lat="45.02028" lon="5.59436">
        <ele>1408</ele>
        <time>2010-06-20T08:00:39Z</time>
      </trkpt>
      <trkpt lat="45.02024" lon="5.59435">
        <ele>1408</ele>
        <time>2010-06-20T08:00:40Z</time>
      </trkpt>
      <trkpt lat="45.0202" lon="5.59433">
        <ele>1408</ele>
        <time>2010-06-20T08:00:41Z</time>
      </trkpt>
      <trkpt lat="45.02017" lon="5.5943">
        <ele>1408</ele>
        <time>2010-06-20T08:00:42Z</time>
      </trkpt>
      <trkpt lat="45.02014" lon="5.59427">
        <ele>1407</ele>
        <time>2010-06-20T08:00:43Z</time>
      </trkpt>
      <trkpt lat="45.02012" lon="5.59425">
        <ele>1407</ele>
        <time>2010-06-20T08:00:44Z</time>
      </trkpt>
      <trkpt lat="45.02009" lon="5.59423">
        <ele>1407</ele>
        <time>2010-06-20T08:00:45Z</time>
      </trkpt>
      <trkpt lat="45.02006" lon="5.59421">
        <ele>1406</ele>
        <time>2010-06-20T08:00:46Z</time>
      </trkpt>
      <trkpt lat="45.02002" lon="5.5942">
        <ele>1406</ele>
        <time>2010-06-20T08:00:47Z</time>
      </trkpt>
      <trkpt lat="45.02" lon="5.59417">
        <ele>1406</ele>
        <time>2010-06-20T08:00:48Z</time>
      </trkpt>
      <trkpt lat="45.01997" lon="5.59416">
        <ele>1406</ele>
        <time>2010-06-20T08:00:49Z</time>
      </trkpt>
      <trkpt lat="45.01995" lon="5.59414">
        <ele>1405</ele>
        <time>2010-06-20T08:00:50Z</time>
      </trkpt>
      <trkpt lat="45.01992" lon="5.59413">
        <ele>1405</ele>
        <time>2010-06-20T08:00:51Z</time>
      </trkpt>
      <trkpt lat="45.01989" lon="5.59412">
        <ele>1405</ele>
        <time>2010-06-20T08:00:52Z</time>
      </trkpt>
      <trkpt lat="45.01985" lon="5.59411">
        <ele>1405</ele>
        <time>2010-06-20T08:00:53Z</time>
      </trkpt>
      <trkpt lat="45.01982" lon="5.59409">
        <ele>1405</ele>
        <time>2010-06-20T08:00:54Z</time>
      </trkpt>
      <trkpt lat="45.0198" lon="5.59408">
        <ele>1405</ele>
        <time>2010-06-20T08:00:55Z</time>
      </trkpt>
      <trkpt lat="45.01977" lon="5.59407">
        <ele>1405</ele>
        <time>2010-06-20T08:00:56Z</time>
      </trkpt>
      <trkpt lat="45.01974" lon="5.59406">
        <ele>1405</ele>
        <time>2010-06-20T08:00:57Z</time>
      </trkpt>
      <trkpt lat="45.01971" lon="5.59405">
        <ele>1405</ele>
        <time>2010-06-20T08:00:58Z</time>
      </trkpt>
      <trkpt lat="45.01968" lon="5.59404">
        <ele>1405</ele>
        <time>2010-06-20T08:00:59Z</time>
      </trkpt>
      <trkpt lat="45.01964" lon="5.59403">
        <ele>1405</ele>
        <time>2010-06-20T08:01:00Z</time>
      </trkpt>
      <trkpt lat="45.01961" lon="5.59403">
        <ele>1405</ele>
        <time>2010-06-20T08:01:01Z</time>
      </trkpt>
      <trkpt lat="45.01958" lon="5.59402">
        <ele>1405</ele>
        <time>2010-06-20T08:01:02Z</time>
      </trkpt>
      <trkpt lat="45.01954" lon="5.59402">
        <ele>1405</ele>
        <time>2010-06-20T08:01:03Z</time>
      </trkpt>
      <trkpt lat="45.0195" lon="5.59403">
        <ele>1405</ele>
        <time>2010-06-20T08:01:04Z</time>
      </trkpt>
      <trkpt lat="45.01947" lon="5.59404">
        <ele>1405</ele>
        <time>2010-06-20T08:01:05Z</time>
      </trkpt>
      <trkpt lat="45.01944" lon="5.59404">
        <ele>1405</ele>
        <time>2010-06-20T08:01:06Z</time>
      </trkpt>
      <trkpt lat="45.01941" lon="5.59403">
        <ele>1405</ele>
        <time>2010-06-20T08:01:07Z</time>
      </trkpt>
      <trkpt lat="45.01938" lon="5.59403">
        <ele>1405</ele>
        <time>2010-06-20T08:01:08Z</time>
      </trkpt>
      <trkpt lat="45.01934" lon="5.59404">
        <ele>1405</ele>
        <time>2010-06-20T08:01:09Z</time>
      </trkpt>
      <trkpt lat="45.01931" lon="5.59404">
        <ele>1405</ele>
        <time>2010-06-20T08:01:10Z</time>
      </trkpt>
      <trkpt lat="45.01927" lon="5.59405">
        <ele>1405</ele>
        <time>2010-06-20T08:01:11Z</time>
      </trkpt>
      <trkpt lat="45.01924" lon="5.59405">
        <ele>1405</ele>
        <time>2010-06-20T08:01:12Z</time>
      </trkpt>
      <trkpt lat="45.01921" lon="5.59403">
        <ele>1405</ele>
        <time>2010-06-20T08:01:13Z</time>
      </trkpt>
      <trkpt lat="45.01919" lon="5.59401">
        <ele>1405</ele>
        <time>2010-06-20T08:01:14Z</time>
      </trkpt>
      <trkpt lat="45.01916" lon="5.594">
        <ele>1405</ele>
        <time>2010-06-20T08:01:15Z</time>
      </trkpt>
      <trkpt lat="45.01913" lon="5.59399">
        <ele>1405</ele>
        <time>2010-06-20T08:01:16Z</time>
      </trkpt>
      <trkpt lat="45.0191" lon="5.59397">
        <ele>1405</ele>
        <time>2010-06-20T08:01:17Z</time>
      </trkpt>
      <trkpt lat="45.01907" lon="5.59396">
        <ele>1405</ele>
        <time>2010-06-20T08:01:18Z</time>
      </trkpt>
      <trkpt lat="45.01904" lon="5.59395">
        <ele>1405</ele>
        <time>2010-06-20T08:01:19Z</time>
      </trkpt>
      <trkpt lat="45.01901" lon="5.59395">
        <ele>1405</ele>
        <time>2010-06-20T08:01:20Z</time>
      </trkpt>
      <trkpt lat="45.01898" lon="5.59392">
        <ele>1405</ele>
        <time>2010-06-20T08:01:21Z</time>
      </trkpt>
      <trkpt lat="45.01895" lon="5.59392">
        <ele>1405</ele>
        <time>2010-06-20T08:01:22Z</time>
      </trkpt>
      <trkpt lat="45.01892" lon="5.5939">
        <ele>1405</ele>
        <time>2010-06-20T08:01:23Z</time>
      </trkpt>
      <trkpt lat="45.01889" lon="5.59389">
        <ele>1405</ele>
        <time>2010-06-20T08:01:24Z</time>
      </trkpt>
      <trkpt lat="45.01886" lon="5.59389">
        <ele>1406</ele>
        <time>2010-06-20T08:01:25Z</time>
      </trkpt>
      <trkpt lat="45.01882" lon="5.59389">
        <ele>1406</ele>
        <time>2010-06-20T08:01:26Z</time>
      </trkpt>
      <trkpt lat="45.01879" lon="5.59388">
        <ele>1407</ele>
        <time>2010-06-20T08:01:27Z</time>
      </trkpt>
      <trkpt lat="45.01876" lon="5.59387">
        <ele>1407</ele>
        <time>2010-06-20T08:01:28Z</time>
      </trkpt>
      <trkpt lat="45.01872" lon="5.59387">
        <ele>1408</ele>
        <time>2010-06-20T08:01:29Z</time>
      </trkpt>
      <trkpt lat="45.01869" lon="5.59387">
        <ele>1408</ele>
        <time>2010-06-20T08:01:30Z</time>
      </trkpt>
      <trkpt lat="45.01866" lon="5.59387">
        <ele>1408</ele>
        <time>2010-06-20T08:01:31Z</time>
      </trkpt>
      <trkpt lat="45.01862" lon="5.59387">
        <ele>1408</ele>
        <time>2010-06-20T08:01:32Z</time>
      </trkpt>
      <trkpt lat="45.01859" lon="5.59387">
        <ele>1408</ele>
        <time>2010-06-20T08:01:33Z</time>
      </trkpt>
      <trkpt lat="45.01856" lon="5.59386">
        <ele>1409</ele>
        <time>2010-06-20T08:01:34Z</time>
      </trkpt>
      <trkpt lat="45.01853" lon="5.59385">
        <ele>1409</ele>
        <time>2010-06-20T08:01:35Z</time>
      </trkpt>
      <trkpt lat="45.01849" lon="5.59385">
        <ele>1409</ele>
        <time>2010-06-20T08:01:36Z</time>
      </trkpt>
      <trkpt lat="45.01846" lon="5.59384">
        <ele>1409</ele>
        <time>2010-06-20T08:01:37Z</time>
      </trkpt>
      <trkpt lat="45.01843" lon="5.59383">
        <ele>1409</ele>
        <time>2010-06-20T08:01:38Z</time>
      </trkpt>
      <trkpt lat="45.0184" lon="5.59382">
        <ele>1409</ele>
        <time>2010-06-20T08:01:39Z</time>
      </trkpt>
      <trkpt lat="45.01837" lon="5.59381">
        <ele>1409</ele>
        <time>2010-06-20T08:01:40Z</time>
      </trkpt>
      <trkpt lat="45.01834" lon="5.59379">
        <ele>1409</ele>
        <time>2010-06-20T08:01:41Z</time>
      </trkpt>
      <trkpt lat="45.0183" lon="5.59378">
        <ele>1409</ele>
        <time>2010-06-20T08:01:42Z</time>
      </trkpt>
      <trkpt lat="45.01827" lon="5.59377">
        <ele>1409</ele>
        <time>2010-06-20T08:01:43Z</time>
      </trkpt>
      <trkpt lat="45.01825" lon="5.59376">
        <ele>1409</ele>
        <time>2010-06-20T08:01:44Z</time>
      </trkpt>
      <trkpt lat="45.01822" lon="5.59374">
        <ele>1409</ele>
        <time>2010-06-20T08:01:45Z</time>
      </trkpt>
      <trkpt lat="45.01819" lon="5.59373">
        <ele>1409</ele>
        <time>2010-06-20T08:01:46Z</time>
      </trkpt>
      <trkpt lat="45.01816" lon="5.59371">
        <ele>1409</ele>
        <time>2010-06-20T08:01:47Z</time>
      </trkpt>
      <trkpt lat="45.01813" lon="5.5937">
        <ele>1409</ele>
        <time>2010-06-20T08:01:48Z</time>
      </trkpt>
      <trkpt lat="45.01809" lon="5.59369">
        <ele>1409</ele>
        <time>2010-06-20T08:01:49Z</time>
      </trkpt>
      <trkpt lat="45.01806" lon="5.59368">
        <ele>1409</ele>
        <time>2010-06-20T08:01:50Z</time>
      </trkpt>
      <trkpt lat="45.01803" lon="5.59367">
        <ele>1409</ele>
        <time>2010-06-20T08:01:51Z</time>
      </trkpt>
      <trkpt lat="45.01799" lon="5.59367">
        <ele>1409</ele>
        <time>2010-06-20T08:01:52Z</time>
      </trkpt>
      <trkpt lat="45.01795" lon="5.59367">
        <ele>1409</ele>
        <time>2010-06-20T08:01:53Z</time>
      </trkpt>
      <trkpt lat="45.01792" lon="5.59366">
        <ele>1409</ele>
        <time>2010-06-20T08:01:54Z</time>
      </trkpt>
      <trkpt lat="45.01788" lon="5.59365">
        <ele>1409</ele>
        <time>2010-06-20T08:01:55Z</time>
      </trkpt>
      <trkpt lat="45.01785" lon="5.59365">
        <ele>1409</ele>
        <time>2010-06-20T08:01:56Z</time>
      </trkpt>
      <trkpt lat="45.01782" lon="5.59363">
        <ele>1409</ele>
        <time>2010-06-20T08:01:57Z</time>
      </trkpt>
      <trkpt lat="45.01779" lon="5.59362">
        <ele>1409</ele>
        <time>2010-06-20T08:01:58Z</time>
      </trkpt>
      <trkpt lat="45.01776" lon="5.59361">
        <ele>1409</ele>
        <time>2010-06-20T08:01:59Z</time>
      </trkpt>
      <trkpt lat="45.01773" lon="5.59359">
        <ele>1409</ele>
        <time>2010-06-20T08:02:00Z</time>
      </trkpt>
      <trkpt lat="45.0177" lon="5.59358">
        <ele>1409</ele>
        <time>2010-06-20T08:02:01Z</time>
      </trkpt>
      <trkpt lat="45.01766" lon="5.59358">
        <ele>1409</ele>
        <time>2010-06-20T08:02:02Z</time>
      </trkpt>
      <trkpt lat="45.01763" lon="5.59357">
        <ele>1408</ele>
        <time>2010-06-20T08:02:03Z</time>
      </trkpt>
      <trkpt lat="45.0176" lon="5.59357">
        <ele>1408</ele>
        <time>2010-06-20T08:02:04Z</time>
      </trkpt>
      <trkpt lat="45.01757" lon="5.59356">
        <ele>1408</ele>
        <time>2010-06-20T08:02:05Z</time>
      </trkpt>
      <trkpt lat="45.01754" lon="5.59355">
        <ele>1408</ele>
        <time>2010-06-20T08:02:06Z</time>
      </trkpt>
      <trkpt lat="45.01751" lon="5.59354">
        <ele>1408</ele>
        <time>2010-06-20T08:02:07Z</time>
      </trkpt>
      <trkpt lat="45.01748" lon="5.59354">
        <ele>1408</ele>
        <time>2010-06-20T08:02:08Z</time>
      </trkpt>
      <trkpt lat="45.01744" lon="5.59354">
        <ele>1408</ele>
        <time>2010-06-20T08:02:09Z</time>
      </trkpt>
      <trkpt lat="45.01741" lon="5.59354">
        <ele>1408</ele>
        <time>2010-06-20T08:02:10Z</time>
      </trkpt>
      <trkpt lat="45.01737" lon="5.59353">
        <ele>1408</ele>
        <time>2010-06-20T08:02:11Z</time>
      </trkpt>
      <trkpt lat="45.01734" lon="5.59352">
        <ele>1407</ele>
        <time>2010-06-20T08:02:12Z</time>
      </trkpt>
      <trkpt lat="45.01731" lon="5.59352">
        <ele>1407</ele>
        <time>2010-06-20T08:02:13Z</time>
      </trkpt>
      <trkpt lat="45.01727" lon="5.59351">
        <ele>1407</ele>
        <time>2010-06-20T08:02:14Z</time>
      </trkpt>
      <trkpt lat="45.01724" lon="5.59352">
        <ele>1407</ele>
        <time>2010-06-20T08:02:15Z</time>
      </trkpt>
      <trkpt lat="45.01719" lon="5.59353">
        <ele>1407</ele>
        <time>2010-06-20T08:02:16Z</time>
      </trkpt>
      <trkpt lat="45.01716" lon="5.59352">
        <ele>1407</ele>
        <time>2010-06-20T08:02:17Z</time>
      </trkpt>
      <trkpt lat="45.01713" lon="5.59352">
        <ele>1407</ele>
        <time>2010-06-20T08:02:18Z</time>
      </trkpt>
      <trkpt lat="45.0171" lon="5.59352">
        <ele>1407</ele>
        <time>2010-06-20T08:02:19Z</time>
      </trkpt>
      <trkpt lat="45.01707" lon="5.59352">
        <ele>1407</ele>
        <time>2010-06-20T08:02:20Z</time>
      </trkpt>
      <trkpt lat="45.01704" lon="5.59352">
        <ele>1407</ele>
        <time>2010-06-20T08:02:21Z</time>
      </trkpt>
      <trkpt lat="45.017" lon="5.59351">
        <ele>1407</ele>
        <time>2010-06-20T08:02:22Z</time>
      </trkpt>
      <trkpt lat="45.01697" lon="5.59351">
        <ele>1407</ele>
        <time>2010-06-20T08:02:23Z</time>
      </trkpt>
      <trkpt lat="45.01693" lon="5.59351">
        <ele>1407</ele>
        <time>2010-06-20T08:02:24Z</time>
      </trkpt>
      <trkpt lat="45.0169" lon="5.59351">
        <ele>1407</ele>
        <time>2010-06-20T08:02:25Z</time>
      </trkpt>
      <trkpt lat="45.01686" lon="5.59353">
        <ele>1407</ele>
        <time>2010-06-20T08:02:26Z</time>
      </trkpt>
      <trkpt lat="45.01682" lon="5.59353">
        <ele>1407</ele>
        <time>2010-06-20T08:02:27Z</time>
      </trkpt>
      <trkpt lat="45.01679" lon="5.59353">
        <ele>1407</ele>
        <time>2010-06-20T08:02:28Z</time>
      </trkpt>
      <trkpt lat="45.01676" lon="5.59353">
        <ele>1407</ele>
        <time>2010-06-20T08:02:29Z</time>
      </trkpt>
      <trkpt lat="45.01672" lon="5.59353">
        <ele>1407</ele>
        <time>2010-06-20T08:02:30Z</time>
      </trkpt>
      <trkpt lat="45.01669" lon="5.59353">
        <ele>1407</ele>
        <time>2010-06-20T08:02:31Z</time>
      </trkpt>
      <trkpt lat="45.01666" lon="5.59353">
        <ele>1407</ele>
        <time>2010-06-20T08:02:32Z</time>
      </trkpt>
      <trkpt lat="45.01663" lon="5.59354">
        <ele>1407</ele>
        <time>2010-06-20T08:02:33Z</time>
      </trkpt>
      <trkpt lat="45.0166" lon="5.59354">
        <ele>1407</ele>
        <time>2010-06-20T08:02:34Z</time>
      </trkpt>
      <trkpt lat="45.01657" lon="5.59354">
        <ele>1407</ele>
        <time>2010-06-20T08:02:35Z</time>
      </trkpt>
      <trkpt lat="45.01654" lon="5.59355">
        <ele>1407</ele>
        <time>2010-06-20T08:02:36Z</time>
      </trkpt>
      <trkpt lat="45.0165" lon="5.59356">
        <ele>1407</ele>
        <time>2010-06-20T08:02:37Z</time>
      </trkpt>
      <trkpt lat="45.01646" lon="5.59357">
        <ele>1407</ele>
        <time>2010-06-20T08:02:38Z</time>
      </trkpt>
      <trkpt lat="45.01643" lon="5.59358">
        <ele>1407</ele>
        <time>2010-06-20T08:02:39Z</time>
      </trkpt>
      <trkpt lat="45.01639" lon="5.59359">
        <ele>1407</ele>
        <time>2010-06-20T08:02:40Z</time>
      </trkpt>
      <trkpt lat="45.01635" lon="5.5936">
        <ele>1407</ele>
        <time>2010-06-20T08:02:41Z</time>
      </trkpt>
      <trkpt lat="45.01632" lon="5.5936">
        <ele>1407</ele>
        <time>2010-06-20T08:02:42Z</time>
      </trkpt>
      <trkpt lat="45.01629" lon="5.5936">
        <ele>1407</ele>
        <time>2010-06-20T08:02:43Z</time>
      </trkpt>
      <trkpt lat="45.01626" lon="5.5936">
        <ele>1407</ele>
        <time>2010-06-20T08:02:44Z</time>
      </trkpt>
      <trkpt lat="45.01623" lon="5.5936">
        <ele>1407</ele>
        <time>2010-06-20T08:02:45Z</time>
      </trkpt>
      <trkpt lat="45.0162" lon="5.5936">
        <ele>1407</ele>
        <time>2010-06-20T08:02:46Z</time>
      </trkpt>
      <trkpt lat="45.01618" lon="5.59361">
        <ele>1407</ele>
        <time>2010-06-20T08:02:47Z</time>
      </trkpt>
      <trkpt lat="45.01614" lon="5.59362">
        <ele>1407</ele>
        <time>2010-06-20T08:02:48Z</time>
      </trkpt>
      <trkpt lat="45.01611" lon="5.59363">
        <ele>1407</ele>
        <time>2010-06-20T08:02:49Z</time>
      </trkpt>
      <trkpt lat="45.01608" lon="5.59363">
        <ele>1407</ele>
        <time>2010-06-20T08:02:50Z</time>
      </trkpt>
      <trkpt lat="45.01605" lon="5.59365">
        <ele>1407</ele>
        <time>2010-06-20T08:02:51Z</time>
      </trkpt>
      <trkpt lat="45.01602" lon="5.59365">
        <ele>1407</ele>
        <time>2010-06-20T08:02:52Z</time>
      </trkpt>
      <trkpt lat="45.01598" lon="5.59365">
        <ele>1407</ele>
        <time>2010-06-20T08:02:53Z</time>
      </trkpt>
      <trkpt lat="45.01594" lon="5.59366">
        <ele>1407</ele>
        <time>2010-06-20T08:02:54Z</time>
      </trkpt>
      <trkpt lat="45.01591" lon="5.59368">
        <ele>1407</ele>
        <time>2010-06-20T08:02:55Z</time>
      </trkpt>
      <trkpt lat="45.01587" lon="5.59369">
        <ele>1407</ele>
        <time>2010-06-20T08:02:56Z</time>
      </trkpt>
      <trkpt lat="45.01584" lon="5.5937">
        <ele>1407</ele>
        <time>2010-06-20T08:02:57Z</time>
      </trkpt>
      <trkpt lat="45.0158" lon="5.59371">
        <ele>1406</ele>
        <time>2010-06-20T08:02:58Z</time>
      </trkpt>
      <trkpt lat="45.01576" lon="5.59372">
        <ele>1406</ele>
        <time>2010-06-20T08:02:59Z</time>
      </trkpt>
      <trkpt lat="45.01572" lon="5.59374">
        <ele>1405</ele>
        <time>2010-06-20T08:03:00Z</time>
      </trkpt>
      <trkpt lat="45.01569" lon="5.59375">
        <ele>1405</ele>
        <time>2010-06-20T08:03:01Z</time>
      </trkpt>
      <trkpt lat="45.01565" lon="5.59376">
        <ele>1405</ele>
        <time>2010-06-20T08:03:02Z</time>
      </trkpt>
      <trkpt lat="45.01561" lon="5.59378">
        <ele>1404</ele>
        <time>2010-06-20T08:03:03Z</time>
      </trkpt>
      <trkpt lat="45.01557" lon="5.59379">
        <ele>1404</ele>
        <time>2010-06-20T08:03:04Z</time>
      </trkpt>
      <trkpt lat="45.01554" lon="5.5938">
        <ele>1404</ele>
        <time>2010-06-20T08:03:05Z</time>
      </trkpt>
      <trkpt lat="45.01551" lon="5.59381">
        <ele>1404</ele>
        <time>2010-06-20T08:03:06Z</time>
      </trkpt>
      <trkpt lat="45.01548" lon="5.59383">
        <ele>1403</ele>
        <time>2010-06-20T08:03:07Z</time>
      </trkpt>
      <trkpt lat="45.01544" lon="5.59384">
        <ele>1403</ele>
        <time>2010-06-20T08:03:08Z</time>
      </trkpt>
      <trkpt lat="45.0154" lon="5.59386">
        <ele>1403</ele>
        <time>2010-06-20T08:03:09Z</time>
      </trkpt>
      <trkpt lat="45.01537" lon="5.59388">
        <ele>1402</ele>
        <time>2010-06-20T08:03:10Z</time>
      </trkpt>
      <trkpt lat="45.01533" lon="5.5939">
        <ele>1402</ele>
        <time>2010-06-20T08:03:11Z</time>
      </trkpt>
      <trkpt lat="45.0153" lon="5.5939">
        <ele>1401</ele>
        <time>2010-06-20T08:03:12Z</time>
      </trkpt>
      <trkpt lat="45.01526" lon="5.59392">
        <ele>1401</ele>
        <time>2010-06-20T08:03:13Z</time>
      </trkpt>
      <trkpt lat="45.01522" lon="5.59394">
        <ele>1400</ele>
        <time>2010-06-20T08:03:14Z</time>
      </trkpt>
      <trkpt lat="45.01519" lon="5.59396">
        <ele>1399</ele>
        <time>2010-06-20T08:03:15Z</time>
      </trkpt>
      <trkpt lat="45.01516" lon="5.59398">
        <ele>1399</ele>
        <time>2010-06-20T08:03:16Z</time>
      </trkpt>
      <trkpt lat="45.01512" lon="5.594">
        <ele>1399</ele>
        <time>2010-06-20T08:03:17Z</time>
      </trkpt>
      <trkpt lat="45.01509" lon="5.59401">
        <ele>1398</ele>
        <time>2010-06-20T08:03:18Z</time>
      </trkpt>
      <trkpt lat="45.01505" lon="5.59402">
        <ele>1398</ele>
        <time>2010-06-20T08:03:19Z</time>
      </trkpt>
      <trkpt lat="45.01501" lon="5.59404">
        <ele>1397</ele>
        <time>2010-06-20T08:03:20Z</time>
      </trkpt>
      <trkpt lat="45.01497" lon="5.59407">
        <ele>1397</ele>
        <time>2010-06-20T08:03:21Z</time>
      </trkpt>
      <trkpt lat="45.01493" lon="5.59408">
        <ele>1396</ele>
        <time>2010-06-20T08:03:22Z</time>
      </trkpt>
      <trkpt lat="45.01489" lon="5.5941">
        <ele>1395</ele>
        <time>2010-06-20T08:03:23Z</time>
      </trkpt>
      <trkpt lat="45.01486" lon="5.59411">
        <ele>1394</ele>
        <time>2010-06-20T08:03:24Z</time>
      </trkpt>
      <trkpt lat="45.01483" lon="5.59412">
        <ele>1394</ele>
        <time>2010-06-20T08:03:25Z</time>
      </trkpt>
      <trkpt lat="45.01479" lon="5.59414">
        <ele>1393</ele>
        <time>2010-06-20T08:03:26Z</time>
      </trkpt>
      <trkpt lat="45.01475" lon="5.59416">
        <ele>1393</ele>
        <time>2010-06-20T08:03:27Z</time>
      </trkpt>
      <trkpt lat="45.01472" lon="5.59417">
        <ele>1392</ele>
        <time>2010-06-20T08:03:28Z</time>
      </trkpt>
      <trkpt lat="45.01469" lon="5.59418">
        <ele>1392</ele>
        <time>2010-06-20T08:03:29Z</time>
      </trkpt>
      <trkpt lat="45.01465" lon="5.59419">
        <ele>1391</ele>
        <time>2010-06-20T08:03:30Z</time>
      </trkpt>
      <trkpt lat="45.01461" lon="5.5942">
        <ele>1390</ele>
        <time>2010-06-20T08:03:31Z</time>
      </trkpt>
      <trkpt lat="45.01457" lon="5.59422">
        <ele>1390</ele>
        <time>2010-06-20T08:03:32Z</time>
      </trkpt>
      <trkpt lat="45.01453" lon="5.59423">
        <ele>1389</ele>
        <time>2010-06-20T08:03:33Z</time>
      </trkpt>
      <trkpt lat="45.01448" lon="5.59427">
        <ele>1388</ele>
        <time>2010-06-20T08:03:34Z</time>
      </trkpt>
      <trkpt lat="45.01444" lon="5.5943">
        <ele>1388</ele>
        <time>2010-06-20T08:03:35Z</time>
      </trkpt>
      <trkpt lat="45.0144" lon="5.59431">
        <ele>1387</ele>
        <time>2010-06-20T08:03:36Z</time>
      </trkpt>
      <trkpt lat="45.01436" lon="5.59432">
        <ele>1386</ele>
        <time>2010-06-20T08:03:37Z</time>
      </trkpt>
      <trkpt lat="45.01432" lon="5.59433">
        <ele>1385</ele>
        <time>2010-06-20T08:03:38Z</time>
      </trkpt>
      <trkpt lat="45.01428" lon="5.59434">
        <ele>1385</ele>
        <time>2010-06-20T08:03:39Z</time>
      </trkpt>
      <trkpt lat="45.01424" lon="5.59434">
        <ele>1384</ele>
        <time>2010-06-20T08:03:40Z</time>
      </trkpt>
      <trkpt lat="45.0142" lon="5.59436">
        <ele>1383</ele>
        <time>2010-06-20T08:03:41Z</time>
      </trkpt>
      <trkpt lat="45.01417" lon="5.59436">
        <ele>1383</ele>
        <time>2010-06-20T08:03:42Z</time>
      </trkpt>
      <trkpt lat="45.01413" lon="5.59437">
        <ele>1383</ele>
        <time>2010-06-20T08:03:43Z</time>
      </trkpt>
      <trkpt lat="45.0141" lon="5.59437">
        <ele>1382</ele>
        <time>2010-06-20T08:03:44Z</time>
      </trkpt>
      <trkpt lat="45.01406" lon="5.59438">
        <ele>1382</ele>
        <time>2010-06-20T08:03:45Z</time>
      </trkpt>
      <trkpt lat="45.01402" lon="5.59438">
        <ele>1381</ele>
        <time>2010-06-20T08:03:46Z</time>
      </trkpt>
      <trkpt lat="45.01398" lon="5.59437">
        <ele>1380</ele>
        <time>2010-06-20T08:03:47Z</time>
      </trkpt>
      <trkpt lat="45.01394" lon="5.59437">
        <ele>1379</ele>
        <time>2010-06-20T08:03:48Z</time>
      </trkpt>
      <trkpt lat="45.0139" lon="5.59438">
        <ele>1379</ele>
        <time>2010-06-20T08:03:49Z</time>
      </trkpt>
      <trkpt lat="45.01386" lon="5.59438">
        <ele>1378</ele>
        <time>2010-06-20T08:03:50Z</time>
      </trkpt>
      <trkpt lat="45.01381" lon="5.5944">
        <ele>1377</ele>
        <time>2010-06-20T08:03:51Z</time>
      </trkpt>
      <trkpt lat="45.01377" lon="5.5944">
        <ele>1376</ele>
        <time>2010-06-20T08:03:52Z</time>
      </trkpt>
      <trkpt lat="45.01373" lon="5.5944">
        <ele>1375</ele>
        <time>2010-06-20T08:03:53Z</time>
      </trkpt>
      <trkpt lat="45.0137" lon="5.59439">
        <ele>1374</ele>
        <time>2010-06-20T08:03:54Z</time>
      </trkpt>
      <trkpt lat="45.01367" lon="5.59438">
        <ele>1374</ele>
        <time>2010-06-20T08:03:55Z</time>
      </trkpt>
      <trkpt lat="45.01363" lon="5.59437">
        <ele>1373</ele>
        <time>2010-06-20T08:03:56Z</time>
      </trkpt>
      <trkpt lat="45.01359" lon="5.59436">
        <ele>1372</ele>
        <time>2010-06-20T08:03:57Z</time>
      </trkpt>
      <trkpt lat="45.01356" lon="5.59435">
        <ele>1372</ele>
        <time>2010-06-20T08:03:58Z</time>
      </trkpt>
      <trkpt lat="45.01352" lon="5.59433">
        <ele>1371</ele>
        <time>2010-06-20T08:03:59Z</time>
      </trkpt>
      <trkpt lat="45.01348" lon="5.59433">
        <ele>1370</ele>
        <time>2010-06-20T08:04:00Z</time>
      </trkpt>
      <trkpt lat="45.01344" lon="5.59434">
        <ele>1370</ele>
        <time>2010-06-20T08:04:01Z</time>
      </trkpt>
      <trkpt lat="45.0134" lon="5.59434">
        <ele>1370</ele>
        <time>2010-06-20T08:04:02Z</time>
      </trkpt>
      <trkpt lat="45.01336" lon="5.59435">
        <ele>1369</ele>
        <time>2010-06-20T08:04:03Z</time>
      </trkpt>
      <trkpt lat="45.01332" lon="5.59435">
        <ele>1369</ele>
        <time>2010-06-20T08:04:04Z</time>
      </trkpt>
      <trkpt lat="45.01329" lon="5.59434">
        <ele>1368</ele>
        <time>2010-06-20T08:04:05Z</time>
      </trkpt>
      <trkpt lat="45.01326" lon="5.59434">
        <ele>1368</ele>
        <time>2010-06-20T08:04:06Z</time>
      </trkpt>
      <trkpt lat="45.01323" lon="5.59433">
        <ele>1368</ele>
        <time>2010-06-20T08:04:07Z</time>
      </trkpt>
      <trkpt lat="45.0132" lon="5.59433">
        <ele>1368</ele>
        <time>2010-06-20T08:04:08Z</time>
      </trkpt>
      <trkpt lat="45.01318" lon="5.59431">
        <ele>1368</ele>
        <time>2010-06-20T08:04:09Z</time>
      </trkpt>
      <trkpt lat="45.01316" lon="5.59429">
        <ele>1368</ele>
        <time>2010-06-20T08:04:10Z</time>
      </trkpt>
      <trkpt lat="45.01313" lon="5.59428">
        <ele>1368</ele>
        <time>2010-06-20T08:04:11Z</time>
      </trkpt>
      <trkpt lat="45.01311" lon="5.59428">
        <ele>1368</ele>
        <time>2010-06-20T08:04:12Z</time>
      </trkpt>
      <trkpt lat="45.01309" lon="5.59428">
        <ele>1368</ele>
        <time>2010-06-20T08:04:13Z</time>
      </trkpt>
      <trkpt lat="45.01308" lon="5.59427">
        <ele>1368</ele>
        <time>2010-06-20T08:04:14Z</time>
      </trkpt>
      <trkpt lat="45.01306" lon="5.59427">
        <ele>1368</ele>
        <time>2010-06-20T08:04:15Z</time>
      </trkpt>
      <trkpt lat="45.01305" lon="5.59426">
        <ele>1368</ele>
        <time>2010-06-20T08:04:16Z</time>
      </trkpt>
      <trkpt lat="45.01304" lon="5.59425">
        <ele>1368</ele>
        <time>2010-06-20T08:04:17Z</time>
      </trkpt>
      <trkpt lat="45.01303" lon="5.59425">
        <ele>1368</ele>
        <time>2010-06-20T08:04:18Z</time>
      </trkpt>
      <trkpt lat="45.01301" lon="5.59423">
        <ele>1368</ele>
        <time>2010-06-20T08:04:20Z</time>
      </trkpt>
      <trkpt lat="45.01299" lon="5.59422">
        <ele>1368</ele>
        <time>2010-06-20T08:04:21Z</time>
      </trkpt>
      <trkpt lat="45.01298" lon="5.5942">
        <ele>1368</ele>
        <time>2010-06-20T08:04:22Z</time>
      </trkpt>
      <trkpt lat="45.01298" lon="5.59418">
        <ele>1368</ele>
        <time>2010-06-20T08:04:23Z</time>
      </trkpt>
      <trkpt lat="45.01298" lon="5.59416">
        <ele>1368</ele>
        <time>2010-06-20T08:04:24Z</time>
      </trkpt>
      <trkpt lat="45.01299" lon="5.59414">
        <ele>1368</ele>
        <time>2010-06-20T08:04:25Z</time>
      </trkpt>
      <trkpt lat="45.013" lon="5.59413">
        <ele>1368</ele>
        <time>2010-06-20T08:04:27Z</time>
      </trkpt>
      <trkpt lat="45.01303" lon="5.59411">
        <ele>1368</ele>
        <time>2010-06-20T08:04:29Z</time>
      </trkpt>
      <trkpt lat="45.01305" lon="5.59409">
        <ele>1368</ele>
        <time>2010-06-20T08:04:31Z</time>
      </trkpt>
      <trkpt lat="45.01307" lon="5.59409">
        <ele>1369</ele>
        <time>2010-06-20T08:04:32Z</time>
      </trkpt>
      <trkpt lat="45.01308" lon="5.59408">
        <ele>1369</ele>
        <time>2010-06-20T08:04:33Z</time>
      </trkpt>
      <trkpt lat="45.01309" lon="5.59407">
        <ele>1369</ele>
        <time>2010-06-20T08:04:34Z</time>
      </trkpt>
      <trkpt lat="45.0131" lon="5.59407">
        <ele>1370</ele>
        <time>2010-06-20T08:04:35Z</time>
      </trkpt>
      <trkpt lat="45.01312" lon="5.59406">
        <ele>1370</ele>
        <time>2010-06-20T08:04:37Z</time>
      </trkpt>
      <trkpt lat="45.01314" lon="5.59406">
        <ele>1371</ele>
        <time>2010-06-20T08:04:39Z</time>
      </trkpt>
      <trkpt lat="45.01316" lon="5.59405">
        <ele>1371</ele>
        <time>2010-06-20T08:04:40Z</time>
      </trkpt>
      <trkpt lat="45.01317" lon="5.59404">
        <ele>1372</ele>
        <time>2010-06-20T08:04:42Z</time>
      </trkpt>
      <trkpt lat="45.01319" lon="5.59402">
        <ele>1373</ele>
        <time>2010-06-20T08:04:44Z</time>
      </trkpt>
      <trkpt lat="45.0132" lon="5.59402">
        <ele>1374</ele>
        <time>2010-06-20T08:04:45Z</time>
      </trkpt>
      <trkpt lat="45.01322" lon="5.594">
        <ele>1376</ele>
        <time>2010-06-20T08:04:47Z</time>
      </trkpt>
      <trkpt lat="45.01321" lon="5.59398">
        <ele>1377</ele>
        <time>2010-06-20T08:04:49Z</time>
      </trkpt>
      <trkpt lat="45.01318" lon="5.59397">
        <ele>1379</ele>
        <time>2010-06-20T08:04:51Z</time>
      </trkpt>
      <trkpt lat="45.01317" lon="5.59395">
        <ele>1381</ele>
        <time>2010-06-20T08:04:53Z</time>
      </trkpt>
      <trkpt lat="45.01316" lon="5.59393">
        <ele>1381</ele>
        <time>2010-06-20T08:04:54Z</time>
      </trkpt>
      <trkpt lat="45.01314" lon="5.59391">
        <ele>1382</ele>
        <time>2010-06-20T08:04:56Z</time>
      </trkpt>
      <trkpt lat="45.01313" lon="5.59391">
        <ele>1382</ele>
        <time>2010-06-20T08:04:57Z</time>
      </trkpt>
      <trkpt lat="45.01312" lon="5.59389">
        <ele>1382</ele>
        <time>2010-06-20T08:04:59Z</time>
      </trkpt>
      <trkpt lat="45.01312" lon="5.59387">
        <ele>1382</ele>
        <time>2010-06-20T08:05:01Z</time>
      </trkpt>
      <trkpt lat="45.0131" lon="5.59385">
        <ele>1382</ele>
        <time>2010-06-20T08:05:04Z</time>
      </trkpt>
      <trkpt lat="45.01308" lon="5.59385">
        <ele>1382</ele>
        <time>2010-06-20T08:05:05Z</time>
      </trkpt>
      <trkpt lat="45.01307" lon="5.59384">
        <ele>1382</ele>
        <time>2010-06-20T08:05:06Z</time>
      </trkpt>
      <trkpt lat="45.01305" lon="5.59382">
        <ele>1382</ele>
        <time>2010-06-20T08:05:08Z</time>
      </trkpt>
      <trkpt lat="45.01304" lon="5.59381">
        <ele>1382</ele>
        <time>2010-06-20T08:05:10Z</time>
      </trkpt>
      <trkpt lat="45.01302" lon="5.5938">
        <ele>1382</ele>
        <time>2010-06-20T08:05:12Z</time>
      </trkpt>
      <trkpt lat="45.01301" lon="5.59376">
        <ele>1382</ele>
        <time>2010-06-20T08:05:14Z</time>
      </trkpt>
      <trkpt lat="45.01301" lon="5.59374">
        <ele>1382</ele>
        <time>2010-06-20T08:05:15Z</time>
      </trkpt>
      <trkpt lat="45.01301" lon="5.59373">
        <ele>1383</ele>
        <time>2010-06-20T08:05:16Z</time>
      </trkpt>
      <trkpt lat="45.01302" lon="5.59372">
        <ele>1384</ele>
        <time>2010-06-20T08:05:17Z</time>
      </trkpt>
      <trkpt lat="45.01304" lon="5.59371">
        <ele>1386</ele>
        <time>2010-06-20T08:05:19Z</time>
      </trkpt>
      <trkpt lat="45.01306" lon="5.59372">
        <ele>1388</ele>
        <time>2010-06-20T08:05:21Z</time>
      </trkpt>
      <trkpt lat="45.01308" lon="5.59371">
        <ele>1388</ele>
        <time>2010-06-20T08:05:22Z</time>
      </trkpt>
      <trkpt lat="45.0131" lon="5.59371">
        <ele>1388</ele>
        <time>2010-06-20T08:05:23Z</time>
      </trkpt>
      <trkpt lat="45.01312" lon="5.59371">
        <ele>1389</ele>
        <time>2010-06-20T08:05:25Z</time>
      </trkpt>
      <trkpt lat="45.01313" lon="5.59371">
        <ele>1389</ele>
        <time>2010-06-20T08:05:26Z</time>
      </trkpt>
      <trkpt lat="45.01315" lon="5.5937">
        <ele>1390</ele>
        <time>2010-06-20T08:05:27Z</time>
      </trkpt>
      <trkpt lat="45.01316" lon="5.5937">
        <ele>1390</ele>
        <time>2010-06-20T08:05:28Z</time>
      </trkpt>
      <trkpt lat="45.01318" lon="5.59369">
        <ele>1390</ele>
        <time>2010-06-20T08:05:29Z</time>
      </trkpt>
      <trkpt lat="45.01319" lon="5.59368">
        <ele>1390</ele>
        <time>2010-06-20T08:05:30Z</time>
      </trkpt>
      <trkpt lat="45.01321" lon="5.59367">
        <ele>1390</ele>
        <time>2010-06-20T08:05:31Z</time>
      </trkpt>
      <trkpt lat="45.01322" lon="5.59367">
        <ele>1390</ele>
        <time>2010-06-20T08:05:33Z</time>
      </trkpt>
      <trkpt lat="45.01323" lon="5.59367">
        <ele>1390</ele>
        <time>2010-06-20T08:05:34Z</time>
      </trkpt>
      <trkpt lat="45.01325" lon="5.59367">
        <ele>1390</ele>
        <time>2010-06-20T08:05:35Z</time>
      </trkpt>
      <trkpt lat="45.01326" lon="5.59367">
        <ele>1390</ele>
        <time>2010-06-20T08:05:36Z</time>
      </trkpt>
      <trkpt lat="45.01327" lon="5.59366">
        <ele>1390</ele>
        <time>2010-06-20T08:05:37Z</time>
      </trkpt>
      <trkpt lat="45.01326" lon="5.59367">
        <ele>1390</ele>
        <time>2010-06-20T08:05:39Z</time>
      </trkpt>
      <trkpt lat="45.01324" lon="5.59367">
        <ele>1391</ele>
        <time>2010-06-20T08:05:41Z</time>
      </trkpt>
      <trkpt lat="45.01322" lon="5.59366">
        <ele>1392</ele>
        <time>2010-06-20T08:05:42Z</time>
      </trkpt>
      <trkpt lat="45.01321" lon="5.59366">
        <ele>1393</ele>
        <time>2010-06-20T08:05:43Z</time>
      </trkpt>
      <trkpt lat="45.01319" lon="5.59365">
        <ele>1394</ele>
        <time>2010-06-20T08:05:44Z</time>
      </trkpt>
      <trkpt lat="45.01318" lon="5.59365">
        <ele>1395</ele>
        <time>2010-06-20T08:05:45Z</time>
      </trkpt>
      <trkpt lat="45.01316" lon="5.59366">
        <ele>1396</ele>
        <time>2010-06-20T08:05:46Z</time>
      </trkpt>
      <trkpt lat="45.01313" lon="5.59365">
        <ele>1397</ele>
        <time>2010-06-20T08:05:47Z</time>
      </trkpt>
      <trkpt lat="45.01311" lon="5.59364">
        <ele>1398</ele>
        <time>2010-06-20T08:05:48Z</time>
      </trkpt>
      <trkpt lat="45.01309" lon="5.59363">
        <ele>1399</ele>
        <time>2010-06-20T08:05:49Z</time>
      </trkpt>
      <trkpt lat="45.01307" lon="5.59362">
        <ele>1399</ele>
        <time>2010-06-20T08:05:50Z</time>
      </trkpt>
      <trkpt lat="45.01306" lon="5.5936">
        <ele>1400</ele>
        <time>2010-06-20T08:05:51Z</time>
      </trkpt>
      <trkpt lat="45.01304" lon="5.59358">
        <ele>1400</ele>
        <time>2010-06-20T08:05:52Z</time>
      </trkpt>
      <trkpt lat="45.01302" lon="5.59358">
        <ele>1401</ele>
        <time>2010-06-20T08:05:53Z</time>
      </trkpt>
      <trkpt lat="45.013" lon="5.59357">
        <ele>1401</ele>
        <time>2010-06-20T08:05:54Z</time>
      </trkpt>
      <trkpt lat="45.01299" lon="5.59356">
        <ele>1401</ele>
        <time>2010-06-20T08:05:55Z</time>
      </trkpt>
      <trkpt lat="45.01298" lon="5.59353">
        <ele>1402</ele>
        <time>2010-06-20T08:05:56Z</time>
      </trkpt>
      <trkpt lat="45.01295" lon="5.59351">
        <ele>1402</ele>
        <time>2010-06-20T08:05:57Z</time>
      </trkpt>
      <trkpt lat="45.01293" lon="5.5935">
        <ele>1402</ele>
        <time>2010-06-20T08:05:58Z</time>
      </trkpt>
      <trkpt lat="45.01292" lon="5.59348">
        <ele>1403</ele>
        <time>2010-06-20T08:05:59Z</time>
      </trkpt>
      <trkpt lat="45.0129" lon="5.59347">
        <ele>1403</ele>
        <time>2010-06-20T08:06:00Z</time>
      </trkpt>
      <trkpt lat="45.01289" lon="5.59345">
        <ele>1403</ele>
        <time>2010-06-20T08:06:01Z</time>
      </trkpt>
      <trkpt lat="45.01287" lon="5.59343">
        <ele>1404</ele>
        <time>2010-06-20T08:06:02Z</time>
      </trkpt>
      <trkpt lat="45.01285" lon="5.59341">
        <ele>1404</ele>
        <time>2010-06-20T08:06:03Z</time>
      </trkpt>
      <trkpt lat="45.01283" lon="5.5934">
        <ele>1405</ele>
        <time>2010-06-20T08:06:04Z</time>
      </trkpt>
      <trkpt lat="45.01282" lon="5.59338">
        <ele>1407</ele>
        <time>2010-06-20T08:06:06Z</time>
      </trkpt>
      <trkpt lat="45.0128" lon="5.59338">
        <ele>1407</ele>
        <time>2010-06-20T08:06:07Z</time>
      </trkpt>
      <trkpt lat="45.01279" lon="5.59337">
        <ele>1408</ele>
        <time>2010-06-20T08:06:08Z</time>
      </trkpt>
      <trkpt lat="45.01278" lon="5.59335">
        <ele>1408</ele>
        <time>2010-06-20T08:06:09Z</time>
      </trkpt>
      <trkpt lat="45.01276" lon="5.59333">
        <ele>1408</ele>
        <time>2010-06-20T08:06:10Z</time>
      </trkpt>
      <trkpt lat="45.01275" lon="5.59331">
        <ele>1408</ele>
        <time>2010-06-20T08:06:11Z</time>
      </trkpt>
      <trkpt lat="45.01274" lon="5.59328">
        <ele>1408</ele>
        <time>2010-06-20T08:06:12Z</time>
      </trkpt>
      <trkpt lat="45.01272" lon="5.59327">
        <ele>1408</ele>
        <time>2010-06-20T08:06:13Z</time>
      </trkpt>
      <trkpt lat="45.01271" lon="5.59325">
        <ele>1408</ele>
        <time>2010-06-20T08:06:14Z</time>
      </trkpt>
      <trkpt lat="45.0127" lon="5.59324">
        <ele>1409</ele>
        <time>2010-06-20T08:06:15Z</time>
      </trkpt>
      <trkpt lat="45.01269" lon="5.59322">
        <ele>1409</ele>
        <time>2010-06-20T08:06:16Z</time>
      </trkpt>
      <trkpt lat="45.01267" lon="5.5932">
        <ele>1410</ele>
        <time>2010-06-20T08:06:18Z</time>
      </trkpt>
      <trkpt lat="45.01266" lon="5.59317">
        <ele>1410</ele>
        <time>2010-06-20T08:06:20Z</time>
      </trkpt>
      <trkpt lat="45.01264" lon="5.59316">
        <ele>1410</ele>
        <time>2010-06-20T08:06:21Z</time>
      </trkpt>
      <trkpt lat="45.01263" lon="5.59315">
        <ele>1410</ele>
        <time>2010-06-20T08:06:22Z</time>
      </trkpt>
      <trkpt lat="45.01261" lon="5.59314">
        <ele>1410</ele>
        <time>2010-06-20T08:06:23Z</time>
      </trkpt>
      <trkpt lat="45.0126" lon="5.59313">
        <ele>1410</ele>
        <time>2010-06-20T08:06:24Z</time>
      </trkpt>
      <trkpt lat="45.0126" lon="5.59311">
        <ele>1410</ele>
        <time>2010-06-20T08:06:25Z</time>
      </trkpt>
      <trkpt lat="45.01258" lon="5.59308">
        <ele>1410</ele>
        <time>2010-06-20T08:06:27Z</time>
      </trkpt>
      <trkpt lat="45.01257" lon="5.59306">
        <ele>1410</ele>
        <time>2010-06-20T08:06:29Z</time>
      </trkpt>
      <trkpt lat="45.01256" lon="5.59304">
        <ele>1410</ele>
        <time>2010-06-20T08:06:31Z</time>
      </trkpt>
      <trkpt lat="45.01255" lon="5.59302">
        <ele>1410</ele>
        <time>2010-06-20T08:06:32Z</time>
      </trkpt>
      <trkpt lat="45.01254" lon="5.593">
        <ele>1410</ele>
        <time>2010-06-20T08:06:33Z</time>
      </trkpt>
      <trkpt lat="45.01253" lon="5.59298">
        <ele>1411</ele>
        <time>2010-06-20T08:06:34Z</time>
      </trkpt>
      <trkpt lat="45.01252" lon="5.59296">
        <ele>1412</ele>
        <time>2010-06-20T08:06:35Z</time>
      </trkpt>
      <trkpt lat="45.01251" lon="5.59294">
        <ele>1413</ele>
        <time>2010-06-20T08:06:36Z</time>
      </trkpt>
      <trkpt lat="45.0125" lon="5.59292">
        <ele>1414</ele>
        <time>2010-06-20T08:06:37Z</time>
      </trkpt>
      <trkpt lat="45.0125" lon="5.5929">
        <ele>1415</ele>
        <time>2010-06-20T08:06:38Z</time>
      </trkpt>
      <trkpt lat="45.01249" lon="5.59288">
        <ele>1416</ele>
        <time>2010-06-20T08:06:39Z</time>
      </trkpt>
      <trkpt lat="45.01247" lon="5.59287">
        <ele>1417</ele>
        <time>2010-06-20T08:06:42Z</time>
      </trkpt>
      <trkpt lat="45.01246" lon="5.59285">
        <ele>1417</ele>
        <time>2010-06-20T08:06:43Z</time>
      </trkpt>
      <trkpt lat="45.01245" lon="5.59283">
        <ele>1417</ele>
        <time>2010-06-20T08:06:44Z</time>
      </trkpt>
      <trkpt lat="45.01244" lon="5.59281">
        <ele>1417</ele>
        <time>2010-06-20T08:06:45Z</time>
      </trkpt>
      <trkpt lat="45.01243" lon="5.59279">
        <ele>1417</ele>
        <time>2010-06-20T08:06:46Z</time>
      </trkpt>
      <trkpt lat="45.01242" lon="5.59278">
        <ele>1417</ele>
        <time>2010-06-20T08:06:47Z</time>
      </trkpt>
      <trkpt lat="45.01241" lon="5.59276">
        <ele>1417</ele>
        <time>2010-06-20T08:06:49Z</time>
      </trkpt>
      <trkpt lat="45.0124" lon="5.59275">
        <ele>1417</ele>
        <time>2010-06-20T08:06:51Z</time>
      </trkpt>
      <trkpt lat="45.01238" lon="5.59273">
        <ele>1417</ele>
        <time>2010-06-20T08:06:53Z</time>
      </trkpt>
      <trkpt lat="45.01236" lon="5.59271">
        <ele>1417</ele>
        <time>2010-06-20T08:06:55Z</time>
      </trkpt>
      <trkpt lat="45.01235" lon="5.59271">
        <ele>1418</ele>
        <time>2010-06-20T08:06:56Z</time>
      </trkpt>
      <trkpt lat="45.01234" lon="5.59269">
        <ele>1418</ele>
        <time>2010-06-20T08:06:57Z</time>
      </trkpt>
      <trkpt lat="45.01232" lon="5.59267">
        <ele>1418</ele>
        <time>2010-06-20T08:06:58Z</time>
      </trkpt>
      <trkpt lat="45.01231" lon="5.59264">
        <ele>1418</ele>
        <time>2010-06-20T08:06:59Z</time>
      </trkpt>
      <trkpt lat="45.0123" lon="5.59263">
        <ele>1418</ele>
        <time>2010-06-20T08:07:00Z</time>
      </trkpt>
      <trkpt lat="45.01228" lon="5.59261">
        <ele>1418</ele>
        <time>2010-06-20T08:07:02Z</time>
      </trkpt>
      <trkpt lat="45.01227" lon="5.5926">
        <ele>1418</ele>
        <time>2010-06-20T08:07:03Z</time>
      </trkpt>
      <trkpt lat="45.01226" lon="5.59258">
        <ele>1418</ele>
        <time>2010-06-20T08:07:04Z</time>
      </trkpt>
      <trkpt lat="45.01226" lon="5.59255">
        <ele>1418</ele>
        <time>2010-06-20T08:07:05Z</time>
      </trkpt>
      <trkpt lat="45.01224" lon="5.59255">
        <ele>1418</ele>
        <time>2010-06-20T08:07:06Z</time>
      </trkpt>
      <trkpt lat="45.01222" lon="5.59253">
        <ele>1418</ele>
        <time>2010-06-20T08:07:08Z</time>
      </trkpt>
      <trkpt lat="45.0122" lon="5.59251">
        <ele>1418</ele>
        <time>2010-06-20T08:07:09Z</time>
      </trkpt>
      <trkpt lat="45.0122" lon="5.59249">
        <ele>1418</ele>
        <time>2010-06-20T08:07:10Z</time>
      </trkpt>
      <trkpt lat="45.01219" lon="5.59247">
        <ele>1417</ele>
        <time>2010-06-20T08:07:11Z</time>
      </trkpt>
      <trkpt lat="45.01218" lon="5.59244">
        <ele>1417</ele>
        <time>2010-06-20T08:07:12Z</time>
      </trkpt>
      <trkpt lat="45.01217" lon="5.59241">
        <ele>1416</ele>
        <time>2010-06-20T08:07:13Z</time>
      </trkpt>
      <trkpt lat="45.01216" lon="5.59239">
        <ele>1415</ele>
        <time>2010-06-20T08:07:14Z</time>
      </trkpt>
      <trkpt lat="45.01215" lon="5.59237">
        <ele>1414</ele>
        <time>2010-06-20T08:07:15Z</time>
      </trkpt>
      <trkpt lat="45.01213" lon="5.59234">
        <ele>1413</ele>
        <time>2010-06-20T08:07:16Z</time>
      </trkpt>
      <trkpt lat="45.01212" lon="5.59233">
        <ele>1413</ele>
        <time>2010-06-20T08:07:17Z</time>
      </trkpt>
      <trkpt lat="45.0121" lon="5.59231">
        <ele>1413</ele>
        <time>2010-06-20T08:07:19Z</time>
      </trkpt>
      <trkpt lat="45.01208" lon="5.59229">
        <ele>1415</ele>
        <time>2010-06-20T08:07:21Z</time>
      </trkpt>
      <trkpt lat="45.01207" lon="5.59228">
        <ele>1416</ele>
        <time>2010-06-20T08:07:22Z</time>
      </trkpt>
      <trkpt lat="45.01206" lon="5.59226">
        <ele>1417</ele>
        <time>2010-06-20T08:07:23Z</time>
      </trkpt>
      <trkpt lat="45.01205" lon="5.59224">
        <ele>1418</ele>
        <time>2010-06-20T08:07:24Z</time>
      </trkpt>
      <trkpt lat="45.01205" lon="5.59221">
        <ele>1419</ele>
        <time>2010-06-20T08:07:25Z</time>
      </trkpt>
      <trkpt lat="45.01204" lon="5.59218">
        <ele>1420</ele>
        <time>2010-06-20T08:07:26Z</time>
      </trkpt>
      <trkpt lat="45.01202" lon="5.59215">
        <ele>1421</ele>
        <time>2010-06-20T08:07:28Z</time>
      </trkpt>
      <trkpt lat="45.01201" lon="5.59213">
        <ele>1422</ele>
        <time>2010-06-20T08:07:29Z</time>
      </trkpt>
      <trkpt lat="45.012" lon="5.59212">
        <ele>1423</ele>
        <time>2010-06-20T08:07:30Z</time>
      </trkpt>
      <trkpt lat="45.012" lon="5.59209">
        <ele>1423</ele>
        <time>2010-06-20T08:07:31Z</time>
      </trkpt>
      <trkpt lat="45.01199" lon="5.59205">
        <ele>1424</ele>
        <time>2010-06-20T08:07:33Z</time>
      </trkpt>
      <trkpt lat="45.01198" lon="5.59203">
        <ele>1424</ele>
        <time>2010-06-20T08:07:34Z</time>
      </trkpt>
      <trkpt lat="45.01197" lon="5.592">
        <ele>1425</ele>
        <time>2010-06-20T08:07:35Z</time>
      </trkpt>
      <trkpt lat="45.01196" lon="5.59197">
        <ele>1426</ele>
        <time>2010-06-20T08:07:36Z</time>
      </trkpt>
      <trkpt lat="45.01195" lon="5.59195">
        <ele>1426</ele>
        <time>2010-06-20T08:07:37Z</time>
      </trkpt>
      <trkpt lat="45.01193" lon="5.59194">
        <ele>1427</ele>
        <time>2010-06-20T08:07:38Z</time>
      </trkpt>
      <trkpt lat="45.01192" lon="5.59192">
        <ele>1427</ele>
        <time>2010-06-20T08:07:39Z</time>
      </trkpt>
      <trkpt lat="45.01191" lon="5.5919">
        <ele>1427</ele>
        <time>2010-06-20T08:07:40Z</time>
      </trkpt>
      <trkpt lat="45.01189" lon="5.59187">
        <ele>1427</ele>
        <time>2010-06-20T08:07:41Z</time>
      </trkpt>
      <trkpt lat="45.01188" lon="5.59183">
        <ele>1427</ele>
        <time>2010-06-20T08:07:42Z</time>
      </trkpt>
      <trkpt lat="45.01188" lon="5.59181">
        <ele>1427</ele>
        <time>2010-06-20T08:07:43Z</time>
      </trkpt>
      <trkpt lat="45.01188" lon="5.59179">
        <ele>1427</ele>
        <time>2010-06-20T08:07:44Z</time>
      </trkpt>
      <trkpt lat="45.01188" lon="5.59177">
        <ele>1428</ele>
        <time>2010-06-20T08:07:46Z</time>
      </trkpt>
      <trkpt lat="45.01188" lon="5.59173">
        <ele>1428</ele>
        <time>2010-06-20T08:07:48Z</time>
      </trkpt>
      <trkpt lat="45.01186" lon="5.5917">
        <ele>1428</ele>
        <time>2010-06-20T08:07:49Z</time>
      </trkpt>
      <trkpt lat="45.01186" lon="5.59168">
        <ele>1429</ele>
        <time>2010-06-20T08:07:50Z</time>
      </trkpt>
      <trkpt lat="45.01186" lon="5.59166">
        <ele>1430</ele>
        <time>2010-06-20T08:07:51Z</time>
      </trkpt>
      <trkpt lat="45.01186" lon="5.59164">
        <ele>1431</ele>
        <time>2010-06-20T08:07:52Z</time>
      </trkpt>
      <trkpt lat="45.01185" lon="5.59162">
        <ele>1432</ele>
        <time>2010-06-20T08:07:53Z</time>
      </trkpt>
      <trkpt lat="45.01184" lon="5.5916">
        <ele>1433</ele>
        <time>2010-06-20T08:07:54Z</time>
      </trkpt>
      <trkpt lat="45.01184" lon="5.59158">
        <ele>1434</ele>
        <time>2010-06-20T08:07:55Z</time>
      </trkpt>
      <trkpt lat="45.01183" lon="5.59156">
        <ele>1436</ele>
        <time>2010-06-20T08:07:57Z</time>
      </trkpt>
      <trkpt lat="45.01183" lon="5.59154">
        <ele>1437</ele>
        <time>2010-06-20T08:07:59Z</time>
      </trkpt>
      <trkpt lat="45.01182" lon="5.59152">
        <ele>1437</ele>
        <time>2010-06-20T08:08:01Z</time>
      </trkpt>
      <trkpt lat="45.01182" lon="5.5915">
        <ele>1437</ele>
        <time>2010-06-20T08:08:02Z</time>
      </trkpt>
      <trkpt lat="45.01181" lon="5.59148">
        <ele>1437</ele>
        <time>2010-06-20T08:08:04Z</time>
      </trkpt>
      <trkpt lat="45.0118" lon="5.59147">
        <ele>1437</ele>
        <time>2010-06-20T08:08:05Z</time>
      </trkpt>
      <trkpt lat="45.01178" lon="5.59144">
        <ele>1437</ele>
        <time>2010-06-20T08:08:07Z</time>
      </trkpt>
      <trkpt lat="45.01178" lon="5.59143">
        <ele>1437</ele>
        <time>2010-06-20T08:08:08Z</time>
      </trkpt>
      <trkpt lat="45.01177" lon="5.59141">
        <ele>1437</ele>
        <time>2010-06-20T08:08:09Z</time>
      </trkpt>
      <trkpt lat="45.01177" lon="5.59139">
        <ele>1437</ele>
        <time>2010-06-20T08:08:10Z</time>
      </trkpt>
      <trkpt lat="45.01176" lon="5.59137">
        <ele>1437</ele>
        <time>2010-06-20T08:08:11Z</time>
      </trkpt>
      <trkpt lat="45.01176" lon="5.59134">
        <ele>1437</ele>
        <time>2010-06-20T08:08:13Z</time>
      </trkpt>
      <trkpt lat="45.01176" lon="5.59132">
        <ele>1438</ele>
        <time>2010-06-20T08:08:14Z</time>
      </trkpt>
      <trkpt lat="45.01177" lon="5.5913">
        <ele>1438</ele>
        <time>2010-06-20T08:08:15Z</time>
      </trkpt>
      <trkpt lat="45.01176" lon="5.59128">
        <ele>1438</ele>
        <time>2010-06-20T08:08:16Z</time>
      </trkpt>
      <trkpt lat="45.01176" lon="5.59126">
        <ele>1438</ele>
        <time>2010-06-20T08:08:17Z</time>
      </trkpt>
      <trkpt lat="45.01174" lon="5.59123">
        <ele>1438</ele>
        <time>2010-06-20T08:08:19Z</time>
      </trkpt>
      <trkpt lat="45.01173" lon="5.59121">
        <ele>1439</ele>
        <time>2010-06-20T08:08:21Z</time>
      </trkpt>
      <trkpt lat="45.01171" lon="5.59118">
        <ele>1440</ele>
        <time>2010-06-20T08:08:23Z</time>
      </trkpt>
      <trkpt lat="45.01171" lon="5.59116">
        <ele>1440</ele>
        <time>2010-06-20T08:08:24Z</time>
      </trkpt>
      <trkpt lat="45.0117" lon="5.59112">
        <ele>1440</ele>
        <time>2010-06-20T08:08:25Z</time>
      </trkpt>
      <trkpt lat="45.0117" lon="5.5911">
        <ele>1440</ele>
        <time>2010-06-20T08:08:26Z</time>
      </trkpt>
      <trkpt lat="45.0117" lon="5.59107">
        <ele>1440</ele>
        <time>2010-06-20T08:08:27Z</time>
      </trkpt>
      <trkpt lat="45.0117" lon="5.59104">
        <ele>1440</ele>
        <time>2010-06-20T08:08:28Z</time>
      </trkpt>
      <trkpt lat="45.0117" lon="5.59101">
        <ele>1440</ele>
        <time>2010-06-20T08:08:29Z</time>
      </trkpt>
      <trkpt lat="45.0117" lon="5.59097">
        <ele>1440</ele>
        <time>2010-06-20T08:08:30Z</time>
      </trkpt>
      <trkpt lat="45.0117" lon="5.59094">
        <ele>1440</ele>
        <time>2010-06-20T08:08:31Z</time>
      </trkpt>
      <trkpt lat="45.0117" lon="5.5909">
        <ele>1441</ele>
        <time>2010-06-20T08:08:32Z</time>
      </trkpt>
      <trkpt lat="45.0117" lon="5.59088">
        <ele>1441</ele>
        <time>2010-06-20T08:08:33Z</time>
      </trkpt>
      <trkpt lat="45.01169" lon="5.59084">
        <ele>1442</ele>
        <time>2010-06-20T08:08:34Z</time>
      </trkpt>
      <trkpt lat="45.01169" lon="5.59082">
        <ele>1443</ele>
        <time>2010-06-20T08:08:35Z</time>
      </trkpt>
      <trkpt lat="45.01168" lon="5.59079">
        <ele>1444</ele>
        <time>2010-06-20T08:08:36Z</time>
      </trkpt>
      <trkpt lat="45.01167" lon="5.59077">
        <ele>1445</ele>
        <time>2010-06-20T08:08:37Z</time>
      </trkpt>
      <trkpt lat="45.01166" lon="5.59075">
        <ele>1446</ele>
        <time>2010-06-20T08:08:38Z</time>
      </trkpt>
      <trkpt lat="45.01166" lon="5.59072">
        <ele>1446</ele>
        <time>2010-06-20T08:08:39Z</time>
      </trkpt>
      <trkpt lat="45.01166" lon="5.5907">
        <ele>1446</ele>
        <time>2010-06-20T08:08:40Z</time>
      </trkpt>
      <trkpt lat="45.01165" lon="5.59067">
        <ele>1446</ele>
        <time>2010-06-20T08:08:42Z</time>
      </trkpt>
      <trkpt lat="45.01165" lon="5.59065">
        <ele>1446</ele>
        <time>2010-06-20T08:08:43Z</time>
      </trkpt>
      <trkpt lat="45.01165" lon="5.59063">
        <ele>1446</ele>
        <time>2010-06-20T08:08:44Z</time>
      </trkpt>
      <trkpt lat="45.01164" lon="5.59061">
        <ele>1446</ele>
        <time>2010-06-20T08:08:45Z</time>
      </trkpt>
      <trkpt lat="45.01164" lon="5.59059">
        <ele>1447</ele>
        <time>2010-06-20T08:08:46Z</time>
      </trkpt>
      <trkpt lat="45.01163" lon="5.59057">
        <ele>1448</ele>
        <time>2010-06-20T08:08:47Z</time>
      </trkpt>
      <trkpt lat="45.01163" lon="5.59055">
        <ele>1449</ele>
        <time>2010-06-20T08:08:48Z</time>
      </trkpt>
      <trkpt lat="45.01162" lon="5.59053">
        <ele>1450</ele>
        <time>2010-06-20T08:08:50Z</time>
      </trkpt>
      <trkpt lat="45.0116" lon="5.59052">
        <ele>1451</ele>
        <time>2010-06-20T08:08:52Z</time>
      </trkpt>
      <trkpt lat="45.01159" lon="5.59049">
        <ele>1451</ele>
        <time>2010-06-20T08:08:54Z</time>
      </trkpt>
      <trkpt lat="45.01158" lon="5.59048">
        <ele>1451</ele>
        <time>2010-06-20T08:08:55Z</time>
      </trkpt>
      <trkpt lat="45.01157" lon="5.59046">
        <ele>1451</ele>
        <time>2010-06-20T08:08:56Z</time>
      </trkpt>
      <trkpt lat="45.01157" lon="5.59044">
        <ele>1451</ele>
        <time>2010-06-20T08:08:57Z</time>
      </trkpt>
      <trkpt lat="45.01157" lon="5.59041">
        <ele>1451</ele>
        <time>2010-06-20T08:08:58Z</time>
      </trkpt>
      <trkpt lat="45.01157" lon="5.59039">
        <ele>1451</ele>
        <time>2010-06-20T08:08:59Z</time>
      </trkpt>
      <trkpt lat="45.01157" lon="5.59036">
        <ele>1450</ele>
        <time>2010-06-20T08:09:00Z</time>
      </trkpt>
      <trkpt lat="45.01155" lon="5.59034">
        <ele>1450</ele>
        <time>2010-06-20T08:09:02Z</time>
      </trkpt>
      <trkpt lat="45.01154" lon="5.59033">
        <ele>1449</ele>
        <time>2010-06-20T08:09:04Z</time>
      </trkpt>
      <trkpt lat="45.01153" lon="5.5903">
        <ele>1448</ele>
        <time>2010-06-20T08:09:06Z</time>
      </trkpt>
      <trkpt lat="45.01153" lon="5.59028">
        <ele>1448</ele>
        <time>2010-06-20T08:09:07Z</time>
      </trkpt>
      <trkpt lat="45.01152" lon="5.59026">
        <ele>1447</ele>
        <time>2010-06-20T08:09:08Z</time>
      </trkpt>
      <trkpt lat="45.01151" lon="5.59024">
        <ele>1447</ele>
        <time>2010-06-20T08:09:09Z</time>
      </trkpt>
      <trkpt lat="45.01151" lon="5.59022">
        <ele>1447</ele>
        <time>2010-06-20T08:09:10Z</time>
      </trkpt>
      <trkpt lat="45.0115" lon="5.5902">
        <ele>1446</ele>
        <time>2010-06-20T08:09:12Z</time>
      </trkpt>
      <trkpt lat="45.0115" lon="5.59017">
        <ele>1446</ele>
        <time>2010-06-20T08:09:13Z</time>
      </trkpt>
      <trkpt lat="45.0115" lon="5.59014">
        <ele>1446</ele>
        <time>2010-06-20T08:09:14Z</time>
      </trkpt>
      <trkpt lat="45.0115" lon="5.59011">
        <ele>1446</ele>
        <time>2010-06-20T08:09:16Z</time>
      </trkpt>
      <trkpt lat="45.01149" lon="5.59009">
        <ele>1446</ele>
        <time>2010-06-20T08:09:17Z</time>
      </trkpt>
      <trkpt lat="45.01149" lon="5.59006">
        <ele>1446</ele>
        <time>2010-06-20T08:09:18Z</time>
      </trkpt>
      <trkpt lat="45.01149" lon="5.59004">
        <ele>1446</ele>
        <time>2010-06-20T08:09:19Z</time>
      </trkpt>
      <trkpt lat="45.01149" lon="5.59002">
        <ele>1446</ele>
        <time>2010-06-20T08:09:20Z</time>
      </trkpt>
      <trkpt lat="45.01149" lon="5.59">
        <ele>1446</ele>
        <time>2010-06-20T08:09:21Z</time>
      </trkpt>
      <trkpt lat="45.01149" lon="5.58998">
        <ele>1447</ele>
        <time>2010-06-20T08:09:22Z</time>
      </trkpt>
      <trkpt lat="45.01149" lon="5.58996">
        <ele>1448</ele>
        <time>2010-06-20T08:09:23Z</time>
      </trkpt>
      <trkpt lat="45.01149" lon="5.58994">
        <ele>1449</ele>
        <time>2010-06-20T08:09:24Z</time>
      </trkpt>
      <trkpt lat="45.0115" lon="5.58993">
        <ele>1449</ele>
        <time>2010-06-20T08:09:25Z</time>
      </trkpt>
      <trkpt lat="45.01151" lon="5.58989">
        <ele>1450</ele>
        <time>2010-06-20T08:09:27Z</time>
      </trkpt>
      <trkpt lat="45.01151" lon="5.58988">
        <ele>1450</ele>
        <time>2010-06-20T08:09:28Z</time>
      </trkpt>
      <trkpt lat="45.01151" lon="5.58986">
        <ele>1450</ele>
        <time>2010-06-20T08:09:29Z</time>
      </trkpt>
      <trkpt lat="45.01151" lon="5.58984">
        <ele>1450</ele>
        <time>2010-06-20T08:09:30Z</time>
      </trkpt>
      <trkpt lat="45.0115" lon="5.58981">
        <ele>1450</ele>
        <time>2010-06-20T08:09:32Z</time>
      </trkpt>
      <trkpt lat="45.0115" lon="5.5898">
        <ele>1450</ele>
        <time>2010-06-20T08:09:33Z</time>
      </trkpt>
      <trkpt lat="45.01149" lon="5.58978">
        <ele>1450</ele>
        <time>2010-06-20T08:09:34Z</time>
      </trkpt>
      <trkpt lat="45.01149" lon="5.58976">
        <ele>1450</ele>
        <time>2010-06-20T08:09:35Z</time>
      </trkpt>
      <trkpt lat="45.01149" lon="5.58974">
        <ele>1450</ele>
        <time>2010-06-20T08:09:36Z</time>
      </trkpt>
      <trkpt lat="45.01149" lon="5.58972">
        <ele>1450</ele>
        <time>2010-06-20T08:09:37Z</time>
      </trkpt>
      <trkpt lat="45.0115" lon="5.5897">
        <ele>1450</ele>
        <time>2010-06-20T08:09:39Z</time>
      </trkpt>
      <trkpt lat="45.01149" lon="5.58968">
        <ele>1450</ele>
        <time>2010-06-20T08:09:40Z</time>
      </trkpt>
      <trkpt lat="45.01148" lon="5.58966">
        <ele>1450</ele>
        <time>2010-06-20T08:09:43Z</time>
      </trkpt>
      <trkpt lat="45.01148" lon="5.58964">
        <ele>1450</ele>
        <time>2010-06-20T08:09:45Z</time>
      </trkpt>
      <trkpt lat="45.01149" lon="5.58962">
        <ele>1450</ele>
        <time>2010-06-20T08:09:47Z</time>
      </trkpt>
      <trkpt lat="45.01151" lon="5.58963">
        <ele>1450</ele>
        <time>2010-06-20T08:09:50Z</time>
      </trkpt>
      <trkpt lat="45.01153" lon="5.58964">
        <ele>1450</ele>
        <time>2010-06-20T08:09:51Z</time>
      </trkpt>
      <trkpt lat="45.01154" lon="5.58966">
        <ele>1450</ele>
        <time>2010-06-20T08:09:52Z</time>
      </trkpt>
      <trkpt lat="45.01155" lon="5.58968">
        <ele>1450</ele>
        <time>2010-06-20T08:09:53Z</time>
      </trkpt>
      <trkpt lat="45.01155" lon="5.58971">
        <ele>1450</ele>
        <time>2010-06-20T08:09:54Z</time>
      </trkpt>
      <trkpt lat="45.01156" lon="5.58973">
        <ele>1450</ele>
        <time>2010-06-20T08:09:55Z</time>
      </trkpt>
      <trkpt lat="45.01156" lon="5.58976">
        <ele>1450</ele>
        <time>2010-06-20T08:09:56Z</time>
      </trkpt>
      <trkpt lat="45.01157" lon="5.58979">
        <ele>1451</ele>
        <time>2010-06-20T08:09:57Z</time>
      </trkpt>
      <trkpt lat="45.01157" lon="5.58981">
        <ele>1452</ele>
        <time>2010-06-20T08:09:58Z</time>
      </trkpt>
      <trkpt lat="45.01157" lon="5.58983">
        <ele>1453</ele>
        <time>2010-06-20T08:09:59Z</time>
      </trkpt>
      <trkpt lat="45.01158" lon="5.58986">
        <ele>1454</ele>
        <time>2010-06-20T08:10:00Z</time>
      </trkpt>
      <trkpt lat="45.01158" lon="5.58989">
        <ele>1455</ele>
        <time>2010-06-20T08:10:01Z</time>
      </trkpt>
      <trkpt lat="45.01158" lon="5.58991">
        <ele>1456</ele>
        <time>2010-06-20T08:10:02Z</time>
      </trkpt>
      <trkpt lat="45.01159" lon="5.58993">
        <ele>1457</ele>
        <time>2010-06-20T08:10:03Z</time>
      </trkpt>
      <trkpt lat="45.01161" lon="5.58995">
        <ele>1458</ele>
        <time>2010-06-20T08:10:04Z</time>
      </trkpt>
      <trkpt lat="45.01163" lon="5.58997">
        <ele>1459</ele>
        <time>2010-06-20T08:10:05Z</time>
      </trkpt>
      <trkpt lat="45.01165" lon="5.58999">
        <ele>1459</ele>
        <time>2010-06-20T08:10:06Z</time>
      </trkpt>
      <trkpt lat="45.01167" lon="5.59001">
        <ele>1460</ele>
        <time>2010-06-20T08:10:07Z</time>
      </trkpt>
      <trkpt lat="45.01167" lon="5.59002">
        <ele>1460</ele>
        <time>2010-06-20T08:10:08Z</time>
      </trkpt>
      <trkpt lat="45.0117" lon="5.59004">
        <ele>1460</ele>
        <time>2010-06-20T08:10:10Z</time>
      </trkpt>
      <trkpt lat="45.01172" lon="5.59006">
        <ele>1460</ele>
        <time>2010-06-20T08:10:12Z</time>
      </trkpt>
      <trkpt lat="45.01173" lon="5.59009">
        <ele>1461</ele>
        <time>2010-06-20T08:10:14Z</time>
      </trkpt>
      <trkpt lat="45.01174" lon="5.59011">
        <ele>1462</ele>
        <time>2010-06-20T08:10:15Z</time>
      </trkpt>
      <trkpt lat="45.01176" lon="5.59013">
        <ele>1464</ele>
        <time>2010-06-20T08:10:17Z</time>
      </trkpt>
      <trkpt lat="45.01177" lon="5.59014">
        <ele>1465</ele>
        <time>2010-06-20T08:10:18Z</time>
      </trkpt>
      <trkpt lat="45.01178" lon="5.59014">
        <ele>1466</ele>
        <time>2010-06-20T08:10:19Z</time>
      </trkpt>
      <trkpt lat="45.01179" lon="5.59016">
        <ele>1467</ele>
        <time>2010-06-20T08:10:20Z</time>
      </trkpt>
      <trkpt lat="45.01179" lon="5.5902">
        <ele>1468</ele>
        <time>2010-06-20T08:10:21Z</time>
      </trkpt>
      <trkpt lat="45.01181" lon="5.59021">
        <ele>1468</ele>
        <time>2010-06-20T08:10:22Z</time>
      </trkpt>
      <trkpt lat="45.01183" lon="5.59022">
        <ele>1468</ele>
        <time>2010-06-20T08:10:23Z</time>
      </trkpt>
      <trkpt lat="45.01184" lon="5.59025">
        <ele>1469</ele>
        <time>2010-06-20T08:10:24Z</time>
      </trkpt>
      <trkpt lat="45.01186" lon="5.59026">
        <ele>1470</ele>
        <time>2010-06-20T08:10:25Z</time>
      </trkpt>
      <trkpt lat="45.01185" lon="5.59029">
        <ele>1471</ele>
        <time>2010-06-20T08:10:26Z</time>
      </trkpt>
      <trkpt lat="45.01186" lon="5.5903">
        <ele>1472</ele>
        <time>2010-06-20T08:10:27Z</time>
      </trkpt>
      <trkpt lat="45.01187" lon="5.59032">
        <ele>1473</ele>
        <time>2010-06-20T08:10:28Z</time>
      </trkpt>
      <trkpt lat="45.01189" lon="5.59031">
        <ele>1473</ele>
        <time>2010-06-20T08:10:29Z</time>
      </trkpt>
      <trkpt lat="45.0119" lon="5.59033">
        <ele>1474</ele>
        <time>2010-06-20T08:10:30Z</time>
      </trkpt>
      <trkpt lat="45.0119" lon="5.59036">
        <ele>1474</ele>
        <time>2010-06-20T08:10:31Z</time>
      </trkpt>
      <trkpt lat="45.01192" lon="5.59037">
        <ele>1474</ele>
        <time>2010-06-20T08:10:33Z</time>
      </trkpt>
      <trkpt lat="45.01193" lon="5.5904">
        <ele>1474</ele>
        <time>2010-06-20T08:10:34Z</time>
      </trkpt>
      <trkpt lat="45.01195" lon="5.59041">
        <ele>1474</ele>
        <time>2010-06-20T08:10:35Z</time>
      </trkpt>
      <trkpt lat="45.01196" lon="5.59042">
        <ele>1474</ele>
        <time>2010-06-20T08:10:36Z</time>
      </trkpt>
      <trkpt lat="45.01196" lon="5.59044">
        <ele>1474</ele>
        <time>2010-06-20T08:10:37Z</time>
      </trkpt>
      <trkpt lat="45.01197" lon="5.59047">
        <ele>1474</ele>
        <time>2010-06-20T08:10:38Z</time>
      </trkpt>
      <trkpt lat="45.01198" lon="5.59049">
        <ele>1474</ele>
        <time>2010-06-20T08:10:39Z</time>
      </trkpt>
      <trkpt lat="45.01199" lon="5.59051">
        <ele>1474</ele>
        <time>2010-06-20T08:10:40Z</time>
      </trkpt>
      <trkpt lat="45.01201" lon="5.59051">
        <ele>1474</ele>
        <time>2010-06-20T08:10:41Z</time>
      </trkpt>
      <trkpt lat="45.01203" lon="5.59051">
        <ele>1474</ele>
        <time>2010-06-20T08:10:42Z</time>
      </trkpt>
      <trkpt lat="45.01204" lon="5.59053">
        <ele>1474</ele>
        <time>2010-06-20T08:10:43Z</time>
      </trkpt>
      <trkpt lat="45.01205" lon="5.59055">
        <ele>1474</ele>
        <time>2010-06-20T08:10:44Z</time>
      </trkpt>
      <trkpt lat="45.01207" lon="5.59057">
        <ele>1474</ele>
        <time>2010-06-20T08:10:45Z</time>
      </trkpt>
      <trkpt lat="45.01209" lon="5.59058">
        <ele>1474</ele>
        <time>2010-06-20T08:10:46Z</time>
      </trkpt>
      <trkpt lat="45.01211" lon="5.5906">
        <ele>1474</ele>
        <time>2010-06-20T08:10:48Z</time>
      </trkpt>
      <trkpt lat="45.01213" lon="5.59063">
        <ele>1474</ele>
        <time>2010-06-20T08:10:50Z</time>
      </trkpt>
      <trkpt lat="45.01215" lon="5.59064">
        <ele>1474</ele>
        <time>2010-06-20T08:10:52Z</time>
      </trkpt>
      <trkpt lat="45.01217" lon="5.59067">
        <ele>1474</ele>
        <time>2010-06-20T08:10:54Z</time>
      </trkpt>
      <trkpt lat="45.01217" lon="5.59069">
        <ele>1474</ele>
        <time>2010-06-20T08:10:55Z</time>
      </trkpt>
      <trkpt lat="45.01219" lon="5.5907">
        <ele>1474</ele>
        <time>2010-06-20T08:10:56Z</time>
      </trkpt>
      <trkpt lat="45.0122" lon="5.59072">
        <ele>1474</ele>
        <time>2010-06-20T08:10:57Z</time>
      </trkpt>
      <trkpt lat="45.0122" lon="5.59074">
        <ele>1474</ele>
        <time>2010-06-20T08:10:58Z</time>
      </trkpt>
      <trkpt lat="45.01222" lon="5.59077">
        <ele>1474</ele>
        <time>2010-06-20T08:11:00Z</time>
      </trkpt>
      <trkpt lat="45.01222" lon="5.59079">
        <ele>1474</ele>
        <time>2010-06-20T08:11:02Z</time>
      </trkpt>
      <trkpt lat="45.01223" lon="5.59079">
        <ele>1474</ele>
        <time>2010-06-20T08:11:03Z</time>
      </trkpt>
      <trkpt lat="45.01226" lon="5.5908">
        <ele>1475</ele>
        <time>2010-06-20T08:11:04Z</time>
      </trkpt>
      <trkpt lat="45.01228" lon="5.59082">
        <ele>1476</ele>
        <time>2010-06-20T08:11:05Z</time>
      </trkpt>
      <trkpt lat="45.0123" lon="5.59083">
        <ele>1477</ele>
        <time>2010-06-20T08:11:06Z</time>
      </trkpt>
      <trkpt lat="45.01231" lon="5.59085">
        <ele>1478</ele>
        <time>2010-06-20T08:11:07Z</time>
      </trkpt>
      <trkpt lat="45.01233" lon="5.59086">
        <ele>1478</ele>
        <time>2010-06-20T08:11:08Z</time>
      </trkpt>
      <trkpt lat="45.01234" lon="5.59087">
        <ele>1479</ele>
        <time>2010-06-20T08:11:09Z</time>
      </trkpt>
      <trkpt lat="45.01235" lon="5.59089">
        <ele>1480</ele>
        <time>2010-06-20T08:11:10Z</time>
      </trkpt>
      <trkpt lat="45.01236" lon="5.5909">
        <ele>1480</ele>
        <time>2010-06-20T08:11:11Z</time>
      </trkpt>
      <trkpt lat="45.01238" lon="5.59092">
        <ele>1480</ele>
        <time>2010-06-20T08:11:12Z</time>
      </trkpt>
      <trkpt lat="45.0124" lon="5.59093">
        <ele>1481</ele>
        <time>2010-06-20T08:11:13Z</time>
      </trkpt>
      <trkpt lat="45.01241" lon="5.59095">
        <ele>1482</ele>
        <time>2010-06-20T08:11:14Z</time>
      </trkpt>
      <trkpt lat="45.01242" lon="5.59097">
        <ele>1483</ele>
        <time>2010-06-20T08:11:15Z</time>
      </trkpt>
      <trkpt lat="45.01243" lon="5.59098">
        <ele>1484</ele>
        <time>2010-06-20T08:11:16Z</time>
      </trkpt>
      <trkpt lat="45.01244" lon="5.59099">
        <ele>1485</ele>
        <time>2010-06-20T08:11:17Z</time>
      </trkpt>
      <trkpt lat="45.01246" lon="5.59099">
        <ele>1486</ele>
        <time>2010-06-20T08:11:18Z</time>
      </trkpt>
      <trkpt lat="45.01248" lon="5.591">
        <ele>1487</ele>
        <time>2010-06-20T08:11:19Z</time>
      </trkpt>
      <trkpt lat="45.01249" lon="5.59102">
        <ele>1488</ele>
        <time>2010-06-20T08:11:20Z</time>
      </trkpt>
      <trkpt lat="45.0125" lon="5.59104">
        <ele>1489</ele>
        <time>2010-06-20T08:11:21Z</time>
      </trkpt>
      <trkpt lat="45.01251" lon="5.59104">
        <ele>1490</ele>
        <time>2010-06-20T08:11:22Z</time>
      </trkpt>
      <trkpt lat="45.01253" lon="5.59107">
        <ele>1491</ele>
        <time>2010-06-20T08:11:24Z</time>
      </trkpt>
      <trkpt lat="45.01254" lon="5.59108">
        <ele>1491</ele>
        <time>2010-06-20T08:11:25Z</time>
      </trkpt>
      <trkpt lat="45.01256" lon="5.5911">
        <ele>1491</ele>
        <time>2010-06-20T08:11:26Z</time>
      </trkpt>
      <trkpt lat="45.01258" lon="5.59111">
        <ele>1491</ele>
        <time>2010-06-20T08:11:27Z</time>
      </trkpt>
      <trkpt lat="45.01258" lon="5.59114">
        <ele>1491</ele>
        <time>2010-06-20T08:11:28Z</time>
      </trkpt>
      <trkpt lat="45.0126" lon="5.59115">
        <ele>1491</ele>
        <time>2010-06-20T08:11:29Z</time>
      </trkpt>
      <trkpt lat="45.01261" lon="5.59116">
        <ele>1491</ele>
        <time>2010-06-20T08:11:30Z</time>
      </trkpt>
      <trkpt lat="45.01262" lon="5.59118">
        <ele>1491</ele>
        <time>2010-06-20T08:11:31Z</time>
      </trkpt>
      <trkpt lat="45.01264" lon="5.5912">
        <ele>1491</ele>
        <time>2010-06-20T08:11:33Z</time>
      </trkpt>
      <trkpt lat="45.01264" lon="5.59122">
        <ele>1491</ele>
        <time>2010-06-20T08:11:34Z</time>
      </trkpt>
      <trkpt lat="45.01267" lon="5.59123">
        <ele>1491</ele>
        <time>2010-06-20T08:11:36Z</time>
      </trkpt>
      <trkpt lat="45.01269" lon="5.59124">
        <ele>1492</ele>
        <time>2010-06-20T08:11:37Z</time>
      </trkpt>
      <trkpt lat="45.0127" lon="5.59125">
        <ele>1492</ele>
        <time>2010-06-20T08:11:38Z</time>
      </trkpt>
      <trkpt lat="45.01272" lon="5.59126">
        <ele>1492</ele>
        <time>2010-06-20T08:11:39Z</time>
      </trkpt>
      <trkpt lat="45.01273" lon="5.59126">
        <ele>1492</ele>
        <time>2010-06-20T08:11:40Z</time>
      </trkpt>
      <trkpt lat="45.01275" lon="5.59126">
        <ele>1492</ele>
        <time>2010-06-20T08:11:41Z</time>
      </trkpt>
      <trkpt lat="45.01277" lon="5.59126">
        <ele>1492</ele>
        <time>2010-06-20T08:11:42Z</time>
      </trkpt>
      <trkpt lat="45.01279" lon="5.59126">
        <ele>1492</ele>
        <time>2010-06-20T08:11:43Z</time>
      </trkpt>
      <trkpt lat="45.01281" lon="5.59126">
        <ele>1492</ele>
        <time>2010-06-20T08:11:44Z</time>
      </trkpt>
      <trkpt lat="45.01282" lon="5.59127">
        <ele>1492</ele>
        <time>2010-06-20T08:11:45Z</time>
      </trkpt>
      <trkpt lat="45.01284" lon="5.59127">
        <ele>1492</ele>
        <time>2010-06-20T08:11:46Z</time>
      </trkpt>
      <trkpt lat="45.01285" lon="5.59129">
        <ele>1492</ele>
        <time>2010-06-20T08:11:47Z</time>
      </trkpt>
      <trkpt lat="45.01287" lon="5.59129">
        <ele>1492</ele>
        <time>2010-06-20T08:11:48Z</time>
      </trkpt>
      <trkpt lat="45.01288" lon="5.59128">
        <ele>1492</ele>
        <time>2010-06-20T08:11:49Z</time>
      </trkpt>
      <trkpt lat="45.0129" lon="5.59129">
        <ele>1492</ele>
        <time>2010-06-20T08:11:50Z</time>
      </trkpt>
      <trkpt lat="45.01292" lon="5.59129">
        <ele>1492</ele>
        <time>2010-06-20T08:11:52Z</time>
      </trkpt>
      <trkpt lat="45.01294" lon="5.5913">
        <ele>1492</ele>
        <time>2010-06-20T08:11:53Z</time>
      </trkpt>
      <trkpt lat="45.01295" lon="5.5913">
        <ele>1492</ele>
        <time>2010-06-20T08:11:54Z</time>
      </trkpt>
      <trkpt lat="45.01297" lon="5.59131">
        <ele>1492</ele>
        <time>2010-06-20T08:11:56Z</time>
      </trkpt>
      <trkpt lat="45.01299" lon="5.59131">
        <ele>1492</ele>
        <time>2010-06-20T08:11:58Z</time>
      </trkpt>
      <trkpt lat="45.01301" lon="5.59131">
        <ele>1492</ele>
        <time>2010-06-20T08:11:59Z</time>
      </trkpt>
      <trkpt lat="45.01302" lon="5.59131">
        <ele>1492</ele>
        <time>2010-06-20T08:12:00Z</time>
      </trkpt>
      <trkpt lat="45.01304" lon="5.59132">
        <ele>1492</ele>
        <time>2010-06-20T08:12:02Z</time>
      </trkpt>
      <trkpt lat="45.01305" lon="5.59132">
        <ele>1492</ele>
        <time>2010-06-20T08:12:03Z</time>
      </trkpt>
      <trkpt lat="45.01307" lon="5.59133">
        <ele>1492</ele>
        <time>2010-06-20T08:12:04Z</time>
      </trkpt>
      <trkpt lat="45.01308" lon="5.59133">
        <ele>1492</ele>
        <time>2010-06-20T08:12:05Z</time>
      </trkpt>
      <trkpt lat="45.0131" lon="5.59133">
        <ele>1492</ele>
        <time>2010-06-20T08:12:07Z</time>
      </trkpt>
      <trkpt lat="45.01311" lon="5.59133">
        <ele>1492</ele>
        <time>2010-06-20T08:12:08Z</time>
      </trkpt>
      <trkpt lat="45.01313" lon="5.59133">
        <ele>1492</ele>
        <time>2010-06-20T08:12:09Z</time>
      </trkpt>
      <trkpt lat="45.01315" lon="5.59133">
        <ele>1492</ele>
        <time>2010-06-20T08:12:10Z</time>
      </trkpt>
      <trkpt lat="45.01317" lon="5.59133">
        <ele>1492</ele>
        <time>2010-06-20T08:12:11Z</time>
      </trkpt>
      <trkpt lat="45.01318" lon="5.59134">
        <ele>1492</ele>
        <time>2010-06-20T08:12:12Z</time>
      </trkpt>
      <trkpt lat="45.0132" lon="5.59134">
        <ele>1492</ele>
        <time>2010-06-20T08:12:14Z</time>
      </trkpt>
      <trkpt lat="45.01321" lon="5.59134">
        <ele>1492</ele>
        <time>2010-06-20T08:12:16Z</time>
      </trkpt>
      <trkpt lat="45.01323" lon="5.59134">
        <ele>1493</ele>
        <time>2010-06-20T08:12:18Z</time>
      </trkpt>
      <trkpt lat="45.01325" lon="5.59136">
        <ele>1493</ele>
        <time>2010-06-20T08:12:20Z</time>
      </trkpt>
      <trkpt lat="45.01326" lon="5.59137">
        <ele>1495</ele>
        <time>2010-06-20T08:12:22Z</time>
      </trkpt>
      <trkpt lat="45.01328" lon="5.59136">
        <ele>1496</ele>
        <time>2010-06-20T08:12:23Z</time>
      </trkpt>
      <trkpt lat="45.0133" lon="5.59136">
        <ele>1497</ele>
        <time>2010-06-20T08:12:24Z</time>
      </trkpt>
      <trkpt lat="45.01338" lon="5.59134">
        <ele>1498</ele>
        <time>2010-06-20T08:12:28Z</time>
      </trkpt>
      <trkpt lat="45.01342" lon="5.59133">
        <ele>1499</ele>
        <time>2010-06-20T08:12:29Z</time>
      </trkpt>
      <trkpt lat="45.01343" lon="5.59135">
        <ele>1500</ele>
        <time>2010-06-20T08:12:30Z</time>
      </trkpt>
      <trkpt lat="45.01346" lon="5.59136">
        <ele>1501</ele>
        <time>2010-06-20T08:12:31Z</time>
      </trkpt>
      <trkpt lat="45.01349" lon="5.59135">
        <ele>1502</ele>
        <time>2010-06-20T08:12:32Z</time>
      </trkpt>
      <trkpt lat="45.01351" lon="5.59136">
        <ele>1503</ele>
        <time>2010-06-20T08:12:33Z</time>
      </trkpt>
      <trkpt lat="45.01353" lon="5.59137">
        <ele>1504</ele>
        <time>2010-06-20T08:12:34Z</time>
      </trkpt>
      <trkpt lat="45.01354" lon="5.59138">
        <ele>1505</ele>
        <time>2010-06-20T08:12:35Z</time>
      </trkpt>
      <trkpt lat="45.01356" lon="5.59138">
        <ele>1506</ele>
        <time>2010-06-20T08:12:36Z</time>
      </trkpt>
      <trkpt lat="45.01358" lon="5.59136">
        <ele>1507</ele>
        <time>2010-06-20T08:12:38Z</time>
      </trkpt>
      <trkpt lat="45.0136" lon="5.59136">
        <ele>1508</ele>
        <time>2010-06-20T08:12:39Z</time>
      </trkpt>
      <trkpt lat="45.01363" lon="5.59135">
        <ele>1509</ele>
        <time>2010-06-20T08:12:40Z</time>
      </trkpt>
      <trkpt lat="45.01366" lon="5.59135">
        <ele>1510</ele>
        <time>2010-06-20T08:12:41Z</time>
      </trkpt>
      <trkpt lat="45.01367" lon="5.59135">
        <ele>1510</ele>
        <time>2010-06-20T08:12:42Z</time>
      </trkpt>
      <trkpt lat="45.01369" lon="5.59134">
        <ele>1510</ele>
        <time>2010-06-20T08:12:43Z</time>
      </trkpt>
      <trkpt lat="45.0137" lon="5.59133">
        <ele>1510</ele>
        <time>2010-06-20T08:12:45Z</time>
      </trkpt>
      <trkpt lat="45.01371" lon="5.59133">
        <ele>1510</ele>
        <time>2010-06-20T08:12:46Z</time>
      </trkpt>
      <trkpt lat="45.01373" lon="5.59133">
        <ele>1510</ele>
        <time>2010-06-20T08:12:47Z</time>
      </trkpt>
      <trkpt lat="45.01376" lon="5.59132">
        <ele>1510</ele>
        <time>2010-06-20T08:12:48Z</time>
      </trkpt>
      <trkpt lat="45.01378" lon="5.5913">
        <ele>1510</ele>
        <time>2010-06-20T08:12:49Z</time>
      </trkpt>
      <trkpt lat="45.01379" lon="5.59129">
        <ele>1510</ele>
        <time>2010-06-20T08:12:50Z</time>
      </trkpt>
      <trkpt lat="45.01378" lon="5.59127">
        <ele>1510</ele>
        <time>2010-06-20T08:12:52Z</time>
      </trkpt>
      <trkpt lat="45.01376" lon="5.59127">
        <ele>1510</ele>
        <time>2010-06-20T08:12:54Z</time>
      </trkpt>
      <trkpt lat="45.01375" lon="5.59127">
        <ele>1510</ele>
        <time>2010-06-20T08:12:55Z</time>
      </trkpt>
      <trkpt lat="45.01374" lon="5.59128">
        <ele>1510</ele>
        <time>2010-06-20T08:12:56Z</time>
      </trkpt>
      <trkpt lat="45.01372" lon="5.59128">
        <ele>1510</ele>
        <time>2010-06-20T08:12:57Z</time>
      </trkpt>
      <trkpt lat="45.01371" lon="5.59126">
        <ele>1510</ele>
        <time>2010-06-20T08:12:59Z</time>
      </trkpt>
      <trkpt lat="45.01368" lon="5.59126">
        <ele>1509</ele>
        <time>2010-06-20T08:13:01Z</time>
      </trkpt>
      <trkpt lat="45.01366" lon="5.59126">
        <ele>1508</ele>
        <time>2010-06-20T08:13:02Z</time>
      </trkpt>
      <trkpt lat="45.01364" lon="5.59125">
        <ele>1508</ele>
        <time>2010-06-20T08:13:04Z</time>
      </trkpt>
      <trkpt lat="45.01362" lon="5.59123">
        <ele>1508</ele>
        <time>2010-06-20T08:13:05Z</time>
      </trkpt>
      <trkpt lat="45.0136" lon="5.59122">
        <ele>1508</ele>
        <time>2010-06-20T08:13:06Z</time>
      </trkpt>
      <trkpt lat="45.01359" lon="5.5912">
        <ele>1508</ele>
        <time>2010-06-20T08:13:07Z</time>
      </trkpt>
      <trkpt lat="45.01358" lon="5.59119">
        <ele>1508</ele>
        <time>2010-06-20T08:13:08Z</time>
      </trkpt>
      <trkpt lat="45.01356" lon="5.59118">
        <ele>1508</ele>
        <time>2010-06-20T08:13:09Z</time>
      </trkpt>
      <trkpt lat="45.01353" lon="5.59117">
        <ele>1508</ele>
        <time>2010-06-20T08:13:10Z</time>
      </trkpt>
      <trkpt lat="45.01352" lon="5.59115">
        <ele>1508</ele>
        <time>2010-06-20T08:13:11Z</time>
      </trkpt>
      <trkpt lat="45.0135" lon="5.59113">
        <ele>1508</ele>
        <time>2010-06-20T08:13:12Z</time>
      </trkpt>
      <trkpt lat="45.01348" lon="5.59111">
        <ele>1508</ele>
        <time>2010-06-20T08:13:13Z</time>
      </trkpt>
      <trkpt lat="45.01346" lon="5.59111">
        <ele>1508</ele>
        <time>2010-06-20T08:13:14Z</time>
      </trkpt>
      <trkpt lat="45.01343" lon="5.5911">
        <ele>1508</ele>
        <time>2010-06-20T08:13:15Z</time>
      </trkpt>
      <trkpt lat="45.01342" lon="5.59108">
        <ele>1508</ele>
        <time>2010-06-20T08:13:16Z</time>
      </trkpt>
      <trkpt lat="45.01341" lon="5.59108">
        <ele>1508</ele>
        <time>2010-06-20T08:13:17Z</time>
      </trkpt>
      <trkpt lat="45.01339" lon="5.59106">
        <ele>1508</ele>
        <time>2010-06-20T08:13:18Z</time>
      </trkpt>
      <trkpt lat="45.01337" lon="5.59105">
        <ele>1508</ele>
        <time>2010-06-20T08:13:19Z</time>
      </trkpt>
      <trkpt lat="45.01336" lon="5.59104">
        <ele>1508</ele>
        <time>2010-06-20T08:13:20Z</time>
      </trkpt>
      <trkpt lat="45.01334" lon="5.59103">
        <ele>1508</ele>
        <time>2010-06-20T08:13:21Z</time>
      </trkpt>
      <trkpt lat="45.01332" lon="5.59102">
        <ele>1508</ele>
        <time>2010-06-20T08:13:22Z</time>
      </trkpt>
      <trkpt lat="45.01331" lon="5.591">
        <ele>1508</ele>
        <time>2010-06-20T08:13:23Z</time>
      </trkpt>
      <trkpt lat="45.01329" lon="5.59099">
        <ele>1508</ele>
        <time>2010-06-20T08:13:24Z</time>
      </trkpt>
      <trkpt lat="45.01327" lon="5.59098">
        <ele>1508</ele>
        <time>2010-06-20T08:13:25Z</time>
      </trkpt>
      <trkpt lat="45.01325" lon="5.59097">
        <ele>1508</ele>
        <time>2010-06-20T08:13:26Z</time>
      </trkpt>
      <trkpt lat="45.01323" lon="5.59096">
        <ele>1508</ele>
        <time>2010-06-20T08:13:27Z</time>
      </trkpt>
      <trkpt lat="45.01321" lon="5.59094">
        <ele>1508</ele>
        <time>2010-06-20T08:13:28Z</time>
      </trkpt>
      <trkpt lat="45.0132" lon="5.59093">
        <ele>1508</ele>
        <time>2010-06-20T08:13:29Z</time>
      </trkpt>
      <trkpt lat="45.01318" lon="5.59093">
        <ele>1508</ele>
        <time>2010-06-20T08:13:30Z</time>
      </trkpt>
      <trkpt lat="45.01317" lon="5.59091">
        <ele>1508</ele>
        <time>2010-06-20T08:13:32Z</time>
      </trkpt>
      <trkpt lat="45.01315" lon="5.59091">
        <ele>1508</ele>
        <time>2010-06-20T08:13:33Z</time>
      </trkpt>
      <trkpt lat="45.01314" lon="5.5909">
        <ele>1508</ele>
        <time>2010-06-20T08:13:34Z</time>
      </trkpt>
      <trkpt lat="45.01313" lon="5.59089">
        <ele>1508</ele>
        <time>2010-06-20T08:13:35Z</time>
      </trkpt>
      <trkpt lat="45.01312" lon="5.59087">
        <ele>1508</ele>
        <time>2010-06-20T08:13:36Z</time>
      </trkpt>
      <trkpt lat="45.01311" lon="5.59085">
        <ele>1508</ele>
        <time>2010-06-20T08:13:37Z</time>
      </trkpt>
      <trkpt lat="45.0131" lon="5.59082">
        <ele>1508</ele>
        <time>2010-06-20T08:13:39Z</time>
      </trkpt>
      <trkpt lat="45.01308" lon="5.59079">
        <ele>1508</ele>
        <time>2010-06-20T08:13:41Z</time>
      </trkpt>
      <trkpt lat="45.01306" lon="5.59077">
        <ele>1508</ele>
        <time>2010-06-20T08:13:43Z</time>
      </trkpt>
      <trkpt lat="45.01306" lon="5.59074">
        <ele>1508</ele>
        <time>2010-06-20T08:13:44Z</time>
      </trkpt>
      <trkpt lat="45.01305" lon="5.59072">
        <ele>1508</ele>
        <time>2010-06-20T08:13:46Z</time>
      </trkpt>
      <trkpt lat="45.01305" lon="5.5907">
        <ele>1508</ele>
        <time>2010-06-20T08:13:48Z</time>
      </trkpt>
      <trkpt lat="45.01305" lon="5.59066">
        <ele>1509</ele>
        <time>2010-06-20T08:13:50Z</time>
      </trkpt>
      <trkpt lat="45.01305" lon="5.59064">
        <ele>1509</ele>
        <time>2010-06-20T08:13:51Z</time>
      </trkpt>
      <trkpt lat="45.01305" lon="5.59062">
        <ele>1509</ele>
        <time>2010-06-20T08:13:52Z</time>
      </trkpt>
      <trkpt lat="45.01305" lon="5.5906">
        <ele>1509</ele>
        <time>2010-06-20T08:13:53Z</time>
      </trkpt>
      <trkpt lat="45.01305" lon="5.59058">
        <ele>1510</ele>
        <time>2010-06-20T08:13:54Z</time>
      </trkpt>
      <trkpt lat="45.01303" lon="5.59056">
        <ele>1510</ele>
        <time>2010-06-20T08:13:56Z</time>
      </trkpt>
      <trkpt lat="45.01302" lon="5.59055">
        <ele>1511</ele>
        <time>2010-06-20T08:13:57Z</time>
      </trkpt>
      <trkpt lat="45.013" lon="5.59054">
        <ele>1512</ele>
        <time>2010-06-20T08:13:58Z</time>
      </trkpt>
      <trkpt lat="45.01299" lon="5.59053">
        <ele>1512</ele>
        <time>2010-06-20T08:13:59Z</time>
      </trkpt>
      <trkpt lat="45.01297" lon="5.59051">
        <ele>1513</ele>
        <time>2010-06-20T08:14:00Z</time>
      </trkpt>
      <trkpt lat="45.01295" lon="5.59051">
        <ele>1514</ele>
        <time>2010-06-20T08:14:01Z</time>
      </trkpt>
      <trkpt lat="45.01293" lon="5.5905">
        <ele>1514</ele>
        <time>2010-06-20T08:14:02Z</time>
      </trkpt>
      <trkpt lat="45.01291" lon="5.59048">
        <ele>1515</ele>
        <time>2010-06-20T08:14:03Z</time>
      </trkpt>
      <trkpt lat="45.01289" lon="5.59047">
        <ele>1516</ele>
        <time>2010-06-20T08:14:04Z</time>
      </trkpt>
      <trkpt lat="45.01288" lon="5.59046">
        <ele>1517</ele>
        <time>2010-06-20T08:14:05Z</time>
      </trkpt>
      <trkpt lat="45.01287" lon="5.59044">
        <ele>1517</ele>
        <time>2010-06-20T08:14:06Z</time>
      </trkpt>
      <trkpt lat="45.01285" lon="5.59043">
        <ele>1518</ele>
        <time>2010-06-20T08:14:07Z</time>
      </trkpt>
      <trkpt lat="45.01284" lon="5.5904">
        <ele>1518</ele>
        <time>2010-06-20T08:14:08Z</time>
      </trkpt>
      <trkpt lat="45.01283" lon="5.59037">
        <ele>1519</ele>
        <time>2010-06-20T08:14:09Z</time>
      </trkpt>
      <trkpt lat="45.01281" lon="5.59035">
        <ele>1519</ele>
        <time>2010-06-20T08:14:10Z</time>
      </trkpt>
      <trkpt lat="45.0128" lon="5.59033">
        <ele>1520</ele>
        <time>2010-06-20T08:14:11Z</time>
      </trkpt>
      <trkpt lat="45.01279" lon="5.5903">
        <ele>1521</ele>
        <time>2010-06-20T08:14:12Z</time>
      </trkpt>
      <trkpt lat="45.01279" lon="5.59027">
        <ele>1522</ele>
        <time>2010-06-20T08:14:13Z</time>
      </trkpt>
      <trkpt lat="45.01279" lon="5.59024">
        <ele>1523</ele>
        <time>2010-06-20T08:14:14Z</time>
      </trkpt>
      <trkpt lat="45.01279" lon="5.59022">
        <ele>1524</ele>
        <time>2010-06-20T08:14:15Z</time>
      </trkpt>
      <trkpt lat="45.01278" lon="5.5902">
        <ele>1525</ele>
        <time>2010-06-20T08:14:16Z</time>
      </trkpt>
      <trkpt lat="45.01278" lon="5.59018">
        <ele>1525</ele>
        <time>2010-06-20T08:14:17Z</time>
      </trkpt>
      <trkpt lat="45.01276" lon="5.59016">
        <ele>1525</ele>
        <time>2010-06-20T08:14:19Z</time>
      </trkpt>
      <trkpt lat="45.01275" lon="5.59015">
        <ele>1525</ele>
        <time>2010-06-20T08:14:20Z</time>
      </trkpt>
      <trkpt lat="45.01274" lon="5.59012">
        <ele>1525</ele>
        <time>2010-06-20T08:14:21Z</time>
      </trkpt>
      <trkpt lat="45.01274" lon="5.59011">
        <ele>1525</ele>
        <time>2010-06-20T08:14:22Z</time>
      </trkpt>
      <trkpt lat="45.01272" lon="5.59008">
        <ele>1525</ele>
        <time>2010-06-20T08:14:24Z</time>
      </trkpt>
      <trkpt lat="45.01272" lon="5.59007">
        <ele>1525</ele>
        <time>2010-06-20T08:14:25Z</time>
      </trkpt>
      <trkpt lat="45.01272" lon="5.59005">
        <ele>1526</ele>
        <time>2010-06-20T08:14:26Z</time>
      </trkpt>
      <trkpt lat="45.01272" lon="5.59003">
        <ele>1526</ele>
        <time>2010-06-20T08:14:27Z</time>
      </trkpt>
      <trkpt lat="45.01272" lon="5.59">
        <ele>1527</ele>
        <time>2010-06-20T08:14:28Z</time>
      </trkpt>
      <trkpt lat="45.01271" lon="5.58999">
        <ele>1527</ele>
        <time>2010-06-20T08:14:29Z</time>
      </trkpt>
      <trkpt lat="45.01271" lon="5.58996">
        <ele>1527</ele>
        <time>2010-06-20T08:14:30Z</time>
      </trkpt>
      <trkpt lat="45.01271" lon="5.58994">
        <ele>1527</ele>
        <time>2010-06-20T08:14:31Z</time>
      </trkpt>
      <trkpt lat="45.0127" lon="5.58991">
        <ele>1527</ele>
        <time>2010-06-20T08:14:32Z</time>
      </trkpt>
      <trkpt lat="45.0127" lon="5.58988">
        <ele>1527</ele>
        <time>2010-06-20T08:14:33Z</time>
      </trkpt>
      <trkpt lat="45.0127" lon="5.58986">
        <ele>1527</ele>
        <time>2010-06-20T08:14:34Z</time>
      </trkpt>
      <trkpt lat="45.0127" lon="5.58983">
        <ele>1527</ele>
        <time>2010-06-20T08:14:35Z</time>
      </trkpt>
      <trkpt lat="45.01271" lon="5.5898">
        <ele>1527</ele>
        <time>2010-06-20T08:14:36Z</time>
      </trkpt>
      <trkpt lat="45.01271" lon="5.58978">
        <ele>1527</ele>
        <time>2010-06-20T08:14:37Z</time>
      </trkpt>
      <trkpt lat="45.0127" lon="5.58975">
        <ele>1527</ele>
        <time>2010-06-20T08:14:38Z</time>
      </trkpt>
      <trkpt lat="45.01271" lon="5.58973">
        <ele>1528</ele>
        <time>2010-06-20T08:14:40Z</time>
      </trkpt>
      <trkpt lat="45.01271" lon="5.58971">
        <ele>1528</ele>
        <time>2010-06-20T08:14:41Z</time>
      </trkpt>
      <trkpt lat="45.0127" lon="5.58968">
        <ele>1529</ele>
        <time>2010-06-20T08:14:42Z</time>
      </trkpt>
      <trkpt lat="45.0127" lon="5.58966">
        <ele>1530</ele>
        <time>2010-06-20T08:14:43Z</time>
      </trkpt>
      <trkpt lat="45.01269" lon="5.58964">
        <ele>1530</ele>
        <time>2010-06-20T08:14:44Z</time>
      </trkpt>
      <trkpt lat="45.01271" lon="5.58963">
        <ele>1532</ele>
        <time>2010-06-20T08:14:48Z</time>
      </trkpt>
      <trkpt lat="45.01272" lon="5.58964">
        <ele>1532</ele>
        <time>2010-06-20T08:14:49Z</time>
      </trkpt>
      <trkpt lat="45.01273" lon="5.58965">
        <ele>1532</ele>
        <time>2010-06-20T08:14:50Z</time>
      </trkpt>
      <trkpt lat="45.01274" lon="5.58966">
        <ele>1532</ele>
        <time>2010-06-20T08:14:51Z</time>
      </trkpt>
      <trkpt lat="45.01275" lon="5.58967">
        <ele>1532</ele>
        <time>2010-06-20T08:14:52Z</time>
      </trkpt>
      <trkpt lat="45.01277" lon="5.58968">
        <ele>1532</ele>
        <time>2010-06-20T08:14:53Z</time>
      </trkpt>
      <trkpt lat="45.01277" lon="5.5897">
        <ele>1532</ele>
        <time>2010-06-20T08:14:54Z</time>
      </trkpt>
      <trkpt lat="45.01277" lon="5.58971">
        <ele>1532</ele>
        <time>2010-06-20T08:14:55Z</time>
      </trkpt>
      <trkpt lat="45.01279" lon="5.58974">
        <ele>1532</ele>
        <time>2010-06-20T08:14:57Z</time>
      </trkpt>
      <trkpt lat="45.0128" lon="5.58977">
        <ele>1532</ele>
        <time>2010-06-20T08:14:58Z</time>
      </trkpt>
      <trkpt lat="45.01282" lon="5.58979">
        <ele>1532</ele>
        <time>2010-06-20T08:15:00Z</time>
      </trkpt>
      <trkpt lat="45.01283" lon="5.58982">
        <ele>1532</ele>
        <time>2010-06-20T08:15:02Z</time>
      </trkpt>
      <trkpt lat="45.01285" lon="5.58983">
        <ele>1533</ele>
        <time>2010-06-20T08:15:03Z</time>
      </trkpt>
      <trkpt lat="45.01286" lon="5.58985">
        <ele>1534</ele>
        <time>2010-06-20T08:15:04Z</time>
      </trkpt>
      <trkpt lat="45.01288" lon="5.58987">
        <ele>1534</ele>
        <time>2010-06-20T08:15:05Z</time>
      </trkpt>
      <trkpt lat="45.0129" lon="5.58989">
        <ele>1535</ele>
        <time>2010-06-20T08:15:06Z</time>
      </trkpt>
      <trkpt lat="45.01291" lon="5.5899">
        <ele>1535</ele>
        <time>2010-06-20T08:15:07Z</time>
      </trkpt>
      <trkpt lat="45.01294" lon="5.5899">
        <ele>1536</ele>
        <time>2010-06-20T08:15:08Z</time>
      </trkpt>
      <trkpt lat="45.01296" lon="5.5899">
        <ele>1536</ele>
        <time>2010-06-20T08:15:09Z</time>
      </trkpt>
      <trkpt lat="45.01299" lon="5.58989">
        <ele>1536</ele>
        <time>2010-06-20T08:15:10Z</time>
      </trkpt>
      <trkpt lat="45.01301" lon="5.58989">
        <ele>1537</ele>
        <time>2010-06-20T08:15:11Z</time>
      </trkpt>
      <trkpt lat="45.01303" lon="5.58989">
        <ele>1537</ele>
        <time>2010-06-20T08:15:12Z</time>
      </trkpt>
      <trkpt lat="45.01306" lon="5.58988">
        <ele>1537</ele>
        <time>2010-06-20T08:15:13Z</time>
      </trkpt>
      <trkpt lat="45.01308" lon="5.58987">
        <ele>1537</ele>
        <time>2010-06-20T08:15:14Z</time>
      </trkpt>
      <trkpt lat="45.0131" lon="5.58987">
        <ele>1537</ele>
        <time>2010-06-20T08:15:15Z</time>
      </trkpt>
      <trkpt lat="45.01312" lon="5.58987">
        <ele>1537</ele>
        <time>2010-06-20T08:15:16Z</time>
      </trkpt>
      <trkpt lat="45.01315" lon="5.58986">
        <ele>1537</ele>
        <time>2010-06-20T08:15:17Z</time>
      </trkpt>
      <trkpt lat="45.01317" lon="5.58986">
        <ele>1538</ele>
        <time>2010-06-20T08:15:18Z</time>
      </trkpt>
      <trkpt lat="45.01319" lon="5.58987">
        <ele>1538</ele>
        <time>2010-06-20T08:15:19Z</time>
      </trkpt>
      <trkpt lat="45.01321" lon="5.58987">
        <ele>1539</ele>
        <time>2010-06-20T08:15:20Z</time>
      </trkpt>
      <trkpt lat="45.01323" lon="5.58988">
        <ele>1540</ele>
        <time>2010-06-20T08:15:21Z</time>
      </trkpt>
      <trkpt lat="45.01325" lon="5.58989">
        <ele>1540</ele>
        <time>2010-06-20T08:15:22Z</time>
      </trkpt>
      <trkpt lat="45.01326" lon="5.58991">
        <ele>1541</ele>
        <time>2010-06-20T08:15:23Z</time>
      </trkpt>
      <trkpt lat="45.01328" lon="5.58992">
        <ele>1542</ele>
        <time>2010-06-20T08:15:24Z</time>
      </trkpt>
      <trkpt lat="45.0133" lon="5.58994">
        <ele>1542</ele>
        <time>2010-06-20T08:15:25Z</time>
      </trkpt>
      <trkpt lat="45.01332" lon="5.58995">
        <ele>1543</ele>
        <time>2010-06-20T08:15:26Z</time>
      </trkpt>
      <trkpt lat="45.01334" lon="5.58997">
        <ele>1543</ele>
        <time>2010-06-20T08:15:27Z</time>
      </trkpt>
      <trkpt lat="45.01336" lon="5.58998">
        <ele>1544</ele>
        <time>2010-06-20T08:15:28Z</time>
      </trkpt>
      <trkpt lat="45.01338" lon="5.58999">
        <ele>1544</ele>
        <time>2010-06-20T08:15:29Z</time>
      </trkpt>
      <trkpt lat="45.01339" lon="5.59">
        <ele>1544</ele>
        <time>2010-06-20T08:15:30Z</time>
      </trkpt>
      <trkpt lat="45.01339" lon="5.59003">
        <ele>1544</ele>
        <time>2010-06-20T08:15:31Z</time>
      </trkpt>
      <trkpt lat="45.01339" lon="5.59005">
        <ele>1544</ele>
        <time>2010-06-20T08:15:32Z</time>
      </trkpt>
      <trkpt lat="45.0134" lon="5.59007">
        <ele>1544</ele>
        <time>2010-06-20T08:15:33Z</time>
      </trkpt>
      <trkpt lat="45.0134" lon="5.59009">
        <ele>1544</ele>
        <time>2010-06-20T08:15:34Z</time>
      </trkpt>
      <trkpt lat="45.0134" lon="5.59012">
        <ele>1544</ele>
        <time>2010-06-20T08:15:35Z</time>
      </trkpt>
      <trkpt lat="45.01342" lon="5.59014">
        <ele>1544</ele>
        <time>2010-06-20T08:15:36Z</time>
      </trkpt>
      <trkpt lat="45.01343" lon="5.59016">
        <ele>1544</ele>
        <time>2010-06-20T08:15:37Z</time>
      </trkpt>
      <trkpt lat="45.01342" lon="5.59018">
        <ele>1544</ele>
        <time>2010-06-20T08:15:38Z</time>
      </trkpt>
      <trkpt lat="45.01342" lon="5.5902">
        <ele>1544</ele>
        <time>2010-06-20T08:15:39Z</time>
      </trkpt>
      <trkpt lat="45.01344" lon="5.59023">
        <ele>1544</ele>
        <time>2010-06-20T08:15:41Z</time>
      </trkpt>
      <trkpt lat="45.01345" lon="5.59024">
        <ele>1544</ele>
        <time>2010-06-20T08:15:42Z</time>
      </trkpt>
      <trkpt lat="45.01346" lon="5.59025">
        <ele>1544</ele>
        <time>2010-06-20T08:15:44Z</time>
      </trkpt>
      <trkpt lat="45.01349" lon="5.59026">
        <ele>1544</ele>
        <time>2010-06-20T08:15:48Z</time>
      </trkpt>
      <trkpt lat="45.01351" lon="5.59026">
        <ele>1544</ele>
        <time>2010-06-20T08:15:50Z</time>
      </trkpt>
      <trkpt lat="45.01352" lon="5.59028">
        <ele>1544</ele>
        <time>2010-06-20T08:15:51Z</time>
      </trkpt>
      <trkpt lat="45.01353" lon="5.59028">
        <ele>1544</ele>
        <time>2010-06-20T08:15:52Z</time>
      </trkpt>
      <trkpt lat="45.01354" lon="5.59028">
        <ele>1544</ele>
        <time>2010-06-20T08:15:53Z</time>
      </trkpt>
      <trkpt lat="45.01356" lon="5.59027">
        <ele>1544</ele>
        <time>2010-06-20T08:15:54Z</time>
      </trkpt>
      <trkpt lat="45.01358" lon="5.59027">
        <ele>1544</ele>
        <time>2010-06-20T08:15:55Z</time>
      </trkpt>
      <trkpt lat="45.0136" lon="5.59026">
        <ele>1544</ele>
        <time>2010-06-20T08:15:56Z</time>
      </trkpt>
      <trkpt lat="45.01362" lon="5.59026">
        <ele>1544</ele>
        <time>2010-06-20T08:15:57Z</time>
      </trkpt>
      <trkpt lat="45.01363" lon="5.59028">
        <ele>1544</ele>
        <time>2010-06-20T08:15:58Z</time>
      </trkpt>
      <trkpt lat="45.01366" lon="5.59028">
        <ele>1545</ele>
        <time>2010-06-20T08:16:00Z</time>
      </trkpt>
      <trkpt lat="45.01368" lon="5.59027">
        <ele>1546</ele>
        <time>2010-06-20T08:16:01Z</time>
      </trkpt>
      <trkpt lat="45.01369" lon="5.59026">
        <ele>1547</ele>
        <time>2010-06-20T08:16:02Z</time>
      </trkpt>
      <trkpt lat="45.01371" lon="5.59025">
        <ele>1548</ele>
        <time>2010-06-20T08:16:03Z</time>
      </trkpt>
      <trkpt lat="45.01372" lon="5.59026">
        <ele>1548</ele>
        <time>2010-06-20T08:16:04Z</time>
      </trkpt>
      <trkpt lat="45.01374" lon="5.59026">
        <ele>1549</ele>
        <time>2010-06-20T08:16:06Z</time>
      </trkpt>
      <trkpt lat="45.01375" lon="5.59028">
        <ele>1549</ele>
        <time>2010-06-20T08:16:07Z</time>
      </trkpt>
      <trkpt lat="45.01377" lon="5.59028">
        <ele>1551</ele>
        <time>2010-06-20T08:16:09Z</time>
      </trkpt>
      <trkpt lat="45.01379" lon="5.59028">
        <ele>1552</ele>
        <time>2010-06-20T08:16:10Z</time>
      </trkpt>
      <trkpt lat="45.01381" lon="5.59027">
        <ele>1552</ele>
        <time>2010-06-20T08:16:11Z</time>
      </trkpt>
      <trkpt lat="45.01383" lon="5.59026">
        <ele>1553</ele>
        <time>2010-06-20T08:16:12Z</time>
      </trkpt>
      <trkpt lat="45.01383" lon="5.59024">
        <ele>1554</ele>
        <time>2010-06-20T08:16:15Z</time>
      </trkpt>
      <trkpt lat="45.01381" lon="5.59023">
        <ele>1555</ele>
        <time>2010-06-20T08:16:17Z</time>
      </trkpt>
      <trkpt lat="45.01379" lon="5.59022">
        <ele>1555</ele>
        <time>2010-06-20T08:16:19Z</time>
      </trkpt>
      <trkpt lat="45.01378" lon="5.59021">
        <ele>1555</ele>
        <time>2010-06-20T08:16:20Z</time>
      </trkpt>
      <trkpt lat="45.01376" lon="5.59021">
        <ele>1555</ele>
        <time>2010-06-20T08:16:21Z</time>
      </trkpt>
      <trkpt lat="45.01375" lon="5.5902">
        <ele>1555</ele>
        <time>2010-06-20T08:16:23Z</time>
      </trkpt>
      <trkpt lat="45.01375" lon="5.59018">
        <ele>1555</ele>
        <time>2010-06-20T08:16:25Z</time>
      </trkpt>
      <trkpt lat="45.01374" lon="5.59017">
        <ele>1555</ele>
        <time>2010-06-20T08:16:26Z</time>
      </trkpt>
      <trkpt lat="45.01372" lon="5.59017">
        <ele>1555</ele>
        <time>2010-06-20T08:16:27Z</time>
      </trkpt>
      <trkpt lat="45.01371" lon="5.59017">
        <ele>1555</ele>
        <time>2010-06-20T08:16:28Z</time>
      </trkpt>
      <trkpt lat="45.01369" lon="5.59016">
        <ele>1555</ele>
        <time>2010-06-20T08:16:29Z</time>
      </trkpt>
      <trkpt lat="45.01368" lon="5.59016">
        <ele>1555</ele>
        <time>2010-06-20T08:16:30Z</time>
      </trkpt>
      <trkpt lat="45.01367" lon="5.59014">
        <ele>1555</ele>
        <time>2010-06-20T08:16:32Z</time>
      </trkpt>
      <trkpt lat="45.01366" lon="5.59012">
        <ele>1555</ele>
        <time>2010-06-20T08:16:33Z</time>
      </trkpt>
      <trkpt lat="45.01364" lon="5.59009">
        <ele>1555</ele>
        <time>2010-06-20T08:16:35Z</time>
      </trkpt>
      <trkpt lat="45.01363" lon="5.59008">
        <ele>1555</ele>
        <time>2010-06-20T08:16:36Z</time>
      </trkpt>
      <trkpt lat="45.01362" lon="5.59005">
        <ele>1555</ele>
        <time>2010-06-20T08:16:38Z</time>
      </trkpt>
      <trkpt lat="45.01361" lon="5.59003">
        <ele>1555</ele>
        <time>2010-06-20T08:16:39Z</time>
      </trkpt>
      <trkpt lat="45.0136" lon="5.59001">
        <ele>1555</ele>
        <time>2010-06-20T08:16:40Z</time>
      </trkpt>
      <trkpt lat="45.0136" lon="5.58999">
        <ele>1555</ele>
        <time>2010-06-20T08:16:41Z</time>
      </trkpt>
      <trkpt lat="45.01359" lon="5.58997">
        <ele>1555</ele>
        <time>2010-06-20T08:16:42Z</time>
      </trkpt>
      <trkpt lat="45.01359" lon="5.58994">
        <ele>1555</ele>
        <time>2010-06-20T08:16:43Z</time>
      </trkpt>
      <trkpt lat="45.01359" lon="5.58991">
        <ele>1555</ele>
        <time>2010-06-20T08:16:44Z</time>
      </trkpt>
      <trkpt lat="45.01358" lon="5.58989">
        <ele>1555</ele>
        <time>2010-06-20T08:16:45Z</time>
      </trkpt>
      <trkpt lat="45.01358" lon="5.58986">
        <ele>1555</ele>
        <time>2010-06-20T08:16:46Z</time>
      </trkpt>
      <trkpt lat="45.01358" lon="5.58984">
        <ele>1555</ele>
        <time>2010-06-20T08:16:47Z</time>
      </trkpt>
      <trkpt lat="45.01358" lon="5.58982">
        <ele>1555</ele>
        <time>2010-06-20T08:16:48Z</time>
      </trkpt>
      <trkpt lat="45.01358" lon="5.5898">
        <ele>1555</ele>
        <time>2010-06-20T08:16:49Z</time>
      </trkpt>
      <trkpt lat="45.01358" lon="5.58977">
        <ele>1555</ele>
        <time>2010-06-20T08:16:50Z</time>
      </trkpt>
      <trkpt lat="45.01358" lon="5.58975">
        <ele>1555</ele>
        <time>2010-06-20T08:16:51Z</time>
      </trkpt>
      <trkpt lat="45.01358" lon="5.58972">
        <ele>1555</ele>
        <time>2010-06-20T08:16:52Z</time>
      </trkpt>
      <trkpt lat="45.01358" lon="5.58969">
        <ele>1555</ele>
        <time>2010-06-20T08:16:53Z</time>
      </trkpt>
      <trkpt lat="45.01357" lon="5.58967">
        <ele>1555</ele>
        <time>2010-06-20T08:16:54Z</time>
      </trkpt>
      <trkpt lat="45.01357" lon="5.58965">
        <ele>1555</ele>
        <time>2010-06-20T08:16:55Z</time>
      </trkpt>
      <trkpt lat="45.01357" lon="5.58963">
        <ele>1555</ele>
        <time>2010-06-20T08:16:56Z</time>
      </trkpt>
      <trkpt lat="45.01356" lon="5.58961">
        <ele>1555</ele>
        <time>2010-06-20T08:16:57Z</time>
      </trkpt>
      <trkpt lat="45.01356" lon="5.58959">
        <ele>1555</ele>
        <time>2010-06-20T08:16:58Z</time>
      </trkpt>
      <trkpt lat="45.01356" lon="5.58957">
        <ele>1555</ele>
        <time>2010-06-20T08:16:59Z</time>
      </trkpt>
      <trkpt lat="45.01355" lon="5.58955">
        <ele>1555</ele>
        <time>2010-06-20T08:17:00Z</time>
      </trkpt>
      <trkpt lat="45.01354" lon="5.58953">
        <ele>1555</ele>
        <time>2010-06-20T08:17:01Z</time>
      </trkpt>
      <trkpt lat="45.01353" lon="5.58951">
        <ele>1555</ele>
        <time>2010-06-20T08:17:02Z</time>
      </trkpt>
      <trkpt lat="45.01353" lon="5.58948">
        <ele>1555</ele>
        <time>2010-06-20T08:17:04Z</time>
      </trkpt>
      <trkpt lat="45.01352" lon="5.58946">
        <ele>1555</ele>
        <time>2010-06-20T08:17:05Z</time>
      </trkpt>
      <trkpt lat="45.01353" lon="5.58944">
        <ele>1555</ele>
        <time>2010-06-20T08:17:07Z</time>
      </trkpt>
      <trkpt lat="45.01352" lon="5.58941">
        <ele>1555</ele>
        <time>2010-06-20T08:17:09Z</time>
      </trkpt>
      <trkpt lat="45.01351" lon="5.58939">
        <ele>1555</ele>
        <time>2010-06-20T08:17:10Z</time>
      </trkpt>
      <trkpt lat="45.0135" lon="5.58938">
        <ele>1555</ele>
        <time>2010-06-20T08:17:11Z</time>
      </trkpt>
      <trkpt lat="45.0135" lon="5.58936">
        <ele>1555</ele>
        <time>2010-06-20T08:17:12Z</time>
      </trkpt>
      <trkpt lat="45.01349" lon="5.58934">
        <ele>1556</ele>
        <time>2010-06-20T08:17:13Z</time>
      </trkpt>
      <trkpt lat="45.01348" lon="5.58933">
        <ele>1556</ele>
        <time>2010-06-20T08:17:14Z</time>
      </trkpt>
      <trkpt lat="45.01347" lon="5.5893">
        <ele>1556</ele>
        <time>2010-06-20T08:17:16Z</time>
      </trkpt>
      <trkpt lat="45.01346" lon="5.58928">
        <ele>1556</ele>
        <time>2010-06-20T08:17:18Z</time>
      </trkpt>
      <trkpt lat="45.01344" lon="5.58925">
        <ele>1556</ele>
        <time>2010-06-20T08:17:20Z</time>
      </trkpt>
      <trkpt lat="45.01343" lon="5.58924">
        <ele>1556</ele>
        <time>2010-06-20T08:17:21Z</time>
      </trkpt>
      <trkpt lat="45.01341" lon="5.58922">
        <ele>1557</ele>
        <time>2010-06-20T08:17:23Z</time>
      </trkpt>
      <trkpt lat="45.01341" lon="5.5892">
        <ele>1558</ele>
        <time>2010-06-20T08:17:24Z</time>
      </trkpt>
      <trkpt lat="45.01339" lon="5.58918">
        <ele>1559</ele>
        <time>2010-06-20T08:17:26Z</time>
      </trkpt>
      <trkpt lat="45.01337" lon="5.58917">
        <ele>1559</ele>
        <time>2010-06-20T08:17:27Z</time>
      </trkpt>
      <trkpt lat="45.01336" lon="5.58915">
        <ele>1560</ele>
        <time>2010-06-20T08:17:28Z</time>
      </trkpt>
      <trkpt lat="45.01334" lon="5.58914">
        <ele>1561</ele>
        <time>2010-06-20T08:17:29Z</time>
      </trkpt>
      <trkpt lat="45.01333" lon="5.58912">
        <ele>1561</ele>
        <time>2010-06-20T08:17:30Z</time>
      </trkpt>
      <trkpt lat="45.01332" lon="5.5891">
        <ele>1562</ele>
        <time>2010-06-20T08:17:31Z</time>
      </trkpt>
      <trkpt lat="45.01331" lon="5.58908">
        <ele>1563</ele>
        <time>2010-06-20T08:17:32Z</time>
      </trkpt>
      <trkpt lat="45.0133" lon="5.58906">
        <ele>1563</ele>
        <time>2010-06-20T08:17:33Z</time>
      </trkpt>
      <trkpt lat="45.01329" lon="5.58904">
        <ele>1563</ele>
        <time>2010-06-20T08:17:34Z</time>
      </trkpt>
      <trkpt lat="45.01327" lon="5.58902">
        <ele>1564</ele>
        <time>2010-06-20T08:17:36Z</time>
      </trkpt>
      <trkpt lat="45.01325" lon="5.58901">
        <ele>1564</ele>
        <time>2010-06-20T08:17:37Z</time>
      </trkpt>
      <trkpt lat="45.01324" lon="5.589">
        <ele>1564</ele>
        <time>2010-06-20T08:17:38Z</time>
      </trkpt>
      <trkpt lat="45.01322" lon="5.58898">
        <ele>1564</ele>
        <time>2010-06-20T08:17:40Z</time>
      </trkpt>
      <trkpt lat="45.01321" lon="5.58895">
        <ele>1565</ele>
        <time>2010-06-20T08:17:42Z</time>
      </trkpt>
      <trkpt lat="45.01321" lon="5.58892">
        <ele>1565</ele>
        <time>2010-06-20T08:17:44Z</time>
      </trkpt>
      <trkpt lat="45.01321" lon="5.5889">
        <ele>1566</ele>
        <time>2010-06-20T08:17:45Z</time>
      </trkpt>
      <trkpt lat="45.0132" lon="5.58888">
        <ele>1566</ele>
        <time>2010-06-20T08:17:46Z</time>
      </trkpt>
      <trkpt lat="45.0132" lon="5.58886">
        <ele>1566</ele>
        <time>2010-06-20T08:17:48Z</time>
      </trkpt>
      <trkpt lat="45.01319" lon="5.58883">
        <ele>1567</ele>
        <time>2010-06-20T08:17:50Z</time>
      </trkpt>
      <trkpt lat="45.01319" lon="5.58882">
        <ele>1567</ele>
        <time>2010-06-20T08:17:51Z</time>
      </trkpt>
      <trkpt lat="45.01319" lon="5.5888">
        <ele>1568</ele>
        <time>2010-06-20T08:17:52Z</time>
      </trkpt>
      <trkpt lat="45.01318" lon="5.58878">
        <ele>1568</ele>
        <time>2010-06-20T08:17:53Z</time>
      </trkpt>
      <trkpt lat="45.01316" lon="5.58876">
        <ele>1568</ele>
        <time>2010-06-20T08:17:55Z</time>
      </trkpt>
      <trkpt lat="45.01315" lon="5.58875">
        <ele>1569</ele>
        <time>2010-06-20T08:17:56Z</time>
      </trkpt>
      <trkpt lat="45.01313" lon="5.58874">
        <ele>1569</ele>
        <time>2010-06-20T08:17:57Z</time>
      </trkpt>
      <trkpt lat="45.01312" lon="5.58872">
        <ele>1569</ele>
        <time>2010-06-20T08:17:58Z</time>
      </trkpt>
      <trkpt lat="45.0131" lon="5.58871">
        <ele>1570</ele>
        <time>2010-06-20T08:17:59Z</time>
      </trkpt>
      <trkpt lat="45.01309" lon="5.58869">
        <ele>1570</ele>
        <time>2010-06-20T08:18:00Z</time>
      </trkpt>
      <trkpt lat="45.01307" lon="5.58868">
        <ele>1570</ele>
        <time>2010-06-20T08:18:01Z</time>
      </trkpt>
      <trkpt lat="45.01306" lon="5.58866">
        <ele>1571</ele>
        <time>2010-06-20T08:18:02Z</time>
      </trkpt>
      <trkpt lat="45.01304" lon="5.58865">
        <ele>1571</ele>
        <time>2010-06-20T08:18:03Z</time>
      </trkpt>
      <trkpt lat="45.01303" lon="5.58863">
        <ele>1571</ele>
        <time>2010-06-20T08:18:04Z</time>
      </trkpt>
      <trkpt lat="45.01302" lon="5.58862">
        <ele>1571</ele>
        <time>2010-06-20T08:18:05Z</time>
      </trkpt>
      <trkpt lat="45.013" lon="5.5886">
        <ele>1572</ele>
        <time>2010-06-20T08:18:06Z</time>
      </trkpt>
      <trkpt lat="45.01299" lon="5.58858">
        <ele>1572</ele>
        <time>2010-06-20T08:18:07Z</time>
      </trkpt>
      <trkpt lat="45.01298" lon="5.58857">
        <ele>1572</ele>
        <time>2010-06-20T08:18:08Z</time>
      </trkpt>
      <trkpt lat="45.01297" lon="5.58856">
        <ele>1572</ele>
        <time>2010-06-20T08:18:09Z</time>
      </trkpt>
      <trkpt lat="45.01296" lon="5.58855">
        <ele>1572</ele>
        <time>2010-06-20T08:18:10Z</time>
      </trkpt>
      <trkpt lat="45.01295" lon="5.58853">
        <ele>1572</ele>
        <time>2010-06-20T08:18:11Z</time>
      </trkpt>
      <trkpt lat="45.01294" lon="5.5885">
        <ele>1573</ele>
        <time>2010-06-20T08:18:12Z</time>
      </trkpt>
      <trkpt lat="45.01293" lon="5.58848">
        <ele>1573</ele>
        <time>2010-06-20T08:18:13Z</time>
      </trkpt>
      <trkpt lat="45.01293" lon="5.58846">
        <ele>1574</ele>
        <time>2010-06-20T08:18:14Z</time>
      </trkpt>
      <trkpt lat="45.01292" lon="5.58845">
        <ele>1574</ele>
        <time>2010-06-20T08:18:15Z</time>
      </trkpt>
      <trkpt lat="45.01292" lon="5.58843">
        <ele>1575</ele>
        <time>2010-06-20T08:18:16Z</time>
      </trkpt>
      <trkpt lat="45.01291" lon="5.58841">
        <ele>1575</ele>
        <time>2010-06-20T08:18:18Z</time>
      </trkpt>
      <trkpt lat="45.0129" lon="5.58839">
        <ele>1576</ele>
        <time>2010-06-20T08:18:19Z</time>
      </trkpt>
      <trkpt lat="45.0129" lon="5.58837">
        <ele>1576</ele>
        <time>2010-06-20T08:18:20Z</time>
      </trkpt>
      <trkpt lat="45.01288" lon="5.58835">
        <ele>1577</ele>
        <time>2010-06-20T08:18:22Z</time>
      </trkpt>
      <trkpt lat="45.01287" lon="5.58832">
        <ele>1578</ele>
        <time>2010-06-20T08:18:24Z</time>
      </trkpt>
      <trkpt lat="45.01285" lon="5.5883">
        <ele>1578</ele>
        <time>2010-06-20T08:18:26Z</time>
      </trkpt>
      <trkpt lat="45.01285" lon="5.58828">
        <ele>1579</ele>
        <time>2010-06-20T08:18:27Z</time>
      </trkpt>
      <trkpt lat="45.01286" lon="5.58827">
        <ele>1579</ele>
        <time>2010-06-20T08:18:29Z</time>
      </trkpt>
      <trkpt lat="45.01288" lon="5.58828">
        <ele>1579</ele>
        <time>2010-06-20T08:18:31Z</time>
      </trkpt>
      <trkpt lat="45.01289" lon="5.5883">
        <ele>1579</ele>
        <time>2010-06-20T08:18:32Z</time>
      </trkpt>
      <trkpt lat="45.0129" lon="5.58832">
        <ele>1579</ele>
        <time>2010-06-20T08:18:33Z</time>
      </trkpt>
      <trkpt lat="45.01292" lon="5.58835">
        <ele>1579</ele>
        <time>2010-06-20T08:18:34Z</time>
      </trkpt>
      <trkpt lat="45.01294" lon="5.58837">
        <ele>1580</ele>
        <time>2010-06-20T08:18:35Z</time>
      </trkpt>
      <trkpt lat="45.01296" lon="5.58839">
        <ele>1580</ele>
        <time>2010-06-20T08:18:36Z</time>
      </trkpt>
      <trkpt lat="45.01297" lon="5.58841">
        <ele>1581</ele>
        <time>2010-06-20T08:18:37Z</time>
      </trkpt>
      <trkpt lat="45.01299" lon="5.58843">
        <ele>1581</ele>
        <time>2010-06-20T08:18:38Z</time>
      </trkpt>
      <trkpt lat="45.01301" lon="5.58844">
        <ele>1582</ele>
        <time>2010-06-20T08:18:39Z</time>
      </trkpt>
      <trkpt lat="45.01303" lon="5.58847">
        <ele>1582</ele>
        <time>2010-06-20T08:18:40Z</time>
      </trkpt>
      <trkpt lat="45.01304" lon="5.58849">
        <ele>1583</ele>
        <time>2010-06-20T08:18:41Z</time>
      </trkpt>
      <trkpt lat="45.01306" lon="5.58851">
        <ele>1584</ele>
        <time>2010-06-20T08:18:42Z</time>
      </trkpt>
      <trkpt lat="45.01308" lon="5.58853">
        <ele>1584</ele>
        <time>2010-06-20T08:18:43Z</time>
      </trkpt>
      <trkpt lat="45.01309" lon="5.58855">
        <ele>1584</ele>
        <time>2010-06-20T08:18:44Z</time>
      </trkpt>
      <trkpt lat="45.01312" lon="5.58856">
        <ele>1584</ele>
        <time>2010-06-20T08:18:45Z</time>
      </trkpt>
      <trkpt lat="45.01313" lon="5.58857">
        <ele>1584</ele>
        <time>2010-06-20T08:18:46Z</time>
      </trkpt>
      <trkpt lat="45.01315" lon="5.58858">
        <ele>1584</ele>
        <time>2010-06-20T08:18:47Z</time>
      </trkpt>
      <trkpt lat="45.01316" lon="5.58859">
        <ele>1584</ele>
        <time>2010-06-20T08:18:48Z</time>
      </trkpt>
      <trkpt lat="45.01318" lon="5.5886">
        <ele>1584</ele>
        <time>2010-06-20T08:18:49Z</time>
      </trkpt>
      <trkpt lat="45.0132" lon="5.58861">
        <ele>1584</ele>
        <time>2010-06-20T08:18:50Z</time>
      </trkpt>
      <trkpt lat="45.01322" lon="5.58862">
        <ele>1584</ele>
        <time>2010-06-20T08:18:51Z</time>
      </trkpt>
      <trkpt lat="45.01324" lon="5.58864">
        <ele>1584</ele>
        <time>2010-06-20T08:18:52Z</time>
      </trkpt>
      <trkpt lat="45.01325" lon="5.58867">
        <ele>1584</ele>
        <time>2010-06-20T08:18:53Z</time>
      </trkpt>
      <trkpt lat="45.01327" lon="5.58869">
        <ele>1584</ele>
        <time>2010-06-20T08:18:54Z</time>
      </trkpt>
      <trkpt lat="45.01329" lon="5.58871">
        <ele>1584</ele>
        <time>2010-06-20T08:18:55Z</time>
      </trkpt>
      <trkpt lat="45.0133" lon="5.58873">
        <ele>1584</ele>
        <time>2010-06-20T08:18:56Z</time>
      </trkpt>
      <trkpt lat="45.01332" lon="5.58875">
        <ele>1584</ele>
        <time>2010-06-20T08:18:57Z</time>
      </trkpt>
      <trkpt lat="45.01334" lon="5.58876">
        <ele>1584</ele>
        <time>2010-06-20T08:18:58Z</time>
      </trkpt>
      <trkpt lat="45.01335" lon="5.58877">
        <ele>1584</ele>
        <time>2010-06-20T08:18:59Z</time>
      </trkpt>
      <trkpt lat="45.01337" lon="5.58879">
        <ele>1584</ele>
        <time>2010-06-20T08:19:00Z</time>
      </trkpt>
      <trkpt lat="45.01338" lon="5.58882">
        <ele>1584</ele>
        <time>2010-06-20T08:19:01Z</time>
      </trkpt>
      <trkpt lat="45.0134" lon="5.58884">
        <ele>1584</ele>
        <time>2010-06-20T08:19:02Z</time>
      </trkpt>
      <trkpt lat="45.01342" lon="5.58887">
        <ele>1584</ele>
        <time>2010-06-20T08:19:03Z</time>
      </trkpt>
      <trkpt lat="45.01343" lon="5.5889">
        <ele>1584</ele>
        <time>2010-06-20T08:19:04Z</time>
      </trkpt>
      <trkpt lat="45.01345" lon="5.58893">
        <ele>1584</ele>
        <time>2010-06-20T08:19:05Z</time>
      </trkpt>
      <trkpt lat="45.01347" lon="5.58894">
        <ele>1585</ele>
        <time>2010-06-20T08:19:06Z</time>
      </trkpt>
      <trkpt lat="45.01349" lon="5.58895">
        <ele>1585</ele>
        <time>2010-06-20T08:19:07Z</time>
      </trkpt>
      <trkpt lat="45.01351" lon="5.58896">
        <ele>1585</ele>
        <time>2010-06-20T08:19:08Z</time>
      </trkpt>
      <trkpt lat="45.01353" lon="5.58896">
        <ele>1585</ele>
        <time>2010-06-20T08:19:09Z</time>
      </trkpt>
      <trkpt lat="45.01355" lon="5.58897">
        <ele>1585</ele>
        <time>2010-06-20T08:19:10Z</time>
      </trkpt>
      <trkpt lat="45.01356" lon="5.58897">
        <ele>1585</ele>
        <time>2010-06-20T08:19:11Z</time>
      </trkpt>
      <trkpt lat="45.01359" lon="5.58899">
        <ele>1585</ele>
        <time>2010-06-20T08:19:12Z</time>
      </trkpt>
      <trkpt lat="45.0136" lon="5.589">
        <ele>1585</ele>
        <time>2010-06-20T08:19:13Z</time>
      </trkpt>
      <trkpt lat="45.01361" lon="5.58903">
        <ele>1585</ele>
        <time>2010-06-20T08:19:14Z</time>
      </trkpt>
      <trkpt lat="45.01363" lon="5.58906">
        <ele>1585</ele>
        <time>2010-06-20T08:19:15Z</time>
      </trkpt>
      <trkpt lat="45.01365" lon="5.58908">
        <ele>1585</ele>
        <time>2010-06-20T08:19:16Z</time>
      </trkpt>
      <trkpt lat="45.01366" lon="5.58911">
        <ele>1585</ele>
        <time>2010-06-20T08:19:17Z</time>
      </trkpt>
      <trkpt lat="45.01368" lon="5.58914">
        <ele>1585</ele>
        <time>2010-06-20T08:19:18Z</time>
      </trkpt>
      <trkpt lat="45.01369" lon="5.58918">
        <ele>1585</ele>
        <time>2010-06-20T08:19:19Z</time>
      </trkpt>
      <trkpt lat="45.01371" lon="5.58921">
        <ele>1585</ele>
        <time>2010-06-20T08:19:20Z</time>
      </trkpt>
      <trkpt lat="45.01371" lon="5.58925">
        <ele>1585</ele>
        <time>2010-06-20T08:19:21Z</time>
      </trkpt>
      <trkpt lat="45.01372" lon="5.58928">
        <ele>1585</ele>
        <time>2010-06-20T08:19:22Z</time>
      </trkpt>
      <trkpt lat="45.01372" lon="5.58931">
        <ele>1585</ele>
        <time>2010-06-20T08:19:23Z</time>
      </trkpt>
      <trkpt lat="45.01372" lon="5.58935">
        <ele>1585</ele>
        <time>2010-06-20T08:19:24Z</time>
      </trkpt>
      <trkpt lat="45.01373" lon="5.58938">
        <ele>1585</ele>
        <time>2010-06-20T08:19:25Z</time>
      </trkpt>
      <trkpt lat="45.01373" lon="5.58941">
        <ele>1585</ele>
        <time>2010-06-20T08:19:26Z</time>
      </trkpt>
      <trkpt lat="45.01375" lon="5.58944">
        <ele>1585</ele>
        <time>2010-06-20T08:19:27Z</time>
      </trkpt>
      <trkpt lat="45.01377" lon="5.58946">
        <ele>1585</ele>
        <time>2010-06-20T08:19:28Z</time>
      </trkpt>
      <trkpt lat="45.01379" lon="5.58947">
        <ele>1585</ele>
        <time>2010-06-20T08:19:29Z</time>
      </trkpt>
      <trkpt lat="45.01381" lon="5.58948">
        <ele>1585</ele>
        <time>2010-06-20T08:19:30Z</time>
      </trkpt>
      <trkpt lat="45.01384" lon="5.58949">
        <ele>1585</ele>
        <time>2010-06-20T08:19:31Z</time>
      </trkpt>
      <trkpt lat="45.01386" lon="5.58951">
        <ele>1585</ele>
        <time>2010-06-20T08:19:32Z</time>
      </trkpt>
      <trkpt lat="45.01389" lon="5.58952">
        <ele>1585</ele>
        <time>2010-06-20T08:19:33Z</time>
      </trkpt>
      <trkpt lat="45.01391" lon="5.58954">
        <ele>1585</ele>
        <time>2010-06-20T08:19:34Z</time>
      </trkpt>
      <trkpt lat="45.01394" lon="5.58955">
        <ele>1585</ele>
        <time>2010-06-20T08:19:35Z</time>
      </trkpt>
      <trkpt lat="45.01396" lon="5.58957">
        <ele>1585</ele>
        <time>2010-06-20T08:19:36Z</time>
      </trkpt>
      <trkpt lat="45.01398" lon="5.58957">
        <ele>1585</ele>
        <time>2010-06-20T08:19:37Z</time>
      </trkpt>
      <trkpt lat="45.014" lon="5.58957">
        <ele>1585</ele>
        <time>2010-06-20T08:19:38Z</time>
      </trkpt>
      <trkpt lat="45.01403" lon="5.58958">
        <ele>1586</ele>
        <time>2010-06-20T08:19:39Z</time>
      </trkpt>
      <trkpt lat="45.01406" lon="5.58958">
        <ele>1586</ele>
        <time>2010-06-20T08:19:40Z</time>
      </trkpt>
      <trkpt lat="45.01408" lon="5.58959">
        <ele>1586</ele>
        <time>2010-06-20T08:19:41Z</time>
      </trkpt>
      <trkpt lat="45.01411" lon="5.5896">
        <ele>1586</ele>
        <time>2010-06-20T08:19:42Z</time>
      </trkpt>
      <trkpt lat="45.01413" lon="5.58961">
        <ele>1586</ele>
        <time>2010-06-20T08:19:43Z</time>
      </trkpt>
      <trkpt lat="45.01415" lon="5.58962">
        <ele>1586</ele>
        <time>2010-06-20T08:19:44Z</time>
      </trkpt>
      <trkpt lat="45.01417" lon="5.58964">
        <ele>1586</ele>
        <time>2010-06-20T08:19:45Z</time>
      </trkpt>
      <trkpt lat="45.01419" lon="5.58966">
        <ele>1587</ele>
        <time>2010-06-20T08:19:46Z</time>
      </trkpt>
      <trkpt lat="45.01422" lon="5.58967">
        <ele>1587</ele>
        <time>2010-06-20T08:19:47Z</time>
      </trkpt>
      <trkpt lat="45.01425" lon="5.58967">
        <ele>1587</ele>
        <time>2010-06-20T08:19:48Z</time>
      </trkpt>
      <trkpt lat="45.01428" lon="5.58968">
        <ele>1587</ele>
        <time>2010-06-20T08:19:49Z</time>
      </trkpt>
      <trkpt lat="45.0143" lon="5.58969">
        <ele>1587</ele>
        <time>2010-06-20T08:19:50Z</time>
      </trkpt>
      <trkpt lat="45.01433" lon="5.58969">
        <ele>1587</ele>
        <time>2010-06-20T08:19:51Z</time>
      </trkpt>
      <trkpt lat="45.01436" lon="5.5897">
        <ele>1587</ele>
        <time>2010-06-20T08:19:52Z</time>
      </trkpt>
      <trkpt lat="45.01439" lon="5.58971">
        <ele>1587</ele>
        <time>2010-06-20T08:19:53Z</time>
      </trkpt>
      <trkpt lat="45.01441" lon="5.58972">
        <ele>1587</ele>
        <time>2010-06-20T08:19:54Z</time>
      </trkpt>
      <trkpt lat="45.01443" lon="5.58972">
        <ele>1587</ele>
        <time>2010-06-20T08:19:55Z</time>
      </trkpt>
      <trkpt lat="45.01446" lon="5.58972">
        <ele>1587</ele>
        <time>2010-06-20T08:19:56Z</time>
      </trkpt>
      <trkpt lat="45.01448" lon="5.58972">
        <ele>1587</ele>
        <time>2010-06-20T08:19:57Z</time>
      </trkpt>
      <trkpt lat="45.01451" lon="5.58972">
        <ele>1587</ele>
        <time>2010-06-20T08:19:58Z</time>
      </trkpt>
      <trkpt lat="45.01454" lon="5.58972">
        <ele>1587</ele>
        <time>2010-06-20T08:19:59Z</time>
      </trkpt>
      <trkpt lat="45.01457" lon="5.58971">
        <ele>1587</ele>
        <time>2010-06-20T08:20:00Z</time>
      </trkpt>
      <trkpt lat="45.0146" lon="5.58971">
        <ele>1587</ele>
        <time>2010-06-20T08:20:01Z</time>
      </trkpt>
      <trkpt lat="45.01462" lon="5.5897">
        <ele>1587</ele>
        <time>2010-06-20T08:20:02Z</time>
      </trkpt>
      <trkpt lat="45.01465" lon="5.58969">
        <ele>1587</ele>
        <time>2010-06-20T08:20:03Z</time>
      </trkpt>
      <trkpt lat="45.01467" lon="5.58967">
        <ele>1587</ele>
        <time>2010-06-20T08:20:04Z</time>
      </trkpt>
      <trkpt lat="45.01469" lon="5.58966">
        <ele>1587</ele>
        <time>2010-06-20T08:20:05Z</time>
      </trkpt>
      <trkpt lat="45.01471" lon="5.58965">
        <ele>1587</ele>
        <time>2010-06-20T08:20:06Z</time>
      </trkpt>
      <trkpt lat="45.01474" lon="5.58965">
        <ele>1587</ele>
        <time>2010-06-20T08:20:07Z</time>
      </trkpt>
      <trkpt lat="45.01476" lon="5.58965">
        <ele>1587</ele>
        <time>2010-06-20T08:20:08Z</time>
      </trkpt>
      <trkpt lat="45.01478" lon="5.58965">
        <ele>1587</ele>
        <time>2010-06-20T08:20:09Z</time>
      </trkpt>
      <trkpt lat="45.01481" lon="5.58965">
        <ele>1587</ele>
        <time>2010-06-20T08:20:10Z</time>
      </trkpt>
      <trkpt lat="45.01484" lon="5.58966">
        <ele>1587</ele>
        <time>2010-06-20T08:20:11Z</time>
      </trkpt>
      <trkpt lat="45.01487" lon="5.58966">
        <ele>1587</ele>
        <time>2010-06-20T08:20:12Z</time>
      </trkpt>
      <trkpt lat="45.0149" lon="5.58966">
        <ele>1587</ele>
        <time>2010-06-20T08:20:13Z</time>
      </trkpt>
      <trkpt lat="45.01492" lon="5.58967">
        <ele>1587</ele>
        <time>2010-06-20T08:20:14Z</time>
      </trkpt>
      <trkpt lat="45.01495" lon="5.58968">
        <ele>1587</ele>
        <time>2010-06-20T08:20:15Z</time>
      </trkpt>
      <trkpt lat="45.01497" lon="5.58968">
        <ele>1587</ele>
        <time>2010-06-20T08:20:16Z</time>
      </trkpt>
      <trkpt lat="45.01499" lon="5.58969">
        <ele>1587</ele>
        <time>2010-06-20T08:20:17Z</time>
      </trkpt>
      <trkpt lat="45.01501" lon="5.5897">
        <ele>1587</ele>
        <time>2010-06-20T08:20:18Z</time>
      </trkpt>
      <trkpt lat="45.01503" lon="5.5897">
        <ele>1587</ele>
        <time>2010-06-20T08:20:19Z</time>
      </trkpt>
      <trkpt lat="45.01505" lon="5.5897">
        <ele>1587</ele>
        <time>2010-06-20T08:20:20Z</time>
      </trkpt>
      <trkpt lat="45.01507" lon="5.5897">
        <ele>1587</ele>
        <time>2010-06-20T08:20:21Z</time>
      </trkpt>
      <trkpt lat="45.0151" lon="5.5897">
        <ele>1587</ele>
        <time>2010-06-20T08:20:22Z</time>
      </trkpt>
      <trkpt lat="45.01513" lon="5.5897">
        <ele>1587</ele>
        <time>2010-06-20T08:20:23Z</time>
      </trkpt>
      <trkpt lat="45.01515" lon="5.5897">
        <ele>1587</ele>
        <time>2010-06-20T08:20:24Z</time>
      </trkpt>
      <trkpt lat="45.01518" lon="5.5897">
        <ele>1587</ele>
        <time>2010-06-20T08:20:25Z</time>
      </trkpt>
      <trkpt lat="45.0152" lon="5.5897">
        <ele>1587</ele>
        <time>2010-06-20T08:20:26Z</time>
      </trkpt>
      <trkpt lat="45.01523" lon="5.5897">
        <ele>1587</ele>
        <time>2010-06-20T08:20:27Z</time>
      </trkpt>
      <trkpt lat="45.01525" lon="5.58971">
        <ele>1587</ele>
        <time>2010-06-20T08:20:28Z</time>
      </trkpt>
      <trkpt lat="45.01528" lon="5.58971">
        <ele>1587</ele>
        <time>2010-06-20T08:20:29Z</time>
      </trkpt>
      <trkpt lat="45.0153" lon="5.58971">
        <ele>1587</ele>
        <time>2010-06-20T08:20:30Z</time>
      </trkpt>
      <trkpt lat="45.01533" lon="5.58971">
        <ele>1587</ele>
        <time>2010-06-20T08:20:31Z</time>
      </trkpt>
      <trkpt lat="45.01535" lon="5.58971">
        <ele>1587</ele>
        <time>2010-06-20T08:20:32Z</time>
      </trkpt>
      <trkpt lat="45.01538" lon="5.58971">
        <ele>1587</ele>
        <time>2010-06-20T08:20:33Z</time>
      </trkpt>
      <trkpt lat="45.0154" lon="5.58972">
        <ele>1587</ele>
        <time>2010-06-20T08:20:34Z</time>
      </trkpt>
      <trkpt lat="45.01543" lon="5.58972">
        <ele>1587</ele>
        <time>2010-06-20T08:20:35Z</time>
      </trkpt>
      <trkpt lat="45.01545" lon="5.58972">
        <ele>1587</ele>
        <time>2010-06-20T08:20:36Z</time>
      </trkpt>
      <trkpt lat="45.01548" lon="5.58972">
        <ele>1587</ele>
        <time>2010-06-20T08:20:37Z</time>
      </trkpt>
      <trkpt lat="45.0155" lon="5.58971">
        <ele>1587</ele>
        <time>2010-06-20T08:20:38Z</time>
      </trkpt>
      <trkpt lat="45.01552" lon="5.58971">
        <ele>1587</ele>
        <time>2010-06-20T08:20:39Z</time>
      </trkpt>
      <trkpt lat="45.01555" lon="5.58971">
        <ele>1587</ele>
        <time>2010-06-20T08:20:40Z</time>
      </trkpt>
      <trkpt lat="45.01557" lon="5.58971">
        <ele>1587</ele>
        <time>2010-06-20T08:20:41Z</time>
      </trkpt>
      <trkpt lat="45.0156" lon="5.58971">
        <ele>1587</ele>
        <time>2010-06-20T08:20:42Z</time>
      </trkpt>
      <trkpt lat="45.01562" lon="5.58971">
        <ele>1587</ele>
        <time>2010-06-20T08:20:43Z</time>
      </trkpt>
      <trkpt lat="45.01564" lon="5.58971">
        <ele>1587</ele>
        <time>2010-06-20T08:20:44Z</time>
      </trkpt>
      <trkpt lat="45.01567" lon="5.58971">
        <ele>1587</ele>
        <time>2010-06-20T08:20:45Z</time>
      </trkpt>
      <trkpt lat="45.01569" lon="5.58971">
        <ele>1587</ele>
        <time>2010-06-20T08:20:46Z</time>
      </trkpt>
      <trkpt lat="45.01572" lon="5.58972">
        <ele>1587</ele>
        <time>2010-06-20T08:20:47Z</time>
      </trkpt>
      <trkpt lat="45.01575" lon="5.58973">
        <ele>1587</ele>
        <time>2010-06-20T08:20:48Z</time>
      </trkpt>
      <trkpt lat="45.01577" lon="5.58973">
        <ele>1587</ele>
        <time>2010-06-20T08:20:49Z</time>
      </trkpt>
      <trkpt lat="45.01579" lon="5.58973">
        <ele>1587</ele>
        <time>2010-06-20T08:20:50Z</time>
      </trkpt>
      <trkpt lat="45.01581" lon="5.58973">
        <ele>1587</ele>
        <time>2010-06-20T08:20:51Z</time>
      </trkpt>
      <trkpt lat="45.01584" lon="5.58973">
        <ele>1587</ele>
        <time>2010-06-20T08:20:52Z</time>
      </trkpt>
      <trkpt lat="45.01586" lon="5.58973">
        <ele>1587</ele>
        <time>2010-06-20T08:20:53Z</time>
      </trkpt>
      <trkpt lat="45.01589" lon="5.58973">
        <ele>1587</ele>
        <time>2010-06-20T08:20:54Z</time>
      </trkpt>
      <trkpt lat="45.01591" lon="5.58972">
        <ele>1587</ele>
        <time>2010-06-20T08:20:55Z</time>
      </trkpt>
      <trkpt lat="45.01593" lon="5.58972">
        <ele>1587</ele>
        <time>2010-06-20T08:20:56Z</time>
      </trkpt>
      <trkpt lat="45.01596" lon="5.58971">
        <ele>1587</ele>
        <time>2010-06-20T08:20:57Z</time>
      </trkpt>
      <trkpt lat="45.01598" lon="5.5897">
        <ele>1587</ele>
        <time>2010-06-20T08:20:58Z</time>
      </trkpt>
      <trkpt lat="45.016" lon="5.58969">
        <ele>1587</ele>
        <time>2010-06-20T08:20:59Z</time>
      </trkpt>
      <trkpt lat="45.01603" lon="5.58968">
        <ele>1587</ele>
        <time>2010-06-20T08:21:00Z</time>
      </trkpt>
      <trkpt lat="45.01605" lon="5.58967">
        <ele>1587</ele>
        <time>2010-06-20T08:21:01Z</time>
      </trkpt>
      <trkpt lat="45.01607" lon="5.58966">
        <ele>1587</ele>
        <time>2010-06-20T08:21:02Z</time>
      </trkpt>
      <trkpt lat="45.0161" lon="5.58965">
        <ele>1587</ele>
        <time>2010-06-20T08:21:03Z</time>
      </trkpt>
      <trkpt lat="45.01612" lon="5.58964">
        <ele>1587</ele>
        <time>2010-06-20T08:21:04Z</time>
      </trkpt>
      <trkpt lat="45.01614" lon="5.58963">
        <ele>1587</ele>
        <time>2010-06-20T08:21:05Z</time>
      </trkpt>
      <trkpt lat="45.01616" lon="5.58963">
        <ele>1587</ele>
        <time>2010-06-20T08:21:06Z</time>
      </trkpt>
      <trkpt lat="45.01618" lon="5.58962">
        <ele>1587</ele>
        <time>2010-06-20T08:21:07Z</time>
      </trkpt>
      <trkpt lat="45.0162" lon="5.58961">
        <ele>1587</ele>
        <time>2010-06-20T08:21:08Z</time>
      </trkpt>
      <trkpt lat="45.01621" lon="5.5896">
        <ele>1587</ele>
        <time>2010-06-20T08:21:09Z</time>
      </trkpt>
      <trkpt lat="45.01623" lon="5.58958">
        <ele>1587</ele>
        <time>2010-06-20T08:21:10Z</time>
      </trkpt>
      <trkpt lat="45.01624" lon="5.58958">
        <ele>1587</ele>
        <time>2010-06-20T08:21:11Z</time>
      </trkpt>
      <trkpt lat="45.01626" lon="5.58959">
        <ele>1587</ele>
        <time>2010-06-20T08:21:12Z</time>
      </trkpt>
      <trkpt lat="45.01628" lon="5.58959">
        <ele>1587</ele>
        <time>2010-06-20T08:21:13Z</time>
      </trkpt>
      <trkpt lat="45.0163" lon="5.5896">
        <ele>1587</ele>
        <time>2010-06-20T08:21:14Z</time>
      </trkpt>
      <trkpt lat="45.01633" lon="5.5896">
        <ele>1587</ele>
        <time>2010-06-20T08:21:15Z</time>
      </trkpt>
      <trkpt lat="45.01636" lon="5.5896">
        <ele>1587</ele>
        <time>2010-06-20T08:21:16Z</time>
      </trkpt>
      <trkpt lat="45.01638" lon="5.5896">
        <ele>1587</ele>
        <time>2010-06-20T08:21:17Z</time>
      </trkpt>
      <trkpt lat="45.01641" lon="5.58959">
        <ele>1587</ele>
        <time>2010-06-20T08:21:18Z</time>
      </trkpt>
      <trkpt lat="45.01644" lon="5.5896">
        <ele>1587</ele>
        <time>2010-06-20T08:21:19Z</time>
      </trkpt>
      <trkpt lat="45.01647" lon="5.58959">
        <ele>1587</ele>
        <time>2010-06-20T08:21:20Z</time>
      </trkpt>
      <trkpt lat="45.01649" lon="5.58959">
        <ele>1587</ele>
        <time>2010-06-20T08:21:21Z</time>
      </trkpt>
      <trkpt lat="45.01652" lon="5.58959">
        <ele>1587</ele>
        <time>2010-06-20T08:21:22Z</time>
      </trkpt>
      <trkpt lat="45.01654" lon="5.58959">
        <ele>1588</ele>
        <time>2010-06-20T08:21:23Z</time>
      </trkpt>
      <trkpt lat="45.01656" lon="5.58959">
        <ele>1588</ele>
        <time>2010-06-20T08:21:24Z</time>
      </trkpt>
      <trkpt lat="45.01659" lon="5.58958">
        <ele>1588</ele>
        <time>2010-06-20T08:21:25Z</time>
      </trkpt>
      <trkpt lat="45.01662" lon="5.58957">
        <ele>1588</ele>
        <time>2010-06-20T08:21:26Z</time>
      </trkpt>
      <trkpt lat="45.01664" lon="5.58957">
        <ele>1588</ele>
        <time>2010-06-20T08:21:27Z</time>
      </trkpt>
      <trkpt lat="45.01667" lon="5.58956">
        <ele>1588</ele>
        <time>2010-06-20T08:21:28Z</time>
      </trkpt>
      <trkpt lat="45.01669" lon="5.58955">
        <ele>1588</ele>
        <time>2010-06-20T08:21:29Z</time>
      </trkpt>
      <trkpt lat="45.01672" lon="5.58953">
        <ele>1588</ele>
        <time>2010-06-20T08:21:30Z</time>
      </trkpt>
      <trkpt lat="45.01674" lon="5.58952">
        <ele>1588</ele>
        <time>2010-06-20T08:21:31Z</time>
      </trkpt>
      <trkpt lat="45.01677" lon="5.58949">
        <ele>1588</ele>
        <time>2010-06-20T08:21:32Z</time>
      </trkpt>
      <trkpt lat="45.01679" lon="5.58947">
        <ele>1588</ele>
        <time>2010-06-20T08:21:33Z</time>
      </trkpt>
      <trkpt lat="45.01682" lon="5.58946">
        <ele>1588</ele>
        <time>2010-06-20T08:21:34Z</time>
      </trkpt>
      <trkpt lat="45.01684" lon="5.58945">
        <ele>1588</ele>
        <time>2010-06-20T08:21:35Z</time>
      </trkpt>
      <trkpt lat="45.01686" lon="5.58944">
        <ele>1588</ele>
        <time>2010-06-20T08:21:36Z</time>
      </trkpt>
      <trkpt lat="45.01689" lon="5.58943">
        <ele>1588</ele>
        <time>2010-06-20T08:21:37Z</time>
      </trkpt>
      <trkpt lat="45.01691" lon="5.58941">
        <ele>1588</ele>
        <time>2010-06-20T08:21:38Z</time>
      </trkpt>
      <trkpt lat="45.01692" lon="5.58939">
        <ele>1588</ele>
        <time>2010-06-20T08:21:39Z</time>
      </trkpt>
      <trkpt lat="45.01695" lon="5.58937">
        <ele>1588</ele>
        <time>2010-06-20T08:21:40Z</time>
      </trkpt>
      <trkpt lat="45.01697" lon="5.58936">
        <ele>1588</ele>
        <time>2010-06-20T08:21:41Z</time>
      </trkpt>
      <trkpt lat="45.017" lon="5.58936">
        <ele>1588</ele>
        <time>2010-06-20T08:21:42Z</time>
      </trkpt>
      <trkpt lat="45.01702" lon="5.58935">
        <ele>1588</ele>
        <time>2010-06-20T08:21:43Z</time>
      </trkpt>
      <trkpt lat="45.01704" lon="5.58934">
        <ele>1588</ele>
        <time>2010-06-20T08:21:44Z</time>
      </trkpt>
      <trkpt lat="45.01706" lon="5.58934">
        <ele>1588</ele>
        <time>2010-06-20T08:21:45Z</time>
      </trkpt>
      <trkpt lat="45.01708" lon="5.58934">
        <ele>1588</ele>
        <time>2010-06-20T08:21:46Z</time>
      </trkpt>
      <trkpt lat="45.01711" lon="5.58933">
        <ele>1588</ele>
        <time>2010-06-20T08:21:47Z</time>
      </trkpt>
      <trkpt lat="45.01713" lon="5.58933">
        <ele>1588</ele>
        <time>2010-06-20T08:21:48Z</time>
      </trkpt>
      <trkpt lat="45.01715" lon="5.58932">
        <ele>1588</ele>
        <time>2010-06-20T08:21:49Z</time>
      </trkpt>
      <trkpt lat="45.01717" lon="5.58931">
        <ele>1588</ele>
        <time>2010-06-20T08:21:50Z</time>
      </trkpt>
      <trkpt lat="45.01719" lon="5.58931">
        <ele>1588</ele>
        <time>2010-06-20T08:21:51Z</time>
      </trkpt>
      <trkpt lat="45.01722" lon="5.58931">
        <ele>1588</ele>
        <time>2010-06-20T08:21:52Z</time>
      </trkpt>
      <trkpt lat="45.01725" lon="5.58932">
        <ele>1588</ele>
        <time>2010-06-20T08:21:53Z</time>
      </trkpt>
      <trkpt lat="45.01728" lon="5.58933">
        <ele>1588</ele>
        <time>2010-06-20T08:21:54Z</time>
      </trkpt>
      <trkpt lat="45.0173" lon="5.58933">
        <ele>1588</ele>
        <time>2010-06-20T08:21:55Z</time>
      </trkpt>
      <trkpt lat="45.01733" lon="5.58933">
        <ele>1588</ele>
        <time>2010-06-20T08:21:56Z</time>
      </trkpt>
      <trkpt lat="45.01736" lon="5.58934">
        <ele>1588</ele>
        <time>2010-06-20T08:21:57Z</time>
      </trkpt>
      <trkpt lat="45.01738" lon="5.58934">
        <ele>1588</ele>
        <time>2010-06-20T08:21:58Z</time>
      </trkpt>
      <trkpt lat="45.0174" lon="5.58935">
        <ele>1588</ele>
        <time>2010-06-20T08:21:59Z</time>
      </trkpt>
      <trkpt lat="45.01742" lon="5.58936">
        <ele>1588</ele>
        <time>2010-06-20T08:22:00Z</time>
      </trkpt>
      <trkpt lat="45.01744" lon="5.58936">
        <ele>1588</ele>
        <time>2010-06-20T08:22:01Z</time>
      </trkpt>
      <trkpt lat="45.01746" lon="5.58937">
        <ele>1588</ele>
        <time>2010-06-20T08:22:02Z</time>
      </trkpt>
      <trkpt lat="45.01748" lon="5.58937">
        <ele>1588</ele>
        <time>2010-06-20T08:22:03Z</time>
      </trkpt>
      <trkpt lat="45.01751" lon="5.58937">
        <ele>1588</ele>
        <time>2010-06-20T08:22:04Z</time>
      </trkpt>
      <trkpt lat="45.01754" lon="5.58937">
        <ele>1589</ele>
        <time>2010-06-20T08:22:05Z</time>
      </trkpt>
      <trkpt lat="45.01756" lon="5.58937">
        <ele>1589</ele>
        <time>2010-06-20T08:22:06Z</time>
      </trkpt>
      <trkpt lat="45.01757" lon="5.58938">
        <ele>1589</ele>
        <time>2010-06-20T08:22:07Z</time>
      </trkpt>
      <trkpt lat="45.01759" lon="5.58939">
        <ele>1589</ele>
        <time>2010-06-20T08:22:08Z</time>
      </trkpt>
      <trkpt lat="45.01761" lon="5.58939">
        <ele>1589</ele>
        <time>2010-06-20T08:22:09Z</time>
      </trkpt>
      <trkpt lat="45.01764" lon="5.58939">
        <ele>1589</ele>
        <time>2010-06-20T08:22:10Z</time>
      </trkpt>
      <trkpt lat="45.01766" lon="5.5894">
        <ele>1589</ele>
        <time>2010-06-20T08:22:11Z</time>
      </trkpt>
      <trkpt lat="45.01768" lon="5.58941">
        <ele>1590</ele>
        <time>2010-06-20T08:22:12Z</time>
      </trkpt>
      <trkpt lat="45.01771" lon="5.58941">
        <ele>1590</ele>
        <time>2010-06-20T08:22:13Z</time>
      </trkpt>
      <trkpt lat="45.01773" lon="5.58942">
        <ele>1590</ele>
        <time>2010-06-20T08:22:14Z</time>
      </trkpt>
      <trkpt lat="45.01776" lon="5.58942">
        <ele>1590</ele>
        <time>2010-06-20T08:22:15Z</time>
      </trkpt>
      <trkpt lat="45.01779" lon="5.58942">
        <ele>1591</ele>
        <time>2010-06-20T08:22:16Z</time>
      </trkpt>
      <trkpt lat="45.01781" lon="5.58941">
        <ele>1591</ele>
        <time>2010-06-20T08:22:17Z</time>
      </trkpt>
      <trkpt lat="45.01784" lon="5.58942">
        <ele>1591</ele>
        <time>2010-06-20T08:22:18Z</time>
      </trkpt>
      <trkpt lat="45.01786" lon="5.58942">
        <ele>1591</ele>
        <time>2010-06-20T08:22:19Z</time>
      </trkpt>
      <trkpt lat="45.01788" lon="5.58942">
        <ele>1591</ele>
        <time>2010-06-20T08:22:20Z</time>
      </trkpt>
      <trkpt lat="45.0179" lon="5.58941">
        <ele>1591</ele>
        <time>2010-06-20T08:22:21Z</time>
      </trkpt>
      <trkpt lat="45.01793" lon="5.58941">
        <ele>1592</ele>
        <time>2010-06-20T08:22:22Z</time>
      </trkpt>
      <trkpt lat="45.01796" lon="5.58941">
        <ele>1592</ele>
        <time>2010-06-20T08:22:23Z</time>
      </trkpt>
      <trkpt lat="45.01798" lon="5.5894">
        <ele>1592</ele>
        <time>2010-06-20T08:22:24Z</time>
      </trkpt>
      <trkpt lat="45.01801" lon="5.5894">
        <ele>1592</ele>
        <time>2010-06-20T08:22:25Z</time>
      </trkpt>
      <trkpt lat="45.01803" lon="5.58939">
        <ele>1592</ele>
        <time>2010-06-20T08:22:26Z</time>
      </trkpt>
      <trkpt lat="45.01805" lon="5.5894">
        <ele>1592</ele>
        <time>2010-06-20T08:22:27Z</time>
      </trkpt>
      <trkpt lat="45.01808" lon="5.58941">
        <ele>1592</ele>
        <time>2010-06-20T08:22:28Z</time>
      </trkpt>
      <trkpt lat="45.0181" lon="5.58941">
        <ele>1592</ele>
        <time>2010-06-20T08:22:29Z</time>
      </trkpt>
      <trkpt lat="45.01813" lon="5.5894">
        <ele>1593</ele>
        <time>2010-06-20T08:22:30Z</time>
      </trkpt>
      <trkpt lat="45.01815" lon="5.5894">
        <ele>1593</ele>
        <time>2010-06-20T08:22:31Z</time>
      </trkpt>
      <trkpt lat="45.01818" lon="5.5894">
        <ele>1593</ele>
        <time>2010-06-20T08:22:32Z</time>
      </trkpt>
      <trkpt lat="45.0182" lon="5.5894">
        <ele>1594</ele>
        <time>2010-06-20T08:22:33Z</time>
      </trkpt>
      <trkpt lat="45.01823" lon="5.58941">
        <ele>1594</ele>
        <time>2010-06-20T08:22:34Z</time>
      </trkpt>
      <trkpt lat="45.01825" lon="5.58942">
        <ele>1594</ele>
        <time>2010-06-20T08:22:35Z</time>
      </trkpt>
      <trkpt lat="45.01828" lon="5.58943">
        <ele>1594</ele>
        <time>2010-06-20T08:22:36Z</time>
      </trkpt>
      <trkpt lat="45.0183" lon="5.58943">
        <ele>1594</ele>
        <time>2010-06-20T08:22:37Z</time>
      </trkpt>
      <trkpt lat="45.01832" lon="5.58944">
        <ele>1594</ele>
        <time>2010-06-20T08:22:38Z</time>
      </trkpt>
      <trkpt lat="45.01834" lon="5.58945">
        <ele>1594</ele>
        <time>2010-06-20T08:22:39Z</time>
      </trkpt>
      <trkpt lat="45.01836" lon="5.58946">
        <ele>1594</ele>
        <time>2010-06-20T08:22:40Z</time>
      </trkpt>
      <trkpt lat="45.01838" lon="5.58947">
        <ele>1594</ele>
        <time>2010-06-20T08:22:41Z</time>
      </trkpt>
      <trkpt lat="45.0184" lon="5.58949">
        <ele>1594</ele>
        <time>2010-06-20T08:22:42Z</time>
      </trkpt>
      <trkpt lat="45.01842" lon="5.58951">
        <ele>1594</ele>
        <time>2010-06-20T08:22:43Z</time>
      </trkpt>
      <trkpt lat="45.01844" lon="5.58953">
        <ele>1594</ele>
        <time>2010-06-20T08:22:44Z</time>
      </trkpt>
      <trkpt lat="45.01846" lon="5.58955">
        <ele>1595</ele>
        <time>2010-06-20T08:22:45Z</time>
      </trkpt>
      <trkpt lat="45.01849" lon="5.58957">
        <ele>1595</ele>
        <time>2010-06-20T08:22:46Z</time>
      </trkpt>
      <trkpt lat="45.01851" lon="5.58958">
        <ele>1595</ele>
        <time>2010-06-20T08:22:47Z</time>
      </trkpt>
      <trkpt lat="45.01853" lon="5.58959">
        <ele>1595</ele>
        <time>2010-06-20T08:22:48Z</time>
      </trkpt>
      <trkpt lat="45.01855" lon="5.58961">
        <ele>1596</ele>
        <time>2010-06-20T08:22:49Z</time>
      </trkpt>
      <trkpt lat="45.01857" lon="5.58962">
        <ele>1596</ele>
        <time>2010-06-20T08:22:50Z</time>
      </trkpt>
      <trkpt lat="45.01859" lon="5.58964">
        <ele>1596</ele>
        <time>2010-06-20T08:22:51Z</time>
      </trkpt>
      <trkpt lat="45.01861" lon="5.58965">
        <ele>1596</ele>
        <time>2010-06-20T08:22:52Z</time>
      </trkpt>
      <trkpt lat="45.01862" lon="5.58966">
        <ele>1597</ele>
        <time>2010-06-20T08:22:53Z</time>
      </trkpt>
      <trkpt lat="45.01864" lon="5.58968">
        <ele>1597</ele>
        <time>2010-06-20T08:22:54Z</time>
      </trkpt>
      <trkpt lat="45.01866" lon="5.58969">
        <ele>1597</ele>
        <time>2010-06-20T08:22:55Z</time>
      </trkpt>
      <trkpt lat="45.01868" lon="5.58971">
        <ele>1597</ele>
        <time>2010-06-20T08:22:56Z</time>
      </trkpt>
      <trkpt lat="45.01871" lon="5.58972">
        <ele>1597</ele>
        <time>2010-06-20T08:22:57Z</time>
      </trkpt>
      <trkpt lat="45.01873" lon="5.58973">
        <ele>1598</ele>
        <time>2010-06-20T08:22:58Z</time>
      </trkpt>
      <trkpt lat="45.01875" lon="5.58974">
        <ele>1598</ele>
        <time>2010-06-20T08:22:59Z</time>
      </trkpt>
      <trkpt lat="45.01877" lon="5.58975">
        <ele>1598</ele>
        <time>2010-06-20T08:23:00Z</time>
      </trkpt>
      <trkpt lat="45.01879" lon="5.58976">
        <ele>1599</ele>
        <time>2010-06-20T08:23:01Z</time>
      </trkpt>
      <trkpt lat="45.01881" lon="5.58976">
        <ele>1599</ele>
        <time>2010-06-20T08:23:02Z</time>
      </trkpt>
      <trkpt lat="45.01884" lon="5.58978">
        <ele>1599</ele>
        <time>2010-06-20T08:23:03Z</time>
      </trkpt>
      <trkpt lat="45.01886" lon="5.58979">
        <ele>1599</ele>
        <time>2010-06-20T08:23:04Z</time>
      </trkpt>
      <trkpt lat="45.01889" lon="5.58979">
        <ele>1599</ele>
        <time>2010-06-20T08:23:05Z</time>
      </trkpt>
      <trkpt lat="45.01891" lon="5.58979">
        <ele>1599</ele>
        <time>2010-06-20T08:23:06Z</time>
      </trkpt>
      <trkpt lat="45.01894" lon="5.58979">
        <ele>1599</ele>
        <time>2010-06-20T08:23:07Z</time>
      </trkpt>
      <trkpt lat="45.01897" lon="5.58979">
        <ele>1599</ele>
        <time>2010-06-20T08:23:08Z</time>
      </trkpt>
      <trkpt lat="45.019" lon="5.5898">
        <ele>1599</ele>
        <time>2010-06-20T08:23:09Z</time>
      </trkpt>
      <trkpt lat="45.01902" lon="5.5898">
        <ele>1599</ele>
        <time>2010-06-20T08:23:10Z</time>
      </trkpt>
      <trkpt lat="45.01904" lon="5.5898">
        <ele>1599</ele>
        <time>2010-06-20T08:23:11Z</time>
      </trkpt>
      <trkpt lat="45.01906" lon="5.5898">
        <ele>1599</ele>
        <time>2010-06-20T08:23:12Z</time>
      </trkpt>
      <trkpt lat="45.01909" lon="5.5898">
        <ele>1599</ele>
        <time>2010-06-20T08:23:13Z</time>
      </trkpt>
      <trkpt lat="45.01911" lon="5.5898">
        <ele>1599</ele>
        <time>2010-06-20T08:23:14Z</time>
      </trkpt>
      <trkpt lat="45.01913" lon="5.58979">
        <ele>1599</ele>
        <time>2010-06-20T08:23:15Z</time>
      </trkpt>
      <trkpt lat="45.01916" lon="5.58979">
        <ele>1599</ele>
        <time>2010-06-20T08:23:16Z</time>
      </trkpt>
      <trkpt lat="45.01919" lon="5.58979">
        <ele>1599</ele>
        <time>2010-06-20T08:23:17Z</time>
      </trkpt>
      <trkpt lat="45.01921" lon="5.58978">
        <ele>1599</ele>
        <time>2010-06-20T08:23:18Z</time>
      </trkpt>
      <trkpt lat="45.01924" lon="5.58979">
        <ele>1599</ele>
        <time>2010-06-20T08:23:19Z</time>
      </trkpt>
      <trkpt lat="45.01926" lon="5.58979">
        <ele>1599</ele>
        <time>2010-06-20T08:23:20Z</time>
      </trkpt>
      <trkpt lat="45.01928" lon="5.58978">
        <ele>1599</ele>
        <time>2010-06-20T08:23:21Z</time>
      </trkpt>
      <trkpt lat="45.0193" lon="5.58978">
        <ele>1599</ele>
        <time>2010-06-20T08:23:22Z</time>
      </trkpt>
      <trkpt lat="45.01933" lon="5.58977">
        <ele>1599</ele>
        <time>2010-06-20T08:23:23Z</time>
      </trkpt>
      <trkpt lat="45.01935" lon="5.58978">
        <ele>1599</ele>
        <time>2010-06-20T08:23:24Z</time>
      </trkpt>
      <trkpt lat="45.01937" lon="5.58978">
        <ele>1599</ele>
        <time>2010-06-20T08:23:25Z</time>
      </trkpt>
      <trkpt lat="45.0194" lon="5.58978">
        <ele>1599</ele>
        <time>2010-06-20T08:23:26Z</time>
      </trkpt>
      <trkpt lat="45.01942" lon="5.58978">
        <ele>1599</ele>
        <time>2010-06-20T08:23:27Z</time>
      </trkpt>
      <trkpt lat="45.01945" lon="5.58978">
        <ele>1599</ele>
        <time>2010-06-20T08:23:28Z</time>
      </trkpt>
      <trkpt lat="45.01947" lon="5.58977">
        <ele>1598</ele>
        <time>2010-06-20T08:23:29Z</time>
      </trkpt>
      <trkpt lat="45.01949" lon="5.58976">
        <ele>1598</ele>
        <time>2010-06-20T08:23:30Z</time>
      </trkpt>
      <trkpt lat="45.01951" lon="5.58975">
        <ele>1598</ele>
        <time>2010-06-20T08:23:31Z</time>
      </trkpt>
      <trkpt lat="45.01953" lon="5.58975">
        <ele>1597</ele>
        <time>2010-06-20T08:23:32Z</time>
      </trkpt>
      <trkpt lat="45.01956" lon="5.58975">
        <ele>1597</ele>
        <time>2010-06-20T08:23:33Z</time>
      </trkpt>
      <trkpt lat="45.01958" lon="5.58975">
        <ele>1597</ele>
        <time>2010-06-20T08:23:34Z</time>
      </trkpt>
      <trkpt lat="45.01961" lon="5.58976">
        <ele>1597</ele>
        <time>2010-06-20T08:23:35Z</time>
      </trkpt>
      <trkpt lat="45.01963" lon="5.58976">
        <ele>1597</ele>
        <time>2010-06-20T08:23:36Z</time>
      </trkpt>
      <trkpt lat="45.01965" lon="5.58976">
        <ele>1597</ele>
        <time>2010-06-20T08:23:37Z</time>
      </trkpt>
      <trkpt lat="45.01967" lon="5.58977">
        <ele>1597</ele>
        <time>2010-06-20T08:23:38Z</time>
      </trkpt>
      <trkpt lat="45.01969" lon="5.58978">
        <ele>1596</ele>
        <time>2010-06-20T08:23:39Z</time>
      </trkpt>
      <trkpt lat="45.01971" lon="5.58979">
        <ele>1596</ele>
        <time>2010-06-20T08:23:40Z</time>
      </trkpt>
      <trkpt lat="45.01973" lon="5.5898">
        <ele>1596</ele>
        <time>2010-06-20T08:23:41Z</time>
      </trkpt>
      <trkpt lat="45.01976" lon="5.5898">
        <ele>1596</ele>
        <time>2010-06-20T08:23:42Z</time>
      </trkpt>
      <trkpt lat="45.01978" lon="5.58981">
        <ele>1596</ele>
        <time>2010-06-20T08:23:43Z</time>
      </trkpt>
      <trkpt lat="45.0198" lon="5.58982">
        <ele>1596</ele>
        <time>2010-06-20T08:23:44Z</time>
      </trkpt>
      <trkpt lat="45.01983" lon="5.58984">
        <ele>1596</ele>
        <time>2010-06-20T08:23:45Z</time>
      </trkpt>
      <trkpt lat="45.01986" lon="5.58984">
        <ele>1596</ele>
        <time>2010-06-20T08:23:46Z</time>
      </trkpt>
      <trkpt lat="45.01989" lon="5.58985">
        <ele>1596</ele>
        <time>2010-06-20T08:23:47Z</time>
      </trkpt>
      <trkpt lat="45.01991" lon="5.58986">
        <ele>1596</ele>
        <time>2010-06-20T08:23:48Z</time>
      </trkpt>
      <trkpt lat="45.01995" lon="5.58987">
        <ele>1596</ele>
        <time>2010-06-20T08:23:49Z</time>
      </trkpt>
      <trkpt lat="45.01997" lon="5.58987">
        <ele>1596</ele>
        <time>2010-06-20T08:23:50Z</time>
      </trkpt>
      <trkpt lat="45.02" lon="5.58988">
        <ele>1596</ele>
        <time>2010-06-20T08:23:51Z</time>
      </trkpt>
      <trkpt lat="45.02003" lon="5.58987">
        <ele>1596</ele>
        <time>2010-06-20T08:23:52Z</time>
      </trkpt>
      <trkpt lat="45.02006" lon="5.58988">
        <ele>1596</ele>
        <time>2010-06-20T08:23:53Z</time>
      </trkpt>
      <trkpt lat="45.02008" lon="5.58988">
        <ele>1596</ele>
        <time>2010-06-20T08:23:54Z</time>
      </trkpt>
      <trkpt lat="45.02011" lon="5.58989">
        <ele>1596</ele>
        <time>2010-06-20T08:23:55Z</time>
      </trkpt>
      <trkpt lat="45.02014" lon="5.58989">
        <ele>1596</ele>
        <time>2010-06-20T08:23:56Z</time>
      </trkpt>
      <trkpt lat="45.02016" lon="5.5899">
        <ele>1596</ele>
        <time>2010-06-20T08:23:57Z</time>
      </trkpt>
      <trkpt lat="45.02018" lon="5.5899">
        <ele>1596</ele>
        <time>2010-06-20T08:23:58Z</time>
      </trkpt>
      <trkpt lat="45.0202" lon="5.58991">
        <ele>1596</ele>
        <time>2010-06-20T08:23:59Z</time>
      </trkpt>
      <trkpt lat="45.02023" lon="5.5899">
        <ele>1596</ele>
        <time>2010-06-20T08:24:00Z</time>
      </trkpt>
      <trkpt lat="45.02026" lon="5.5899">
        <ele>1596</ele>
        <time>2010-06-20T08:24:01Z</time>
      </trkpt>
      <trkpt lat="45.02028" lon="5.58991">
        <ele>1596</ele>
        <time>2010-06-20T08:24:02Z</time>
      </trkpt>
      <trkpt lat="45.02031" lon="5.58992">
        <ele>1596</ele>
        <time>2010-06-20T08:24:03Z</time>
      </trkpt>
      <trkpt lat="45.02034" lon="5.58992">
        <ele>1596</ele>
        <time>2010-06-20T08:24:04Z</time>
      </trkpt>
      <trkpt lat="45.02036" lon="5.58993">
        <ele>1596</ele>
        <time>2010-06-20T08:24:05Z</time>
      </trkpt>
      <trkpt lat="45.02038" lon="5.58993">
        <ele>1596</ele>
        <time>2010-06-20T08:24:06Z</time>
      </trkpt>
      <trkpt lat="45.02041" lon="5.58993">
        <ele>1596</ele>
        <time>2010-06-20T08:24:07Z</time>
      </trkpt>
      <trkpt lat="45.02043" lon="5.58993">
        <ele>1596</ele>
        <time>2010-06-20T08:24:08Z</time>
      </trkpt>
      <trkpt lat="45.02046" lon="5.58992">
        <ele>1596</ele>
        <time>2010-06-20T08:24:09Z</time>
      </trkpt>
      <trkpt lat="45.02048" lon="5.58993">
        <ele>1596</ele>
        <time>2010-06-20T08:24:10Z</time>
      </trkpt>
      <trkpt lat="45.0205" lon="5.58994">
        <ele>1596</ele>
        <time>2010-06-20T08:24:11Z</time>
      </trkpt>
      <trkpt lat="45.02053" lon="5.58996">
        <ele>1596</ele>
        <time>2010-06-20T08:24:12Z</time>
      </trkpt>
      <trkpt lat="45.02056" lon="5.58997">
        <ele>1596</ele>
        <time>2010-06-20T08:24:13Z</time>
      </trkpt>
      <trkpt lat="45.0206" lon="5.58999">
        <ele>1596</ele>
        <time>2010-06-20T08:24:14Z</time>
      </trkpt>
      <trkpt lat="45.02063" lon="5.59">
        <ele>1596</ele>
        <time>2010-06-20T08:24:15Z</time>
      </trkpt>
      <trkpt lat="45.02065" lon="5.59002">
        <ele>1596</ele>
        <time>2010-06-20T08:24:16Z</time>
      </trkpt>
      <trkpt lat="45.02068" lon="5.59004">
        <ele>1596</ele>
        <time>2010-06-20T08:24:17Z</time>
      </trkpt>
      <trkpt lat="45.02072" lon="5.59005">
        <ele>1596</ele>
        <time>2010-06-20T08:24:18Z</time>
      </trkpt>
      <trkpt lat="45.02075" lon="5.59006">
        <ele>1596</ele>
        <time>2010-06-20T08:24:19Z</time>
      </trkpt>
      <trkpt lat="45.02079" lon="5.59007">
        <ele>1596</ele>
        <time>2010-06-20T08:24:20Z</time>
      </trkpt>
      <trkpt lat="45.02082" lon="5.59008">
        <ele>1596</ele>
        <time>2010-06-20T08:24:21Z</time>
      </trkpt>
      <trkpt lat="45.02086" lon="5.59009">
        <ele>1596</ele>
        <time>2010-06-20T08:24:22Z</time>
      </trkpt>
      <trkpt lat="45.02089" lon="5.59011">
        <ele>1596</ele>
        <time>2010-06-20T08:24:23Z</time>
      </trkpt>
      <trkpt lat="45.02093" lon="5.59013">
        <ele>1596</ele>
        <time>2010-06-20T08:24:24Z</time>
      </trkpt>
      <trkpt lat="45.02097" lon="5.59015">
        <ele>1596</ele>
        <time>2010-06-20T08:24:25Z</time>
      </trkpt>
      <trkpt lat="45.021" lon="5.59016">
        <ele>1596</ele>
        <time>2010-06-20T08:24:26Z</time>
      </trkpt>
      <trkpt lat="45.02103" lon="5.59016">
        <ele>1596</ele>
        <time>2010-06-20T08:24:27Z</time>
      </trkpt>
      <trkpt lat="45.02107" lon="5.59017">
        <ele>1596</ele>
        <time>2010-06-20T08:24:28Z</time>
      </trkpt>
      <trkpt lat="45.0211" lon="5.59018">
        <ele>1596</ele>
        <time>2010-06-20T08:24:29Z</time>
      </trkpt>
      <trkpt lat="45.02112" lon="5.59018">
        <ele>1596</ele>
        <time>2010-06-20T08:24:30Z</time>
      </trkpt>
      <trkpt lat="45.02115" lon="5.59019">
        <ele>1596</ele>
        <time>2010-06-20T08:24:31Z</time>
      </trkpt>
      <trkpt lat="45.02118" lon="5.5902">
        <ele>1596</ele>
        <time>2010-06-20T08:24:32Z</time>
      </trkpt>
      <trkpt lat="45.02121" lon="5.5902">
        <ele>1596</ele>
        <time>2010-06-20T08:24:33Z</time>
      </trkpt>
      <trkpt lat="45.02124" lon="5.59021">
        <ele>1596</ele>
        <time>2010-06-20T08:24:34Z</time>
      </trkpt>
      <trkpt lat="45.02127" lon="5.59021">
        <ele>1596</ele>
        <time>2010-06-20T08:24:35Z</time>
      </trkpt>
      <trkpt lat="45.02129" lon="5.59021">
        <ele>1596</ele>
        <time>2010-06-20T08:24:36Z</time>
      </trkpt>
      <trkpt lat="45.02132" lon="5.59021">
        <ele>1596</ele>
        <time>2010-06-20T08:24:37Z</time>
      </trkpt>
      <trkpt lat="45.02135" lon="5.59021">
        <ele>1596</ele>
        <time>2010-06-20T08:24:38Z</time>
      </trkpt>
      <trkpt lat="45.02138" lon="5.59021">
        <ele>1596</ele>
        <time>2010-06-20T08:24:39Z</time>
      </trkpt>
      <trkpt lat="45.02141" lon="5.59021">
        <ele>1596</ele>
        <time>2010-06-20T08:24:40Z</time>
      </trkpt>
      <trkpt lat="45.02144" lon="5.59021">
        <ele>1596</ele>
        <time>2010-06-20T08:24:41Z</time>
      </trkpt>
      <trkpt lat="45.02147" lon="5.59021">
        <ele>1596</ele>
        <time>2010-06-20T08:24:42Z</time>
      </trkpt>
      <trkpt lat="45.02149" lon="5.59021">
        <ele>1596</ele>
        <time>2010-06-20T08:24:43Z</time>
      </trkpt>
      <trkpt lat="45.02151" lon="5.59021">
        <ele>1596</ele>
        <time>2010-06-20T08:24:44Z</time>
      </trkpt>
      <trkpt lat="45.02154" lon="5.59021">
        <ele>1596</ele>
        <time>2010-06-20T08:24:45Z</time>
      </trkpt>
      <trkpt lat="45.02156" lon="5.59021">
        <ele>1596</ele>
        <time>2010-06-20T08:24:46Z</time>
      </trkpt>
      <trkpt lat="45.02159" lon="5.59021">
        <ele>1596</ele>
        <time>2010-06-20T08:24:47Z</time>
      </trkpt>
      <trkpt lat="45.02162" lon="5.59021">
        <ele>1596</ele>
        <time>2010-06-20T08:24:48Z</time>
      </trkpt>
      <trkpt lat="45.02164" lon="5.59022">
        <ele>1596</ele>
        <time>2010-06-20T08:24:49Z</time>
      </trkpt>
      <trkpt lat="45.02166" lon="5.59024">
        <ele>1596</ele>
        <time>2010-06-20T08:24:50Z</time>
      </trkpt>
      <trkpt lat="45.02169" lon="5.59025">
        <ele>1596</ele>
        <time>2010-06-20T08:24:51Z</time>
      </trkpt>
      <trkpt lat="45.02171" lon="5.59027">
        <ele>1596</ele>
        <time>2010-06-20T08:24:52Z</time>
      </trkpt>
      <trkpt lat="45.02173" lon="5.5903">
        <ele>1596</ele>
        <time>2010-06-20T08:24:53Z</time>
      </trkpt>
      <trkpt lat="45.02176" lon="5.59032">
        <ele>1597</ele>
        <time>2010-06-20T08:24:54Z</time>
      </trkpt>
      <trkpt lat="45.02178" lon="5.59035">
        <ele>1597</ele>
        <time>2010-06-20T08:24:55Z</time>
      </trkpt>
      <trkpt lat="45.02181" lon="5.59037">
        <ele>1597</ele>
        <time>2010-06-20T08:24:56Z</time>
      </trkpt>
      <trkpt lat="45.02183" lon="5.59039">
        <ele>1598</ele>
        <time>2010-06-20T08:24:57Z</time>
      </trkpt>
      <trkpt lat="45.02186" lon="5.59041">
        <ele>1598</ele>
        <time>2010-06-20T08:24:58Z</time>
      </trkpt>
      <trkpt lat="45.02188" lon="5.59044">
        <ele>1599</ele>
        <time>2010-06-20T08:24:59Z</time>
      </trkpt>
      <trkpt lat="45.0219" lon="5.59046">
        <ele>1599</ele>
        <time>2010-06-20T08:25:00Z</time>
      </trkpt>
      <trkpt lat="45.02192" lon="5.59049">
        <ele>1599</ele>
        <time>2010-06-20T08:25:01Z</time>
      </trkpt>
      <trkpt lat="45.02194" lon="5.59051">
        <ele>1599</ele>
        <time>2010-06-20T08:25:02Z</time>
      </trkpt>
      <trkpt lat="45.02197" lon="5.59052">
        <ele>1600</ele>
        <time>2010-06-20T08:25:03Z</time>
      </trkpt>
      <trkpt lat="45.022" lon="5.59053">
        <ele>1600</ele>
        <time>2010-06-20T08:25:04Z</time>
      </trkpt>
      <trkpt lat="45.02202" lon="5.59055">
        <ele>1600</ele>
        <time>2010-06-20T08:25:05Z</time>
      </trkpt>
      <trkpt lat="45.02205" lon="5.59056">
        <ele>1600</ele>
        <time>2010-06-20T08:25:06Z</time>
      </trkpt>
      <trkpt lat="45.02208" lon="5.59056">
        <ele>1600</ele>
        <time>2010-06-20T08:25:07Z</time>
      </trkpt>
      <trkpt lat="45.02211" lon="5.59057">
        <ele>1600</ele>
        <time>2010-06-20T08:25:08Z</time>
      </trkpt>
      <trkpt lat="45.02213" lon="5.59059">
        <ele>1600</ele>
        <time>2010-06-20T08:25:09Z</time>
      </trkpt>
      <trkpt lat="45.02216" lon="5.5906">
        <ele>1600</ele>
        <time>2010-06-20T08:25:10Z</time>
      </trkpt>
      <trkpt lat="45.02218" lon="5.59062">
        <ele>1600</ele>
        <time>2010-06-20T08:25:11Z</time>
      </trkpt>
      <trkpt lat="45.02221" lon="5.59063">
        <ele>1600</ele>
        <time>2010-06-20T08:25:12Z</time>
      </trkpt>
      <trkpt lat="45.02223" lon="5.59064">
        <ele>1600</ele>
        <time>2010-06-20T08:25:13Z</time>
      </trkpt>
      <trkpt lat="45.02225" lon="5.59065">
        <ele>1600</ele>
        <time>2010-06-20T08:25:14Z</time>
      </trkpt>
      <trkpt lat="45.02228" lon="5.59067">
        <ele>1600</ele>
        <time>2010-06-20T08:25:15Z</time>
      </trkpt>
      <trkpt lat="45.02231" lon="5.59068">
        <ele>1600</ele>
        <time>2010-06-20T08:25:16Z</time>
      </trkpt>
      <trkpt lat="45.02233" lon="5.59069">
        <ele>1600</ele>
        <time>2010-06-20T08:25:17Z</time>
      </trkpt>
      <trkpt lat="45.02235" lon="5.59069">
        <ele>1600</ele>
        <time>2010-06-20T08:25:18Z</time>
      </trkpt>
      <trkpt lat="45.02238" lon="5.5907">
        <ele>1600</ele>
        <time>2010-06-20T08:25:19Z</time>
      </trkpt>
      <trkpt lat="45.0224" lon="5.59072">
        <ele>1600</ele>
        <time>2010-06-20T08:25:20Z</time>
      </trkpt>
      <trkpt lat="45.02243" lon="5.59075">
        <ele>1600</ele>
        <time>2010-06-20T08:25:21Z</time>
      </trkpt>
      <trkpt lat="45.02246" lon="5.59077">
        <ele>1600</ele>
        <time>2010-06-20T08:25:22Z</time>
      </trkpt>
      <trkpt lat="45.02249" lon="5.59078">
        <ele>1600</ele>
        <time>2010-06-20T08:25:23Z</time>
      </trkpt>
      <trkpt lat="45.02252" lon="5.59079">
        <ele>1600</ele>
        <time>2010-06-20T08:25:24Z</time>
      </trkpt>
      <trkpt lat="45.02255" lon="5.59079">
        <ele>1600</ele>
        <time>2010-06-20T08:25:25Z</time>
      </trkpt>
      <trkpt lat="45.02258" lon="5.59079">
        <ele>1600</ele>
        <time>2010-06-20T08:25:26Z</time>
      </trkpt>
      <trkpt lat="45.0226" lon="5.59081">
        <ele>1600</ele>
        <time>2010-06-20T08:25:27Z</time>
      </trkpt>
      <trkpt lat="45.02263" lon="5.59083">
        <ele>1600</ele>
        <time>2010-06-20T08:25:28Z</time>
      </trkpt>
      <trkpt lat="45.02265" lon="5.59084">
        <ele>1600</ele>
        <time>2010-06-20T08:25:29Z</time>
      </trkpt>
      <trkpt lat="45.02268" lon="5.59084">
        <ele>1600</ele>
        <time>2010-06-20T08:25:30Z</time>
      </trkpt>
      <trkpt lat="45.02269" lon="5.59085">
        <ele>1600</ele>
        <time>2010-06-20T08:25:31Z</time>
      </trkpt>
      <trkpt lat="45.02272" lon="5.59085">
        <ele>1600</ele>
        <time>2010-06-20T08:25:32Z</time>
      </trkpt>
      <trkpt lat="45.02274" lon="5.59086">
        <ele>1600</ele>
        <time>2010-06-20T08:25:33Z</time>
      </trkpt>
      <trkpt lat="45.02277" lon="5.59087">
        <ele>1600</ele>
        <time>2010-06-20T08:25:34Z</time>
      </trkpt>
      <trkpt lat="45.0228" lon="5.59088">
        <ele>1600</ele>
        <time>2010-06-20T08:25:35Z</time>
      </trkpt>
      <trkpt lat="45.02282" lon="5.59088">
        <ele>1600</ele>
        <time>2010-06-20T08:25:36Z</time>
      </trkpt>
      <trkpt lat="45.02285" lon="5.59089">
        <ele>1600</ele>
        <time>2010-06-20T08:25:37Z</time>
      </trkpt>
      <trkpt lat="45.02287" lon="5.5909">
        <ele>1600</ele>
        <time>2010-06-20T08:25:38Z</time>
      </trkpt>
      <trkpt lat="45.0229" lon="5.5909">
        <ele>1600</ele>
        <time>2010-06-20T08:25:39Z</time>
      </trkpt>
      <trkpt lat="45.02292" lon="5.5909">
        <ele>1600</ele>
        <time>2010-06-20T08:25:40Z</time>
      </trkpt>
      <trkpt lat="45.02295" lon="5.59091">
        <ele>1600</ele>
        <time>2010-06-20T08:25:41Z</time>
      </trkpt>
      <trkpt lat="45.02297" lon="5.59093">
        <ele>1600</ele>
        <time>2010-06-20T08:25:42Z</time>
      </trkpt>
      <trkpt lat="45.02299" lon="5.59095">
        <ele>1600</ele>
        <time>2010-06-20T08:25:43Z</time>
      </trkpt>
      <trkpt lat="45.02301" lon="5.59096">
        <ele>1600</ele>
        <time>2010-06-20T08:25:44Z</time>
      </trkpt>
      <trkpt lat="45.02303" lon="5.59097">
        <ele>1600</ele>
        <time>2010-06-20T08:25:45Z</time>
      </trkpt>
      <trkpt lat="45.02306" lon="5.59099">
        <ele>1600</ele>
        <time>2010-06-20T08:25:46Z</time>
      </trkpt>
      <trkpt lat="45.02308" lon="5.59099">
        <ele>1600</ele>
        <time>2010-06-20T08:25:47Z</time>
      </trkpt>
      <trkpt lat="45.02309" lon="5.591">
        <ele>1600</ele>
        <time>2010-06-20T08:25:48Z</time>
      </trkpt>
      <trkpt lat="45.02311" lon="5.59101">
        <ele>1600</ele>
        <time>2010-06-20T08:25:49Z</time>
      </trkpt>
      <trkpt lat="45.02313" lon="5.59104">
        <ele>1600</ele>
        <time>2010-06-20T08:25:50Z</time>
      </trkpt>
      <trkpt lat="45.02315" lon="5.59107">
        <ele>1600</ele>
        <time>2010-06-20T08:25:51Z</time>
      </trkpt>
      <trkpt lat="45.02317" lon="5.5911">
        <ele>1600</ele>
        <time>2010-06-20T08:25:52Z</time>
      </trkpt>
      <trkpt lat="45.0232" lon="5.59112">
        <ele>1599</ele>
        <time>2010-06-20T08:25:53Z</time>
      </trkpt>
      <trkpt lat="45.02322" lon="5.59114">
        <ele>1598</ele>
        <time>2010-06-20T08:25:54Z</time>
      </trkpt>
      <trkpt lat="45.02325" lon="5.59116">
        <ele>1598</ele>
        <time>2010-06-20T08:25:55Z</time>
      </trkpt>
      <trkpt lat="45.02328" lon="5.59118">
        <ele>1598</ele>
        <time>2010-06-20T08:25:56Z</time>
      </trkpt>
      <trkpt lat="45.0233" lon="5.5912">
        <ele>1598</ele>
        <time>2010-06-20T08:25:57Z</time>
      </trkpt>
      <trkpt lat="45.02333" lon="5.59122">
        <ele>1598</ele>
        <time>2010-06-20T08:25:58Z</time>
      </trkpt>
      <trkpt lat="45.02336" lon="5.59123">
        <ele>1598</ele>
        <time>2010-06-20T08:25:59Z</time>
      </trkpt>
      <trkpt lat="45.02338" lon="5.59125">
        <ele>1598</ele>
        <time>2010-06-20T08:26:00Z</time>
      </trkpt>
      <trkpt lat="45.0234" lon="5.59126">
        <ele>1598</ele>
        <time>2010-06-20T08:26:01Z</time>
      </trkpt>
      <trkpt lat="45.02343" lon="5.59128">
        <ele>1598</ele>
        <time>2010-06-20T08:26:02Z</time>
      </trkpt>
      <trkpt lat="45.02346" lon="5.59129">
        <ele>1598</ele>
        <time>2010-06-20T08:26:03Z</time>
      </trkpt>
      <trkpt lat="45.02349" lon="5.5913">
        <ele>1598</ele>
        <time>2010-06-20T08:26:04Z</time>
      </trkpt>
      <trkpt lat="45.02351" lon="5.59132">
        <ele>1598</ele>
        <time>2010-06-20T08:26:05Z</time>
      </trkpt>
      <trkpt lat="45.02354" lon="5.59132">
        <ele>1598</ele>
        <time>2010-06-20T08:26:06Z</time>
      </trkpt>
      <trkpt lat="45.02357" lon="5.59133">
        <ele>1598</ele>
        <time>2010-06-20T08:26:07Z</time>
      </trkpt>
      <trkpt lat="45.02359" lon="5.59134">
        <ele>1598</ele>
        <time>2010-06-20T08:26:08Z</time>
      </trkpt>
      <trkpt lat="45.02362" lon="5.59135">
        <ele>1598</ele>
        <time>2010-06-20T08:26:09Z</time>
      </trkpt>
      <trkpt lat="45.02365" lon="5.59136">
        <ele>1598</ele>
        <time>2010-06-20T08:26:10Z</time>
      </trkpt>
      <trkpt lat="45.02368" lon="5.59136">
        <ele>1598</ele>
        <time>2010-06-20T08:26:11Z</time>
      </trkpt>
      <trkpt lat="45.0237" lon="5.59136">
        <ele>1598</ele>
        <time>2010-06-20T08:26:12Z</time>
      </trkpt>
      <trkpt lat="45.02373" lon="5.59136">
        <ele>1598</ele>
        <time>2010-06-20T08:26:13Z</time>
      </trkpt>
      <trkpt lat="45.02376" lon="5.59137">
        <ele>1599</ele>
        <time>2010-06-20T08:26:14Z</time>
      </trkpt>
      <trkpt lat="45.02379" lon="5.59138">
        <ele>1599</ele>
        <time>2010-06-20T08:26:15Z</time>
      </trkpt>
      <trkpt lat="45.02383" lon="5.59139">
        <ele>1599</ele>
        <time>2010-06-20T08:26:16Z</time>
      </trkpt>
      <trkpt lat="45.02386" lon="5.5914">
        <ele>1599</ele>
        <time>2010-06-20T08:26:17Z</time>
      </trkpt>
      <trkpt lat="45.02389" lon="5.59141">
        <ele>1599</ele>
        <time>2010-06-20T08:26:18Z</time>
      </trkpt>
      <trkpt lat="45.02391" lon="5.59142">
        <ele>1599</ele>
        <time>2010-06-20T08:26:19Z</time>
      </trkpt>
      <trkpt lat="45.02394" lon="5.59143">
        <ele>1599</ele>
        <time>2010-06-20T08:26:20Z</time>
      </trkpt>
      <trkpt lat="45.02396" lon="5.59144">
        <ele>1600</ele>
        <time>2010-06-20T08:26:21Z</time>
      </trkpt>
      <trkpt lat="45.02398" lon="5.59145">
        <ele>1600</ele>
        <time>2010-06-20T08:26:22Z</time>
      </trkpt>
      <trkpt lat="45.02401" lon="5.59144">
        <ele>1600</ele>
        <time>2010-06-20T08:26:23Z</time>
      </trkpt>
      <trkpt lat="45.02404" lon="5.59146">
        <ele>1600</ele>
        <time>2010-06-20T08:26:24Z</time>
      </trkpt>
      <trkpt lat="45.02406" lon="5.59149">
        <ele>1600</ele>
        <time>2010-06-20T08:26:25Z</time>
      </trkpt>
      <trkpt lat="45.02408" lon="5.59153">
        <ele>1600</ele>
        <time>2010-06-20T08:26:26Z</time>
      </trkpt>
      <trkpt lat="45.0241" lon="5.59155">
        <ele>1600</ele>
        <time>2010-06-20T08:26:27Z</time>
      </trkpt>
      <trkpt lat="45.02412" lon="5.59158">
        <ele>1600</ele>
        <time>2010-06-20T08:26:28Z</time>
      </trkpt>
      <trkpt lat="45.02416" lon="5.59158">
        <ele>1600</ele>
        <time>2010-06-20T08:26:29Z</time>
      </trkpt>
      <trkpt lat="45.02419" lon="5.59158">
        <ele>1600</ele>
        <time>2010-06-20T08:26:30Z</time>
      </trkpt>
      <trkpt lat="45.02422" lon="5.59159">
        <ele>1600</ele>
        <time>2010-06-20T08:26:31Z</time>
      </trkpt>
      <trkpt lat="45.02425" lon="5.59161">
        <ele>1600</ele>
        <time>2010-06-20T08:26:32Z</time>
      </trkpt>
      <trkpt lat="45.02427" lon="5.59163">
        <ele>1600</ele>
        <time>2010-06-20T08:26:33Z</time>
      </trkpt>
      <trkpt lat="45.0243" lon="5.59166">
        <ele>1600</ele>
        <time>2010-06-20T08:26:34Z</time>
      </trkpt>
      <trkpt lat="45.02433" lon="5.59166">
        <ele>1600</ele>
        <time>2010-06-20T08:26:35Z</time>
      </trkpt>
      <trkpt lat="45.02436" lon="5.59167">
        <ele>1600</ele>
        <time>2010-06-20T08:26:36Z</time>
      </trkpt>
      <trkpt lat="45.02439" lon="5.59167">
        <ele>1600</ele>
        <time>2010-06-20T08:26:37Z</time>
      </trkpt>
      <trkpt lat="45.02441" lon="5.59169">
        <ele>1600</ele>
        <time>2010-06-20T08:26:38Z</time>
      </trkpt>
      <trkpt lat="45.02444" lon="5.5917">
        <ele>1600</ele>
        <time>2010-06-20T08:26:39Z</time>
      </trkpt>
      <trkpt lat="45.02447" lon="5.5917">
        <ele>1600</ele>
        <time>2010-06-20T08:26:40Z</time>
      </trkpt>
      <trkpt lat="45.0245" lon="5.59171">
        <ele>1600</ele>
        <time>2010-06-20T08:26:41Z</time>
      </trkpt>
      <trkpt lat="45.02452" lon="5.59173">
        <ele>1600</ele>
        <time>2010-06-20T08:26:42Z</time>
      </trkpt>
      <trkpt lat="45.02455" lon="5.59174">
        <ele>1600</ele>
        <time>2010-06-20T08:26:43Z</time>
      </trkpt>
      <trkpt lat="45.02458" lon="5.59175">
        <ele>1600</ele>
        <time>2010-06-20T08:26:44Z</time>
      </trkpt>
      <trkpt lat="45.02461" lon="5.59176">
        <ele>1600</ele>
        <time>2010-06-20T08:26:45Z</time>
      </trkpt>
      <trkpt lat="45.02464" lon="5.59176">
        <ele>1600</ele>
        <time>2010-06-20T08:26:46Z</time>
      </trkpt>
      <trkpt lat="45.02466" lon="5.59177">
        <ele>1600</ele>
        <time>2010-06-20T08:26:47Z</time>
      </trkpt>
      <trkpt lat="45.02469" lon="5.59177">
        <ele>1600</ele>
        <time>2010-06-20T08:26:48Z</time>
      </trkpt>
      <trkpt lat="45.02471" lon="5.59178">
        <ele>1600</ele>
        <time>2010-06-20T08:26:49Z</time>
      </trkpt>
      <trkpt lat="45.02473" lon="5.59179">
        <ele>1600</ele>
        <time>2010-06-20T08:26:50Z</time>
      </trkpt>
      <trkpt lat="45.02476" lon="5.5918">
        <ele>1600</ele>
        <time>2010-06-20T08:26:51Z</time>
      </trkpt>
      <trkpt lat="45.0248" lon="5.5918">
        <ele>1600</ele>
        <time>2010-06-20T08:26:52Z</time>
      </trkpt>
      <trkpt lat="45.02483" lon="5.5918">
        <ele>1600</ele>
        <time>2010-06-20T08:26:53Z</time>
      </trkpt>
      <trkpt lat="45.02485" lon="5.59182">
        <ele>1600</ele>
        <time>2010-06-20T08:26:54Z</time>
      </trkpt>
      <trkpt lat="45.02487" lon="5.59184">
        <ele>1600</ele>
        <time>2010-06-20T08:26:55Z</time>
      </trkpt>
      <trkpt lat="45.02489" lon="5.59185">
        <ele>1600</ele>
        <time>2010-06-20T08:26:56Z</time>
      </trkpt>
      <trkpt lat="45.02493" lon="5.59186">
        <ele>1600</ele>
        <time>2010-06-20T08:26:57Z</time>
      </trkpt>
      <trkpt lat="45.02495" lon="5.59188">
        <ele>1600</ele>
        <time>2010-06-20T08:26:58Z</time>
      </trkpt>
      <trkpt lat="45.02497" lon="5.5919">
        <ele>1600</ele>
        <time>2010-06-20T08:26:59Z</time>
      </trkpt>
      <trkpt lat="45.02499" lon="5.59191">
        <ele>1600</ele>
        <time>2010-06-20T08:27:00Z</time>
      </trkpt>
      <trkpt lat="45.02502" lon="5.59193">
        <ele>1599</ele>
        <time>2010-06-20T08:27:01Z</time>
      </trkpt>
      <trkpt lat="45.02505" lon="5.59194">
        <ele>1599</ele>
        <time>2010-06-20T08:27:02Z</time>
      </trkpt>
      <trkpt lat="45.02507" lon="5.59196">
        <ele>1599</ele>
        <time>2010-06-20T08:27:03Z</time>
      </trkpt>
      <trkpt lat="45.02511" lon="5.59196">
        <ele>1599</ele>
        <time>2010-06-20T08:27:04Z</time>
      </trkpt>
      <trkpt lat="45.02514" lon="5.59196">
        <ele>1599</ele>
        <time>2010-06-20T08:27:05Z</time>
      </trkpt>
      <trkpt lat="45.02517" lon="5.59197">
        <ele>1599</ele>
        <time>2010-06-20T08:27:06Z</time>
      </trkpt>
      <trkpt lat="45.02519" lon="5.59197">
        <ele>1599</ele>
        <time>2010-06-20T08:27:07Z</time>
      </trkpt>
      <trkpt lat="45.02522" lon="5.59198">
        <ele>1598</ele>
        <time>2010-06-20T08:27:08Z</time>
      </trkpt>
      <trkpt lat="45.02524" lon="5.592">
        <ele>1598</ele>
        <time>2010-06-20T08:27:09Z</time>
      </trkpt>
      <trkpt lat="45.02526" lon="5.59201">
        <ele>1598</ele>
        <time>2010-06-20T08:27:10Z</time>
      </trkpt>
      <trkpt lat="45.02526" lon="5.59203">
        <ele>1598</ele>
        <time>2010-06-20T08:27:11Z</time>
      </trkpt>
      <trkpt lat="45.02529" lon="5.59203">
        <ele>1598</ele>
        <time>2010-06-20T08:27:12Z</time>
      </trkpt>
      <trkpt lat="45.02533" lon="5.59202">
        <ele>1598</ele>
        <time>2010-06-20T08:27:13Z</time>
      </trkpt>
      <trkpt lat="45.02536" lon="5.59204">
        <ele>1598</ele>
        <time>2010-06-20T08:27:14Z</time>
      </trkpt>
      <trkpt lat="45.02538" lon="5.59207">
        <ele>1598</ele>
        <time>2010-06-20T08:27:15Z</time>
      </trkpt>
      <trkpt lat="45.02541" lon="5.59208">
        <ele>1598</ele>
        <time>2010-06-20T08:27:16Z</time>
      </trkpt>
      <trkpt lat="45.02544" lon="5.59209">
        <ele>1598</ele>
        <time>2010-06-20T08:27:17Z</time>
      </trkpt>
      <trkpt lat="45.02547" lon="5.5921">
        <ele>1598</ele>
        <time>2010-06-20T08:27:18Z</time>
      </trkpt>
      <trkpt lat="45.0255" lon="5.59213">
        <ele>1598</ele>
        <time>2010-06-20T08:27:19Z</time>
      </trkpt>
      <trkpt lat="45.02553" lon="5.59214">
        <ele>1598</ele>
        <time>2010-06-20T08:27:20Z</time>
      </trkpt>
      <trkpt lat="45.02555" lon="5.59215">
        <ele>1598</ele>
        <time>2010-06-20T08:27:21Z</time>
      </trkpt>
      <trkpt lat="45.02558" lon="5.59216">
        <ele>1598</ele>
        <time>2010-06-20T08:27:22Z</time>
      </trkpt>
      <trkpt lat="45.02561" lon="5.59217">
        <ele>1598</ele>
        <time>2010-06-20T08:27:23Z</time>
      </trkpt>
      <trkpt lat="45.02564" lon="5.59219">
        <ele>1598</ele>
        <time>2010-06-20T08:27:24Z</time>
      </trkpt>
      <trkpt lat="45.02567" lon="5.59221">
        <ele>1598</ele>
        <time>2010-06-20T08:27:25Z</time>
      </trkpt>
      <trkpt lat="45.0257" lon="5.59225">
        <ele>1598</ele>
        <time>2010-06-20T08:27:26Z</time>
      </trkpt>
      <trkpt lat="45.02572" lon="5.59228">
        <ele>1598</ele>
        <time>2010-06-20T08:27:27Z</time>
      </trkpt>
      <trkpt lat="45.02575" lon="5.59232">
        <ele>1598</ele>
        <time>2010-06-20T08:27:28Z</time>
      </trkpt>
      <trkpt lat="45.02577" lon="5.59234">
        <ele>1598</ele>
        <time>2010-06-20T08:27:29Z</time>
      </trkpt>
      <trkpt lat="45.02578" lon="5.59236">
        <ele>1598</ele>
        <time>2010-06-20T08:27:30Z</time>
      </trkpt>
      <trkpt lat="45.0258" lon="5.59239">
        <ele>1598</ele>
        <time>2010-06-20T08:27:31Z</time>
      </trkpt>
      <trkpt lat="45.02581" lon="5.59241">
        <ele>1598</ele>
        <time>2010-06-20T08:27:32Z</time>
      </trkpt>
      <trkpt lat="45.02583" lon="5.59243">
        <ele>1598</ele>
        <time>2010-06-20T08:27:33Z</time>
      </trkpt>
      <trkpt lat="45.02586" lon="5.59244">
        <ele>1598</ele>
        <time>2010-06-20T08:27:34Z</time>
      </trkpt>
      <trkpt lat="45.02588" lon="5.59246">
        <ele>1598</ele>
        <time>2010-06-20T08:27:35Z</time>
      </trkpt>
      <trkpt lat="45.02592" lon="5.59247">
        <ele>1598</ele>
        <time>2010-06-20T08:27:36Z</time>
      </trkpt>
      <trkpt lat="45.02594" lon="5.59249">
        <ele>1598</ele>
        <time>2010-06-20T08:27:37Z</time>
      </trkpt>
      <trkpt lat="45.02597" lon="5.5925">
        <ele>1598</ele>
        <time>2010-06-20T08:27:38Z</time>
      </trkpt>
      <trkpt lat="45.026" lon="5.59252">
        <ele>1598</ele>
        <time>2010-06-20T08:27:39Z</time>
      </trkpt>
      <trkpt lat="45.02602" lon="5.59254">
        <ele>1598</ele>
        <time>2010-06-20T08:27:40Z</time>
      </trkpt>
      <trkpt lat="45.02604" lon="5.59255">
        <ele>1598</ele>
        <time>2010-06-20T08:27:41Z</time>
      </trkpt>
      <trkpt lat="45.02606" lon="5.59257">
        <ele>1598</ele>
        <time>2010-06-20T08:27:42Z</time>
      </trkpt>
      <trkpt lat="45.02608" lon="5.59258">
        <ele>1598</ele>
        <time>2010-06-20T08:27:43Z</time>
      </trkpt>
      <trkpt lat="45.0261" lon="5.59261">
        <ele>1598</ele>
        <time>2010-06-20T08:27:44Z</time>
      </trkpt>
      <trkpt lat="45.02613" lon="5.59263">
        <ele>1598</ele>
        <time>2010-06-20T08:27:45Z</time>
      </trkpt>
      <trkpt lat="45.02616" lon="5.59265">
        <ele>1598</ele>
        <time>2010-06-20T08:27:46Z</time>
      </trkpt>
      <trkpt lat="45.02618" lon="5.59267">
        <ele>1598</ele>
        <time>2010-06-20T08:27:47Z</time>
      </trkpt>
      <trkpt lat="45.0262" lon="5.59268">
        <ele>1598</ele>
        <time>2010-06-20T08:27:48Z</time>
      </trkpt>
      <trkpt lat="45.02622" lon="5.5927">
        <ele>1598</ele>
        <time>2010-06-20T08:27:49Z</time>
      </trkpt>
      <trkpt lat="45.02624" lon="5.59271">
        <ele>1598</ele>
        <time>2010-06-20T08:27:50Z</time>
      </trkpt>
      <trkpt lat="45.02627" lon="5.59273">
        <ele>1598</ele>
        <time>2010-06-20T08:27:51Z</time>
      </trkpt>
      <trkpt lat="45.0263" lon="5.59274">
        <ele>1598</ele>
        <time>2010-06-20T08:27:52Z</time>
      </trkpt>
      <trkpt lat="45.02632" lon="5.59275">
        <ele>1598</ele>
        <time>2010-06-20T08:27:53Z</time>
      </trkpt>
      <trkpt lat="45.02634" lon="5.59276">
        <ele>1598</ele>
        <time>2010-06-20T08:27:54Z</time>
      </trkpt>
      <trkpt lat="45.02637" lon="5.59277">
        <ele>1598</ele>
        <time>2010-06-20T08:27:55Z</time>
      </trkpt>
      <trkpt lat="45.02639" lon="5.59279">
        <ele>1598</ele>
        <time>2010-06-20T08:27:56Z</time>
      </trkpt>
      <trkpt lat="45.02641" lon="5.5928">
        <ele>1598</ele>
        <time>2010-06-20T08:27:57Z</time>
      </trkpt>
      <trkpt lat="45.02643" lon="5.59282">
        <ele>1598</ele>
        <time>2010-06-20T08:27:58Z</time>
      </trkpt>
      <trkpt lat="45.02645" lon="5.59284">
        <ele>1598</ele>
        <time>2010-06-20T08:27:59Z</time>
      </trkpt>
      <trkpt lat="45.02648" lon="5.59285">
        <ele>1598</ele>
        <time>2010-06-20T08:28:00Z</time>
      </trkpt>
      <trkpt lat="45.0265" lon="5.59287">
        <ele>1598</ele>
        <time>2010-06-20T08:28:01Z</time>
      </trkpt>
      <trkpt lat="45.02653" lon="5.59289">
        <ele>1598</ele>
        <time>2010-06-20T08:28:02Z</time>
      </trkpt>
      <trkpt lat="45.02655" lon="5.59291">
        <ele>1598</ele>
        <time>2010-06-20T08:28:03Z</time>
      </trkpt>
      <trkpt lat="45.02657" lon="5.59292">
        <ele>1598</ele>
        <time>2010-06-20T08:28:04Z</time>
      </trkpt>
      <trkpt lat="45.02659" lon="5.59294">
        <ele>1598</ele>
        <time>2010-06-20T08:28:05Z</time>
      </trkpt>
      <trkpt lat="45.0266" lon="5.59295">
        <ele>1598</ele>
        <time>2010-06-20T08:28:06Z</time>
      </trkpt>
      <trkpt lat="45.02663" lon="5.59296">
        <ele>1598</ele>
        <time>2010-06-20T08:28:07Z</time>
      </trkpt>
      <trkpt lat="45.02665" lon="5.59297">
        <ele>1598</ele>
        <time>2010-06-20T08:28:08Z</time>
      </trkpt>
      <trkpt lat="45.02668" lon="5.59297">
        <ele>1598</ele>
        <time>2010-06-20T08:28:09Z</time>
      </trkpt>
      <trkpt lat="45.0267" lon="5.59298">
        <ele>1598</ele>
        <time>2010-06-20T08:28:10Z</time>
      </trkpt>
      <trkpt lat="45.02673" lon="5.59299">
        <ele>1598</ele>
        <time>2010-06-20T08:28:11Z</time>
      </trkpt>
      <trkpt lat="45.02677" lon="5.593">
        <ele>1598</ele>
        <time>2010-06-20T08:28:12Z</time>
      </trkpt>
      <trkpt lat="45.0268" lon="5.59302">
        <ele>1598</ele>
        <time>2010-06-20T08:28:13Z</time>
      </trkpt>
      <trkpt lat="45.02682" lon="5.59303">
        <ele>1598</ele>
        <time>2010-06-20T08:28:14Z</time>
      </trkpt>
      <trkpt lat="45.02684" lon="5.59304">
        <ele>1598</ele>
        <time>2010-06-20T08:28:15Z</time>
      </trkpt>
      <trkpt lat="45.02687" lon="5.59305">
        <ele>1598</ele>
        <time>2010-06-20T08:28:16Z</time>
      </trkpt>
      <trkpt lat="45.0269" lon="5.59305">
        <ele>1598</ele>
        <time>2010-06-20T08:28:17Z</time>
      </trkpt>
      <trkpt lat="45.02693" lon="5.59305">
        <ele>1598</ele>
        <time>2010-06-20T08:28:18Z</time>
      </trkpt>
      <trkpt lat="45.02696" lon="5.59305">
        <ele>1598</ele>
        <time>2010-06-20T08:28:19Z</time>
      </trkpt>
      <trkpt lat="45.02698" lon="5.59306">
        <ele>1598</ele>
        <time>2010-06-20T08:28:20Z</time>
      </trkpt>
      <trkpt lat="45.02701" lon="5.59308">
        <ele>1598</ele>
        <time>2010-06-20T08:28:21Z</time>
      </trkpt>
      <trkpt lat="45.02703" lon="5.59309">
        <ele>1598</ele>
        <time>2010-06-20T08:28:22Z</time>
      </trkpt>
      <trkpt lat="45.02705" lon="5.59311">
        <ele>1598</ele>
        <time>2010-06-20T08:28:23Z</time>
      </trkpt>
      <trkpt lat="45.02707" lon="5.59311">
        <ele>1598</ele>
        <time>2010-06-20T08:28:24Z</time>
      </trkpt>
      <trkpt lat="45.02709" lon="5.59311">
        <ele>1598</ele>
        <time>2010-06-20T08:28:25Z</time>
      </trkpt>
      <trkpt lat="45.02711" lon="5.59313">
        <ele>1598</ele>
        <time>2010-06-20T08:28:26Z</time>
      </trkpt>
      <trkpt lat="45.02714" lon="5.59315">
        <ele>1598</ele>
        <time>2010-06-20T08:28:27Z</time>
      </trkpt>
      <trkpt lat="45.02717" lon="5.59317">
        <ele>1598</ele>
        <time>2010-06-20T08:28:28Z</time>
      </trkpt>
      <trkpt lat="45.02719" lon="5.59318">
        <ele>1598</ele>
        <time>2010-06-20T08:28:29Z</time>
      </trkpt>
      <trkpt lat="45.02722" lon="5.5932">
        <ele>1598</ele>
        <time>2010-06-20T08:28:30Z</time>
      </trkpt>
      <trkpt lat="45.02724" lon="5.59321">
        <ele>1598</ele>
        <time>2010-06-20T08:28:31Z</time>
      </trkpt>
      <trkpt lat="45.02727" lon="5.59321">
        <ele>1598</ele>
        <time>2010-06-20T08:28:32Z</time>
      </trkpt>
      <trkpt lat="45.02729" lon="5.59322">
        <ele>1598</ele>
        <time>2010-06-20T08:28:33Z</time>
      </trkpt>
      <trkpt lat="45.02731" lon="5.59323">
        <ele>1598</ele>
        <time>2010-06-20T08:28:34Z</time>
      </trkpt>
      <trkpt lat="45.02733" lon="5.59324">
        <ele>1598</ele>
        <time>2010-06-20T08:28:35Z</time>
      </trkpt>
      <trkpt lat="45.02735" lon="5.59324">
        <ele>1598</ele>
        <time>2010-06-20T08:28:36Z</time>
      </trkpt>
      <trkpt lat="45.02738" lon="5.59324">
        <ele>1598</ele>
        <time>2010-06-20T08:28:37Z</time>
      </trkpt>
      <trkpt lat="45.0274" lon="5.59325">
        <ele>1598</ele>
        <time>2010-06-20T08:28:38Z</time>
      </trkpt>
      <trkpt lat="45.02743" lon="5.59327">
        <ele>1598</ele>
        <time>2010-06-20T08:28:39Z</time>
      </trkpt>
      <trkpt lat="45.02745" lon="5.59328">
        <ele>1598</ele>
        <time>2010-06-20T08:28:40Z</time>
      </trkpt>
      <trkpt lat="45.02748" lon="5.59328">
        <ele>1598</ele>
        <time>2010-06-20T08:28:41Z</time>
      </trkpt>
      <trkpt lat="45.0275" lon="5.59329">
        <ele>1598</ele>
        <time>2010-06-20T08:28:42Z</time>
      </trkpt>
      <trkpt lat="45.02752" lon="5.5933">
        <ele>1598</ele>
        <time>2010-06-20T08:28:43Z</time>
      </trkpt>
      <trkpt lat="45.02754" lon="5.59332">
        <ele>1598</ele>
        <time>2010-06-20T08:28:44Z</time>
      </trkpt>
      <trkpt lat="45.02757" lon="5.59335">
        <ele>1598</ele>
        <time>2010-06-20T08:28:45Z</time>
      </trkpt>
      <trkpt lat="45.0276" lon="5.59336">
        <ele>1598</ele>
        <time>2010-06-20T08:28:46Z</time>
      </trkpt>
      <trkpt lat="45.02763" lon="5.59337">
        <ele>1598</ele>
        <time>2010-06-20T08:28:47Z</time>
      </trkpt>
      <trkpt lat="45.02765" lon="5.59338">
        <ele>1598</ele>
        <time>2010-06-20T08:28:48Z</time>
      </trkpt>
      <trkpt lat="45.02768" lon="5.59339">
        <ele>1598</ele>
        <time>2010-06-20T08:28:49Z</time>
      </trkpt>
      <trkpt lat="45.0277" lon="5.59339">
        <ele>1598</ele>
        <time>2010-06-20T08:28:50Z</time>
      </trkpt>
      <trkpt lat="45.02773" lon="5.5934">
        <ele>1598</ele>
        <time>2010-06-20T08:28:51Z</time>
      </trkpt>
      <trkpt lat="45.02775" lon="5.5934">
        <ele>1598</ele>
        <time>2010-06-20T08:28:52Z</time>
      </trkpt>
      <trkpt lat="45.02778" lon="5.5934">
        <ele>1598</ele>
        <time>2010-06-20T08:28:53Z</time>
      </trkpt>
      <trkpt lat="45.02781" lon="5.5934">
        <ele>1598</ele>
        <time>2010-06-20T08:28:54Z</time>
      </trkpt>
      <trkpt lat="45.02784" lon="5.59341">
        <ele>1598</ele>
        <time>2010-06-20T08:28:55Z</time>
      </trkpt>
      <trkpt lat="45.02786" lon="5.59342">
        <ele>1598</ele>
        <time>2010-06-20T08:28:56Z</time>
      </trkpt>
      <trkpt lat="45.02789" lon="5.59344">
        <ele>1598</ele>
        <time>2010-06-20T08:28:57Z</time>
      </trkpt>
      <trkpt lat="45.02792" lon="5.59347">
        <ele>1598</ele>
        <time>2010-06-20T08:28:58Z</time>
      </trkpt>
      <trkpt lat="45.02795" lon="5.59348">
        <ele>1598</ele>
        <time>2010-06-20T08:28:59Z</time>
      </trkpt>
      <trkpt lat="45.02798" lon="5.5935">
        <ele>1598</ele>
        <time>2010-06-20T08:29:00Z</time>
      </trkpt>
      <trkpt lat="45.028" lon="5.59352">
        <ele>1598</ele>
        <time>2010-06-20T08:29:01Z</time>
      </trkpt>
      <trkpt lat="45.02803" lon="5.59355">
        <ele>1598</ele>
        <time>2010-06-20T08:29:02Z</time>
      </trkpt>
      <trkpt lat="45.02806" lon="5.59357">
        <ele>1598</ele>
        <time>2010-06-20T08:29:03Z</time>
      </trkpt>
      <trkpt lat="45.02808" lon="5.59359">
        <ele>1598</ele>
        <time>2010-06-20T08:29:04Z</time>
      </trkpt>
      <trkpt lat="45.0281" lon="5.59361">
        <ele>1598</ele>
        <time>2010-06-20T08:29:05Z</time>
      </trkpt>
      <trkpt lat="45.02812" lon="5.59364">
        <ele>1598</ele>
        <time>2010-06-20T08:29:06Z</time>
      </trkpt>
      <trkpt lat="45.02814" lon="5.59366">
        <ele>1598</ele>
        <time>2010-06-20T08:29:07Z</time>
      </trkpt>
      <trkpt lat="45.02816" lon="5.59368">
        <ele>1598</ele>
        <time>2010-06-20T08:29:08Z</time>
      </trkpt>
      <trkpt lat="45.02818" lon="5.59369">
        <ele>1598</ele>
        <time>2010-06-20T08:29:09Z</time>
      </trkpt>
      <trkpt lat="45.02819" lon="5.5937">
        <ele>1598</ele>
        <time>2010-06-20T08:29:10Z</time>
      </trkpt>
      <trkpt lat="45.02822" lon="5.59372">
        <ele>1598</ele>
        <time>2010-06-20T08:29:11Z</time>
      </trkpt>
      <trkpt lat="45.02824" lon="5.59373">
        <ele>1598</ele>
        <time>2010-06-20T08:29:12Z</time>
      </trkpt>
      <trkpt lat="45.02826" lon="5.59375">
        <ele>1598</ele>
        <time>2010-06-20T08:29:13Z</time>
      </trkpt>
      <trkpt lat="45.02827" lon="5.59377">
        <ele>1598</ele>
        <time>2010-06-20T08:29:14Z</time>
      </trkpt>
      <trkpt lat="45.02829" lon="5.59379">
        <ele>1598</ele>
        <time>2010-06-20T08:29:15Z</time>
      </trkpt>
      <trkpt lat="45.02831" lon="5.5938">
        <ele>1598</ele>
        <time>2010-06-20T08:29:16Z</time>
      </trkpt>
      <trkpt lat="45.02833" lon="5.5938">
        <ele>1598</ele>
        <time>2010-06-20T08:29:17Z</time>
      </trkpt>
      <trkpt lat="45.02836" lon="5.59382">
        <ele>1598</ele>
        <time>2010-06-20T08:29:18Z</time>
      </trkpt>
      <trkpt lat="45.02838" lon="5.59384">
        <ele>1598</ele>
        <time>2010-06-20T08:29:19Z</time>
      </trkpt>
      <trkpt lat="45.0284" lon="5.59386">
        <ele>1598</ele>
        <time>2010-06-20T08:29:20Z</time>
      </trkpt>
      <trkpt lat="45.02842" lon="5.59387">
        <ele>1598</ele>
        <time>2010-06-20T08:29:21Z</time>
      </trkpt>
      <trkpt lat="45.02844" lon="5.59388">
        <ele>1598</ele>
        <time>2010-06-20T08:29:22Z</time>
      </trkpt>
      <trkpt lat="45.02847" lon="5.59388">
        <ele>1598</ele>
        <time>2010-06-20T08:29:23Z</time>
      </trkpt>
      <trkpt lat="45.02849" lon="5.59389">
        <ele>1598</ele>
        <time>2010-06-20T08:29:24Z</time>
      </trkpt>
      <trkpt lat="45.02852" lon="5.5939">
        <ele>1598</ele>
        <time>2010-06-20T08:29:25Z</time>
      </trkpt>
      <trkpt lat="45.02854" lon="5.5939">
        <ele>1598</ele>
        <time>2010-06-20T08:29:26Z</time>
      </trkpt>
      <trkpt lat="45.02857" lon="5.5939">
        <ele>1598</ele>
        <time>2010-06-20T08:29:27Z</time>
      </trkpt>
      <trkpt lat="45.02859" lon="5.5939">
        <ele>1598</ele>
        <time>2010-06-20T08:29:28Z</time>
      </trkpt>
      <trkpt lat="45.02862" lon="5.59391">
        <ele>1598</ele>
        <time>2010-06-20T08:29:29Z</time>
      </trkpt>
      <trkpt lat="45.02865" lon="5.59392">
        <ele>1598</ele>
        <time>2010-06-20T08:29:30Z</time>
      </trkpt>
      <trkpt lat="45.02868" lon="5.59394">
        <ele>1598</ele>
        <time>2010-06-20T08:29:31Z</time>
      </trkpt>
      <trkpt lat="45.02871" lon="5.59394">
        <ele>1598</ele>
        <time>2010-06-20T08:29:32Z</time>
      </trkpt>
      <trkpt lat="45.02874" lon="5.59394">
        <ele>1598</ele>
        <time>2010-06-20T08:29:33Z</time>
      </trkpt>
      <trkpt lat="45.02876" lon="5.59394">
        <ele>1598</ele>
        <time>2010-06-20T08:29:34Z</time>
      </trkpt>
      <trkpt lat="45.02878" lon="5.59395">
        <ele>1598</ele>
        <time>2010-06-20T08:29:35Z</time>
      </trkpt>
      <trkpt lat="45.02881" lon="5.59397">
        <ele>1598</ele>
        <time>2010-06-20T08:29:36Z</time>
      </trkpt>
      <trkpt lat="45.02884" lon="5.59399">
        <ele>1598</ele>
        <time>2010-06-20T08:29:37Z</time>
      </trkpt>
      <trkpt lat="45.02886" lon="5.59401">
        <ele>1598</ele>
        <time>2010-06-20T08:29:38Z</time>
      </trkpt>
      <trkpt lat="45.02889" lon="5.59403">
        <ele>1598</ele>
        <time>2010-06-20T08:29:39Z</time>
      </trkpt>
      <trkpt lat="45.02892" lon="5.59405">
        <ele>1598</ele>
        <time>2010-06-20T08:29:40Z</time>
      </trkpt>
      <trkpt lat="45.02895" lon="5.59406">
        <ele>1597</ele>
        <time>2010-06-20T08:29:41Z</time>
      </trkpt>
      <trkpt lat="45.02898" lon="5.59408">
        <ele>1597</ele>
        <time>2010-06-20T08:29:42Z</time>
      </trkpt>
      <trkpt lat="45.029" lon="5.5941">
        <ele>1597</ele>
        <time>2010-06-20T08:29:43Z</time>
      </trkpt>
      <trkpt lat="45.02903" lon="5.59411">
        <ele>1596</ele>
        <time>2010-06-20T08:29:44Z</time>
      </trkpt>
      <trkpt lat="45.02906" lon="5.59412">
        <ele>1596</ele>
        <time>2010-06-20T08:29:45Z</time>
      </trkpt>
      <trkpt lat="45.02909" lon="5.59413">
        <ele>1596</ele>
        <time>2010-06-20T08:29:46Z</time>
      </trkpt>
      <trkpt lat="45.02912" lon="5.59414">
        <ele>1596</ele>
        <time>2010-06-20T08:29:47Z</time>
      </trkpt>
      <trkpt lat="45.02914" lon="5.59416">
        <ele>1596</ele>
        <time>2010-06-20T08:29:48Z</time>
      </trkpt>
      <trkpt lat="45.02915" lon="5.59418">
        <ele>1596</ele>
        <time>2010-06-20T08:29:49Z</time>
      </trkpt>
      <trkpt lat="45.02917" lon="5.5942">
        <ele>1596</ele>
        <time>2010-06-20T08:29:50Z</time>
      </trkpt>
      <trkpt lat="45.02919" lon="5.59423">
        <ele>1596</ele>
        <time>2010-06-20T08:29:51Z</time>
      </trkpt>
      <trkpt lat="45.02921" lon="5.59425">
        <ele>1596</ele>
        <time>2010-06-20T08:29:52Z</time>
      </trkpt>
      <trkpt lat="45.02923" lon="5.59426">
        <ele>1596</ele>
        <time>2010-06-20T08:29:53Z</time>
      </trkpt>
      <trkpt lat="45.02926" lon="5.59427">
        <ele>1596</ele>
        <time>2010-06-20T08:29:54Z</time>
      </trkpt>
      <trkpt lat="45.02928" lon="5.5943">
        <ele>1596</ele>
        <time>2010-06-20T08:29:55Z</time>
      </trkpt>
      <trkpt lat="45.0293" lon="5.59432">
        <ele>1596</ele>
        <time>2010-06-20T08:29:56Z</time>
      </trkpt>
      <trkpt lat="45.02932" lon="5.59435">
        <ele>1596</ele>
        <time>2010-06-20T08:29:57Z</time>
      </trkpt>
      <trkpt lat="45.02934" lon="5.59437">
        <ele>1596</ele>
        <time>2010-06-20T08:29:58Z</time>
      </trkpt>
      <trkpt lat="45.02936" lon="5.5944">
        <ele>1596</ele>
        <time>2010-06-20T08:29:59Z</time>
      </trkpt>
      <trkpt lat="45.02938" lon="5.59443">
        <ele>1596</ele>
        <time>2010-06-20T08:30:00Z</time>
      </trkpt>
      <trkpt lat="45.0294" lon="5.59445">
        <ele>1596</ele>
        <time>2010-06-20T08:30:01Z</time>
      </trkpt>
      <trkpt lat="45.02942" lon="5.59447">
        <ele>1596</ele>
        <time>2010-06-20T08:30:02Z</time>
      </trkpt>
      <trkpt lat="45.02944" lon="5.59448">
        <ele>1596</ele>
        <time>2010-06-20T08:30:03Z</time>
      </trkpt>
      <trkpt lat="45.02946" lon="5.59449">
        <ele>1596</ele>
        <time>2010-06-20T08:30:04Z</time>
      </trkpt>
      <trkpt lat="45.02949" lon="5.59451">
        <ele>1596</ele>
        <time>2010-06-20T08:30:05Z</time>
      </trkpt>
      <trkpt lat="45.02951" lon="5.59452">
        <ele>1596</ele>
        <time>2010-06-20T08:30:06Z</time>
      </trkpt>
      <trkpt lat="45.02954" lon="5.59453">
        <ele>1596</ele>
        <time>2010-06-20T08:30:07Z</time>
      </trkpt>
      <trkpt lat="45.02957" lon="5.59454">
        <ele>1596</ele>
        <time>2010-06-20T08:30:08Z</time>
      </trkpt>
      <trkpt lat="45.02959" lon="5.59456">
        <ele>1596</ele>
        <time>2010-06-20T08:30:09Z</time>
      </trkpt>
      <trkpt lat="45.02962" lon="5.59458">
        <ele>1596</ele>
        <time>2010-06-20T08:30:10Z</time>
      </trkpt>
      <trkpt lat="45.02965" lon="5.59458">
        <ele>1597</ele>
        <time>2010-06-20T08:30:11Z</time>
      </trkpt>
      <trkpt lat="45.02968" lon="5.59458">
        <ele>1597</ele>
        <time>2010-06-20T08:30:12Z</time>
      </trkpt>
      <trkpt lat="45.0297" lon="5.59459">
        <ele>1597</ele>
        <time>2010-06-20T08:30:13Z</time>
      </trkpt>
      <trkpt lat="45.02972" lon="5.5946">
        <ele>1597</ele>
        <time>2010-06-20T08:30:14Z</time>
      </trkpt>
      <trkpt lat="45.02975" lon="5.59462">
        <ele>1597</ele>
        <time>2010-06-20T08:30:15Z</time>
      </trkpt>
      <trkpt lat="45.02977" lon="5.59464">
        <ele>1597</ele>
        <time>2010-06-20T08:30:16Z</time>
      </trkpt>
      <trkpt lat="45.02979" lon="5.59466">
        <ele>1597</ele>
        <time>2010-06-20T08:30:17Z</time>
      </trkpt>
      <trkpt lat="45.0298" lon="5.59467">
        <ele>1597</ele>
        <time>2010-06-20T08:30:18Z</time>
      </trkpt>
      <trkpt lat="45.02983" lon="5.59469">
        <ele>1597</ele>
        <time>2010-06-20T08:30:19Z</time>
      </trkpt>
      <trkpt lat="45.02985" lon="5.5947">
        <ele>1597</ele>
        <time>2010-06-20T08:30:20Z</time>
      </trkpt>
      <trkpt lat="45.02987" lon="5.59473">
        <ele>1597</ele>
        <time>2010-06-20T08:30:21Z</time>
      </trkpt>
      <trkpt lat="45.02989" lon="5.59475">
        <ele>1597</ele>
        <time>2010-06-20T08:30:22Z</time>
      </trkpt>
      <trkpt lat="45.02991" lon="5.59478">
        <ele>1597</ele>
        <time>2010-06-20T08:30:23Z</time>
      </trkpt>
      <trkpt lat="45.02993" lon="5.59481">
        <ele>1597</ele>
        <time>2010-06-20T08:30:24Z</time>
      </trkpt>
      <trkpt lat="45.02996" lon="5.59484">
        <ele>1597</ele>
        <time>2010-06-20T08:30:25Z</time>
      </trkpt>
      <trkpt lat="45.02997" lon="5.59487">
        <ele>1597</ele>
        <time>2010-06-20T08:30:26Z</time>
      </trkpt>
      <trkpt lat="45.02999" lon="5.59489">
        <ele>1597</ele>
        <time>2010-06-20T08:30:27Z</time>
      </trkpt>
      <trkpt lat="45.03001" lon="5.59491">
        <ele>1597</ele>
        <time>2010-06-20T08:30:28Z</time>
      </trkpt>
      <trkpt lat="45.03003" lon="5.59494">
        <ele>1597</ele>
        <time>2010-06-20T08:30:29Z</time>
      </trkpt>
      <trkpt lat="45.03005" lon="5.59496">
        <ele>1597</ele>
        <time>2010-06-20T08:30:30Z</time>
      </trkpt>
      <trkpt lat="45.03007" lon="5.59498">
        <ele>1597</ele>
        <time>2010-06-20T08:30:31Z</time>
      </trkpt>
      <trkpt lat="45.03009" lon="5.59501">
        <ele>1597</ele>
        <time>2010-06-20T08:30:32Z</time>
      </trkpt>
      <trkpt lat="45.03012" lon="5.59502">
        <ele>1597</ele>
        <time>2010-06-20T08:30:33Z</time>
      </trkpt>
      <trkpt lat="45.03014" lon="5.59503">
        <ele>1598</ele>
        <time>2010-06-20T08:30:34Z</time>
      </trkpt>
      <trkpt lat="45.03017" lon="5.59505">
        <ele>1598</ele>
        <time>2010-06-20T08:30:35Z</time>
      </trkpt>
      <trkpt lat="45.03019" lon="5.59507">
        <ele>1599</ele>
        <time>2010-06-20T08:30:36Z</time>
      </trkpt>
      <trkpt lat="45.03022" lon="5.59509">
        <ele>1599</ele>
        <time>2010-06-20T08:30:37Z</time>
      </trkpt>
      <trkpt lat="45.03025" lon="5.59511">
        <ele>1599</ele>
        <time>2010-06-20T08:30:38Z</time>
      </trkpt>
      <trkpt lat="45.03028" lon="5.59512">
        <ele>1599</ele>
        <time>2010-06-20T08:30:39Z</time>
      </trkpt>
      <trkpt lat="45.0303" lon="5.59514">
        <ele>1599</ele>
        <time>2010-06-20T08:30:40Z</time>
      </trkpt>
      <trkpt lat="45.03033" lon="5.59516">
        <ele>1599</ele>
        <time>2010-06-20T08:30:41Z</time>
      </trkpt>
      <trkpt lat="45.03035" lon="5.59517">
        <ele>1599</ele>
        <time>2010-06-20T08:30:42Z</time>
      </trkpt>
      <trkpt lat="45.03038" lon="5.59519">
        <ele>1599</ele>
        <time>2010-06-20T08:30:43Z</time>
      </trkpt>
      <trkpt lat="45.03041" lon="5.59521">
        <ele>1600</ele>
        <time>2010-06-20T08:30:44Z</time>
      </trkpt>
      <trkpt lat="45.03043" lon="5.59523">
        <ele>1600</ele>
        <time>2010-06-20T08:30:45Z</time>
      </trkpt>
      <trkpt lat="45.03046" lon="5.59525">
        <ele>1600</ele>
        <time>2010-06-20T08:30:46Z</time>
      </trkpt>
      <trkpt lat="45.03048" lon="5.59528">
        <ele>1600</ele>
        <time>2010-06-20T08:30:47Z</time>
      </trkpt>
      <trkpt lat="45.0305" lon="5.59531">
        <ele>1600</ele>
        <time>2010-06-20T08:30:48Z</time>
      </trkpt>
      <trkpt lat="45.03052" lon="5.59534">
        <ele>1600</ele>
        <time>2010-06-20T08:30:49Z</time>
      </trkpt>
      <trkpt lat="45.03054" lon="5.59537">
        <ele>1600</ele>
        <time>2010-06-20T08:30:50Z</time>
      </trkpt>
      <trkpt lat="45.03056" lon="5.5954">
        <ele>1600</ele>
        <time>2010-06-20T08:30:51Z</time>
      </trkpt>
      <trkpt lat="45.03058" lon="5.59542">
        <ele>1600</ele>
        <time>2010-06-20T08:30:52Z</time>
      </trkpt>
      <trkpt lat="45.0306" lon="5.59545">
        <ele>1600</ele>
        <time>2010-06-20T08:30:53Z</time>
      </trkpt>
      <trkpt lat="45.03062" lon="5.59548">
        <ele>1600</ele>
        <time>2010-06-20T08:30:54Z</time>
      </trkpt>
      <trkpt lat="45.03064" lon="5.59551">
        <ele>1600</ele>
        <time>2010-06-20T08:30:55Z</time>
      </trkpt>
      <trkpt lat="45.03065" lon="5.59554">
        <ele>1600</ele>
        <time>2010-06-20T08:30:56Z</time>
      </trkpt>
      <trkpt lat="45.03067" lon="5.59554">
        <ele>1600</ele>
        <time>2010-06-20T08:30:57Z</time>
      </trkpt>
      <trkpt lat="45.0307" lon="5.59556">
        <ele>1600</ele>
        <time>2010-06-20T08:30:58Z</time>
      </trkpt>
      <trkpt lat="45.03072" lon="5.59558">
        <ele>1600</ele>
        <time>2010-06-20T08:30:59Z</time>
      </trkpt>
      <trkpt lat="45.03075" lon="5.5956">
        <ele>1600</ele>
        <time>2010-06-20T08:31:00Z</time>
      </trkpt>
      <trkpt lat="45.03078" lon="5.59562">
        <ele>1600</ele>
        <time>2010-06-20T08:31:01Z</time>
      </trkpt>
      <trkpt lat="45.0308" lon="5.59564">
        <ele>1600</ele>
        <time>2010-06-20T08:31:02Z</time>
      </trkpt>
      <trkpt lat="45.03083" lon="5.59567">
        <ele>1600</ele>
        <time>2010-06-20T08:31:03Z</time>
      </trkpt>
      <trkpt lat="45.03085" lon="5.59569">
        <ele>1600</ele>
        <time>2010-06-20T08:31:04Z</time>
      </trkpt>
      <trkpt lat="45.03088" lon="5.59572">
        <ele>1600</ele>
        <time>2010-06-20T08:31:05Z</time>
      </trkpt>
      <trkpt lat="45.0309" lon="5.59575">
        <ele>1600</ele>
        <time>2010-06-20T08:31:06Z</time>
      </trkpt>
      <trkpt lat="45.03093" lon="5.59576">
        <ele>1600</ele>
        <time>2010-06-20T08:31:07Z</time>
      </trkpt>
      <trkpt lat="45.03096" lon="5.59576">
        <ele>1600</ele>
        <time>2010-06-20T08:31:08Z</time>
      </trkpt>
      <trkpt lat="45.03099" lon="5.59576">
        <ele>1600</ele>
        <time>2010-06-20T08:31:09Z</time>
      </trkpt>
      <trkpt lat="45.03101" lon="5.59577">
        <ele>1600</ele>
        <time>2010-06-20T08:31:10Z</time>
      </trkpt>
      <trkpt lat="45.03104" lon="5.59578">
        <ele>1600</ele>
        <time>2010-06-20T08:31:11Z</time>
      </trkpt>
      <trkpt lat="45.03107" lon="5.59579">
        <ele>1600</ele>
        <time>2010-06-20T08:31:12Z</time>
      </trkpt>
      <trkpt lat="45.0311" lon="5.59579">
        <ele>1600</ele>
        <time>2010-06-20T08:31:13Z</time>
      </trkpt>
      <trkpt lat="45.03112" lon="5.5958">
        <ele>1600</ele>
        <time>2010-06-20T08:31:14Z</time>
      </trkpt>
      <trkpt lat="45.03115" lon="5.5958">
        <ele>1600</ele>
        <time>2010-06-20T08:31:15Z</time>
      </trkpt>
      <trkpt lat="45.03117" lon="5.59581">
        <ele>1600</ele>
        <time>2010-06-20T08:31:16Z</time>
      </trkpt>
      <trkpt lat="45.03119" lon="5.59581">
        <ele>1600</ele>
        <time>2010-06-20T08:31:17Z</time>
      </trkpt>
      <trkpt lat="45.03121" lon="5.59582">
        <ele>1600</ele>
        <time>2010-06-20T08:31:18Z</time>
      </trkpt>
      <trkpt lat="45.03123" lon="5.59583">
        <ele>1600</ele>
        <time>2010-06-20T08:31:19Z</time>
      </trkpt>
      <trkpt lat="45.03126" lon="5.59584">
        <ele>1600</ele>
        <time>2010-06-20T08:31:20Z</time>
      </trkpt>
      <trkpt lat="45.03129" lon="5.59585">
        <ele>1600</ele>
        <time>2010-06-20T08:31:21Z</time>
      </trkpt>
      <trkpt lat="45.03133" lon="5.59586">
        <ele>1600</ele>
        <time>2010-06-20T08:31:22Z</time>
      </trkpt>
      <trkpt lat="45.03135" lon="5.59586">
        <ele>1600</ele>
        <time>2010-06-20T08:31:23Z</time>
      </trkpt>
      <trkpt lat="45.03137" lon="5.59586">
        <ele>1600</ele>
        <time>2010-06-20T08:31:24Z</time>
      </trkpt>
      <trkpt lat="45.03139" lon="5.59586">
        <ele>1600</ele>
        <time>2010-06-20T08:31:25Z</time>
      </trkpt>
      <trkpt lat="45.03141" lon="5.59588">
        <ele>1600</ele>
        <time>2010-06-20T08:31:26Z</time>
      </trkpt>
      <trkpt lat="45.03144" lon="5.5959">
        <ele>1600</ele>
        <time>2010-06-20T08:31:27Z</time>
      </trkpt>
      <trkpt lat="45.03146" lon="5.59592">
        <ele>1600</ele>
        <time>2010-06-20T08:31:28Z</time>
      </trkpt>
      <trkpt lat="45.03148" lon="5.59595">
        <ele>1599</ele>
        <time>2010-06-20T08:31:29Z</time>
      </trkpt>
      <trkpt lat="45.03151" lon="5.59597">
        <ele>1599</ele>
        <time>2010-06-20T08:31:30Z</time>
      </trkpt>
      <trkpt lat="45.03155" lon="5.59599">
        <ele>1599</ele>
        <time>2010-06-20T08:31:31Z</time>
      </trkpt>
      <trkpt lat="45.03158" lon="5.59601">
        <ele>1598</ele>
        <time>2010-06-20T08:31:32Z</time>
      </trkpt>
      <trkpt lat="45.0316" lon="5.59602">
        <ele>1598</ele>
        <time>2010-06-20T08:31:33Z</time>
      </trkpt>
      <trkpt lat="45.03163" lon="5.59604">
        <ele>1598</ele>
        <time>2010-06-20T08:31:34Z</time>
      </trkpt>
      <trkpt lat="45.03166" lon="5.59606">
        <ele>1597</ele>
        <time>2010-06-20T08:31:35Z</time>
      </trkpt>
      <trkpt lat="45.03168" lon="5.59608">
        <ele>1597</ele>
        <time>2010-06-20T08:31:36Z</time>
      </trkpt>
      <trkpt lat="45.03171" lon="5.5961">
        <ele>1596</ele>
        <time>2010-06-20T08:31:37Z</time>
      </trkpt>
      <trkpt lat="45.03174" lon="5.59612">
        <ele>1596</ele>
        <time>2010-06-20T08:31:38Z</time>
      </trkpt>
      <trkpt lat="45.03176" lon="5.59614">
        <ele>1596</ele>
        <time>2010-06-20T08:31:39Z</time>
      </trkpt>
      <trkpt lat="45.03179" lon="5.59616">
        <ele>1595</ele>
        <time>2010-06-20T08:31:40Z</time>
      </trkpt>
      <trkpt lat="45.03182" lon="5.59618">
        <ele>1595</ele>
        <time>2010-06-20T08:31:41Z</time>
      </trkpt>
      <trkpt lat="45.03185" lon="5.5962">
        <ele>1594</ele>
        <time>2010-06-20T08:31:42Z</time>
      </trkpt>
      <trkpt lat="45.03188" lon="5.59621">
        <ele>1594</ele>
        <time>2010-06-20T08:31:43Z</time>
      </trkpt>
      <trkpt lat="45.0319" lon="5.59622">
        <ele>1594</ele>
        <time>2010-06-20T08:31:44Z</time>
      </trkpt>
      <trkpt lat="45.03193" lon="5.59623">
        <ele>1594</ele>
        <time>2010-06-20T08:31:45Z</time>
      </trkpt>
      <trkpt lat="45.03196" lon="5.59624">
        <ele>1593</ele>
        <time>2010-06-20T08:31:46Z</time>
      </trkpt>
      <trkpt lat="45.03199" lon="5.59625">
        <ele>1593</ele>
        <time>2010-06-20T08:31:47Z</time>
      </trkpt>
      <trkpt lat="45.03202" lon="5.59627">
        <ele>1593</ele>
        <time>2010-06-20T08:31:48Z</time>
      </trkpt>
      <trkpt lat="45.03204" lon="5.59629">
        <ele>1593</ele>
        <time>2010-06-20T08:31:49Z</time>
      </trkpt>
      <trkpt lat="45.03206" lon="5.59631">
        <ele>1593</ele>
        <time>2010-06-20T08:31:50Z</time>
      </trkpt>
      <trkpt lat="45.03209" lon="5.59633">
        <ele>1593</ele>
        <time>2010-06-20T08:31:51Z</time>
      </trkpt>
      <trkpt lat="45.03212" lon="5.59635">
        <ele>1592</ele>
        <time>2010-06-20T08:31:52Z</time>
      </trkpt>
      <trkpt lat="45.03214" lon="5.59637">
        <ele>1592</ele>
        <time>2010-06-20T08:31:53Z</time>
      </trkpt>
      <trkpt lat="45.03217" lon="5.59639">
        <ele>1592</ele>
        <time>2010-06-20T08:31:54Z</time>
      </trkpt>
      <trkpt lat="45.0322" lon="5.5964">
        <ele>1591</ele>
        <time>2010-06-20T08:31:55Z</time>
      </trkpt>
      <trkpt lat="45.03223" lon="5.59641">
        <ele>1591</ele>
        <time>2010-06-20T08:31:56Z</time>
      </trkpt>
      <trkpt lat="45.03226" lon="5.59643">
        <ele>1591</ele>
        <time>2010-06-20T08:31:57Z</time>
      </trkpt>
      <trkpt lat="45.03228" lon="5.59644">
        <ele>1591</ele>
        <time>2010-06-20T08:31:58Z</time>
      </trkpt>
      <trkpt lat="45.03231" lon="5.59646">
        <ele>1590</ele>
        <time>2010-06-20T08:31:59Z</time>
      </trkpt>
      <trkpt lat="45.03235" lon="5.59647">
        <ele>1590</ele>
        <time>2010-06-20T08:32:00Z</time>
      </trkpt>
      <trkpt lat="45.03237" lon="5.59647">
        <ele>1590</ele>
        <time>2010-06-20T08:32:01Z</time>
      </trkpt>
      <trkpt lat="45.03239" lon="5.59648">
        <ele>1590</ele>
        <time>2010-06-20T08:32:02Z</time>
      </trkpt>
      <trkpt lat="45.03242" lon="5.59648">
        <ele>1590</ele>
        <time>2010-06-20T08:32:03Z</time>
      </trkpt>
      <trkpt lat="45.03244" lon="5.59648">
        <ele>1590</ele>
        <time>2010-06-20T08:32:04Z</time>
      </trkpt>
      <trkpt lat="45.03246" lon="5.59648">
        <ele>1589</ele>
        <time>2010-06-20T08:32:05Z</time>
      </trkpt>
      <trkpt lat="45.03248" lon="5.59649">
        <ele>1589</ele>
        <time>2010-06-20T08:32:06Z</time>
      </trkpt>
      <trkpt lat="45.0325" lon="5.59649">
        <ele>1589</ele>
        <time>2010-06-20T08:32:07Z</time>
      </trkpt>
      <trkpt lat="45.03252" lon="5.5965">
        <ele>1589</ele>
        <time>2010-06-20T08:32:08Z</time>
      </trkpt>
      <trkpt lat="45.03255" lon="5.59651">
        <ele>1589</ele>
        <time>2010-06-20T08:32:09Z</time>
      </trkpt>
      <trkpt lat="45.03257" lon="5.59653">
        <ele>1589</ele>
        <time>2010-06-20T08:32:10Z</time>
      </trkpt>
      <trkpt lat="45.0326" lon="5.59655">
        <ele>1589</ele>
        <time>2010-06-20T08:32:11Z</time>
      </trkpt>
      <trkpt lat="45.03262" lon="5.59658">
        <ele>1588</ele>
        <time>2010-06-20T08:32:12Z</time>
      </trkpt>
      <trkpt lat="45.03265" lon="5.5966">
        <ele>1588</ele>
        <time>2010-06-20T08:32:13Z</time>
      </trkpt>
      <trkpt lat="45.03267" lon="5.59663">
        <ele>1587</ele>
        <time>2010-06-20T08:32:14Z</time>
      </trkpt>
      <trkpt lat="45.0327" lon="5.59666">
        <ele>1587</ele>
        <time>2010-06-20T08:32:15Z</time>
      </trkpt>
      <trkpt lat="45.03273" lon="5.59668">
        <ele>1587</ele>
        <time>2010-06-20T08:32:16Z</time>
      </trkpt>
      <trkpt lat="45.03276" lon="5.5967">
        <ele>1586</ele>
        <time>2010-06-20T08:32:17Z</time>
      </trkpt>
      <trkpt lat="45.03278" lon="5.59672">
        <ele>1586</ele>
        <time>2010-06-20T08:32:18Z</time>
      </trkpt>
      <trkpt lat="45.03281" lon="5.59673">
        <ele>1586</ele>
        <time>2010-06-20T08:32:19Z</time>
      </trkpt>
      <trkpt lat="45.03284" lon="5.59676">
        <ele>1586</ele>
        <time>2010-06-20T08:32:20Z</time>
      </trkpt>
      <trkpt lat="45.03286" lon="5.59678">
        <ele>1586</ele>
        <time>2010-06-20T08:32:21Z</time>
      </trkpt>
      <trkpt lat="45.03289" lon="5.5968">
        <ele>1586</ele>
        <time>2010-06-20T08:32:22Z</time>
      </trkpt>
      <trkpt lat="45.03291" lon="5.59681">
        <ele>1586</ele>
        <time>2010-06-20T08:32:23Z</time>
      </trkpt>
      <trkpt lat="45.03294" lon="5.59682">
        <ele>1586</ele>
        <time>2010-06-20T08:32:24Z</time>
      </trkpt>
      <trkpt lat="45.03296" lon="5.59684">
        <ele>1586</ele>
        <time>2010-06-20T08:32:25Z</time>
      </trkpt>
      <trkpt lat="45.03298" lon="5.59687">
        <ele>1586</ele>
        <time>2010-06-20T08:32:26Z</time>
      </trkpt>
      <trkpt lat="45.03301" lon="5.5969">
        <ele>1586</ele>
        <time>2010-06-20T08:32:27Z</time>
      </trkpt>
      <trkpt lat="45.03302" lon="5.59693">
        <ele>1586</ele>
        <time>2010-06-20T08:32:28Z</time>
      </trkpt>
      <trkpt lat="45.03304" lon="5.59696">
        <ele>1586</ele>
        <time>2010-06-20T08:32:29Z</time>
      </trkpt>
      <trkpt lat="45.03307" lon="5.59698">
        <ele>1586</ele>
        <time>2010-06-20T08:32:30Z</time>
      </trkpt>
      <trkpt lat="45.0331" lon="5.59701">
        <ele>1586</ele>
        <time>2010-06-20T08:32:31Z</time>
      </trkpt>
      <trkpt lat="45.03312" lon="5.59703">
        <ele>1586</ele>
        <time>2010-06-20T08:32:32Z</time>
      </trkpt>
      <trkpt lat="45.03315" lon="5.59704">
        <ele>1586</ele>
        <time>2010-06-20T08:32:33Z</time>
      </trkpt>
      <trkpt lat="45.03317" lon="5.59705">
        <ele>1586</ele>
        <time>2010-06-20T08:32:34Z</time>
      </trkpt>
      <trkpt lat="45.03319" lon="5.59705">
        <ele>1586</ele>
        <time>2010-06-20T08:32:35Z</time>
      </trkpt>
      <trkpt lat="45.03321" lon="5.59706">
        <ele>1586</ele>
        <time>2010-06-20T08:32:36Z</time>
      </trkpt>
      <trkpt lat="45.03323" lon="5.59707">
        <ele>1586</ele>
        <time>2010-06-20T08:32:37Z</time>
      </trkpt>
      <trkpt lat="45.03325" lon="5.59708">
        <ele>1586</ele>
        <time>2010-06-20T08:32:38Z</time>
      </trkpt>
      <trkpt lat="45.03328" lon="5.59708">
        <ele>1586</ele>
        <time>2010-06-20T08:32:39Z</time>
      </trkpt>
      <trkpt lat="45.03331" lon="5.59709">
        <ele>1586</ele>
        <time>2010-06-20T08:32:40Z</time>
      </trkpt>
      <trkpt lat="45.03334" lon="5.5971">
        <ele>1586</ele>
        <time>2010-06-20T08:32:41Z</time>
      </trkpt>
      <trkpt lat="45.03336" lon="5.59711">
        <ele>1586</ele>
        <time>2010-06-20T08:32:42Z</time>
      </trkpt>
      <trkpt lat="45.03339" lon="5.59711">
        <ele>1586</ele>
        <time>2010-06-20T08:32:43Z</time>
      </trkpt>
      <trkpt lat="45.03342" lon="5.59711">
        <ele>1586</ele>
        <time>2010-06-20T08:32:44Z</time>
      </trkpt>
      <trkpt lat="45.03345" lon="5.59712">
        <ele>1586</ele>
        <time>2010-06-20T08:32:45Z</time>
      </trkpt>
      <trkpt lat="45.03348" lon="5.59714">
        <ele>1586</ele>
        <time>2010-06-20T08:32:46Z</time>
      </trkpt>
      <trkpt lat="45.03351" lon="5.59716">
        <ele>1586</ele>
        <time>2010-06-20T08:32:47Z</time>
      </trkpt>
      <trkpt lat="45.03353" lon="5.5972">
        <ele>1586</ele>
        <time>2010-06-20T08:32:48Z</time>
      </trkpt>
      <trkpt lat="45.03354" lon="5.59722">
        <ele>1585</ele>
        <time>2010-06-20T08:32:49Z</time>
      </trkpt>
      <trkpt lat="45.03356" lon="5.59726">
        <ele>1585</ele>
        <time>2010-06-20T08:32:50Z</time>
      </trkpt>
      <trkpt lat="45.03358" lon="5.59728">
        <ele>1585</ele>
        <time>2010-06-20T08:32:51Z</time>
      </trkpt>
      <trkpt lat="45.03361" lon="5.5973">
        <ele>1585</ele>
        <time>2010-06-20T08:32:52Z</time>
      </trkpt>
      <trkpt lat="45.03364" lon="5.59731">
        <ele>1585</ele>
        <time>2010-06-20T08:32:53Z</time>
      </trkpt>
      <trkpt lat="45.03366" lon="5.59733">
        <ele>1585</ele>
        <time>2010-06-20T08:32:54Z</time>
      </trkpt>
      <trkpt lat="45.03369" lon="5.59734">
        <ele>1585</ele>
        <time>2010-06-20T08:32:55Z</time>
      </trkpt>
      <trkpt lat="45.03372" lon="5.59736">
        <ele>1585</ele>
        <time>2010-06-20T08:32:56Z</time>
      </trkpt>
      <trkpt lat="45.03374" lon="5.59738">
        <ele>1585</ele>
        <time>2010-06-20T08:32:57Z</time>
      </trkpt>
      <trkpt lat="45.03377" lon="5.59741">
        <ele>1585</ele>
        <time>2010-06-20T08:32:58Z</time>
      </trkpt>
      <trkpt lat="45.03379" lon="5.59743">
        <ele>1585</ele>
        <time>2010-06-20T08:32:59Z</time>
      </trkpt>
      <trkpt lat="45.03382" lon="5.59745">
        <ele>1585</ele>
        <time>2010-06-20T08:33:00Z</time>
      </trkpt>
      <trkpt lat="45.03384" lon="5.59747">
        <ele>1584</ele>
        <time>2010-06-20T08:33:01Z</time>
      </trkpt>
      <trkpt lat="45.03387" lon="5.59749">
        <ele>1584</ele>
        <time>2010-06-20T08:33:02Z</time>
      </trkpt>
      <trkpt lat="45.03389" lon="5.59752">
        <ele>1584</ele>
        <time>2010-06-20T08:33:03Z</time>
      </trkpt>
      <trkpt lat="45.03392" lon="5.59754">
        <ele>1584</ele>
        <time>2010-06-20T08:33:04Z</time>
      </trkpt>
      <trkpt lat="45.03395" lon="5.59757">
        <ele>1583</ele>
        <time>2010-06-20T08:33:05Z</time>
      </trkpt>
      <trkpt lat="45.03397" lon="5.5976">
        <ele>1583</ele>
        <time>2010-06-20T08:33:06Z</time>
      </trkpt>
      <trkpt lat="45.034" lon="5.59763">
        <ele>1583</ele>
        <time>2010-06-20T08:33:07Z</time>
      </trkpt>
      <trkpt lat="45.03402" lon="5.59767">
        <ele>1582</ele>
        <time>2010-06-20T08:33:08Z</time>
      </trkpt>
      <trkpt lat="45.03403" lon="5.59771">
        <ele>1582</ele>
        <time>2010-06-20T08:33:09Z</time>
      </trkpt>
      <trkpt lat="45.03405" lon="5.59774">
        <ele>1582</ele>
        <time>2010-06-20T08:33:10Z</time>
      </trkpt>
      <trkpt lat="45.03407" lon="5.59778">
        <ele>1581</ele>
        <time>2010-06-20T08:33:11Z</time>
      </trkpt>
      <trkpt lat="45.03409" lon="5.59781">
        <ele>1581</ele>
        <time>2010-06-20T08:33:12Z</time>
      </trkpt>
      <trkpt lat="45.03411" lon="5.59783">
        <ele>1580</ele>
        <time>2010-06-20T08:33:13Z</time>
      </trkpt>
      <trkpt lat="45.03413" lon="5.59785">
        <ele>1580</ele>
        <time>2010-06-20T08:33:14Z</time>
      </trkpt>
      <trkpt lat="45.03415" lon="5.59786">
        <ele>1580</ele>
        <time>2010-06-20T08:33:15Z</time>
      </trkpt>
      <trkpt lat="45.03418" lon="5.59787">
        <ele>1580</ele>
        <time>2010-06-20T08:33:16Z</time>
      </trkpt>
      <trkpt lat="45.03422" lon="5.59788">
        <ele>1580</ele>
        <time>2010-06-20T08:33:17Z</time>
      </trkpt>
      <trkpt lat="45.03425" lon="5.59789">
        <ele>1580</ele>
        <time>2010-06-20T08:33:18Z</time>
      </trkpt>
      <trkpt lat="45.03427" lon="5.5979">
        <ele>1579</ele>
        <time>2010-06-20T08:33:19Z</time>
      </trkpt>
      <trkpt lat="45.03429" lon="5.5979">
        <ele>1579</ele>
        <time>2010-06-20T08:33:20Z</time>
      </trkpt>
      <trkpt lat="45.03431" lon="5.59789">
        <ele>1579</ele>
        <time>2010-06-20T08:33:21Z</time>
      </trkpt>
      <trkpt lat="45.03432" lon="5.5979">
        <ele>1579</ele>
        <time>2010-06-20T08:33:22Z</time>
      </trkpt>
      <trkpt lat="45.03435" lon="5.5979">
        <ele>1579</ele>
        <time>2010-06-20T08:33:23Z</time>
      </trkpt>
      <trkpt lat="45.03438" lon="5.5979">
        <ele>1579</ele>
        <time>2010-06-20T08:33:24Z</time>
      </trkpt>
      <trkpt lat="45.03441" lon="5.59791">
        <ele>1579</ele>
        <time>2010-06-20T08:33:25Z</time>
      </trkpt>
      <trkpt lat="45.03445" lon="5.59792">
        <ele>1579</ele>
        <time>2010-06-20T08:33:26Z</time>
      </trkpt>
      <trkpt lat="45.03447" lon="5.59793">
        <ele>1579</ele>
        <time>2010-06-20T08:33:27Z</time>
      </trkpt>
      <trkpt lat="45.03451" lon="5.59794">
        <ele>1578</ele>
        <time>2010-06-20T08:33:28Z</time>
      </trkpt>
      <trkpt lat="45.03454" lon="5.59795">
        <ele>1578</ele>
        <time>2010-06-20T08:33:29Z</time>
      </trkpt>
      <trkpt lat="45.03457" lon="5.59796">
        <ele>1578</ele>
        <time>2010-06-20T08:33:30Z</time>
      </trkpt>
      <trkpt lat="45.03459" lon="5.59798">
        <ele>1578</ele>
        <time>2010-06-20T08:33:31Z</time>
      </trkpt>
      <trkpt lat="45.03461" lon="5.598">
        <ele>1578</ele>
        <time>2010-06-20T08:33:32Z</time>
      </trkpt>
      <trkpt lat="45.03463" lon="5.59802">
        <ele>1578</ele>
        <time>2010-06-20T08:33:33Z</time>
      </trkpt>
      <trkpt lat="45.03466" lon="5.59805">
        <ele>1578</ele>
        <time>2010-06-20T08:33:34Z</time>
      </trkpt>
      <trkpt lat="45.03468" lon="5.59807">
        <ele>1578</ele>
        <time>2010-06-20T08:33:35Z</time>
      </trkpt>
      <trkpt lat="45.03469" lon="5.5981">
        <ele>1578</ele>
        <time>2010-06-20T08:33:36Z</time>
      </trkpt>
      <trkpt lat="45.03469" lon="5.59814">
        <ele>1578</ele>
        <time>2010-06-20T08:33:37Z</time>
      </trkpt>
      <trkpt lat="45.0347" lon="5.59817">
        <ele>1578</ele>
        <time>2010-06-20T08:33:38Z</time>
      </trkpt>
      <trkpt lat="45.0347" lon="5.5982">
        <ele>1578</ele>
        <time>2010-06-20T08:33:39Z</time>
      </trkpt>
      <trkpt lat="45.03471" lon="5.59822">
        <ele>1578</ele>
        <time>2010-06-20T08:33:40Z</time>
      </trkpt>
      <trkpt lat="45.03471" lon="5.59823">
        <ele>1578</ele>
        <time>2010-06-20T08:33:42Z</time>
      </trkpt>
      <trkpt lat="45.03471" lon="5.59826">
        <ele>1578</ele>
        <time>2010-06-20T08:33:44Z</time>
      </trkpt>
      <trkpt lat="45.03472" lon="5.59828">
        <ele>1578</ele>
        <time>2010-06-20T08:33:45Z</time>
      </trkpt>
      <trkpt lat="45.03472" lon="5.5983">
        <ele>1578</ele>
        <time>2010-06-20T08:33:46Z</time>
      </trkpt>
      <trkpt lat="45.03473" lon="5.59833">
        <ele>1578</ele>
        <time>2010-06-20T08:33:47Z</time>
      </trkpt>
      <trkpt lat="45.03474" lon="5.59836">
        <ele>1578</ele>
        <time>2010-06-20T08:33:48Z</time>
      </trkpt>
      <trkpt lat="45.03475" lon="5.59839">
        <ele>1578</ele>
        <time>2010-06-20T08:33:49Z</time>
      </trkpt>
      <trkpt lat="45.03476" lon="5.59843">
        <ele>1578</ele>
        <time>2010-06-20T08:33:50Z</time>
      </trkpt>
      <trkpt lat="45.03477" lon="5.59847">
        <ele>1578</ele>
        <time>2010-06-20T08:33:51Z</time>
      </trkpt>
      <trkpt lat="45.03478" lon="5.59851">
        <ele>1578</ele>
        <time>2010-06-20T08:33:52Z</time>
      </trkpt>
      <trkpt lat="45.03479" lon="5.59855">
        <ele>1578</ele>
        <time>2010-06-20T08:33:53Z</time>
      </trkpt>
      <trkpt lat="45.03479" lon="5.59859">
        <ele>1578</ele>
        <time>2010-06-20T08:33:54Z</time>
      </trkpt>
      <trkpt lat="45.0348" lon="5.59862">
        <ele>1578</ele>
        <time>2010-06-20T08:33:55Z</time>
      </trkpt>
      <trkpt lat="45.03481" lon="5.59865">
        <ele>1578</ele>
        <time>2010-06-20T08:33:56Z</time>
      </trkpt>
      <trkpt lat="45.03482" lon="5.59867">
        <ele>1578</ele>
        <time>2010-06-20T08:33:57Z</time>
      </trkpt>
      <trkpt lat="45.03485" lon="5.59868">
        <ele>1578</ele>
        <time>2010-06-20T08:33:58Z</time>
      </trkpt>
      <trkpt lat="45.03488" lon="5.59867">
        <ele>1578</ele>
        <time>2010-06-20T08:33:59Z</time>
      </trkpt>
      <trkpt lat="45.0349" lon="5.59866">
        <ele>1577</ele>
        <time>2010-06-20T08:34:00Z</time>
      </trkpt>
      <trkpt lat="45.03493" lon="5.59864">
        <ele>1577</ele>
        <time>2010-06-20T08:34:01Z</time>
      </trkpt>
      <trkpt lat="45.03495" lon="5.59864">
        <ele>1577</ele>
        <time>2010-06-20T08:34:02Z</time>
      </trkpt>
      <trkpt lat="45.03497" lon="5.59863">
        <ele>1576</ele>
        <time>2010-06-20T08:34:03Z</time>
      </trkpt>
      <trkpt lat="45.03498" lon="5.59861">
        <ele>1576</ele>
        <time>2010-06-20T08:34:04Z</time>
      </trkpt>
      <trkpt lat="45.03499" lon="5.59859">
        <ele>1575</ele>
        <time>2010-06-20T08:34:06Z</time>
      </trkpt>
      <trkpt lat="45.035" lon="5.59858">
        <ele>1575</ele>
        <time>2010-06-20T08:34:07Z</time>
      </trkpt>
      <trkpt lat="45.03502" lon="5.59856">
        <ele>1574</ele>
        <time>2010-06-20T08:34:08Z</time>
      </trkpt>
      <trkpt lat="45.03504" lon="5.59855">
        <ele>1574</ele>
        <time>2010-06-20T08:34:09Z</time>
      </trkpt>
      <trkpt lat="45.03507" lon="5.59853">
        <ele>1574</ele>
        <time>2010-06-20T08:34:10Z</time>
      </trkpt>
      <trkpt lat="45.03509" lon="5.59852">
        <ele>1574</ele>
        <time>2010-06-20T08:34:11Z</time>
      </trkpt>
      <trkpt lat="45.03511" lon="5.59851">
        <ele>1574</ele>
        <time>2010-06-20T08:34:12Z</time>
      </trkpt>
      <trkpt lat="45.03513" lon="5.5985">
        <ele>1574</ele>
        <time>2010-06-20T08:34:13Z</time>
      </trkpt>
      <trkpt lat="45.03514" lon="5.59849">
        <ele>1574</ele>
        <time>2010-06-20T08:34:14Z</time>
      </trkpt>
      <trkpt lat="45.03516" lon="5.59848">
        <ele>1574</ele>
        <time>2010-06-20T08:34:16Z</time>
      </trkpt>
      <trkpt lat="45.03517" lon="5.59849">
        <ele>1574</ele>
        <time>2010-06-20T08:34:17Z</time>
      </trkpt>
      <trkpt lat="45.03519" lon="5.59848">
        <ele>1574</ele>
        <time>2010-06-20T08:34:18Z</time>
      </trkpt>
      <trkpt lat="45.03521" lon="5.59849">
        <ele>1574</ele>
        <time>2010-06-20T08:34:20Z</time>
      </trkpt>
      <trkpt lat="45.03522" lon="5.59848">
        <ele>1574</ele>
        <time>2010-06-20T08:34:21Z</time>
      </trkpt>
      <trkpt lat="45.03523" lon="5.59848">
        <ele>1574</ele>
        <time>2010-06-20T08:34:22Z</time>
      </trkpt>
      <trkpt lat="45.03525" lon="5.59847">
        <ele>1574</ele>
        <time>2010-06-20T08:34:23Z</time>
      </trkpt>
      <trkpt lat="45.03527" lon="5.59846">
        <ele>1574</ele>
        <time>2010-06-20T08:34:24Z</time>
      </trkpt>
      <trkpt lat="45.0353" lon="5.59845">
        <ele>1573</ele>
        <time>2010-06-20T08:34:25Z</time>
      </trkpt>
      <trkpt lat="45.03533" lon="5.59843">
        <ele>1573</ele>
        <time>2010-06-20T08:34:26Z</time>
      </trkpt>
      <trkpt lat="45.03535" lon="5.59842">
        <ele>1573</ele>
        <time>2010-06-20T08:34:27Z</time>
      </trkpt>
      <trkpt lat="45.03537" lon="5.59841">
        <ele>1572</ele>
        <time>2010-06-20T08:34:28Z</time>
      </trkpt>
      <trkpt lat="45.0354" lon="5.5984">
        <ele>1572</ele>
        <time>2010-06-20T08:34:29Z</time>
      </trkpt>
      <trkpt lat="45.03542" lon="5.59839">
        <ele>1572</ele>
        <time>2010-06-20T08:34:30Z</time>
      </trkpt>
      <trkpt lat="45.03545" lon="5.59839">
        <ele>1572</ele>
        <time>2010-06-20T08:34:31Z</time>
      </trkpt>
      <trkpt lat="45.03547" lon="5.59838">
        <ele>1572</ele>
        <time>2010-06-20T08:34:32Z</time>
      </trkpt>
      <trkpt lat="45.0355" lon="5.59837">
        <ele>1571</ele>
        <time>2010-06-20T08:34:33Z</time>
      </trkpt>
      <trkpt lat="45.03553" lon="5.59836">
        <ele>1571</ele>
        <time>2010-06-20T08:34:34Z</time>
      </trkpt>
      <trkpt lat="45.03555" lon="5.59835">
        <ele>1571</ele>
        <time>2010-06-20T08:34:35Z</time>
      </trkpt>
      <trkpt lat="45.03558" lon="5.59835">
        <ele>1571</ele>
        <time>2010-06-20T08:34:36Z</time>
      </trkpt>
      <trkpt lat="45.03561" lon="5.59834">
        <ele>1571</ele>
        <time>2010-06-20T08:34:37Z</time>
      </trkpt>
      <trkpt lat="45.03564" lon="5.59835">
        <ele>1571</ele>
        <time>2010-06-20T08:34:38Z</time>
      </trkpt>
      <trkpt lat="45.03567" lon="5.59835">
        <ele>1571</ele>
        <time>2010-06-20T08:34:39Z</time>
      </trkpt>
      <trkpt lat="45.0357" lon="5.59835">
        <ele>1571</ele>
        <time>2010-06-20T08:34:40Z</time>
      </trkpt>
      <trkpt lat="45.03573" lon="5.59835">
        <ele>1570</ele>
        <time>2010-06-20T08:34:41Z</time>
      </trkpt>
      <trkpt lat="45.03576" lon="5.59836">
        <ele>1570</ele>
        <time>2010-06-20T08:34:42Z</time>
      </trkpt>
      <trkpt lat="45.0358" lon="5.59837">
        <ele>1570</ele>
        <time>2010-06-20T08:34:43Z</time>
      </trkpt>
      <trkpt lat="45.03583" lon="5.59838">
        <ele>1570</ele>
        <time>2010-06-20T08:34:44Z</time>
      </trkpt>
      <trkpt lat="45.03587" lon="5.59838">
        <ele>1569</ele>
        <time>2010-06-20T08:34:45Z</time>
      </trkpt>
      <trkpt lat="45.0359" lon="5.59839">
        <ele>1569</ele>
        <time>2010-06-20T08:34:46Z</time>
      </trkpt>
      <trkpt lat="45.03593" lon="5.5984">
        <ele>1569</ele>
        <time>2010-06-20T08:34:47Z</time>
      </trkpt>
      <trkpt lat="45.03596" lon="5.59841">
        <ele>1569</ele>
        <time>2010-06-20T08:34:48Z</time>
      </trkpt>
      <trkpt lat="45.03599" lon="5.59842">
        <ele>1569</ele>
        <time>2010-06-20T08:34:49Z</time>
      </trkpt>
      <trkpt lat="45.03602" lon="5.59843">
        <ele>1568</ele>
        <time>2010-06-20T08:34:50Z</time>
      </trkpt>
      <trkpt lat="45.03605" lon="5.59845">
        <ele>1568</ele>
        <time>2010-06-20T08:34:51Z</time>
      </trkpt>
      <trkpt lat="45.03608" lon="5.59848">
        <ele>1568</ele>
        <time>2010-06-20T08:34:52Z</time>
      </trkpt>
      <trkpt lat="45.03611" lon="5.59851">
        <ele>1567</ele>
        <time>2010-06-20T08:34:53Z</time>
      </trkpt>
      <trkpt lat="45.03613" lon="5.59854">
        <ele>1567</ele>
        <time>2010-06-20T08:34:54Z</time>
      </trkpt>
      <trkpt lat="45.03615" lon="5.59857">
        <ele>1566</ele>
        <time>2010-06-20T08:34:55Z</time>
      </trkpt>
      <trkpt lat="45.03616" lon="5.59861">
        <ele>1566</ele>
        <time>2010-06-20T08:34:56Z</time>
      </trkpt>
      <trkpt lat="45.03617" lon="5.59864">
        <ele>1565</ele>
        <time>2010-06-20T08:34:57Z</time>
      </trkpt>
      <trkpt lat="45.03619" lon="5.59868">
        <ele>1565</ele>
        <time>2010-06-20T08:34:58Z</time>
      </trkpt>
      <trkpt lat="45.03621" lon="5.59871">
        <ele>1565</ele>
        <time>2010-06-20T08:34:59Z</time>
      </trkpt>
      <trkpt lat="45.03623" lon="5.59873">
        <ele>1565</ele>
        <time>2010-06-20T08:35:00Z</time>
      </trkpt>
      <trkpt lat="45.03627" lon="5.59875">
        <ele>1565</ele>
        <time>2010-06-20T08:35:01Z</time>
      </trkpt>
      <trkpt lat="45.0363" lon="5.59877">
        <ele>1564</ele>
        <time>2010-06-20T08:35:02Z</time>
      </trkpt>
      <trkpt lat="45.03634" lon="5.59878">
        <ele>1564</ele>
        <time>2010-06-20T08:35:03Z</time>
      </trkpt>
      <trkpt lat="45.03637" lon="5.59879">
        <ele>1564</ele>
        <time>2010-06-20T08:35:04Z</time>
      </trkpt>
      <trkpt lat="45.0364" lon="5.59879">
        <ele>1564</ele>
        <time>2010-06-20T08:35:05Z</time>
      </trkpt>
      <trkpt lat="45.03643" lon="5.5988">
        <ele>1564</ele>
        <time>2010-06-20T08:35:06Z</time>
      </trkpt>
      <trkpt lat="45.03646" lon="5.59881">
        <ele>1564</ele>
        <time>2010-06-20T08:35:07Z</time>
      </trkpt>
      <trkpt lat="45.03649" lon="5.59881">
        <ele>1564</ele>
        <time>2010-06-20T08:35:08Z</time>
      </trkpt>
      <trkpt lat="45.03653" lon="5.59883">
        <ele>1564</ele>
        <time>2010-06-20T08:35:09Z</time>
      </trkpt>
      <trkpt lat="45.03656" lon="5.59884">
        <ele>1564</ele>
        <time>2010-06-20T08:35:10Z</time>
      </trkpt>
      <trkpt lat="45.03659" lon="5.59885">
        <ele>1564</ele>
        <time>2010-06-20T08:35:11Z</time>
      </trkpt>
      <trkpt lat="45.03661" lon="5.59886">
        <ele>1564</ele>
        <time>2010-06-20T08:35:12Z</time>
      </trkpt>
      <trkpt lat="45.03664" lon="5.59886">
        <ele>1564</ele>
        <time>2010-06-20T08:35:13Z</time>
      </trkpt>
      <trkpt lat="45.03666" lon="5.59886">
        <ele>1564</ele>
        <time>2010-06-20T08:35:14Z</time>
      </trkpt>
      <trkpt lat="45.03668" lon="5.59887">
        <ele>1564</ele>
        <time>2010-06-20T08:35:15Z</time>
      </trkpt>
      <trkpt lat="45.0367" lon="5.59887">
        <ele>1564</ele>
        <time>2010-06-20T08:35:16Z</time>
      </trkpt>
      <trkpt lat="45.03672" lon="5.59887">
        <ele>1564</ele>
        <time>2010-06-20T08:35:17Z</time>
      </trkpt>
      <trkpt lat="45.03675" lon="5.59886">
        <ele>1564</ele>
        <time>2010-06-20T08:35:18Z</time>
      </trkpt>
      <trkpt lat="45.03677" lon="5.59885">
        <ele>1564</ele>
        <time>2010-06-20T08:35:19Z</time>
      </trkpt>
      <trkpt lat="45.03681" lon="5.59884">
        <ele>1564</ele>
        <time>2010-06-20T08:35:20Z</time>
      </trkpt>
      <trkpt lat="45.03684" lon="5.59884">
        <ele>1564</ele>
        <time>2010-06-20T08:35:21Z</time>
      </trkpt>
      <trkpt lat="45.03687" lon="5.59884">
        <ele>1564</ele>
        <time>2010-06-20T08:35:22Z</time>
      </trkpt>
      <trkpt lat="45.0369" lon="5.59884">
        <ele>1564</ele>
        <time>2010-06-20T08:35:23Z</time>
      </trkpt>
      <trkpt lat="45.03692" lon="5.59884">
        <ele>1564</ele>
        <time>2010-06-20T08:35:24Z</time>
      </trkpt>
      <trkpt lat="45.03695" lon="5.59884">
        <ele>1564</ele>
        <time>2010-06-20T08:35:25Z</time>
      </trkpt>
      <trkpt lat="45.03697" lon="5.59884">
        <ele>1564</ele>
        <time>2010-06-20T08:35:26Z</time>
      </trkpt>
      <trkpt lat="45.037" lon="5.59885">
        <ele>1564</ele>
        <time>2010-06-20T08:35:27Z</time>
      </trkpt>
      <trkpt lat="45.03703" lon="5.59885">
        <ele>1564</ele>
        <time>2010-06-20T08:35:28Z</time>
      </trkpt>
      <trkpt lat="45.03706" lon="5.59886">
        <ele>1564</ele>
        <time>2010-06-20T08:35:29Z</time>
      </trkpt>
      <trkpt lat="45.03709" lon="5.59886">
        <ele>1564</ele>
        <time>2010-06-20T08:35:30Z</time>
      </trkpt>
      <trkpt lat="45.03712" lon="5.59887">
        <ele>1564</ele>
        <time>2010-06-20T08:35:31Z</time>
      </trkpt>
      <trkpt lat="45.03715" lon="5.59889">
        <ele>1564</ele>
        <time>2010-06-20T08:35:32Z</time>
      </trkpt>
      <trkpt lat="45.03718" lon="5.59889">
        <ele>1564</ele>
        <time>2010-06-20T08:35:33Z</time>
      </trkpt>
      <trkpt lat="45.03721" lon="5.59889">
        <ele>1564</ele>
        <time>2010-06-20T08:35:34Z</time>
      </trkpt>
      <trkpt lat="45.03724" lon="5.59889">
        <ele>1564</ele>
        <time>2010-06-20T08:35:35Z</time>
      </trkpt>
      <trkpt lat="45.03728" lon="5.5989">
        <ele>1564</ele>
        <time>2010-06-20T08:35:36Z</time>
      </trkpt>
      <trkpt lat="45.03731" lon="5.59891">
        <ele>1564</ele>
        <time>2010-06-20T08:35:37Z</time>
      </trkpt>
      <trkpt lat="45.03734" lon="5.59893">
        <ele>1564</ele>
        <time>2010-06-20T08:35:38Z</time>
      </trkpt>
      <trkpt lat="45.03736" lon="5.59895">
        <ele>1564</ele>
        <time>2010-06-20T08:35:39Z</time>
      </trkpt>
      <trkpt lat="45.03739" lon="5.59898">
        <ele>1564</ele>
        <time>2010-06-20T08:35:40Z</time>
      </trkpt>
      <trkpt lat="45.03742" lon="5.599">
        <ele>1564</ele>
        <time>2010-06-20T08:35:41Z</time>
      </trkpt>
      <trkpt lat="45.03745" lon="5.59902">
        <ele>1564</ele>
        <time>2010-06-20T08:35:42Z</time>
      </trkpt>
      <trkpt lat="45.03748" lon="5.59904">
        <ele>1564</ele>
        <time>2010-06-20T08:35:43Z</time>
      </trkpt>
      <trkpt lat="45.03751" lon="5.59906">
        <ele>1563</ele>
        <time>2010-06-20T08:35:44Z</time>
      </trkpt>
      <trkpt lat="45.03754" lon="5.59907">
        <ele>1563</ele>
        <time>2010-06-20T08:35:45Z</time>
      </trkpt>
      <trkpt lat="45.03758" lon="5.59909">
        <ele>1563</ele>
        <time>2010-06-20T08:35:46Z</time>
      </trkpt>
      <trkpt lat="45.0376" lon="5.5991">
        <ele>1563</ele>
        <time>2010-06-20T08:35:47Z</time>
      </trkpt>
      <trkpt lat="45.03763" lon="5.59912">
        <ele>1562</ele>
        <time>2010-06-20T08:35:48Z</time>
      </trkpt>
      <trkpt lat="45.03766" lon="5.59914">
        <ele>1562</ele>
        <time>2010-06-20T08:35:49Z</time>
      </trkpt>
      <trkpt lat="45.03768" lon="5.59915">
        <ele>1562</ele>
        <time>2010-06-20T08:35:50Z</time>
      </trkpt>
      <trkpt lat="45.03771" lon="5.59918">
        <ele>1562</ele>
        <time>2010-06-20T08:35:51Z</time>
      </trkpt>
      <trkpt lat="45.03773" lon="5.59919">
        <ele>1562</ele>
        <time>2010-06-20T08:35:52Z</time>
      </trkpt>
      <trkpt lat="45.03776" lon="5.59921">
        <ele>1562</ele>
        <time>2010-06-20T08:35:53Z</time>
      </trkpt>
      <trkpt lat="45.03778" lon="5.59922">
        <ele>1562</ele>
        <time>2010-06-20T08:35:54Z</time>
      </trkpt>
      <trkpt lat="45.0378" lon="5.59924">
        <ele>1562</ele>
        <time>2010-06-20T08:35:55Z</time>
      </trkpt>
      <trkpt lat="45.03781" lon="5.59926">
        <ele>1562</ele>
        <time>2010-06-20T08:35:56Z</time>
      </trkpt>
      <trkpt lat="45.03782" lon="5.59928">
        <ele>1562</ele>
        <time>2010-06-20T08:35:57Z</time>
      </trkpt>
      <trkpt lat="45.03784" lon="5.5993">
        <ele>1562</ele>
        <time>2010-06-20T08:35:58Z</time>
      </trkpt>
      <trkpt lat="45.03786" lon="5.59933">
        <ele>1562</ele>
        <time>2010-06-20T08:35:59Z</time>
      </trkpt>
      <trkpt lat="45.03788" lon="5.59936">
        <ele>1562</ele>
        <time>2010-06-20T08:36:00Z</time>
      </trkpt>
      <trkpt lat="45.0379" lon="5.59939">
        <ele>1562</ele>
        <time>2010-06-20T08:36:01Z</time>
      </trkpt>
      <trkpt lat="45.03792" lon="5.59942">
        <ele>1562</ele>
        <time>2010-06-20T08:36:02Z</time>
      </trkpt>
      <trkpt lat="45.03795" lon="5.59945">
        <ele>1562</ele>
        <time>2010-06-20T08:36:03Z</time>
      </trkpt>
      <trkpt lat="45.03798" lon="5.59948">
        <ele>1562</ele>
        <time>2010-06-20T08:36:04Z</time>
      </trkpt>
      <trkpt lat="45.038" lon="5.5995">
        <ele>1562</ele>
        <time>2010-06-20T08:36:05Z</time>
      </trkpt>
      <trkpt lat="45.03803" lon="5.59952">
        <ele>1562</ele>
        <time>2010-06-20T08:36:06Z</time>
      </trkpt>
      <trkpt lat="45.03805" lon="5.59954">
        <ele>1562</ele>
        <time>2010-06-20T08:36:07Z</time>
      </trkpt>
      <trkpt lat="45.03808" lon="5.59956">
        <ele>1562</ele>
        <time>2010-06-20T08:36:08Z</time>
      </trkpt>
      <trkpt lat="45.0381" lon="5.59958">
        <ele>1562</ele>
        <time>2010-06-20T08:36:09Z</time>
      </trkpt>
      <trkpt lat="45.03813" lon="5.5996">
        <ele>1562</ele>
        <time>2010-06-20T08:36:10Z</time>
      </trkpt>
      <trkpt lat="45.03815" lon="5.59962">
        <ele>1562</ele>
        <time>2010-06-20T08:36:11Z</time>
      </trkpt>
      <trkpt lat="45.03818" lon="5.59964">
        <ele>1562</ele>
        <time>2010-06-20T08:36:12Z</time>
      </trkpt>
      <trkpt lat="45.0382" lon="5.59966">
        <ele>1562</ele>
        <time>2010-06-20T08:36:13Z</time>
      </trkpt>
      <trkpt lat="45.03823" lon="5.59967">
        <ele>1562</ele>
        <time>2010-06-20T08:36:14Z</time>
      </trkpt>
      <trkpt lat="45.03826" lon="5.59968">
        <ele>1562</ele>
        <time>2010-06-20T08:36:15Z</time>
      </trkpt>
      <trkpt lat="45.03828" lon="5.59968">
        <ele>1562</ele>
        <time>2010-06-20T08:36:16Z</time>
      </trkpt>
      <trkpt lat="45.03831" lon="5.59967">
        <ele>1562</ele>
        <time>2010-06-20T08:36:17Z</time>
      </trkpt>
      <trkpt lat="45.03834" lon="5.59967">
        <ele>1562</ele>
        <time>2010-06-20T08:36:18Z</time>
      </trkpt>
      <trkpt lat="45.03836" lon="5.59968">
        <ele>1562</ele>
        <time>2010-06-20T08:36:19Z</time>
      </trkpt>
      <trkpt lat="45.03839" lon="5.59968">
        <ele>1562</ele>
        <time>2010-06-20T08:36:20Z</time>
      </trkpt>
      <trkpt lat="45.03842" lon="5.59968">
        <ele>1562</ele>
        <time>2010-06-20T08:36:21Z</time>
      </trkpt>
      <trkpt lat="45.03844" lon="5.59968">
        <ele>1562</ele>
        <time>2010-06-20T08:36:22Z</time>
      </trkpt>
      <trkpt lat="45.03847" lon="5.59967">
        <ele>1562</ele>
        <time>2010-06-20T08:36:23Z</time>
      </trkpt>
      <trkpt lat="45.0385" lon="5.59966">
        <ele>1562</ele>
        <time>2010-06-20T08:36:24Z</time>
      </trkpt>
      <trkpt lat="45.03853" lon="5.59965">
        <ele>1562</ele>
        <time>2010-06-20T08:36:25Z</time>
      </trkpt>
      <trkpt lat="45.03855" lon="5.59963">
        <ele>1561</ele>
        <time>2010-06-20T08:36:26Z</time>
      </trkpt>
      <trkpt lat="45.03858" lon="5.59963">
        <ele>1561</ele>
        <time>2010-06-20T08:36:27Z</time>
      </trkpt>
      <trkpt lat="45.03861" lon="5.59963">
        <ele>1561</ele>
        <time>2010-06-20T08:36:28Z</time>
      </trkpt>
      <trkpt lat="45.03863" lon="5.59963">
        <ele>1561</ele>
        <time>2010-06-20T08:36:29Z</time>
      </trkpt>
      <trkpt lat="45.03866" lon="5.59964">
        <ele>1561</ele>
        <time>2010-06-20T08:36:30Z</time>
      </trkpt>
      <trkpt lat="45.0387" lon="5.59965">
        <ele>1561</ele>
        <time>2010-06-20T08:36:31Z</time>
      </trkpt>
      <trkpt lat="45.03873" lon="5.59966">
        <ele>1560</ele>
        <time>2010-06-20T08:36:32Z</time>
      </trkpt>
      <trkpt lat="45.03876" lon="5.59968">
        <ele>1560</ele>
        <time>2010-06-20T08:36:33Z</time>
      </trkpt>
      <trkpt lat="45.03879" lon="5.59971">
        <ele>1560</ele>
        <time>2010-06-20T08:36:34Z</time>
      </trkpt>
      <trkpt lat="45.03881" lon="5.59973">
        <ele>1560</ele>
        <time>2010-06-20T08:36:35Z</time>
      </trkpt>
      <trkpt lat="45.03884" lon="5.59975">
        <ele>1559</ele>
        <time>2010-06-20T08:36:36Z</time>
      </trkpt>
      <trkpt lat="45.03887" lon="5.59975">
        <ele>1559</ele>
        <time>2010-06-20T08:36:37Z</time>
      </trkpt>
      <trkpt lat="45.0389" lon="5.59976">
        <ele>1559</ele>
        <time>2010-06-20T08:36:38Z</time>
      </trkpt>
      <trkpt lat="45.03892" lon="5.59976">
        <ele>1559</ele>
        <time>2010-06-20T08:36:39Z</time>
      </trkpt>
      <trkpt lat="45.03894" lon="5.59977">
        <ele>1559</ele>
        <time>2010-06-20T08:36:40Z</time>
      </trkpt>
      <trkpt lat="45.03896" lon="5.59977">
        <ele>1558</ele>
        <time>2010-06-20T08:36:41Z</time>
      </trkpt>
      <trkpt lat="45.03899" lon="5.59977">
        <ele>1558</ele>
        <time>2010-06-20T08:36:42Z</time>
      </trkpt>
      <trkpt lat="45.03901" lon="5.59978">
        <ele>1558</ele>
        <time>2010-06-20T08:36:43Z</time>
      </trkpt>
      <trkpt lat="45.03898" lon="5.59978">
        <ele>1557</ele>
        <time>2010-06-20T08:36:45Z</time>
      </trkpt>
      <trkpt lat="45.03896" lon="5.59978">
        <ele>1556</ele>
        <time>2010-06-20T08:36:46Z</time>
      </trkpt>
      <trkpt lat="45.03894" lon="5.59978">
        <ele>1556</ele>
        <time>2010-06-20T08:36:47Z</time>
      </trkpt>
      <trkpt lat="45.03892" lon="5.59978">
        <ele>1556</ele>
        <time>2010-06-20T08:36:48Z</time>
      </trkpt>
      <trkpt lat="45.03888" lon="5.59978">
        <ele>1555</ele>
        <time>2010-06-20T08:36:49Z</time>
      </trkpt>
      <trkpt lat="45.03885" lon="5.59978">
        <ele>1555</ele>
        <time>2010-06-20T08:36:50Z</time>
      </trkpt>
      <trkpt lat="45.03881" lon="5.59978">
        <ele>1554</ele>
        <time>2010-06-20T08:36:51Z</time>
      </trkpt>
      <trkpt lat="45.03878" lon="5.59978">
        <ele>1554</ele>
        <time>2010-06-20T08:36:52Z</time>
      </trkpt>
      <trkpt lat="45.03875" lon="5.59976">
        <ele>1554</ele>
        <time>2010-06-20T08:36:53Z</time>
      </trkpt>
      <trkpt lat="45.03872" lon="5.59976">
        <ele>1554</ele>
        <time>2010-06-20T08:36:54Z</time>
      </trkpt>
      <trkpt lat="45.03868" lon="5.59975">
        <ele>1554</ele>
        <time>2010-06-20T08:36:55Z</time>
      </trkpt>
      <trkpt lat="45.03865" lon="5.59974">
        <ele>1554</ele>
        <time>2010-06-20T08:36:56Z</time>
      </trkpt>
      <trkpt lat="45.03862" lon="5.59974">
        <ele>1553</ele>
        <time>2010-06-20T08:36:57Z</time>
      </trkpt>
      <trkpt lat="45.03859" lon="5.59975">
        <ele>1553</ele>
        <time>2010-06-20T08:36:58Z</time>
      </trkpt>
      <trkpt lat="45.03856" lon="5.59976">
        <ele>1553</ele>
        <time>2010-06-20T08:36:59Z</time>
      </trkpt>
      <trkpt lat="45.03853" lon="5.59977">
        <ele>1552</ele>
        <time>2010-06-20T08:37:00Z</time>
      </trkpt>
      <trkpt lat="45.03851" lon="5.59979">
        <ele>1552</ele>
        <time>2010-06-20T08:37:01Z</time>
      </trkpt>
      <trkpt lat="45.0385" lon="5.5998">
        <ele>1552</ele>
        <time>2010-06-20T08:37:02Z</time>
      </trkpt>
      <trkpt lat="45.03848" lon="5.59982">
        <ele>1552</ele>
        <time>2010-06-20T08:37:03Z</time>
      </trkpt>
      <trkpt lat="45.03846" lon="5.59984">
        <ele>1551</ele>
        <time>2010-06-20T08:37:04Z</time>
      </trkpt>
      <trkpt lat="45.03843" lon="5.59986">
        <ele>1551</ele>
        <time>2010-06-20T08:37:05Z</time>
      </trkpt>
      <trkpt lat="45.03841" lon="5.59987">
        <ele>1551</ele>
        <time>2010-06-20T08:37:06Z</time>
      </trkpt>
      <trkpt lat="45.03838" lon="5.59989">
        <ele>1551</ele>
        <time>2010-06-20T08:37:07Z</time>
      </trkpt>
      <trkpt lat="45.03835" lon="5.59989">
        <ele>1550</ele>
        <time>2010-06-20T08:37:08Z</time>
      </trkpt>
      <trkpt lat="45.03832" lon="5.5999">
        <ele>1550</ele>
        <time>2010-06-20T08:37:09Z</time>
      </trkpt>
      <trkpt lat="45.03828" lon="5.59992">
        <ele>1550</ele>
        <time>2010-06-20T08:37:10Z</time>
      </trkpt>
      <trkpt lat="45.03825" lon="5.59993">
        <ele>1549</ele>
        <time>2010-06-20T08:37:11Z</time>
      </trkpt>
      <trkpt lat="45.03821" lon="5.59993">
        <ele>1549</ele>
        <time>2010-06-20T08:37:12Z</time>
      </trkpt>
      <trkpt lat="45.03818" lon="5.59993">
        <ele>1548</ele>
        <time>2010-06-20T08:37:13Z</time>
      </trkpt>
      <trkpt lat="45.03815" lon="5.59992">
        <ele>1548</ele>
        <time>2010-06-20T08:37:14Z</time>
      </trkpt>
      <trkpt lat="45.03811" lon="5.5999">
        <ele>1547</ele>
        <time>2010-06-20T08:37:15Z</time>
      </trkpt>
      <trkpt lat="45.03809" lon="5.59987">
        <ele>1547</ele>
        <time>2010-06-20T08:37:16Z</time>
      </trkpt>
      <trkpt lat="45.03806" lon="5.59985">
        <ele>1546</ele>
        <time>2010-06-20T08:37:17Z</time>
      </trkpt>
      <trkpt lat="45.03803" lon="5.59982">
        <ele>1546</ele>
        <time>2010-06-20T08:37:18Z</time>
      </trkpt>
      <trkpt lat="45.03801" lon="5.59979">
        <ele>1545</ele>
        <time>2010-06-20T08:37:19Z</time>
      </trkpt>
      <trkpt lat="45.03798" lon="5.59976">
        <ele>1545</ele>
        <time>2010-06-20T08:37:20Z</time>
      </trkpt>
      <trkpt lat="45.03795" lon="5.59973">
        <ele>1544</ele>
        <time>2010-06-20T08:37:21Z</time>
      </trkpt>
      <trkpt lat="45.03792" lon="5.5997">
        <ele>1544</ele>
        <time>2010-06-20T08:37:22Z</time>
      </trkpt>
      <trkpt lat="45.03789" lon="5.59967">
        <ele>1544</ele>
        <time>2010-06-20T08:37:23Z</time>
      </trkpt>
      <trkpt lat="45.03786" lon="5.59964">
        <ele>1544</ele>
        <time>2010-06-20T08:37:24Z</time>
      </trkpt>
      <trkpt lat="45.03784" lon="5.59961">
        <ele>1543</ele>
        <time>2010-06-20T08:37:25Z</time>
      </trkpt>
      <trkpt lat="45.03781" lon="5.59959">
        <ele>1543</ele>
        <time>2010-06-20T08:37:26Z</time>
      </trkpt>
      <trkpt lat="45.03778" lon="5.59957">
        <ele>1543</ele>
        <time>2010-06-20T08:37:27Z</time>
      </trkpt>
      <trkpt lat="45.03775" lon="5.59956">
        <ele>1542</ele>
        <time>2010-06-20T08:37:28Z</time>
      </trkpt>
      <trkpt lat="45.03772" lon="5.59954">
        <ele>1542</ele>
        <time>2010-06-20T08:37:29Z</time>
      </trkpt>
      <trkpt lat="45.03769" lon="5.59954">
        <ele>1541</ele>
        <time>2010-06-20T08:37:30Z</time>
      </trkpt>
      <trkpt lat="45.03766" lon="5.59952">
        <ele>1541</ele>
        <time>2010-06-20T08:37:31Z</time>
      </trkpt>
      <trkpt lat="45.03764" lon="5.59951">
        <ele>1540</ele>
        <time>2010-06-20T08:37:32Z</time>
      </trkpt>
      <trkpt lat="45.03762" lon="5.59951">
        <ele>1540</ele>
        <time>2010-06-20T08:37:33Z</time>
      </trkpt>
      <trkpt lat="45.0376" lon="5.59951">
        <ele>1539</ele>
        <time>2010-06-20T08:37:34Z</time>
      </trkpt>
      <trkpt lat="45.03758" lon="5.5995">
        <ele>1539</ele>
        <time>2010-06-20T08:37:35Z</time>
      </trkpt>
      <trkpt lat="45.03756" lon="5.59949">
        <ele>1538</ele>
        <time>2010-06-20T08:37:36Z</time>
      </trkpt>
      <trkpt lat="45.03754" lon="5.59948">
        <ele>1537</ele>
        <time>2010-06-20T08:37:37Z</time>
      </trkpt>
      <trkpt lat="45.03752" lon="5.59947">
        <ele>1536</ele>
        <time>2010-06-20T08:37:38Z</time>
      </trkpt>
      <trkpt lat="45.03749" lon="5.59947">
        <ele>1536</ele>
        <time>2010-06-20T08:37:39Z</time>
      </trkpt>
      <trkpt lat="45.03746" lon="5.59947">
        <ele>1535</ele>
        <time>2010-06-20T08:37:40Z</time>
      </trkpt>
      <trkpt lat="45.03743" lon="5.59947">
        <ele>1534</ele>
        <time>2010-06-20T08:37:41Z</time>
      </trkpt>
      <trkpt lat="45.0374" lon="5.59946">
        <ele>1533</ele>
        <time>2010-06-20T08:37:42Z</time>
      </trkpt>
      <trkpt lat="45.03737" lon="5.59945">
        <ele>1532</ele>
        <time>2010-06-20T08:37:43Z</time>
      </trkpt>
      <trkpt lat="45.03734" lon="5.59945">
        <ele>1531</ele>
        <time>2010-06-20T08:37:44Z</time>
      </trkpt>
      <trkpt lat="45.03731" lon="5.59944">
        <ele>1530</ele>
        <time>2010-06-20T08:37:45Z</time>
      </trkpt>
      <trkpt lat="45.03728" lon="5.59943">
        <ele>1529</ele>
        <time>2010-06-20T08:37:46Z</time>
      </trkpt>
      <trkpt lat="45.03725" lon="5.59943">
        <ele>1528</ele>
        <time>2010-06-20T08:37:47Z</time>
      </trkpt>
      <trkpt lat="45.03723" lon="5.59944">
        <ele>1527</ele>
        <time>2010-06-20T08:37:48Z</time>
      </trkpt>
      <trkpt lat="45.0372" lon="5.59944">
        <ele>1526</ele>
        <time>2010-06-20T08:37:49Z</time>
      </trkpt>
      <trkpt lat="45.03717" lon="5.59944">
        <ele>1525</ele>
        <time>2010-06-20T08:37:50Z</time>
      </trkpt>
      <trkpt lat="45.03715" lon="5.59943">
        <ele>1525</ele>
        <time>2010-06-20T08:37:51Z</time>
      </trkpt>
      <trkpt lat="45.03712" lon="5.59943">
        <ele>1525</ele>
        <time>2010-06-20T08:37:52Z</time>
      </trkpt>
      <trkpt lat="45.03709" lon="5.59944">
        <ele>1524</ele>
        <time>2010-06-20T08:37:53Z</time>
      </trkpt>
      <trkpt lat="45.03707" lon="5.59944">
        <ele>1524</ele>
        <time>2010-06-20T08:37:54Z</time>
      </trkpt>
      <trkpt lat="45.03705" lon="5.59944">
        <ele>1524</ele>
        <time>2010-06-20T08:37:55Z</time>
      </trkpt>
      <trkpt lat="45.03703" lon="5.59945">
        <ele>1524</ele>
        <time>2010-06-20T08:37:56Z</time>
      </trkpt>
      <trkpt lat="45.037" lon="5.59945">
        <ele>1523</ele>
        <time>2010-06-20T08:37:57Z</time>
      </trkpt>
      <trkpt lat="45.03698" lon="5.59945">
        <ele>1523</ele>
        <time>2010-06-20T08:37:58Z</time>
      </trkpt>
      <trkpt lat="45.03695" lon="5.59947">
        <ele>1523</ele>
        <time>2010-06-20T08:37:59Z</time>
      </trkpt>
      <trkpt lat="45.03691" lon="5.59948">
        <ele>1522</ele>
        <time>2010-06-20T08:38:00Z</time>
      </trkpt>
      <trkpt lat="45.03688" lon="5.59948">
        <ele>1522</ele>
        <time>2010-06-20T08:38:01Z</time>
      </trkpt>
      <trkpt lat="45.03686" lon="5.59948">
        <ele>1522</ele>
        <time>2010-06-20T08:38:02Z</time>
      </trkpt>
      <trkpt lat="45.03683" lon="5.59949">
        <ele>1521</ele>
        <time>2010-06-20T08:38:03Z</time>
      </trkpt>
      <trkpt lat="45.0368" lon="5.59949">
        <ele>1521</ele>
        <time>2010-06-20T08:38:04Z</time>
      </trkpt>
      <trkpt lat="45.03678" lon="5.59949">
        <ele>1520</ele>
        <time>2010-06-20T08:38:05Z</time>
      </trkpt>
      <trkpt lat="45.03676" lon="5.59949">
        <ele>1520</ele>
        <time>2010-06-20T08:38:06Z</time>
      </trkpt>
      <trkpt lat="45.03674" lon="5.5995">
        <ele>1519</ele>
        <time>2010-06-20T08:38:07Z</time>
      </trkpt>
      <trkpt lat="45.03671" lon="5.5995">
        <ele>1518</ele>
        <time>2010-06-20T08:38:08Z</time>
      </trkpt>
      <trkpt lat="45.03669" lon="5.59952">
        <ele>1518</ele>
        <time>2010-06-20T08:38:09Z</time>
      </trkpt>
      <trkpt lat="45.03666" lon="5.59952">
        <ele>1517</ele>
        <time>2010-06-20T08:38:10Z</time>
      </trkpt>
      <trkpt lat="45.03663" lon="5.59952">
        <ele>1516</ele>
        <time>2010-06-20T08:38:11Z</time>
      </trkpt>
      <trkpt lat="45.03661" lon="5.59951">
        <ele>1516</ele>
        <time>2010-06-20T08:38:12Z</time>
      </trkpt>
      <trkpt lat="45.03658" lon="5.59951">
        <ele>1516</ele>
        <time>2010-06-20T08:38:13Z</time>
      </trkpt>
      <trkpt lat="45.03656" lon="5.59951">
        <ele>1516</ele>
        <time>2010-06-20T08:38:14Z</time>
      </trkpt>
      <trkpt lat="45.03654" lon="5.59951">
        <ele>1516</ele>
        <time>2010-06-20T08:38:15Z</time>
      </trkpt>
      <trkpt lat="45.03651" lon="5.59953">
        <ele>1516</ele>
        <time>2010-06-20T08:38:16Z</time>
      </trkpt>
      <trkpt lat="45.03648" lon="5.59953">
        <ele>1516</ele>
        <time>2010-06-20T08:38:17Z</time>
      </trkpt>
      <trkpt lat="45.03645" lon="5.59953">
        <ele>1516</ele>
        <time>2010-06-20T08:38:18Z</time>
      </trkpt>
      <trkpt lat="45.03641" lon="5.59953">
        <ele>1516</ele>
        <time>2010-06-20T08:38:19Z</time>
      </trkpt>
      <trkpt lat="45.03638" lon="5.59952">
        <ele>1516</ele>
        <time>2010-06-20T08:38:20Z</time>
      </trkpt>
      <trkpt lat="45.03635" lon="5.59952">
        <ele>1516</ele>
        <time>2010-06-20T08:38:21Z</time>
      </trkpt>
      <trkpt lat="45.03631" lon="5.59951">
        <ele>1516</ele>
        <time>2010-06-20T08:38:22Z</time>
      </trkpt>
      <trkpt lat="45.03629" lon="5.59951">
        <ele>1516</ele>
        <time>2010-06-20T08:38:23Z</time>
      </trkpt>
      <trkpt lat="45.03625" lon="5.59951">
        <ele>1516</ele>
        <time>2010-06-20T08:38:24Z</time>
      </trkpt>
      <trkpt lat="45.03622" lon="5.59951">
        <ele>1516</ele>
        <time>2010-06-20T08:38:25Z</time>
      </trkpt>
      <trkpt lat="45.03618" lon="5.59951">
        <ele>1516</ele>
        <time>2010-06-20T08:38:26Z</time>
      </trkpt>
      <trkpt lat="45.03615" lon="5.59951">
        <ele>1516</ele>
        <time>2010-06-20T08:38:27Z</time>
      </trkpt>
      <trkpt lat="45.03611" lon="5.5995">
        <ele>1515</ele>
        <time>2010-06-20T08:38:28Z</time>
      </trkpt>
      <trkpt lat="45.03608" lon="5.59951">
        <ele>1515</ele>
        <time>2010-06-20T08:38:29Z</time>
      </trkpt>
      <trkpt lat="45.03605" lon="5.5995">
        <ele>1515</ele>
        <time>2010-06-20T08:38:30Z</time>
      </trkpt>
      <trkpt lat="45.03603" lon="5.59948">
        <ele>1514</ele>
        <time>2010-06-20T08:38:31Z</time>
      </trkpt>
      <trkpt lat="45.03601" lon="5.59947">
        <ele>1514</ele>
        <time>2010-06-20T08:38:32Z</time>
      </trkpt>
      <trkpt lat="45.03597" lon="5.59948">
        <ele>1514</ele>
        <time>2010-06-20T08:38:33Z</time>
      </trkpt>
      <trkpt lat="45.03593" lon="5.59948">
        <ele>1514</ele>
        <time>2010-06-20T08:38:34Z</time>
      </trkpt>
      <trkpt lat="45.03589" lon="5.59948">
        <ele>1514</ele>
        <time>2010-06-20T08:38:35Z</time>
      </trkpt>
      <trkpt lat="45.03585" lon="5.59946">
        <ele>1514</ele>
        <time>2010-06-20T08:38:36Z</time>
      </trkpt>
      <trkpt lat="45.0358" lon="5.59946">
        <ele>1514</ele>
        <time>2010-06-20T08:38:37Z</time>
      </trkpt>
      <trkpt lat="45.03577" lon="5.59946">
        <ele>1513</ele>
        <time>2010-06-20T08:38:38Z</time>
      </trkpt>
      <trkpt lat="45.03574" lon="5.59947">
        <ele>1513</ele>
        <time>2010-06-20T08:38:39Z</time>
      </trkpt>
      <trkpt lat="45.0357" lon="5.59947">
        <ele>1512</ele>
        <time>2010-06-20T08:38:40Z</time>
      </trkpt>
      <trkpt lat="45.03568" lon="5.59948">
        <ele>1511</ele>
        <time>2010-06-20T08:38:41Z</time>
      </trkpt>
      <trkpt lat="45.03564" lon="5.59948">
        <ele>1511</ele>
        <time>2010-06-20T08:38:42Z</time>
      </trkpt>
      <trkpt lat="45.03561" lon="5.59948">
        <ele>1510</ele>
        <time>2010-06-20T08:38:43Z</time>
      </trkpt>
      <trkpt lat="45.03558" lon="5.59949">
        <ele>1509</ele>
        <time>2010-06-20T08:38:44Z</time>
      </trkpt>
      <trkpt lat="45.03554" lon="5.59951">
        <ele>1508</ele>
        <time>2010-06-20T08:38:45Z</time>
      </trkpt>
      <trkpt lat="45.0355" lon="5.59952">
        <ele>1507</ele>
        <time>2010-06-20T08:38:46Z</time>
      </trkpt>
      <trkpt lat="45.03547" lon="5.59954">
        <ele>1506</ele>
        <time>2010-06-20T08:38:47Z</time>
      </trkpt>
      <trkpt lat="45.03545" lon="5.59954">
        <ele>1505</ele>
        <time>2010-06-20T08:38:48Z</time>
      </trkpt>
      <trkpt lat="45.03542" lon="5.59954">
        <ele>1505</ele>
        <time>2010-06-20T08:38:49Z</time>
      </trkpt>
      <trkpt lat="45.0354" lon="5.59954">
        <ele>1504</ele>
        <time>2010-06-20T08:38:50Z</time>
      </trkpt>
      <trkpt lat="45.03539" lon="5.59955">
        <ele>1503</ele>
        <time>2010-06-20T08:38:51Z</time>
      </trkpt>
      <trkpt lat="45.03537" lon="5.59958">
        <ele>1503</ele>
        <time>2010-06-20T08:38:52Z</time>
      </trkpt>
      <trkpt lat="45.03535" lon="5.59961">
        <ele>1502</ele>
        <time>2010-06-20T08:38:53Z</time>
      </trkpt>
      <trkpt lat="45.03533" lon="5.59963">
        <ele>1501</ele>
        <time>2010-06-20T08:38:54Z</time>
      </trkpt>
      <trkpt lat="45.0353" lon="5.59964">
        <ele>1501</ele>
        <time>2010-06-20T08:38:55Z</time>
      </trkpt>
      <trkpt lat="45.03527" lon="5.59965">
        <ele>1500</ele>
        <time>2010-06-20T08:38:56Z</time>
      </trkpt>
      <trkpt lat="45.03524" lon="5.59966">
        <ele>1499</ele>
        <time>2010-06-20T08:38:57Z</time>
      </trkpt>
      <trkpt lat="45.03521" lon="5.59967">
        <ele>1498</ele>
        <time>2010-06-20T08:38:58Z</time>
      </trkpt>
      <trkpt lat="45.03518" lon="5.59967">
        <ele>1497</ele>
        <time>2010-06-20T08:38:59Z</time>
      </trkpt>
      <trkpt lat="45.03516" lon="5.59968">
        <ele>1496</ele>
        <time>2010-06-20T08:39:00Z</time>
      </trkpt>
      <trkpt lat="45.03512" lon="5.5997">
        <ele>1495</ele>
        <time>2010-06-20T08:39:01Z</time>
      </trkpt>
      <trkpt lat="45.0351" lon="5.59971">
        <ele>1494</ele>
        <time>2010-06-20T08:39:02Z</time>
      </trkpt>
      <trkpt lat="45.03508" lon="5.59973">
        <ele>1493</ele>
        <time>2010-06-20T08:39:03Z</time>
      </trkpt>
      <trkpt lat="45.03505" lon="5.59976">
        <ele>1492</ele>
        <time>2010-06-20T08:39:04Z</time>
      </trkpt>
      <trkpt lat="45.03502" lon="5.59977">
        <ele>1491</ele>
        <time>2010-06-20T08:39:05Z</time>
      </trkpt>
      <trkpt lat="45.03501" lon="5.59978">
        <ele>1491</ele>
        <time>2010-06-20T08:39:06Z</time>
      </trkpt>
      <trkpt lat="45.03498" lon="5.59979">
        <ele>1491</ele>
        <time>2010-06-20T08:39:09Z</time>
      </trkpt>
      <trkpt lat="45.03496" lon="5.59979">
        <ele>1491</ele>
        <time>2010-06-20T08:39:10Z</time>
      </trkpt>
      <trkpt lat="45.03493" lon="5.5998">
        <ele>1491</ele>
        <time>2010-06-20T08:39:11Z</time>
      </trkpt>
      <trkpt lat="45.03491" lon="5.59981">
        <ele>1491</ele>
        <time>2010-06-20T08:39:12Z</time>
      </trkpt>
      <trkpt lat="45.03488" lon="5.59983">
        <ele>1491</ele>
        <time>2010-06-20T08:39:13Z</time>
      </trkpt>
      <trkpt lat="45.03485" lon="5.59983">
        <ele>1491</ele>
        <time>2010-06-20T08:39:14Z</time>
      </trkpt>
      <trkpt lat="45.03482" lon="5.59984">
        <ele>1491</ele>
        <time>2010-06-20T08:39:15Z</time>
      </trkpt>
      <trkpt lat="45.03479" lon="5.59984">
        <ele>1491</ele>
        <time>2010-06-20T08:39:16Z</time>
      </trkpt>
      <trkpt lat="45.03477" lon="5.59984">
        <ele>1491</ele>
        <time>2010-06-20T08:39:17Z</time>
      </trkpt>
      <trkpt lat="45.03475" lon="5.59985">
        <ele>1491</ele>
        <time>2010-06-20T08:39:18Z</time>
      </trkpt>
      <trkpt lat="45.03471" lon="5.59985">
        <ele>1491</ele>
        <time>2010-06-20T08:39:19Z</time>
      </trkpt>
      <trkpt lat="45.03467" lon="5.59986">
        <ele>1491</ele>
        <time>2010-06-20T08:39:20Z</time>
      </trkpt>
      <trkpt lat="45.03465" lon="5.59986">
        <ele>1491</ele>
        <time>2010-06-20T08:39:21Z</time>
      </trkpt>
      <trkpt lat="45.03462" lon="5.59986">
        <ele>1490</ele>
        <time>2010-06-20T08:39:22Z</time>
      </trkpt>
      <trkpt lat="45.03459" lon="5.59986">
        <ele>1489</ele>
        <time>2010-06-20T08:39:23Z</time>
      </trkpt>
      <trkpt lat="45.03456" lon="5.59987">
        <ele>1488</ele>
        <time>2010-06-20T08:39:24Z</time>
      </trkpt>
      <trkpt lat="45.03452" lon="5.59987">
        <ele>1488</ele>
        <time>2010-06-20T08:39:25Z</time>
      </trkpt>
      <trkpt lat="45.0345" lon="5.59987">
        <ele>1487</ele>
        <time>2010-06-20T08:39:26Z</time>
      </trkpt>
      <trkpt lat="45.03447" lon="5.59988">
        <ele>1487</ele>
        <time>2010-06-20T08:39:27Z</time>
      </trkpt>
      <trkpt lat="45.03444" lon="5.59987">
        <ele>1486</ele>
        <time>2010-06-20T08:39:28Z</time>
      </trkpt>
      <trkpt lat="45.03442" lon="5.59986">
        <ele>1485</ele>
        <time>2010-06-20T08:39:29Z</time>
      </trkpt>
      <trkpt lat="45.03439" lon="5.59985">
        <ele>1485</ele>
        <time>2010-06-20T08:39:30Z</time>
      </trkpt>
      <trkpt lat="45.03436" lon="5.59988">
        <ele>1484</ele>
        <time>2010-06-20T08:39:31Z</time>
      </trkpt>
      <trkpt lat="45.03432" lon="5.59991">
        <ele>1484</ele>
        <time>2010-06-20T08:39:32Z</time>
      </trkpt>
      <trkpt lat="45.03428" lon="5.59992">
        <ele>1484</ele>
        <time>2010-06-20T08:39:33Z</time>
      </trkpt>
      <trkpt lat="45.03425" lon="5.59993">
        <ele>1484</ele>
        <time>2010-06-20T08:39:34Z</time>
      </trkpt>
      <trkpt lat="45.03421" lon="5.59993">
        <ele>1483</ele>
        <time>2010-06-20T08:39:35Z</time>
      </trkpt>
      <trkpt lat="45.03417" lon="5.59992">
        <ele>1483</ele>
        <time>2010-06-20T08:39:36Z</time>
      </trkpt>
      <trkpt lat="45.03414" lon="5.59992">
        <ele>1482</ele>
        <time>2010-06-20T08:39:37Z</time>
      </trkpt>
      <trkpt lat="45.03411" lon="5.59991">
        <ele>1481</ele>
        <time>2010-06-20T08:39:38Z</time>
      </trkpt>
      <trkpt lat="45.03408" lon="5.5999">
        <ele>1480</ele>
        <time>2010-06-20T08:39:39Z</time>
      </trkpt>
      <trkpt lat="45.03406" lon="5.5999">
        <ele>1479</ele>
        <time>2010-06-20T08:39:40Z</time>
      </trkpt>
      <trkpt lat="45.03404" lon="5.5999">
        <ele>1478</ele>
        <time>2010-06-20T08:39:41Z</time>
      </trkpt>
      <trkpt lat="45.03402" lon="5.59989">
        <ele>1477</ele>
        <time>2010-06-20T08:39:42Z</time>
      </trkpt>
      <trkpt lat="45.03401" lon="5.59988">
        <ele>1476</ele>
        <time>2010-06-20T08:39:43Z</time>
      </trkpt>
      <trkpt lat="45.03399" lon="5.59988">
        <ele>1475</ele>
        <time>2010-06-20T08:39:44Z</time>
      </trkpt>
      <trkpt lat="45.03396" lon="5.59988">
        <ele>1474</ele>
        <time>2010-06-20T08:39:45Z</time>
      </trkpt>
      <trkpt lat="45.03393" lon="5.59988">
        <ele>1473</ele>
        <time>2010-06-20T08:39:46Z</time>
      </trkpt>
      <trkpt lat="45.0339" lon="5.59989">
        <ele>1472</ele>
        <time>2010-06-20T08:39:47Z</time>
      </trkpt>
      <trkpt lat="45.03387" lon="5.59989">
        <ele>1471</ele>
        <time>2010-06-20T08:39:48Z</time>
      </trkpt>
      <trkpt lat="45.03384" lon="5.5999">
        <ele>1470</ele>
        <time>2010-06-20T08:39:49Z</time>
      </trkpt>
      <trkpt lat="45.03382" lon="5.59991">
        <ele>1469</ele>
        <time>2010-06-20T08:39:50Z</time>
      </trkpt>
      <trkpt lat="45.03379" lon="5.59993">
        <ele>1468</ele>
        <time>2010-06-20T08:39:51Z</time>
      </trkpt>
      <trkpt lat="45.03376" lon="5.59994">
        <ele>1467</ele>
        <time>2010-06-20T08:39:52Z</time>
      </trkpt>
      <trkpt lat="45.03373" lon="5.59996">
        <ele>1466</ele>
        <time>2010-06-20T08:39:53Z</time>
      </trkpt>
      <trkpt lat="45.03368" lon="5.59998">
        <ele>1466</ele>
        <time>2010-06-20T08:39:54Z</time>
      </trkpt>
      <trkpt lat="45.03364" lon="5.6">
        <ele>1465</ele>
        <time>2010-06-20T08:39:55Z</time>
      </trkpt>
      <trkpt lat="45.03362" lon="5.60001">
        <ele>1465</ele>
        <time>2010-06-20T08:39:56Z</time>
      </trkpt>
      <trkpt lat="45.03359" lon="5.60002">
        <ele>1465</ele>
        <time>2010-06-20T08:39:57Z</time>
      </trkpt>
      <trkpt lat="45.03356" lon="5.60002">
        <ele>1464</ele>
        <time>2010-06-20T08:39:58Z</time>
      </trkpt>
      <trkpt lat="45.03354" lon="5.60001">
        <ele>1463</ele>
        <time>2010-06-20T08:39:59Z</time>
      </trkpt>
      <trkpt lat="45.03351" lon="5.60002">
        <ele>1463</ele>
        <time>2010-06-20T08:40:00Z</time>
      </trkpt>
      <trkpt lat="45.03349" lon="5.60001">
        <ele>1462</ele>
        <time>2010-06-20T08:40:01Z</time>
      </trkpt>
      <trkpt lat="45.03348" lon="5.60001">
        <ele>1461</ele>
        <time>2010-06-20T08:40:02Z</time>
      </trkpt>
      <trkpt lat="45.03349" lon="5.59997">
        <ele>1459</ele>
        <time>2010-06-20T08:40:04Z</time>
      </trkpt>
      <trkpt lat="45.03347" lon="5.59998">
        <ele>1458</ele>
        <time>2010-06-20T08:40:05Z</time>
      </trkpt>
      <trkpt lat="45.03343" lon="5.60001">
        <ele>1456</ele>
        <time>2010-06-20T08:40:07Z</time>
      </trkpt>
      <trkpt lat="45.03341" lon="5.60003">
        <ele>1455</ele>
        <time>2010-06-20T08:40:08Z</time>
      </trkpt>
      <trkpt lat="45.03338" lon="5.60005">
        <ele>1454</ele>
        <time>2010-06-20T08:40:09Z</time>
      </trkpt>
      <trkpt lat="45.03335" lon="5.60008">
        <ele>1453</ele>
        <time>2010-06-20T08:40:10Z</time>
      </trkpt>
      <trkpt lat="45.03332" lon="5.6001">
        <ele>1452</ele>
        <time>2010-06-20T08:40:11Z</time>
      </trkpt>
      <trkpt lat="45.03328" lon="5.60012">
        <ele>1451</ele>
        <time>2010-06-20T08:40:12Z</time>
      </trkpt>
      <trkpt lat="45.03324" lon="5.60013">
        <ele>1450</ele>
        <time>2010-06-20T08:40:13Z</time>
      </trkpt>
      <trkpt lat="45.0332" lon="5.60014">
        <ele>1449</ele>
        <time>2010-06-20T08:40:14Z</time>
      </trkpt>
      <trkpt lat="45.03316" lon="5.60015">
        <ele>1448</ele>
        <time>2010-06-20T08:40:15Z</time>
      </trkpt>
      <trkpt lat="45.03313" lon="5.60016">
        <ele>1447</ele>
        <time>2010-06-20T08:40:16Z</time>
      </trkpt>
      <trkpt lat="45.03309" lon="5.60016">
        <ele>1446</ele>
        <time>2010-06-20T08:40:17Z</time>
      </trkpt>
      <trkpt lat="45.03305" lon="5.60017">
        <ele>1445</ele>
        <time>2010-06-20T08:40:18Z</time>
      </trkpt>
      <trkpt lat="45.033" lon="5.60017">
        <ele>1443</ele>
        <time>2010-06-20T08:40:19Z</time>
      </trkpt>
      <trkpt lat="45.03296" lon="5.60018">
        <ele>1442</ele>
        <time>2010-06-20T08:40:20Z</time>
      </trkpt>
      <trkpt lat="45.03293" lon="5.60018">
        <ele>1441</ele>
        <time>2010-06-20T08:40:21Z</time>
      </trkpt>
      <trkpt lat="45.03289" lon="5.60019">
        <ele>1440</ele>
        <time>2010-06-20T08:40:22Z</time>
      </trkpt>
      <trkpt lat="45.03285" lon="5.6002">
        <ele>1439</ele>
        <time>2010-06-20T08:40:23Z</time>
      </trkpt>
      <trkpt lat="45.03282" lon="5.60021">
        <ele>1438</ele>
        <time>2010-06-20T08:40:24Z</time>
      </trkpt>
      <trkpt lat="45.03278" lon="5.60022">
        <ele>1437</ele>
        <time>2010-06-20T08:40:25Z</time>
      </trkpt>
      <trkpt lat="45.03274" lon="5.60022">
        <ele>1436</ele>
        <time>2010-06-20T08:40:26Z</time>
      </trkpt>
      <trkpt lat="45.03271" lon="5.60022">
        <ele>1435</ele>
        <time>2010-06-20T08:40:27Z</time>
      </trkpt>
      <trkpt lat="45.03268" lon="5.60022">
        <ele>1434</ele>
        <time>2010-06-20T08:40:28Z</time>
      </trkpt>
      <trkpt lat="45.03264" lon="5.60021">
        <ele>1433</ele>
        <time>2010-06-20T08:40:29Z</time>
      </trkpt>
      <trkpt lat="45.03261" lon="5.6002">
        <ele>1432</ele>
        <time>2010-06-20T08:40:30Z</time>
      </trkpt>
      <trkpt lat="45.03258" lon="5.60019">
        <ele>1431</ele>
        <time>2010-06-20T08:40:31Z</time>
      </trkpt>
      <trkpt lat="45.03254" lon="5.60018">
        <ele>1430</ele>
        <time>2010-06-20T08:40:32Z</time>
      </trkpt>
      <trkpt lat="45.0325" lon="5.60017">
        <ele>1429</ele>
        <time>2010-06-20T08:40:33Z</time>
      </trkpt>
      <trkpt lat="45.03246" lon="5.60014">
        <ele>1428</ele>
        <time>2010-06-20T08:40:34Z</time>
      </trkpt>
      <trkpt lat="45.03242" lon="5.60012">
        <ele>1427</ele>
        <time>2010-06-20T08:40:35Z</time>
      </trkpt>
      <trkpt lat="45.03239" lon="5.60011">
        <ele>1426</ele>
        <time>2010-06-20T08:40:36Z</time>
      </trkpt>
      <trkpt lat="45.03236" lon="5.60009">
        <ele>1425</ele>
        <time>2010-06-20T08:40:37Z</time>
      </trkpt>
      <trkpt lat="45.03233" lon="5.60007">
        <ele>1424</ele>
        <time>2010-06-20T08:40:38Z</time>
      </trkpt>
      <trkpt lat="45.03229" lon="5.60004">
        <ele>1423</ele>
        <time>2010-06-20T08:40:39Z</time>
      </trkpt>
      <trkpt lat="45.03226" lon="5.60003">
        <ele>1422</ele>
        <time>2010-06-20T08:40:40Z</time>
      </trkpt>
      <trkpt lat="45.03222" lon="5.60002">
        <ele>1421</ele>
        <time>2010-06-20T08:40:41Z</time>
      </trkpt>
      <trkpt lat="45.03219" lon="5.60002">
        <ele>1421</ele>
        <time>2010-06-20T08:40:42Z</time>
      </trkpt>
      <trkpt lat="45.03216" lon="5.60002">
        <ele>1420</ele>
        <time>2010-06-20T08:40:43Z</time>
      </trkpt>
      <trkpt lat="45.03212" lon="5.60001">
        <ele>1420</ele>
        <time>2010-06-20T08:40:44Z</time>
      </trkpt>
      <trkpt lat="45.03207" lon="5.60001">
        <ele>1419</ele>
        <time>2010-06-20T08:40:45Z</time>
      </trkpt>
      <trkpt lat="45.03204" lon="5.6">
        <ele>1418</ele>
        <time>2010-06-20T08:40:46Z</time>
      </trkpt>
      <trkpt lat="45.032" lon="5.59998">
        <ele>1418</ele>
        <time>2010-06-20T08:40:47Z</time>
      </trkpt>
      <trkpt lat="45.03196" lon="5.59997">
        <ele>1417</ele>
        <time>2010-06-20T08:40:48Z</time>
      </trkpt>
      <trkpt lat="45.03193" lon="5.59995">
        <ele>1416</ele>
        <time>2010-06-20T08:40:49Z</time>
      </trkpt>
      <trkpt lat="45.03189" lon="5.59992">
        <ele>1416</ele>
        <time>2010-06-20T08:40:50Z</time>
      </trkpt>
      <trkpt lat="45.03185" lon="5.59992">
        <ele>1416</ele>
        <time>2010-06-20T08:40:51Z</time>
      </trkpt>
      <trkpt lat="45.03182" lon="5.59992">
        <ele>1415</ele>
        <time>2010-06-20T08:40:52Z</time>
      </trkpt>
      <trkpt lat="45.03178" lon="5.5999">
        <ele>1415</ele>
        <time>2010-06-20T08:40:53Z</time>
      </trkpt>
      <trkpt lat="45.03175" lon="5.59989">
        <ele>1415</ele>
        <time>2010-06-20T08:40:54Z</time>
      </trkpt>
      <trkpt lat="45.03172" lon="5.59987">
        <ele>1415</ele>
        <time>2010-06-20T08:40:55Z</time>
      </trkpt>
      <trkpt lat="45.03168" lon="5.59985">
        <ele>1415</ele>
        <time>2010-06-20T08:40:56Z</time>
      </trkpt>
      <trkpt lat="45.03164" lon="5.59984">
        <ele>1414</ele>
        <time>2010-06-20T08:40:57Z</time>
      </trkpt>
      <trkpt lat="45.03161" lon="5.59983">
        <ele>1414</ele>
        <time>2010-06-20T08:40:58Z</time>
      </trkpt>
      <trkpt lat="45.03157" lon="5.59981">
        <ele>1414</ele>
        <time>2010-06-20T08:40:59Z</time>
      </trkpt>
      <trkpt lat="45.03153" lon="5.5998">
        <ele>1413</ele>
        <time>2010-06-20T08:41:00Z</time>
      </trkpt>
      <trkpt lat="45.0315" lon="5.59979">
        <ele>1413</ele>
        <time>2010-06-20T08:41:01Z</time>
      </trkpt>
      <trkpt lat="45.03146" lon="5.59977">
        <ele>1413</ele>
        <time>2010-06-20T08:41:02Z</time>
      </trkpt>
      <trkpt lat="45.03142" lon="5.59976">
        <ele>1412</ele>
        <time>2010-06-20T08:41:03Z</time>
      </trkpt>
      <trkpt lat="45.03139" lon="5.59975">
        <ele>1412</ele>
        <time>2010-06-20T08:41:04Z</time>
      </trkpt>
      <trkpt lat="45.03136" lon="5.59974">
        <ele>1411</ele>
        <time>2010-06-20T08:41:05Z</time>
      </trkpt>
      <trkpt lat="45.03132" lon="5.59973">
        <ele>1411</ele>
        <time>2010-06-20T08:41:06Z</time>
      </trkpt>
      <trkpt lat="45.03129" lon="5.59972">
        <ele>1410</ele>
        <time>2010-06-20T08:41:07Z</time>
      </trkpt>
      <trkpt lat="45.03126" lon="5.59972">
        <ele>1410</ele>
        <time>2010-06-20T08:41:08Z</time>
      </trkpt>
      <trkpt lat="45.03122" lon="5.59971">
        <ele>1410</ele>
        <time>2010-06-20T08:41:09Z</time>
      </trkpt>
      <trkpt lat="45.03118" lon="5.59972">
        <ele>1410</ele>
        <time>2010-06-20T08:41:10Z</time>
      </trkpt>
      <trkpt lat="45.03114" lon="5.59972">
        <ele>1410</ele>
        <time>2010-06-20T08:41:11Z</time>
      </trkpt>
      <trkpt lat="45.03111" lon="5.59971">
        <ele>1409</ele>
        <time>2010-06-20T08:41:12Z</time>
      </trkpt>
      <trkpt lat="45.03108" lon="5.59972">
        <ele>1409</ele>
        <time>2010-06-20T08:41:13Z</time>
      </trkpt>
      <trkpt lat="45.03104" lon="5.59972">
        <ele>1409</ele>
        <time>2010-06-20T08:41:14Z</time>
      </trkpt>
      <trkpt lat="45.031" lon="5.59972">
        <ele>1408</ele>
        <time>2010-06-20T08:41:15Z</time>
      </trkpt>
      <trkpt lat="45.03096" lon="5.59971">
        <ele>1408</ele>
        <time>2010-06-20T08:41:16Z</time>
      </trkpt>
      <trkpt lat="45.03092" lon="5.59968">
        <ele>1407</ele>
        <time>2010-06-20T08:41:17Z</time>
      </trkpt>
      <trkpt lat="45.03088" lon="5.59967">
        <ele>1407</ele>
        <time>2010-06-20T08:41:18Z</time>
      </trkpt>
      <trkpt lat="45.03084" lon="5.59967">
        <ele>1407</ele>
        <time>2010-06-20T08:41:19Z</time>
      </trkpt>
      <trkpt lat="45.0308" lon="5.59967">
        <ele>1407</ele>
        <time>2010-06-20T08:41:20Z</time>
      </trkpt>
      <trkpt lat="45.03077" lon="5.59967">
        <ele>1406</ele>
        <time>2010-06-20T08:41:21Z</time>
      </trkpt>
      <trkpt lat="45.03073" lon="5.59967">
        <ele>1406</ele>
        <time>2010-06-20T08:41:22Z</time>
      </trkpt>
      <trkpt lat="45.03069" lon="5.59967">
        <ele>1406</ele>
        <time>2010-06-20T08:41:23Z</time>
      </trkpt>
      <trkpt lat="45.03065" lon="5.59967">
        <ele>1406</ele>
        <time>2010-06-20T08:41:24Z</time>
      </trkpt>
      <trkpt lat="45.03062" lon="5.59966">
        <ele>1406</ele>
        <time>2010-06-20T08:41:25Z</time>
      </trkpt>
      <trkpt lat="45.03059" lon="5.59966">
        <ele>1406</ele>
        <time>2010-06-20T08:41:26Z</time>
      </trkpt>
      <trkpt lat="45.03056" lon="5.59965">
        <ele>1405</ele>
        <time>2010-06-20T08:41:27Z</time>
      </trkpt>
      <trkpt lat="45.03052" lon="5.59964">
        <ele>1405</ele>
        <time>2010-06-20T08:41:28Z</time>
      </trkpt>
      <trkpt lat="45.03048" lon="5.59963">
        <ele>1404</ele>
        <time>2010-06-20T08:41:29Z</time>
      </trkpt>
      <trkpt lat="45.03045" lon="5.59962">
        <ele>1404</ele>
        <time>2010-06-20T08:41:30Z</time>
      </trkpt>
      <trkpt lat="45.03041" lon="5.59961">
        <ele>1403</ele>
        <time>2010-06-20T08:41:31Z</time>
      </trkpt>
      <trkpt lat="45.03038" lon="5.59961">
        <ele>1403</ele>
        <time>2010-06-20T08:41:32Z</time>
      </trkpt>
      <trkpt lat="45.03035" lon="5.59959">
        <ele>1403</ele>
        <time>2010-06-20T08:41:33Z</time>
      </trkpt>
      <trkpt lat="45.03032" lon="5.59958">
        <ele>1402</ele>
        <time>2010-06-20T08:41:34Z</time>
      </trkpt>
      <trkpt lat="45.03028" lon="5.59957">
        <ele>1402</ele>
        <time>2010-06-20T08:41:35Z</time>
      </trkpt>
      <trkpt lat="45.03025" lon="5.59956">
        <ele>1402</ele>
        <time>2010-06-20T08:41:36Z</time>
      </trkpt>
      <trkpt lat="45.03021" lon="5.59955">
        <ele>1401</ele>
        <time>2010-06-20T08:41:37Z</time>
      </trkpt>
      <trkpt lat="45.03018" lon="5.59955">
        <ele>1401</ele>
        <time>2010-06-20T08:41:38Z</time>
      </trkpt>
      <trkpt lat="45.03015" lon="5.59954">
        <ele>1400</ele>
        <time>2010-06-20T08:41:39Z</time>
      </trkpt>
      <trkpt lat="45.03012" lon="5.59954">
        <ele>1400</ele>
        <time>2010-06-20T08:41:40Z</time>
      </trkpt>
      <trkpt lat="45.03009" lon="5.59953">
        <ele>1399</ele>
        <time>2010-06-20T08:41:41Z</time>
      </trkpt>
      <trkpt lat="45.03006" lon="5.59952">
        <ele>1399</ele>
        <time>2010-06-20T08:41:42Z</time>
      </trkpt>
      <trkpt lat="45.03002" lon="5.59951">
        <ele>1399</ele>
        <time>2010-06-20T08:41:43Z</time>
      </trkpt>
      <trkpt lat="45.03" lon="5.5995">
        <ele>1398</ele>
        <time>2010-06-20T08:41:44Z</time>
      </trkpt>
      <trkpt lat="45.02996" lon="5.5995">
        <ele>1398</ele>
        <time>2010-06-20T08:41:45Z</time>
      </trkpt>
      <trkpt lat="45.02993" lon="5.59949">
        <ele>1398</ele>
        <time>2010-06-20T08:41:46Z</time>
      </trkpt>
      <trkpt lat="45.0299" lon="5.59948">
        <ele>1398</ele>
        <time>2010-06-20T08:41:47Z</time>
      </trkpt>
      <trkpt lat="45.02986" lon="5.59947">
        <ele>1397</ele>
        <time>2010-06-20T08:41:48Z</time>
      </trkpt>
      <trkpt lat="45.02983" lon="5.59947">
        <ele>1397</ele>
        <time>2010-06-20T08:41:49Z</time>
      </trkpt>
      <trkpt lat="45.02979" lon="5.59947">
        <ele>1396</ele>
        <time>2010-06-20T08:41:50Z</time>
      </trkpt>
      <trkpt lat="45.02975" lon="5.59947">
        <ele>1396</ele>
        <time>2010-06-20T08:41:51Z</time>
      </trkpt>
      <trkpt lat="45.02972" lon="5.59946">
        <ele>1396</ele>
        <time>2010-06-20T08:41:52Z</time>
      </trkpt>
      <trkpt lat="45.02968" lon="5.59946">
        <ele>1395</ele>
        <time>2010-06-20T08:41:53Z</time>
      </trkpt>
      <trkpt lat="45.02964" lon="5.59946">
        <ele>1395</ele>
        <time>2010-06-20T08:41:54Z</time>
      </trkpt>
      <trkpt lat="45.0296" lon="5.59946">
        <ele>1394</ele>
        <time>2010-06-20T08:41:55Z</time>
      </trkpt>
      <trkpt lat="45.02957" lon="5.59946">
        <ele>1393</ele>
        <time>2010-06-20T08:41:56Z</time>
      </trkpt>
      <trkpt lat="45.02953" lon="5.59945">
        <ele>1393</ele>
        <time>2010-06-20T08:41:57Z</time>
      </trkpt>
      <trkpt lat="45.0295" lon="5.59944">
        <ele>1392</ele>
        <time>2010-06-20T08:41:58Z</time>
      </trkpt>
      <trkpt lat="45.02946" lon="5.59943">
        <ele>1392</ele>
        <time>2010-06-20T08:41:59Z</time>
      </trkpt>
      <trkpt lat="45.02943" lon="5.59942">
        <ele>1391</ele>
        <time>2010-06-20T08:42:00Z</time>
      </trkpt>
      <trkpt lat="45.02939" lon="5.59941">
        <ele>1390</ele>
        <time>2010-06-20T08:42:01Z</time>
      </trkpt>
      <trkpt lat="45.02936" lon="5.59939">
        <ele>1390</ele>
        <time>2010-06-20T08:42:02Z</time>
      </trkpt>
      <trkpt lat="45.02932" lon="5.59938">
        <ele>1389</ele>
        <time>2010-06-20T08:42:03Z</time>
      </trkpt>
      <trkpt lat="45.02928" lon="5.59937">
        <ele>1389</ele>
        <time>2010-06-20T08:42:04Z</time>
      </trkpt>
      <trkpt lat="45.02925" lon="5.59935">
        <ele>1388</ele>
        <time>2010-06-20T08:42:05Z</time>
      </trkpt>
      <trkpt lat="45.02922" lon="5.59933">
        <ele>1388</ele>
        <time>2010-06-20T08:42:06Z</time>
      </trkpt>
      <trkpt lat="45.02918" lon="5.59932">
        <ele>1387</ele>
        <time>2010-06-20T08:42:07Z</time>
      </trkpt>
      <trkpt lat="45.02914" lon="5.59931">
        <ele>1387</ele>
        <time>2010-06-20T08:42:08Z</time>
      </trkpt>
      <trkpt lat="45.02911" lon="5.5993">
        <ele>1387</ele>
        <time>2010-06-20T08:42:09Z</time>
      </trkpt>
      <trkpt lat="45.02907" lon="5.59929">
        <ele>1386</ele>
        <time>2010-06-20T08:42:10Z</time>
      </trkpt>
      <trkpt lat="45.02905" lon="5.59929">
        <ele>1386</ele>
        <time>2010-06-20T08:42:11Z</time>
      </trkpt>
      <trkpt lat="45.02902" lon="5.59928">
        <ele>1386</ele>
        <time>2010-06-20T08:42:12Z</time>
      </trkpt>
      <trkpt lat="45.02898" lon="5.59927">
        <ele>1386</ele>
        <time>2010-06-20T08:42:13Z</time>
      </trkpt>
      <trkpt lat="45.02895" lon="5.59927">
        <ele>1385</ele>
        <time>2010-06-20T08:42:14Z</time>
      </trkpt>
      <trkpt lat="45.02891" lon="5.59925">
        <ele>1385</ele>
        <time>2010-06-20T08:42:15Z</time>
      </trkpt>
      <trkpt lat="45.02888" lon="5.59923">
        <ele>1384</ele>
        <time>2010-06-20T08:42:16Z</time>
      </trkpt>
      <trkpt lat="45.02884" lon="5.59921">
        <ele>1383</ele>
        <time>2010-06-20T08:42:17Z</time>
      </trkpt>
      <trkpt lat="45.02881" lon="5.5992">
        <ele>1383</ele>
        <time>2010-06-20T08:42:18Z</time>
      </trkpt>
      <trkpt lat="45.02877" lon="5.59919">
        <ele>1382</ele>
        <time>2010-06-20T08:42:19Z</time>
      </trkpt>
      <trkpt lat="45.02873" lon="5.59918">
        <ele>1382</ele>
        <time>2010-06-20T08:42:20Z</time>
      </trkpt>
      <trkpt lat="45.0287" lon="5.59917">
        <ele>1382</ele>
        <time>2010-06-20T08:42:21Z</time>
      </trkpt>
      <trkpt lat="45.02867" lon="5.59915">
        <ele>1382</ele>
        <time>2010-06-20T08:42:22Z</time>
      </trkpt>
      <trkpt lat="45.02863" lon="5.59913">
        <ele>1382</ele>
        <time>2010-06-20T08:42:23Z</time>
      </trkpt>
      <trkpt lat="45.02859" lon="5.59912">
        <ele>1381</ele>
        <time>2010-06-20T08:42:24Z</time>
      </trkpt>
      <trkpt lat="45.02856" lon="5.59911">
        <ele>1381</ele>
        <time>2010-06-20T08:42:25Z</time>
      </trkpt>
      <trkpt lat="45.02852" lon="5.5991">
        <ele>1381</ele>
        <time>2010-06-20T08:42:26Z</time>
      </trkpt>
      <trkpt lat="45.02848" lon="5.59909">
        <ele>1381</ele>
        <time>2010-06-20T08:42:27Z</time>
      </trkpt>
      <trkpt lat="45.02844" lon="5.59907">
        <ele>1381</ele>
        <time>2010-06-20T08:42:28Z</time>
      </trkpt>
      <trkpt lat="45.0284" lon="5.59905">
        <ele>1381</ele>
        <time>2010-06-20T08:42:29Z</time>
      </trkpt>
      <trkpt lat="45.02835" lon="5.59903">
        <ele>1380</ele>
        <time>2010-06-20T08:42:30Z</time>
      </trkpt>
      <trkpt lat="45.02831" lon="5.59902">
        <ele>1380</ele>
        <time>2010-06-20T08:42:31Z</time>
      </trkpt>
      <trkpt lat="45.02828" lon="5.599">
        <ele>1379</ele>
        <time>2010-06-20T08:42:32Z</time>
      </trkpt>
      <trkpt lat="45.02824" lon="5.59899">
        <ele>1379</ele>
        <time>2010-06-20T08:42:33Z</time>
      </trkpt>
      <trkpt lat="45.0282" lon="5.59897">
        <ele>1378</ele>
        <time>2010-06-20T08:42:34Z</time>
      </trkpt>
      <trkpt lat="45.02816" lon="5.59896">
        <ele>1377</ele>
        <time>2010-06-20T08:42:35Z</time>
      </trkpt>
      <trkpt lat="45.02811" lon="5.59896">
        <ele>1376</ele>
        <time>2010-06-20T08:42:36Z</time>
      </trkpt>
      <trkpt lat="45.02807" lon="5.59896">
        <ele>1376</ele>
        <time>2010-06-20T08:42:37Z</time>
      </trkpt>
      <trkpt lat="45.02803" lon="5.59896">
        <ele>1375</ele>
        <time>2010-06-20T08:42:38Z</time>
      </trkpt>
      <trkpt lat="45.02799" lon="5.59896">
        <ele>1375</ele>
        <time>2010-06-20T08:42:39Z</time>
      </trkpt>
      <trkpt lat="45.02796" lon="5.59895">
        <ele>1374</ele>
        <time>2010-06-20T08:42:40Z</time>
      </trkpt>
      <trkpt lat="45.02793" lon="5.59893">
        <ele>1373</ele>
        <time>2010-06-20T08:42:41Z</time>
      </trkpt>
      <trkpt lat="45.02789" lon="5.59893">
        <ele>1373</ele>
        <time>2010-06-20T08:42:42Z</time>
      </trkpt>
      <trkpt lat="45.02786" lon="5.59892">
        <ele>1372</ele>
        <time>2010-06-20T08:42:43Z</time>
      </trkpt>
      <trkpt lat="45.02782" lon="5.59891">
        <ele>1371</ele>
        <time>2010-06-20T08:42:44Z</time>
      </trkpt>
      <trkpt lat="45.02778" lon="5.5989">
        <ele>1371</ele>
        <time>2010-06-20T08:42:45Z</time>
      </trkpt>
      <trkpt lat="45.02775" lon="5.59889">
        <ele>1370</ele>
        <time>2010-06-20T08:42:46Z</time>
      </trkpt>
      <trkpt lat="45.02772" lon="5.59887">
        <ele>1369</ele>
        <time>2010-06-20T08:42:47Z</time>
      </trkpt>
      <trkpt lat="45.02769" lon="5.59887">
        <ele>1368</ele>
        <time>2010-06-20T08:42:48Z</time>
      </trkpt>
      <trkpt lat="45.02767" lon="5.59885">
        <ele>1368</ele>
        <time>2010-06-20T08:42:49Z</time>
      </trkpt>
      <trkpt lat="45.02763" lon="5.59885">
        <ele>1367</ele>
        <time>2010-06-20T08:42:50Z</time>
      </trkpt>
      <trkpt lat="45.0276" lon="5.59884">
        <ele>1366</ele>
        <time>2010-06-20T08:42:51Z</time>
      </trkpt>
      <trkpt lat="45.02756" lon="5.59883">
        <ele>1366</ele>
        <time>2010-06-20T08:42:52Z</time>
      </trkpt>
      <trkpt lat="45.02752" lon="5.59881">
        <ele>1365</ele>
        <time>2010-06-20T08:42:53Z</time>
      </trkpt>
      <trkpt lat="45.02749" lon="5.5988">
        <ele>1364</ele>
        <time>2010-06-20T08:42:54Z</time>
      </trkpt>
      <trkpt lat="45.02745" lon="5.5988">
        <ele>1363</ele>
        <time>2010-06-20T08:42:55Z</time>
      </trkpt>
      <trkpt lat="45.02741" lon="5.59881">
        <ele>1363</ele>
        <time>2010-06-20T08:42:56Z</time>
      </trkpt>
      <trkpt lat="45.02738" lon="5.5988">
        <ele>1362</ele>
        <time>2010-06-20T08:42:57Z</time>
      </trkpt>
      <trkpt lat="45.02735" lon="5.59879">
        <ele>1361</ele>
        <time>2010-06-20T08:42:58Z</time>
      </trkpt>
      <trkpt lat="45.02733" lon="5.59878">
        <ele>1360</ele>
        <time>2010-06-20T08:42:59Z</time>
      </trkpt>
      <trkpt lat="45.02729" lon="5.59878">
        <ele>1360</ele>
        <time>2010-06-20T08:43:00Z</time>
      </trkpt>
      <trkpt lat="45.02726" lon="5.59878">
        <ele>1359</ele>
        <time>2010-06-20T08:43:01Z</time>
      </trkpt>
      <trkpt lat="45.02723" lon="5.59877">
        <ele>1358</ele>
        <time>2010-06-20T08:43:02Z</time>
      </trkpt>
      <trkpt lat="45.02719" lon="5.59877">
        <ele>1357</ele>
        <time>2010-06-20T08:43:03Z</time>
      </trkpt>
      <trkpt lat="45.02716" lon="5.59877">
        <ele>1356</ele>
        <time>2010-06-20T08:43:04Z</time>
      </trkpt>
      <trkpt lat="45.02713" lon="5.59877">
        <ele>1356</ele>
        <time>2010-06-20T08:43:05Z</time>
      </trkpt>
      <trkpt lat="45.02709" lon="5.59876">
        <ele>1355</ele>
        <time>2010-06-20T08:43:06Z</time>
      </trkpt>
      <trkpt lat="45.02706" lon="5.59875">
        <ele>1355</ele>
        <time>2010-06-20T08:43:07Z</time>
      </trkpt>
      <trkpt lat="45.02703" lon="5.59874">
        <ele>1354</ele>
        <time>2010-06-20T08:43:08Z</time>
      </trkpt>
      <trkpt lat="45.027" lon="5.59874">
        <ele>1353</ele>
        <time>2010-06-20T08:43:09Z</time>
      </trkpt>
      <trkpt lat="45.02697" lon="5.59872">
        <ele>1353</ele>
        <time>2010-06-20T08:43:10Z</time>
      </trkpt>
      <trkpt lat="45.02693" lon="5.5987">
        <ele>1352</ele>
        <time>2010-06-20T08:43:11Z</time>
      </trkpt>
      <trkpt lat="45.02689" lon="5.5987">
        <ele>1351</ele>
        <time>2010-06-20T08:43:12Z</time>
      </trkpt>
      <trkpt lat="45.02686" lon="5.59869">
        <ele>1351</ele>
        <time>2010-06-20T08:43:13Z</time>
      </trkpt>
      <trkpt lat="45.02682" lon="5.59869">
        <ele>1350</ele>
        <time>2010-06-20T08:43:14Z</time>
      </trkpt>
      <trkpt lat="45.02678" lon="5.59867">
        <ele>1350</ele>
        <time>2010-06-20T08:43:15Z</time>
      </trkpt>
      <trkpt lat="45.02675" lon="5.59866">
        <ele>1349</ele>
        <time>2010-06-20T08:43:16Z</time>
      </trkpt>
      <trkpt lat="45.02671" lon="5.59866">
        <ele>1349</ele>
        <time>2010-06-20T08:43:17Z</time>
      </trkpt>
      <trkpt lat="45.02668" lon="5.59865">
        <ele>1349</ele>
        <time>2010-06-20T08:43:18Z</time>
      </trkpt>
      <trkpt lat="45.02664" lon="5.59864">
        <ele>1348</ele>
        <time>2010-06-20T08:43:19Z</time>
      </trkpt>
      <trkpt lat="45.02661" lon="5.59864">
        <ele>1347</ele>
        <time>2010-06-20T08:43:20Z</time>
      </trkpt>
      <trkpt lat="45.02657" lon="5.59864">
        <ele>1347</ele>
        <time>2010-06-20T08:43:21Z</time>
      </trkpt>
      <trkpt lat="45.02653" lon="5.59863">
        <ele>1347</ele>
        <time>2010-06-20T08:43:22Z</time>
      </trkpt>
      <trkpt lat="45.0265" lon="5.59862">
        <ele>1346</ele>
        <time>2010-06-20T08:43:23Z</time>
      </trkpt>
      <trkpt lat="45.02646" lon="5.59862">
        <ele>1346</ele>
        <time>2010-06-20T08:43:24Z</time>
      </trkpt>
      <trkpt lat="45.02642" lon="5.59861">
        <ele>1345</ele>
        <time>2010-06-20T08:43:25Z</time>
      </trkpt>
      <trkpt lat="45.02639" lon="5.5986">
        <ele>1345</ele>
        <time>2010-06-20T08:43:26Z</time>
      </trkpt>
      <trkpt lat="45.02635" lon="5.59859">
        <ele>1344</ele>
        <time>2010-06-20T08:43:27Z</time>
      </trkpt>
      <trkpt lat="45.02632" lon="5.59858">
        <ele>1344</ele>
        <time>2010-06-20T08:43:28Z</time>
      </trkpt>
      <trkpt lat="45.02629" lon="5.59856">
        <ele>1344</ele>
        <time>2010-06-20T08:43:29Z</time>
      </trkpt>
      <trkpt lat="45.02625" lon="5.59856">
        <ele>1344</ele>
        <time>2010-06-20T08:43:30Z</time>
      </trkpt>
      <trkpt lat="45.02621" lon="5.59856">
        <ele>1344</ele>
        <time>2010-06-20T08:43:31Z</time>
      </trkpt>
      <trkpt lat="45.02617" lon="5.59857">
        <ele>1344</ele>
        <time>2010-06-20T08:43:32Z</time>
      </trkpt>
      <trkpt lat="45.02613" lon="5.59857">
        <ele>1344</ele>
        <time>2010-06-20T08:43:33Z</time>
      </trkpt>
      <trkpt lat="45.02609" lon="5.59857">
        <ele>1344</ele>
        <time>2010-06-20T08:43:34Z</time>
      </trkpt>
      <trkpt lat="45.02606" lon="5.59857">
        <ele>1343</ele>
        <time>2010-06-20T08:43:35Z</time>
      </trkpt>
      <trkpt lat="45.02602" lon="5.59857">
        <ele>1343</ele>
        <time>2010-06-20T08:43:36Z</time>
      </trkpt>
      <trkpt lat="45.02598" lon="5.59858">
        <ele>1342</ele>
        <time>2010-06-20T08:43:37Z</time>
      </trkpt>
      <trkpt lat="45.02594" lon="5.59858">
        <ele>1342</ele>
        <time>2010-06-20T08:43:38Z</time>
      </trkpt>
      <trkpt lat="45.0259" lon="5.59857">
        <ele>1341</ele>
        <time>2010-06-20T08:43:39Z</time>
      </trkpt>
      <trkpt lat="45.02586" lon="5.59857">
        <ele>1341</ele>
        <time>2010-06-20T08:43:40Z</time>
      </trkpt>
      <trkpt lat="45.02582" lon="5.59855">
        <ele>1340</ele>
        <time>2010-06-20T08:43:41Z</time>
      </trkpt>
      <trkpt lat="45.02579" lon="5.59854">
        <ele>1340</ele>
        <time>2010-06-20T08:43:42Z</time>
      </trkpt>
      <trkpt lat="45.02575" lon="5.59853">
        <ele>1339</ele>
        <time>2010-06-20T08:43:43Z</time>
      </trkpt>
      <trkpt lat="45.0257" lon="5.59853">
        <ele>1338</ele>
        <time>2010-06-20T08:43:44Z</time>
      </trkpt>
      <trkpt lat="45.02565" lon="5.59854">
        <ele>1338</ele>
        <time>2010-06-20T08:43:45Z</time>
      </trkpt>
      <trkpt lat="45.02561" lon="5.59853">
        <ele>1338</ele>
        <time>2010-06-20T08:43:46Z</time>
      </trkpt>
      <trkpt lat="45.02557" lon="5.59852">
        <ele>1338</ele>
        <time>2010-06-20T08:43:47Z</time>
      </trkpt>
      <trkpt lat="45.02554" lon="5.59851">
        <ele>1338</ele>
        <time>2010-06-20T08:43:48Z</time>
      </trkpt>
      <trkpt lat="45.02551" lon="5.59849">
        <ele>1338</ele>
        <time>2010-06-20T08:43:49Z</time>
      </trkpt>
      <trkpt lat="45.02547" lon="5.59848">
        <ele>1338</ele>
        <time>2010-06-20T08:43:50Z</time>
      </trkpt>
      <trkpt lat="45.02542" lon="5.59847">
        <ele>1338</ele>
        <time>2010-06-20T08:43:51Z</time>
      </trkpt>
      <trkpt lat="45.02538" lon="5.59847">
        <ele>1338</ele>
        <time>2010-06-20T08:43:52Z</time>
      </trkpt>
      <trkpt lat="45.02533" lon="5.59847">
        <ele>1338</ele>
        <time>2010-06-20T08:43:53Z</time>
      </trkpt>
      <trkpt lat="45.02529" lon="5.59847">
        <ele>1337</ele>
        <time>2010-06-20T08:43:54Z</time>
      </trkpt>
      <trkpt lat="45.02524" lon="5.59847">
        <ele>1337</ele>
        <time>2010-06-20T08:43:55Z</time>
      </trkpt>
      <trkpt lat="45.0252" lon="5.59847">
        <ele>1337</ele>
        <time>2010-06-20T08:43:56Z</time>
      </trkpt>
      <trkpt lat="45.02517" lon="5.59846">
        <ele>1336</ele>
        <time>2010-06-20T08:43:57Z</time>
      </trkpt>
      <trkpt lat="45.02515" lon="5.59845">
        <ele>1336</ele>
        <time>2010-06-20T08:43:58Z</time>
      </trkpt>
      <trkpt lat="45.02512" lon="5.59843">
        <ele>1335</ele>
        <time>2010-06-20T08:43:59Z</time>
      </trkpt>
      <trkpt lat="45.02508" lon="5.59843">
        <ele>1335</ele>
        <time>2010-06-20T08:44:00Z</time>
      </trkpt>
      <trkpt lat="45.02505" lon="5.59842">
        <ele>1335</ele>
        <time>2010-06-20T08:44:01Z</time>
      </trkpt>
      <trkpt lat="45.02501" lon="5.59842">
        <ele>1335</ele>
        <time>2010-06-20T08:44:02Z</time>
      </trkpt>
      <trkpt lat="45.02497" lon="5.59841">
        <ele>1335</ele>
        <time>2010-06-20T08:44:03Z</time>
      </trkpt>
      <trkpt lat="45.02493" lon="5.59841">
        <ele>1334</ele>
        <time>2010-06-20T08:44:04Z</time>
      </trkpt>
      <trkpt lat="45.02489" lon="5.5984">
        <ele>1334</ele>
        <time>2010-06-20T08:44:05Z</time>
      </trkpt>
      <trkpt lat="45.02485" lon="5.59841">
        <ele>1334</ele>
        <time>2010-06-20T08:44:06Z</time>
      </trkpt>
      <trkpt lat="45.02481" lon="5.59841">
        <ele>1334</ele>
        <time>2010-06-20T08:44:07Z</time>
      </trkpt>
      <trkpt lat="45.02477" lon="5.59841">
        <ele>1333</ele>
        <time>2010-06-20T08:44:08Z</time>
      </trkpt>
      <trkpt lat="45.02473" lon="5.59841">
        <ele>1333</ele>
        <time>2010-06-20T08:44:09Z</time>
      </trkpt>
      <trkpt lat="45.0247" lon="5.5984">
        <ele>1332</ele>
        <time>2010-06-20T08:44:10Z</time>
      </trkpt>
      <trkpt lat="45.02466" lon="5.59839">
        <ele>1331</ele>
        <time>2010-06-20T08:44:11Z</time>
      </trkpt>
      <trkpt lat="45.02463" lon="5.59838">
        <ele>1330</ele>
        <time>2010-06-20T08:44:12Z</time>
      </trkpt>
      <trkpt lat="45.02459" lon="5.59838">
        <ele>1330</ele>
        <time>2010-06-20T08:44:13Z</time>
      </trkpt>
      <trkpt lat="45.02455" lon="5.59838">
        <ele>1329</ele>
        <time>2010-06-20T08:44:14Z</time>
      </trkpt>
      <trkpt lat="45.02451" lon="5.59838">
        <ele>1328</ele>
        <time>2010-06-20T08:44:15Z</time>
      </trkpt>
      <trkpt lat="45.02448" lon="5.59837">
        <ele>1327</ele>
        <time>2010-06-20T08:44:16Z</time>
      </trkpt>
      <trkpt lat="45.02444" lon="5.59835">
        <ele>1327</ele>
        <time>2010-06-20T08:44:17Z</time>
      </trkpt>
      <trkpt lat="45.02441" lon="5.59835">
        <ele>1326</ele>
        <time>2010-06-20T08:44:18Z</time>
      </trkpt>
      <trkpt lat="45.02437" lon="5.59835">
        <ele>1325</ele>
        <time>2010-06-20T08:44:19Z</time>
      </trkpt>
      <trkpt lat="45.02433" lon="5.59834">
        <ele>1325</ele>
        <time>2010-06-20T08:44:20Z</time>
      </trkpt>
      <trkpt lat="45.02429" lon="5.59833">
        <ele>1325</ele>
        <time>2010-06-20T08:44:21Z</time>
      </trkpt>
      <trkpt lat="45.02426" lon="5.59833">
        <ele>1324</ele>
        <time>2010-06-20T08:44:22Z</time>
      </trkpt>
      <trkpt lat="45.02422" lon="5.59833">
        <ele>1324</ele>
        <time>2010-06-20T08:44:23Z</time>
      </trkpt>
      <trkpt lat="45.02418" lon="5.59832">
        <ele>1323</ele>
        <time>2010-06-20T08:44:24Z</time>
      </trkpt>
      <trkpt lat="45.02415" lon="5.59832">
        <ele>1323</ele>
        <time>2010-06-20T08:44:25Z</time>
      </trkpt>
      <trkpt lat="45.02411" lon="5.59832">
        <ele>1322</ele>
        <time>2010-06-20T08:44:26Z</time>
      </trkpt>
      <trkpt lat="45.02407" lon="5.59832">
        <ele>1322</ele>
        <time>2010-06-20T08:44:27Z</time>
      </trkpt>
      <trkpt lat="45.02402" lon="5.59832">
        <ele>1321</ele>
        <time>2010-06-20T08:44:28Z</time>
      </trkpt>
      <trkpt lat="45.02398" lon="5.59832">
        <ele>1320</ele>
        <time>2010-06-20T08:44:29Z</time>
      </trkpt>
      <trkpt lat="45.02394" lon="5.59832">
        <ele>1320</ele>
        <time>2010-06-20T08:44:30Z</time>
      </trkpt>
      <trkpt lat="45.0239" lon="5.59832">
        <ele>1319</ele>
        <time>2010-06-20T08:44:31Z</time>
      </trkpt>
      <trkpt lat="45.02386" lon="5.59831">
        <ele>1318</ele>
        <time>2010-06-20T08:44:32Z</time>
      </trkpt>
      <trkpt lat="45.02382" lon="5.59831">
        <ele>1318</ele>
        <time>2010-06-20T08:44:33Z</time>
      </trkpt>
      <trkpt lat="45.02378" lon="5.59831">
        <ele>1317</ele>
        <time>2010-06-20T08:44:34Z</time>
      </trkpt>
      <trkpt lat="45.02375" lon="5.59831">
        <ele>1316</ele>
        <time>2010-06-20T08:44:35Z</time>
      </trkpt>
      <trkpt lat="45.02372" lon="5.59831">
        <ele>1315</ele>
        <time>2010-06-20T08:44:36Z</time>
      </trkpt>
      <trkpt lat="45.02369" lon="5.59833">
        <ele>1315</ele>
        <time>2010-06-20T08:44:37Z</time>
      </trkpt>
      <trkpt lat="45.02367" lon="5.59835">
        <ele>1314</ele>
        <time>2010-06-20T08:44:38Z</time>
      </trkpt>
      <trkpt lat="45.02366" lon="5.59837">
        <ele>1313</ele>
        <time>2010-06-20T08:44:39Z</time>
      </trkpt>
      <trkpt lat="45.02367" lon="5.59839">
        <ele>1313</ele>
        <time>2010-06-20T08:44:40Z</time>
      </trkpt>
      <trkpt lat="45.0237" lon="5.5984">
        <ele>1312</ele>
        <time>2010-06-20T08:44:41Z</time>
      </trkpt>
      <trkpt lat="45.02374" lon="5.59842">
        <ele>1311</ele>
        <time>2010-06-20T08:44:42Z</time>
      </trkpt>
      <trkpt lat="45.02377" lon="5.59843">
        <ele>1311</ele>
        <time>2010-06-20T08:44:43Z</time>
      </trkpt>
      <trkpt lat="45.02381" lon="5.59843">
        <ele>1311</ele>
        <time>2010-06-20T08:44:44Z</time>
      </trkpt>
      <trkpt lat="45.02385" lon="5.59844">
        <ele>1311</ele>
        <time>2010-06-20T08:44:45Z</time>
      </trkpt>
      <trkpt lat="45.02389" lon="5.59844">
        <ele>1311</ele>
        <time>2010-06-20T08:44:46Z</time>
      </trkpt>
      <trkpt lat="45.02393" lon="5.59844">
        <ele>1311</ele>
        <time>2010-06-20T08:44:47Z</time>
      </trkpt>
      <trkpt lat="45.02397" lon="5.59845">
        <ele>1311</ele>
        <time>2010-06-20T08:44:48Z</time>
      </trkpt>
      <trkpt lat="45.02401" lon="5.59846">
        <ele>1311</ele>
        <time>2010-06-20T08:44:49Z</time>
      </trkpt>
      <trkpt lat="45.02405" lon="5.59846">
        <ele>1311</ele>
        <time>2010-06-20T08:44:50Z</time>
      </trkpt>
      <trkpt lat="45.02408" lon="5.59847">
        <ele>1311</ele>
        <time>2010-06-20T08:44:51Z</time>
      </trkpt>
      <trkpt lat="45.02411" lon="5.59847">
        <ele>1311</ele>
        <time>2010-06-20T08:44:52Z</time>
      </trkpt>
      <trkpt lat="45.02414" lon="5.59848">
        <ele>1311</ele>
        <time>2010-06-20T08:44:53Z</time>
      </trkpt>
      <trkpt lat="45.02417" lon="5.59849">
        <ele>1311</ele>
        <time>2010-06-20T08:44:54Z</time>
      </trkpt>
      <trkpt lat="45.0242" lon="5.5985">
        <ele>1311</ele>
        <time>2010-06-20T08:44:55Z</time>
      </trkpt>
      <trkpt lat="45.02424" lon="5.5985">
        <ele>1311</ele>
        <time>2010-06-20T08:44:56Z</time>
      </trkpt>
      <trkpt lat="45.02427" lon="5.59851">
        <ele>1311</ele>
        <time>2010-06-20T08:44:57Z</time>
      </trkpt>
      <trkpt lat="45.02431" lon="5.59851">
        <ele>1311</ele>
        <time>2010-06-20T08:44:58Z</time>
      </trkpt>
      <trkpt lat="45.02434" lon="5.59852">
        <ele>1311</ele>
        <time>2010-06-20T08:44:59Z</time>
      </trkpt>
      <trkpt lat="45.02437" lon="5.59853">
        <ele>1312</ele>
        <time>2010-06-20T08:45:00Z</time>
      </trkpt>
      <trkpt lat="45.02439" lon="5.59855">
        <ele>1312</ele>
        <time>2010-06-20T08:45:01Z</time>
      </trkpt>
      <trkpt lat="45.02442" lon="5.59857">
        <ele>1313</ele>
        <time>2010-06-20T08:45:02Z</time>
      </trkpt>
      <trkpt lat="45.02445" lon="5.59858">
        <ele>1314</ele>
        <time>2010-06-20T08:45:03Z</time>
      </trkpt>
      <trkpt lat="45.02448" lon="5.5986">
        <ele>1314</ele>
        <time>2010-06-20T08:45:04Z</time>
      </trkpt>
      <trkpt lat="45.02451" lon="5.59861">
        <ele>1315</ele>
        <time>2010-06-20T08:45:05Z</time>
      </trkpt>
      <trkpt lat="45.02455" lon="5.59862">
        <ele>1316</ele>
        <time>2010-06-20T08:45:06Z</time>
      </trkpt>
      <trkpt lat="45.02458" lon="5.59862">
        <ele>1316</ele>
        <time>2010-06-20T08:45:07Z</time>
      </trkpt>
      <trkpt lat="45.02461" lon="5.59863">
        <ele>1316</ele>
        <time>2010-06-20T08:45:08Z</time>
      </trkpt>
      <trkpt lat="45.02464" lon="5.59865">
        <ele>1316</ele>
        <time>2010-06-20T08:45:09Z</time>
      </trkpt>
      <trkpt lat="45.02467" lon="5.59865">
        <ele>1316</ele>
        <time>2010-06-20T08:45:10Z</time>
      </trkpt>
      <trkpt lat="45.02471" lon="5.59866">
        <ele>1317</ele>
        <time>2010-06-20T08:45:11Z</time>
      </trkpt>
      <trkpt lat="45.02474" lon="5.59867">
        <ele>1317</ele>
        <time>2010-06-20T08:45:12Z</time>
      </trkpt>
      <trkpt lat="45.02477" lon="5.59869">
        <ele>1317</ele>
        <time>2010-06-20T08:45:13Z</time>
      </trkpt>
      <trkpt lat="45.0248" lon="5.59871">
        <ele>1318</ele>
        <time>2010-06-20T08:45:14Z</time>
      </trkpt>
      <trkpt lat="45.02484" lon="5.59872">
        <ele>1318</ele>
        <time>2010-06-20T08:45:15Z</time>
      </trkpt>
      <trkpt lat="45.02487" lon="5.59874">
        <ele>1318</ele>
        <time>2010-06-20T08:45:16Z</time>
      </trkpt>
      <trkpt lat="45.0249" lon="5.59875">
        <ele>1318</ele>
        <time>2010-06-20T08:45:17Z</time>
      </trkpt>
      <trkpt lat="45.02493" lon="5.59877">
        <ele>1318</ele>
        <time>2010-06-20T08:45:18Z</time>
      </trkpt>
      <trkpt lat="45.02495" lon="5.59878">
        <ele>1318</ele>
        <time>2010-06-20T08:45:19Z</time>
      </trkpt>
      <trkpt lat="45.02498" lon="5.5988">
        <ele>1318</ele>
        <time>2010-06-20T08:45:20Z</time>
      </trkpt>
      <trkpt lat="45.02502" lon="5.59882">
        <ele>1318</ele>
        <time>2010-06-20T08:45:21Z</time>
      </trkpt>
      <trkpt lat="45.02504" lon="5.59884">
        <ele>1318</ele>
        <time>2010-06-20T08:45:22Z</time>
      </trkpt>
      <trkpt lat="45.02507" lon="5.59886">
        <ele>1318</ele>
        <time>2010-06-20T08:45:23Z</time>
      </trkpt>
      <trkpt lat="45.02511" lon="5.59888">
        <ele>1318</ele>
        <time>2010-06-20T08:45:24Z</time>
      </trkpt>
      <trkpt lat="45.02514" lon="5.59889">
        <ele>1318</ele>
        <time>2010-06-20T08:45:25Z</time>
      </trkpt>
      <trkpt lat="45.02518" lon="5.59891">
        <ele>1318</ele>
        <time>2010-06-20T08:45:26Z</time>
      </trkpt>
      <trkpt lat="45.02521" lon="5.59891">
        <ele>1318</ele>
        <time>2010-06-20T08:45:27Z</time>
      </trkpt>
      <trkpt lat="45.02525" lon="5.59893">
        <ele>1318</ele>
        <time>2010-06-20T08:45:28Z</time>
      </trkpt>
      <trkpt lat="45.02528" lon="5.59895">
        <ele>1318</ele>
        <time>2010-06-20T08:45:29Z</time>
      </trkpt>
      <trkpt lat="45.02532" lon="5.59897">
        <ele>1318</ele>
        <time>2010-06-20T08:45:30Z</time>
      </trkpt>
      <trkpt lat="45.02536" lon="5.59899">
        <ele>1318</ele>
        <time>2010-06-20T08:45:31Z</time>
      </trkpt>
      <trkpt lat="45.02539" lon="5.59901">
        <ele>1318</ele>
        <time>2010-06-20T08:45:32Z</time>
      </trkpt>
      <trkpt lat="45.02542" lon="5.59902">
        <ele>1318</ele>
        <time>2010-06-20T08:45:33Z</time>
      </trkpt>
      <trkpt lat="45.02545" lon="5.59904">
        <ele>1318</ele>
        <time>2010-06-20T08:45:34Z</time>
      </trkpt>
      <trkpt lat="45.02548" lon="5.59906">
        <ele>1318</ele>
        <time>2010-06-20T08:45:35Z</time>
      </trkpt>
      <trkpt lat="45.0255" lon="5.59908">
        <ele>1318</ele>
        <time>2010-06-20T08:45:36Z</time>
      </trkpt>
      <trkpt lat="45.02553" lon="5.59909">
        <ele>1318</ele>
        <time>2010-06-20T08:45:37Z</time>
      </trkpt>
      <trkpt lat="45.02556" lon="5.59912">
        <ele>1318</ele>
        <time>2010-06-20T08:45:38Z</time>
      </trkpt>
      <trkpt lat="45.02558" lon="5.59914">
        <ele>1318</ele>
        <time>2010-06-20T08:45:39Z</time>
      </trkpt>
      <trkpt lat="45.02561" lon="5.59916">
        <ele>1318</ele>
        <time>2010-06-20T08:45:40Z</time>
      </trkpt>
      <trkpt lat="45.02563" lon="5.59918">
        <ele>1318</ele>
        <time>2010-06-20T08:45:41Z</time>
      </trkpt>
      <trkpt lat="45.02566" lon="5.5992">
        <ele>1318</ele>
        <time>2010-06-20T08:45:42Z</time>
      </trkpt>
      <trkpt lat="45.02569" lon="5.59921">
        <ele>1319</ele>
        <time>2010-06-20T08:45:43Z</time>
      </trkpt>
      <trkpt lat="45.02572" lon="5.59923">
        <ele>1319</ele>
        <time>2010-06-20T08:45:44Z</time>
      </trkpt>
      <trkpt lat="45.02575" lon="5.59924">
        <ele>1319</ele>
        <time>2010-06-20T08:45:45Z</time>
      </trkpt>
      <trkpt lat="45.02578" lon="5.59925">
        <ele>1319</ele>
        <time>2010-06-20T08:45:46Z</time>
      </trkpt>
      <trkpt lat="45.02581" lon="5.59926">
        <ele>1319</ele>
        <time>2010-06-20T08:45:47Z</time>
      </trkpt>
      <trkpt lat="45.02584" lon="5.59927">
        <ele>1319</ele>
        <time>2010-06-20T08:45:48Z</time>
      </trkpt>
      <trkpt lat="45.02588" lon="5.59928">
        <ele>1319</ele>
        <time>2010-06-20T08:45:49Z</time>
      </trkpt>
      <trkpt lat="45.02591" lon="5.59929">
        <ele>1319</ele>
        <time>2010-06-20T08:45:50Z</time>
      </trkpt>
      <trkpt lat="45.02595" lon="5.5993">
        <ele>1319</ele>
        <time>2010-06-20T08:45:51Z</time>
      </trkpt>
      <trkpt lat="45.02598" lon="5.59931">
        <ele>1319</ele>
        <time>2010-06-20T08:45:52Z</time>
      </trkpt>
      <trkpt lat="45.02601" lon="5.59932">
        <ele>1319</ele>
        <time>2010-06-20T08:45:53Z</time>
      </trkpt>
      <trkpt lat="45.02605" lon="5.59933">
        <ele>1319</ele>
        <time>2010-06-20T08:45:54Z</time>
      </trkpt>
      <trkpt lat="45.02608" lon="5.59934">
        <ele>1319</ele>
        <time>2010-06-20T08:45:55Z</time>
      </trkpt>
      <trkpt lat="45.02612" lon="5.59936">
        <ele>1319</ele>
        <time>2010-06-20T08:45:56Z</time>
      </trkpt>
      <trkpt lat="45.02615" lon="5.59937">
        <ele>1319</ele>
        <time>2010-06-20T08:45:57Z</time>
      </trkpt>
      <trkpt lat="45.02618" lon="5.59939">
        <ele>1319</ele>
        <time>2010-06-20T08:45:58Z</time>
      </trkpt>
      <trkpt lat="45.02621" lon="5.5994">
        <ele>1319</ele>
        <time>2010-06-20T08:45:59Z</time>
      </trkpt>
      <trkpt lat="45.02623" lon="5.59942">
        <ele>1319</ele>
        <time>2010-06-20T08:46:00Z</time>
      </trkpt>
      <trkpt lat="45.02626" lon="5.59943">
        <ele>1319</ele>
        <time>2010-06-20T08:46:01Z</time>
      </trkpt>
      <trkpt lat="45.02629" lon="5.59945">
        <ele>1319</ele>
        <time>2010-06-20T08:46:02Z</time>
      </trkpt>
      <trkpt lat="45.02631" lon="5.59946">
        <ele>1319</ele>
        <time>2010-06-20T08:46:03Z</time>
      </trkpt>
      <trkpt lat="45.02634" lon="5.59948">
        <ele>1319</ele>
        <time>2010-06-20T08:46:04Z</time>
      </trkpt>
      <trkpt lat="45.02637" lon="5.5995">
        <ele>1319</ele>
        <time>2010-06-20T08:46:05Z</time>
      </trkpt>
      <trkpt lat="45.0264" lon="5.59951">
        <ele>1319</ele>
        <time>2010-06-20T08:46:06Z</time>
      </trkpt>
      <trkpt lat="45.02643" lon="5.59953">
        <ele>1320</ele>
        <time>2010-06-20T08:46:07Z</time>
      </trkpt>
      <trkpt lat="45.02646" lon="5.59954">
        <ele>1320</ele>
        <time>2010-06-20T08:46:08Z</time>
      </trkpt>
      <trkpt lat="45.02648" lon="5.59955">
        <ele>1320</ele>
        <time>2010-06-20T08:46:09Z</time>
      </trkpt>
      <trkpt lat="45.0265" lon="5.59956">
        <ele>1321</ele>
        <time>2010-06-20T08:46:10Z</time>
      </trkpt>
      <trkpt lat="45.02653" lon="5.59957">
        <ele>1321</ele>
        <time>2010-06-20T08:46:11Z</time>
      </trkpt>
      <trkpt lat="45.02655" lon="5.59959">
        <ele>1321</ele>
        <time>2010-06-20T08:46:12Z</time>
      </trkpt>
      <trkpt lat="45.02658" lon="5.5996">
        <ele>1321</ele>
        <time>2010-06-20T08:46:13Z</time>
      </trkpt>
      <trkpt lat="45.02661" lon="5.59961">
        <ele>1322</ele>
        <time>2010-06-20T08:46:14Z</time>
      </trkpt>
      <trkpt lat="45.02665" lon="5.59963">
        <ele>1322</ele>
        <time>2010-06-20T08:46:15Z</time>
      </trkpt>
      <trkpt lat="45.02668" lon="5.59964">
        <ele>1322</ele>
        <time>2010-06-20T08:46:16Z</time>
      </trkpt>
      <trkpt lat="45.02672" lon="5.59966">
        <ele>1322</ele>
        <time>2010-06-20T08:46:17Z</time>
      </trkpt>
      <trkpt lat="45.02675" lon="5.59968">
        <ele>1322</ele>
        <time>2010-06-20T08:46:18Z</time>
      </trkpt>
      <trkpt lat="45.02678" lon="5.5997">
        <ele>1322</ele>
        <time>2010-06-20T08:46:19Z</time>
      </trkpt>
      <trkpt lat="45.02682" lon="5.59971">
        <ele>1323</ele>
        <time>2010-06-20T08:46:20Z</time>
      </trkpt>
      <trkpt lat="45.02685" lon="5.59973">
        <ele>1323</ele>
        <time>2010-06-20T08:46:21Z</time>
      </trkpt>
      <trkpt lat="45.02688" lon="5.59974">
        <ele>1323</ele>
        <time>2010-06-20T08:46:22Z</time>
      </trkpt>
      <trkpt lat="45.02691" lon="5.59975">
        <ele>1324</ele>
        <time>2010-06-20T08:46:23Z</time>
      </trkpt>
      <trkpt lat="45.02695" lon="5.59976">
        <ele>1324</ele>
        <time>2010-06-20T08:46:24Z</time>
      </trkpt>
      <trkpt lat="45.02698" lon="5.59977">
        <ele>1324</ele>
        <time>2010-06-20T08:46:25Z</time>
      </trkpt>
      <trkpt lat="45.02702" lon="5.59978">
        <ele>1324</ele>
        <time>2010-06-20T08:46:26Z</time>
      </trkpt>
      <trkpt lat="45.02705" lon="5.59979">
        <ele>1324</ele>
        <time>2010-06-20T08:46:27Z</time>
      </trkpt>
      <trkpt lat="45.02708" lon="5.5998">
        <ele>1324</ele>
        <time>2010-06-20T08:46:28Z</time>
      </trkpt>
      <trkpt lat="45.02712" lon="5.59982">
        <ele>1324</ele>
        <time>2010-06-20T08:46:29Z</time>
      </trkpt>
      <trkpt lat="45.02715" lon="5.59983">
        <ele>1324</ele>
        <time>2010-06-20T08:46:30Z</time>
      </trkpt>
      <trkpt lat="45.02719" lon="5.59983">
        <ele>1324</ele>
        <time>2010-06-20T08:46:31Z</time>
      </trkpt>
      <trkpt lat="45.02722" lon="5.59984">
        <ele>1324</ele>
        <time>2010-06-20T08:46:32Z</time>
      </trkpt>
      <trkpt lat="45.02725" lon="5.59985">
        <ele>1324</ele>
        <time>2010-06-20T08:46:33Z</time>
      </trkpt>
      <trkpt lat="45.02728" lon="5.59985">
        <ele>1324</ele>
        <time>2010-06-20T08:46:34Z</time>
      </trkpt>
      <trkpt lat="45.0273" lon="5.59987">
        <ele>1324</ele>
        <time>2010-06-20T08:46:35Z</time>
      </trkpt>
      <trkpt lat="45.02734" lon="5.59989">
        <ele>1324</ele>
        <time>2010-06-20T08:46:36Z</time>
      </trkpt>
      <trkpt lat="45.02737" lon="5.5999">
        <ele>1324</ele>
        <time>2010-06-20T08:46:37Z</time>
      </trkpt>
      <trkpt lat="45.0274" lon="5.59992">
        <ele>1324</ele>
        <time>2010-06-20T08:46:38Z</time>
      </trkpt>
      <trkpt lat="45.02743" lon="5.59992">
        <ele>1324</ele>
        <time>2010-06-20T08:46:39Z</time>
      </trkpt>
      <trkpt lat="45.02747" lon="5.59993">
        <ele>1324</ele>
        <time>2010-06-20T08:46:40Z</time>
      </trkpt>
      <trkpt lat="45.0275" lon="5.59994">
        <ele>1324</ele>
        <time>2010-06-20T08:46:41Z</time>
      </trkpt>
      <trkpt lat="45.02754" lon="5.59995">
        <ele>1324</ele>
        <time>2010-06-20T08:46:42Z</time>
      </trkpt>
      <trkpt lat="45.02757" lon="5.59997">
        <ele>1324</ele>
        <time>2010-06-20T08:46:43Z</time>
      </trkpt>
      <trkpt lat="45.0276" lon="5.59999">
        <ele>1324</ele>
        <time>2010-06-20T08:46:44Z</time>
      </trkpt>
      <trkpt lat="45.02764" lon="5.60001">
        <ele>1324</ele>
        <time>2010-06-20T08:46:45Z</time>
      </trkpt>
      <trkpt lat="45.02766" lon="5.60004">
        <ele>1324</ele>
        <time>2010-06-20T08:46:46Z</time>
      </trkpt>
      <trkpt lat="45.02769" lon="5.60006">
        <ele>1324</ele>
        <time>2010-06-20T08:46:47Z</time>
      </trkpt>
      <trkpt lat="45.02772" lon="5.60007">
        <ele>1324</ele>
        <time>2010-06-20T08:46:48Z</time>
      </trkpt>
      <trkpt lat="45.02775" lon="5.60009">
        <ele>1324</ele>
        <time>2010-06-20T08:46:49Z</time>
      </trkpt>
      <trkpt lat="45.02778" lon="5.60011">
        <ele>1324</ele>
        <time>2010-06-20T08:46:50Z</time>
      </trkpt>
      <trkpt lat="45.02781" lon="5.60013">
        <ele>1324</ele>
        <time>2010-06-20T08:46:51Z</time>
      </trkpt>
      <trkpt lat="45.02784" lon="5.60014">
        <ele>1324</ele>
        <time>2010-06-20T08:46:52Z</time>
      </trkpt>
      <trkpt lat="45.02786" lon="5.60016">
        <ele>1324</ele>
        <time>2010-06-20T08:46:53Z</time>
      </trkpt>
      <trkpt lat="45.02789" lon="5.60018">
        <ele>1324</ele>
        <time>2010-06-20T08:46:54Z</time>
      </trkpt>
      <trkpt lat="45.02791" lon="5.6002">
        <ele>1324</ele>
        <time>2010-06-20T08:46:55Z</time>
      </trkpt>
      <trkpt lat="45.02794" lon="5.60023">
        <ele>1324</ele>
        <time>2010-06-20T08:46:56Z</time>
      </trkpt>
      <trkpt lat="45.02796" lon="5.60025">
        <ele>1324</ele>
        <time>2010-06-20T08:46:57Z</time>
      </trkpt>
      <trkpt lat="45.02799" lon="5.60027">
        <ele>1324</ele>
        <time>2010-06-20T08:46:58Z</time>
      </trkpt>
      <trkpt lat="45.02802" lon="5.60029">
        <ele>1324</ele>
        <time>2010-06-20T08:46:59Z</time>
      </trkpt>
      <trkpt lat="45.02806" lon="5.60031">
        <ele>1324</ele>
        <time>2010-06-20T08:47:00Z</time>
      </trkpt>
      <trkpt lat="45.02809" lon="5.60034">
        <ele>1324</ele>
        <time>2010-06-20T08:47:01Z</time>
      </trkpt>
      <trkpt lat="45.02812" lon="5.60036">
        <ele>1324</ele>
        <time>2010-06-20T08:47:02Z</time>
      </trkpt>
      <trkpt lat="45.02815" lon="5.60039">
        <ele>1324</ele>
        <time>2010-06-20T08:47:03Z</time>
      </trkpt>
      <trkpt lat="45.02817" lon="5.60041">
        <ele>1324</ele>
        <time>2010-06-20T08:47:04Z</time>
      </trkpt>
      <trkpt lat="45.0282" lon="5.60043">
        <ele>1324</ele>
        <time>2010-06-20T08:47:05Z</time>
      </trkpt>
      <trkpt lat="45.02822" lon="5.60045">
        <ele>1324</ele>
        <time>2010-06-20T08:47:06Z</time>
      </trkpt>
      <trkpt lat="45.02824" lon="5.60047">
        <ele>1324</ele>
        <time>2010-06-20T08:47:07Z</time>
      </trkpt>
      <trkpt lat="45.02827" lon="5.60049">
        <ele>1324</ele>
        <time>2010-06-20T08:47:08Z</time>
      </trkpt>
      <trkpt lat="45.0283" lon="5.60051">
        <ele>1324</ele>
        <time>2010-06-20T08:47:09Z</time>
      </trkpt>
      <trkpt lat="45.02833" lon="5.60053">
        <ele>1324</ele>
        <time>2010-06-20T08:47:10Z</time>
      </trkpt>
      <trkpt lat="45.02836" lon="5.60054">
        <ele>1324</ele>
        <time>2010-06-20T08:47:11Z</time>
      </trkpt>
      <trkpt lat="45.02839" lon="5.60056">
        <ele>1324</ele>
        <time>2010-06-20T08:47:12Z</time>
      </trkpt>
      <trkpt lat="45.02842" lon="5.60059">
        <ele>1324</ele>
        <time>2010-06-20T08:47:13Z</time>
      </trkpt>
      <trkpt lat="45.02844" lon="5.60061">
        <ele>1324</ele>
        <time>2010-06-20T08:47:14Z</time>
      </trkpt>
      <trkpt lat="45.02848" lon="5.60063">
        <ele>1324</ele>
        <time>2010-06-20T08:47:15Z</time>
      </trkpt>
      <trkpt lat="45.02851" lon="5.60065">
        <ele>1324</ele>
        <time>2010-06-20T08:47:16Z</time>
      </trkpt>
      <trkpt lat="45.02853" lon="5.60067">
        <ele>1324</ele>
        <time>2010-06-20T08:47:17Z</time>
      </trkpt>
      <trkpt lat="45.02856" lon="5.60069">
        <ele>1324</ele>
        <time>2010-06-20T08:47:18Z</time>
      </trkpt>
      <trkpt lat="45.02859" lon="5.60072">
        <ele>1324</ele>
        <time>2010-06-20T08:47:19Z</time>
      </trkpt>
      <trkpt lat="45.02862" lon="5.60073">
        <ele>1324</ele>
        <time>2010-06-20T08:47:20Z</time>
      </trkpt>
      <trkpt lat="45.02865" lon="5.60075">
        <ele>1324</ele>
        <time>2010-06-20T08:47:21Z</time>
      </trkpt>
      <trkpt lat="45.02867" lon="5.60076">
        <ele>1324</ele>
        <time>2010-06-20T08:47:22Z</time>
      </trkpt>
      <trkpt lat="45.0287" lon="5.60078">
        <ele>1324</ele>
        <time>2010-06-20T08:47:23Z</time>
      </trkpt>
      <trkpt lat="45.02873" lon="5.60079">
        <ele>1324</ele>
        <time>2010-06-20T08:47:24Z</time>
      </trkpt>
      <trkpt lat="45.02877" lon="5.60081">
        <ele>1324</ele>
        <time>2010-06-20T08:47:25Z</time>
      </trkpt>
      <trkpt lat="45.0288" lon="5.60082">
        <ele>1324</ele>
        <time>2010-06-20T08:47:26Z</time>
      </trkpt>
      <trkpt lat="45.02883" lon="5.60084">
        <ele>1324</ele>
        <time>2010-06-20T08:47:27Z</time>
      </trkpt>
      <trkpt lat="45.02886" lon="5.60085">
        <ele>1324</ele>
        <time>2010-06-20T08:47:28Z</time>
      </trkpt>
      <trkpt lat="45.02889" lon="5.60086">
        <ele>1324</ele>
        <time>2010-06-20T08:47:29Z</time>
      </trkpt>
      <trkpt lat="45.02892" lon="5.60088">
        <ele>1324</ele>
        <time>2010-06-20T08:47:30Z</time>
      </trkpt>
      <trkpt lat="45.02895" lon="5.6009">
        <ele>1324</ele>
        <time>2010-06-20T08:47:31Z</time>
      </trkpt>
      <trkpt lat="45.02898" lon="5.60091">
        <ele>1324</ele>
        <time>2010-06-20T08:47:32Z</time>
      </trkpt>
      <trkpt lat="45.02901" lon="5.60093">
        <ele>1324</ele>
        <time>2010-06-20T08:47:33Z</time>
      </trkpt>
      <trkpt lat="45.02903" lon="5.60094">
        <ele>1324</ele>
        <time>2010-06-20T08:47:34Z</time>
      </trkpt>
      <trkpt lat="45.02906" lon="5.60096">
        <ele>1324</ele>
        <time>2010-06-20T08:47:35Z</time>
      </trkpt>
      <trkpt lat="45.02909" lon="5.60097">
        <ele>1324</ele>
        <time>2010-06-20T08:47:36Z</time>
      </trkpt>
      <trkpt lat="45.02912" lon="5.60098">
        <ele>1324</ele>
        <time>2010-06-20T08:47:37Z</time>
      </trkpt>
      <trkpt lat="45.02915" lon="5.601">
        <ele>1324</ele>
        <time>2010-06-20T08:47:38Z</time>
      </trkpt>
      <trkpt lat="45.02917" lon="5.60101">
        <ele>1324</ele>
        <time>2010-06-20T08:47:39Z</time>
      </trkpt>
      <trkpt lat="45.0292" lon="5.60103">
        <ele>1324</ele>
        <time>2010-06-20T08:47:40Z</time>
      </trkpt>
      <trkpt lat="45.02923" lon="5.60104">
        <ele>1324</ele>
        <time>2010-06-20T08:47:41Z</time>
      </trkpt>
      <trkpt lat="45.02926" lon="5.60106">
        <ele>1324</ele>
        <time>2010-06-20T08:47:42Z</time>
      </trkpt>
      <trkpt lat="45.0293" lon="5.60107">
        <ele>1324</ele>
        <time>2010-06-20T08:47:43Z</time>
      </trkpt>
      <trkpt lat="45.02933" lon="5.60108">
        <ele>1324</ele>
        <time>2010-06-20T08:47:44Z</time>
      </trkpt>
      <trkpt lat="45.02936" lon="5.6011">
        <ele>1324</ele>
        <time>2010-06-20T08:47:45Z</time>
      </trkpt>
      <trkpt lat="45.02939" lon="5.60111">
        <ele>1324</ele>
        <time>2010-06-20T08:47:46Z</time>
      </trkpt>
      <trkpt lat="45.02942" lon="5.60113">
        <ele>1324</ele>
        <time>2010-06-20T08:47:47Z</time>
      </trkpt>
      <trkpt lat="45.02945" lon="5.60115">
        <ele>1324</ele>
        <time>2010-06-20T08:47:48Z</time>
      </trkpt>
      <trkpt lat="45.02948" lon="5.60116">
        <ele>1324</ele>
        <time>2010-06-20T08:47:49Z</time>
      </trkpt>
      <trkpt lat="45.02951" lon="5.60118">
        <ele>1325</ele>
        <time>2010-06-20T08:47:50Z</time>
      </trkpt>
      <trkpt lat="45.02954" lon="5.60119">
        <ele>1325</ele>
        <time>2010-06-20T08:47:51Z</time>
      </trkpt>
      <trkpt lat="45.02957" lon="5.60121">
        <ele>1325</ele>
        <time>2010-06-20T08:47:52Z</time>
      </trkpt>
      <trkpt lat="45.0296" lon="5.60122">
        <ele>1325</ele>
        <time>2010-06-20T08:47:53Z</time>
      </trkpt>
      <trkpt lat="45.02964" lon="5.60123">
        <ele>1325</ele>
        <time>2010-06-20T08:47:54Z</time>
      </trkpt>
      <trkpt lat="45.02968" lon="5.60125">
        <ele>1325</ele>
        <time>2010-06-20T08:47:55Z</time>
      </trkpt>
      <trkpt lat="45.02972" lon="5.60126">
        <ele>1325</ele>
        <time>2010-06-20T08:47:56Z</time>
      </trkpt>
      <trkpt lat="45.02975" lon="5.60128">
        <ele>1325</ele>
        <time>2010-06-20T08:47:57Z</time>
      </trkpt>
      <trkpt lat="45.02979" lon="5.6013">
        <ele>1325</ele>
        <time>2010-06-20T08:47:58Z</time>
      </trkpt>
      <trkpt lat="45.02982" lon="5.60132">
        <ele>1325</ele>
        <time>2010-06-20T08:47:59Z</time>
      </trkpt>
      <trkpt lat="45.02984" lon="5.60134">
        <ele>1325</ele>
        <time>2010-06-20T08:48:00Z</time>
      </trkpt>
      <trkpt lat="45.02987" lon="5.60136">
        <ele>1325</ele>
        <time>2010-06-20T08:48:01Z</time>
      </trkpt>
      <trkpt lat="45.02989" lon="5.60138">
        <ele>1325</ele>
        <time>2010-06-20T08:48:02Z</time>
      </trkpt>
      <trkpt lat="45.02993" lon="5.6014">
        <ele>1325</ele>
        <time>2010-06-20T08:48:03Z</time>
      </trkpt>
      <trkpt lat="45.02995" lon="5.60142">
        <ele>1325</ele>
        <time>2010-06-20T08:48:04Z</time>
      </trkpt>
      <trkpt lat="45.02998" lon="5.60143">
        <ele>1325</ele>
        <time>2010-06-20T08:48:05Z</time>
      </trkpt>
      <trkpt lat="45.03001" lon="5.60145">
        <ele>1325</ele>
        <time>2010-06-20T08:48:06Z</time>
      </trkpt>
      <trkpt lat="45.03003" lon="5.60147">
        <ele>1325</ele>
        <time>2010-06-20T08:48:07Z</time>
      </trkpt>
      <trkpt lat="45.03006" lon="5.60148">
        <ele>1325</ele>
        <time>2010-06-20T08:48:08Z</time>
      </trkpt>
      <trkpt lat="45.03008" lon="5.6015">
        <ele>1325</ele>
        <time>2010-06-20T08:48:09Z</time>
      </trkpt>
      <trkpt lat="45.03012" lon="5.60151">
        <ele>1325</ele>
        <time>2010-06-20T08:48:10Z</time>
      </trkpt>
      <trkpt lat="45.03015" lon="5.60153">
        <ele>1325</ele>
        <time>2010-06-20T08:48:11Z</time>
      </trkpt>
      <trkpt lat="45.03018" lon="5.60155">
        <ele>1325</ele>
        <time>2010-06-20T08:48:12Z</time>
      </trkpt>
      <trkpt lat="45.03021" lon="5.60156">
        <ele>1325</ele>
        <time>2010-06-20T08:48:13Z</time>
      </trkpt>
      <trkpt lat="45.03024" lon="5.60157">
        <ele>1325</ele>
        <time>2010-06-20T08:48:14Z</time>
      </trkpt>
      <trkpt lat="45.03027" lon="5.60157">
        <ele>1325</ele>
        <time>2010-06-20T08:48:15Z</time>
      </trkpt>
      <trkpt lat="45.03031" lon="5.60158">
        <ele>1325</ele>
        <time>2010-06-20T08:48:16Z</time>
      </trkpt>
      <trkpt lat="45.03034" lon="5.60158">
        <ele>1325</ele>
        <time>2010-06-20T08:48:17Z</time>
      </trkpt>
      <trkpt lat="45.03038" lon="5.60159">
        <ele>1325</ele>
        <time>2010-06-20T08:48:18Z</time>
      </trkpt>
      <trkpt lat="45.03041" lon="5.6016">
        <ele>1325</ele>
        <time>2010-06-20T08:48:19Z</time>
      </trkpt>
      <trkpt lat="45.03044" lon="5.60161">
        <ele>1325</ele>
        <time>2010-06-20T08:48:20Z</time>
      </trkpt>
      <trkpt lat="45.03048" lon="5.60162">
        <ele>1325</ele>
        <time>2010-06-20T08:48:21Z</time>
      </trkpt>
      <trkpt lat="45.03051" lon="5.60163">
        <ele>1325</ele>
        <time>2010-06-20T08:48:22Z</time>
      </trkpt>
      <trkpt lat="45.03054" lon="5.60164">
        <ele>1325</ele>
        <time>2010-06-20T08:48:23Z</time>
      </trkpt>
      <trkpt lat="45.03056" lon="5.60164">
        <ele>1325</ele>
        <time>2010-06-20T08:48:24Z</time>
      </trkpt>
      <trkpt lat="45.0306" lon="5.60166">
        <ele>1325</ele>
        <time>2010-06-20T08:48:25Z</time>
      </trkpt>
      <trkpt lat="45.03063" lon="5.60166">
        <ele>1325</ele>
        <time>2010-06-20T08:48:26Z</time>
      </trkpt>
      <trkpt lat="45.03066" lon="5.60168">
        <ele>1325</ele>
        <time>2010-06-20T08:48:27Z</time>
      </trkpt>
      <trkpt lat="45.03069" lon="5.60169">
        <ele>1325</ele>
        <time>2010-06-20T08:48:28Z</time>
      </trkpt>
      <trkpt lat="45.03071" lon="5.60171">
        <ele>1325</ele>
        <time>2010-06-20T08:48:29Z</time>
      </trkpt>
      <trkpt lat="45.03074" lon="5.60173">
        <ele>1325</ele>
        <time>2010-06-20T08:48:30Z</time>
      </trkpt>
      <trkpt lat="45.03076" lon="5.60174">
        <ele>1325</ele>
        <time>2010-06-20T08:48:31Z</time>
      </trkpt>
      <trkpt lat="45.03079" lon="5.60176">
        <ele>1325</ele>
        <time>2010-06-20T08:48:32Z</time>
      </trkpt>
      <trkpt lat="45.03083" lon="5.60178">
        <ele>1325</ele>
        <time>2010-06-20T08:48:33Z</time>
      </trkpt>
      <trkpt lat="45.03085" lon="5.6018">
        <ele>1325</ele>
        <time>2010-06-20T08:48:35Z</time>
      </trkpt>
      <trkpt lat="45.03087" lon="5.60183">
        <ele>1325</ele>
        <time>2010-06-20T08:48:35Z</time>
      </trkpt>
      <trkpt lat="45.0309" lon="5.60185">
        <ele>1325</ele>
        <time>2010-06-20T08:48:36Z</time>
      </trkpt>
      <trkpt lat="45.03092" lon="5.60188">
        <ele>1325</ele>
        <time>2010-06-20T08:48:37Z</time>
      </trkpt>
      <trkpt lat="45.03095" lon="5.60191">
        <ele>1325</ele>
        <time>2010-06-20T08:48:38Z</time>
      </trkpt>
      <trkpt lat="45.03097" lon="5.60195">
        <ele>1326</ele>
        <time>2010-06-20T08:48:39Z</time>
      </trkpt>
      <trkpt lat="45.03099" lon="5.60198">
        <ele>1326</ele>
        <time>2010-06-20T08:48:40Z</time>
      </trkpt>
      <trkpt lat="45.031" lon="5.60202">
        <ele>1326</ele>
        <time>2010-06-20T08:48:41Z</time>
      </trkpt>
      <trkpt lat="45.03101" lon="5.60206">
        <ele>1326</ele>
        <time>2010-06-20T08:48:42Z</time>
      </trkpt>
      <trkpt lat="45.03103" lon="5.6021">
        <ele>1326</ele>
        <time>2010-06-20T08:48:43Z</time>
      </trkpt>
      <trkpt lat="45.03104" lon="5.60213">
        <ele>1327</ele>
        <time>2010-06-20T08:48:44Z</time>
      </trkpt>
      <trkpt lat="45.03106" lon="5.60216">
        <ele>1327</ele>
        <time>2010-06-20T08:48:45Z</time>
      </trkpt>
      <trkpt lat="45.03107" lon="5.60218">
        <ele>1327</ele>
        <time>2010-06-20T08:48:46Z</time>
      </trkpt>
      <trkpt lat="45.03111" lon="5.60219">
        <ele>1328</ele>
        <time>2010-06-20T08:48:47Z</time>
      </trkpt>
      <trkpt lat="45.03114" lon="5.60221">
        <ele>1328</ele>
        <time>2010-06-20T08:48:48Z</time>
      </trkpt>
      <trkpt lat="45.03117" lon="5.60224">
        <ele>1328</ele>
        <time>2010-06-20T08:48:49Z</time>
      </trkpt>
      <trkpt lat="45.03119" lon="5.60227">
        <ele>1328</ele>
        <time>2010-06-20T08:48:50Z</time>
      </trkpt>
      <trkpt lat="45.03122" lon="5.60229">
        <ele>1328</ele>
        <time>2010-06-20T08:48:51Z</time>
      </trkpt>
      <trkpt lat="45.03125" lon="5.60231">
        <ele>1328</ele>
        <time>2010-06-20T08:48:52Z</time>
      </trkpt>
      <trkpt lat="45.03128" lon="5.60234">
        <ele>1328</ele>
        <time>2010-06-20T08:48:53Z</time>
      </trkpt>
      <trkpt lat="45.03131" lon="5.60237">
        <ele>1328</ele>
        <time>2010-06-20T08:48:54Z</time>
      </trkpt>
      <trkpt lat="45.03134" lon="5.60239">
        <ele>1328</ele>
        <time>2010-06-20T08:48:55Z</time>
      </trkpt>
      <trkpt lat="45.03136" lon="5.60242">
        <ele>1328</ele>
        <time>2010-06-20T08:48:56Z</time>
      </trkpt>
      <trkpt lat="45.03139" lon="5.60244">
        <ele>1328</ele>
        <time>2010-06-20T08:48:57Z</time>
      </trkpt>
      <trkpt lat="45.03142" lon="5.60246">
        <ele>1328</ele>
        <time>2010-06-20T08:48:58Z</time>
      </trkpt>
      <trkpt lat="45.03144" lon="5.60248">
        <ele>1328</ele>
        <time>2010-06-20T08:48:59Z</time>
      </trkpt>
      <trkpt lat="45.03147" lon="5.6025">
        <ele>1328</ele>
        <time>2010-06-20T08:49:00Z</time>
      </trkpt>
      <trkpt lat="45.03151" lon="5.6025">
        <ele>1328</ele>
        <time>2010-06-20T08:49:01Z</time>
      </trkpt>
      <trkpt lat="45.03154" lon="5.60251">
        <ele>1328</ele>
        <time>2010-06-20T08:49:02Z</time>
      </trkpt>
      <trkpt lat="45.03158" lon="5.60252">
        <ele>1328</ele>
        <time>2010-06-20T08:49:03Z</time>
      </trkpt>
      <trkpt lat="45.0316" lon="5.60253">
        <ele>1328</ele>
        <time>2010-06-20T08:49:04Z</time>
      </trkpt>
      <trkpt lat="45.03163" lon="5.60254">
        <ele>1328</ele>
        <time>2010-06-20T08:49:05Z</time>
      </trkpt>
      <trkpt lat="45.03166" lon="5.60256">
        <ele>1328</ele>
        <time>2010-06-20T08:49:06Z</time>
      </trkpt>
      <trkpt lat="45.03169" lon="5.60258">
        <ele>1328</ele>
        <time>2010-06-20T08:49:07Z</time>
      </trkpt>
      <trkpt lat="45.03172" lon="5.60259">
        <ele>1328</ele>
        <time>2010-06-20T08:49:08Z</time>
      </trkpt>
      <trkpt lat="45.03175" lon="5.60261">
        <ele>1328</ele>
        <time>2010-06-20T08:49:09Z</time>
      </trkpt>
      <trkpt lat="45.03177" lon="5.60263">
        <ele>1328</ele>
        <time>2010-06-20T08:49:10Z</time>
      </trkpt>
      <trkpt lat="45.0318" lon="5.60265">
        <ele>1328</ele>
        <time>2010-06-20T08:49:11Z</time>
      </trkpt>
      <trkpt lat="45.03183" lon="5.60266">
        <ele>1328</ele>
        <time>2010-06-20T08:49:12Z</time>
      </trkpt>
      <trkpt lat="45.03185" lon="5.60268">
        <ele>1328</ele>
        <time>2010-06-20T08:49:13Z</time>
      </trkpt>
      <trkpt lat="45.03188" lon="5.60268">
        <ele>1328</ele>
        <time>2010-06-20T08:49:14Z</time>
      </trkpt>
      <trkpt lat="45.03191" lon="5.6027">
        <ele>1328</ele>
        <time>2010-06-20T08:49:15Z</time>
      </trkpt>
      <trkpt lat="45.03193" lon="5.60271">
        <ele>1328</ele>
        <time>2010-06-20T08:49:16Z</time>
      </trkpt>
      <trkpt lat="45.03196" lon="5.60271">
        <ele>1328</ele>
        <time>2010-06-20T08:49:17Z</time>
      </trkpt>
      <trkpt lat="45.03199" lon="5.60271">
        <ele>1328</ele>
        <time>2010-06-20T08:49:18Z</time>
      </trkpt>
      <trkpt lat="45.03202" lon="5.60271">
        <ele>1328</ele>
        <time>2010-06-20T08:49:19Z</time>
      </trkpt>
      <trkpt lat="45.03205" lon="5.60271">
        <ele>1328</ele>
        <time>2010-06-20T08:49:20Z</time>
      </trkpt>
      <trkpt lat="45.03207" lon="5.60272">
        <ele>1328</ele>
        <time>2010-06-20T08:49:21Z</time>
      </trkpt>
      <trkpt lat="45.0321" lon="5.60274">
        <ele>1328</ele>
        <time>2010-06-20T08:49:22Z</time>
      </trkpt>
      <trkpt lat="45.03213" lon="5.60274">
        <ele>1328</ele>
        <time>2010-06-20T08:49:23Z</time>
      </trkpt>
      <trkpt lat="45.03215" lon="5.60274">
        <ele>1328</ele>
        <time>2010-06-20T08:49:24Z</time>
      </trkpt>
      <trkpt lat="45.03217" lon="5.60275">
        <ele>1329</ele>
        <time>2010-06-20T08:49:25Z</time>
      </trkpt>
      <trkpt lat="45.0322" lon="5.60276">
        <ele>1329</ele>
        <time>2010-06-20T08:49:26Z</time>
      </trkpt>
      <trkpt lat="45.03222" lon="5.60277">
        <ele>1329</ele>
        <time>2010-06-20T08:49:27Z</time>
      </trkpt>
      <trkpt lat="45.03225" lon="5.60278">
        <ele>1329</ele>
        <time>2010-06-20T08:49:28Z</time>
      </trkpt>
      <trkpt lat="45.03227" lon="5.6028">
        <ele>1330</ele>
        <time>2010-06-20T08:49:29Z</time>
      </trkpt>
      <trkpt lat="45.03229" lon="5.60282">
        <ele>1330</ele>
        <time>2010-06-20T08:49:30Z</time>
      </trkpt>
      <trkpt lat="45.03231" lon="5.60283">
        <ele>1331</ele>
        <time>2010-06-20T08:49:31Z</time>
      </trkpt>
      <trkpt lat="45.03234" lon="5.60283">
        <ele>1331</ele>
        <time>2010-06-20T08:49:32Z</time>
      </trkpt>
      <trkpt lat="45.03236" lon="5.60283">
        <ele>1331</ele>
        <time>2010-06-20T08:49:33Z</time>
      </trkpt>
      <trkpt lat="45.03239" lon="5.60283">
        <ele>1332</ele>
        <time>2010-06-20T08:49:34Z</time>
      </trkpt>
      <trkpt lat="45.03242" lon="5.60282">
        <ele>1332</ele>
        <time>2010-06-20T08:49:35Z</time>
      </trkpt>
      <trkpt lat="45.03244" lon="5.60283">
        <ele>1332</ele>
        <time>2010-06-20T08:49:36Z</time>
      </trkpt>
      <trkpt lat="45.03247" lon="5.60282">
        <ele>1332</ele>
        <time>2010-06-20T08:49:37Z</time>
      </trkpt>
      <trkpt lat="45.03249" lon="5.60281">
        <ele>1332</ele>
        <time>2010-06-20T08:49:38Z</time>
      </trkpt>
      <trkpt lat="45.03251" lon="5.6028">
        <ele>1332</ele>
        <time>2010-06-20T08:49:39Z</time>
      </trkpt>
      <trkpt lat="45.03254" lon="5.60279">
        <ele>1332</ele>
        <time>2010-06-20T08:49:40Z</time>
      </trkpt>
      <trkpt lat="45.03256" lon="5.60279">
        <ele>1332</ele>
        <time>2010-06-20T08:49:41Z</time>
      </trkpt>
      <trkpt lat="45.03259" lon="5.60278">
        <ele>1332</ele>
        <time>2010-06-20T08:49:42Z</time>
      </trkpt>
      <trkpt lat="45.0326" lon="5.60278">
        <ele>1332</ele>
        <time>2010-06-20T08:49:43Z</time>
      </trkpt>
      <trkpt lat="45.03263" lon="5.60277">
        <ele>1332</ele>
        <time>2010-06-20T08:49:45Z</time>
      </trkpt>
      <trkpt lat="45.03265" lon="5.60275">
        <ele>1332</ele>
        <time>2010-06-20T08:49:46Z</time>
      </trkpt>
      <trkpt lat="45.03267" lon="5.60275">
        <ele>1333</ele>
        <time>2010-06-20T08:49:47Z</time>
      </trkpt>
      <trkpt lat="45.03271" lon="5.60275">
        <ele>1333</ele>
        <time>2010-06-20T08:49:49Z</time>
      </trkpt>
      <trkpt lat="45.03275" lon="5.60276">
        <ele>1333</ele>
        <time>2010-06-20T08:49:50Z</time>
      </trkpt>
      <trkpt lat="45.03278" lon="5.60276">
        <ele>1334</ele>
        <time>2010-06-20T08:49:51Z</time>
      </trkpt>
      <trkpt lat="45.0328" lon="5.60276">
        <ele>1335</ele>
        <time>2010-06-20T08:49:52Z</time>
      </trkpt>
      <trkpt lat="45.03281" lon="5.60276">
        <ele>1336</ele>
        <time>2010-06-20T08:49:53Z</time>
      </trkpt>
      <trkpt lat="45.03283" lon="5.60276">
        <ele>1337</ele>
        <time>2010-06-20T08:49:54Z</time>
      </trkpt>
      <trkpt lat="45.03285" lon="5.60274">
        <ele>1338</ele>
        <time>2010-06-20T08:49:55Z</time>
      </trkpt>
      <trkpt lat="45.03287" lon="5.60271">
        <ele>1338</ele>
        <time>2010-06-20T08:49:56Z</time>
      </trkpt>
      <trkpt lat="45.0329" lon="5.60271">
        <ele>1339</ele>
        <time>2010-06-20T08:49:57Z</time>
      </trkpt>
      <trkpt lat="45.03293" lon="5.60269">
        <ele>1339</ele>
        <time>2010-06-20T08:49:58Z</time>
      </trkpt>
      <trkpt lat="45.03295" lon="5.60268">
        <ele>1339</ele>
        <time>2010-06-20T08:49:59Z</time>
      </trkpt>
      <trkpt lat="45.03297" lon="5.60267">
        <ele>1339</ele>
        <time>2010-06-20T08:50:00Z</time>
      </trkpt>
      <trkpt lat="45.03298" lon="5.60267">
        <ele>1339</ele>
        <time>2010-06-20T08:50:01Z</time>
      </trkpt>
      <trkpt lat="45.033" lon="5.60268">
        <ele>1339</ele>
        <time>2010-06-20T08:50:03Z</time>
      </trkpt>
      <trkpt lat="45.03302" lon="5.60266">
        <ele>1339</ele>
        <time>2010-06-20T08:50:05Z</time>
      </trkpt>
      <trkpt lat="45.03302" lon="5.6027">
        <ele>1339</ele>
        <time>2010-06-20T08:50:10Z</time>
      </trkpt>
      <trkpt lat="45.03302" lon="5.60272">
        <ele>1339</ele>
        <time>2010-06-20T08:50:11Z</time>
      </trkpt>
      <trkpt lat="45.03301" lon="5.60275">
        <ele>1339</ele>
        <time>2010-06-20T08:50:12Z</time>
      </trkpt>
      <trkpt lat="45.033" lon="5.60277">
        <ele>1339</ele>
        <time>2010-06-20T08:50:13Z</time>
      </trkpt>
      <trkpt lat="45.03299" lon="5.6028">
        <ele>1339</ele>
        <time>2010-06-20T08:50:14Z</time>
      </trkpt>
      <trkpt lat="45.03297" lon="5.6028">
        <ele>1339</ele>
        <time>2010-06-20T08:50:15Z</time>
      </trkpt>
      <trkpt lat="45.03296" lon="5.60281">
        <ele>1339</ele>
        <time>2010-06-20T08:50:16Z</time>
      </trkpt>
      <trkpt lat="45.03295" lon="5.60283">
        <ele>1339</ele>
        <time>2010-06-20T08:50:18Z</time>
      </trkpt>
      <trkpt lat="45.03294" lon="5.60284">
        <ele>1339</ele>
        <time>2010-06-20T08:50:19Z</time>
      </trkpt>
      <trkpt lat="45.03292" lon="5.60284">
        <ele>1339</ele>
        <time>2010-06-20T08:50:20Z</time>
      </trkpt>
      <trkpt lat="45.03291" lon="5.60286">
        <ele>1339</ele>
        <time>2010-06-20T08:50:21Z</time>
      </trkpt>
      <trkpt lat="45.0329" lon="5.60289">
        <ele>1339</ele>
        <time>2010-06-20T08:50:22Z</time>
      </trkpt>
      <trkpt lat="45.03288" lon="5.60291">
        <ele>1339</ele>
        <time>2010-06-20T08:50:23Z</time>
      </trkpt>
      <trkpt lat="45.03287" lon="5.60293">
        <ele>1339</ele>
        <time>2010-06-20T08:50:24Z</time>
      </trkpt>
      <trkpt lat="45.03285" lon="5.60294">
        <ele>1339</ele>
        <time>2010-06-20T08:50:25Z</time>
      </trkpt>
      <trkpt lat="45.03283" lon="5.60297">
        <ele>1339</ele>
        <time>2010-06-20T08:50:26Z</time>
      </trkpt>
      <trkpt lat="45.03282" lon="5.60299">
        <ele>1339</ele>
        <time>2010-06-20T08:50:27Z</time>
      </trkpt>
      <trkpt lat="45.0328" lon="5.60301">
        <ele>1339</ele>
        <time>2010-06-20T08:50:28Z</time>
      </trkpt>
      <trkpt lat="45.03279" lon="5.60302">
        <ele>1338</ele>
        <time>2010-06-20T08:50:30Z</time>
      </trkpt>
      <trkpt lat="45.03277" lon="5.60306">
        <ele>1338</ele>
        <time>2010-06-20T08:50:31Z</time>
      </trkpt>
      <trkpt lat="45.03276" lon="5.60308">
        <ele>1337</ele>
        <time>2010-06-20T08:50:32Z</time>
      </trkpt>
      <trkpt lat="45.03273" lon="5.60312">
        <ele>1336</ele>
        <time>2010-06-20T08:50:33Z</time>
      </trkpt>
      <trkpt lat="45.0327" lon="5.60317">
        <ele>1335</ele>
        <time>2010-06-20T08:50:34Z</time>
      </trkpt>
      <trkpt lat="45.03268" lon="5.6032">
        <ele>1335</ele>
        <time>2010-06-20T08:50:35Z</time>
      </trkpt>
      <trkpt lat="45.03266" lon="5.60323">
        <ele>1335</ele>
        <time>2010-06-20T08:50:36Z</time>
      </trkpt>
      <trkpt lat="45.03264" lon="5.60325">
        <ele>1335</ele>
        <time>2010-06-20T08:50:37Z</time>
      </trkpt>
      <trkpt lat="45.03261" lon="5.60328">
        <ele>1335</ele>
        <time>2010-06-20T08:50:38Z</time>
      </trkpt>
      <trkpt lat="45.03259" lon="5.60331">
        <ele>1334</ele>
        <time>2010-06-20T08:50:39Z</time>
      </trkpt>
      <trkpt lat="45.03257" lon="5.60333">
        <ele>1334</ele>
        <time>2010-06-20T08:50:40Z</time>
      </trkpt>
      <trkpt lat="45.03255" lon="5.60334">
        <ele>1334</ele>
        <time>2010-06-20T08:50:41Z</time>
      </trkpt>
      <trkpt lat="45.03254" lon="5.60334">
        <ele>1333</ele>
        <time>2010-06-20T08:50:42Z</time>
      </trkpt>
      <trkpt lat="45.03253" lon="5.60336">
        <ele>1332</ele>
        <time>2010-06-20T08:50:43Z</time>
      </trkpt>
      <trkpt lat="45.03252" lon="5.60336">
        <ele>1331</ele>
        <time>2010-06-20T08:50:44Z</time>
      </trkpt>
      <trkpt lat="45.0325" lon="5.60337">
        <ele>1330</ele>
        <time>2010-06-20T08:50:45Z</time>
      </trkpt>
      <trkpt lat="45.03249" lon="5.60338">
        <ele>1329</ele>
        <time>2010-06-20T08:50:46Z</time>
      </trkpt>
      <trkpt lat="45.03247" lon="5.60341">
        <ele>1328</ele>
        <time>2010-06-20T08:50:47Z</time>
      </trkpt>
      <trkpt lat="45.03245" lon="5.60342">
        <ele>1327</ele>
        <time>2010-06-20T08:50:48Z</time>
      </trkpt>
      <trkpt lat="45.03244" lon="5.60343">
        <ele>1326</ele>
        <time>2010-06-20T08:50:49Z</time>
      </trkpt>
      <trkpt lat="45.03242" lon="5.60345">
        <ele>1324</ele>
        <time>2010-06-20T08:50:51Z</time>
      </trkpt>
      <trkpt lat="45.03241" lon="5.60348">
        <ele>1323</ele>
        <time>2010-06-20T08:50:52Z</time>
      </trkpt>
      <trkpt lat="45.03239" lon="5.60351">
        <ele>1322</ele>
        <time>2010-06-20T08:50:53Z</time>
      </trkpt>
      <trkpt lat="45.03236" lon="5.60355">
        <ele>1321</ele>
        <time>2010-06-20T08:50:54Z</time>
      </trkpt>
      <trkpt lat="45.03235" lon="5.60357">
        <ele>1320</ele>
        <time>2010-06-20T08:50:55Z</time>
      </trkpt>
      <trkpt lat="45.03233" lon="5.60359">
        <ele>1320</ele>
        <time>2010-06-20T08:50:56Z</time>
      </trkpt>
      <trkpt lat="45.0323" lon="5.60363">
        <ele>1319</ele>
        <time>2010-06-20T08:50:57Z</time>
      </trkpt>
      <trkpt lat="45.03227" lon="5.60366">
        <ele>1319</ele>
        <time>2010-06-20T08:50:58Z</time>
      </trkpt>
      <trkpt lat="45.03224" lon="5.60369">
        <ele>1318</ele>
        <time>2010-06-20T08:50:59Z</time>
      </trkpt>
      <trkpt lat="45.03223" lon="5.6037">
        <ele>1317</ele>
        <time>2010-06-20T08:51:00Z</time>
      </trkpt>
      <trkpt lat="45.03222" lon="5.60372">
        <ele>1316</ele>
        <time>2010-06-20T08:51:01Z</time>
      </trkpt>
      <trkpt lat="45.03219" lon="5.60374">
        <ele>1315</ele>
        <time>2010-06-20T08:51:02Z</time>
      </trkpt>
      <trkpt lat="45.03216" lon="5.60376">
        <ele>1314</ele>
        <time>2010-06-20T08:51:03Z</time>
      </trkpt>
      <trkpt lat="45.03213" lon="5.60379">
        <ele>1313</ele>
        <time>2010-06-20T08:51:04Z</time>
      </trkpt>
      <trkpt lat="45.03211" lon="5.6038">
        <ele>1313</ele>
        <time>2010-06-20T08:51:05Z</time>
      </trkpt>
      <trkpt lat="45.03207" lon="5.60382">
        <ele>1312</ele>
        <time>2010-06-20T08:51:06Z</time>
      </trkpt>
      <trkpt lat="45.03205" lon="5.60383">
        <ele>1311</ele>
        <time>2010-06-20T08:51:07Z</time>
      </trkpt>
      <trkpt lat="45.03202" lon="5.60384">
        <ele>1310</ele>
        <time>2010-06-20T08:51:08Z</time>
      </trkpt>
      <trkpt lat="45.032" lon="5.60386">
        <ele>1309</ele>
        <time>2010-06-20T08:51:09Z</time>
      </trkpt>
      <trkpt lat="45.03198" lon="5.60387">
        <ele>1308</ele>
        <time>2010-06-20T08:51:10Z</time>
      </trkpt>
      <trkpt lat="45.03197" lon="5.60388">
        <ele>1307</ele>
        <time>2010-06-20T08:51:11Z</time>
      </trkpt>
      <trkpt lat="45.03194" lon="5.60389">
        <ele>1306</ele>
        <time>2010-06-20T08:51:13Z</time>
      </trkpt>
      <trkpt lat="45.03192" lon="5.60392">
        <ele>1305</ele>
        <time>2010-06-20T08:51:14Z</time>
      </trkpt>
      <trkpt lat="45.03189" lon="5.60394">
        <ele>1304</ele>
        <time>2010-06-20T08:51:15Z</time>
      </trkpt>
      <trkpt lat="45.03187" lon="5.60397">
        <ele>1303</ele>
        <time>2010-06-20T08:51:16Z</time>
      </trkpt>
      <trkpt lat="45.03185" lon="5.60399">
        <ele>1302</ele>
        <time>2010-06-20T08:51:17Z</time>
      </trkpt>
      <trkpt lat="45.03183" lon="5.60401">
        <ele>1301</ele>
        <time>2010-06-20T08:51:18Z</time>
      </trkpt>
      <trkpt lat="45.03181" lon="5.60404">
        <ele>1300</ele>
        <time>2010-06-20T08:51:19Z</time>
      </trkpt>
      <trkpt lat="45.03178" lon="5.60407">
        <ele>1299</ele>
        <time>2010-06-20T08:51:20Z</time>
      </trkpt>
      <trkpt lat="45.03176" lon="5.60411">
        <ele>1298</ele>
        <time>2010-06-20T08:51:21Z</time>
      </trkpt>
      <trkpt lat="45.03174" lon="5.60415">
        <ele>1297</ele>
        <time>2010-06-20T08:51:22Z</time>
      </trkpt>
      <trkpt lat="45.03172" lon="5.60418">
        <ele>1296</ele>
        <time>2010-06-20T08:51:23Z</time>
      </trkpt>
      <trkpt lat="45.03171" lon="5.60422">
        <ele>1295</ele>
        <time>2010-06-20T08:51:24Z</time>
      </trkpt>
      <trkpt lat="45.0317" lon="5.60425">
        <ele>1295</ele>
        <time>2010-06-20T08:51:25Z</time>
      </trkpt>
      <trkpt lat="45.0317" lon="5.60428">
        <ele>1294</ele>
        <time>2010-06-20T08:51:26Z</time>
      </trkpt>
      <trkpt lat="45.03169" lon="5.60432">
        <ele>1293</ele>
        <time>2010-06-20T08:51:27Z</time>
      </trkpt>
      <trkpt lat="45.03168" lon="5.60437">
        <ele>1292</ele>
        <time>2010-06-20T08:51:28Z</time>
      </trkpt>
      <trkpt lat="45.03167" lon="5.60441">
        <ele>1291</ele>
        <time>2010-06-20T08:51:29Z</time>
      </trkpt>
      <trkpt lat="45.03166" lon="5.60445">
        <ele>1291</ele>
        <time>2010-06-20T08:51:30Z</time>
      </trkpt>
      <trkpt lat="45.03167" lon="5.60448">
        <ele>1291</ele>
        <time>2010-06-20T08:51:31Z</time>
      </trkpt>
      <trkpt lat="45.03167" lon="5.60452">
        <ele>1291</ele>
        <time>2010-06-20T08:51:32Z</time>
      </trkpt>
      <trkpt lat="45.03166" lon="5.60456">
        <ele>1291</ele>
        <time>2010-06-20T08:51:33Z</time>
      </trkpt>
      <trkpt lat="45.03165" lon="5.60459">
        <ele>1290</ele>
        <time>2010-06-20T08:51:34Z</time>
      </trkpt>
      <trkpt lat="45.03166" lon="5.60462">
        <ele>1290</ele>
        <time>2010-06-20T08:51:35Z</time>
      </trkpt>
      <trkpt lat="45.03166" lon="5.60466">
        <ele>1289</ele>
        <time>2010-06-20T08:51:36Z</time>
      </trkpt>
      <trkpt lat="45.03164" lon="5.6047">
        <ele>1288</ele>
        <time>2010-06-20T08:51:37Z</time>
      </trkpt>
      <trkpt lat="45.0316" lon="5.60474">
        <ele>1287</ele>
        <time>2010-06-20T08:51:38Z</time>
      </trkpt>
      <trkpt lat="45.03157" lon="5.60476">
        <ele>1286</ele>
        <time>2010-06-20T08:51:39Z</time>
      </trkpt>
      <trkpt lat="45.03156" lon="5.60478">
        <ele>1285</ele>
        <time>2010-06-20T08:51:40Z</time>
      </trkpt>
      <trkpt lat="45.03153" lon="5.60481">
        <ele>1284</ele>
        <time>2010-06-20T08:51:41Z</time>
      </trkpt>
      <trkpt lat="45.03151" lon="5.60484">
        <ele>1283</ele>
        <time>2010-06-20T08:51:42Z</time>
      </trkpt>
      <trkpt lat="45.03149" lon="5.60486">
        <ele>1282</ele>
        <time>2010-06-20T08:51:43Z</time>
      </trkpt>
      <trkpt lat="45.03146" lon="5.60489">
        <ele>1281</ele>
        <time>2010-06-20T08:51:44Z</time>
      </trkpt>
      <trkpt lat="45.03143" lon="5.60492">
        <ele>1280</ele>
        <time>2010-06-20T08:51:45Z</time>
      </trkpt>
      <trkpt lat="45.03142" lon="5.60494">
        <ele>1279</ele>
        <time>2010-06-20T08:51:46Z</time>
      </trkpt>
      <trkpt lat="45.03142" lon="5.60498">
        <ele>1278</ele>
        <time>2010-06-20T08:51:47Z</time>
      </trkpt>
      <trkpt lat="45.03139" lon="5.605">
        <ele>1277</ele>
        <time>2010-06-20T08:51:48Z</time>
      </trkpt>
      <trkpt lat="45.03137" lon="5.605">
        <ele>1276</ele>
        <time>2010-06-20T08:51:49Z</time>
      </trkpt>
      <trkpt lat="45.03133" lon="5.60501">
        <ele>1274</ele>
        <time>2010-06-20T08:51:50Z</time>
      </trkpt>
      <trkpt lat="45.03129" lon="5.60502">
        <ele>1273</ele>
        <time>2010-06-20T08:51:51Z</time>
      </trkpt>
      <trkpt lat="45.03125" lon="5.60503">
        <ele>1272</ele>
        <time>2010-06-20T08:51:52Z</time>
      </trkpt>
      <trkpt lat="45.03121" lon="5.60503">
        <ele>1271</ele>
        <time>2010-06-20T08:51:53Z</time>
      </trkpt>
      <trkpt lat="45.03117" lon="5.60505">
        <ele>1270</ele>
        <time>2010-06-20T08:51:54Z</time>
      </trkpt>
      <trkpt lat="45.03113" lon="5.60506">
        <ele>1269</ele>
        <time>2010-06-20T08:51:55Z</time>
      </trkpt>
      <trkpt lat="45.0311" lon="5.60509">
        <ele>1268</ele>
        <time>2010-06-20T08:51:56Z</time>
      </trkpt>
      <trkpt lat="45.03106" lon="5.6051">
        <ele>1267</ele>
        <time>2010-06-20T08:51:57Z</time>
      </trkpt>
      <trkpt lat="45.03102" lon="5.60512">
        <ele>1266</ele>
        <time>2010-06-20T08:51:58Z</time>
      </trkpt>
      <trkpt lat="45.03098" lon="5.60513">
        <ele>1265</ele>
        <time>2010-06-20T08:51:59Z</time>
      </trkpt>
      <trkpt lat="45.03095" lon="5.60516">
        <ele>1264</ele>
        <time>2010-06-20T08:52:00Z</time>
      </trkpt>
      <trkpt lat="45.03092" lon="5.60519">
        <ele>1263</ele>
        <time>2010-06-20T08:52:01Z</time>
      </trkpt>
      <trkpt lat="45.03089" lon="5.60522">
        <ele>1262</ele>
        <time>2010-06-20T08:52:02Z</time>
      </trkpt>
      <trkpt lat="45.03085" lon="5.60527">
        <ele>1261</ele>
        <time>2010-06-20T08:52:03Z</time>
      </trkpt>
      <trkpt lat="45.03082" lon="5.60531">
        <ele>1260</ele>
        <time>2010-06-20T08:52:04Z</time>
      </trkpt>
      <trkpt lat="45.03079" lon="5.60534">
        <ele>1259</ele>
        <time>2010-06-20T08:52:05Z</time>
      </trkpt>
      <trkpt lat="45.03075" lon="5.60538">
        <ele>1258</ele>
        <time>2010-06-20T08:52:06Z</time>
      </trkpt>
      <trkpt lat="45.03072" lon="5.60542">
        <ele>1257</ele>
        <time>2010-06-20T08:52:07Z</time>
      </trkpt>
      <trkpt lat="45.0307" lon="5.60545">
        <ele>1256</ele>
        <time>2010-06-20T08:52:08Z</time>
      </trkpt>
      <trkpt lat="45.03068" lon="5.60548">
        <ele>1255</ele>
        <time>2010-06-20T08:52:09Z</time>
      </trkpt>
      <trkpt lat="45.03066" lon="5.60551">
        <ele>1255</ele>
        <time>2010-06-20T08:52:10Z</time>
      </trkpt>
      <trkpt lat="45.03064" lon="5.60554">
        <ele>1254</ele>
        <time>2010-06-20T08:52:11Z</time>
      </trkpt>
      <trkpt lat="45.03063" lon="5.60556">
        <ele>1253</ele>
        <time>2010-06-20T08:52:12Z</time>
      </trkpt>
      <trkpt lat="45.03061" lon="5.60559">
        <ele>1253</ele>
        <time>2010-06-20T08:52:13Z</time>
      </trkpt>
      <trkpt lat="45.03059" lon="5.60561">
        <ele>1253</ele>
        <time>2010-06-20T08:52:14Z</time>
      </trkpt>
      <trkpt lat="45.03057" lon="5.60564">
        <ele>1253</ele>
        <time>2010-06-20T08:52:15Z</time>
      </trkpt>
      <trkpt lat="45.03056" lon="5.60567">
        <ele>1253</ele>
        <time>2010-06-20T08:52:16Z</time>
      </trkpt>
      <trkpt lat="45.03053" lon="5.60569">
        <ele>1253</ele>
        <time>2010-06-20T08:52:17Z</time>
      </trkpt>
      <trkpt lat="45.03051" lon="5.60573">
        <ele>1252</ele>
        <time>2010-06-20T08:52:18Z</time>
      </trkpt>
      <trkpt lat="45.03049" lon="5.60576">
        <ele>1252</ele>
        <time>2010-06-20T08:52:19Z</time>
      </trkpt>
      <trkpt lat="45.03046" lon="5.60579">
        <ele>1252</ele>
        <time>2010-06-20T08:52:20Z</time>
      </trkpt>
      <trkpt lat="45.03044" lon="5.60581">
        <ele>1252</ele>
        <time>2010-06-20T08:52:21Z</time>
      </trkpt>
      <trkpt lat="45.03042" lon="5.60583">
        <ele>1252</ele>
        <time>2010-06-20T08:52:22Z</time>
      </trkpt>
      <trkpt lat="45.0304" lon="5.60586">
        <ele>1252</ele>
        <time>2010-06-20T08:52:23Z</time>
      </trkpt>
      <trkpt lat="45.03038" lon="5.60589">
        <ele>1252</ele>
        <time>2010-06-20T08:52:24Z</time>
      </trkpt>
      <trkpt lat="45.03037" lon="5.60592">
        <ele>1251</ele>
        <time>2010-06-20T08:52:25Z</time>
      </trkpt>
      <trkpt lat="45.03035" lon="5.60596">
        <ele>1251</ele>
        <time>2010-06-20T08:52:26Z</time>
      </trkpt>
      <trkpt lat="45.03033" lon="5.60601">
        <ele>1251</ele>
        <time>2010-06-20T08:52:27Z</time>
      </trkpt>
      <trkpt lat="45.03031" lon="5.60607">
        <ele>1250</ele>
        <time>2010-06-20T08:52:28Z</time>
      </trkpt>
      <trkpt lat="45.0303" lon="5.6061">
        <ele>1250</ele>
        <time>2010-06-20T08:52:29Z</time>
      </trkpt>
      <trkpt lat="45.03028" lon="5.60615">
        <ele>1250</ele>
        <time>2010-06-20T08:52:30Z</time>
      </trkpt>
      <trkpt lat="45.03025" lon="5.60619">
        <ele>1250</ele>
        <time>2010-06-20T08:52:31Z</time>
      </trkpt>
      <trkpt lat="45.03023" lon="5.60623">
        <ele>1250</ele>
        <time>2010-06-20T08:52:32Z</time>
      </trkpt>
      <trkpt lat="45.03021" lon="5.60627">
        <ele>1250</ele>
        <time>2010-06-20T08:52:33Z</time>
      </trkpt>
      <trkpt lat="45.0302" lon="5.6063">
        <ele>1249</ele>
        <time>2010-06-20T08:52:34Z</time>
      </trkpt>
      <trkpt lat="45.03019" lon="5.60632">
        <ele>1249</ele>
        <time>2010-06-20T08:52:35Z</time>
      </trkpt>
      <trkpt lat="45.03018" lon="5.60636">
        <ele>1248</ele>
        <time>2010-06-20T08:52:36Z</time>
      </trkpt>
      <trkpt lat="45.03018" lon="5.60638">
        <ele>1247</ele>
        <time>2010-06-20T08:52:37Z</time>
      </trkpt>
      <trkpt lat="45.03018" lon="5.60642">
        <ele>1246</ele>
        <time>2010-06-20T08:52:38Z</time>
      </trkpt>
      <trkpt lat="45.03018" lon="5.60646">
        <ele>1245</ele>
        <time>2010-06-20T08:52:39Z</time>
      </trkpt>
      <trkpt lat="45.03019" lon="5.6065">
        <ele>1244</ele>
        <time>2010-06-20T08:52:40Z</time>
      </trkpt>
      <trkpt lat="45.0302" lon="5.60653">
        <ele>1243</ele>
        <time>2010-06-20T08:52:41Z</time>
      </trkpt>
      <trkpt lat="45.03021" lon="5.60656">
        <ele>1242</ele>
        <time>2010-06-20T08:52:42Z</time>
      </trkpt>
      <trkpt lat="45.03022" lon="5.60659">
        <ele>1241</ele>
        <time>2010-06-20T08:52:43Z</time>
      </trkpt>
      <trkpt lat="45.03021" lon="5.60662">
        <ele>1240</ele>
        <time>2010-06-20T08:52:44Z</time>
      </trkpt>
      <trkpt lat="45.0302" lon="5.60666">
        <ele>1239</ele>
        <time>2010-06-20T08:52:45Z</time>
      </trkpt>
      <trkpt lat="45.03019" lon="5.6067">
        <ele>1239</ele>
        <time>2010-06-20T08:52:46Z</time>
      </trkpt>
      <trkpt lat="45.03017" lon="5.60672">
        <ele>1238</ele>
        <time>2010-06-20T08:52:47Z</time>
      </trkpt>
      <trkpt lat="45.03015" lon="5.60676">
        <ele>1237</ele>
        <time>2010-06-20T08:52:49Z</time>
      </trkpt>
      <trkpt lat="45.03015" lon="5.60681">
        <ele>1236</ele>
        <time>2010-06-20T08:52:50Z</time>
      </trkpt>
      <trkpt lat="45.03016" lon="5.60687">
        <ele>1235</ele>
        <time>2010-06-20T08:52:51Z</time>
      </trkpt>
      <trkpt lat="45.03015" lon="5.60693">
        <ele>1234</ele>
        <time>2010-06-20T08:52:52Z</time>
      </trkpt>
      <trkpt lat="45.03014" lon="5.60697">
        <ele>1233</ele>
        <time>2010-06-20T08:52:53Z</time>
      </trkpt>
      <trkpt lat="45.03014" lon="5.60699">
        <ele>1232</ele>
        <time>2010-06-20T08:52:54Z</time>
      </trkpt>
      <trkpt lat="45.03015" lon="5.60701">
        <ele>1231</ele>
        <time>2010-06-20T08:52:55Z</time>
      </trkpt>
      <trkpt lat="45.03014" lon="5.60705">
        <ele>1230</ele>
        <time>2010-06-20T08:52:56Z</time>
      </trkpt>
      <trkpt lat="45.03014" lon="5.60708">
        <ele>1229</ele>
        <time>2010-06-20T08:52:57Z</time>
      </trkpt>
      <trkpt lat="45.03015" lon="5.60712">
        <ele>1228</ele>
        <time>2010-06-20T08:52:58Z</time>
      </trkpt>
      <trkpt lat="45.03016" lon="5.60716">
        <ele>1227</ele>
        <time>2010-06-20T08:52:59Z</time>
      </trkpt>
      <trkpt lat="45.03017" lon="5.60722">
        <ele>1226</ele>
        <time>2010-06-20T08:53:00Z</time>
      </trkpt>
      <trkpt lat="45.03016" lon="5.60727">
        <ele>1225</ele>
        <time>2010-06-20T08:53:01Z</time>
      </trkpt>
      <trkpt lat="45.03016" lon="5.60731">
        <ele>1223</ele>
        <time>2010-06-20T08:53:02Z</time>
      </trkpt>
      <trkpt lat="45.03015" lon="5.60735">
        <ele>1222</ele>
        <time>2010-06-20T08:53:03Z</time>
      </trkpt>
      <trkpt lat="45.03014" lon="5.60741">
        <ele>1221</ele>
        <time>2010-06-20T08:53:04Z</time>
      </trkpt>
      <trkpt lat="45.03013" lon="5.60747">
        <ele>1220</ele>
        <time>2010-06-20T08:53:05Z</time>
      </trkpt>
      <trkpt lat="45.03012" lon="5.60749">
        <ele>1219</ele>
        <time>2010-06-20T08:53:06Z</time>
      </trkpt>
      <trkpt lat="45.03012" lon="5.60752">
        <ele>1218</ele>
        <time>2010-06-20T08:53:07Z</time>
      </trkpt>
      <trkpt lat="45.03011" lon="5.60759">
        <ele>1217</ele>
        <time>2010-06-20T08:53:08Z</time>
      </trkpt>
      <trkpt lat="45.03011" lon="5.60765">
        <ele>1216</ele>
        <time>2010-06-20T08:53:09Z</time>
      </trkpt>
      <trkpt lat="45.03011" lon="5.60769">
        <ele>1215</ele>
        <time>2010-06-20T08:53:10Z</time>
      </trkpt>
      <trkpt lat="45.0301" lon="5.60775">
        <ele>1214</ele>
        <time>2010-06-20T08:53:11Z</time>
      </trkpt>
      <trkpt lat="45.03009" lon="5.6078">
        <ele>1212</ele>
        <time>2010-06-20T08:53:12Z</time>
      </trkpt>
      <trkpt lat="45.03009" lon="5.60784">
        <ele>1211</ele>
        <time>2010-06-20T08:53:13Z</time>
      </trkpt>
      <trkpt lat="45.0301" lon="5.60789">
        <ele>1210</ele>
        <time>2010-06-20T08:53:14Z</time>
      </trkpt>
      <trkpt lat="45.03008" lon="5.60794">
        <ele>1209</ele>
        <time>2010-06-20T08:53:15Z</time>
      </trkpt>
      <trkpt lat="45.03007" lon="5.60798">
        <ele>1208</ele>
        <time>2010-06-20T08:53:16Z</time>
      </trkpt>
      <trkpt lat="45.03008" lon="5.60805">
        <ele>1207</ele>
        <time>2010-06-20T08:53:17Z</time>
      </trkpt>
      <trkpt lat="45.03008" lon="5.60812">
        <ele>1206</ele>
        <time>2010-06-20T08:53:18Z</time>
      </trkpt>
      <trkpt lat="45.03008" lon="5.60819">
        <ele>1205</ele>
        <time>2010-06-20T08:53:19Z</time>
      </trkpt>
      <trkpt lat="45.03008" lon="5.60825">
        <ele>1204</ele>
        <time>2010-06-20T08:53:20Z</time>
      </trkpt>
      <trkpt lat="45.03009" lon="5.6083">
        <ele>1203</ele>
        <time>2010-06-20T08:53:21Z</time>
      </trkpt>
      <trkpt lat="45.03008" lon="5.60835">
        <ele>1202</ele>
        <time>2010-06-20T08:53:22Z</time>
      </trkpt>
      <trkpt lat="45.03008" lon="5.60839">
        <ele>1201</ele>
        <time>2010-06-20T08:53:23Z</time>
      </trkpt>
      <trkpt lat="45.03008" lon="5.60844">
        <ele>1200</ele>
        <time>2010-06-20T08:53:24Z</time>
      </trkpt>
      <trkpt lat="45.03007" lon="5.60849">
        <ele>1199</ele>
        <time>2010-06-20T08:53:25Z</time>
      </trkpt>
      <trkpt lat="45.03007" lon="5.60855">
        <ele>1198</ele>
        <time>2010-06-20T08:53:26Z</time>
      </trkpt>
      <trkpt lat="45.03007" lon="5.6086">
        <ele>1197</ele>
        <time>2010-06-20T08:53:27Z</time>
      </trkpt>
      <trkpt lat="45.03007" lon="5.60866">
        <ele>1196</ele>
        <time>2010-06-20T08:53:28Z</time>
      </trkpt>
      <trkpt lat="45.03008" lon="5.60871">
        <ele>1195</ele>
        <time>2010-06-20T08:53:29Z</time>
      </trkpt>
      <trkpt lat="45.03008" lon="5.60877">
        <ele>1194</ele>
        <time>2010-06-20T08:53:30Z</time>
      </trkpt>
      <trkpt lat="45.03009" lon="5.60882">
        <ele>1193</ele>
        <time>2010-06-20T08:53:31Z</time>
      </trkpt>
      <trkpt lat="45.03011" lon="5.60887">
        <ele>1192</ele>
        <time>2010-06-20T08:53:32Z</time>
      </trkpt>
      <trkpt lat="45.03012" lon="5.60892">
        <ele>1191</ele>
        <time>2010-06-20T08:53:33Z</time>
      </trkpt>
      <trkpt lat="45.03011" lon="5.60897">
        <ele>1190</ele>
        <time>2010-06-20T08:53:34Z</time>
      </trkpt>
      <trkpt lat="45.03011" lon="5.60901">
        <ele>1190</ele>
        <time>2010-06-20T08:53:35Z</time>
      </trkpt>
      <trkpt lat="45.03011" lon="5.60905">
        <ele>1189</ele>
        <time>2010-06-20T08:53:36Z</time>
      </trkpt>
      <trkpt lat="45.03011" lon="5.60909">
        <ele>1188</ele>
        <time>2010-06-20T08:53:37Z</time>
      </trkpt>
      <trkpt lat="45.03012" lon="5.60913">
        <ele>1187</ele>
        <time>2010-06-20T08:53:38Z</time>
      </trkpt>
      <trkpt lat="45.03012" lon="5.60917">
        <ele>1186</ele>
        <time>2010-06-20T08:53:39Z</time>
      </trkpt>
      <trkpt lat="45.03012" lon="5.60921">
        <ele>1185</ele>
        <time>2010-06-20T08:53:40Z</time>
      </trkpt>
      <trkpt lat="45.03013" lon="5.60925">
        <ele>1185</ele>
        <time>2010-06-20T08:53:41Z</time>
      </trkpt>
      <trkpt lat="45.03013" lon="5.6093">
        <ele>1184</ele>
        <time>2010-06-20T08:53:42Z</time>
      </trkpt>
      <trkpt lat="45.03013" lon="5.60935">
        <ele>1184</ele>
        <time>2010-06-20T08:53:43Z</time>
      </trkpt>
      <trkpt lat="45.03013" lon="5.6094">
        <ele>1184</ele>
        <time>2010-06-20T08:53:44Z</time>
      </trkpt>
      <trkpt lat="45.03013" lon="5.60944">
        <ele>1184</ele>
        <time>2010-06-20T08:53:45Z</time>
      </trkpt>
      <trkpt lat="45.03013" lon="5.6095">
        <ele>1183</ele>
        <time>2010-06-20T08:53:46Z</time>
      </trkpt>
      <trkpt lat="45.03013" lon="5.60954">
        <ele>1182</ele>
        <time>2010-06-20T08:53:47Z</time>
      </trkpt>
      <trkpt lat="45.03013" lon="5.60959">
        <ele>1181</ele>
        <time>2010-06-20T08:53:48Z</time>
      </trkpt>
      <trkpt lat="45.03013" lon="5.60963">
        <ele>1180</ele>
        <time>2010-06-20T08:53:49Z</time>
      </trkpt>
      <trkpt lat="45.03013" lon="5.60967">
        <ele>1179</ele>
        <time>2010-06-20T08:53:50Z</time>
      </trkpt>
      <trkpt lat="45.03014" lon="5.6097">
        <ele>1178</ele>
        <time>2010-06-20T08:53:51Z</time>
      </trkpt>
      <trkpt lat="45.03015" lon="5.60975">
        <ele>1177</ele>
        <time>2010-06-20T08:53:52Z</time>
      </trkpt>
      <trkpt lat="45.03014" lon="5.60979">
        <ele>1176</ele>
        <time>2010-06-20T08:53:53Z</time>
      </trkpt>
      <trkpt lat="45.03014" lon="5.60984">
        <ele>1175</ele>
        <time>2010-06-20T08:53:54Z</time>
      </trkpt>
      <trkpt lat="45.03013" lon="5.60989">
        <ele>1174</ele>
        <time>2010-06-20T08:53:55Z</time>
      </trkpt>
      <trkpt lat="45.03013" lon="5.60994">
        <ele>1173</ele>
        <time>2010-06-20T08:53:56Z</time>
      </trkpt>
      <trkpt lat="45.03013" lon="5.61">
        <ele>1172</ele>
        <time>2010-06-20T08:53:57Z</time>
      </trkpt>
      <trkpt lat="45.03013" lon="5.61006">
        <ele>1171</ele>
        <time>2010-06-20T08:53:58Z</time>
      </trkpt>
      <trkpt lat="45.03014" lon="5.61011">
        <ele>1170</ele>
        <time>2010-06-20T08:53:59Z</time>
      </trkpt>
      <trkpt lat="45.03016" lon="5.61015">
        <ele>1169</ele>
        <time>2010-06-20T08:54:00Z</time>
      </trkpt>
      <trkpt lat="45.03015" lon="5.6102">
        <ele>1168</ele>
        <time>2010-06-20T08:54:01Z</time>
      </trkpt>
      <trkpt lat="45.03015" lon="5.61024">
        <ele>1167</ele>
        <time>2010-06-20T08:54:02Z</time>
      </trkpt>
      <trkpt lat="45.03016" lon="5.61028">
        <ele>1166</ele>
        <time>2010-06-20T08:54:03Z</time>
      </trkpt>
      <trkpt lat="45.03019" lon="5.61033">
        <ele>1165</ele>
        <time>2010-06-20T08:54:04Z</time>
      </trkpt>
      <trkpt lat="45.0302" lon="5.61038">
        <ele>1164</ele>
        <time>2010-06-20T08:54:05Z</time>
      </trkpt>
      <trkpt lat="45.03022" lon="5.61043">
        <ele>1163</ele>
        <time>2010-06-20T08:54:06Z</time>
      </trkpt>
      <trkpt lat="45.03023" lon="5.61048">
        <ele>1163</ele>
        <time>2010-06-20T08:54:07Z</time>
      </trkpt>
      <trkpt lat="45.03025" lon="5.61052">
        <ele>1163</ele>
        <time>2010-06-20T08:54:08Z</time>
      </trkpt>
      <trkpt lat="45.03027" lon="5.61058">
        <ele>1163</ele>
        <time>2010-06-20T08:54:09Z</time>
      </trkpt>
      <trkpt lat="45.03029" lon="5.61063">
        <ele>1163</ele>
        <time>2010-06-20T08:54:10Z</time>
      </trkpt>
      <trkpt lat="45.0303" lon="5.61067">
        <ele>1163</ele>
        <time>2010-06-20T08:54:11Z</time>
      </trkpt>
      <trkpt lat="45.03032" lon="5.61071">
        <ele>1163</ele>
        <time>2010-06-20T08:54:12Z</time>
      </trkpt>
      <trkpt lat="45.03034" lon="5.61076">
        <ele>1163</ele>
        <time>2010-06-20T08:54:13Z</time>
      </trkpt>
      <trkpt lat="45.03035" lon="5.6108">
        <ele>1163</ele>
        <time>2010-06-20T08:54:14Z</time>
      </trkpt>
      <trkpt lat="45.03037" lon="5.61085">
        <ele>1163</ele>
        <time>2010-06-20T08:54:15Z</time>
      </trkpt>
      <trkpt lat="45.03039" lon="5.6109">
        <ele>1163</ele>
        <time>2010-06-20T08:54:16Z</time>
      </trkpt>
      <trkpt lat="45.03041" lon="5.61094">
        <ele>1163</ele>
        <time>2010-06-20T08:54:17Z</time>
      </trkpt>
      <trkpt lat="45.03042" lon="5.61099">
        <ele>1163</ele>
        <time>2010-06-20T08:54:18Z</time>
      </trkpt>
      <trkpt lat="45.03044" lon="5.61103">
        <ele>1163</ele>
        <time>2010-06-20T08:54:19Z</time>
      </trkpt>
      <trkpt lat="45.03046" lon="5.61107">
        <ele>1163</ele>
        <time>2010-06-20T08:54:20Z</time>
      </trkpt>
      <trkpt lat="45.03045" lon="5.6111">
        <ele>1163</ele>
        <time>2010-06-20T08:54:21Z</time>
      </trkpt>
      <trkpt lat="45.03044" lon="5.61111">
        <ele>1163</ele>
        <time>2010-06-20T08:54:22Z</time>
      </trkpt>
      <trkpt lat="45.03042" lon="5.6111">
        <ele>1163</ele>
        <time>2010-06-20T08:54:23Z</time>
      </trkpt>
      <trkpt lat="45.03038" lon="5.61105">
        <ele>1163</ele>
        <time>2010-06-20T08:54:24Z</time>
      </trkpt>
      <trkpt lat="45.03035" lon="5.61104">
        <ele>1163</ele>
        <time>2010-06-20T08:54:25Z</time>
      </trkpt>
      <trkpt lat="45.03032" lon="5.61102">
        <ele>1163</ele>
        <time>2010-06-20T08:54:26Z</time>
      </trkpt>
      <trkpt lat="45.0303" lon="5.61101">
        <ele>1163</ele>
        <time>2010-06-20T08:54:27Z</time>
      </trkpt>
      <trkpt lat="45.03026" lon="5.611">
        <ele>1163</ele>
        <time>2010-06-20T08:54:28Z</time>
      </trkpt>
      <trkpt lat="45.03023" lon="5.611">
        <ele>1163</ele>
        <time>2010-06-20T08:54:29Z</time>
      </trkpt>
      <trkpt lat="45.0302" lon="5.61099">
        <ele>1163</ele>
        <time>2010-06-20T08:54:30Z</time>
      </trkpt>
      <trkpt lat="45.03017" lon="5.61096">
        <ele>1163</ele>
        <time>2010-06-20T08:54:31Z</time>
      </trkpt>
      <trkpt lat="45.03013" lon="5.61095">
        <ele>1163</ele>
        <time>2010-06-20T08:54:32Z</time>
      </trkpt>
      <trkpt lat="45.03011" lon="5.61093">
        <ele>1163</ele>
        <time>2010-06-20T08:54:33Z</time>
      </trkpt>
      <trkpt lat="45.03007" lon="5.61091">
        <ele>1163</ele>
        <time>2010-06-20T08:54:34Z</time>
      </trkpt>
      <trkpt lat="45.03005" lon="5.61089">
        <ele>1163</ele>
        <time>2010-06-20T08:54:35Z</time>
      </trkpt>
      <trkpt lat="45.03002" lon="5.61088">
        <ele>1163</ele>
        <time>2010-06-20T08:54:36Z</time>
      </trkpt>
      <trkpt lat="45.03" lon="5.61085">
        <ele>1162</ele>
        <time>2010-06-20T08:54:37Z</time>
      </trkpt>
      <trkpt lat="45.02996" lon="5.61083">
        <ele>1161</ele>
        <time>2010-06-20T08:54:38Z</time>
      </trkpt>
      <trkpt lat="45.02993" lon="5.61082">
        <ele>1160</ele>
        <time>2010-06-20T08:54:39Z</time>
      </trkpt>
      <trkpt lat="45.0299" lon="5.6108">
        <ele>1159</ele>
        <time>2010-06-20T08:54:40Z</time>
      </trkpt>
      <trkpt lat="45.02987" lon="5.61079">
        <ele>1158</ele>
        <time>2010-06-20T08:54:41Z</time>
      </trkpt>
      <trkpt lat="45.02984" lon="5.61077">
        <ele>1157</ele>
        <time>2010-06-20T08:54:42Z</time>
      </trkpt>
      <trkpt lat="45.0298" lon="5.61076">
        <ele>1156</ele>
        <time>2010-06-20T08:54:43Z</time>
      </trkpt>
      <trkpt lat="45.02976" lon="5.61075">
        <ele>1155</ele>
        <time>2010-06-20T08:54:44Z</time>
      </trkpt>
      <trkpt lat="45.02973" lon="5.61075">
        <ele>1154</ele>
        <time>2010-06-20T08:54:45Z</time>
      </trkpt>
      <trkpt lat="45.02969" lon="5.61075">
        <ele>1153</ele>
        <time>2010-06-20T08:54:46Z</time>
      </trkpt>
      <trkpt lat="45.02966" lon="5.61074">
        <ele>1153</ele>
        <time>2010-06-20T08:54:47Z</time>
      </trkpt>
      <trkpt lat="45.02964" lon="5.61073">
        <ele>1152</ele>
        <time>2010-06-20T08:54:48Z</time>
      </trkpt>
      <trkpt lat="45.02962" lon="5.61071">
        <ele>1152</ele>
        <time>2010-06-20T08:54:49Z</time>
      </trkpt>
      <trkpt lat="45.0296" lon="5.61071">
        <ele>1151</ele>
        <time>2010-06-20T08:54:50Z</time>
      </trkpt>
      <trkpt lat="45.02957" lon="5.6107">
        <ele>1150</ele>
        <time>2010-06-20T08:54:51Z</time>
      </trkpt>
      <trkpt lat="45.02955" lon="5.61067">
        <ele>1150</ele>
        <time>2010-06-20T08:54:52Z</time>
      </trkpt>
      <trkpt lat="45.02952" lon="5.61065">
        <ele>1149</ele>
        <time>2010-06-20T08:54:53Z</time>
      </trkpt>
      <trkpt lat="45.0295" lon="5.61064">
        <ele>1148</ele>
        <time>2010-06-20T08:54:54Z</time>
      </trkpt>
      <trkpt lat="45.02947" lon="5.61062">
        <ele>1148</ele>
        <time>2010-06-20T08:54:55Z</time>
      </trkpt>
      <trkpt lat="45.02944" lon="5.61061">
        <ele>1147</ele>
        <time>2010-06-20T08:54:56Z</time>
      </trkpt>
      <trkpt lat="45.02942" lon="5.6106">
        <ele>1147</ele>
        <time>2010-06-20T08:54:57Z</time>
      </trkpt>
      <trkpt lat="45.0294" lon="5.6106">
        <ele>1146</ele>
        <time>2010-06-20T08:54:58Z</time>
      </trkpt>
      <trkpt lat="45.02937" lon="5.61058">
        <ele>1145</ele>
        <time>2010-06-20T08:54:59Z</time>
      </trkpt>
      <trkpt lat="45.02934" lon="5.61058">
        <ele>1145</ele>
        <time>2010-06-20T08:55:00Z</time>
      </trkpt>
      <trkpt lat="45.02931" lon="5.61056">
        <ele>1144</ele>
        <time>2010-06-20T08:55:01Z</time>
      </trkpt>
      <trkpt lat="45.02928" lon="5.61055">
        <ele>1143</ele>
        <time>2010-06-20T08:55:02Z</time>
      </trkpt>
      <trkpt lat="45.02926" lon="5.61052">
        <ele>1142</ele>
        <time>2010-06-20T08:55:03Z</time>
      </trkpt>
      <trkpt lat="45.02924" lon="5.61049">
        <ele>1141</ele>
        <time>2010-06-20T08:55:04Z</time>
      </trkpt>
      <trkpt lat="45.02922" lon="5.61046">
        <ele>1140</ele>
        <time>2010-06-20T08:55:05Z</time>
      </trkpt>
      <trkpt lat="45.02917" lon="5.61044">
        <ele>1139</ele>
        <time>2010-06-20T08:55:06Z</time>
      </trkpt>
      <trkpt lat="45.02913" lon="5.61042">
        <ele>1138</ele>
        <time>2010-06-20T08:55:07Z</time>
      </trkpt>
      <trkpt lat="45.02911" lon="5.61039">
        <ele>1137</ele>
        <time>2010-06-20T08:55:08Z</time>
      </trkpt>
      <trkpt lat="45.02908" lon="5.61038">
        <ele>1136</ele>
        <time>2010-06-20T08:55:09Z</time>
      </trkpt>
      <trkpt lat="45.02905" lon="5.61037">
        <ele>1135</ele>
        <time>2010-06-20T08:55:10Z</time>
      </trkpt>
      <trkpt lat="45.02902" lon="5.61037">
        <ele>1134</ele>
        <time>2010-06-20T08:55:11Z</time>
      </trkpt>
      <trkpt lat="45.029" lon="5.61036">
        <ele>1133</ele>
        <time>2010-06-20T08:55:12Z</time>
      </trkpt>
      <trkpt lat="45.02897" lon="5.61034">
        <ele>1132</ele>
        <time>2010-06-20T08:55:13Z</time>
      </trkpt>
      <trkpt lat="45.02894" lon="5.61032">
        <ele>1131</ele>
        <time>2010-06-20T08:55:14Z</time>
      </trkpt>
      <trkpt lat="45.02891" lon="5.61031">
        <ele>1130</ele>
        <time>2010-06-20T08:55:15Z</time>
      </trkpt>
      <trkpt lat="45.02888" lon="5.61029">
        <ele>1129</ele>
        <time>2010-06-20T08:55:16Z</time>
      </trkpt>
      <trkpt lat="45.02886" lon="5.61026">
        <ele>1129</ele>
        <time>2010-06-20T08:55:17Z</time>
      </trkpt>
      <trkpt lat="45.02883" lon="5.61023">
        <ele>1129</ele>
        <time>2010-06-20T08:55:18Z</time>
      </trkpt>
      <trkpt lat="45.0288" lon="5.61021">
        <ele>1129</ele>
        <time>2010-06-20T08:55:19Z</time>
      </trkpt>
      <trkpt lat="45.02877" lon="5.61018">
        <ele>1129</ele>
        <time>2010-06-20T08:55:20Z</time>
      </trkpt>
      <trkpt lat="45.02873" lon="5.61016">
        <ele>1129</ele>
        <time>2010-06-20T08:55:21Z</time>
      </trkpt>
      <trkpt lat="45.0287" lon="5.61014">
        <ele>1129</ele>
        <time>2010-06-20T08:55:22Z</time>
      </trkpt>
      <trkpt lat="45.02867" lon="5.61015">
        <ele>1129</ele>
        <time>2010-06-20T08:55:23Z</time>
      </trkpt>
      <trkpt lat="45.02863" lon="5.61014">
        <ele>1128</ele>
        <time>2010-06-20T08:55:24Z</time>
      </trkpt>
      <trkpt lat="45.0286" lon="5.61012">
        <ele>1128</ele>
        <time>2010-06-20T08:55:25Z</time>
      </trkpt>
      <trkpt lat="45.02857" lon="5.61011">
        <ele>1127</ele>
        <time>2010-06-20T08:55:26Z</time>
      </trkpt>
      <trkpt lat="45.02853" lon="5.61009">
        <ele>1127</ele>
        <time>2010-06-20T08:55:27Z</time>
      </trkpt>
      <trkpt lat="45.0285" lon="5.61008">
        <ele>1126</ele>
        <time>2010-06-20T08:55:28Z</time>
      </trkpt>
      <trkpt lat="45.02847" lon="5.61008">
        <ele>1126</ele>
        <time>2010-06-20T08:55:29Z</time>
      </trkpt>
      <trkpt lat="45.02844" lon="5.61008">
        <ele>1126</ele>
        <time>2010-06-20T08:55:30Z</time>
      </trkpt>
      <trkpt lat="45.02841" lon="5.61007">
        <ele>1126</ele>
        <time>2010-06-20T08:55:31Z</time>
      </trkpt>
      <trkpt lat="45.02838" lon="5.61007">
        <ele>1126</ele>
        <time>2010-06-20T08:55:32Z</time>
      </trkpt>
      <trkpt lat="45.02835" lon="5.61008">
        <ele>1125</ele>
        <time>2010-06-20T08:55:33Z</time>
      </trkpt>
      <trkpt lat="45.02832" lon="5.61008">
        <ele>1125</ele>
        <time>2010-06-20T08:55:34Z</time>
      </trkpt>
      <trkpt lat="45.0283" lon="5.61008">
        <ele>1124</ele>
        <time>2010-06-20T08:55:35Z</time>
      </trkpt>
      <trkpt lat="45.02828" lon="5.61008">
        <ele>1123</ele>
        <time>2010-06-20T08:55:36Z</time>
      </trkpt>
      <trkpt lat="45.02825" lon="5.61006">
        <ele>1123</ele>
        <time>2010-06-20T08:55:37Z</time>
      </trkpt>
      <trkpt lat="45.02822" lon="5.61003">
        <ele>1122</ele>
        <time>2010-06-20T08:55:38Z</time>
      </trkpt>
      <trkpt lat="45.0282" lon="5.61">
        <ele>1122</ele>
        <time>2010-06-20T08:55:39Z</time>
      </trkpt>
      <trkpt lat="45.02817" lon="5.60999">
        <ele>1122</ele>
        <time>2010-06-20T08:55:40Z</time>
      </trkpt>
      <trkpt lat="45.02814" lon="5.60998">
        <ele>1122</ele>
        <time>2010-06-20T08:55:41Z</time>
      </trkpt>
      <trkpt lat="45.02811" lon="5.60997">
        <ele>1122</ele>
        <time>2010-06-20T08:55:42Z</time>
      </trkpt>
      <trkpt lat="45.02808" lon="5.60996">
        <ele>1121</ele>
        <time>2010-06-20T08:55:43Z</time>
      </trkpt>
      <trkpt lat="45.02804" lon="5.60997">
        <ele>1121</ele>
        <time>2010-06-20T08:55:44Z</time>
      </trkpt>
      <trkpt lat="45.02801" lon="5.60996">
        <ele>1120</ele>
        <time>2010-06-20T08:55:45Z</time>
      </trkpt>
      <trkpt lat="45.02798" lon="5.60996">
        <ele>1120</ele>
        <time>2010-06-20T08:55:46Z</time>
      </trkpt>
      <trkpt lat="45.02794" lon="5.60996">
        <ele>1119</ele>
        <time>2010-06-20T08:55:47Z</time>
      </trkpt>
      <trkpt lat="45.02791" lon="5.60996">
        <ele>1118</ele>
        <time>2010-06-20T08:55:48Z</time>
      </trkpt>
      <trkpt lat="45.02788" lon="5.60996">
        <ele>1117</ele>
        <time>2010-06-20T08:55:49Z</time>
      </trkpt>
      <trkpt lat="45.02785" lon="5.60994">
        <ele>1117</ele>
        <time>2010-06-20T08:55:50Z</time>
      </trkpt>
      <trkpt lat="45.02782" lon="5.60992">
        <ele>1117</ele>
        <time>2010-06-20T08:55:51Z</time>
      </trkpt>
      <trkpt lat="45.02779" lon="5.60991">
        <ele>1117</ele>
        <time>2010-06-20T08:55:52Z</time>
      </trkpt>
      <trkpt lat="45.02775" lon="5.60989">
        <ele>1117</ele>
        <time>2010-06-20T08:55:53Z</time>
      </trkpt>
      <trkpt lat="45.02773" lon="5.60987">
        <ele>1117</ele>
        <time>2010-06-20T08:55:54Z</time>
      </trkpt>
      <trkpt lat="45.0277" lon="5.60986">
        <ele>1117</ele>
        <time>2010-06-20T08:55:55Z</time>
      </trkpt>
      <trkpt lat="45.02767" lon="5.60986">
        <ele>1117</ele>
        <time>2010-06-20T08:55:56Z</time>
      </trkpt>
      <trkpt lat="45.02764" lon="5.60984">
        <ele>1116</ele>
        <time>2010-06-20T08:55:57Z</time>
      </trkpt>
      <trkpt lat="45.02761" lon="5.60983">
        <ele>1115</ele>
        <time>2010-06-20T08:55:58Z</time>
      </trkpt>
      <trkpt lat="45.02758" lon="5.60982">
        <ele>1115</ele>
        <time>2010-06-20T08:55:59Z</time>
      </trkpt>
      <trkpt lat="45.02756" lon="5.60981">
        <ele>1115</ele>
        <time>2010-06-20T08:56:00Z</time>
      </trkpt>
      <trkpt lat="45.02754" lon="5.6098">
        <ele>1115</ele>
        <time>2010-06-20T08:56:01Z</time>
      </trkpt>
      <trkpt lat="45.02751" lon="5.6098">
        <ele>1114</ele>
        <time>2010-06-20T08:56:02Z</time>
      </trkpt>
      <trkpt lat="45.02749" lon="5.6098">
        <ele>1114</ele>
        <time>2010-06-20T08:56:03Z</time>
      </trkpt>
      <trkpt lat="45.02746" lon="5.60979">
        <ele>1113</ele>
        <time>2010-06-20T08:56:04Z</time>
      </trkpt>
      <trkpt lat="45.02744" lon="5.60977">
        <ele>1112</ele>
        <time>2010-06-20T08:56:05Z</time>
      </trkpt>
      <trkpt lat="45.02742" lon="5.60976">
        <ele>1111</ele>
        <time>2010-06-20T08:56:06Z</time>
      </trkpt>
      <trkpt lat="45.02739" lon="5.60975">
        <ele>1110</ele>
        <time>2010-06-20T08:56:07Z</time>
      </trkpt>
      <trkpt lat="45.02737" lon="5.60974">
        <ele>1109</ele>
        <time>2010-06-20T08:56:08Z</time>
      </trkpt>
      <trkpt lat="45.02734" lon="5.60974">
        <ele>1108</ele>
        <time>2010-06-20T08:56:09Z</time>
      </trkpt>
      <trkpt lat="45.02731" lon="5.60974">
        <ele>1107</ele>
        <time>2010-06-20T08:56:10Z</time>
      </trkpt>
      <trkpt lat="45.02729" lon="5.60974">
        <ele>1106</ele>
        <time>2010-06-20T08:56:11Z</time>
      </trkpt>
      <trkpt lat="45.02725" lon="5.60973">
        <ele>1105</ele>
        <time>2010-06-20T08:56:12Z</time>
      </trkpt>
      <trkpt lat="45.02722" lon="5.60973">
        <ele>1104</ele>
        <time>2010-06-20T08:56:13Z</time>
      </trkpt>
      <trkpt lat="45.02718" lon="5.60972">
        <ele>1103</ele>
        <time>2010-06-20T08:56:14Z</time>
      </trkpt>
      <trkpt lat="45.02715" lon="5.60971">
        <ele>1102</ele>
        <time>2010-06-20T08:56:15Z</time>
      </trkpt>
      <trkpt lat="45.02712" lon="5.60971">
        <ele>1101</ele>
        <time>2010-06-20T08:56:16Z</time>
      </trkpt>
      <trkpt lat="45.02709" lon="5.6097">
        <ele>1100</ele>
        <time>2010-06-20T08:56:17Z</time>
      </trkpt>
      <trkpt lat="45.02707" lon="5.6097">
        <ele>1099</ele>
        <time>2010-06-20T08:56:18Z</time>
      </trkpt>
      <trkpt lat="45.02705" lon="5.6097">
        <ele>1098</ele>
        <time>2010-06-20T08:56:19Z</time>
      </trkpt>
      <trkpt lat="45.027" lon="5.60972">
        <ele>1097</ele>
        <time>2010-06-20T08:56:20Z</time>
      </trkpt>
      <trkpt lat="45.02696" lon="5.60973">
        <ele>1096</ele>
        <time>2010-06-20T08:56:21Z</time>
      </trkpt>
      <trkpt lat="45.02693" lon="5.60974">
        <ele>1095</ele>
        <time>2010-06-20T08:56:22Z</time>
      </trkpt>
      <trkpt lat="45.02689" lon="5.60975">
        <ele>1094</ele>
        <time>2010-06-20T08:56:23Z</time>
      </trkpt>
      <trkpt lat="45.02686" lon="5.60976">
        <ele>1093</ele>
        <time>2010-06-20T08:56:24Z</time>
      </trkpt>
      <trkpt lat="45.02681" lon="5.60978">
        <ele>1093</ele>
        <time>2010-06-20T08:56:25Z</time>
      </trkpt>
      <trkpt lat="45.02678" lon="5.60979">
        <ele>1093</ele>
        <time>2010-06-20T08:56:26Z</time>
      </trkpt>
      <trkpt lat="45.02675" lon="5.60981">
        <ele>1092</ele>
        <time>2010-06-20T08:56:27Z</time>
      </trkpt>
      <trkpt lat="45.02672" lon="5.60982">
        <ele>1092</ele>
        <time>2010-06-20T08:56:28Z</time>
      </trkpt>
      <trkpt lat="45.02669" lon="5.60983">
        <ele>1091</ele>
        <time>2010-06-20T08:56:29Z</time>
      </trkpt>
      <trkpt lat="45.02666" lon="5.60984">
        <ele>1091</ele>
        <time>2010-06-20T08:56:30Z</time>
      </trkpt>
      <trkpt lat="45.02662" lon="5.60986">
        <ele>1090</ele>
        <time>2010-06-20T08:56:31Z</time>
      </trkpt>
      <trkpt lat="45.02659" lon="5.60989">
        <ele>1089</ele>
        <time>2010-06-20T08:56:32Z</time>
      </trkpt>
      <trkpt lat="45.02655" lon="5.60991">
        <ele>1089</ele>
        <time>2010-06-20T08:56:33Z</time>
      </trkpt>
      <trkpt lat="45.02651" lon="5.60993">
        <ele>1089</ele>
        <time>2010-06-20T08:56:34Z</time>
      </trkpt>
      <trkpt lat="45.02649" lon="5.60994">
        <ele>1088</ele>
        <time>2010-06-20T08:56:35Z</time>
      </trkpt>
      <trkpt lat="45.02647" lon="5.60996">
        <ele>1088</ele>
        <time>2010-06-20T08:56:36Z</time>
      </trkpt>
      <trkpt lat="45.02645" lon="5.60997">
        <ele>1088</ele>
        <time>2010-06-20T08:56:37Z</time>
      </trkpt>
      <trkpt lat="45.02644" lon="5.61">
        <ele>1087</ele>
        <time>2010-06-20T08:56:38Z</time>
      </trkpt>
      <trkpt lat="45.02643" lon="5.61004">
        <ele>1086</ele>
        <time>2010-06-20T08:56:39Z</time>
      </trkpt>
      <trkpt lat="45.02642" lon="5.61007">
        <ele>1086</ele>
        <time>2010-06-20T08:56:40Z</time>
      </trkpt>
      <trkpt lat="45.02638" lon="5.61011">
        <ele>1085</ele>
        <time>2010-06-20T08:56:41Z</time>
      </trkpt>
      <trkpt lat="45.02633" lon="5.61016">
        <ele>1085</ele>
        <time>2010-06-20T08:56:42Z</time>
      </trkpt>
      <trkpt lat="45.0263" lon="5.61019">
        <ele>1085</ele>
        <time>2010-06-20T08:56:43Z</time>
      </trkpt>
      <trkpt lat="45.02627" lon="5.6102">
        <ele>1084</ele>
        <time>2010-06-20T08:56:44Z</time>
      </trkpt>
      <trkpt lat="45.02623" lon="5.61023">
        <ele>1084</ele>
        <time>2010-06-20T08:56:45Z</time>
      </trkpt>
      <trkpt lat="45.0262" lon="5.61024">
        <ele>1084</ele>
        <time>2010-06-20T08:56:46Z</time>
      </trkpt>
      <trkpt lat="45.02616" lon="5.61025">
        <ele>1084</ele>
        <time>2010-06-20T08:56:47Z</time>
      </trkpt>
      <trkpt lat="45.02613" lon="5.61025">
        <ele>1083</ele>
        <time>2010-06-20T08:56:48Z</time>
      </trkpt>
      <trkpt lat="45.02608" lon="5.61024">
        <ele>1082</ele>
        <time>2010-06-20T08:56:49Z</time>
      </trkpt>
      <trkpt lat="45.02604" lon="5.61024">
        <ele>1082</ele>
        <time>2010-06-20T08:56:50Z</time>
      </trkpt>
      <trkpt lat="45.02601" lon="5.61024">
        <ele>1081</ele>
        <time>2010-06-20T08:56:51Z</time>
      </trkpt>
      <trkpt lat="45.02598" lon="5.61024">
        <ele>1080</ele>
        <time>2010-06-20T08:56:52Z</time>
      </trkpt>
      <trkpt lat="45.02594" lon="5.61025">
        <ele>1080</ele>
        <time>2010-06-20T08:56:53Z</time>
      </trkpt>
      <trkpt lat="45.02591" lon="5.61027">
        <ele>1080</ele>
        <time>2010-06-20T08:56:54Z</time>
      </trkpt>
      <trkpt lat="45.02588" lon="5.61026">
        <ele>1080</ele>
        <time>2010-06-20T08:56:55Z</time>
      </trkpt>
      <trkpt lat="45.02585" lon="5.61026">
        <ele>1080</ele>
        <time>2010-06-20T08:56:56Z</time>
      </trkpt>
      <trkpt lat="45.02581" lon="5.61026">
        <ele>1080</ele>
        <time>2010-06-20T08:56:57Z</time>
      </trkpt>
      <trkpt lat="45.02576" lon="5.61027">
        <ele>1080</ele>
        <time>2010-06-20T08:56:58Z</time>
      </trkpt>
      <trkpt lat="45.02572" lon="5.61027">
        <ele>1079</ele>
        <time>2010-06-20T08:56:59Z</time>
      </trkpt>
      <trkpt lat="45.02569" lon="5.61028">
        <ele>1079</ele>
        <time>2010-06-20T08:57:00Z</time>
      </trkpt>
      <trkpt lat="45.02564" lon="5.6103">
        <ele>1079</ele>
        <time>2010-06-20T08:57:01Z</time>
      </trkpt>
      <trkpt lat="45.0256" lon="5.61031">
        <ele>1079</ele>
        <time>2010-06-20T08:57:02Z</time>
      </trkpt>
      <trkpt lat="45.02557" lon="5.61032">
        <ele>1079</ele>
        <time>2010-06-20T08:57:03Z</time>
      </trkpt>
      <trkpt lat="45.02554" lon="5.61032">
        <ele>1079</ele>
        <time>2010-06-20T08:57:04Z</time>
      </trkpt>
      <trkpt lat="45.02551" lon="5.61033">
        <ele>1079</ele>
        <time>2010-06-20T08:57:05Z</time>
      </trkpt>
      <trkpt lat="45.02547" lon="5.61034">
        <ele>1079</ele>
        <time>2010-06-20T08:57:06Z</time>
      </trkpt>
      <trkpt lat="45.02543" lon="5.61034">
        <ele>1079</ele>
        <time>2010-06-20T08:57:07Z</time>
      </trkpt>
      <trkpt lat="45.02539" lon="5.61035">
        <ele>1079</ele>
        <time>2010-06-20T08:57:08Z</time>
      </trkpt>
      <trkpt lat="45.02536" lon="5.61037">
        <ele>1078</ele>
        <time>2010-06-20T08:57:09Z</time>
      </trkpt>
      <trkpt lat="45.02532" lon="5.61038">
        <ele>1078</ele>
        <time>2010-06-20T08:57:10Z</time>
      </trkpt>
      <trkpt lat="45.02528" lon="5.61039">
        <ele>1077</ele>
        <time>2010-06-20T08:57:11Z</time>
      </trkpt>
      <trkpt lat="45.02523" lon="5.61041">
        <ele>1076</ele>
        <time>2010-06-20T08:57:12Z</time>
      </trkpt>
      <trkpt lat="45.02519" lon="5.61042">
        <ele>1075</ele>
        <time>2010-06-20T08:57:13Z</time>
      </trkpt>
      <trkpt lat="45.02516" lon="5.61041">
        <ele>1074</ele>
        <time>2010-06-20T08:57:14Z</time>
      </trkpt>
      <trkpt lat="45.02512" lon="5.6104">
        <ele>1073</ele>
        <time>2010-06-20T08:57:15Z</time>
      </trkpt>
      <trkpt lat="45.02509" lon="5.6104">
        <ele>1072</ele>
        <time>2010-06-20T08:57:16Z</time>
      </trkpt>
      <trkpt lat="45.02505" lon="5.61041">
        <ele>1071</ele>
        <time>2010-06-20T08:57:17Z</time>
      </trkpt>
      <trkpt lat="45.02502" lon="5.61042">
        <ele>1070</ele>
        <time>2010-06-20T08:57:18Z</time>
      </trkpt>
      <trkpt lat="45.02498" lon="5.61042">
        <ele>1069</ele>
        <time>2010-06-20T08:57:19Z</time>
      </trkpt>
      <trkpt lat="45.02494" lon="5.61042">
        <ele>1068</ele>
        <time>2010-06-20T08:57:20Z</time>
      </trkpt>
      <trkpt lat="45.02491" lon="5.61042">
        <ele>1067</ele>
        <time>2010-06-20T08:57:21Z</time>
      </trkpt>
      <trkpt lat="45.02487" lon="5.61042">
        <ele>1066</ele>
        <time>2010-06-20T08:57:22Z</time>
      </trkpt>
      <trkpt lat="45.02484" lon="5.61042">
        <ele>1065</ele>
        <time>2010-06-20T08:57:23Z</time>
      </trkpt>
      <trkpt lat="45.0248" lon="5.61042">
        <ele>1064</ele>
        <time>2010-06-20T08:57:24Z</time>
      </trkpt>
      <trkpt lat="45.02476" lon="5.61042">
        <ele>1063</ele>
        <time>2010-06-20T08:57:25Z</time>
      </trkpt>
      <trkpt lat="45.02472" lon="5.61042">
        <ele>1062</ele>
        <time>2010-06-20T08:57:26Z</time>
      </trkpt>
      <trkpt lat="45.02468" lon="5.61043">
        <ele>1062</ele>
        <time>2010-06-20T08:57:27Z</time>
      </trkpt>
      <trkpt lat="45.02463" lon="5.61044">
        <ele>1062</ele>
        <time>2010-06-20T08:57:28Z</time>
      </trkpt>
      <trkpt lat="45.02459" lon="5.61046">
        <ele>1062</ele>
        <time>2010-06-20T08:57:29Z</time>
      </trkpt>
      <trkpt lat="45.02456" lon="5.61048">
        <ele>1061</ele>
        <time>2010-06-20T08:57:30Z</time>
      </trkpt>
      <trkpt lat="45.02452" lon="5.61049">
        <ele>1061</ele>
        <time>2010-06-20T08:57:31Z</time>
      </trkpt>
      <trkpt lat="45.02448" lon="5.6105">
        <ele>1061</ele>
        <time>2010-06-20T08:57:32Z</time>
      </trkpt>
      <trkpt lat="45.02444" lon="5.6105">
        <ele>1060</ele>
        <time>2010-06-20T08:57:33Z</time>
      </trkpt>
      <trkpt lat="45.0244" lon="5.61049">
        <ele>1059</ele>
        <time>2010-06-20T08:57:34Z</time>
      </trkpt>
      <trkpt lat="45.02436" lon="5.61049">
        <ele>1058</ele>
        <time>2010-06-20T08:57:35Z</time>
      </trkpt>
      <trkpt lat="45.02432" lon="5.6105">
        <ele>1057</ele>
        <time>2010-06-20T08:57:36Z</time>
      </trkpt>
      <trkpt lat="45.02429" lon="5.61051">
        <ele>1056</ele>
        <time>2010-06-20T08:57:37Z</time>
      </trkpt>
      <trkpt lat="45.02424" lon="5.61053">
        <ele>1055</ele>
        <time>2010-06-20T08:57:38Z</time>
      </trkpt>
      <trkpt lat="45.02421" lon="5.61053">
        <ele>1054</ele>
        <time>2010-06-20T08:57:39Z</time>
      </trkpt>
      <trkpt lat="45.02416" lon="5.61053">
        <ele>1053</ele>
        <time>2010-06-20T08:57:40Z</time>
      </trkpt>
      <trkpt lat="45.02412" lon="5.61053">
        <ele>1052</ele>
        <time>2010-06-20T08:57:41Z</time>
      </trkpt>
      <trkpt lat="45.02408" lon="5.61054">
        <ele>1051</ele>
        <time>2010-06-20T08:57:42Z</time>
      </trkpt>
      <trkpt lat="45.02404" lon="5.61055">
        <ele>1050</ele>
        <time>2010-06-20T08:57:43Z</time>
      </trkpt>
      <trkpt lat="45.02399" lon="5.61055">
        <ele>1049</ele>
        <time>2010-06-20T08:57:44Z</time>
      </trkpt>
      <trkpt lat="45.02396" lon="5.61055">
        <ele>1048</ele>
        <time>2010-06-20T08:57:45Z</time>
      </trkpt>
      <trkpt lat="45.02392" lon="5.61056">
        <ele>1047</ele>
        <time>2010-06-20T08:57:46Z</time>
      </trkpt>
      <trkpt lat="45.02387" lon="5.61057">
        <ele>1046</ele>
        <time>2010-06-20T08:57:47Z</time>
      </trkpt>
      <trkpt lat="45.02383" lon="5.61057">
        <ele>1045</ele>
        <time>2010-06-20T08:57:48Z</time>
      </trkpt>
      <trkpt lat="45.02379" lon="5.61058">
        <ele>1044</ele>
        <time>2010-06-20T08:57:49Z</time>
      </trkpt>
      <trkpt lat="45.02375" lon="5.61059">
        <ele>1043</ele>
        <time>2010-06-20T08:57:50Z</time>
      </trkpt>
      <trkpt lat="45.02371" lon="5.61061">
        <ele>1042</ele>
        <time>2010-06-20T08:57:51Z</time>
      </trkpt>
      <trkpt lat="45.02367" lon="5.61062">
        <ele>1041</ele>
        <time>2010-06-20T08:57:52Z</time>
      </trkpt>
      <trkpt lat="45.02363" lon="5.61063">
        <ele>1041</ele>
        <time>2010-06-20T08:57:53Z</time>
      </trkpt>
      <trkpt lat="45.02359" lon="5.61064">
        <ele>1040</ele>
        <time>2010-06-20T08:57:54Z</time>
      </trkpt>
      <trkpt lat="45.02355" lon="5.61066">
        <ele>1039</ele>
        <time>2010-06-20T08:57:55Z</time>
      </trkpt>
      <trkpt lat="45.02351" lon="5.61067">
        <ele>1039</ele>
        <time>2010-06-20T08:57:56Z</time>
      </trkpt>
      <trkpt lat="45.02346" lon="5.61069">
        <ele>1038</ele>
        <time>2010-06-20T08:57:57Z</time>
      </trkpt>
      <trkpt lat="45.02342" lon="5.6107">
        <ele>1038</ele>
        <time>2010-06-20T08:57:58Z</time>
      </trkpt>
      <trkpt lat="45.02338" lon="5.61072">
        <ele>1037</ele>
        <time>2010-06-20T08:57:59Z</time>
      </trkpt>
      <trkpt lat="45.02334" lon="5.61073">
        <ele>1037</ele>
        <time>2010-06-20T08:58:00Z</time>
      </trkpt>
      <trkpt lat="45.0233" lon="5.61074">
        <ele>1036</ele>
        <time>2010-06-20T08:58:01Z</time>
      </trkpt>
      <trkpt lat="45.02326" lon="5.61075">
        <ele>1036</ele>
        <time>2010-06-20T08:58:02Z</time>
      </trkpt>
      <trkpt lat="45.02322" lon="5.61075">
        <ele>1036</ele>
        <time>2010-06-20T08:58:03Z</time>
      </trkpt>
      <trkpt lat="45.02318" lon="5.61077">
        <ele>1035</ele>
        <time>2010-06-20T08:58:04Z</time>
      </trkpt>
      <trkpt lat="45.02313" lon="5.61078">
        <ele>1035</ele>
        <time>2010-06-20T08:58:05Z</time>
      </trkpt>
      <trkpt lat="45.02309" lon="5.61079">
        <ele>1034</ele>
        <time>2010-06-20T08:58:06Z</time>
      </trkpt>
      <trkpt lat="45.02306" lon="5.61081">
        <ele>1034</ele>
        <time>2010-06-20T08:58:07Z</time>
      </trkpt>
      <trkpt lat="45.02303" lon="5.61083">
        <ele>1034</ele>
        <time>2010-06-20T08:58:08Z</time>
      </trkpt>
      <trkpt lat="45.023" lon="5.61086">
        <ele>1033</ele>
        <time>2010-06-20T08:58:09Z</time>
      </trkpt>
      <trkpt lat="45.02297" lon="5.6109">
        <ele>1033</ele>
        <time>2010-06-20T08:58:10Z</time>
      </trkpt>
      <trkpt lat="45.02295" lon="5.61094">
        <ele>1033</ele>
        <time>2010-06-20T08:58:11Z</time>
      </trkpt>
      <trkpt lat="45.02293" lon="5.61098">
        <ele>1032</ele>
        <time>2010-06-20T08:58:12Z</time>
      </trkpt>
      <trkpt lat="45.02291" lon="5.61102">
        <ele>1032</ele>
        <time>2010-06-20T08:58:13Z</time>
      </trkpt>
      <trkpt lat="45.02289" lon="5.61106">
        <ele>1032</ele>
        <time>2010-06-20T08:58:14Z</time>
      </trkpt>
      <trkpt lat="45.02286" lon="5.61111">
        <ele>1031</ele>
        <time>2010-06-20T08:58:15Z</time>
      </trkpt>
      <trkpt lat="45.02284" lon="5.61115">
        <ele>1031</ele>
        <time>2010-06-20T08:58:16Z</time>
      </trkpt>
      <trkpt lat="45.02282" lon="5.6112">
        <ele>1030</ele>
        <time>2010-06-20T08:58:17Z</time>
      </trkpt>
      <trkpt lat="45.02279" lon="5.61125">
        <ele>1029</ele>
        <time>2010-06-20T08:58:18Z</time>
      </trkpt>
      <trkpt lat="45.02275" lon="5.6113">
        <ele>1029</ele>
        <time>2010-06-20T08:58:19Z</time>
      </trkpt>
      <trkpt lat="45.02272" lon="5.61134">
        <ele>1028</ele>
        <time>2010-06-20T08:58:20Z</time>
      </trkpt>
      <trkpt lat="45.0227" lon="5.61139">
        <ele>1027</ele>
        <time>2010-06-20T08:58:21Z</time>
      </trkpt>
      <trkpt lat="45.02268" lon="5.61143">
        <ele>1027</ele>
        <time>2010-06-20T08:58:22Z</time>
      </trkpt>
      <trkpt lat="45.02266" lon="5.61147">
        <ele>1026</ele>
        <time>2010-06-20T08:58:23Z</time>
      </trkpt>
      <trkpt lat="45.02263" lon="5.6115">
        <ele>1025</ele>
        <time>2010-06-20T08:58:24Z</time>
      </trkpt>
      <trkpt lat="45.02261" lon="5.61153">
        <ele>1025</ele>
        <time>2010-06-20T08:58:25Z</time>
      </trkpt>
      <trkpt lat="45.02259" lon="5.61156">
        <ele>1024</ele>
        <time>2010-06-20T08:58:26Z</time>
      </trkpt>
      <trkpt lat="45.02256" lon="5.61158">
        <ele>1023</ele>
        <time>2010-06-20T08:58:27Z</time>
      </trkpt>
      <trkpt lat="45.02254" lon="5.61161">
        <ele>1022</ele>
        <time>2010-06-20T08:58:28Z</time>
      </trkpt>
      <trkpt lat="45.02251" lon="5.61164">
        <ele>1021</ele>
        <time>2010-06-20T08:58:29Z</time>
      </trkpt>
      <trkpt lat="45.02248" lon="5.61167">
        <ele>1020</ele>
        <time>2010-06-20T08:58:30Z</time>
      </trkpt>
      <trkpt lat="45.02246" lon="5.6117">
        <ele>1020</ele>
        <time>2010-06-20T08:58:31Z</time>
      </trkpt>
      <trkpt lat="45.02244" lon="5.61173">
        <ele>1019</ele>
        <time>2010-06-20T08:58:32Z</time>
      </trkpt>
      <trkpt lat="45.0224" lon="5.61175">
        <ele>1018</ele>
        <time>2010-06-20T08:58:33Z</time>
      </trkpt>
      <trkpt lat="45.02237" lon="5.61179">
        <ele>1017</ele>
        <time>2010-06-20T08:58:34Z</time>
      </trkpt>
      <trkpt lat="45.02235" lon="5.61183">
        <ele>1017</ele>
        <time>2010-06-20T08:58:35Z</time>
      </trkpt>
      <trkpt lat="45.02233" lon="5.61188">
        <ele>1016</ele>
        <time>2010-06-20T08:58:36Z</time>
      </trkpt>
      <trkpt lat="45.02231" lon="5.61194">
        <ele>1015</ele>
        <time>2010-06-20T08:58:37Z</time>
      </trkpt>
      <trkpt lat="45.0223" lon="5.61199">
        <ele>1014</ele>
        <time>2010-06-20T08:58:38Z</time>
      </trkpt>
      <trkpt lat="45.02228" lon="5.61204">
        <ele>1013</ele>
        <time>2010-06-20T08:58:39Z</time>
      </trkpt>
      <trkpt lat="45.02227" lon="5.61209">
        <ele>1012</ele>
        <time>2010-06-20T08:58:40Z</time>
      </trkpt>
      <trkpt lat="45.02225" lon="5.61213">
        <ele>1011</ele>
        <time>2010-06-20T08:58:41Z</time>
      </trkpt>
      <trkpt lat="45.02223" lon="5.61216">
        <ele>1010</ele>
        <time>2010-06-20T08:58:42Z</time>
      </trkpt>
      <trkpt lat="45.02221" lon="5.6122">
        <ele>1009</ele>
        <time>2010-06-20T08:58:43Z</time>
      </trkpt>
      <trkpt lat="45.02219" lon="5.61224">
        <ele>1008</ele>
        <time>2010-06-20T08:58:44Z</time>
      </trkpt>
      <trkpt lat="45.02217" lon="5.61227">
        <ele>1007</ele>
        <time>2010-06-20T08:58:45Z</time>
      </trkpt>
      <trkpt lat="45.02215" lon="5.6123">
        <ele>1006</ele>
        <time>2010-06-20T08:58:46Z</time>
      </trkpt>
      <trkpt lat="45.02212" lon="5.61233">
        <ele>1005</ele>
        <time>2010-06-20T08:58:47Z</time>
      </trkpt>
      <trkpt lat="45.0221" lon="5.61238">
        <ele>1004</ele>
        <time>2010-06-20T08:58:48Z</time>
      </trkpt>
      <trkpt lat="45.02207" lon="5.61241">
        <ele>1003</ele>
        <time>2010-06-20T08:58:49Z</time>
      </trkpt>
      <trkpt lat="45.02205" lon="5.61246">
        <ele>1002</ele>
        <time>2010-06-20T08:58:50Z</time>
      </trkpt>
      <trkpt lat="45.02202" lon="5.61249">
        <ele>1001</ele>
        <time>2010-06-20T08:58:51Z</time>
      </trkpt>
      <trkpt lat="45.02199" lon="5.61254">
        <ele>1000</ele>
        <time>2010-06-20T08:58:52Z</time>
      </trkpt>
      <trkpt lat="45.02198" lon="5.61258">
        <ele>999</ele>
        <time>2010-06-20T08:58:53Z</time>
      </trkpt>
      <trkpt lat="45.02196" lon="5.61261">
        <ele>998</ele>
        <time>2010-06-20T08:58:54Z</time>
      </trkpt>
      <trkpt lat="45.02194" lon="5.61265">
        <ele>997</ele>
        <time>2010-06-20T08:58:55Z</time>
      </trkpt>
      <trkpt lat="45.02193" lon="5.61269">
        <ele>996</ele>
        <time>2010-06-20T08:58:56Z</time>
      </trkpt>
      <trkpt lat="45.02191" lon="5.61274">
        <ele>995</ele>
        <time>2010-06-20T08:58:57Z</time>
      </trkpt>
      <trkpt lat="45.0219" lon="5.61279">
        <ele>995</ele>
        <time>2010-06-20T08:58:58Z</time>
      </trkpt>
      <trkpt lat="45.02188" lon="5.61284">
        <ele>995</ele>
        <time>2010-06-20T08:58:59Z</time>
      </trkpt>
      <trkpt lat="45.02186" lon="5.61289">
        <ele>995</ele>
        <time>2010-06-20T08:59:00Z</time>
      </trkpt>
      <trkpt lat="45.02184" lon="5.61293">
        <ele>995</ele>
        <time>2010-06-20T08:59:01Z</time>
      </trkpt>
      <trkpt lat="45.02182" lon="5.61298">
        <ele>995</ele>
        <time>2010-06-20T08:59:02Z</time>
      </trkpt>
      <trkpt lat="45.02179" lon="5.61302">
        <ele>995</ele>
        <time>2010-06-20T08:59:03Z</time>
      </trkpt>
      <trkpt lat="45.02177" lon="5.61306">
        <ele>995</ele>
        <time>2010-06-20T08:59:04Z</time>
      </trkpt>
      <trkpt lat="45.02176" lon="5.61311">
        <ele>995</ele>
        <time>2010-06-20T08:59:05Z</time>
      </trkpt>
      <trkpt lat="45.02173" lon="5.61315">
        <ele>995</ele>
        <time>2010-06-20T08:59:06Z</time>
      </trkpt>
      <trkpt lat="45.02169" lon="5.61319">
        <ele>995</ele>
        <time>2010-06-20T08:59:07Z</time>
      </trkpt>
      <trkpt lat="45.02166" lon="5.61323">
        <ele>995</ele>
        <time>2010-06-20T08:59:08Z</time>
      </trkpt>
      <trkpt lat="45.02164" lon="5.61327">
        <ele>995</ele>
        <time>2010-06-20T08:59:09Z</time>
      </trkpt>
      <trkpt lat="45.02162" lon="5.61331">
        <ele>995</ele>
        <time>2010-06-20T08:59:10Z</time>
      </trkpt>
      <trkpt lat="45.0216" lon="5.61334">
        <ele>995</ele>
        <time>2010-06-20T08:59:11Z</time>
      </trkpt>
      <trkpt lat="45.02159" lon="5.61339">
        <ele>995</ele>
        <time>2010-06-20T08:59:12Z</time>
      </trkpt>
      <trkpt lat="45.02157" lon="5.61342">
        <ele>995</ele>
        <time>2010-06-20T08:59:13Z</time>
      </trkpt>
      <trkpt lat="45.02155" lon="5.61346">
        <ele>995</ele>
        <time>2010-06-20T08:59:14Z</time>
      </trkpt>
      <trkpt lat="45.02153" lon="5.61349">
        <ele>995</ele>
        <time>2010-06-20T08:59:15Z</time>
      </trkpt>
      <trkpt lat="45.02151" lon="5.61352">
        <ele>995</ele>
        <time>2010-06-20T08:59:16Z</time>
      </trkpt>
      <trkpt lat="45.02149" lon="5.61355">
        <ele>995</ele>
        <time>2010-06-20T08:59:17Z</time>
      </trkpt>
      <trkpt lat="45.02148" lon="5.61358">
        <ele>995</ele>
        <time>2010-06-20T08:59:18Z</time>
      </trkpt>
      <trkpt lat="45.02145" lon="5.61362">
        <ele>995</ele>
        <time>2010-06-20T08:59:19Z</time>
      </trkpt>
      <trkpt lat="45.02144" lon="5.61366">
        <ele>996</ele>
        <time>2010-06-20T08:59:20Z</time>
      </trkpt>
      <trkpt lat="45.02141" lon="5.6137">
        <ele>996</ele>
        <time>2010-06-20T08:59:21Z</time>
      </trkpt>
      <trkpt lat="45.02139" lon="5.61374">
        <ele>997</ele>
        <time>2010-06-20T08:59:22Z</time>
      </trkpt>
      <trkpt lat="45.02136" lon="5.61378">
        <ele>997</ele>
        <time>2010-06-20T08:59:23Z</time>
      </trkpt>
      <trkpt lat="45.02133" lon="5.61381">
        <ele>998</ele>
        <time>2010-06-20T08:59:24Z</time>
      </trkpt>
      <trkpt lat="45.0213" lon="5.61385">
        <ele>998</ele>
        <time>2010-06-20T08:59:25Z</time>
      </trkpt>
      <trkpt lat="45.02126" lon="5.61388">
        <ele>998</ele>
        <time>2010-06-20T08:59:26Z</time>
      </trkpt>
      <trkpt lat="45.02122" lon="5.61391">
        <ele>998</ele>
        <time>2010-06-20T08:59:27Z</time>
      </trkpt>
      <trkpt lat="45.02118" lon="5.61393">
        <ele>998</ele>
        <time>2010-06-20T08:59:28Z</time>
      </trkpt>
      <trkpt lat="45.02113" lon="5.61395">
        <ele>998</ele>
        <time>2010-06-20T08:59:29Z</time>
      </trkpt>
      <trkpt lat="45.02109" lon="5.61396">
        <ele>998</ele>
        <time>2010-06-20T08:59:30Z</time>
      </trkpt>
      <trkpt lat="45.02105" lon="5.61398">
        <ele>998</ele>
        <time>2010-06-20T08:59:31Z</time>
      </trkpt>
      <trkpt lat="45.02102" lon="5.61399">
        <ele>998</ele>
        <time>2010-06-20T08:59:32Z</time>
      </trkpt>
      <trkpt lat="45.02098" lon="5.614">
        <ele>998</ele>
        <time>2010-06-20T08:59:33Z</time>
      </trkpt>
      <trkpt lat="45.02095" lon="5.61401">
        <ele>998</ele>
        <time>2010-06-20T08:59:34Z</time>
      </trkpt>
      <trkpt lat="45.02091" lon="5.61402">
        <ele>998</ele>
        <time>2010-06-20T08:59:35Z</time>
      </trkpt>
      <trkpt lat="45.02088" lon="5.61404">
        <ele>998</ele>
        <time>2010-06-20T08:59:36Z</time>
      </trkpt>
      <trkpt lat="45.02085" lon="5.61405">
        <ele>998</ele>
        <time>2010-06-20T08:59:37Z</time>
      </trkpt>
      <trkpt lat="45.02082" lon="5.61406">
        <ele>998</ele>
        <time>2010-06-20T08:59:38Z</time>
      </trkpt>
      <trkpt lat="45.02079" lon="5.61407">
        <ele>998</ele>
        <time>2010-06-20T08:59:39Z</time>
      </trkpt>
      <trkpt lat="45.02076" lon="5.61409">
        <ele>998</ele>
        <time>2010-06-20T08:59:40Z</time>
      </trkpt>
      <trkpt lat="45.02073" lon="5.6141">
        <ele>998</ele>
        <time>2010-06-20T08:59:41Z</time>
      </trkpt>
      <trkpt lat="45.02069" lon="5.61411">
        <ele>998</ele>
        <time>2010-06-20T08:59:42Z</time>
      </trkpt>
      <trkpt lat="45.02066" lon="5.61414">
        <ele>998</ele>
        <time>2010-06-20T08:59:43Z</time>
      </trkpt>
      <trkpt lat="45.02063" lon="5.61415">
        <ele>998</ele>
        <time>2010-06-20T08:59:44Z</time>
      </trkpt>
      <trkpt lat="45.0206" lon="5.61416">
        <ele>998</ele>
        <time>2010-06-20T08:59:45Z</time>
      </trkpt>
      <trkpt lat="45.02057" lon="5.61418">
        <ele>998</ele>
        <time>2010-06-20T08:59:46Z</time>
      </trkpt>
      <trkpt lat="45.02055" lon="5.61419">
        <ele>998</ele>
        <time>2010-06-20T08:59:47Z</time>
      </trkpt>
      <trkpt lat="45.02052" lon="5.6142">
        <ele>998</ele>
        <time>2010-06-20T08:59:48Z</time>
      </trkpt>
      <trkpt lat="45.02048" lon="5.61422">
        <ele>998</ele>
        <time>2010-06-20T08:59:49Z</time>
      </trkpt>
      <trkpt lat="45.02045" lon="5.61425">
        <ele>998</ele>
        <time>2010-06-20T08:59:50Z</time>
      </trkpt>
      <trkpt lat="45.02042" lon="5.61428">
        <ele>998</ele>
        <time>2010-06-20T08:59:51Z</time>
      </trkpt>
      <trkpt lat="45.02038" lon="5.61431">
        <ele>998</ele>
        <time>2010-06-20T08:59:52Z</time>
      </trkpt>
      <trkpt lat="45.02034" lon="5.61433">
        <ele>998</ele>
        <time>2010-06-20T08:59:53Z</time>
      </trkpt>
      <trkpt lat="45.0203" lon="5.61436">
        <ele>998</ele>
        <time>2010-06-20T08:59:54Z</time>
      </trkpt>
      <trkpt lat="45.02026" lon="5.61438">
        <ele>998</ele>
        <time>2010-06-20T08:59:55Z</time>
      </trkpt>
      <trkpt lat="45.02022" lon="5.6144">
        <ele>998</ele>
        <time>2010-06-20T08:59:56Z</time>
      </trkpt>
      <trkpt lat="45.02018" lon="5.61442">
        <ele>998</ele>
        <time>2010-06-20T08:59:57Z</time>
      </trkpt>
      <trkpt lat="45.02015" lon="5.61444">
        <ele>998</ele>
        <time>2010-06-20T08:59:58Z</time>
      </trkpt>
      <trkpt lat="45.02011" lon="5.61445">
        <ele>997</ele>
        <time>2010-06-20T08:59:59Z</time>
      </trkpt>
      <trkpt lat="45.02007" lon="5.61446">
        <ele>997</ele>
        <time>2010-06-20T09:00:00Z</time>
      </trkpt>
      <trkpt lat="45.02004" lon="5.61447">
        <ele>997</ele>
        <time>2010-06-20T09:00:01Z</time>
      </trkpt>
      <trkpt lat="45.02" lon="5.61449">
        <ele>997</ele>
        <time>2010-06-20T09:00:02Z</time>
      </trkpt>
      <trkpt lat="45.01997" lon="5.61451">
        <ele>997</ele>
        <time>2010-06-20T09:00:03Z</time>
      </trkpt>
      <trkpt lat="45.01993" lon="5.61454">
        <ele>996</ele>
        <time>2010-06-20T09:00:04Z</time>
      </trkpt>
      <trkpt lat="45.0199" lon="5.61455">
        <ele>996</ele>
        <time>2010-06-20T09:00:05Z</time>
      </trkpt>
      <trkpt lat="45.01986" lon="5.61458">
        <ele>996</ele>
        <time>2010-06-20T09:00:06Z</time>
      </trkpt>
      <trkpt lat="45.01983" lon="5.6146">
        <ele>995</ele>
        <time>2010-06-20T09:00:07Z</time>
      </trkpt>
      <trkpt lat="45.01979" lon="5.61461">
        <ele>994</ele>
        <time>2010-06-20T09:00:08Z</time>
      </trkpt>
      <trkpt lat="45.01975" lon="5.61463">
        <ele>994</ele>
        <time>2010-06-20T09:00:09Z</time>
      </trkpt>
      <trkpt lat="45.01971" lon="5.61465">
        <ele>993</ele>
        <time>2010-06-20T09:00:10Z</time>
      </trkpt>
      <trkpt lat="45.01967" lon="5.61466">
        <ele>992</ele>
        <time>2010-06-20T09:00:11Z</time>
      </trkpt>
      <trkpt lat="45.01964" lon="5.61467">
        <ele>991</ele>
        <time>2010-06-20T09:00:12Z</time>
      </trkpt>
      <trkpt lat="45.0196" lon="5.61469">
        <ele>990</ele>
        <time>2010-06-20T09:00:13Z</time>
      </trkpt>
      <trkpt lat="45.01956" lon="5.6147">
        <ele>989</ele>
        <time>2010-06-20T09:00:14Z</time>
      </trkpt>
      <trkpt lat="45.01953" lon="5.61472">
        <ele>988</ele>
        <time>2010-06-20T09:00:15Z</time>
      </trkpt>
      <trkpt lat="45.01949" lon="5.61473">
        <ele>988</ele>
        <time>2010-06-20T09:00:16Z</time>
      </trkpt>
      <trkpt lat="45.01945" lon="5.61475">
        <ele>987</ele>
        <time>2010-06-20T09:00:17Z</time>
      </trkpt>
      <trkpt lat="45.01941" lon="5.61476">
        <ele>986</ele>
        <time>2010-06-20T09:00:18Z</time>
      </trkpt>
      <trkpt lat="45.01937" lon="5.61478">
        <ele>986</ele>
        <time>2010-06-20T09:00:19Z</time>
      </trkpt>
      <trkpt lat="45.01933" lon="5.6148">
        <ele>985</ele>
        <time>2010-06-20T09:00:20Z</time>
      </trkpt>
      <trkpt lat="45.01929" lon="5.61481">
        <ele>984</ele>
        <time>2010-06-20T09:00:21Z</time>
      </trkpt>
      <trkpt lat="45.01926" lon="5.61482">
        <ele>983</ele>
        <time>2010-06-20T09:00:22Z</time>
      </trkpt>
      <trkpt lat="45.01922" lon="5.61483">
        <ele>983</ele>
        <time>2010-06-20T09:00:23Z</time>
      </trkpt>
      <trkpt lat="45.01919" lon="5.61482">
        <ele>982</ele>
        <time>2010-06-20T09:00:24Z</time>
      </trkpt>
      <trkpt lat="45.01916" lon="5.61482">
        <ele>982</ele>
        <time>2010-06-20T09:00:25Z</time>
      </trkpt>
      <trkpt lat="45.01913" lon="5.61481">
        <ele>981</ele>
        <time>2010-06-20T09:00:26Z</time>
      </trkpt>
      <trkpt lat="45.0191" lon="5.61477">
        <ele>980</ele>
        <time>2010-06-20T09:00:27Z</time>
      </trkpt>
      <trkpt lat="45.01907" lon="5.61472">
        <ele>979</ele>
        <time>2010-06-20T09:00:28Z</time>
      </trkpt>
      <trkpt lat="45.01906" lon="5.61467">
        <ele>979</ele>
        <time>2010-06-20T09:00:29Z</time>
      </trkpt>
      <trkpt lat="45.01906" lon="5.61462">
        <ele>978</ele>
        <time>2010-06-20T09:00:30Z</time>
      </trkpt>
      <trkpt lat="45.01907" lon="5.61456">
        <ele>977</ele>
        <time>2010-06-20T09:00:31Z</time>
      </trkpt>
      <trkpt lat="45.01908" lon="5.6145">
        <ele>976</ele>
        <time>2010-06-20T09:00:32Z</time>
      </trkpt>
      <trkpt lat="45.01909" lon="5.61445">
        <ele>975</ele>
        <time>2010-06-20T09:00:33Z</time>
      </trkpt>
      <trkpt lat="45.01911" lon="5.6144">
        <ele>974</ele>
        <time>2010-06-20T09:00:34Z</time>
      </trkpt>
      <trkpt lat="45.01913" lon="5.61436">
        <ele>973</ele>
        <time>2010-06-20T09:00:35Z</time>
      </trkpt>
      <trkpt lat="45.01916" lon="5.61432">
        <ele>972</ele>
        <time>2010-06-20T09:00:36Z</time>
      </trkpt>
      <trkpt lat="45.01918" lon="5.61428">
        <ele>971</ele>
        <time>2010-06-20T09:00:37Z</time>
      </trkpt>
      <trkpt lat="45.0192" lon="5.61424">
        <ele>970</ele>
        <time>2010-06-20T09:00:38Z</time>
      </trkpt>
      <trkpt lat="45.01923" lon="5.61419">
        <ele>970</ele>
        <time>2010-06-20T09:00:39Z</time>
      </trkpt>
      <trkpt lat="45.01925" lon="5.61414">
        <ele>970</ele>
        <time>2010-06-20T09:00:40Z</time>
      </trkpt>
      <trkpt lat="45.01926" lon="5.6141">
        <ele>969</ele>
        <time>2010-06-20T09:00:41Z</time>
      </trkpt>
      <trkpt lat="45.01927" lon="5.61406">
        <ele>969</ele>
        <time>2010-06-20T09:00:42Z</time>
      </trkpt>
      <trkpt lat="45.01928" lon="5.61401">
        <ele>969</ele>
        <time>2010-06-20T09:00:43Z</time>
      </trkpt>
      <trkpt lat="45.01928" lon="5.61395">
        <ele>968</ele>
        <time>2010-06-20T09:00:44Z</time>
      </trkpt>
      <trkpt lat="45.01927" lon="5.6139">
        <ele>968</ele>
        <time>2010-06-20T09:00:45Z</time>
      </trkpt>
      <trkpt lat="45.01926" lon="5.61386">
        <ele>968</ele>
        <time>2010-06-20T09:00:46Z</time>
      </trkpt>
      <trkpt lat="45.01925" lon="5.61381">
        <ele>968</ele>
        <time>2010-06-20T09:00:47Z</time>
      </trkpt>
      <trkpt lat="45.01924" lon="5.61378">
        <ele>968</ele>
        <time>2010-06-20T09:00:48Z</time>
      </trkpt>
      <trkpt lat="45.01923" lon="5.61375">
        <ele>968</ele>
        <time>2010-06-20T09:00:49Z</time>
      </trkpt>
      <trkpt lat="45.01921" lon="5.61371">
        <ele>968</ele>
        <time>2010-06-20T09:00:50Z</time>
      </trkpt>
      <trkpt lat="45.0192" lon="5.61368">
        <ele>968</ele>
        <time>2010-06-20T09:00:51Z</time>
      </trkpt>
      <trkpt lat="45.01917" lon="5.61365">
        <ele>968</ele>
        <time>2010-06-20T09:00:52Z</time>
      </trkpt>
      <trkpt lat="45.01915" lon="5.61361">
        <ele>968</ele>
        <time>2010-06-20T09:00:53Z</time>
      </trkpt>
      <trkpt lat="45.01912" lon="5.61357">
        <ele>968</ele>
        <time>2010-06-20T09:00:54Z</time>
      </trkpt>
      <trkpt lat="45.0191" lon="5.61353">
        <ele>968</ele>
        <time>2010-06-20T09:00:55Z</time>
      </trkpt>
      <trkpt lat="45.01907" lon="5.61349">
        <ele>968</ele>
        <time>2010-06-20T09:00:56Z</time>
      </trkpt>
      <trkpt lat="45.01905" lon="5.61345">
        <ele>968</ele>
        <time>2010-06-20T09:00:57Z</time>
      </trkpt>
      <trkpt lat="45.01903" lon="5.6134">
        <ele>968</ele>
        <time>2010-06-20T09:00:58Z</time>
      </trkpt>
      <trkpt lat="45.01901" lon="5.61336">
        <ele>968</ele>
        <time>2010-06-20T09:00:59Z</time>
      </trkpt>
      <trkpt lat="45.01899" lon="5.61331">
        <ele>968</ele>
        <time>2010-06-20T09:01:00Z</time>
      </trkpt>
      <trkpt lat="45.01898" lon="5.61327">
        <ele>968</ele>
        <time>2010-06-20T09:01:01Z</time>
      </trkpt>
      <trkpt lat="45.01896" lon="5.61322">
        <ele>968</ele>
        <time>2010-06-20T09:01:02Z</time>
      </trkpt>
      <trkpt lat="45.01895" lon="5.61318">
        <ele>968</ele>
        <time>2010-06-20T09:01:03Z</time>
      </trkpt>
      <trkpt lat="45.01896" lon="5.61313">
        <ele>968</ele>
        <time>2010-06-20T09:01:04Z</time>
      </trkpt>
      <trkpt lat="45.01897" lon="5.6131">
        <ele>968</ele>
        <time>2010-06-20T09:01:05Z</time>
      </trkpt>
      <trkpt lat="45.01898" lon="5.61306">
        <ele>968</ele>
        <time>2010-06-20T09:01:06Z</time>
      </trkpt>
      <trkpt lat="45.01899" lon="5.61302">
        <ele>968</ele>
        <time>2010-06-20T09:01:07Z</time>
      </trkpt>
      <trkpt lat="45.01899" lon="5.61297">
        <ele>968</ele>
        <time>2010-06-20T09:01:08Z</time>
      </trkpt>
      <trkpt lat="45.01899" lon="5.61293">
        <ele>968</ele>
        <time>2010-06-20T09:01:09Z</time>
      </trkpt>
      <trkpt lat="45.01898" lon="5.61289">
        <ele>968</ele>
        <time>2010-06-20T09:01:10Z</time>
      </trkpt>
      <trkpt lat="45.01897" lon="5.61285">
        <ele>968</ele>
        <time>2010-06-20T09:01:11Z</time>
      </trkpt>
      <trkpt lat="45.01896" lon="5.6128">
        <ele>968</ele>
        <time>2010-06-20T09:01:12Z</time>
      </trkpt>
      <trkpt lat="45.01895" lon="5.61276">
        <ele>968</ele>
        <time>2010-06-20T09:01:13Z</time>
      </trkpt>
      <trkpt lat="45.01893" lon="5.61272">
        <ele>968</ele>
        <time>2010-06-20T09:01:14Z</time>
      </trkpt>
      <trkpt lat="45.01892" lon="5.61268">
        <ele>968</ele>
        <time>2010-06-20T09:01:15Z</time>
      </trkpt>
      <trkpt lat="45.0189" lon="5.61265">
        <ele>968</ele>
        <time>2010-06-20T09:01:16Z</time>
      </trkpt>
      <trkpt lat="45.01888" lon="5.61262">
        <ele>968</ele>
        <time>2010-06-20T09:01:17Z</time>
      </trkpt>
      <trkpt lat="45.01886" lon="5.6126">
        <ele>968</ele>
        <time>2010-06-20T09:01:18Z</time>
      </trkpt>
      <trkpt lat="45.01884" lon="5.61258">
        <ele>968</ele>
        <time>2010-06-20T09:01:19Z</time>
      </trkpt>
      <trkpt lat="45.01881" lon="5.61255">
        <ele>968</ele>
        <time>2010-06-20T09:01:20Z</time>
      </trkpt>
      <trkpt lat="45.01878" lon="5.61253">
        <ele>968</ele>
        <time>2010-06-20T09:01:21Z</time>
      </trkpt>
      <trkpt lat="45.01875" lon="5.61251">
        <ele>968</ele>
        <time>2010-06-20T09:01:22Z</time>
      </trkpt>
      <trkpt lat="45.01871" lon="5.61248">
        <ele>968</ele>
        <time>2010-06-20T09:01:23Z</time>
      </trkpt>
      <trkpt lat="45.01869" lon="5.61245">
        <ele>968</ele>
        <time>2010-06-20T09:01:24Z</time>
      </trkpt>
      <trkpt lat="45.01865" lon="5.61242">
        <ele>968</ele>
        <time>2010-06-20T09:01:25Z</time>
      </trkpt>
      <trkpt lat="45.01862" lon="5.6124">
        <ele>969</ele>
        <time>2010-06-20T09:01:26Z</time>
      </trkpt>
      <trkpt lat="45.01859" lon="5.61238">
        <ele>969</ele>
        <time>2010-06-20T09:01:27Z</time>
      </trkpt>
      <trkpt lat="45.01857" lon="5.61236">
        <ele>970</ele>
        <time>2010-06-20T09:01:28Z</time>
      </trkpt>
      <trkpt lat="45.01854" lon="5.61233">
        <ele>971</ele>
        <time>2010-06-20T09:01:29Z</time>
      </trkpt>
      <trkpt lat="45.01852" lon="5.61231">
        <ele>971</ele>
        <time>2010-06-20T09:01:30Z</time>
      </trkpt>
      <trkpt lat="45.0185" lon="5.61231">
        <ele>971</ele>
        <time>2010-06-20T09:01:31Z</time>
      </trkpt>
      <trkpt lat="45.01847" lon="5.61232">
        <ele>972</ele>
        <time>2010-06-20T09:01:32Z</time>
      </trkpt>
      <trkpt lat="45.01845" lon="5.61236">
        <ele>972</ele>
        <time>2010-06-20T09:01:33Z</time>
      </trkpt>
      <trkpt lat="45.01843" lon="5.6124">
        <ele>972</ele>
        <time>2010-06-20T09:01:34Z</time>
      </trkpt>
      <trkpt lat="45.01841" lon="5.61245">
        <ele>972</ele>
        <time>2010-06-20T09:01:35Z</time>
      </trkpt>
      <trkpt lat="45.01838" lon="5.61249">
        <ele>973</ele>
        <time>2010-06-20T09:01:36Z</time>
      </trkpt>
      <trkpt lat="45.01836" lon="5.61254">
        <ele>973</ele>
        <time>2010-06-20T09:01:37Z</time>
      </trkpt>
      <trkpt lat="45.01833" lon="5.61259">
        <ele>973</ele>
        <time>2010-06-20T09:01:38Z</time>
      </trkpt>
      <trkpt lat="45.0183" lon="5.61262">
        <ele>973</ele>
        <time>2010-06-20T09:01:39Z</time>
      </trkpt>
      <trkpt lat="45.01827" lon="5.61262">
        <ele>973</ele>
        <time>2010-06-20T09:01:40Z</time>
      </trkpt>
      <trkpt lat="45.01824" lon="5.61259">
        <ele>973</ele>
        <time>2010-06-20T09:01:41Z</time>
      </trkpt>
      <trkpt lat="45.01823" lon="5.61255">
        <ele>973</ele>
        <time>2010-06-20T09:01:42Z</time>
      </trkpt>
      <trkpt lat="45.01822" lon="5.61251">
        <ele>973</ele>
        <time>2010-06-20T09:01:43Z</time>
      </trkpt>
      <trkpt lat="45.01822" lon="5.61247">
        <ele>973</ele>
        <time>2010-06-20T09:01:44Z</time>
      </trkpt>
      <trkpt lat="45.01822" lon="5.61242">
        <ele>973</ele>
        <time>2010-06-20T09:01:45Z</time>
      </trkpt>
      <trkpt lat="45.01821" lon="5.61238">
        <ele>973</ele>
        <time>2010-06-20T09:01:46Z</time>
      </trkpt>
      <trkpt lat="45.01821" lon="5.61234">
        <ele>973</ele>
        <time>2010-06-20T09:01:47Z</time>
      </trkpt>
      <trkpt lat="45.01821" lon="5.61229">
        <ele>973</ele>
        <time>2010-06-20T09:01:48Z</time>
      </trkpt>
      <trkpt lat="45.01821" lon="5.61226">
        <ele>973</ele>
        <time>2010-06-20T09:01:49Z</time>
      </trkpt>
      <trkpt lat="45.01821" lon="5.61222">
        <ele>973</ele>
        <time>2010-06-20T09:01:50Z</time>
      </trkpt>
      <trkpt lat="45.01821" lon="5.61218">
        <ele>972</ele>
        <time>2010-06-20T09:01:51Z</time>
      </trkpt>
      <trkpt lat="45.01821" lon="5.61213">
        <ele>972</ele>
        <time>2010-06-20T09:01:52Z</time>
      </trkpt>
      <trkpt lat="45.01821" lon="5.61209">
        <ele>972</ele>
        <time>2010-06-20T09:01:53Z</time>
      </trkpt>
      <trkpt lat="45.01821" lon="5.61205">
        <ele>971</ele>
        <time>2010-06-20T09:01:54Z</time>
      </trkpt>
      <trkpt lat="45.01821" lon="5.61202">
        <ele>971</ele>
        <time>2010-06-20T09:01:55Z</time>
      </trkpt>
      <trkpt lat="45.01822" lon="5.61198">
        <ele>971</ele>
        <time>2010-06-20T09:01:56Z</time>
      </trkpt>
      <trkpt lat="45.01821" lon="5.61195">
        <ele>970</ele>
        <time>2010-06-20T09:01:57Z</time>
      </trkpt>
      <trkpt lat="45.01821" lon="5.61191">
        <ele>970</ele>
        <time>2010-06-20T09:01:58Z</time>
      </trkpt>
      <trkpt lat="45.01821" lon="5.61188">
        <ele>970</ele>
        <time>2010-06-20T09:01:59Z</time>
      </trkpt>
      <trkpt lat="45.01822" lon="5.61184">
        <ele>969</ele>
        <time>2010-06-20T09:02:00Z</time>
      </trkpt>
      <trkpt lat="45.01822" lon="5.61182">
        <ele>969</ele>
        <time>2010-06-20T09:02:01Z</time>
      </trkpt>
      <trkpt lat="45.01822" lon="5.61179">
        <ele>969</ele>
        <time>2010-06-20T09:02:02Z</time>
      </trkpt>
      <trkpt lat="45.01821" lon="5.61175">
        <ele>969</ele>
        <time>2010-06-20T09:02:03Z</time>
      </trkpt>
      <trkpt lat="45.0182" lon="5.61171">
        <ele>969</ele>
        <time>2010-06-20T09:02:04Z</time>
      </trkpt>
      <trkpt lat="45.0182" lon="5.61168">
        <ele>969</ele>
        <time>2010-06-20T09:02:05Z</time>
      </trkpt>
      <trkpt lat="45.0182" lon="5.61165">
        <ele>969</ele>
        <time>2010-06-20T09:02:06Z</time>
      </trkpt>
      <trkpt lat="45.0182" lon="5.61161">
        <ele>969</ele>
        <time>2010-06-20T09:02:07Z</time>
      </trkpt>
      <trkpt lat="45.0182" lon="5.61157">
        <ele>969</ele>
        <time>2010-06-20T09:02:08Z</time>
      </trkpt>
      <trkpt lat="45.0182" lon="5.61153">
        <ele>969</ele>
        <time>2010-06-20T09:02:09Z</time>
      </trkpt>
      <trkpt lat="45.01819" lon="5.61149">
        <ele>969</ele>
        <time>2010-06-20T09:02:10Z</time>
      </trkpt>
      <trkpt lat="45.0182" lon="5.61145">
        <ele>969</ele>
        <time>2010-06-20T09:02:11Z</time>
      </trkpt>
      <trkpt lat="45.0182" lon="5.61141">
        <ele>969</ele>
        <time>2010-06-20T09:02:12Z</time>
      </trkpt>
      <trkpt lat="45.0182" lon="5.61135">
        <ele>969</ele>
        <time>2010-06-20T09:02:13Z</time>
      </trkpt>
      <trkpt lat="45.0182" lon="5.6113">
        <ele>969</ele>
        <time>2010-06-20T09:02:14Z</time>
      </trkpt>
      <trkpt lat="45.0182" lon="5.61126">
        <ele>969</ele>
        <time>2010-06-20T09:02:15Z</time>
      </trkpt>
      <trkpt lat="45.01819" lon="5.61121">
        <ele>969</ele>
        <time>2010-06-20T09:02:16Z</time>
      </trkpt>
      <trkpt lat="45.01819" lon="5.61117">
        <ele>970</ele>
        <time>2010-06-20T09:02:17Z</time>
      </trkpt>
      <trkpt lat="45.01819" lon="5.61113">
        <ele>971</ele>
        <time>2010-06-20T09:02:18Z</time>
      </trkpt>
      <trkpt lat="45.01819" lon="5.61109">
        <ele>972</ele>
        <time>2010-06-20T09:02:19Z</time>
      </trkpt>
      <trkpt lat="45.01819" lon="5.61106">
        <ele>973</ele>
        <time>2010-06-20T09:02:20Z</time>
      </trkpt>
      <trkpt lat="45.01819" lon="5.61102">
        <ele>974</ele>
        <time>2010-06-20T09:02:21Z</time>
      </trkpt>
      <trkpt lat="45.0182" lon="5.61099">
        <ele>975</ele>
        <time>2010-06-20T09:02:22Z</time>
      </trkpt>
      <trkpt lat="45.0182" lon="5.61095">
        <ele>975</ele>
        <time>2010-06-20T09:02:23Z</time>
      </trkpt>
      <trkpt lat="45.0182" lon="5.61092">
        <ele>975</ele>
        <time>2010-06-20T09:02:24Z</time>
      </trkpt>
      <trkpt lat="45.01819" lon="5.61088">
        <ele>976</ele>
        <time>2010-06-20T09:02:25Z</time>
      </trkpt>
      <trkpt lat="45.01819" lon="5.61084">
        <ele>977</ele>
        <time>2010-06-20T09:02:26Z</time>
      </trkpt>
      <trkpt lat="45.01818" lon="5.61079">
        <ele>977</ele>
        <time>2010-06-20T09:02:27Z</time>
      </trkpt>
      <trkpt lat="45.01818" lon="5.61076">
        <ele>978</ele>
        <time>2010-06-20T09:02:28Z</time>
      </trkpt>
      <trkpt lat="45.01818" lon="5.61074">
        <ele>979</ele>
        <time>2010-06-20T09:02:29Z</time>
      </trkpt>
      <trkpt lat="45.01817" lon="5.61071">
        <ele>979</ele>
        <time>2010-06-20T09:02:30Z</time>
      </trkpt>
      <trkpt lat="45.01817" lon="5.61068">
        <ele>980</ele>
        <time>2010-06-20T09:02:31Z</time>
      </trkpt>
      <trkpt lat="45.01816" lon="5.61064">
        <ele>980</ele>
        <time>2010-06-20T09:02:32Z</time>
      </trkpt>
      <trkpt lat="45.01816" lon="5.6106">
        <ele>980</ele>
        <time>2010-06-20T09:02:33Z</time>
      </trkpt>
      <trkpt lat="45.01816" lon="5.61056">
        <ele>980</ele>
        <time>2010-06-20T09:02:34Z</time>
      </trkpt>
      <trkpt lat="45.01815" lon="5.61052">
        <ele>980</ele>
        <time>2010-06-20T09:02:35Z</time>
      </trkpt>
      <trkpt lat="45.01814" lon="5.61049">
        <ele>980</ele>
        <time>2010-06-20T09:02:36Z</time>
      </trkpt>
      <trkpt lat="45.01813" lon="5.61046">
        <ele>980</ele>
        <time>2010-06-20T09:02:37Z</time>
      </trkpt>
      <trkpt lat="45.01813" lon="5.61042">
        <ele>981</ele>
        <time>2010-06-20T09:02:38Z</time>
      </trkpt>
      <trkpt lat="45.01812" lon="5.61039">
        <ele>981</ele>
        <time>2010-06-20T09:02:39Z</time>
      </trkpt>
      <trkpt lat="45.01812" lon="5.61036">
        <ele>982</ele>
        <time>2010-06-20T09:02:40Z</time>
      </trkpt>
      <trkpt lat="45.01811" lon="5.61033">
        <ele>982</ele>
        <time>2010-06-20T09:02:41Z</time>
      </trkpt>
      <trkpt lat="45.0181" lon="5.6103">
        <ele>983</ele>
        <time>2010-06-20T09:02:42Z</time>
      </trkpt>
      <trkpt lat="45.01809" lon="5.61026">
        <ele>984</ele>
        <time>2010-06-20T09:02:43Z</time>
      </trkpt>
      <trkpt lat="45.01808" lon="5.61023">
        <ele>984</ele>
        <time>2010-06-20T09:02:44Z</time>
      </trkpt>
      <trkpt lat="45.01807" lon="5.61019">
        <ele>985</ele>
        <time>2010-06-20T09:02:45Z</time>
      </trkpt>
      <trkpt lat="45.01807" lon="5.61016">
        <ele>986</ele>
        <time>2010-06-20T09:02:46Z</time>
      </trkpt>
      <trkpt lat="45.01806" lon="5.61013">
        <ele>987</ele>
        <time>2010-06-20T09:02:47Z</time>
      </trkpt>
      <trkpt lat="45.01805" lon="5.6101">
        <ele>987</ele>
        <time>2010-06-20T09:02:48Z</time>
      </trkpt>
      <trkpt lat="45.01803" lon="5.61007">
        <ele>988</ele>
        <time>2010-06-20T09:02:49Z</time>
      </trkpt>
      <trkpt lat="45.01803" lon="5.61005">
        <ele>989</ele>
        <time>2010-06-20T09:02:50Z</time>
      </trkpt>
      <trkpt lat="45.01802" lon="5.61002">
        <ele>989</ele>
        <time>2010-06-20T09:02:51Z</time>
      </trkpt>
      <trkpt lat="45.01801" lon="5.61001">
        <ele>990</ele>
        <time>2010-06-20T09:02:52Z</time>
      </trkpt>
      <trkpt lat="45.018" lon="5.60999">
        <ele>990</ele>
        <time>2010-06-20T09:02:53Z</time>
      </trkpt>
      <trkpt lat="45.01799" lon="5.60997">
        <ele>991</ele>
        <time>2010-06-20T09:02:54Z</time>
      </trkpt>
      <trkpt lat="45.01799" lon="5.60995">
        <ele>992</ele>
        <time>2010-06-20T09:02:55Z</time>
      </trkpt>
      <trkpt lat="45.01798" lon="5.60994">
        <ele>993</ele>
        <time>2010-06-20T09:02:56Z</time>
      </trkpt>
      <trkpt lat="45.01796" lon="5.6099">
        <ele>994</ele>
        <time>2010-06-20T09:02:58Z</time>
      </trkpt>
      <trkpt lat="45.01795" lon="5.60988">
        <ele>994</ele>
        <time>2010-06-20T09:02:59Z</time>
      </trkpt>
      <trkpt lat="45.01793" lon="5.60985">
        <ele>994</ele>
        <time>2010-06-20T09:03:00Z</time>
      </trkpt>
      <trkpt lat="45.01793" lon="5.6098">
        <ele>994</ele>
        <time>2010-06-20T09:03:01Z</time>
      </trkpt>
      <trkpt lat="45.01792" lon="5.60976">
        <ele>995</ele>
        <time>2010-06-20T09:03:02Z</time>
      </trkpt>
      <trkpt lat="45.01791" lon="5.60973">
        <ele>995</ele>
        <time>2010-06-20T09:03:03Z</time>
      </trkpt>
      <trkpt lat="45.0179" lon="5.60972">
        <ele>995</ele>
        <time>2010-06-20T09:03:04Z</time>
      </trkpt>
      <trkpt lat="45.0179" lon="5.60969">
        <ele>995</ele>
        <time>2010-06-20T09:03:05Z</time>
      </trkpt>
      <trkpt lat="45.0179" lon="5.60966">
        <ele>995</ele>
        <time>2010-06-20T09:03:06Z</time>
      </trkpt>
      <trkpt lat="45.0179" lon="5.60964">
        <ele>995</ele>
        <time>2010-06-20T09:03:07Z</time>
      </trkpt>
      <trkpt lat="45.01789" lon="5.60962">
        <ele>995</ele>
        <time>2010-06-20T09:03:08Z</time>
      </trkpt>
      <trkpt lat="45.01789" lon="5.6096">
        <ele>995</ele>
        <time>2010-06-20T09:03:09Z</time>
      </trkpt>
      <trkpt lat="45.01789" lon="5.60958">
        <ele>995</ele>
        <time>2010-06-20T09:03:10Z</time>
      </trkpt>
      <trkpt lat="45.01789" lon="5.60956">
        <ele>995</ele>
        <time>2010-06-20T09:03:11Z</time>
      </trkpt>
      <trkpt lat="45.0179" lon="5.60954">
        <ele>995</ele>
        <time>2010-06-20T09:03:12Z</time>
      </trkpt>
      <trkpt lat="45.0179" lon="5.60952">
        <ele>995</ele>
        <time>2010-06-20T09:03:13Z</time>
      </trkpt>
      <trkpt lat="45.0179" lon="5.6095">
        <ele>995</ele>
        <time>2010-06-20T09:03:14Z</time>
      </trkpt>
      <trkpt lat="45.01791" lon="5.60947">
        <ele>995</ele>
        <time>2010-06-20T09:03:15Z</time>
      </trkpt>
      <trkpt lat="45.01792" lon="5.60944">
        <ele>995</ele>
        <time>2010-06-20T09:03:16Z</time>
      </trkpt>
      <trkpt lat="45.01793" lon="5.60942">
        <ele>995</ele>
        <time>2010-06-20T09:03:17Z</time>
      </trkpt>
      <trkpt lat="45.01794" lon="5.6094">
        <ele>995</ele>
        <time>2010-06-20T09:03:18Z</time>
      </trkpt>
      <trkpt lat="45.01794" lon="5.60937">
        <ele>995</ele>
        <time>2010-06-20T09:03:19Z</time>
      </trkpt>
      <trkpt lat="45.01796" lon="5.60935">
        <ele>995</ele>
        <time>2010-06-20T09:03:20Z</time>
      </trkpt>
      <trkpt lat="45.01796" lon="5.60933">
        <ele>995</ele>
        <time>2010-06-20T09:03:21Z</time>
      </trkpt>
      <trkpt lat="45.01797" lon="5.60931">
        <ele>995</ele>
        <time>2010-06-20T09:03:22Z</time>
      </trkpt>
      <trkpt lat="45.01798" lon="5.60929">
        <ele>995</ele>
        <time>2010-06-20T09:03:23Z</time>
      </trkpt>
      <trkpt lat="45.01799" lon="5.60927">
        <ele>995</ele>
        <time>2010-06-20T09:03:24Z</time>
      </trkpt>
      <trkpt lat="45.01799" lon="5.60925">
        <ele>995</ele>
        <time>2010-06-20T09:03:25Z</time>
      </trkpt>
      <trkpt lat="45.018" lon="5.60922">
        <ele>995</ele>
        <time>2010-06-20T09:03:26Z</time>
      </trkpt>
      <trkpt lat="45.018" lon="5.6092">
        <ele>995</ele>
        <time>2010-06-20T09:03:27Z</time>
      </trkpt>
      <trkpt lat="45.018" lon="5.60919">
        <ele>995</ele>
        <time>2010-06-20T09:03:28Z</time>
      </trkpt>
      <trkpt lat="45.01801" lon="5.60917">
        <ele>995</ele>
        <time>2010-06-20T09:03:29Z</time>
      </trkpt>
      <trkpt lat="45.01801" lon="5.60916">
        <ele>995</ele>
        <time>2010-06-20T09:03:30Z</time>
      </trkpt>
      <trkpt lat="45.01801" lon="5.60913">
        <ele>995</ele>
        <time>2010-06-20T09:03:31Z</time>
      </trkpt>
      <trkpt lat="45.01801" lon="5.60911">
        <ele>995</ele>
        <time>2010-06-20T09:03:32Z</time>
      </trkpt>
      <trkpt lat="45.01801" lon="5.60909">
        <ele>995</ele>
        <time>2010-06-20T09:03:33Z</time>
      </trkpt>
      <trkpt lat="45.01801" lon="5.60907">
        <ele>995</ele>
        <time>2010-06-20T09:03:34Z</time>
      </trkpt>
      <trkpt lat="45.01801" lon="5.60906">
        <ele>995</ele>
        <time>2010-06-20T09:03:35Z</time>
      </trkpt>
      <trkpt lat="45.018" lon="5.60904">
        <ele>995</ele>
        <time>2010-06-20T09:03:36Z</time>
      </trkpt>
      <trkpt lat="45.018" lon="5.60902">
        <ele>995</ele>
        <time>2010-06-20T09:03:37Z</time>
      </trkpt>
      <trkpt lat="45.01799" lon="5.60901">
        <ele>995</ele>
        <time>2010-06-20T09:03:38Z</time>
      </trkpt>
      <trkpt lat="45.01799" lon="5.60899">
        <ele>995</ele>
        <time>2010-06-20T09:03:39Z</time>
      </trkpt>
      <trkpt lat="45.01799" lon="5.60896">
        <ele>996</ele>
        <time>2010-06-20T09:03:40Z</time>
      </trkpt>
      <trkpt lat="45.01799" lon="5.60894">
        <ele>996</ele>
        <time>2010-06-20T09:03:41Z</time>
      </trkpt>
      <trkpt lat="45.01799" lon="5.60893">
        <ele>996</ele>
        <time>2010-06-20T09:03:42Z</time>
      </trkpt>
      <trkpt lat="45.01798" lon="5.60891">
        <ele>996</ele>
        <time>2010-06-20T09:03:43Z</time>
      </trkpt>
      <trkpt lat="45.01797" lon="5.60889">
        <ele>997</ele>
        <time>2010-06-20T09:03:44Z</time>
      </trkpt>
      <trkpt lat="45.01796" lon="5.60887">
        <ele>997</ele>
        <time>2010-06-20T09:03:45Z</time>
      </trkpt>
      <trkpt lat="45.01794" lon="5.60885">
        <ele>997</ele>
        <time>2010-06-20T09:03:46Z</time>
      </trkpt>
      <trkpt lat="45.01792" lon="5.60883">
        <ele>997</ele>
        <time>2010-06-20T09:03:47Z</time>
      </trkpt>
      <trkpt lat="45.0179" lon="5.60881">
        <ele>997</ele>
        <time>2010-06-20T09:03:48Z</time>
      </trkpt>
      <trkpt lat="45.01787" lon="5.60879">
        <ele>998</ele>
        <time>2010-06-20T09:03:49Z</time>
      </trkpt>
      <trkpt lat="45.01785" lon="5.60877">
        <ele>998</ele>
        <time>2010-06-20T09:03:50Z</time>
      </trkpt>
      <trkpt lat="45.01782" lon="5.60874">
        <ele>998</ele>
        <time>2010-06-20T09:03:51Z</time>
      </trkpt>
      <trkpt lat="45.0178" lon="5.60872">
        <ele>999</ele>
        <time>2010-06-20T09:03:52Z</time>
      </trkpt>
      <trkpt lat="45.01778" lon="5.6087">
        <ele>999</ele>
        <time>2010-06-20T09:03:53Z</time>
      </trkpt>
      <trkpt lat="45.01775" lon="5.60868">
        <ele>999</ele>
        <time>2010-06-20T09:03:54Z</time>
      </trkpt>
      <trkpt lat="45.01772" lon="5.60866">
        <ele>999</ele>
        <time>2010-06-20T09:03:55Z</time>
      </trkpt>
      <trkpt lat="45.0177" lon="5.60864">
        <ele>999</ele>
        <time>2010-06-20T09:03:56Z</time>
      </trkpt>
      <trkpt lat="45.01767" lon="5.60862">
        <ele>999</ele>
        <time>2010-06-20T09:03:57Z</time>
      </trkpt>
      <trkpt lat="45.01765" lon="5.60859">
        <ele>1000</ele>
        <time>2010-06-20T09:03:58Z</time>
      </trkpt>
      <trkpt lat="45.01762" lon="5.60857">
        <ele>1000</ele>
        <time>2010-06-20T09:03:59Z</time>
      </trkpt>
      <trkpt lat="45.0176" lon="5.60855">
        <ele>1000</ele>
        <time>2010-06-20T09:04:00Z</time>
      </trkpt>
      <trkpt lat="45.01757" lon="5.60852">
        <ele>1000</ele>
        <time>2010-06-20T09:04:01Z</time>
      </trkpt>
      <trkpt lat="45.01755" lon="5.60849">
        <ele>1000</ele>
        <time>2010-06-20T09:04:02Z</time>
      </trkpt>
      <trkpt lat="45.01752" lon="5.60847">
        <ele>1000</ele>
        <time>2010-06-20T09:04:03Z</time>
      </trkpt>
      <trkpt lat="45.0175" lon="5.60844">
        <ele>1001</ele>
        <time>2010-06-20T09:04:04Z</time>
      </trkpt>
      <trkpt lat="45.01748" lon="5.60841">
        <ele>1001</ele>
        <time>2010-06-20T09:04:05Z</time>
      </trkpt>
      <trkpt lat="45.01746" lon="5.60838">
        <ele>1001</ele>
        <time>2010-06-20T09:04:06Z</time>
      </trkpt>
      <trkpt lat="45.01744" lon="5.60836">
        <ele>1001</ele>
        <time>2010-06-20T09:04:07Z</time>
      </trkpt>
      <trkpt lat="45.01741" lon="5.60833">
        <ele>1001</ele>
        <time>2010-06-20T09:04:08Z</time>
      </trkpt>
      <trkpt lat="45.01739" lon="5.60831">
        <ele>1001</ele>
        <time>2010-06-20T09:04:09Z</time>
      </trkpt>
      <trkpt lat="45.01737" lon="5.60828">
        <ele>1002</ele>
        <time>2010-06-20T09:04:10Z</time>
      </trkpt>
      <trkpt lat="45.01735" lon="5.60826">
        <ele>1002</ele>
        <time>2010-06-20T09:04:11Z</time>
      </trkpt>
      <trkpt lat="45.01732" lon="5.60825">
        <ele>1002</ele>
        <time>2010-06-20T09:04:12Z</time>
      </trkpt>
      <trkpt lat="45.01729" lon="5.60823">
        <ele>1002</ele>
        <time>2010-06-20T09:04:13Z</time>
      </trkpt>
      <trkpt lat="45.01727" lon="5.6082">
        <ele>1003</ele>
        <time>2010-06-20T09:04:14Z</time>
      </trkpt>
      <trkpt lat="45.01724" lon="5.60818">
        <ele>1003</ele>
        <time>2010-06-20T09:04:15Z</time>
      </trkpt>
      <trkpt lat="45.01722" lon="5.60815">
        <ele>1003</ele>
        <time>2010-06-20T09:04:16Z</time>
      </trkpt>
      <trkpt lat="45.0172" lon="5.60812">
        <ele>1004</ele>
        <time>2010-06-20T09:04:17Z</time>
      </trkpt>
      <trkpt lat="45.01718" lon="5.60809">
        <ele>1004</ele>
        <time>2010-06-20T09:04:18Z</time>
      </trkpt>
      <trkpt lat="45.01716" lon="5.60807">
        <ele>1004</ele>
        <time>2010-06-20T09:04:19Z</time>
      </trkpt>
      <trkpt lat="45.01713" lon="5.60805">
        <ele>1005</ele>
        <time>2010-06-20T09:04:20Z</time>
      </trkpt>
      <trkpt lat="45.01711" lon="5.60802">
        <ele>1005</ele>
        <time>2010-06-20T09:04:21Z</time>
      </trkpt>
      <trkpt lat="45.01709" lon="5.60799">
        <ele>1005</ele>
        <time>2010-06-20T09:04:22Z</time>
      </trkpt>
      <trkpt lat="45.01708" lon="5.60797">
        <ele>1006</ele>
        <time>2010-06-20T09:04:23Z</time>
      </trkpt>
      <trkpt lat="45.01707" lon="5.60795">
        <ele>1006</ele>
        <time>2010-06-20T09:04:24Z</time>
      </trkpt>
      <trkpt lat="45.01706" lon="5.60794">
        <ele>1006</ele>
        <time>2010-06-20T09:04:25Z</time>
      </trkpt>
      <trkpt lat="45.01704" lon="5.60791">
        <ele>1007</ele>
        <time>2010-06-20T09:04:26Z</time>
      </trkpt>
      <trkpt lat="45.01701" lon="5.60789">
        <ele>1007</ele>
        <time>2010-06-20T09:04:27Z</time>
      </trkpt>
      <trkpt lat="45.01699" lon="5.60786">
        <ele>1008</ele>
        <time>2010-06-20T09:04:28Z</time>
      </trkpt>
      <trkpt lat="45.01696" lon="5.60784">
        <ele>1008</ele>
        <time>2010-06-20T09:04:29Z</time>
      </trkpt>
      <trkpt lat="45.01693" lon="5.60782">
        <ele>1009</ele>
        <time>2010-06-20T09:04:30Z</time>
      </trkpt>
      <trkpt lat="45.0169" lon="5.6078">
        <ele>1009</ele>
        <time>2010-06-20T09:04:31Z</time>
      </trkpt>
      <trkpt lat="45.01688" lon="5.60778">
        <ele>1010</ele>
        <time>2010-06-20T09:04:32Z</time>
      </trkpt>
      <trkpt lat="45.01685" lon="5.60776">
        <ele>1010</ele>
        <time>2010-06-20T09:04:33Z</time>
      </trkpt>
      <trkpt lat="45.01683" lon="5.60773">
        <ele>1010</ele>
        <time>2010-06-20T09:04:34Z</time>
      </trkpt>
      <trkpt lat="45.01681" lon="5.60771">
        <ele>1010</ele>
        <time>2010-06-20T09:04:35Z</time>
      </trkpt>
      <trkpt lat="45.01678" lon="5.60768">
        <ele>1010</ele>
        <time>2010-06-20T09:04:36Z</time>
      </trkpt>
      <trkpt lat="45.01676" lon="5.60766">
        <ele>1010</ele>
        <time>2010-06-20T09:04:37Z</time>
      </trkpt>
      <trkpt lat="45.01673" lon="5.60764">
        <ele>1010</ele>
        <time>2010-06-20T09:04:38Z</time>
      </trkpt>
      <trkpt lat="45.01671" lon="5.60761">
        <ele>1010</ele>
        <time>2010-06-20T09:04:39Z</time>
      </trkpt>
      <trkpt lat="45.01668" lon="5.60759">
        <ele>1010</ele>
        <time>2010-06-20T09:04:40Z</time>
      </trkpt>
      <trkpt lat="45.01666" lon="5.60756">
        <ele>1010</ele>
        <time>2010-06-20T09:04:41Z</time>
      </trkpt>
      <trkpt lat="45.01663" lon="5.60753">
        <ele>1011</ele>
        <time>2010-06-20T09:04:42Z</time>
      </trkpt>
      <trkpt lat="45.01661" lon="5.60751">
        <ele>1011</ele>
        <time>2010-06-20T09:04:43Z</time>
      </trkpt>
      <trkpt lat="45.01658" lon="5.60748">
        <ele>1011</ele>
        <time>2010-06-20T09:04:44Z</time>
      </trkpt>
      <trkpt lat="45.01656" lon="5.60745">
        <ele>1011</ele>
        <time>2010-06-20T09:04:45Z</time>
      </trkpt>
      <trkpt lat="45.01653" lon="5.60743">
        <ele>1011</ele>
        <time>2010-06-20T09:04:46Z</time>
      </trkpt>
      <trkpt lat="45.0165" lon="5.6074">
        <ele>1011</ele>
        <time>2010-06-20T09:04:47Z</time>
      </trkpt>
      <trkpt lat="45.01648" lon="5.60738">
        <ele>1011</ele>
        <time>2010-06-20T09:04:48Z</time>
      </trkpt>
      <trkpt lat="45.01645" lon="5.60735">
        <ele>1011</ele>
        <time>2010-06-20T09:04:49Z</time>
      </trkpt>
      <trkpt lat="45.01642" lon="5.60733">
        <ele>1011</ele>
        <time>2010-06-20T09:04:50Z</time>
      </trkpt>
      <trkpt lat="45.0164" lon="5.6073">
        <ele>1011</ele>
        <time>2010-06-20T09:04:51Z</time>
      </trkpt>
      <trkpt lat="45.01637" lon="5.60728">
        <ele>1011</ele>
        <time>2010-06-20T09:04:52Z</time>
      </trkpt>
      <trkpt lat="45.01634" lon="5.60725">
        <ele>1011</ele>
        <time>2010-06-20T09:04:53Z</time>
      </trkpt>
      <trkpt lat="45.01632" lon="5.60723">
        <ele>1011</ele>
        <time>2010-06-20T09:04:54Z</time>
      </trkpt>
      <trkpt lat="45.01629" lon="5.6072">
        <ele>1011</ele>
        <time>2010-06-20T09:04:55Z</time>
      </trkpt>
      <trkpt lat="45.01626" lon="5.60718">
        <ele>1011</ele>
        <time>2010-06-20T09:04:56Z</time>
      </trkpt>
      <trkpt lat="45.01623" lon="5.60716">
        <ele>1011</ele>
        <time>2010-06-20T09:04:57Z</time>
      </trkpt>
      <trkpt lat="45.01619" lon="5.60714">
        <ele>1011</ele>
        <time>2010-06-20T09:04:58Z</time>
      </trkpt>
      <trkpt lat="45.01616" lon="5.60712">
        <ele>1011</ele>
        <time>2010-06-20T09:04:59Z</time>
      </trkpt>
      <trkpt lat="45.01613" lon="5.6071">
        <ele>1011</ele>
        <time>2010-06-20T09:05:00Z</time>
      </trkpt>
      <trkpt lat="45.01611" lon="5.60708">
        <ele>1011</ele>
        <time>2010-06-20T09:05:01Z</time>
      </trkpt>
      <trkpt lat="45.01609" lon="5.60706">
        <ele>1012</ele>
        <time>2010-06-20T09:05:02Z</time>
      </trkpt>
      <trkpt lat="45.01606" lon="5.60704">
        <ele>1012</ele>
        <time>2010-06-20T09:05:03Z</time>
      </trkpt>
      <trkpt lat="45.01604" lon="5.60701">
        <ele>1012</ele>
        <time>2010-06-20T09:05:04Z</time>
      </trkpt>
      <trkpt lat="45.01601" lon="5.60699">
        <ele>1012</ele>
        <time>2010-06-20T09:05:05Z</time>
      </trkpt>
      <trkpt lat="45.01599" lon="5.60696">
        <ele>1012</ele>
        <time>2010-06-20T09:05:06Z</time>
      </trkpt>
      <trkpt lat="45.01598" lon="5.60695">
        <ele>1012</ele>
        <time>2010-06-20T09:05:07Z</time>
      </trkpt>
      <trkpt lat="45.01597" lon="5.60695">
        <ele>1012</ele>
        <time>2010-06-20T09:05:08Z</time>
      </trkpt>
      <trkpt lat="45.01596" lon="5.60697">
        <ele>1012</ele>
        <time>2010-06-20T09:05:09Z</time>
      </trkpt>
      <trkpt lat="45.01596" lon="5.60699">
        <ele>1012</ele>
        <time>2010-06-20T09:05:10Z</time>
      </trkpt>
      <trkpt lat="45.01596" lon="5.60703">
        <ele>1012</ele>
        <time>2010-06-20T09:05:11Z</time>
      </trkpt>
      <trkpt lat="45.01597" lon="5.60707">
        <ele>1012</ele>
        <time>2010-06-20T09:05:12Z</time>
      </trkpt>
      <trkpt lat="45.016" lon="5.60711">
        <ele>1012</ele>
        <time>2010-06-20T09:05:13Z</time>
      </trkpt>
      <trkpt lat="45.01602" lon="5.60714">
        <ele>1012</ele>
        <time>2010-06-20T09:05:14Z</time>
      </trkpt>
      <trkpt lat="45.01604" lon="5.60717">
        <ele>1012</ele>
        <time>2010-06-20T09:05:15Z</time>
      </trkpt>
      <trkpt lat="45.01607" lon="5.60719">
        <ele>1012</ele>
        <time>2010-06-20T09:05:16Z</time>
      </trkpt>
      <trkpt lat="45.01609" lon="5.60722">
        <ele>1012</ele>
        <time>2010-06-20T09:05:17Z</time>
      </trkpt>
      <trkpt lat="45.01611" lon="5.60724">
        <ele>1012</ele>
        <time>2010-06-20T09:05:18Z</time>
      </trkpt>
      <trkpt lat="45.01613" lon="5.60726">
        <ele>1012</ele>
        <time>2010-06-20T09:05:19Z</time>
      </trkpt>
      <trkpt lat="45.01614" lon="5.60729">
        <ele>1011</ele>
        <time>2010-06-20T09:05:20Z</time>
      </trkpt>
      <trkpt lat="45.01616" lon="5.60733">
        <ele>1010</ele>
        <time>2010-06-20T09:05:21Z</time>
      </trkpt>
      <trkpt lat="45.01618" lon="5.60738">
        <ele>1009</ele>
        <time>2010-06-20T09:05:22Z</time>
      </trkpt>
      <trkpt lat="45.01619" lon="5.60743">
        <ele>1008</ele>
        <time>2010-06-20T09:05:23Z</time>
      </trkpt>
      <trkpt lat="45.01621" lon="5.60747">
        <ele>1008</ele>
        <time>2010-06-20T09:05:24Z</time>
      </trkpt>
      <trkpt lat="45.01622" lon="5.60751">
        <ele>1007</ele>
        <time>2010-06-20T09:05:25Z</time>
      </trkpt>
      <trkpt lat="45.01624" lon="5.60756">
        <ele>1007</ele>
        <time>2010-06-20T09:05:26Z</time>
      </trkpt>
      <trkpt lat="45.01624" lon="5.60761">
        <ele>1006</ele>
        <time>2010-06-20T09:05:27Z</time>
      </trkpt>
      <trkpt lat="45.01625" lon="5.60766">
        <ele>1006</ele>
        <time>2010-06-20T09:05:28Z</time>
      </trkpt>
      <trkpt lat="45.01627" lon="5.6077">
        <ele>1006</ele>
        <time>2010-06-20T09:05:29Z</time>
      </trkpt>
      <trkpt lat="45.01628" lon="5.60775">
        <ele>1005</ele>
        <time>2010-06-20T09:05:30Z</time>
      </trkpt>
      <trkpt lat="45.01629" lon="5.6078">
        <ele>1004</ele>
        <time>2010-06-20T09:05:31Z</time>
      </trkpt>
      <trkpt lat="45.0163" lon="5.60786">
        <ele>1004</ele>
        <time>2010-06-20T09:05:32Z</time>
      </trkpt>
      <trkpt lat="45.01631" lon="5.60791">
        <ele>1004</ele>
        <time>2010-06-20T09:05:33Z</time>
      </trkpt>
      <trkpt lat="45.01633" lon="5.60795">
        <ele>1004</ele>
        <time>2010-06-20T09:05:34Z</time>
      </trkpt>
      <trkpt lat="45.01634" lon="5.60798">
        <ele>1004</ele>
        <time>2010-06-20T09:05:35Z</time>
      </trkpt>
      <trkpt lat="45.01634" lon="5.60802">
        <ele>1004</ele>
        <time>2010-06-20T09:05:36Z</time>
      </trkpt>
      <trkpt lat="45.01636" lon="5.60808">
        <ele>1004</ele>
        <time>2010-06-20T09:05:37Z</time>
      </trkpt>
      <trkpt lat="45.01638" lon="5.60814">
        <ele>1003</ele>
        <time>2010-06-20T09:05:38Z</time>
      </trkpt>
      <trkpt lat="45.01639" lon="5.60819">
        <ele>1003</ele>
        <time>2010-06-20T09:05:39Z</time>
      </trkpt>
      <trkpt lat="45.0164" lon="5.60825">
        <ele>1002</ele>
        <time>2010-06-20T09:05:40Z</time>
      </trkpt>
      <trkpt lat="45.01641" lon="5.6083">
        <ele>1002</ele>
        <time>2010-06-20T09:05:41Z</time>
      </trkpt>
      <trkpt lat="45.01643" lon="5.60836">
        <ele>1001</ele>
        <time>2010-06-20T09:05:42Z</time>
      </trkpt>
      <trkpt lat="45.01644" lon="5.60841">
        <ele>1000</ele>
        <time>2010-06-20T09:05:43Z</time>
      </trkpt>
      <trkpt lat="45.01647" lon="5.60845">
        <ele>999</ele>
        <time>2010-06-20T09:05:44Z</time>
      </trkpt>
      <trkpt lat="45.0165" lon="5.60849">
        <ele>999</ele>
        <time>2010-06-20T09:05:45Z</time>
      </trkpt>
      <trkpt lat="45.01652" lon="5.60854">
        <ele>998</ele>
        <time>2010-06-20T09:05:46Z</time>
      </trkpt>
      <trkpt lat="45.01653" lon="5.60859">
        <ele>997</ele>
        <time>2010-06-20T09:05:47Z</time>
      </trkpt>
      <trkpt lat="45.01655" lon="5.60864">
        <ele>997</ele>
        <time>2010-06-20T09:05:48Z</time>
      </trkpt>
      <trkpt lat="45.01656" lon="5.60869">
        <ele>997</ele>
        <time>2010-06-20T09:05:49Z</time>
      </trkpt>
      <trkpt lat="45.01657" lon="5.60872">
        <ele>996</ele>
        <time>2010-06-20T09:05:50Z</time>
      </trkpt>
      <trkpt lat="45.01658" lon="5.60876">
        <ele>996</ele>
        <time>2010-06-20T09:05:51Z</time>
      </trkpt>
      <trkpt lat="45.01658" lon="5.60879">
        <ele>996</ele>
        <time>2010-06-20T09:05:52Z</time>
      </trkpt>
      <trkpt lat="45.01659" lon="5.60883">
        <ele>995</ele>
        <time>2010-06-20T09:05:53Z</time>
      </trkpt>
      <trkpt lat="45.01659" lon="5.60887">
        <ele>995</ele>
        <time>2010-06-20T09:05:54Z</time>
      </trkpt>
      <trkpt lat="45.01657" lon="5.60889">
        <ele>995</ele>
        <time>2010-06-20T09:05:55Z</time>
      </trkpt>
      <trkpt lat="45.01656" lon="5.60891">
        <ele>994</ele>
        <time>2010-06-20T09:05:56Z</time>
      </trkpt>
      <trkpt lat="45.01655" lon="5.60895">
        <ele>993</ele>
        <time>2010-06-20T09:05:57Z</time>
      </trkpt>
      <trkpt lat="45.01654" lon="5.60898">
        <ele>993</ele>
        <time>2010-06-20T09:05:58Z</time>
      </trkpt>
      <trkpt lat="45.01655" lon="5.60902">
        <ele>992</ele>
        <time>2010-06-20T09:05:59Z</time>
      </trkpt>
      <trkpt lat="45.01654" lon="5.60906">
        <ele>991</ele>
        <time>2010-06-20T09:06:00Z</time>
      </trkpt>
      <trkpt lat="45.01653" lon="5.6091">
        <ele>990</ele>
        <time>2010-06-20T09:06:01Z</time>
      </trkpt>
      <trkpt lat="45.01652" lon="5.60914">
        <ele>989</ele>
        <time>2010-06-20T09:06:02Z</time>
      </trkpt>
      <trkpt lat="45.01651" lon="5.60918">
        <ele>988</ele>
        <time>2010-06-20T09:06:03Z</time>
      </trkpt>
      <trkpt lat="45.0165" lon="5.60922">
        <ele>987</ele>
        <time>2010-06-20T09:06:04Z</time>
      </trkpt>
      <trkpt lat="45.01649" lon="5.60926">
        <ele>986</ele>
        <time>2010-06-20T09:06:05Z</time>
      </trkpt>
      <trkpt lat="45.01648" lon="5.6093">
        <ele>985</ele>
        <time>2010-06-20T09:06:06Z</time>
      </trkpt>
      <trkpt lat="45.01647" lon="5.60934">
        <ele>984</ele>
        <time>2010-06-20T09:06:07Z</time>
      </trkpt>
      <trkpt lat="45.01646" lon="5.60939">
        <ele>983</ele>
        <time>2010-06-20T09:06:08Z</time>
      </trkpt>
      <trkpt lat="45.01646" lon="5.60944">
        <ele>982</ele>
        <time>2010-06-20T09:06:09Z</time>
      </trkpt>
      <trkpt lat="45.01645" lon="5.60949">
        <ele>981</ele>
        <time>2010-06-20T09:06:10Z</time>
      </trkpt>
      <trkpt lat="45.01643" lon="5.60955">
        <ele>980</ele>
        <time>2010-06-20T09:06:11Z</time>
      </trkpt>
      <trkpt lat="45.01642" lon="5.60961">
        <ele>979</ele>
        <time>2010-06-20T09:06:12Z</time>
      </trkpt>
      <trkpt lat="45.01641" lon="5.60967">
        <ele>978</ele>
        <time>2010-06-20T09:06:13Z</time>
      </trkpt>
      <trkpt lat="45.0164" lon="5.60972">
        <ele>977</ele>
        <time>2010-06-20T09:06:14Z</time>
      </trkpt>
      <trkpt lat="45.0164" lon="5.60977">
        <ele>977</ele>
        <time>2010-06-20T09:06:15Z</time>
      </trkpt>
      <trkpt lat="45.01639" lon="5.60983">
        <ele>977</ele>
        <time>2010-06-20T09:06:16Z</time>
      </trkpt>
      <trkpt lat="45.01638" lon="5.60988">
        <ele>976</ele>
        <time>2010-06-20T09:06:17Z</time>
      </trkpt>
      <trkpt lat="45.01636" lon="5.60993">
        <ele>976</ele>
        <time>2010-06-20T09:06:18Z</time>
      </trkpt>
      <trkpt lat="45.01634" lon="5.60998">
        <ele>975</ele>
        <time>2010-06-20T09:06:19Z</time>
      </trkpt>
      <trkpt lat="45.01632" lon="5.61003">
        <ele>975</ele>
        <time>2010-06-20T09:06:20Z</time>
      </trkpt>
      <trkpt lat="45.0163" lon="5.61008">
        <ele>974</ele>
        <time>2010-06-20T09:06:21Z</time>
      </trkpt>
      <trkpt lat="45.01628" lon="5.61013">
        <ele>974</ele>
        <time>2010-06-20T09:06:22Z</time>
      </trkpt>
      <trkpt lat="45.01626" lon="5.61017">
        <ele>973</ele>
        <time>2010-06-20T09:06:23Z</time>
      </trkpt>
      <trkpt lat="45.01625" lon="5.61021">
        <ele>972</ele>
        <time>2010-06-20T09:06:24Z</time>
      </trkpt>
      <trkpt lat="45.01623" lon="5.61025">
        <ele>972</ele>
        <time>2010-06-20T09:06:25Z</time>
      </trkpt>
      <trkpt lat="45.0162" lon="5.61029">
        <ele>971</ele>
        <time>2010-06-20T09:06:26Z</time>
      </trkpt>
      <trkpt lat="45.01617" lon="5.61033">
        <ele>971</ele>
        <time>2010-06-20T09:06:27Z</time>
      </trkpt>
      <trkpt lat="45.01614" lon="5.61036">
        <ele>970</ele>
        <time>2010-06-20T09:06:28Z</time>
      </trkpt>
      <trkpt lat="45.0161" lon="5.61039">
        <ele>970</ele>
        <time>2010-06-20T09:06:29Z</time>
      </trkpt>
      <trkpt lat="45.01607" lon="5.61039">
        <ele>969</ele>
        <time>2010-06-20T09:06:30Z</time>
      </trkpt>
      <trkpt lat="45.01603" lon="5.61039">
        <ele>969</ele>
        <time>2010-06-20T09:06:31Z</time>
      </trkpt>
      <trkpt lat="45.016" lon="5.61037">
        <ele>968</ele>
        <time>2010-06-20T09:06:32Z</time>
      </trkpt>
      <trkpt lat="45.01598" lon="5.61033">
        <ele>968</ele>
        <time>2010-06-20T09:06:33Z</time>
      </trkpt>
      <trkpt lat="45.01595" lon="5.6103">
        <ele>967</ele>
        <time>2010-06-20T09:06:34Z</time>
      </trkpt>
      <trkpt lat="45.01593" lon="5.61026">
        <ele>966</ele>
        <time>2010-06-20T09:06:35Z</time>
      </trkpt>
      <trkpt lat="45.01591" lon="5.61022">
        <ele>966</ele>
        <time>2010-06-20T09:06:36Z</time>
      </trkpt>
      <trkpt lat="45.01589" lon="5.61019">
        <ele>966</ele>
        <time>2010-06-20T09:06:37Z</time>
      </trkpt>
      <trkpt lat="45.01587" lon="5.61015">
        <ele>966</ele>
        <time>2010-06-20T09:06:38Z</time>
      </trkpt>
      <trkpt lat="45.01584" lon="5.61012">
        <ele>966</ele>
        <time>2010-06-20T09:06:39Z</time>
      </trkpt>
      <trkpt lat="45.01582" lon="5.61009">
        <ele>966</ele>
        <time>2010-06-20T09:06:40Z</time>
      </trkpt>
      <trkpt lat="45.01578" lon="5.61005">
        <ele>966</ele>
        <time>2010-06-20T09:06:41Z</time>
      </trkpt>
      <trkpt lat="45.01575" lon="5.61002">
        <ele>966</ele>
        <time>2010-06-20T09:06:42Z</time>
      </trkpt>
      <trkpt lat="45.01572" lon="5.60999">
        <ele>966</ele>
        <time>2010-06-20T09:06:43Z</time>
      </trkpt>
      <trkpt lat="45.01569" lon="5.60995">
        <ele>966</ele>
        <time>2010-06-20T09:06:44Z</time>
      </trkpt>
      <trkpt lat="45.01565" lon="5.60992">
        <ele>966</ele>
        <time>2010-06-20T09:06:45Z</time>
      </trkpt>
      <trkpt lat="45.01561" lon="5.60989">
        <ele>966</ele>
        <time>2010-06-20T09:06:46Z</time>
      </trkpt>
      <trkpt lat="45.01558" lon="5.60986">
        <ele>966</ele>
        <time>2010-06-20T09:06:47Z</time>
      </trkpt>
      <trkpt lat="45.01554" lon="5.60984">
        <ele>966</ele>
        <time>2010-06-20T09:06:48Z</time>
      </trkpt>
      <trkpt lat="45.01551" lon="5.60982">
        <ele>966</ele>
        <time>2010-06-20T09:06:49Z</time>
      </trkpt>
      <trkpt lat="45.01548" lon="5.60979">
        <ele>966</ele>
        <time>2010-06-20T09:06:50Z</time>
      </trkpt>
      <trkpt lat="45.01544" lon="5.60977">
        <ele>966</ele>
        <time>2010-06-20T09:06:51Z</time>
      </trkpt>
      <trkpt lat="45.01541" lon="5.60974">
        <ele>966</ele>
        <time>2010-06-20T09:06:52Z</time>
      </trkpt>
      <trkpt lat="45.01537" lon="5.60971">
        <ele>966</ele>
        <time>2010-06-20T09:06:53Z</time>
      </trkpt>
      <trkpt lat="45.01534" lon="5.60968">
        <ele>966</ele>
        <time>2010-06-20T09:06:54Z</time>
      </trkpt>
      <trkpt lat="45.0153" lon="5.60966">
        <ele>966</ele>
        <time>2010-06-20T09:06:55Z</time>
      </trkpt>
      <trkpt lat="45.01527" lon="5.60964">
        <ele>966</ele>
        <time>2010-06-20T09:06:56Z</time>
      </trkpt>
      <trkpt lat="45.01523" lon="5.60962">
        <ele>966</ele>
        <time>2010-06-20T09:06:57Z</time>
      </trkpt>
      <trkpt lat="45.0152" lon="5.6096">
        <ele>966</ele>
        <time>2010-06-20T09:06:58Z</time>
      </trkpt>
      <trkpt lat="45.01516" lon="5.60958">
        <ele>966</ele>
        <time>2010-06-20T09:06:59Z</time>
      </trkpt>
      <trkpt lat="45.01513" lon="5.60956">
        <ele>966</ele>
        <time>2010-06-20T09:07:00Z</time>
      </trkpt>
      <trkpt lat="45.01509" lon="5.60954">
        <ele>966</ele>
        <time>2010-06-20T09:07:01Z</time>
      </trkpt>
      <trkpt lat="45.01506" lon="5.60952">
        <ele>966</ele>
        <time>2010-06-20T09:07:02Z</time>
      </trkpt>
      <trkpt lat="45.01502" lon="5.60951">
        <ele>966</ele>
        <time>2010-06-20T09:07:03Z</time>
      </trkpt>
      <trkpt lat="45.01499" lon="5.6095">
        <ele>966</ele>
        <time>2010-06-20T09:07:04Z</time>
      </trkpt>
      <trkpt lat="45.01496" lon="5.60948">
        <ele>966</ele>
        <time>2010-06-20T09:07:05Z</time>
      </trkpt>
      <trkpt lat="45.01493" lon="5.60947">
        <ele>966</ele>
        <time>2010-06-20T09:07:06Z</time>
      </trkpt>
      <trkpt lat="45.0149" lon="5.60945">
        <ele>966</ele>
        <time>2010-06-20T09:07:07Z</time>
      </trkpt>
      <trkpt lat="45.01486" lon="5.60944">
        <ele>966</ele>
        <time>2010-06-20T09:07:08Z</time>
      </trkpt>
      <trkpt lat="45.01484" lon="5.60941">
        <ele>966</ele>
        <time>2010-06-20T09:07:09Z</time>
      </trkpt>
      <trkpt lat="45.01481" lon="5.60939">
        <ele>966</ele>
        <time>2010-06-20T09:07:10Z</time>
      </trkpt>
      <trkpt lat="45.01478" lon="5.60937">
        <ele>966</ele>
        <time>2010-06-20T09:07:11Z</time>
      </trkpt>
      <trkpt lat="45.01474" lon="5.60935">
        <ele>966</ele>
        <time>2010-06-20T09:07:12Z</time>
      </trkpt>
      <trkpt lat="45.01471" lon="5.60933">
        <ele>966</ele>
        <time>2010-06-20T09:07:13Z</time>
      </trkpt>
      <trkpt lat="45.01469" lon="5.60932">
        <ele>966</ele>
        <time>2010-06-20T09:07:14Z</time>
      </trkpt>
      <trkpt lat="45.01466" lon="5.6093">
        <ele>966</ele>
        <time>2010-06-20T09:07:15Z</time>
      </trkpt>
      <trkpt lat="45.01463" lon="5.60929">
        <ele>966</ele>
        <time>2010-06-20T09:07:16Z</time>
      </trkpt>
      <trkpt lat="45.01461" lon="5.60929">
        <ele>966</ele>
        <time>2010-06-20T09:07:17Z</time>
      </trkpt>
      <trkpt lat="45.0146" lon="5.60932">
        <ele>966</ele>
        <time>2010-06-20T09:07:18Z</time>
      </trkpt>
      <trkpt lat="45.01458" lon="5.60936">
        <ele>966</ele>
        <time>2010-06-20T09:07:19Z</time>
      </trkpt>
      <trkpt lat="45.01458" lon="5.60941">
        <ele>966</ele>
        <time>2010-06-20T09:07:20Z</time>
      </trkpt>
      <trkpt lat="45.01458" lon="5.60946">
        <ele>966</ele>
        <time>2010-06-20T09:07:21Z</time>
      </trkpt>
      <trkpt lat="45.01458" lon="5.60951">
        <ele>966</ele>
        <time>2010-06-20T09:07:22Z</time>
      </trkpt>
      <trkpt lat="45.01459" lon="5.60956">
        <ele>966</ele>
        <time>2010-06-20T09:07:23Z</time>
      </trkpt>
      <trkpt lat="45.01459" lon="5.60961">
        <ele>966</ele>
        <time>2010-06-20T09:07:24Z</time>
      </trkpt>
      <trkpt lat="45.01459" lon="5.60967">
        <ele>966</ele>
        <time>2010-06-20T09:07:25Z</time>
      </trkpt>
      <trkpt lat="45.01459" lon="5.60972">
        <ele>966</ele>
        <time>2010-06-20T09:07:26Z</time>
      </trkpt>
      <trkpt lat="45.01459" lon="5.60977">
        <ele>966</ele>
        <time>2010-06-20T09:07:27Z</time>
      </trkpt>
      <trkpt lat="45.0146" lon="5.60983">
        <ele>966</ele>
        <time>2010-06-20T09:07:28Z</time>
      </trkpt>
      <trkpt lat="45.0146" lon="5.60988">
        <ele>966</ele>
        <time>2010-06-20T09:07:29Z</time>
      </trkpt>
      <trkpt lat="45.01459" lon="5.60993">
        <ele>966</ele>
        <time>2010-06-20T09:07:30Z</time>
      </trkpt>
      <trkpt lat="45.01458" lon="5.60998">
        <ele>966</ele>
        <time>2010-06-20T09:07:31Z</time>
      </trkpt>
      <trkpt lat="45.01457" lon="5.61003">
        <ele>965</ele>
        <time>2010-06-20T09:07:32Z</time>
      </trkpt>
      <trkpt lat="45.01457" lon="5.61008">
        <ele>964</ele>
        <time>2010-06-20T09:07:33Z</time>
      </trkpt>
      <trkpt lat="45.01456" lon="5.61013">
        <ele>964</ele>
        <time>2010-06-20T09:07:34Z</time>
      </trkpt>
      <trkpt lat="45.01456" lon="5.61019">
        <ele>963</ele>
        <time>2010-06-20T09:07:35Z</time>
      </trkpt>
      <trkpt lat="45.01455" lon="5.61024">
        <ele>962</ele>
        <time>2010-06-20T09:07:36Z</time>
      </trkpt>
      <trkpt lat="45.01455" lon="5.61029">
        <ele>961</ele>
        <time>2010-06-20T09:07:37Z</time>
      </trkpt>
      <trkpt lat="45.01456" lon="5.61034">
        <ele>961</ele>
        <time>2010-06-20T09:07:38Z</time>
      </trkpt>
      <trkpt lat="45.01457" lon="5.61039">
        <ele>960</ele>
        <time>2010-06-20T09:07:39Z</time>
      </trkpt>
      <trkpt lat="45.01458" lon="5.61044">
        <ele>959</ele>
        <time>2010-06-20T09:07:40Z</time>
      </trkpt>
      <trkpt lat="45.0146" lon="5.61047">
        <ele>958</ele>
        <time>2010-06-20T09:07:41Z</time>
      </trkpt>
      <trkpt lat="45.01463" lon="5.61047">
        <ele>958</ele>
        <time>2010-06-20T09:07:42Z</time>
      </trkpt>
      <trkpt lat="45.01467" lon="5.61048">
        <ele>957</ele>
        <time>2010-06-20T09:07:43Z</time>
      </trkpt>
      <trkpt lat="45.01472" lon="5.61051">
        <ele>956</ele>
        <time>2010-06-20T09:07:44Z</time>
      </trkpt>
      <trkpt lat="45.01476" lon="5.61053">
        <ele>956</ele>
        <time>2010-06-20T09:07:45Z</time>
      </trkpt>
      <trkpt lat="45.01481" lon="5.61055">
        <ele>956</ele>
        <time>2010-06-20T09:07:46Z</time>
      </trkpt>
      <trkpt lat="45.01485" lon="5.61057">
        <ele>955</ele>
        <time>2010-06-20T09:07:47Z</time>
      </trkpt>
      <trkpt lat="45.01489" lon="5.61059">
        <ele>955</ele>
        <time>2010-06-20T09:07:48Z</time>
      </trkpt>
      <trkpt lat="45.01493" lon="5.61061">
        <ele>955</ele>
        <time>2010-06-20T09:07:49Z</time>
      </trkpt>
      <trkpt lat="45.01496" lon="5.61062">
        <ele>955</ele>
        <time>2010-06-20T09:07:50Z</time>
      </trkpt>
      <trkpt lat="45.01498" lon="5.61064">
        <ele>955</ele>
        <time>2010-06-20T09:07:51Z</time>
      </trkpt>
      <trkpt lat="45.01501" lon="5.61066">
        <ele>955</ele>
        <time>2010-06-20T09:07:52Z</time>
      </trkpt>
      <trkpt lat="45.01502" lon="5.61066">
        <ele>955</ele>
        <time>2010-06-20T09:08:01Z</time>
      </trkpt>
      <trkpt lat="45.01502" lon="5.61065">
        <ele>955</ele>
        <time>2010-06-20T09:08:04Z</time>
      </trkpt>
      <trkpt lat="45.01503" lon="5.61066">
        <ele>955</ele>
        <time>2010-06-20T09:08:31Z</time>
      </trkpt>
      <trkpt lat="45.01505" lon="5.61068">
        <ele>955</ele>
        <time>2010-06-20T09:08:34Z</time>
      </trkpt>
      <trkpt lat="45.01506" lon="5.61068">
        <ele>955</ele>
        <time>2010-06-20T09:08:36Z</time>
      </trkpt>
      <trkpt lat="45.01508" lon="5.61067">
        <ele>955</ele>
        <time>2010-06-20T09:08:38Z</time>
      </trkpt>
      <trkpt lat="45.0151" lon="5.61065">
        <ele>955</ele>
        <time>2010-06-20T09:08:40Z</time>
      </trkpt>
      <trkpt lat="45.01511" lon="5.61063">
        <ele>955</ele>
        <time>2010-06-20T09:08:42Z</time>
      </trkpt>
      <trkpt lat="45.01513" lon="5.61061">
        <ele>955</ele>
        <time>2010-06-20T09:08:44Z</time>
      </trkpt>
      <trkpt lat="45.01514" lon="5.6106">
        <ele>955</ele>
        <time>2010-06-20T09:08:45Z</time>
      </trkpt>
      <trkpt lat="45.01516" lon="5.61057">
        <ele>955</ele>
        <time>2010-06-20T09:08:47Z</time>
      </trkpt>
      <trkpt lat="45.01518" lon="5.61055">
        <ele>955</ele>
        <time>2010-06-20T09:08:49Z</time>
      </trkpt>
      <trkpt lat="45.01519" lon="5.61053">
        <ele>955</ele>
        <time>2010-06-20T09:08:51Z</time>
      </trkpt>
      <trkpt lat="45.01521" lon="5.61051">
        <ele>955</ele>
        <time>2010-06-20T09:08:53Z</time>
      </trkpt>
      <trkpt lat="45.01522" lon="5.61048">
        <ele>955</ele>
        <time>2010-06-20T09:08:55Z</time>
      </trkpt>
      <trkpt lat="45.01523" lon="5.61046">
        <ele>955</ele>
        <time>2010-06-20T09:08:57Z</time>
      </trkpt>
      <trkpt lat="45.01525" lon="5.61045">
        <ele>955</ele>
        <time>2010-06-20T09:08:59Z</time>
      </trkpt>
      <trkpt lat="45.01527" lon="5.61044">
        <ele>955</ele>
        <time>2010-06-20T09:09:01Z</time>
      </trkpt>
      <trkpt lat="45.01528" lon="5.61042">
        <ele>955</ele>
        <time>2010-06-20T09:09:12Z</time>
      </trkpt>
      <trkpt lat="45.01529" lon="5.61042">
        <ele>955</ele>
        <time>2010-06-20T09:09:30Z</time>
      </trkpt>
      <trkpt lat="45.01529" lon="5.6104">
        <ele>955</ele>
        <time>2010-06-20T09:09:35Z</time>
      </trkpt>
      <trkpt lat="45.01529" lon="5.61042">
        <ele>955</ele>
        <time>2010-06-20T09:09:54Z</time>
      </trkpt>
      <trkpt lat="45.01529" lon="5.61044">
        <ele>955</ele>
        <time>2010-06-20T09:09:56Z</time>
      </trkpt>
      <trkpt lat="45.01529" lon="5.61046">
        <ele>955</ele>
        <time>2010-06-20T09:10:08Z</time>
      </trkpt>
      <trkpt lat="45.01529" lon="5.61046">
        <ele>955</ele>
        <time>2010-06-20T09:10:09Z</time>
      </trkpt>
    </trkseg>
  </trk>
</gpx>